#--- Experiment ---------------------------------
# comment
#
#--- System ------------------------------------------------------------------------------
#Data from PyroScience Workbench V1.5.3.2466   www.pyroscience.com
#MESSRECHNER4
#--- Instrument --------------------------------------------------------------------------
#Device: FSP19 [A] FSPRO-4 SN:21450119 UiD:2466C2055D64A687 Firmware:4.11 Build:001
#--- Channel -----------------------------------------------------------------------------
#Channel [A Ch.1] - pH Sensor - SHG7-597-623 
#--- Settings & Calibration --------------------------------------------------------------
#Settings:	Duration	Intensity	Amp	Frequency (Hz)	Crc Enable	Write Lock	Autom. Flash Duration	Autom. Amp Level	Broadcast Interval (ms)	Broadcast Enabled Sensors	Broadcast Options	Analyte	Fiber Type	Fiber Length (mm)	Radio Temp	Temperature (C)	Opt. Temp. Chan.	Radio Pressure	Pressure (mbar)	Salinity (g/l)
#	16 ms	80% (G)	10M (400x)	3000	FALSE	FALSE	FALSE	TRUE	0	47	0	pH	1 mm	1000	External Temperature Sensor	20.000000	1	Internal Pressure Sensor	1013.000000	7.500000
#Calibration:	lastCal1	lastCal2	lastCal3	R1	pH1 (pH)	temp1 (C)	salinity1 (g/L)	R2	pH2 (pH)	temp2 (C)	salinity2 (g/L)	offset (pH)	dPhi_ref ()	attenuation coefficient (1/m)	bkgdAmpl (mV)	bkgdDphi ()	dsf_dye	dtf_dye	pka	slope	bottom_t	top_t	slope_t	pka_t	pka_is1	pka_is2
#	09.12.2024	01.01.2001	01.01.2001	1.420695	2.266000	24.890000	2.000000	0.046000	14.000000	20.000000	7.500000	0.000000	57.800000	0.033900	0.584000	0.000000	0.904700	-0.005670	8.319000	1.087000	-0.015900	-0.002465	0.000000	-0.011470	2.540000	0.250000
#--- Temperature Compensation Channel ----------------------------------------------------
#Compensation Channel [A T1] - PT100 Temperature Sensor - Calibration offset = 0.00C
#Settings: n/a
#Calibration: n/a
#--- Measurement Data --------------------------------------------------------------------
Date [A Ch.1 Main]	Time [A Ch.1 Main]	 dt (s) [A Ch.1 Main]	pH [A Ch.1 Main]	pH (pH) [A Ch.1 Main]	dphi () [A Ch.1 Main]	Signal Intensity (mV) [A Ch.1 Main]	Ambient Light (mV) [A Ch.1 Main]	R [A Ch.1 Main]	Status [A Ch.1 Main]	Date [A Ch.1 CompT]	Time [A Ch.1 CompT]	 dt (s) [A Ch.1 CompT]	Sample Temp. (C) [A Ch.1 CompT]	Status [A Ch.1 CompT]
11-12-2024	08:31:03.546	-0.876	7.495	7.495	27.502	938	0	1.0920	OK	11-12-2024	08:31:03.546	-0.876	37.579	OK
11-12-2024	08:31:03.647	-0.774	7.495	7.495	27.500	939	0	1.0921	OK	11-12-2024	08:31:03.647	-0.774	37.579	OK
11-12-2024	08:31:03.992	-0.429	7.496	7.496	27.509	939	0	1.0915	OK	11-12-2024	08:31:03.992	-0.429	37.581	OK
11-12-2024	08:31:04.147	-0.274	7.496	7.496	27.510	938	0	1.0915	OK	11-12-2024	08:31:04.147	-0.274	37.581	OK
11-12-2024	08:31:04.246	-0.175	7.496	7.496	27.509	938	0	1.0915	OK	11-12-2024	08:31:04.246	-0.175	37.581	OK
11-12-2024	08:31:04.347	-0.074	7.496	7.496	27.507	939	0	1.0917	OK	11-12-2024	08:31:04.347	-0.074	37.581	OK
11-12-2024	08:31:04.450	0.029	7.495	7.495	27.503	939	0	1.0919	OK	11-12-2024	08:31:04.450	0.029	37.580	OK
11-12-2024	08:31:04.647	0.226	7.496	7.496	27.506	938	0	1.0917	OK	11-12-2024	08:31:04.647	0.226	37.581	OK
11-12-2024	08:31:05.005	0.584	7.497	7.497	27.513	939	0	1.0912	OK	11-12-2024	08:31:05.005	0.584	37.580	OK
11-12-2024	08:31:05.147	0.726	7.496	7.496	27.509	938	0	1.0915	OK	11-12-2024	08:31:05.147	0.726	37.580	OK
11-12-2024	08:31:05.248	0.827	7.495	7.495	27.504	939	0	1.0919	OK	11-12-2024	08:31:05.248	0.827	37.580	OK
11-12-2024	08:31:05.347	0.926	7.496	7.496	27.506	938	0	1.0917	OK	11-12-2024	08:31:05.347	0.926	37.580	OK
11-12-2024	08:31:05.449	1.028	7.496	7.496	27.506	938	0	1.0917	OK	11-12-2024	08:31:05.449	1.028	37.580	OK
11-12-2024	08:31:05.552	1.131	7.495	7.495	27.503	938	0	1.0919	OK	11-12-2024	08:31:05.552	1.131	37.580	OK
11-12-2024	08:31:05.652	1.231	7.495	7.495	27.502	938	0	1.0920	OK	11-12-2024	08:31:05.652	1.231	37.579	OK
11-12-2024	08:31:05.994	1.573	7.496	7.496	27.508	938	0	1.0916	OK	11-12-2024	08:31:05.994	1.573	37.579	OK
11-12-2024	08:31:06.152	1.731	7.496	7.496	27.508	939	0	1.0916	OK	11-12-2024	08:31:06.152	1.731	37.579	OK
11-12-2024	08:31:06.253	1.832	7.495	7.495	27.502	938	0	1.0920	OK	11-12-2024	08:31:06.253	1.832	37.579	OK
11-12-2024	08:31:06.353	1.932	7.496	7.496	27.504	938	0	1.0918	OK	11-12-2024	08:31:06.353	1.932	37.579	OK
11-12-2024	08:31:06.452	2.031	7.496	7.496	27.506	938	0	1.0917	OK	11-12-2024	08:31:06.452	2.031	37.579	OK
11-12-2024	08:31:06.553	2.132	7.495	7.495	27.501	938	0	1.0920	OK	11-12-2024	08:31:06.553	2.132	37.579	OK
11-12-2024	08:31:06.653	2.232	7.496	7.496	27.505	938	0	1.0918	OK	11-12-2024	08:31:06.653	2.232	37.579	OK
11-12-2024	08:31:06.994	2.573	7.496	7.496	27.509	938	0	1.0915	OK	11-12-2024	08:31:06.994	2.573	37.578	OK
11-12-2024	08:31:07.153	2.732	7.496	7.496	27.508	938	0	1.0915	OK	11-12-2024	08:31:07.153	2.732	37.578	OK
11-12-2024	08:31:07.253	2.832	7.495	7.495	27.503	938	0	1.0919	OK	11-12-2024	08:31:07.253	2.832	37.579	OK
11-12-2024	08:31:07.355	2.934	7.495	7.495	27.503	938	0	1.0919	OK	11-12-2024	08:31:07.355	2.934	37.579	OK
11-12-2024	08:31:07.455	3.034	7.495	7.495	27.499	939	0	1.0922	OK	11-12-2024	08:31:07.455	3.034	37.579	OK
11-12-2024	08:31:07.555	3.134	7.495	7.495	27.504	938	0	1.0919	OK	11-12-2024	08:31:07.555	3.134	37.579	OK
11-12-2024	08:31:07.654	3.233	7.495	7.495	27.499	938	0	1.0922	OK	11-12-2024	08:31:07.654	3.233	37.580	OK
11-12-2024	08:31:07.998	3.577	7.496	7.496	27.506	938	0	1.0917	OK	11-12-2024	08:31:07.998	3.577	37.579	OK
11-12-2024	08:31:08.155	3.734	7.496	7.496	27.505	939	0	1.0918	OK	11-12-2024	08:31:08.155	3.734	37.580	OK
11-12-2024	08:31:08.256	3.835	7.495	7.495	27.501	939	0	1.0921	OK	11-12-2024	08:31:08.256	3.835	37.580	OK
11-12-2024	08:31:08.357	3.936	7.495	7.495	27.499	938	0	1.0922	OK	11-12-2024	08:31:08.357	3.936	37.580	OK
11-12-2024	08:31:08.456	4.035	7.495	7.495	27.502	938	0	1.0920	OK	11-12-2024	08:31:08.456	4.035	37.581	OK
11-12-2024	08:31:08.557	4.135	7.494	7.494	27.496	938	0	1.0924	OK	11-12-2024	08:31:08.557	4.135	37.581	OK
11-12-2024	08:31:08.656	4.235	7.495	7.495	27.498	938	0	1.0922	OK	11-12-2024	08:31:08.656	4.235	37.581	OK
11-12-2024	08:31:08.996	4.575	7.496	7.496	27.510	939	0	1.0914	OK	11-12-2024	08:31:08.996	4.575	37.581	OK
11-12-2024	08:31:09.157	4.736	7.496	7.496	27.509	938	0	1.0915	OK	11-12-2024	08:31:09.157	4.736	37.580	OK
11-12-2024	08:31:09.257	4.836	7.495	7.495	27.503	938	0	1.0919	OK	11-12-2024	08:31:09.257	4.836	37.580	OK
11-12-2024	08:31:09.356	4.935	7.495	7.495	27.503	938	0	1.0919	OK	11-12-2024	08:31:09.356	4.935	37.580	OK
11-12-2024	08:31:09.458	5.037	7.495	7.495	27.500	938	0	1.0921	OK	11-12-2024	08:31:09.458	5.037	37.580	OK
11-12-2024	08:31:09.557	5.136	7.495	7.495	27.499	938	0	1.0922	OK	11-12-2024	08:31:09.557	5.136	37.580	OK
11-12-2024	08:31:09.658	5.236	7.495	7.495	27.500	938	0	1.0921	OK	11-12-2024	08:31:09.658	5.236	37.580	OK
11-12-2024	08:31:09.998	5.577	7.496	7.496	27.507	939	0	1.0916	OK	11-12-2024	08:31:09.998	5.577	37.580	OK
11-12-2024	08:31:10.157	5.736	7.496	7.496	27.507	938	0	1.0916	OK	11-12-2024	08:31:10.157	5.736	37.580	OK
11-12-2024	08:31:10.258	5.837	7.496	7.496	27.507	938	0	1.0916	OK	11-12-2024	08:31:10.258	5.837	37.580	OK
11-12-2024	08:31:10.357	5.936	7.495	7.495	27.499	938	0	1.0922	OK	11-12-2024	08:31:10.357	5.936	37.580	OK
11-12-2024	08:31:10.459	6.038	7.494	7.494	27.497	938	0	1.0924	OK	11-12-2024	08:31:10.459	6.038	37.580	OK
11-12-2024	08:31:10.558	6.137	7.495	7.495	27.500	938	0	1.0921	OK	11-12-2024	08:31:10.558	6.137	37.580	OK
11-12-2024	08:31:10.658	6.237	7.495	7.495	27.500	938	0	1.0921	OK	11-12-2024	08:31:10.658	6.237	37.579	OK
11-12-2024	08:31:11.000	6.579	7.496	7.496	27.506	938	0	1.0917	OK	11-12-2024	08:31:11.000	6.579	37.579	OK
11-12-2024	08:31:11.159	6.738	7.496	7.496	27.509	939	0	1.0915	OK	11-12-2024	08:31:11.159	6.738	37.579	OK
11-12-2024	08:31:11.258	6.837	7.495	7.495	27.500	938	0	1.0921	OK	11-12-2024	08:31:11.258	6.837	37.579	OK
11-12-2024	08:31:11.359	6.938	7.496	7.496	27.505	938	0	1.0917	OK	11-12-2024	08:31:11.359	6.938	37.579	OK
11-12-2024	08:31:11.460	7.038	7.495	7.495	27.501	938	0	1.0920	OK	11-12-2024	08:31:11.460	7.038	37.578	OK
11-12-2024	08:31:11.559	7.138	7.495	7.495	27.500	938	0	1.0920	OK	11-12-2024	08:31:11.559	7.138	37.578	OK
11-12-2024	08:31:11.659	7.238	7.495	7.495	27.498	939	0	1.0922	OK	11-12-2024	08:31:11.659	7.238	37.577	OK
11-12-2024	08:31:12.018	7.597	7.496	7.496	27.504	939	0	1.0918	OK	11-12-2024	08:31:12.018	7.597	37.578	OK
11-12-2024	08:31:12.160	7.739	7.496	7.496	27.504	938	0	1.0918	OK	11-12-2024	08:31:12.160	7.739	37.578	OK
11-12-2024	08:31:12.260	7.839	7.495	7.495	27.500	938	0	1.0920	OK	11-12-2024	08:31:12.260	7.839	37.578	OK
11-12-2024	08:31:12.360	7.939	7.495	7.495	27.502	938	0	1.0919	OK	11-12-2024	08:31:12.360	7.939	37.578	OK
11-12-2024	08:31:12.461	8.040	7.495	7.495	27.498	938	0	1.0922	OK	11-12-2024	08:31:12.461	8.040	37.578	OK
11-12-2024	08:31:12.561	8.140	7.495	7.495	27.500	938	0	1.0920	OK	11-12-2024	08:31:12.561	8.140	37.578	OK
11-12-2024	08:31:12.660	8.239	7.495	7.495	27.500	938	0	1.0920	OK	11-12-2024	08:31:12.660	8.239	37.578	OK
11-12-2024	08:31:12.998	8.577	7.496	7.496	27.507	938	0	1.0916	OK	11-12-2024	08:31:12.998	8.577	37.578	OK
11-12-2024	08:31:13.160	8.739	7.496	7.496	27.507	938	0	1.0916	OK	11-12-2024	08:31:13.160	8.739	37.578	OK
11-12-2024	08:31:13.260	8.839	7.495	7.495	27.501	938	0	1.0920	OK	11-12-2024	08:31:13.260	8.839	37.578	OK
11-12-2024	08:31:13.361	8.940	7.495	7.495	27.502	938	0	1.0920	OK	11-12-2024	08:31:13.361	8.940	37.578	OK
11-12-2024	08:31:13.461	9.040	7.495	7.495	27.499	938	0	1.0922	OK	11-12-2024	08:31:13.461	9.040	37.578	OK
11-12-2024	08:31:13.561	9.140	7.495	7.495	27.499	938	0	1.0922	OK	11-12-2024	08:31:13.561	9.140	37.577	OK
11-12-2024	08:31:13.661	9.240	7.495	7.495	27.499	938	0	1.0922	OK	11-12-2024	08:31:13.661	9.240	37.577	OK
11-12-2024	08:31:14.097	9.676	7.497	7.497	27.511	939	0	1.0913	OK	11-12-2024	08:31:14.097	9.676	37.577	OK
11-12-2024	08:31:14.268	9.846	7.496	7.496	27.509	938	0	1.0915	OK	11-12-2024	08:31:14.268	9.846	37.577	OK
11-12-2024	08:31:14.487	10.066	7.496	7.496	27.509	938	0	1.0915	OK	11-12-2024	08:31:14.487	10.066	37.578	OK
11-12-2024	08:31:14.675	10.254	7.495	7.495	27.503	938	0	1.0919	OK	11-12-2024	08:31:14.675	10.254	37.577	OK
11-12-2024	08:31:15.125	10.704	7.497	7.497	27.512	938	0	1.0913	OK	11-12-2024	08:31:15.125	10.704	37.577	OK
11-12-2024	08:31:15.280	10.859	7.496	7.496	27.507	938	0	1.0916	OK	11-12-2024	08:31:15.280	10.859	37.577	OK
11-12-2024	08:31:15.497	11.076	7.496	7.496	27.508	938	0	1.0916	OK	11-12-2024	08:31:15.497	11.076	37.577	OK
11-12-2024	08:31:15.700	11.279	7.496	7.496	27.508	938	0	1.0916	OK	11-12-2024	08:31:15.700	11.279	37.578	OK
11-12-2024	08:31:16.134	11.713	7.497	7.497	27.513	939	0	1.0912	OK	11-12-2024	08:31:16.134	11.713	37.577	OK
11-12-2024	08:31:16.305	11.884	7.496	7.496	27.509	939	0	1.0915	OK	11-12-2024	08:31:16.305	11.884	37.577	OK
11-12-2024	08:31:16.509	12.088	7.496	7.496	27.509	938	0	1.0915	OK	11-12-2024	08:31:16.509	12.088	37.577	OK
11-12-2024	08:31:16.713	12.291	7.496	7.496	27.509	939	0	1.0915	OK	11-12-2024	08:31:16.713	12.291	37.576	OK
11-12-2024	08:31:17.148	12.727	7.497	7.497	27.516	939	0	1.0910	OK	11-12-2024	08:31:17.148	12.727	37.578	OK
11-12-2024	08:31:17.324	12.903	7.497	7.497	27.514	939	0	1.0912	OK	11-12-2024	08:31:17.324	12.903	37.578	OK
11-12-2024	08:31:17.526	13.105	7.496	7.496	27.508	939	0	1.0916	OK	11-12-2024	08:31:17.526	13.105	37.576	OK
11-12-2024	08:31:17.730	13.309	7.497	7.497	27.512	939	0	1.0913	OK	11-12-2024	08:31:17.730	13.309	37.576	OK
11-12-2024	08:31:18.146	13.725	7.497	7.497	27.516	939	0	1.0910	OK	11-12-2024	08:31:18.146	13.725	37.579	OK
11-12-2024	08:31:18.339	13.918	7.497	7.497	27.515	939	0	1.0911	OK	11-12-2024	08:31:18.339	13.918	37.579	OK
11-12-2024	08:31:18.544	14.123	7.497	7.497	27.514	939	0	1.0912	OK	11-12-2024	08:31:18.544	14.123	37.580	OK
11-12-2024	08:31:18.745	14.324	7.496	7.496	27.508	939	0	1.0916	OK	11-12-2024	08:31:18.745	14.324	37.580	OK
11-12-2024	08:31:19.158	14.737	7.497	7.497	27.516	939	0	1.0910	OK	11-12-2024	08:31:19.158	14.737	37.580	OK
11-12-2024	08:31:19.360	14.939	7.497	7.497	27.514	939	0	1.0912	OK	11-12-2024	08:31:19.360	14.939	37.580	OK
11-12-2024	08:31:19.562	15.141	7.496	7.496	27.510	939	0	1.0915	OK	11-12-2024	08:31:19.562	15.141	37.581	OK
11-12-2024	08:31:19.780	15.359	7.496	7.496	27.512	939	0	1.0914	OK	11-12-2024	08:31:19.780	15.359	37.581	OK
11-12-2024	08:31:20.219	15.798	7.497	7.497	27.513	939	0	1.0913	OK	11-12-2024	08:31:20.219	15.798	37.581	OK
11-12-2024	08:31:20.388	15.967	7.497	7.497	27.513	939	0	1.0913	OK	11-12-2024	08:31:20.388	15.967	37.581	OK
11-12-2024	08:31:20.591	16.170	7.497	7.497	27.514	938	0	1.0912	OK	11-12-2024	08:31:20.591	16.170	37.581	OK
11-12-2024	08:31:20.796	16.375	7.497	7.497	27.516	939	0	1.0911	OK	11-12-2024	08:31:20.796	16.375	37.581	OK
11-12-2024	08:31:21.232	16.811	7.498	7.498	27.520	939	0	1.0908	OK	11-12-2024	08:31:21.232	16.811	37.580	OK
11-12-2024	08:31:21.405	16.984	7.497	7.497	27.514	938	0	1.0912	OK	11-12-2024	08:31:21.405	16.984	37.579	OK
11-12-2024	08:31:21.607	17.186	7.497	7.497	27.519	939	0	1.0909	OK	11-12-2024	08:31:21.607	17.186	37.579	OK
11-12-2024	08:31:21.811	17.390	7.497	7.497	27.515	939	0	1.0912	OK	11-12-2024	08:31:21.811	17.390	37.578	OK
11-12-2024	08:31:22.226	17.805	7.496	7.496	27.510	939	0	1.0916	OK	11-12-2024	08:31:22.226	17.805	37.578	OK
11-12-2024	08:31:22.431	18.010	7.497	7.497	27.514	939	0	1.0913	OK	11-12-2024	08:31:22.431	18.010	37.578	OK
11-12-2024	08:31:22.632	18.211	7.497	7.497	27.517	939	0	1.0911	OK	11-12-2024	08:31:22.632	18.211	37.577	OK
11-12-2024	08:31:23.038	18.617	7.497	7.497	27.515	939	0	1.0912	OK	11-12-2024	08:31:23.038	18.617	37.576	OK
11-12-2024	08:31:23.248	18.827	7.497	7.497	27.516	939	0	1.0911	OK	11-12-2024	08:31:23.248	18.827	37.576	OK
11-12-2024	08:31:23.452	19.031	7.497	7.497	27.513	939	0	1.0913	OK	11-12-2024	08:31:23.452	19.031	37.575	OK
11-12-2024	08:31:23.556	19.134	7.497	7.497	27.516	939	0	1.0911	OK	11-12-2024	08:31:23.556	19.134	37.575	OK
11-12-2024	08:31:23.760	19.339	7.497	7.497	27.519	939	0	1.0909	OK	11-12-2024	08:31:23.760	19.339	37.576	OK
11-12-2024	08:31:24.163	19.742	7.497	7.497	27.516	939	0	1.0911	OK	11-12-2024	08:31:24.163	19.742	37.574	OK
11-12-2024	08:31:24.275	19.853	7.496	7.496	27.512	939	0	1.0914	OK	11-12-2024	08:31:24.275	19.853	37.574	OK
11-12-2024	08:31:24.489	20.068	7.496	7.496	27.511	939	0	1.0915	OK	11-12-2024	08:31:24.489	20.068	37.575	OK
11-12-2024	08:31:24.690	20.269	7.497	7.497	27.512	939	0	1.0914	OK	11-12-2024	08:31:24.690	20.269	37.576	OK
11-12-2024	08:31:25.137	20.716	7.498	7.498	27.519	939	0	1.0909	OK	11-12-2024	08:31:25.137	20.716	37.576	OK
11-12-2024	08:31:25.299	20.878	7.497	7.497	27.512	939	0	1.0914	OK	11-12-2024	08:31:25.299	20.878	37.576	OK
11-12-2024	08:31:25.503	21.082	7.497	7.497	27.518	939	0	1.0910	OK	11-12-2024	08:31:25.503	21.082	37.575	OK
11-12-2024	08:31:25.704	21.283	7.497	7.497	27.514	939	0	1.0913	OK	11-12-2024	08:31:25.704	21.283	37.576	OK
11-12-2024	08:31:26.188	21.767	7.498	7.498	27.522	939	0	1.0907	OK	11-12-2024	08:31:26.188	21.767	37.578	OK
11-12-2024	08:31:26.330	21.909	7.497	7.497	27.519	939	0	1.0909	OK	11-12-2024	08:31:26.330	21.909	37.579	OK
11-12-2024	08:31:26.531	22.110	7.497	7.497	27.517	939	0	1.0911	OK	11-12-2024	08:31:26.531	22.110	37.578	OK
11-12-2024	08:31:26.736	22.315	7.497	7.497	27.519	939	0	1.0909	OK	11-12-2024	08:31:26.736	22.315	37.579	OK
11-12-2024	08:31:27.188	22.767	7.497	7.497	27.519	939	0	1.0909	OK	11-12-2024	08:31:27.188	22.767	37.579	OK
11-12-2024	08:31:27.345	22.924	7.497	7.497	27.517	939	0	1.0911	OK	11-12-2024	08:31:27.345	22.924	37.580	OK
11-12-2024	08:31:27.545	23.124	7.497	7.497	27.514	939	0	1.0913	OK	11-12-2024	08:31:27.545	23.124	37.580	OK
11-12-2024	08:31:27.747	23.326	7.497	7.497	27.516	939	0	1.0911	OK	11-12-2024	08:31:27.747	23.326	37.579	OK
11-12-2024	08:31:28.199	23.778	7.498	7.498	27.523	939	0	1.0907	OK	11-12-2024	08:31:28.199	23.778	37.579	OK
11-12-2024	08:31:28.356	23.935	7.497	7.497	27.516	939	0	1.0911	OK	11-12-2024	08:31:28.356	23.935	37.579	OK
11-12-2024	08:31:28.559	24.138	7.497	7.497	27.516	939	0	1.0911	OK	11-12-2024	08:31:28.559	24.138	37.579	OK
11-12-2024	08:31:28.761	24.340	7.498	7.498	27.520	939	0	1.0909	OK	11-12-2024	08:31:28.761	24.340	37.579	OK
11-12-2024	08:31:29.203	24.781	7.497	7.497	27.518	939	0	1.0910	OK	11-12-2024	08:31:29.203	24.781	37.579	OK
11-12-2024	08:31:29.384	24.963	7.498	7.498	27.520	939	0	1.0909	OK	11-12-2024	08:31:29.384	24.963	37.578	OK
11-12-2024	08:31:29.587	25.166	7.498	7.498	27.521	939	0	1.0908	OK	11-12-2024	08:31:29.587	25.166	37.579	OK
11-12-2024	08:31:29.801	25.379	7.497	7.497	27.518	939	0	1.0910	OK	11-12-2024	08:31:29.801	25.379	37.580	OK
11-12-2024	08:31:30.207	25.786	7.497	7.497	27.520	939	0	1.0909	OK	11-12-2024	08:31:30.207	25.786	37.580	OK
11-12-2024	08:31:30.409	25.988	7.498	7.498	27.522	939	0	1.0908	OK	11-12-2024	08:31:30.409	25.988	37.581	OK
11-12-2024	08:31:30.622	26.201	7.497	7.497	27.516	939	0	1.0912	OK	11-12-2024	08:31:30.622	26.201	37.580	OK
11-12-2024	08:31:30.825	26.404	7.497	7.497	27.514	939	0	1.0913	OK	11-12-2024	08:31:30.825	26.404	37.580	OK
11-12-2024	08:31:31.203	26.782	7.498	7.498	27.521	939	0	1.0908	OK	11-12-2024	08:31:31.203	26.782	37.580	OK
11-12-2024	08:31:31.334	26.913	7.497	7.497	27.518	939	0	1.0910	OK	11-12-2024	08:31:31.334	26.913	37.579	OK
11-12-2024	08:31:31.536	27.115	7.497	7.497	27.518	939	0	1.0910	OK	11-12-2024	08:31:31.536	27.115	37.579	OK
11-12-2024	08:31:31.740	27.319	7.497	7.497	27.516	939	0	1.0911	OK	11-12-2024	08:31:31.740	27.319	37.579	OK
11-12-2024	08:31:32.015	27.594	7.497	7.497	27.518	939	0	1.0910	OK	11-12-2024	08:31:32.015	27.594	37.578	OK
11-12-2024	08:31:32.320	27.899	7.497	7.497	27.516	939	0	1.0911	OK	11-12-2024	08:31:32.320	27.899	37.578	OK
11-12-2024	08:31:32.451	28.029	7.497	7.497	27.514	939	0	1.0913	OK	11-12-2024	08:31:32.451	28.029	37.578	OK
11-12-2024	08:31:32.657	28.236	7.497	7.497	27.518	939	0	1.0910	OK	11-12-2024	08:31:32.657	28.236	37.578	OK
11-12-2024	08:31:32.868	28.447	7.497	7.497	27.519	939	0	1.0909	OK	11-12-2024	08:31:32.868	28.447	37.576	OK
11-12-2024	08:31:33.309	28.888	7.497	7.497	27.519	939	0	1.0909	OK	11-12-2024	08:31:33.309	28.888	37.576	OK
11-12-2024	08:31:33.479	29.058	7.496	7.496	27.512	939	0	1.0914	OK	11-12-2024	08:31:33.479	29.058	37.575	OK
11-12-2024	08:31:33.714	29.293	7.497	7.497	27.519	939	0	1.0910	OK	11-12-2024	08:31:33.714	29.293	37.575	OK
11-12-2024	08:31:33.901	29.480	7.497	7.497	27.519	939	0	1.0910	OK	11-12-2024	08:31:33.901	29.480	37.575	OK
11-12-2024	08:31:34.337	29.916	7.497	7.497	27.518	939	0	1.0910	OK	11-12-2024	08:31:34.337	29.916	37.575	OK
11-12-2024	08:31:34.539	30.118	7.497	7.497	27.516	939	0	1.0912	OK	11-12-2024	08:31:34.539	30.118	37.575	OK
11-12-2024	08:31:34.757	30.336	7.498	7.498	27.520	939	0	1.0909	OK	11-12-2024	08:31:34.757	30.336	37.576	OK
11-12-2024	08:31:35.070	30.649	7.498	7.498	27.521	939	0	1.0908	OK	11-12-2024	08:31:35.070	30.649	37.578	OK
11-12-2024	08:31:35.374	30.953	7.497	7.497	27.518	939	0	1.0910	OK	11-12-2024	08:31:35.374	30.953	37.578	OK
11-12-2024	08:31:35.569	31.148	7.497	7.497	27.517	939	0	1.0911	OK	11-12-2024	08:31:35.569	31.148	37.579	OK
11-12-2024	08:31:35.773	31.352	7.497	7.497	27.517	939	0	1.0911	OK	11-12-2024	08:31:35.773	31.352	37.580	OK
11-12-2024	08:31:36.045	31.624	7.498	7.498	27.521	939	0	1.0908	OK	11-12-2024	08:31:36.045	31.624	37.580	OK
11-12-2024	08:31:36.359	31.938	7.498	7.498	27.523	939	0	1.0907	OK	11-12-2024	08:31:36.359	31.938	37.582	OK
11-12-2024	08:31:36.483	32.062	7.497	7.497	27.515	939	0	1.0912	OK	11-12-2024	08:31:36.483	32.062	37.581	OK
11-12-2024	08:31:36.704	32.283	7.497	7.497	27.516	939	0	1.0911	OK	11-12-2024	08:31:36.704	32.283	37.581	OK
11-12-2024	08:31:36.899	32.478	7.498	7.498	27.522	939	0	1.0907	OK	11-12-2024	08:31:36.899	32.478	37.582	OK
11-12-2024	08:31:37.314	32.893	7.497	7.497	27.520	939	0	1.0909	OK	11-12-2024	08:31:37.314	32.893	37.583	OK
11-12-2024	08:31:37.508	33.087	7.497	7.497	27.520	939	0	1.0909	OK	11-12-2024	08:31:37.508	33.087	37.583	OK
11-12-2024	08:31:37.738	33.317	7.497	7.497	27.520	939	0	1.0909	OK	11-12-2024	08:31:37.738	33.317	37.583	OK
11-12-2024	08:31:37.922	33.501	7.498	7.498	27.521	938	0	1.0908	OK	11-12-2024	08:31:37.922	33.501	37.583	OK
11-12-2024	08:31:38.327	33.906	7.497	7.497	27.520	939	0	1.0909	OK	11-12-2024	08:31:38.327	33.906	37.583	OK
11-12-2024	08:31:38.531	34.110	7.497	7.497	27.517	939	0	1.0911	OK	11-12-2024	08:31:38.531	34.110	37.583	OK
11-12-2024	08:31:38.735	34.314	7.497	7.497	27.517	938	0	1.0911	OK	11-12-2024	08:31:38.735	34.314	37.582	OK
11-12-2024	08:31:38.937	34.516	7.497	7.497	27.516	939	0	1.0912	OK	11-12-2024	08:31:38.937	34.516	37.583	OK
11-12-2024	08:31:39.365	34.944	7.497	7.497	27.518	939	0	1.0910	OK	11-12-2024	08:31:39.365	34.944	37.584	OK
11-12-2024	08:31:39.546	35.125	7.497	7.497	27.520	939	0	1.0909	OK	11-12-2024	08:31:39.546	35.125	37.582	OK
11-12-2024	08:31:39.769	35.348	7.497	7.497	27.520	939	0	1.0909	OK	11-12-2024	08:31:39.769	35.348	37.583	OK
11-12-2024	08:31:39.962	35.541	7.497	7.497	27.520	939	0	1.0909	OK	11-12-2024	08:31:39.962	35.541	37.583	OK
11-12-2024	08:31:40.367	35.946	7.498	7.498	27.521	939	0	1.0908	OK	11-12-2024	08:31:40.367	35.946	37.582	OK
11-12-2024	08:31:40.574	36.153	7.497	7.497	27.517	939	0	1.0911	OK	11-12-2024	08:31:40.574	36.153	37.581	OK
11-12-2024	08:31:40.681	36.260	7.496	7.496	27.512	939	0	1.0914	OK	11-12-2024	08:31:40.681	36.260	37.581	OK
11-12-2024	08:31:40.887	36.466	7.496	7.496	27.513	939	0	1.0913	OK	11-12-2024	08:31:40.887	36.466	37.581	OK
11-12-2024	08:31:41.299	36.878	7.497	7.497	27.518	939	0	1.0910	OK	11-12-2024	08:31:41.299	36.878	37.581	OK
11-12-2024	08:31:41.501	37.080	7.497	7.497	27.518	939	0	1.0910	OK	11-12-2024	08:31:41.501	37.080	37.580	OK
11-12-2024	08:31:41.705	37.284	7.497	7.497	27.516	939	0	1.0911	OK	11-12-2024	08:31:41.705	37.284	37.579	OK
11-12-2024	08:31:41.909	37.488	7.496	7.496	27.513	939	0	1.0914	OK	11-12-2024	08:31:41.909	37.488	37.579	OK
11-12-2024	08:31:42.349	37.928	7.497	7.497	27.518	939	0	1.0910	OK	11-12-2024	08:31:42.349	37.928	37.577	OK
11-12-2024	08:31:42.521	38.100	7.497	7.497	27.515	939	0	1.0913	OK	11-12-2024	08:31:42.521	38.100	37.577	OK
11-12-2024	08:31:42.744	38.323	7.497	7.497	27.518	939	0	1.0910	OK	11-12-2024	08:31:42.744	38.323	37.578	OK
11-12-2024	08:31:42.945	38.524	7.497	7.497	27.515	939	0	1.0912	OK	11-12-2024	08:31:42.945	38.524	37.578	OK
11-12-2024	08:31:43.377	38.956	7.498	7.498	27.520	939	0	1.0909	OK	11-12-2024	08:31:43.377	38.956	37.577	OK
11-12-2024	08:31:43.550	39.129	7.497	7.497	27.516	939	0	1.0911	OK	11-12-2024	08:31:43.550	39.129	37.578	OK
11-12-2024	08:31:43.752	39.331	7.497	7.497	27.517	939	0	1.0911	OK	11-12-2024	08:31:43.752	39.331	37.577	OK
11-12-2024	08:31:43.956	39.535	7.497	7.497	27.517	939	0	1.0911	OK	11-12-2024	08:31:43.956	39.535	37.577	OK
11-12-2024	08:31:44.362	39.941	7.497	7.497	27.519	939	0	1.0909	OK	11-12-2024	08:31:44.362	39.941	37.576	OK
11-12-2024	08:31:44.565	40.143	7.498	7.498	27.520	939	0	1.0909	OK	11-12-2024	08:31:44.565	40.143	37.577	OK
11-12-2024	08:31:44.765	40.344	7.497	7.497	27.517	939	0	1.0911	OK	11-12-2024	08:31:44.765	40.344	37.577	OK
11-12-2024	08:31:44.968	40.547	7.497	7.497	27.515	939	0	1.0912	OK	11-12-2024	08:31:44.968	40.547	37.576	OK
11-12-2024	08:31:45.384	40.963	7.498	7.498	27.524	939	0	1.0906	OK	11-12-2024	08:31:45.384	40.963	37.576	OK
11-12-2024	08:31:45.571	41.150	7.498	7.498	27.520	939	0	1.0909	OK	11-12-2024	08:31:45.571	41.150	37.574	OK
11-12-2024	08:31:45.775	41.354	7.497	7.497	27.518	939	0	1.0910	OK	11-12-2024	08:31:45.775	41.354	37.574	OK
11-12-2024	08:31:45.978	41.557	7.498	7.498	27.521	939	0	1.0908	OK	11-12-2024	08:31:45.978	41.557	37.572	OK
11-12-2024	08:31:46.415	41.994	7.498	7.498	27.525	939	0	1.0906	OK	11-12-2024	08:31:46.415	41.994	37.570	OK
11-12-2024	08:31:46.589	42.168	7.498	7.498	27.520	939	0	1.0909	OK	11-12-2024	08:31:46.589	42.168	37.570	OK
11-12-2024	08:31:46.809	42.388	7.497	7.497	27.517	939	0	1.0911	OK	11-12-2024	08:31:46.809	42.388	37.570	OK
11-12-2024	08:31:47.106	42.685	7.498	7.498	27.521	939	0	1.0908	OK	11-12-2024	08:31:47.106	42.685	37.570	OK
11-12-2024	08:31:47.365	42.944	7.498	7.498	27.521	939	0	1.0908	OK	11-12-2024	08:31:47.365	42.944	37.569	OK
11-12-2024	08:31:47.514	43.093	7.497	7.497	27.518	939	0	1.0910	OK	11-12-2024	08:31:47.514	43.093	37.569	OK
11-12-2024	08:31:47.614	43.193	7.497	7.497	27.516	939	0	1.0912	OK	11-12-2024	08:31:47.614	43.193	37.568	OK
11-12-2024	08:31:47.715	43.294	7.496	7.496	27.511	938	0	1.0915	OK	11-12-2024	08:31:47.715	43.294	37.568	OK
11-12-2024	08:31:47.816	43.394	7.497	7.497	27.513	938	0	1.0914	OK	11-12-2024	08:31:47.816	43.394	37.567	OK
11-12-2024	08:31:47.915	43.494	7.496	7.496	27.506	938	0	1.0918	OK	11-12-2024	08:31:47.915	43.494	37.567	OK
11-12-2024	08:31:48.086	43.665	7.497	7.497	27.514	938	0	1.0913	OK	11-12-2024	08:31:48.086	43.665	37.567	OK
11-12-2024	08:31:48.359	43.938	7.497	7.497	27.512	938	0	1.0914	OK	11-12-2024	08:31:48.359	43.938	37.568	OK
11-12-2024	08:31:48.516	44.095	7.497	7.497	27.512	938	0	1.0914	OK	11-12-2024	08:31:48.516	44.095	37.568	OK
11-12-2024	08:31:48.615	44.194	7.496	7.496	27.508	938	0	1.0917	OK	11-12-2024	08:31:48.615	44.194	37.568	OK
11-12-2024	08:31:48.716	44.295	7.497	7.497	27.513	938	0	1.0913	OK	11-12-2024	08:31:48.716	44.295	37.568	OK
11-12-2024	08:31:48.816	44.395	7.496	7.496	27.508	938	0	1.0917	OK	11-12-2024	08:31:48.816	44.395	37.570	OK
11-12-2024	08:31:48.916	44.495	7.496	7.496	27.506	938	0	1.0918	OK	11-12-2024	08:31:48.916	44.495	37.570	OK
11-12-2024	08:31:49.087	44.666	7.496	7.496	27.511	938	0	1.0914	OK	11-12-2024	08:31:49.087	44.666	37.572	OK
11-12-2024	08:31:49.343	44.922	7.497	7.497	27.513	938	0	1.0913	OK	11-12-2024	08:31:49.343	44.922	37.573	OK
11-12-2024	08:31:49.517	45.096	7.496	7.496	27.511	938	0	1.0914	OK	11-12-2024	08:31:49.517	45.096	37.573	OK
11-12-2024	08:31:49.617	45.196	7.496	7.496	27.510	938	0	1.0915	OK	11-12-2024	08:31:49.617	45.196	37.573	OK
11-12-2024	08:31:49.717	45.296	7.496	7.496	27.510	938	0	1.0915	OK	11-12-2024	08:31:49.717	45.296	37.573	OK
11-12-2024	08:31:49.817	45.396	7.495	7.495	27.504	938	0	1.0919	OK	11-12-2024	08:31:49.817	45.396	37.573	OK
11-12-2024	08:31:49.917	45.496	7.496	7.496	27.508	938	0	1.0916	OK	11-12-2024	08:31:49.917	45.496	37.573	OK
11-12-2024	08:31:50.088	45.667	7.496	7.496	27.511	938	0	1.0914	OK	11-12-2024	08:31:50.088	45.667	37.573	OK
11-12-2024	08:31:50.357	45.936	7.497	7.497	27.515	938	0	1.0912	OK	11-12-2024	08:31:50.357	45.936	37.573	OK
11-12-2024	08:31:50.517	46.096	7.497	7.497	27.517	938	0	1.0910	OK	11-12-2024	08:31:50.517	46.096	37.573	OK
11-12-2024	08:31:50.617	46.196	7.496	7.496	27.508	938	0	1.0916	OK	11-12-2024	08:31:50.617	46.196	37.573	OK
11-12-2024	08:31:50.717	46.296	7.496	7.496	27.509	938	0	1.0916	OK	11-12-2024	08:31:50.717	46.296	37.573	OK
11-12-2024	08:31:50.817	46.396	7.496	7.496	27.506	938	0	1.0918	OK	11-12-2024	08:31:50.817	46.396	37.573	OK
11-12-2024	08:31:50.917	46.496	7.496	7.496	27.506	938	0	1.0918	OK	11-12-2024	08:31:50.917	46.496	37.573	OK
11-12-2024	08:31:51.086	46.665	7.496	7.496	27.508	938	0	1.0916	OK	11-12-2024	08:31:51.086	46.665	37.575	OK
11-12-2024	08:31:51.351	46.930	7.497	7.497	27.513	938	0	1.0912	OK	11-12-2024	08:31:51.351	46.930	37.574	OK
11-12-2024	08:31:51.518	47.097	7.497	7.497	27.512	938	0	1.0913	OK	11-12-2024	08:31:51.518	47.097	37.573	OK
11-12-2024	08:31:51.718	47.297	7.497	7.497	27.512	938	0	1.0913	OK	11-12-2024	08:31:51.718	47.297	37.573	OK
11-12-2024	08:31:51.818	47.397	7.496	7.496	27.509	938	0	1.0915	OK	11-12-2024	08:31:51.818	47.397	37.574	OK
11-12-2024	08:31:51.918	47.497	7.496	7.496	27.510	938	0	1.0915	OK	11-12-2024	08:31:51.918	47.497	37.574	OK
11-12-2024	08:31:52.088	47.667	7.496	7.496	27.505	938	0	1.0918	OK	11-12-2024	08:31:52.088	47.667	37.573	OK
11-12-2024	08:31:52.343	47.922	7.497	7.497	27.517	938	0	1.0910	OK	11-12-2024	08:31:52.343	47.922	37.572	OK
11-12-2024	08:31:52.518	48.097	7.497	7.497	27.512	938	0	1.0913	OK	11-12-2024	08:31:52.518	48.097	37.571	OK
11-12-2024	08:31:52.617	48.196	7.496	7.496	27.507	938	0	1.0917	OK	11-12-2024	08:31:52.617	48.196	37.571	OK
11-12-2024	08:31:52.718	48.297	7.496	7.496	27.507	938	0	1.0917	OK	11-12-2024	08:31:52.718	48.297	37.572	OK
11-12-2024	08:31:52.818	48.397	7.496	7.496	27.505	938	0	1.0918	OK	11-12-2024	08:31:52.818	48.397	37.572	OK
11-12-2024	08:31:52.918	48.497	7.496	7.496	27.505	938	0	1.0918	OK	11-12-2024	08:31:52.918	48.497	37.572	OK
11-12-2024	08:31:53.277	48.856	7.497	7.497	27.511	938	0	1.0913	OK	11-12-2024	08:31:53.277	48.856	37.573	OK
11-12-2024	08:31:53.418	48.997	7.497	7.497	27.515	938	0	1.0911	OK	11-12-2024	08:31:53.418	48.997	37.573	OK
11-12-2024	08:31:53.518	49.097	7.496	7.496	27.506	938	0	1.0917	OK	11-12-2024	08:31:53.518	49.097	37.574	OK
11-12-2024	08:31:53.618	49.196	7.496	7.496	27.508	938	0	1.0915	OK	11-12-2024	08:31:53.618	49.196	37.574	OK
11-12-2024	08:31:53.719	49.298	7.495	7.495	27.502	938	0	1.0920	OK	11-12-2024	08:31:53.719	49.298	37.575	OK
11-12-2024	08:31:53.821	49.400	7.495	7.495	27.503	938	0	1.0919	OK	11-12-2024	08:31:53.821	49.400	37.575	OK
11-12-2024	08:31:53.920	49.499	7.495	7.495	27.497	938	0	1.0923	OK	11-12-2024	08:31:53.920	49.499	37.575	OK
11-12-2024	08:31:54.091	49.670	7.496	7.496	27.505	938	0	1.0918	OK	11-12-2024	08:31:54.091	49.670	37.575	OK
11-12-2024	08:31:54.363	49.942	7.497	7.497	27.514	938	0	1.0911	OK	11-12-2024	08:31:54.363	49.942	37.576	OK
11-12-2024	08:31:54.520	50.099	7.496	7.496	27.510	938	0	1.0914	OK	11-12-2024	08:31:54.520	50.099	37.577	OK
11-12-2024	08:31:54.620	50.199	7.495	7.495	27.503	938	0	1.0919	OK	11-12-2024	08:31:54.620	50.199	37.577	OK
11-12-2024	08:31:54.720	50.299	7.495	7.495	27.501	938	0	1.0920	OK	11-12-2024	08:31:54.720	50.299	37.577	OK
11-12-2024	08:31:54.822	50.401	7.496	7.496	27.506	938	0	1.0917	OK	11-12-2024	08:31:54.822	50.401	37.577	OK
11-12-2024	08:31:55.081	50.659	7.496	7.496	27.509	938	0	1.0914	OK	11-12-2024	08:31:55.081	50.659	37.576	OK
11-12-2024	08:31:55.352	50.931	7.497	7.497	27.513	938	0	1.0911	OK	11-12-2024	08:31:55.352	50.931	37.577	OK
11-12-2024	08:31:55.521	51.100	7.497	7.497	27.511	938	0	1.0913	OK	11-12-2024	08:31:55.521	51.100	37.577	OK
11-12-2024	08:31:55.620	51.199	7.496	7.496	27.507	938	0	1.0916	OK	11-12-2024	08:31:55.620	51.199	37.577	OK
11-12-2024	08:31:55.721	51.300	7.496	7.496	27.507	938	0	1.0916	OK	11-12-2024	08:31:55.721	51.300	37.577	OK
11-12-2024	08:31:55.822	51.401	7.496	7.496	27.505	938	0	1.0917	OK	11-12-2024	08:31:55.822	51.401	37.577	OK
11-12-2024	08:31:55.922	51.501	7.496	7.496	27.506	938	0	1.0916	OK	11-12-2024	08:31:55.922	51.501	37.576	OK
11-12-2024	08:31:56.091	51.670	7.496	7.496	27.509	938	0	1.0914	OK	11-12-2024	08:31:56.091	51.670	37.576	OK
11-12-2024	08:31:56.440	52.019	7.497	7.497	27.510	938	0	1.0914	OK	11-12-2024	08:31:56.440	52.019	37.576	OK
11-12-2024	08:31:56.626	52.205	7.496	7.496	27.508	938	0	1.0915	OK	11-12-2024	08:31:56.626	52.205	37.576	OK
11-12-2024	08:31:56.829	52.407	7.497	7.497	27.516	938	0	1.0909	OK	11-12-2024	08:31:56.829	52.407	37.576	OK
11-12-2024	08:31:57.109	52.688	7.497	7.497	27.512	938	0	1.0912	OK	11-12-2024	08:31:57.109	52.688	37.576	OK
11-12-2024	08:31:57.405	52.984	7.497	7.497	27.515	938	0	1.0910	OK	11-12-2024	08:31:57.405	52.984	37.576	OK
11-12-2024	08:31:57.538	53.117	7.497	7.497	27.512	938	0	1.0912	OK	11-12-2024	08:31:57.538	53.117	37.576	OK
11-12-2024	08:31:57.742	53.321	7.497	7.497	27.511	938	0	1.0913	OK	11-12-2024	08:31:57.742	53.321	37.576	OK
11-12-2024	08:31:57.945	53.524	7.496	7.496	27.507	938	0	1.0916	OK	11-12-2024	08:31:57.945	53.524	37.576	OK
11-12-2024	08:31:58.343	53.922	7.497	7.497	27.515	938	0	1.0911	OK	11-12-2024	08:31:58.343	53.922	37.577	OK
11-12-2024	08:31:58.548	54.127	7.497	7.497	27.512	938	0	1.0913	OK	11-12-2024	08:31:58.548	54.127	37.576	OK
11-12-2024	08:31:58.751	54.330	7.497	7.497	27.512	938	0	1.0913	OK	11-12-2024	08:31:58.751	54.330	37.576	OK
11-12-2024	08:31:58.884	54.462	7.497	7.497	27.512	938	0	1.0913	OK	11-12-2024	08:31:58.884	54.462	37.576	OK
11-12-2024	08:31:59.105	54.684	7.497	7.497	27.512	938	0	1.0913	OK	11-12-2024	08:31:59.105	54.684	37.576	OK
11-12-2024	08:31:59.438	55.017	7.497	7.497	27.517	938	0	1.0909	OK	11-12-2024	08:31:59.438	55.017	37.577	OK
11-12-2024	08:31:59.577	55.156	7.497	7.497	27.512	938	0	1.0913	OK	11-12-2024	08:31:59.577	55.156	37.576	OK
11-12-2024	08:31:59.783	55.362	7.497	7.497	27.514	938	0	1.0911	OK	11-12-2024	08:31:59.783	55.362	37.576	OK
11-12-2024	08:31:59.984	55.563	7.497	7.497	27.515	938	0	1.0911	OK	11-12-2024	08:31:59.984	55.563	37.575	OK
11-12-2024	08:32:00.422	56.001	7.498	7.498	27.520	938	0	1.0907	OK	11-12-2024	08:32:00.422	56.001	37.574	OK
11-12-2024	08:32:00.595	56.174	7.497	7.497	27.512	938	0	1.0913	OK	11-12-2024	08:32:00.595	56.174	37.574	OK
11-12-2024	08:32:00.800	56.378	7.497	7.497	27.516	938	0	1.0910	OK	11-12-2024	08:32:00.800	56.378	37.574	OK
11-12-2024	08:32:01.015	56.594	7.497	7.497	27.514	938	0	1.0911	OK	11-12-2024	08:32:01.015	56.594	37.574	OK
11-12-2024	08:32:01.435	57.014	7.497	7.497	27.515	938	0	1.0911	OK	11-12-2024	08:32:01.435	57.014	37.574	OK
11-12-2024	08:32:01.628	57.207	7.498	7.498	27.519	938	0	1.0908	OK	11-12-2024	08:32:01.628	57.207	37.574	OK
11-12-2024	08:32:01.833	57.412	7.498	7.498	27.519	938	0	1.0908	OK	11-12-2024	08:32:01.833	57.412	37.575	OK
11-12-2024	08:32:02.150	57.729	7.498	7.498	27.519	938	0	1.0908	OK	11-12-2024	08:32:02.150	57.729	37.575	OK
11-12-2024	08:32:02.457	58.036	7.497	7.497	27.517	938	0	1.0910	OK	11-12-2024	08:32:02.457	58.036	37.574	OK
11-12-2024	08:32:02.660	58.239	7.498	7.498	27.521	938	0	1.0907	OK	11-12-2024	08:32:02.660	58.239	37.574	OK
11-12-2024	08:32:02.863	58.442	7.498	7.498	27.519	938	0	1.0908	OK	11-12-2024	08:32:02.863	58.442	37.576	OK
11-12-2024	08:32:03.147	58.726	7.497	7.497	27.516	938	0	1.0910	OK	11-12-2024	08:32:03.147	58.726	37.577	OK
11-12-2024	08:32:03.469	59.048	7.498	7.498	27.520	939	0	1.0908	OK	11-12-2024	08:32:03.469	59.048	37.577	OK
11-12-2024	08:32:03.674	59.253	7.497	7.497	27.518	938	0	1.0909	OK	11-12-2024	08:32:03.674	59.253	37.578	OK
11-12-2024	08:32:03.908	59.487	7.498	7.498	27.522	938	0	1.0906	OK	11-12-2024	08:32:03.908	59.487	37.578	OK
11-12-2024	08:32:04.157	59.735	7.497	7.497	27.518	938	0	1.0909	OK	11-12-2024	08:32:04.157	59.735	37.579	OK
11-12-2024	08:32:04.485	60.064	7.497	7.497	27.517	938	0	1.0910	OK	11-12-2024	08:32:04.485	60.064	37.580	OK
11-12-2024	08:32:04.627	60.206	7.497	7.497	27.513	938	0	1.0912	OK	11-12-2024	08:32:04.627	60.206	37.580	OK
11-12-2024	08:32:04.829	60.408	7.497	7.497	27.516	938	0	1.0910	OK	11-12-2024	08:32:04.829	60.408	37.580	OK
11-12-2024	08:32:05.032	60.611	7.497	7.497	27.517	938	0	1.0910	OK	11-12-2024	08:32:05.032	60.611	37.580	OK
11-12-2024	08:32:05.428	61.007	7.498	7.498	27.519	938	0	1.0908	OK	11-12-2024	08:32:05.428	61.007	37.580	OK
11-12-2024	08:32:05.551	61.130	7.498	7.498	27.519	938	0	1.0908	OK	11-12-2024	08:32:05.551	61.130	37.580	OK
11-12-2024	08:32:05.652	61.231	7.496	7.496	27.511	938	0	1.0914	OK	11-12-2024	08:32:05.652	61.231	37.580	OK
11-12-2024	08:32:05.855	61.434	7.497	7.497	27.516	939	0	1.0910	OK	11-12-2024	08:32:05.855	61.434	37.580	OK
11-12-2024	08:32:06.058	61.637	7.497	7.497	27.514	938	0	1.0912	OK	11-12-2024	08:32:06.058	61.637	37.578	OK
11-12-2024	08:32:06.454	62.033	7.497	7.497	27.516	939	0	1.0910	OK	11-12-2024	08:32:06.454	62.033	37.578	OK
11-12-2024	08:32:06.564	62.143	7.497	7.497	27.512	938	0	1.0913	OK	11-12-2024	08:32:06.564	62.143	37.578	OK
11-12-2024	08:32:06.767	62.346	7.497	7.497	27.516	939	0	1.0910	OK	11-12-2024	08:32:06.767	62.346	37.577	OK
11-12-2024	08:32:06.969	62.548	7.496	7.496	27.510	939	0	1.0915	OK	11-12-2024	08:32:06.969	62.548	37.577	OK
11-12-2024	08:32:07.174	62.753	7.497	7.497	27.517	939	0	1.0910	OK	11-12-2024	08:32:07.174	62.753	37.575	OK
11-12-2024	08:32:07.501	63.080	7.497	7.497	27.517	939	0	1.0910	OK	11-12-2024	08:32:07.501	63.080	37.572	OK
11-12-2024	08:32:07.688	63.267	7.498	7.498	27.520	939	0	1.0908	OK	11-12-2024	08:32:07.688	63.267	37.572	OK
11-12-2024	08:32:07.938	63.517	7.497	7.497	27.515	939	0	1.0911	OK	11-12-2024	08:32:07.938	63.517	37.571	OK
11-12-2024	08:32:08.186	63.765	7.498	7.498	27.521	939	0	1.0907	OK	11-12-2024	08:32:08.186	63.765	37.572	OK
11-12-2024	08:32:08.514	64.092	7.498	7.498	27.518	939	0	1.0909	OK	11-12-2024	08:32:08.514	64.092	37.571	OK
11-12-2024	08:32:08.640	64.219	7.498	7.498	27.519	939	0	1.0908	OK	11-12-2024	08:32:08.640	64.219	37.571	OK
11-12-2024	08:32:08.858	64.437	7.498	7.498	27.520	939	0	1.0908	OK	11-12-2024	08:32:08.858	64.437	37.570	OK
11-12-2024	08:32:09.046	64.625	7.497	7.497	27.516	939	0	1.0910	OK	11-12-2024	08:32:09.046	64.625	37.570	OK
11-12-2024	08:32:09.458	65.037	7.498	7.498	27.518	939	0	1.0909	OK	11-12-2024	08:32:09.458	65.037	37.572	OK
11-12-2024	08:32:09.662	65.241	7.497	7.497	27.516	939	0	1.0910	OK	11-12-2024	08:32:09.662	65.241	37.572	OK
11-12-2024	08:32:09.867	65.446	7.497	7.497	27.517	939	0	1.0910	OK	11-12-2024	08:32:09.867	65.446	37.572	OK
11-12-2024	08:32:10.081	65.659	7.498	7.498	27.521	939	0	1.0907	OK	11-12-2024	08:32:10.081	65.659	37.572	OK
11-12-2024	08:32:10.485	66.064	7.497	7.497	27.517	939	0	1.0910	OK	11-12-2024	08:32:10.485	66.064	37.574	OK
11-12-2024	08:32:10.687	66.266	7.497	7.497	27.515	939	0	1.0911	OK	11-12-2024	08:32:10.687	66.266	37.575	OK
11-12-2024	08:32:10.911	66.490	7.497	7.497	27.517	939	0	1.0910	OK	11-12-2024	08:32:10.911	66.490	37.575	OK
11-12-2024	08:32:11.096	66.675	7.497	7.497	27.514	939	0	1.0912	OK	11-12-2024	08:32:11.096	66.675	37.575	OK
11-12-2024	08:32:11.542	67.121	7.498	7.498	27.519	939	0	1.0908	OK	11-12-2024	08:32:11.542	67.121	37.575	OK
11-12-2024	08:32:11.726	67.305	7.497	7.497	27.517	939	0	1.0910	OK	11-12-2024	08:32:11.726	67.305	37.576	OK
11-12-2024	08:32:11.946	67.525	7.497	7.497	27.515	939	0	1.0911	OK	11-12-2024	08:32:11.946	67.525	37.578	OK
11-12-2024	08:32:12.243	67.822	7.498	7.498	27.520	939	0	1.0908	OK	11-12-2024	08:32:12.243	67.822	37.578	OK
11-12-2024	08:32:12.585	68.164	7.497	7.497	27.517	939	0	1.0910	OK	11-12-2024	08:32:12.585	68.164	37.577	OK
11-12-2024	08:32:12.758	68.337	7.497	7.497	27.512	939	0	1.0913	OK	11-12-2024	08:32:12.758	68.337	37.577	OK
11-12-2024	08:32:12.964	68.543	7.498	7.498	27.518	939	0	1.0909	OK	11-12-2024	08:32:12.964	68.543	37.577	OK
11-12-2024	08:32:13.214	68.793	7.498	7.498	27.519	939	0	1.0908	OK	11-12-2024	08:32:13.214	68.793	37.577	OK
11-12-2024	08:32:13.514	69.093	7.498	7.498	27.519	939	0	1.0909	OK	11-12-2024	08:32:13.514	69.093	37.577	OK
11-12-2024	08:32:13.674	69.253	7.497	7.497	27.516	939	0	1.0911	OK	11-12-2024	08:32:13.674	69.253	37.577	OK
11-12-2024	08:32:13.875	69.454	7.497	7.497	27.514	939	0	1.0912	OK	11-12-2024	08:32:13.875	69.454	37.578	OK
11-12-2024	08:32:14.078	69.657	7.497	7.497	27.516	939	0	1.0911	OK	11-12-2024	08:32:14.078	69.657	37.579	OK
11-12-2024	08:32:14.476	70.055	7.498	7.498	27.520	939	0	1.0908	OK	11-12-2024	08:32:14.476	70.055	37.579	OK
11-12-2024	08:32:14.587	70.166	7.496	7.496	27.509	939	0	1.0915	OK	11-12-2024	08:32:14.587	70.166	37.578	OK
11-12-2024	08:32:14.791	70.370	7.497	7.497	27.512	939	0	1.0913	OK	11-12-2024	08:32:14.791	70.370	37.578	OK
11-12-2024	08:32:14.995	70.574	7.497	7.497	27.514	939	0	1.0912	OK	11-12-2024	08:32:14.995	70.574	37.578	OK
11-12-2024	08:32:15.265	70.844	7.497	7.497	27.516	939	0	1.0910	OK	11-12-2024	08:32:15.265	70.844	37.576	OK
11-12-2024	08:32:15.600	71.179	7.497	7.497	27.515	939	0	1.0911	OK	11-12-2024	08:32:15.600	71.179	37.577	OK
11-12-2024	08:32:15.725	71.304	7.497	7.497	27.512	939	0	1.0913	OK	11-12-2024	08:32:15.725	71.304	37.577	OK
11-12-2024	08:32:15.927	71.506	7.497	7.497	27.512	939	0	1.0913	OK	11-12-2024	08:32:15.927	71.506	37.577	OK
11-12-2024	08:32:16.238	71.817	7.498	7.498	27.518	939	0	1.0909	OK	11-12-2024	08:32:16.238	71.817	37.577	OK
11-12-2024	08:32:16.518	72.097	7.497	7.497	27.514	939	0	1.0912	OK	11-12-2024	08:32:16.518	72.097	37.577	OK
11-12-2024	08:32:16.644	72.223	7.496	7.496	27.511	939	0	1.0914	OK	11-12-2024	08:32:16.644	72.223	37.577	OK
11-12-2024	08:32:16.744	72.323	7.496	7.496	27.507	939	0	1.0917	OK	11-12-2024	08:32:16.744	72.323	37.577	OK
11-12-2024	08:32:16.844	72.423	7.496	7.496	27.506	939	0	1.0918	OK	11-12-2024	08:32:16.844	72.423	37.576	OK
11-12-2024	08:32:16.955	72.534	7.496	7.496	27.507	939	0	1.0917	OK	11-12-2024	08:32:16.955	72.534	37.576	OK
11-12-2024	08:32:17.219	72.798	7.496	7.496	27.508	939	0	1.0916	OK	11-12-2024	08:32:17.219	72.798	37.576	OK
11-12-2024	08:32:17.476	73.055	7.497	7.497	27.513	939	0	1.0912	OK	11-12-2024	08:32:17.476	73.055	37.576	OK
11-12-2024	08:32:17.646	73.225	7.497	7.497	27.514	939	0	1.0911	OK	11-12-2024	08:32:17.646	73.225	37.577	OK
11-12-2024	08:32:17.746	73.325	7.497	7.497	27.512	939	0	1.0913	OK	11-12-2024	08:32:17.746	73.325	37.577	OK
11-12-2024	08:32:17.847	73.426	7.496	7.496	27.506	939	0	1.0917	OK	11-12-2024	08:32:17.847	73.426	37.578	OK
11-12-2024	08:32:17.957	73.536	7.496	7.496	27.506	939	0	1.0917	OK	11-12-2024	08:32:17.957	73.536	37.578	OK
11-12-2024	08:32:18.046	73.625	7.496	7.496	27.505	939	0	1.0918	OK	11-12-2024	08:32:18.046	73.625	37.577	OK
11-12-2024	08:32:18.216	73.795	7.496	7.496	27.509	939	0	1.0915	OK	11-12-2024	08:32:18.216	73.795	37.577	OK
11-12-2024	08:32:18.475	74.054	7.496	7.496	27.509	939	0	1.0915	OK	11-12-2024	08:32:18.475	74.054	37.577	OK
11-12-2024	08:32:18.649	74.228	7.496	7.496	27.506	938	0	1.0917	OK	11-12-2024	08:32:18.649	74.228	37.577	OK
11-12-2024	08:32:18.747	74.326	7.496	7.496	27.505	939	0	1.0918	OK	11-12-2024	08:32:18.747	74.326	37.577	OK
11-12-2024	08:32:18.849	74.428	7.496	7.496	27.507	938	0	1.0916	OK	11-12-2024	08:32:18.849	74.428	37.578	OK
11-12-2024	08:32:18.971	74.550	7.496	7.496	27.506	938	0	1.0917	OK	11-12-2024	08:32:18.971	74.550	37.578	OK
11-12-2024	08:32:19.216	74.795	7.496	7.496	27.507	939	0	1.0916	OK	11-12-2024	08:32:19.216	74.795	37.579	OK
11-12-2024	08:32:19.488	75.067	7.497	7.497	27.513	939	0	1.0912	OK	11-12-2024	08:32:19.488	75.067	37.578	OK
11-12-2024	08:32:19.648	75.227	7.496	7.496	27.506	938	0	1.0917	OK	11-12-2024	08:32:19.648	75.227	37.578	OK
11-12-2024	08:32:19.749	75.328	7.495	7.495	27.503	939	0	1.0919	OK	11-12-2024	08:32:19.749	75.328	37.578	OK
11-12-2024	08:32:19.957	75.536	7.497	7.497	27.511	938	0	1.0913	OK	11-12-2024	08:32:19.957	75.536	37.578	OK
11-12-2024	08:32:20.049	75.627	7.495	7.495	27.503	938	0	1.0919	OK	11-12-2024	08:32:20.049	75.627	37.579	OK
11-12-2024	08:32:20.221	75.800	7.496	7.496	27.505	938	0	1.0918	OK	11-12-2024	08:32:20.221	75.800	37.578	OK
11-12-2024	08:32:20.483	76.062	7.496	7.496	27.510	939	0	1.0914	OK	11-12-2024	08:32:20.483	76.062	37.578	OK
11-12-2024	08:32:20.651	76.230	7.497	7.497	27.511	938	0	1.0913	OK	11-12-2024	08:32:20.651	76.230	37.577	OK
11-12-2024	08:32:20.753	76.331	7.496	7.496	27.504	938	0	1.0918	OK	11-12-2024	08:32:20.753	76.331	37.577	OK
11-12-2024	08:32:20.969	76.548	7.496	7.496	27.509	938	0	1.0915	OK	11-12-2024	08:32:20.969	76.548	37.576	OK
11-12-2024	08:32:21.216	76.795	7.497	7.497	27.512	939	0	1.0913	OK	11-12-2024	08:32:21.216	76.795	37.577	OK
11-12-2024	08:32:21.471	77.050	7.497	7.497	27.514	938	0	1.0911	OK	11-12-2024	08:32:21.471	77.050	37.577	OK
11-12-2024	08:32:21.653	77.232	7.497	7.497	27.513	939	0	1.0912	OK	11-12-2024	08:32:21.653	77.232	37.577	OK
11-12-2024	08:32:21.852	77.431	7.496	7.496	27.508	938	0	1.0915	OK	11-12-2024	08:32:21.852	77.431	37.577	OK
11-12-2024	08:32:21.954	77.533	7.496	7.496	27.510	938	0	1.0914	OK	11-12-2024	08:32:21.954	77.533	37.577	OK
11-12-2024	08:32:22.052	77.631	7.496	7.496	27.505	938	0	1.0918	OK	11-12-2024	08:32:22.052	77.631	37.576	OK
11-12-2024	08:32:22.226	77.804	7.496	7.496	27.508	938	0	1.0915	OK	11-12-2024	08:32:22.226	77.804	37.576	OK
11-12-2024	08:32:22.494	78.073	7.497	7.497	27.510	939	0	1.0914	OK	11-12-2024	08:32:22.494	78.073	37.575	OK
11-12-2024	08:32:22.654	78.233	7.497	7.497	27.515	939	0	1.0910	OK	11-12-2024	08:32:22.654	78.233	37.576	OK
11-12-2024	08:32:22.755	78.334	7.496	7.496	27.506	938	0	1.0916	OK	11-12-2024	08:32:22.755	78.334	37.576	OK
11-12-2024	08:32:22.854	78.433	7.496	7.496	27.506	939	0	1.0916	OK	11-12-2024	08:32:22.854	78.433	37.576	OK
11-12-2024	08:32:22.958	78.537	7.495	7.495	27.501	938	0	1.0920	OK	11-12-2024	08:32:22.958	78.537	37.576	OK
11-12-2024	08:32:23.054	78.633	7.495	7.495	27.500	938	0	1.0920	OK	11-12-2024	08:32:23.054	78.633	37.575	OK
11-12-2024	08:32:23.222	78.801	7.496	7.496	27.507	939	0	1.0916	OK	11-12-2024	08:32:23.222	78.801	37.575	OK
11-12-2024	08:32:23.491	79.070	7.496	7.496	27.509	939	0	1.0914	OK	11-12-2024	08:32:23.491	79.070	37.576	OK
11-12-2024	08:32:23.654	79.233	7.496	7.496	27.508	938	0	1.0915	OK	11-12-2024	08:32:23.654	79.233	37.576	OK
11-12-2024	08:32:23.754	79.333	7.496	7.496	27.507	939	0	1.0916	OK	11-12-2024	08:32:23.754	79.333	37.576	OK
11-12-2024	08:32:23.854	79.433	7.496	7.496	27.506	938	0	1.0916	OK	11-12-2024	08:32:23.854	79.433	37.576	OK
11-12-2024	08:32:23.955	79.534	7.495	7.495	27.502	938	0	1.0919	OK	11-12-2024	08:32:23.955	79.534	37.576	OK
11-12-2024	08:32:24.053	79.632	7.495	7.495	27.499	938	0	1.0921	OK	11-12-2024	08:32:24.053	79.632	37.576	OK
11-12-2024	08:32:24.226	79.805	7.496	7.496	27.504	938	0	1.0918	OK	11-12-2024	08:32:24.226	79.805	37.577	OK
11-12-2024	08:32:24.500	80.079	7.497	7.497	27.511	938	0	1.0912	OK	11-12-2024	08:32:24.500	80.079	37.577	OK
11-12-2024	08:32:24.655	80.234	7.496	7.496	27.506	939	0	1.0916	OK	11-12-2024	08:32:24.655	80.234	37.577	OK
11-12-2024	08:32:24.754	80.333	7.496	7.496	27.505	938	0	1.0917	OK	11-12-2024	08:32:24.754	80.333	37.577	OK
11-12-2024	08:32:24.856	80.435	7.495	7.495	27.500	938	0	1.0920	OK	11-12-2024	08:32:24.856	80.435	37.577	OK
11-12-2024	08:32:24.956	80.534	7.495	7.495	27.500	938	0	1.0920	OK	11-12-2024	08:32:24.956	80.534	37.577	OK
11-12-2024	08:32:25.056	80.635	7.495	7.495	27.498	938	0	1.0921	OK	11-12-2024	08:32:25.056	80.635	37.577	OK
11-12-2024	08:32:25.227	80.806	7.496	7.496	27.502	938	0	1.0919	OK	11-12-2024	08:32:25.227	80.806	37.576	OK
11-12-2024	08:32:25.500	81.079	7.496	7.496	27.507	938	0	1.0915	OK	11-12-2024	08:32:25.500	81.079	37.577	OK
11-12-2024	08:32:25.655	81.234	7.496	7.496	27.506	939	0	1.0916	OK	11-12-2024	08:32:25.655	81.234	37.577	OK
11-12-2024	08:32:25.756	81.335	7.496	7.496	27.507	938	0	1.0915	OK	11-12-2024	08:32:25.756	81.335	37.576	OK
11-12-2024	08:32:25.857	81.436	7.495	7.495	27.501	938	0	1.0919	OK	11-12-2024	08:32:25.857	81.436	37.576	OK
11-12-2024	08:32:25.959	81.538	7.495	7.495	27.500	938	0	1.0920	OK	11-12-2024	08:32:25.959	81.538	37.575	OK
11-12-2024	08:32:26.057	81.636	7.496	7.496	27.504	938	0	1.0917	OK	11-12-2024	08:32:26.057	81.636	37.575	OK
11-12-2024	08:32:26.227	81.806	7.495	7.495	27.501	938	0	1.0919	OK	11-12-2024	08:32:26.227	81.806	37.576	OK
11-12-2024	08:32:26.481	82.060	7.496	7.496	27.508	938	0	1.0914	OK	11-12-2024	08:32:26.481	82.060	37.576	OK
11-12-2024	08:32:26.656	82.235	7.496	7.496	27.508	938	0	1.0914	OK	11-12-2024	08:32:26.656	82.235	37.576	OK
11-12-2024	08:32:26.756	82.335	7.495	7.495	27.501	938	0	1.0919	OK	11-12-2024	08:32:26.756	82.335	37.575	OK
11-12-2024	08:32:26.857	82.436	7.496	7.496	27.503	938	0	1.0918	OK	11-12-2024	08:32:26.857	82.436	37.575	OK
11-12-2024	08:32:26.960	82.539	7.495	7.495	27.501	938	0	1.0919	OK	11-12-2024	08:32:26.960	82.539	37.574	OK
11-12-2024	08:32:27.058	82.637	7.495	7.495	27.500	938	0	1.0920	OK	11-12-2024	08:32:27.058	82.637	37.574	OK
11-12-2024	08:32:27.228	82.807	7.496	7.496	27.505	938	0	1.0917	OK	11-12-2024	08:32:27.228	82.807	37.574	OK
11-12-2024	08:32:27.482	83.061	7.496	7.496	27.505	938	0	1.0917	OK	11-12-2024	08:32:27.482	83.061	37.574	OK
11-12-2024	08:32:27.659	83.238	7.496	7.496	27.505	938	0	1.0916	OK	11-12-2024	08:32:27.659	83.238	37.573	OK
11-12-2024	08:32:27.760	83.339	7.496	7.496	27.506	938	0	1.0915	OK	11-12-2024	08:32:27.760	83.339	37.574	OK
11-12-2024	08:32:27.859	83.438	7.496	7.496	27.502	938	0	1.0918	OK	11-12-2024	08:32:27.859	83.438	37.574	OK
11-12-2024	08:32:27.962	83.541	7.495	7.495	27.498	938	0	1.0921	OK	11-12-2024	08:32:27.962	83.541	37.575	OK
11-12-2024	08:32:28.060	83.639	7.496	7.496	27.505	938	0	1.0916	OK	11-12-2024	08:32:28.060	83.639	37.575	OK
11-12-2024	08:32:28.231	83.810	7.496	7.496	27.503	938	0	1.0917	OK	11-12-2024	08:32:28.231	83.810	37.575	OK
11-12-2024	08:32:28.503	84.082	7.497	7.497	27.509	939	0	1.0913	OK	11-12-2024	08:32:28.503	84.082	37.576	OK
11-12-2024	08:32:28.661	84.240	7.497	7.497	27.509	938	0	1.0913	OK	11-12-2024	08:32:28.661	84.240	37.577	OK
11-12-2024	08:32:28.760	84.339	7.496	7.496	27.504	938	0	1.0917	OK	11-12-2024	08:32:28.760	84.339	37.577	OK
11-12-2024	08:32:28.861	84.440	7.496	7.496	27.503	938	0	1.0917	OK	11-12-2024	08:32:28.861	84.440	37.577	OK
11-12-2024	08:32:28.961	84.540	7.495	7.495	27.496	938	0	1.0922	OK	11-12-2024	08:32:28.961	84.540	37.578	OK
11-12-2024	08:32:29.063	84.642	7.495	7.495	27.500	938	0	1.0920	OK	11-12-2024	08:32:29.063	84.642	37.578	OK
11-12-2024	08:32:29.230	84.809	7.496	7.496	27.503	938	0	1.0917	OK	11-12-2024	08:32:29.230	84.809	37.578	OK
11-12-2024	08:32:29.517	85.096	7.496	7.496	27.504	939	0	1.0917	OK	11-12-2024	08:32:29.517	85.096	37.578	OK
11-12-2024	08:32:29.661	85.240	7.496	7.496	27.502	938	0	1.0918	OK	11-12-2024	08:32:29.661	85.240	37.579	OK
11-12-2024	08:32:29.762	85.341	7.496	7.496	27.502	938	0	1.0918	OK	11-12-2024	08:32:29.762	85.341	37.580	OK
11-12-2024	08:32:29.862	85.441	7.495	7.495	27.499	938	0	1.0920	OK	11-12-2024	08:32:29.862	85.441	37.580	OK
11-12-2024	08:32:29.962	85.541	7.495	7.495	27.497	938	0	1.0922	OK	11-12-2024	08:32:29.962	85.541	37.580	OK
11-12-2024	08:32:30.220	85.799	7.496	7.496	27.504	938	0	1.0917	OK	11-12-2024	08:32:30.220	85.799	37.581	OK
11-12-2024	08:32:30.475	86.054	7.496	7.496	27.508	938	0	1.0914	OK	11-12-2024	08:32:30.475	86.054	37.581	OK
11-12-2024	08:32:30.663	86.241	7.496	7.496	27.504	938	0	1.0917	OK	11-12-2024	08:32:30.663	86.241	37.581	OK
11-12-2024	08:32:30.764	86.343	7.496	7.496	27.502	938	0	1.0918	OK	11-12-2024	08:32:30.764	86.343	37.581	OK
11-12-2024	08:32:30.864	86.443	7.496	7.496	27.502	938	0	1.0918	OK	11-12-2024	08:32:30.864	86.443	37.581	OK
11-12-2024	08:32:30.964	86.543	7.496	7.496	27.502	938	0	1.0918	OK	11-12-2024	08:32:30.964	86.543	37.581	OK
11-12-2024	08:32:31.064	86.643	7.496	7.496	27.503	938	0	1.0917	OK	11-12-2024	08:32:31.064	86.643	37.581	OK
11-12-2024	08:32:31.235	86.814	7.495	7.495	27.499	938	0	1.0920	OK	11-12-2024	08:32:31.235	86.814	37.581	OK
11-12-2024	08:32:31.507	87.086	7.496	7.496	27.505	939	0	1.0916	OK	11-12-2024	08:32:31.507	87.086	37.580	OK
11-12-2024	08:32:31.664	87.243	7.496	7.496	27.507	938	0	1.0915	OK	11-12-2024	08:32:31.664	87.243	37.580	OK
11-12-2024	08:32:31.764	87.343	7.496	7.496	27.504	938	0	1.0917	OK	11-12-2024	08:32:31.764	87.343	37.580	OK
11-12-2024	08:32:31.864	87.443	7.495	7.495	27.500	938	0	1.0920	OK	11-12-2024	08:32:31.864	87.443	37.579	OK
11-12-2024	08:32:31.963	87.542	7.495	7.495	27.498	938	0	1.0921	OK	11-12-2024	08:32:31.963	87.542	37.579	OK
11-12-2024	08:32:32.065	87.644	7.495	7.495	27.498	938	0	1.0921	OK	11-12-2024	08:32:32.065	87.644	37.580	OK
11-12-2024	08:32:32.234	87.813	7.495	7.495	27.501	938	0	1.0919	OK	11-12-2024	08:32:32.234	87.813	37.581	OK
11-12-2024	08:32:32.491	88.070	7.496	7.496	27.504	938	0	1.0917	OK	11-12-2024	08:32:32.491	88.070	37.581	OK
11-12-2024	08:32:32.667	88.246	7.496	7.496	27.505	938	0	1.0916	OK	11-12-2024	08:32:32.667	88.246	37.581	OK
11-12-2024	08:32:32.766	88.345	7.495	7.495	27.501	938	0	1.0918	OK	11-12-2024	08:32:32.766	88.345	37.581	OK
11-12-2024	08:32:32.868	88.447	7.496	7.496	27.503	938	0	1.0917	OK	11-12-2024	08:32:32.868	88.447	37.581	OK
11-12-2024	08:32:32.968	88.547	7.495	7.495	27.498	938	0	1.0920	OK	11-12-2024	08:32:32.968	88.547	37.581	OK
11-12-2024	08:32:33.068	88.647	7.495	7.495	27.498	938	0	1.0920	OK	11-12-2024	08:32:33.068	88.647	37.581	OK
11-12-2024	08:32:33.236	88.815	7.496	7.496	27.503	938	0	1.0917	OK	11-12-2024	08:32:33.236	88.815	37.580	OK
11-12-2024	08:32:33.489	89.068	7.496	7.496	27.504	939	0	1.0916	OK	11-12-2024	08:32:33.489	89.068	37.580	OK
11-12-2024	08:32:33.668	89.247	7.496	7.496	27.506	938	0	1.0915	OK	11-12-2024	08:32:33.668	89.247	37.579	OK
11-12-2024	08:32:33.769	89.348	7.496	7.496	27.502	938	0	1.0918	OK	11-12-2024	08:32:33.769	89.348	37.579	OK
11-12-2024	08:32:33.869	89.448	7.495	7.495	27.500	939	0	1.0919	OK	11-12-2024	08:32:33.869	89.448	37.579	OK
11-12-2024	08:32:33.967	89.546	7.495	7.495	27.497	939	0	1.0921	OK	11-12-2024	08:32:33.967	89.546	37.579	OK
11-12-2024	08:32:34.216	89.795	7.496	7.496	27.507	938	0	1.0914	OK	11-12-2024	08:32:34.216	89.795	37.579	OK
11-12-2024	08:32:34.477	90.056	7.496	7.496	27.503	939	0	1.0917	OK	11-12-2024	08:32:34.477	90.056	37.579	OK
11-12-2024	08:32:34.571	90.150	7.496	7.496	27.504	938	0	1.0916	OK	11-12-2024	08:32:34.571	90.150	37.579	OK
11-12-2024	08:32:34.670	90.249	7.495	7.495	27.500	938	0	1.0919	OK	11-12-2024	08:32:34.670	90.249	37.579	OK
11-12-2024	08:32:34.770	90.349	7.496	7.496	27.502	938	0	1.0918	OK	11-12-2024	08:32:34.770	90.349	37.579	OK
11-12-2024	08:32:34.871	90.450	7.495	7.495	27.499	938	0	1.0920	OK	11-12-2024	08:32:34.871	90.450	37.579	OK
11-12-2024	08:32:34.972	90.551	7.495	7.495	27.498	938	0	1.0920	OK	11-12-2024	08:32:34.972	90.551	37.579	OK
11-12-2024	08:32:35.072	90.651	7.495	7.495	27.497	938	0	1.0921	OK	11-12-2024	08:32:35.072	90.651	37.580	OK
11-12-2024	08:32:35.244	90.823	7.495	7.495	27.500	938	0	1.0919	OK	11-12-2024	08:32:35.244	90.823	37.579	OK
11-12-2024	08:32:35.499	91.078	7.496	7.496	27.505	938	0	1.0916	OK	11-12-2024	08:32:35.499	91.078	37.578	OK
11-12-2024	08:32:35.674	91.253	7.497	7.497	27.507	938	0	1.0914	OK	11-12-2024	08:32:35.674	91.253	37.578	OK
11-12-2024	08:32:35.774	91.353	7.496	7.496	27.504	938	0	1.0916	OK	11-12-2024	08:32:35.774	91.353	37.578	OK
11-12-2024	08:32:35.874	91.453	7.495	7.495	27.500	938	0	1.0919	OK	11-12-2024	08:32:35.874	91.453	37.578	OK
11-12-2024	08:32:35.974	91.553	7.495	7.495	27.496	938	0	1.0921	OK	11-12-2024	08:32:35.974	91.553	37.578	OK
11-12-2024	08:32:36.074	91.652	7.496	7.496	27.500	938	0	1.0919	OK	11-12-2024	08:32:36.074	91.652	37.577	OK
11-12-2024	08:32:36.249	91.828	7.495	7.495	27.500	938	0	1.0919	OK	11-12-2024	08:32:36.249	91.828	37.578	OK
11-12-2024	08:32:36.511	92.090	7.496	7.496	27.507	938	0	1.0914	OK	11-12-2024	08:32:36.511	92.090	37.579	OK
11-12-2024	08:32:36.676	92.255	7.496	7.496	27.505	938	0	1.0916	OK	11-12-2024	08:32:36.676	92.255	37.579	OK
11-12-2024	08:32:36.776	92.355	7.496	7.496	27.504	938	0	1.0916	OK	11-12-2024	08:32:36.776	92.355	37.579	OK
11-12-2024	08:32:36.878	92.457	7.495	7.495	27.500	938	0	1.0919	OK	11-12-2024	08:32:36.878	92.457	37.580	OK
11-12-2024	08:32:36.977	92.556	7.495	7.495	27.498	938	0	1.0920	OK	11-12-2024	08:32:36.977	92.556	37.580	OK
11-12-2024	08:32:37.078	92.657	7.495	7.495	27.499	938	0	1.0920	OK	11-12-2024	08:32:37.078	92.657	37.581	OK
11-12-2024	08:32:37.247	92.826	7.495	7.495	27.501	938	0	1.0918	OK	11-12-2024	08:32:37.247	92.826	37.581	OK
11-12-2024	08:32:37.505	93.084	7.496	7.496	27.506	938	0	1.0915	OK	11-12-2024	08:32:37.505	93.084	37.582	OK
11-12-2024	08:32:37.679	93.258	7.496	7.496	27.504	938	0	1.0916	OK	11-12-2024	08:32:37.679	93.258	37.582	OK
11-12-2024	08:32:37.778	93.357	7.495	7.495	27.501	938	0	1.0918	OK	11-12-2024	08:32:37.778	93.357	37.582	OK
11-12-2024	08:32:37.879	93.458	7.495	7.495	27.500	938	0	1.0919	OK	11-12-2024	08:32:37.879	93.458	37.581	OK
11-12-2024	08:32:37.980	93.559	7.495	7.495	27.498	938	0	1.0920	OK	11-12-2024	08:32:37.980	93.559	37.581	OK
11-12-2024	08:32:38.080	93.659	7.495	7.495	27.499	938	0	1.0920	OK	11-12-2024	08:32:38.080	93.659	37.582	OK
11-12-2024	08:32:38.267	93.846	7.496	7.496	27.508	938	0	1.0913	OK	11-12-2024	08:32:38.267	93.846	37.581	OK
11-12-2024	08:32:38.524	94.103	7.496	7.496	27.507	938	0	1.0914	OK	11-12-2024	08:32:38.524	94.103	37.582	OK
11-12-2024	08:32:38.680	94.259	7.496	7.496	27.504	938	0	1.0916	OK	11-12-2024	08:32:38.680	94.259	37.582	OK
11-12-2024	08:32:38.781	94.360	7.496	7.496	27.502	938	0	1.0918	OK	11-12-2024	08:32:38.781	94.360	37.582	OK
11-12-2024	08:32:38.882	94.461	7.495	7.495	27.499	938	0	1.0920	OK	11-12-2024	08:32:38.882	94.461	37.581	OK
11-12-2024	08:32:38.983	94.562	7.495	7.495	27.496	938	0	1.0922	OK	11-12-2024	08:32:38.983	94.562	37.581	OK
11-12-2024	08:32:39.082	94.661	7.495	7.495	27.498	938	0	1.0920	OK	11-12-2024	08:32:39.082	94.661	37.581	OK
11-12-2024	08:32:39.252	94.831	7.495	7.495	27.498	938	0	1.0920	OK	11-12-2024	08:32:39.252	94.831	37.581	OK
11-12-2024	08:32:39.509	95.087	7.496	7.496	27.506	938	0	1.0915	OK	11-12-2024	08:32:39.509	95.087	37.580	OK
11-12-2024	08:32:39.683	95.262	7.496	7.496	27.508	938	0	1.0913	OK	11-12-2024	08:32:39.683	95.262	37.581	OK
11-12-2024	08:32:39.782	95.361	7.496	7.496	27.505	938	0	1.0915	OK	11-12-2024	08:32:39.782	95.361	37.581	OK
11-12-2024	08:32:39.883	95.462	7.496	7.496	27.503	938	0	1.0916	OK	11-12-2024	08:32:39.883	95.462	37.581	OK
11-12-2024	08:32:39.983	95.562	7.495	7.495	27.500	938	0	1.0919	OK	11-12-2024	08:32:39.983	95.562	37.581	OK
11-12-2024	08:32:40.083	95.662	7.495	7.495	27.498	938	0	1.0920	OK	11-12-2024	08:32:40.083	95.662	37.581	OK
11-12-2024	08:32:40.254	95.833	7.495	7.495	27.498	938	0	1.0920	OK	11-12-2024	08:32:40.254	95.833	37.580	OK
11-12-2024	08:32:40.509	96.088	7.496	7.496	27.505	938	0	1.0915	OK	11-12-2024	08:32:40.509	96.088	37.580	OK
11-12-2024	08:32:40.683	96.262	7.496	7.496	27.506	938	0	1.0914	OK	11-12-2024	08:32:40.683	96.262	37.580	OK
11-12-2024	08:32:40.784	96.363	7.496	7.496	27.502	938	0	1.0917	OK	11-12-2024	08:32:40.784	96.363	37.579	OK
11-12-2024	08:32:40.884	96.462	7.495	7.495	27.497	938	0	1.0921	OK	11-12-2024	08:32:40.884	96.462	37.579	OK
11-12-2024	08:32:40.983	96.562	7.496	7.496	27.501	938	0	1.0918	OK	11-12-2024	08:32:40.983	96.562	37.579	OK
11-12-2024	08:32:41.217	96.796	7.496	7.496	27.505	938	0	1.0915	OK	11-12-2024	08:32:41.217	96.796	37.580	OK
11-12-2024	08:32:41.474	97.053	7.497	7.497	27.508	938	0	1.0913	OK	11-12-2024	08:32:41.474	97.053	37.580	OK
11-12-2024	08:32:41.585	97.164	7.496	7.496	27.501	938	0	1.0918	OK	11-12-2024	08:32:41.585	97.164	37.580	OK
11-12-2024	08:32:41.686	97.265	7.495	7.495	27.499	938	0	1.0919	OK	11-12-2024	08:32:41.686	97.265	37.580	OK
11-12-2024	08:32:41.785	97.364	7.495	7.495	27.501	938	0	1.0918	OK	11-12-2024	08:32:41.785	97.364	37.580	OK
11-12-2024	08:32:41.886	97.465	7.496	7.496	27.502	938	0	1.0918	OK	11-12-2024	08:32:41.886	97.465	37.580	OK
11-12-2024	08:32:41.985	97.564	7.495	7.495	27.500	938	0	1.0919	OK	11-12-2024	08:32:41.985	97.564	37.580	OK
11-12-2024	08:32:42.085	97.664	7.495	7.495	27.498	938	0	1.0920	OK	11-12-2024	08:32:42.085	97.664	37.580	OK
11-12-2024	08:32:42.257	97.836	7.496	7.496	27.502	938	0	1.0918	OK	11-12-2024	08:32:42.257	97.836	37.580	OK
11-12-2024	08:32:42.529	98.108	7.497	7.497	27.509	938	0	1.0913	OK	11-12-2024	08:32:42.529	98.108	37.580	OK
11-12-2024	08:32:42.685	98.264	7.496	7.496	27.505	938	0	1.0916	OK	11-12-2024	08:32:42.685	98.264	37.580	OK
11-12-2024	08:32:42.786	98.364	7.496	7.496	27.501	938	0	1.0918	OK	11-12-2024	08:32:42.786	98.364	37.581	OK
11-12-2024	08:32:42.885	98.464	7.495	7.495	27.500	938	0	1.0919	OK	11-12-2024	08:32:42.885	98.464	37.581	OK
11-12-2024	08:32:42.985	98.564	7.495	7.495	27.495	938	0	1.0922	OK	11-12-2024	08:32:42.985	98.564	37.580	OK
11-12-2024	08:32:43.086	98.664	7.495	7.495	27.495	938	0	1.0922	OK	11-12-2024	08:32:43.086	98.664	37.580	OK
11-12-2024	08:32:43.257	98.836	7.495	7.495	27.500	938	0	1.0919	OK	11-12-2024	08:32:43.257	98.836	37.580	OK
11-12-2024	08:32:43.513	99.092	7.496	7.496	27.504	938	0	1.0916	OK	11-12-2024	08:32:43.513	99.092	37.580	OK
11-12-2024	08:32:43.686	99.265	7.496	7.496	27.501	938	0	1.0918	OK	11-12-2024	08:32:43.686	99.265	37.581	OK
11-12-2024	08:32:43.786	99.365	7.495	7.495	27.497	938	0	1.0921	OK	11-12-2024	08:32:43.786	99.365	37.580	OK
11-12-2024	08:32:43.886	99.465	7.495	7.495	27.497	938	0	1.0921	OK	11-12-2024	08:32:43.886	99.465	37.580	OK
11-12-2024	08:32:43.987	99.566	7.495	7.495	27.494	938	0	1.0923	OK	11-12-2024	08:32:43.987	99.566	37.580	OK
11-12-2024	08:32:44.087	99.666	7.495	7.495	27.496	938	0	1.0921	OK	11-12-2024	08:32:44.087	99.666	37.580	OK
11-12-2024	08:32:44.258	99.837	7.495	7.495	27.499	938	0	1.0919	OK	11-12-2024	08:32:44.258	99.837	37.579	OK
11-12-2024	08:32:44.515	100.094	7.496	7.496	27.505	938	0	1.0915	OK	11-12-2024	08:32:44.515	100.094	37.579	OK
11-12-2024	08:32:44.686	100.265	7.496	7.496	27.505	938	0	1.0915	OK	11-12-2024	08:32:44.686	100.265	37.578	OK
11-12-2024	08:32:44.786	100.365	7.495	7.495	27.497	938	0	1.0921	OK	11-12-2024	08:32:44.786	100.365	37.578	OK
11-12-2024	08:32:44.887	100.466	7.496	7.496	27.501	938	0	1.0918	OK	11-12-2024	08:32:44.887	100.466	37.578	OK
11-12-2024	08:32:44.987	100.566	7.495	7.495	27.497	938	0	1.0921	OK	11-12-2024	08:32:44.987	100.566	37.578	OK
11-12-2024	08:32:45.220	100.799	7.496	7.496	27.504	938	0	1.0916	OK	11-12-2024	08:32:45.220	100.799	37.579	OK
11-12-2024	08:32:45.490	101.069	7.496	7.496	27.505	938	0	1.0915	OK	11-12-2024	08:32:45.490	101.069	37.578	OK
11-12-2024	08:32:45.587	101.166	7.496	7.496	27.502	938	0	1.0917	OK	11-12-2024	08:32:45.587	101.166	37.578	OK
11-12-2024	08:32:45.687	101.266	7.496	7.496	27.503	938	0	1.0916	OK	11-12-2024	08:32:45.687	101.266	37.578	OK
11-12-2024	08:32:45.785	101.364	7.495	7.495	27.500	938	0	1.0919	OK	11-12-2024	08:32:45.785	101.364	37.579	OK
11-12-2024	08:32:45.885	101.464	7.496	7.496	27.501	938	0	1.0918	OK	11-12-2024	08:32:45.885	101.464	37.579	OK
11-12-2024	08:32:45.987	101.566	7.495	7.495	27.499	938	0	1.0919	OK	11-12-2024	08:32:45.987	101.566	37.580	OK
11-12-2024	08:32:46.088	101.667	7.495	7.495	27.500	938	0	1.0919	OK	11-12-2024	08:32:46.088	101.667	37.580	OK
11-12-2024	08:32:46.259	101.838	7.496	7.496	27.501	938	0	1.0918	OK	11-12-2024	08:32:46.259	101.838	37.580	OK
11-12-2024	08:32:46.532	102.111	7.496	7.496	27.506	938	0	1.0914	OK	11-12-2024	08:32:46.532	102.111	37.579	OK
11-12-2024	08:32:46.689	102.268	7.496	7.496	27.506	938	0	1.0914	OK	11-12-2024	08:32:46.689	102.268	37.580	OK
11-12-2024	08:32:46.789	102.368	7.495	7.495	27.499	938	0	1.0919	OK	11-12-2024	08:32:46.789	102.368	37.580	OK
11-12-2024	08:32:46.889	102.468	7.496	7.496	27.503	938	0	1.0916	OK	11-12-2024	08:32:46.889	102.468	37.580	OK
11-12-2024	08:32:46.989	102.568	7.495	7.495	27.500	938	0	1.0919	OK	11-12-2024	08:32:46.989	102.568	37.581	OK
11-12-2024	08:32:47.090	102.669	7.495	7.495	27.499	938	0	1.0919	OK	11-12-2024	08:32:47.090	102.669	37.581	OK
11-12-2024	08:32:47.262	102.841	7.495	7.495	27.499	938	0	1.0919	OK	11-12-2024	08:32:47.262	102.841	37.581	OK
11-12-2024	08:32:47.517	103.096	7.496	7.496	27.504	938	0	1.0916	OK	11-12-2024	08:32:47.517	103.096	37.581	OK
11-12-2024	08:32:47.691	103.270	7.496	7.496	27.505	938	0	1.0915	OK	11-12-2024	08:32:47.691	103.270	37.581	OK
11-12-2024	08:32:47.790	103.369	7.495	7.495	27.500	938	0	1.0919	OK	11-12-2024	08:32:47.790	103.369	37.581	OK
11-12-2024	08:32:47.890	103.469	7.495	7.495	27.500	938	0	1.0919	OK	11-12-2024	08:32:47.890	103.469	37.581	OK
11-12-2024	08:32:47.991	103.570	7.495	7.495	27.499	938	0	1.0919	OK	11-12-2024	08:32:47.991	103.570	37.581	OK
11-12-2024	08:32:48.090	103.669	7.495	7.495	27.497	938	0	1.0921	OK	11-12-2024	08:32:48.090	103.669	37.581	OK
11-12-2024	08:32:48.260	103.839	7.495	7.495	27.500	938	0	1.0919	OK	11-12-2024	08:32:48.260	103.839	37.581	OK
11-12-2024	08:32:48.532	104.111	7.496	7.496	27.505	938	0	1.0915	OK	11-12-2024	08:32:48.532	104.111	37.580	OK
11-12-2024	08:32:48.690	104.269	7.496	7.496	27.504	938	0	1.0916	OK	11-12-2024	08:32:48.690	104.269	37.581	OK
11-12-2024	08:32:48.790	104.369	7.495	7.495	27.499	938	0	1.0919	OK	11-12-2024	08:32:48.790	104.369	37.581	OK
11-12-2024	08:32:48.889	104.468	7.496	7.496	27.500	938	0	1.0918	OK	11-12-2024	08:32:48.889	104.468	37.581	OK
11-12-2024	08:32:48.991	104.569	7.495	7.495	27.499	938	0	1.0919	OK	11-12-2024	08:32:48.991	104.569	37.581	OK
11-12-2024	08:32:49.091	104.670	7.495	7.495	27.498	938	0	1.0919	OK	11-12-2024	08:32:49.091	104.670	37.580	OK
11-12-2024	08:32:49.260	104.839	7.496	7.496	27.500	938	0	1.0918	OK	11-12-2024	08:32:49.260	104.839	37.581	OK
11-12-2024	08:32:49.518	105.097	7.496	7.496	27.500	938	0	1.0918	OK	11-12-2024	08:32:49.518	105.097	37.581	OK
11-12-2024	08:32:49.690	105.269	7.496	7.496	27.501	938	0	1.0917	OK	11-12-2024	08:32:49.690	105.269	37.581	OK
11-12-2024	08:32:49.791	105.370	7.495	7.495	27.499	938	0	1.0919	OK	11-12-2024	08:32:49.791	105.370	37.581	OK
11-12-2024	08:32:49.890	105.469	7.495	7.495	27.493	938	0	1.0923	OK	11-12-2024	08:32:49.890	105.469	37.580	OK
11-12-2024	08:32:49.991	105.570	7.496	7.496	27.502	938	0	1.0917	OK	11-12-2024	08:32:49.991	105.570	37.580	OK
11-12-2024	08:32:50.090	105.669	7.495	7.495	27.495	938	0	1.0921	OK	11-12-2024	08:32:50.090	105.669	37.580	OK
11-12-2024	08:32:50.260	105.839	7.495	7.495	27.498	938	0	1.0919	OK	11-12-2024	08:32:50.260	105.839	37.579	OK
11-12-2024	08:32:50.517	106.096	7.496	7.496	27.502	938	0	1.0917	OK	11-12-2024	08:32:50.517	106.096	37.578	OK
11-12-2024	08:32:50.692	106.271	7.496	7.496	27.501	938	0	1.0917	OK	11-12-2024	08:32:50.692	106.271	37.579	OK
11-12-2024	08:32:50.792	106.371	7.495	7.495	27.499	938	0	1.0919	OK	11-12-2024	08:32:50.792	106.371	37.579	OK
11-12-2024	08:32:50.893	106.472	7.495	7.495	27.496	938	0	1.0921	OK	11-12-2024	08:32:50.893	106.472	37.580	OK
11-12-2024	08:32:50.992	106.571	7.495	7.495	27.494	938	0	1.0923	OK	11-12-2024	08:32:50.992	106.571	37.580	OK
11-12-2024	08:32:51.092	106.671	7.495	7.495	27.495	938	0	1.0922	OK	11-12-2024	08:32:51.092	106.671	37.579	OK
11-12-2024	08:32:51.265	106.844	7.496	7.496	27.501	938	0	1.0918	OK	11-12-2024	08:32:51.265	106.844	37.579	OK
11-12-2024	08:32:51.524	107.103	7.496	7.496	27.501	938	0	1.0918	OK	11-12-2024	08:32:51.524	107.103	37.578	OK
11-12-2024	08:32:51.692	107.271	7.496	7.496	27.505	938	0	1.0915	OK	11-12-2024	08:32:51.692	107.271	37.578	OK
11-12-2024	08:32:51.793	107.372	7.496	7.496	27.503	938	0	1.0916	OK	11-12-2024	08:32:51.793	107.372	37.578	OK
11-12-2024	08:32:51.892	107.471	7.495	7.495	27.497	938	0	1.0920	OK	11-12-2024	08:32:51.892	107.471	37.578	OK
11-12-2024	08:32:51.993	107.571	7.495	7.495	27.497	938	0	1.0920	OK	11-12-2024	08:32:51.993	107.571	37.578	OK
11-12-2024	08:32:52.093	107.672	7.495	7.495	27.496	938	0	1.0921	OK	11-12-2024	08:32:52.093	107.672	37.579	OK
11-12-2024	08:32:52.280	107.859	7.496	7.496	27.501	938	0	1.0917	OK	11-12-2024	08:32:52.280	107.859	37.578	OK
11-12-2024	08:32:52.535	108.114	7.497	7.497	27.507	938	0	1.0913	OK	11-12-2024	08:32:52.535	108.114	37.578	OK
11-12-2024	08:32:52.693	108.272	7.496	7.496	27.501	938	0	1.0917	OK	11-12-2024	08:32:52.693	108.272	37.577	OK
11-12-2024	08:32:52.795	108.374	7.496	7.496	27.500	938	0	1.0918	OK	11-12-2024	08:32:52.795	108.374	37.577	OK
11-12-2024	08:32:52.895	108.474	7.495	7.495	27.499	938	0	1.0919	OK	11-12-2024	08:32:52.895	108.474	37.576	OK
11-12-2024	08:32:52.995	108.574	7.495	7.495	27.497	938	0	1.0920	OK	11-12-2024	08:32:52.995	108.574	37.576	OK
11-12-2024	08:32:53.094	108.673	7.495	7.495	27.498	938	0	1.0919	OK	11-12-2024	08:32:53.094	108.673	37.577	OK
11-12-2024	08:32:53.264	108.842	7.496	7.496	27.502	938	0	1.0917	OK	11-12-2024	08:32:53.264	108.842	37.577	OK
11-12-2024	08:32:53.520	109.099	7.496	7.496	27.502	938	0	1.0917	OK	11-12-2024	08:32:53.520	109.099	37.577	OK
11-12-2024	08:32:53.697	109.276	7.497	7.497	27.508	938	0	1.0912	OK	11-12-2024	08:32:53.697	109.276	37.577	OK
11-12-2024	08:32:53.795	109.374	7.496	7.496	27.503	938	0	1.0916	OK	11-12-2024	08:32:53.795	109.374	37.577	OK
11-12-2024	08:32:53.896	109.475	7.496	7.496	27.502	938	0	1.0917	OK	11-12-2024	08:32:53.896	109.475	37.577	OK
11-12-2024	08:32:53.996	109.575	7.495	7.495	27.495	938	0	1.0921	OK	11-12-2024	08:32:53.996	109.575	37.577	OK
11-12-2024	08:32:54.096	109.675	7.495	7.495	27.497	938	0	1.0920	OK	11-12-2024	08:32:54.096	109.675	37.576	OK
11-12-2024	08:32:54.269	109.848	7.496	7.496	27.503	938	0	1.0916	OK	11-12-2024	08:32:54.269	109.848	37.576	OK
11-12-2024	08:32:54.540	110.119	7.497	7.497	27.507	938	0	1.0913	OK	11-12-2024	08:32:54.540	110.119	37.576	OK
11-12-2024	08:32:54.697	110.276	7.497	7.497	27.507	938	0	1.0913	OK	11-12-2024	08:32:54.697	110.276	37.577	OK
11-12-2024	08:32:54.799	110.378	7.495	7.495	27.499	938	0	1.0919	OK	11-12-2024	08:32:54.799	110.378	37.577	OK
11-12-2024	08:32:54.900	110.479	7.496	7.496	27.500	938	0	1.0918	OK	11-12-2024	08:32:54.900	110.479	37.577	OK
11-12-2024	08:32:55.000	110.579	7.496	7.496	27.501	938	0	1.0917	OK	11-12-2024	08:32:55.000	110.579	37.577	OK
11-12-2024	08:32:55.100	110.679	7.495	7.495	27.498	938	0	1.0919	OK	11-12-2024	08:32:55.100	110.679	37.576	OK
11-12-2024	08:32:55.287	110.866	7.496	7.496	27.503	938	0	1.0916	OK	11-12-2024	08:32:55.287	110.866	37.576	OK
11-12-2024	08:32:55.557	111.135	7.497	7.497	27.507	938	0	1.0913	OK	11-12-2024	08:32:55.557	111.135	37.576	OK
11-12-2024	08:32:55.699	111.278	7.496	7.496	27.502	938	0	1.0917	OK	11-12-2024	08:32:55.699	111.278	37.576	OK
11-12-2024	08:32:55.801	111.380	7.496	7.496	27.501	938	0	1.0917	OK	11-12-2024	08:32:55.801	111.380	37.575	OK
11-12-2024	08:32:56.000	111.578	7.496	7.496	27.503	938	0	1.0916	OK	11-12-2024	08:32:56.000	111.578	37.574	OK
11-12-2024	08:32:56.101	111.680	7.496	7.496	27.500	938	0	1.0918	OK	11-12-2024	08:32:56.101	111.680	37.574	OK
11-12-2024	08:32:56.273	111.852	7.496	7.496	27.502	938	0	1.0917	OK	11-12-2024	08:32:56.273	111.852	37.575	OK
11-12-2024	08:32:56.544	112.123	7.497	7.497	27.508	938	0	1.0912	OK	11-12-2024	08:32:56.544	112.123	37.574	OK
11-12-2024	08:32:56.702	112.281	7.497	7.497	27.507	938	0	1.0913	OK	11-12-2024	08:32:56.702	112.281	37.574	OK
11-12-2024	08:32:56.801	112.380	7.496	7.496	27.500	938	0	1.0918	OK	11-12-2024	08:32:56.801	112.380	37.574	OK
11-12-2024	08:32:56.902	112.481	7.496	7.496	27.500	938	0	1.0918	OK	11-12-2024	08:32:56.902	112.481	37.574	OK
11-12-2024	08:32:57.003	112.582	7.495	7.495	27.498	938	0	1.0919	OK	11-12-2024	08:32:57.003	112.582	37.575	OK
11-12-2024	08:32:57.102	112.681	7.495	7.495	27.496	938	0	1.0920	OK	11-12-2024	08:32:57.102	112.681	37.575	OK
11-12-2024	08:32:57.289	112.868	7.496	7.496	27.505	938	0	1.0914	OK	11-12-2024	08:32:57.289	112.868	37.575	OK
11-12-2024	08:32:57.561	113.140	7.496	7.496	27.505	939	0	1.0914	OK	11-12-2024	08:32:57.561	113.140	37.578	OK
11-12-2024	08:32:57.704	113.283	7.497	7.497	27.511	939	0	1.0910	OK	11-12-2024	08:32:57.704	113.283	37.578	OK
11-12-2024	08:32:57.805	113.384	7.496	7.496	27.500	938	0	1.0918	OK	11-12-2024	08:32:57.805	113.384	37.577	OK
11-12-2024	08:32:57.906	113.485	7.495	7.495	27.498	938	0	1.0919	OK	11-12-2024	08:32:57.906	113.485	37.577	OK
11-12-2024	08:32:58.007	113.586	7.495	7.495	27.496	938	0	1.0921	OK	11-12-2024	08:32:58.007	113.586	37.578	OK
11-12-2024	08:32:58.106	113.685	7.495	7.495	27.497	938	0	1.0920	OK	11-12-2024	08:32:58.106	113.685	37.578	OK
11-12-2024	08:32:58.276	113.855	7.496	7.496	27.502	939	0	1.0917	OK	11-12-2024	08:32:58.276	113.855	37.578	OK
11-12-2024	08:32:58.550	114.129	7.496	7.496	27.506	939	0	1.0914	OK	11-12-2024	08:32:58.550	114.129	37.579	OK
11-12-2024	08:32:58.707	114.286	7.496	7.496	27.506	939	0	1.0914	OK	11-12-2024	08:32:58.707	114.286	37.579	OK
11-12-2024	08:32:58.806	114.385	7.496	7.496	27.501	939	0	1.0917	OK	11-12-2024	08:32:58.806	114.385	37.579	OK
11-12-2024	08:32:58.907	114.486	7.496	7.496	27.500	938	0	1.0918	OK	11-12-2024	08:32:58.907	114.486	37.579	OK
11-12-2024	08:32:59.007	114.586	7.495	7.495	27.498	939	0	1.0919	OK	11-12-2024	08:32:59.007	114.586	37.579	OK
11-12-2024	08:32:59.107	114.686	7.495	7.495	27.496	938	0	1.0921	OK	11-12-2024	08:32:59.107	114.686	37.579	OK
11-12-2024	08:32:59.278	114.857	7.496	7.496	27.502	938	0	1.0917	OK	11-12-2024	08:32:59.278	114.857	37.579	OK
11-12-2024	08:32:59.537	115.116	7.496	7.496	27.502	938	0	1.0917	OK	11-12-2024	08:32:59.537	115.116	37.580	OK
11-12-2024	08:32:59.706	115.285	7.496	7.496	27.504	939	0	1.0915	OK	11-12-2024	08:32:59.706	115.285	37.581	OK
11-12-2024	08:32:59.807	115.386	7.495	7.495	27.497	938	0	1.0920	OK	11-12-2024	08:32:59.807	115.386	37.582	OK
11-12-2024	08:32:59.907	115.486	7.496	7.496	27.500	938	0	1.0918	OK	11-12-2024	08:32:59.907	115.486	37.582	OK
11-12-2024	08:33:00.007	115.586	7.495	7.495	27.495	938	0	1.0921	OK	11-12-2024	08:33:00.007	115.586	37.581	OK
11-12-2024	08:33:00.107	115.686	7.495	7.495	27.499	938	0	1.0919	OK	11-12-2024	08:33:00.107	115.686	37.581	OK
11-12-2024	08:33:00.280	115.859	7.496	7.496	27.506	939	0	1.0914	OK	11-12-2024	08:33:00.280	115.859	37.580	OK
11-12-2024	08:33:00.536	116.115	7.496	7.496	27.504	939	0	1.0915	OK	11-12-2024	08:33:00.536	116.115	37.581	OK
11-12-2024	08:33:00.707	116.286	7.497	7.497	27.508	938	0	1.0912	OK	11-12-2024	08:33:00.707	116.286	37.580	OK
11-12-2024	08:33:00.808	116.387	7.496	7.496	27.503	938	0	1.0916	OK	11-12-2024	08:33:00.808	116.387	37.579	OK
11-12-2024	08:33:00.908	116.487	7.495	7.495	27.499	938	0	1.0919	OK	11-12-2024	08:33:00.908	116.487	37.579	OK
11-12-2024	08:33:01.010	116.589	7.494	7.494	27.492	938	0	1.0924	OK	11-12-2024	08:33:01.010	116.589	37.580	OK
11-12-2024	08:33:01.110	116.689	7.495	7.495	27.495	939	0	1.0921	OK	11-12-2024	08:33:01.110	116.689	37.580	OK
11-12-2024	08:33:01.279	116.858	7.497	7.497	27.506	939	0	1.0913	OK	11-12-2024	08:33:01.279	116.858	37.579	OK
11-12-2024	08:33:01.534	117.113	7.496	7.496	27.504	939	0	1.0915	OK	11-12-2024	08:33:01.534	117.113	37.578	OK
11-12-2024	08:33:01.709	117.288	7.496	7.496	27.502	939	0	1.0916	OK	11-12-2024	08:33:01.709	117.288	37.578	OK
11-12-2024	08:33:01.809	117.388	7.495	7.495	27.495	939	0	1.0921	OK	11-12-2024	08:33:01.809	117.388	37.578	OK
11-12-2024	08:33:01.909	117.488	7.495	7.495	27.497	938	0	1.0920	OK	11-12-2024	08:33:01.909	117.488	37.578	OK
11-12-2024	08:33:02.010	117.589	7.495	7.495	27.496	939	0	1.0920	OK	11-12-2024	08:33:02.010	117.589	37.579	OK
11-12-2024	08:33:02.111	117.690	7.495	7.495	27.498	938	0	1.0919	OK	11-12-2024	08:33:02.111	117.690	37.579	OK
11-12-2024	08:33:02.281	117.860	7.495	7.495	27.495	939	0	1.0921	OK	11-12-2024	08:33:02.281	117.860	37.579	OK
11-12-2024	08:33:02.537	118.116	7.496	7.496	27.502	939	0	1.0916	OK	11-12-2024	08:33:02.537	118.116	37.580	OK
11-12-2024	08:33:02.712	118.291	7.496	7.496	27.504	938	0	1.0915	OK	11-12-2024	08:33:02.712	118.291	37.579	OK
11-12-2024	08:33:02.814	118.393	7.496	7.496	27.502	938	0	1.0916	OK	11-12-2024	08:33:02.814	118.393	37.579	OK
11-12-2024	08:33:02.914	118.493	7.495	7.495	27.498	938	0	1.0919	OK	11-12-2024	08:33:02.914	118.493	37.579	OK
11-12-2024	08:33:03.014	118.593	7.495	7.495	27.496	939	0	1.0920	OK	11-12-2024	08:33:03.014	118.593	37.579	OK
11-12-2024	08:33:03.114	118.693	7.495	7.495	27.497	938	0	1.0920	OK	11-12-2024	08:33:03.114	118.693	37.579	OK
11-12-2024	08:33:03.286	118.865	7.496	7.496	27.501	938	0	1.0917	OK	11-12-2024	08:33:03.286	118.865	37.579	OK
11-12-2024	08:33:03.556	119.135	7.497	7.497	27.506	939	0	1.0913	OK	11-12-2024	08:33:03.556	119.135	37.581	OK
11-12-2024	08:33:03.715	119.294	7.497	7.497	27.507	939	0	1.0913	OK	11-12-2024	08:33:03.715	119.294	37.580	OK
11-12-2024	08:33:03.816	119.395	7.496	7.496	27.503	939	0	1.0915	OK	11-12-2024	08:33:03.816	119.395	37.580	OK
11-12-2024	08:33:03.917	119.496	7.496	7.496	27.503	939	0	1.0915	OK	11-12-2024	08:33:03.917	119.496	37.580	OK
11-12-2024	08:33:04.018	119.596	7.496	7.496	27.501	938	0	1.0917	OK	11-12-2024	08:33:04.018	119.596	37.580	OK
11-12-2024	08:33:04.118	119.697	7.496	7.496	27.499	938	0	1.0918	OK	11-12-2024	08:33:04.118	119.697	37.581	OK
11-12-2024	08:33:04.289	119.868	7.496	7.496	27.502	939	0	1.0916	OK	11-12-2024	08:33:04.289	119.868	37.581	OK
11-12-2024	08:33:04.546	120.125	7.497	7.497	27.507	939	0	1.0913	OK	11-12-2024	08:33:04.546	120.125	37.581	OK
11-12-2024	08:33:04.719	120.298	7.497	7.497	27.506	939	0	1.0913	OK	11-12-2024	08:33:04.719	120.298	37.581	OK
11-12-2024	08:33:04.820	120.399	7.496	7.496	27.503	939	0	1.0915	OK	11-12-2024	08:33:04.820	120.399	37.581	OK
11-12-2024	08:33:04.919	120.498	7.496	7.496	27.500	939	0	1.0918	OK	11-12-2024	08:33:04.919	120.498	37.582	OK
11-12-2024	08:33:05.018	120.597	7.495	7.495	27.496	939	0	1.0920	OK	11-12-2024	08:33:05.018	120.597	37.582	OK
11-12-2024	08:33:05.224	120.803	7.496	7.496	27.500	939	0	1.0918	OK	11-12-2024	08:33:05.224	120.803	37.581	OK
11-12-2024	08:33:05.483	121.062	7.497	7.497	27.507	939	0	1.0913	OK	11-12-2024	08:33:05.483	121.062	37.579	OK
11-12-2024	08:33:05.620	121.199	7.497	7.497	27.509	939	0	1.0912	OK	11-12-2024	08:33:05.620	121.199	37.579	OK
11-12-2024	08:33:05.721	121.299	7.496	7.496	27.505	939	0	1.0915	OK	11-12-2024	08:33:05.721	121.299	37.579	OK
11-12-2024	08:33:05.819	121.398	7.496	7.496	27.505	939	0	1.0915	OK	11-12-2024	08:33:05.819	121.398	37.579	OK
11-12-2024	08:33:05.920	121.499	7.495	7.495	27.499	939	0	1.0919	OK	11-12-2024	08:33:05.920	121.499	37.580	OK
11-12-2024	08:33:06.020	121.599	7.495	7.495	27.499	939	0	1.0919	OK	11-12-2024	08:33:06.020	121.599	37.580	OK
11-12-2024	08:33:06.120	121.699	7.495	7.495	27.496	939	0	1.0920	OK	11-12-2024	08:33:06.120	121.699	37.579	OK
11-12-2024	08:33:06.292	121.871	7.496	7.496	27.500	939	0	1.0918	OK	11-12-2024	08:33:06.292	121.871	37.580	OK
11-12-2024	08:33:06.548	122.127	7.497	7.497	27.506	939	0	1.0913	OK	11-12-2024	08:33:06.548	122.127	37.580	OK
11-12-2024	08:33:06.722	122.301	7.497	7.497	27.506	939	0	1.0913	OK	11-12-2024	08:33:06.722	122.301	37.579	OK
11-12-2024	08:33:06.822	122.401	7.497	7.497	27.506	939	0	1.0913	OK	11-12-2024	08:33:06.822	122.401	37.579	OK
11-12-2024	08:33:06.922	122.501	7.495	7.495	27.498	938	0	1.0919	OK	11-12-2024	08:33:06.922	122.501	37.579	OK
11-12-2024	08:33:07.023	122.602	7.496	7.496	27.503	938	0	1.0915	OK	11-12-2024	08:33:07.023	122.602	37.579	OK
11-12-2024	08:33:07.121	122.700	7.495	7.495	27.494	939	0	1.0922	OK	11-12-2024	08:33:07.121	122.700	37.579	OK
11-12-2024	08:33:07.309	122.888	7.496	7.496	27.502	938	0	1.0916	OK	11-12-2024	08:33:07.309	122.888	37.578	OK
11-12-2024	08:33:07.581	123.160	7.497	7.497	27.508	939	0	1.0912	OK	11-12-2024	08:33:07.581	123.160	37.579	OK
11-12-2024	08:33:07.722	123.301	7.496	7.496	27.504	939	0	1.0915	OK	11-12-2024	08:33:07.722	123.301	37.579	OK
11-12-2024	08:33:07.821	123.400	7.496	7.496	27.501	939	0	1.0917	OK	11-12-2024	08:33:07.821	123.400	37.579	OK
11-12-2024	08:33:07.920	123.499	7.496	7.496	27.500	939	0	1.0918	OK	11-12-2024	08:33:07.920	123.499	37.579	OK
11-12-2024	08:33:08.021	123.599	7.496	7.496	27.501	939	0	1.0917	OK	11-12-2024	08:33:08.021	123.599	37.579	OK
11-12-2024	08:33:08.121	123.700	7.495	7.495	27.498	938	0	1.0919	OK	11-12-2024	08:33:08.121	123.700	37.579	OK
11-12-2024	08:33:08.309	123.888	7.496	7.496	27.500	938	0	1.0918	OK	11-12-2024	08:33:08.309	123.888	37.580	OK
11-12-2024	08:33:08.565	124.144	7.496	7.496	27.500	939	0	1.0918	OK	11-12-2024	08:33:08.565	124.144	37.581	OK
11-12-2024	08:33:08.722	124.301	7.496	7.496	27.503	939	0	1.0915	OK	11-12-2024	08:33:08.722	124.301	37.581	OK
11-12-2024	08:33:08.821	124.400	7.496	7.496	27.501	939	0	1.0917	OK	11-12-2024	08:33:08.821	124.400	37.581	OK
11-12-2024	08:33:08.922	124.501	7.496	7.496	27.502	939	0	1.0916	OK	11-12-2024	08:33:08.922	124.501	37.581	OK
11-12-2024	08:33:09.022	124.601	7.496	7.496	27.501	938	0	1.0917	OK	11-12-2024	08:33:09.022	124.601	37.581	OK
11-12-2024	08:33:09.123	124.702	7.495	7.495	27.497	938	0	1.0920	OK	11-12-2024	08:33:09.123	124.702	37.582	OK
11-12-2024	08:33:09.294	124.873	7.496	7.496	27.499	939	0	1.0918	OK	11-12-2024	08:33:09.294	124.873	37.582	OK
11-12-2024	08:33:09.552	125.131	7.496	7.496	27.503	939	0	1.0915	OK	11-12-2024	08:33:09.552	125.131	37.581	OK
11-12-2024	08:33:09.724	125.303	7.497	7.497	27.507	939	0	1.0912	OK	11-12-2024	08:33:09.724	125.303	37.581	OK
11-12-2024	08:33:09.824	125.403	7.496	7.496	27.500	939	0	1.0917	OK	11-12-2024	08:33:09.824	125.403	37.581	OK
11-12-2024	08:33:09.924	125.503	7.495	7.495	27.497	939	0	1.0919	OK	11-12-2024	08:33:09.924	125.503	37.580	OK
11-12-2024	08:33:10.024	125.603	7.495	7.495	27.496	939	0	1.0920	OK	11-12-2024	08:33:10.024	125.603	37.580	OK
11-12-2024	08:33:10.124	125.703	7.495	7.495	27.497	939	0	1.0919	OK	11-12-2024	08:33:10.124	125.703	37.580	OK
11-12-2024	08:33:10.296	125.875	7.496	7.496	27.501	939	0	1.0917	OK	11-12-2024	08:33:10.296	125.875	37.580	OK
11-12-2024	08:33:10.551	126.130	7.497	7.497	27.507	939	0	1.0913	OK	11-12-2024	08:33:10.551	126.130	37.578	OK
11-12-2024	08:33:10.725	126.304	7.497	7.497	27.508	939	0	1.0912	OK	11-12-2024	08:33:10.725	126.304	37.577	OK
11-12-2024	08:33:10.826	126.405	7.496	7.496	27.504	939	0	1.0915	OK	11-12-2024	08:33:10.826	126.405	37.577	OK
11-12-2024	08:33:10.927	126.506	7.495	7.495	27.496	939	0	1.0920	OK	11-12-2024	08:33:10.927	126.506	37.575	OK
11-12-2024	08:33:11.029	126.608	7.496	7.496	27.503	939	0	1.0915	OK	11-12-2024	08:33:11.029	126.608	37.575	OK
11-12-2024	08:33:11.129	126.707	7.496	7.496	27.500	939	0	1.0918	OK	11-12-2024	08:33:11.129	126.707	37.576	OK
11-12-2024	08:33:11.300	126.879	7.496	7.496	27.500	939	0	1.0918	OK	11-12-2024	08:33:11.300	126.879	37.576	OK
11-12-2024	08:33:11.576	127.155	7.496	7.496	27.504	939	0	1.0915	OK	11-12-2024	08:33:11.576	127.155	37.571	OK
11-12-2024	08:33:11.728	127.307	7.497	7.497	27.506	939	0	1.0913	OK	11-12-2024	08:33:11.728	127.307	37.571	OK
11-12-2024	08:33:11.828	127.407	7.496	7.496	27.504	939	0	1.0915	OK	11-12-2024	08:33:11.828	127.407	37.571	OK
11-12-2024	08:33:11.928	127.507	7.496	7.496	27.499	939	0	1.0918	OK	11-12-2024	08:33:11.928	127.507	37.571	OK
11-12-2024	08:33:12.028	127.607	7.496	7.496	27.502	939	0	1.0916	OK	11-12-2024	08:33:12.028	127.607	37.570	OK
11-12-2024	08:33:12.128	127.707	7.495	7.495	27.497	939	0	1.0920	OK	11-12-2024	08:33:12.128	127.707	37.570	OK
11-12-2024	08:33:12.301	127.880	7.496	7.496	27.503	939	0	1.0915	OK	11-12-2024	08:33:12.301	127.880	37.569	OK
11-12-2024	08:33:12.556	128.135	7.497	7.497	27.507	939	0	1.0913	OK	11-12-2024	08:33:12.556	128.135	37.568	OK
11-12-2024	08:33:12.729	128.308	7.496	7.496	27.504	939	0	1.0915	OK	11-12-2024	08:33:12.729	128.308	37.568	OK
11-12-2024	08:33:12.829	128.408	7.496	7.496	27.504	939	0	1.0915	OK	11-12-2024	08:33:12.829	128.408	37.567	OK
11-12-2024	08:33:12.937	128.516	7.496	7.496	27.502	939	0	1.0916	OK	11-12-2024	08:33:12.937	128.516	37.567	OK
11-12-2024	08:33:13.037	128.616	7.495	7.495	27.497	939	0	1.0920	OK	11-12-2024	08:33:13.037	128.616	37.567	OK
11-12-2024	08:33:13.129	128.707	7.495	7.495	27.495	939	0	1.0921	OK	11-12-2024	08:33:13.129	128.707	37.567	OK
11-12-2024	08:33:13.299	128.878	7.496	7.496	27.501	939	0	1.0917	OK	11-12-2024	08:33:13.299	128.878	37.567	OK
11-12-2024	08:33:13.558	129.137	7.497	7.497	27.505	939	0	1.0914	OK	11-12-2024	08:33:13.558	129.137	37.567	OK
11-12-2024	08:33:13.729	129.308	7.496	7.496	27.504	939	0	1.0915	OK	11-12-2024	08:33:13.729	129.308	37.567	OK
11-12-2024	08:33:13.829	129.408	7.496	7.496	27.498	939	0	1.0919	OK	11-12-2024	08:33:13.829	129.408	37.568	OK
11-12-2024	08:33:13.929	129.508	7.496	7.496	27.501	939	0	1.0917	OK	11-12-2024	08:33:13.929	129.508	37.568	OK
11-12-2024	08:33:14.029	129.608	7.496	7.496	27.498	939	0	1.0919	OK	11-12-2024	08:33:14.029	129.608	37.569	OK
11-12-2024	08:33:14.130	129.709	7.495	7.495	27.497	939	0	1.0920	OK	11-12-2024	08:33:14.130	129.709	37.569	OK
11-12-2024	08:33:14.299	129.878	7.496	7.496	27.503	938	0	1.0915	OK	11-12-2024	08:33:14.299	129.878	37.568	OK
11-12-2024	08:33:14.552	130.131	7.497	7.497	27.506	939	0	1.0913	OK	11-12-2024	08:33:14.552	130.131	37.568	OK
11-12-2024	08:33:14.731	130.310	7.497	7.497	27.504	939	0	1.0914	OK	11-12-2024	08:33:14.731	130.310	37.570	OK
11-12-2024	08:33:14.829	130.408	7.496	7.496	27.498	939	0	1.0918	OK	11-12-2024	08:33:14.829	130.408	37.571	OK
11-12-2024	08:33:14.930	130.509	7.495	7.495	27.497	939	0	1.0919	OK	11-12-2024	08:33:14.930	130.509	37.571	OK
11-12-2024	08:33:15.031	130.610	7.496	7.496	27.498	939	0	1.0918	OK	11-12-2024	08:33:15.031	130.610	37.572	OK
11-12-2024	08:33:15.133	130.712	7.495	7.495	27.494	939	0	1.0921	OK	11-12-2024	08:33:15.133	130.712	37.572	OK
11-12-2024	08:33:15.306	130.885	7.496	7.496	27.499	939	0	1.0918	OK	11-12-2024	08:33:15.306	130.885	37.573	OK
11-12-2024	08:33:15.566	131.145	7.496	7.496	27.501	939	0	1.0916	OK	11-12-2024	08:33:15.566	131.145	37.574	OK
11-12-2024	08:33:15.735	131.314	7.496	7.496	27.504	939	0	1.0914	OK	11-12-2024	08:33:15.735	131.314	37.574	OK
11-12-2024	08:33:15.835	131.414	7.496	7.496	27.498	939	0	1.0918	OK	11-12-2024	08:33:15.835	131.414	37.574	OK
11-12-2024	08:33:15.935	131.514	7.495	7.495	27.497	938	0	1.0919	OK	11-12-2024	08:33:15.935	131.514	37.574	OK
11-12-2024	08:33:16.036	131.614	7.495	7.495	27.496	939	0	1.0920	OK	11-12-2024	08:33:16.036	131.614	37.575	OK
11-12-2024	08:33:16.135	131.714	7.496	7.496	27.498	939	0	1.0918	OK	11-12-2024	08:33:16.135	131.714	37.575	OK
11-12-2024	08:33:16.304	131.883	7.496	7.496	27.502	939	0	1.0916	OK	11-12-2024	08:33:16.304	131.883	37.575	OK
11-12-2024	08:33:16.575	132.154	7.496	7.496	27.503	939	0	1.0915	OK	11-12-2024	08:33:16.575	132.154	37.575	OK
11-12-2024	08:33:16.735	132.314	7.496	7.496	27.503	938	0	1.0915	OK	11-12-2024	08:33:16.735	132.314	37.575	OK
11-12-2024	08:33:16.836	132.415	7.496	7.496	27.500	938	0	1.0917	OK	11-12-2024	08:33:16.836	132.415	37.575	OK
11-12-2024	08:33:16.935	132.514	7.496	7.496	27.500	938	0	1.0917	OK	11-12-2024	08:33:16.935	132.514	37.575	OK
11-12-2024	08:33:17.036	132.615	7.496	7.496	27.500	939	0	1.0917	OK	11-12-2024	08:33:17.036	132.615	37.576	OK
11-12-2024	08:33:17.137	132.716	7.495	7.495	27.495	939	0	1.0921	OK	11-12-2024	08:33:17.137	132.716	37.576	OK
11-12-2024	08:33:17.305	132.884	7.496	7.496	27.498	939	0	1.0918	OK	11-12-2024	08:33:17.305	132.884	37.576	OK
11-12-2024	08:33:17.560	133.139	7.497	7.497	27.506	939	0	1.0913	OK	11-12-2024	08:33:17.560	133.139	37.577	OK
11-12-2024	08:33:17.739	133.318	7.497	7.497	27.509	939	0	1.0911	OK	11-12-2024	08:33:17.739	133.318	37.578	OK
11-12-2024	08:33:17.838	133.417	7.496	7.496	27.502	939	0	1.0916	OK	11-12-2024	08:33:17.838	133.417	37.579	OK
11-12-2024	08:33:17.939	133.518	7.496	7.496	27.502	939	0	1.0916	OK	11-12-2024	08:33:17.939	133.518	37.579	OK
11-12-2024	08:33:18.047	133.626	7.496	7.496	27.499	938	0	1.0918	OK	11-12-2024	08:33:18.047	133.626	37.579	OK
11-12-2024	08:33:18.140	133.719	7.495	7.495	27.495	939	0	1.0921	OK	11-12-2024	08:33:18.140	133.719	37.579	OK
11-12-2024	08:33:18.310	133.889	7.497	7.497	27.505	939	0	1.0914	OK	11-12-2024	08:33:18.310	133.889	37.578	OK
11-12-2024	08:33:18.596	134.175	7.496	7.496	27.503	939	0	1.0915	OK	11-12-2024	08:33:18.596	134.175	37.578	OK
11-12-2024	08:33:18.741	134.320	7.497	7.497	27.505	939	0	1.0914	OK	11-12-2024	08:33:18.741	134.320	37.577	OK
11-12-2024	08:33:18.841	134.420	7.495	7.495	27.495	939	0	1.0921	OK	11-12-2024	08:33:18.841	134.420	37.578	OK
11-12-2024	08:33:18.941	134.520	7.496	7.496	27.500	939	0	1.0917	OK	11-12-2024	08:33:18.941	134.520	37.578	OK
11-12-2024	08:33:19.045	134.624	7.495	7.495	27.498	939	0	1.0918	OK	11-12-2024	08:33:19.045	134.624	37.579	OK
11-12-2024	08:33:19.143	134.722	7.496	7.496	27.500	939	0	1.0917	OK	11-12-2024	08:33:19.143	134.722	37.579	OK
11-12-2024	08:33:19.314	134.893	7.496	7.496	27.503	939	0	1.0915	OK	11-12-2024	08:33:19.314	134.893	37.579	OK
11-12-2024	08:33:19.569	135.148	7.497	7.497	27.508	939	0	1.0912	OK	11-12-2024	08:33:19.569	135.148	37.579	OK
11-12-2024	08:33:19.744	135.323	7.496	7.496	27.504	939	0	1.0914	OK	11-12-2024	08:33:19.744	135.323	37.580	OK
11-12-2024	08:33:19.844	135.423	7.496	7.496	27.502	939	0	1.0916	OK	11-12-2024	08:33:19.844	135.423	37.580	OK
11-12-2024	08:33:19.946	135.525	7.496	7.496	27.499	939	0	1.0918	OK	11-12-2024	08:33:19.946	135.525	37.580	OK
11-12-2024	08:33:20.047	135.626	7.495	7.495	27.496	939	0	1.0920	OK	11-12-2024	08:33:20.047	135.626	37.580	OK
11-12-2024	08:33:20.147	135.726	7.496	7.496	27.499	939	0	1.0918	OK	11-12-2024	08:33:20.147	135.726	37.580	OK
11-12-2024	08:33:20.319	135.898	7.496	7.496	27.501	939	0	1.0916	OK	11-12-2024	08:33:20.319	135.898	37.581	OK
11-12-2024	08:33:20.575	136.154	7.497	7.497	27.506	939	0	1.0913	OK	11-12-2024	08:33:20.575	136.154	37.581	OK
11-12-2024	08:33:20.747	136.326	7.497	7.497	27.506	939	0	1.0913	OK	11-12-2024	08:33:20.747	136.326	37.581	OK
11-12-2024	08:33:20.847	136.426	7.495	7.495	27.498	939	0	1.0918	OK	11-12-2024	08:33:20.847	136.426	37.581	OK
11-12-2024	08:33:20.947	136.526	7.496	7.496	27.501	939	0	1.0916	OK	11-12-2024	08:33:20.947	136.526	37.580	OK
11-12-2024	08:33:21.048	136.627	7.495	7.495	27.497	939	0	1.0919	OK	11-12-2024	08:33:21.048	136.627	37.580	OK
11-12-2024	08:33:21.149	136.727	7.495	7.495	27.496	938	0	1.0920	OK	11-12-2024	08:33:21.149	136.727	37.579	OK
11-12-2024	08:33:21.319	136.898	7.496	7.496	27.500	939	0	1.0917	OK	11-12-2024	08:33:21.319	136.898	37.579	OK
11-12-2024	08:33:21.575	137.154	7.496	7.496	27.503	939	0	1.0914	OK	11-12-2024	08:33:21.575	137.154	37.580	OK
11-12-2024	08:33:21.749	137.327	7.497	7.497	27.505	939	0	1.0913	OK	11-12-2024	08:33:21.749	137.327	37.580	OK
11-12-2024	08:33:21.848	137.427	7.496	7.496	27.500	939	0	1.0917	OK	11-12-2024	08:33:21.848	137.427	37.580	OK
11-12-2024	08:33:21.948	137.527	7.496	7.496	27.499	939	0	1.0917	OK	11-12-2024	08:33:21.948	137.527	37.580	OK
11-12-2024	08:33:22.048	137.627	7.495	7.495	27.493	939	0	1.0921	OK	11-12-2024	08:33:22.048	137.627	37.580	OK
11-12-2024	08:33:22.148	137.727	7.496	7.496	27.498	939	0	1.0918	OK	11-12-2024	08:33:22.148	137.727	37.580	OK
11-12-2024	08:33:22.318	137.897	7.496	7.496	27.502	938	0	1.0915	OK	11-12-2024	08:33:22.318	137.897	37.579	OK
11-12-2024	08:33:22.590	138.169	7.497	7.497	27.507	939	0	1.0912	OK	11-12-2024	08:33:22.590	138.169	37.578	OK
11-12-2024	08:33:22.748	138.327	7.496	7.496	27.500	939	0	1.0917	OK	11-12-2024	08:33:22.748	138.327	37.578	OK
11-12-2024	08:33:22.847	138.426	7.496	7.496	27.499	939	0	1.0918	OK	11-12-2024	08:33:22.847	138.426	37.578	OK
11-12-2024	08:33:22.948	138.527	7.496	7.496	27.500	939	0	1.0917	OK	11-12-2024	08:33:22.948	138.527	37.578	OK
11-12-2024	08:33:23.048	138.627	7.496	7.496	27.499	939	0	1.0918	OK	11-12-2024	08:33:23.048	138.627	37.578	OK
11-12-2024	08:33:23.148	138.727	7.495	7.495	27.495	939	0	1.0921	OK	11-12-2024	08:33:23.148	138.727	37.578	OK
11-12-2024	08:33:23.319	138.898	7.495	7.495	27.496	939	0	1.0920	OK	11-12-2024	08:33:23.319	138.898	37.578	OK
11-12-2024	08:33:23.577	139.156	7.496	7.496	27.503	939	0	1.0914	OK	11-12-2024	08:33:23.577	139.156	37.578	OK
11-12-2024	08:33:23.748	139.327	7.496	7.496	27.501	939	0	1.0916	OK	11-12-2024	08:33:23.748	139.327	37.578	OK
11-12-2024	08:33:23.848	139.427	7.496	7.496	27.499	939	0	1.0917	OK	11-12-2024	08:33:23.848	139.427	37.578	OK
11-12-2024	08:33:23.949	139.528	7.496	7.496	27.498	939	0	1.0918	OK	11-12-2024	08:33:23.949	139.528	37.577	OK
11-12-2024	08:33:24.051	139.630	7.495	7.495	27.497	939	0	1.0919	OK	11-12-2024	08:33:24.051	139.630	37.577	OK
11-12-2024	08:33:24.150	139.729	7.495	7.495	27.496	939	0	1.0919	OK	11-12-2024	08:33:24.150	139.729	37.578	OK
11-12-2024	08:33:24.322	139.901	7.496	7.496	27.502	939	0	1.0915	OK	11-12-2024	08:33:24.322	139.901	37.578	OK
11-12-2024	08:33:24.578	140.157	7.497	7.497	27.507	939	0	1.0912	OK	11-12-2024	08:33:24.578	140.157	37.578	OK
11-12-2024	08:33:24.752	140.331	7.497	7.497	27.509	939	0	1.0910	OK	11-12-2024	08:33:24.752	140.331	37.578	OK
11-12-2024	08:33:24.853	140.432	7.496	7.496	27.501	939	0	1.0916	OK	11-12-2024	08:33:24.853	140.432	37.578	OK
11-12-2024	08:33:24.953	140.532	7.496	7.496	27.498	939	0	1.0918	OK	11-12-2024	08:33:24.953	140.532	37.578	OK
11-12-2024	08:33:25.053	140.632	7.495	7.495	27.493	939	0	1.0921	OK	11-12-2024	08:33:25.053	140.632	37.578	OK
11-12-2024	08:33:25.236	140.815	7.496	7.496	27.504	939	0	1.0914	OK	11-12-2024	08:33:25.236	140.815	37.579	OK
11-12-2024	08:33:25.493	141.072	7.496	7.496	27.504	939	0	1.0914	OK	11-12-2024	08:33:25.493	141.072	37.579	OK
11-12-2024	08:33:25.653	141.232	7.496	7.496	27.505	939	0	1.0914	OK	11-12-2024	08:33:25.653	141.232	37.581	OK
11-12-2024	08:33:25.754	141.333	7.495	7.495	27.496	939	0	1.0920	OK	11-12-2024	08:33:25.754	141.333	37.581	OK
11-12-2024	08:33:25.954	141.533	7.496	7.496	27.502	939	0	1.0916	OK	11-12-2024	08:33:25.954	141.533	37.582	OK
11-12-2024	08:33:26.055	141.634	7.496	7.496	27.500	939	0	1.0917	OK	11-12-2024	08:33:26.055	141.634	37.582	OK
11-12-2024	08:33:26.239	141.818	7.496	7.496	27.503	939	0	1.0915	OK	11-12-2024	08:33:26.239	141.818	37.582	OK
11-12-2024	08:33:26.494	142.073	7.496	7.496	27.503	939	0	1.0915	OK	11-12-2024	08:33:26.494	142.073	37.581	OK
11-12-2024	08:33:26.655	142.234	7.496	7.496	27.502	939	0	1.0916	OK	11-12-2024	08:33:26.655	142.234	37.582	OK
11-12-2024	08:33:26.756	142.335	7.496	7.496	27.502	939	0	1.0916	OK	11-12-2024	08:33:26.756	142.335	37.582	OK
11-12-2024	08:33:26.856	142.435	7.495	7.495	27.495	939	0	1.0921	OK	11-12-2024	08:33:26.856	142.435	37.582	OK
11-12-2024	08:33:26.957	142.536	7.495	7.495	27.495	939	0	1.0921	OK	11-12-2024	08:33:26.957	142.536	37.582	OK
11-12-2024	08:33:27.058	142.637	7.495	7.495	27.494	939	0	1.0921	OK	11-12-2024	08:33:27.058	142.637	37.582	OK
11-12-2024	08:33:27.238	142.817	7.496	7.496	27.502	939	0	1.0916	OK	11-12-2024	08:33:27.238	142.817	37.583	OK
11-12-2024	08:33:27.508	143.087	7.497	7.497	27.506	939	0	1.0912	OK	11-12-2024	08:33:27.508	143.087	37.584	OK
11-12-2024	08:33:27.659	143.238	7.496	7.496	27.504	939	0	1.0914	OK	11-12-2024	08:33:27.659	143.238	37.584	OK
11-12-2024	08:33:27.759	143.338	7.495	7.495	27.496	939	0	1.0919	OK	11-12-2024	08:33:27.759	143.338	37.583	OK
11-12-2024	08:33:27.860	143.439	7.496	7.496	27.500	939	0	1.0917	OK	11-12-2024	08:33:27.860	143.439	37.583	OK
11-12-2024	08:33:27.971	143.550	7.495	7.495	27.497	938	0	1.0919	OK	11-12-2024	08:33:27.971	143.550	37.583	OK
11-12-2024	08:33:28.063	143.642	7.495	7.495	27.495	939	0	1.0920	OK	11-12-2024	08:33:28.063	143.642	37.583	OK
11-12-2024	08:33:28.236	143.815	7.496	7.496	27.502	939	0	1.0915	OK	11-12-2024	08:33:28.236	143.815	37.583	OK
11-12-2024	08:33:28.492	144.071	7.497	7.497	27.505	939	0	1.0913	OK	11-12-2024	08:33:28.492	144.071	37.582	OK
11-12-2024	08:33:28.662	144.241	7.497	7.497	27.506	939	0	1.0912	OK	11-12-2024	08:33:28.662	144.241	37.582	OK
11-12-2024	08:33:28.762	144.341	7.496	7.496	27.500	939	0	1.0917	OK	11-12-2024	08:33:28.762	144.341	37.582	OK
11-12-2024	08:33:28.864	144.443	7.496	7.496	27.500	939	0	1.0917	OK	11-12-2024	08:33:28.864	144.443	37.581	OK
11-12-2024	08:33:28.971	144.550	7.495	7.495	27.495	938	0	1.0920	OK	11-12-2024	08:33:28.971	144.550	37.581	OK
11-12-2024	08:33:29.062	144.641	7.495	7.495	27.496	939	0	1.0919	OK	11-12-2024	08:33:29.062	144.641	37.581	OK
11-12-2024	08:33:29.236	144.815	7.496	7.496	27.500	938	0	1.0917	OK	11-12-2024	08:33:29.236	144.815	37.581	OK
11-12-2024	08:33:29.491	145.070	7.497	7.497	27.507	939	0	1.0912	OK	11-12-2024	08:33:29.491	145.070	37.581	OK
11-12-2024	08:33:29.664	145.243	7.496	7.496	27.503	939	0	1.0915	OK	11-12-2024	08:33:29.664	145.243	37.581	OK
11-12-2024	08:33:29.765	145.343	7.496	7.496	27.504	939	0	1.0914	OK	11-12-2024	08:33:29.765	145.343	37.581	OK
11-12-2024	08:33:29.865	145.444	7.495	7.495	27.498	939	0	1.0918	OK	11-12-2024	08:33:29.865	145.444	37.581	OK
11-12-2024	08:33:29.973	145.552	7.495	7.495	27.494	939	0	1.0921	OK	11-12-2024	08:33:29.973	145.552	37.581	OK
11-12-2024	08:33:30.065	145.644	7.495	7.495	27.492	938	0	1.0923	OK	11-12-2024	08:33:30.065	145.644	37.581	OK
11-12-2024	08:33:30.239	145.818	7.495	7.495	27.498	939	0	1.0918	OK	11-12-2024	08:33:30.239	145.818	37.581	OK
11-12-2024	08:33:30.494	146.073	7.496	7.496	27.503	939	0	1.0914	OK	11-12-2024	08:33:30.494	146.073	37.580	OK
11-12-2024	08:33:30.665	146.244	7.497	7.497	27.505	939	0	1.0913	OK	11-12-2024	08:33:30.665	146.244	37.580	OK
11-12-2024	08:33:30.767	146.346	7.495	7.495	27.495	939	0	1.0920	OK	11-12-2024	08:33:30.767	146.346	37.580	OK
11-12-2024	08:33:30.972	146.551	7.496	7.496	27.500	939	0	1.0917	OK	11-12-2024	08:33:30.972	146.551	37.580	OK
11-12-2024	08:33:31.067	146.646	7.495	7.495	27.495	939	0	1.0920	OK	11-12-2024	08:33:31.067	146.646	37.580	OK
11-12-2024	08:33:31.239	146.818	7.496	7.496	27.503	939	0	1.0914	OK	11-12-2024	08:33:31.239	146.818	37.580	OK
11-12-2024	08:33:31.499	147.078	7.497	7.497	27.505	939	0	1.0913	OK	11-12-2024	08:33:31.499	147.078	37.580	OK
11-12-2024	08:33:31.667	147.246	7.496	7.496	27.500	939	0	1.0917	OK	11-12-2024	08:33:31.667	147.246	37.580	OK
11-12-2024	08:33:31.767	147.346	7.496	7.496	27.500	939	0	1.0917	OK	11-12-2024	08:33:31.767	147.346	37.580	OK
11-12-2024	08:33:31.868	147.447	7.495	7.495	27.493	939	0	1.0922	OK	11-12-2024	08:33:31.868	147.447	37.581	OK
11-12-2024	08:33:31.973	147.552	7.495	7.495	27.497	938	0	1.0919	OK	11-12-2024	08:33:31.973	147.552	37.581	OK
11-12-2024	08:33:32.068	147.647	7.495	7.495	27.492	939	0	1.0923	OK	11-12-2024	08:33:32.068	147.647	37.581	OK
11-12-2024	08:33:32.240	147.819	7.495	7.495	27.494	939	0	1.0921	OK	11-12-2024	08:33:32.240	147.819	37.581	OK
11-12-2024	08:33:32.530	148.109	7.496	7.496	27.504	939	0	1.0914	OK	11-12-2024	08:33:32.530	148.109	37.580	OK
11-12-2024	08:33:32.668	148.247	7.495	7.495	27.496	939	0	1.0919	OK	11-12-2024	08:33:32.668	148.247	37.579	OK
11-12-2024	08:33:32.767	148.346	7.496	7.496	27.498	938	0	1.0918	OK	11-12-2024	08:33:32.767	148.346	37.579	OK
11-12-2024	08:33:32.868	148.447	7.496	7.496	27.500	938	0	1.0917	OK	11-12-2024	08:33:32.868	148.447	37.579	OK
11-12-2024	08:33:32.977	148.556	7.495	7.495	27.496	939	0	1.0919	OK	11-12-2024	08:33:32.977	148.556	37.579	OK
11-12-2024	08:33:33.068	148.647	7.494	7.494	27.490	939	0	1.0923	OK	11-12-2024	08:33:33.068	148.647	37.579	OK
11-12-2024	08:33:33.245	148.823	7.496	7.496	27.498	939	0	1.0918	OK	11-12-2024	08:33:33.245	148.823	37.578	OK
11-12-2024	08:33:33.516	149.095	7.496	7.496	27.503	939	0	1.0914	OK	11-12-2024	08:33:33.516	149.095	37.577	OK
11-12-2024	08:33:33.669	149.248	7.496	7.496	27.503	939	0	1.0915	OK	11-12-2024	08:33:33.669	149.248	37.578	OK
11-12-2024	08:33:33.769	149.348	7.496	7.496	27.498	939	0	1.0918	OK	11-12-2024	08:33:33.769	149.348	37.578	OK
11-12-2024	08:33:33.869	149.448	7.495	7.495	27.497	939	0	1.0919	OK	11-12-2024	08:33:33.869	149.448	37.578	OK
11-12-2024	08:33:33.976	149.555	7.495	7.495	27.495	938	0	1.0921	OK	11-12-2024	08:33:33.976	149.555	37.578	OK
11-12-2024	08:33:34.069	149.648	7.495	7.495	27.495	938	0	1.0921	OK	11-12-2024	08:33:34.069	149.648	37.578	OK
11-12-2024	08:33:34.238	149.817	7.496	7.496	27.498	938	0	1.0918	OK	11-12-2024	08:33:34.238	149.817	37.578	OK
11-12-2024	08:33:34.495	150.074	7.496	7.496	27.500	939	0	1.0917	OK	11-12-2024	08:33:34.495	150.074	37.578	OK
11-12-2024	08:33:34.670	150.249	7.496	7.496	27.503	939	0	1.0914	OK	11-12-2024	08:33:34.670	150.249	37.578	OK
11-12-2024	08:33:34.769	150.348	7.496	7.496	27.501	939	0	1.0916	OK	11-12-2024	08:33:34.769	150.348	37.578	OK
11-12-2024	08:33:34.870	150.449	7.495	7.495	27.495	938	0	1.0920	OK	11-12-2024	08:33:34.870	150.449	37.579	OK
11-12-2024	08:33:34.975	150.554	7.495	7.495	27.495	939	0	1.0920	OK	11-12-2024	08:33:34.975	150.554	37.579	OK
11-12-2024	08:33:35.070	150.649	7.495	7.495	27.496	938	0	1.0919	OK	11-12-2024	08:33:35.070	150.649	37.578	OK
11-12-2024	08:33:35.240	150.819	7.495	7.495	27.497	939	0	1.0919	OK	11-12-2024	08:33:35.240	150.819	37.578	OK
11-12-2024	08:33:35.513	151.092	7.496	7.496	27.502	939	0	1.0915	OK	11-12-2024	08:33:35.513	151.092	37.579	OK
11-12-2024	08:33:35.670	151.249	7.496	7.496	27.498	938	0	1.0918	OK	11-12-2024	08:33:35.670	151.249	37.580	OK
11-12-2024	08:33:35.769	151.348	7.496	7.496	27.501	939	0	1.0916	OK	11-12-2024	08:33:35.769	151.348	37.580	OK
11-12-2024	08:33:35.869	151.448	7.495	7.495	27.496	938	0	1.0919	OK	11-12-2024	08:33:35.869	151.448	37.580	OK
11-12-2024	08:33:35.976	151.555	7.495	7.495	27.495	938	0	1.0920	OK	11-12-2024	08:33:35.976	151.555	37.580	OK
11-12-2024	08:33:36.071	151.650	7.495	7.495	27.497	939	0	1.0919	OK	11-12-2024	08:33:36.071	151.650	37.580	OK
11-12-2024	08:33:36.241	151.820	7.496	7.496	27.500	938	0	1.0917	OK	11-12-2024	08:33:36.241	151.820	37.581	OK
11-12-2024	08:33:36.495	152.074	7.496	7.496	27.500	939	0	1.0917	OK	11-12-2024	08:33:36.495	152.074	37.582	OK
11-12-2024	08:33:36.671	152.250	7.496	7.496	27.502	938	0	1.0916	OK	11-12-2024	08:33:36.671	152.250	37.582	OK
11-12-2024	08:33:36.771	152.350	7.496	7.496	27.500	939	0	1.0917	OK	11-12-2024	08:33:36.771	152.350	37.583	OK
11-12-2024	08:33:36.872	152.451	7.495	7.495	27.497	939	0	1.0919	OK	11-12-2024	08:33:36.872	152.451	37.583	OK
11-12-2024	08:33:36.977	152.556	7.496	7.496	27.500	939	0	1.0917	OK	11-12-2024	08:33:36.977	152.556	37.582	OK
11-12-2024	08:33:37.071	152.650	7.495	7.495	27.496	938	0	1.0920	OK	11-12-2024	08:33:37.071	152.650	37.582	OK
11-12-2024	08:33:37.242	152.821	7.495	7.495	27.496	939	0	1.0920	OK	11-12-2024	08:33:37.242	152.821	37.582	OK
11-12-2024	08:33:37.498	153.077	7.496	7.496	27.499	939	0	1.0918	OK	11-12-2024	08:33:37.498	153.077	37.582	OK
11-12-2024	08:33:37.674	153.253	7.496	7.496	27.499	939	0	1.0917	OK	11-12-2024	08:33:37.674	153.253	37.582	OK
11-12-2024	08:33:37.775	153.354	7.496	7.496	27.501	939	0	1.0916	OK	11-12-2024	08:33:37.775	153.354	37.582	OK
11-12-2024	08:33:37.875	153.454	7.495	7.495	27.497	939	0	1.0919	OK	11-12-2024	08:33:37.875	153.454	37.582	OK
11-12-2024	08:33:37.978	153.557	7.495	7.495	27.497	938	0	1.0919	OK	11-12-2024	08:33:37.978	153.557	37.581	OK
11-12-2024	08:33:38.075	153.654	7.496	7.496	27.498	938	0	1.0918	OK	11-12-2024	08:33:38.075	153.654	37.581	OK
11-12-2024	08:33:38.245	153.823	7.496	7.496	27.499	939	0	1.0917	OK	11-12-2024	08:33:38.245	153.823	37.581	OK
11-12-2024	08:33:38.516	154.095	7.497	7.497	27.506	939	0	1.0912	OK	11-12-2024	08:33:38.516	154.095	37.580	OK
11-12-2024	08:33:38.675	154.254	7.496	7.496	27.502	939	0	1.0915	OK	11-12-2024	08:33:38.675	154.254	37.580	OK
11-12-2024	08:33:38.776	154.355	7.496	7.496	27.499	939	0	1.0917	OK	11-12-2024	08:33:38.776	154.355	37.580	OK
11-12-2024	08:33:38.876	154.455	7.496	7.496	27.499	939	0	1.0917	OK	11-12-2024	08:33:38.876	154.455	37.580	OK
11-12-2024	08:33:38.980	154.559	7.495	7.495	27.496	938	0	1.0919	OK	11-12-2024	08:33:38.980	154.559	37.579	OK
11-12-2024	08:33:39.076	154.655	7.495	7.495	27.497	939	0	1.0919	OK	11-12-2024	08:33:39.076	154.655	37.579	OK
11-12-2024	08:33:39.247	154.826	7.496	7.496	27.498	938	0	1.0918	OK	11-12-2024	08:33:39.247	154.826	37.579	OK
11-12-2024	08:33:39.505	155.084	7.496	7.496	27.502	939	0	1.0915	OK	11-12-2024	08:33:39.505	155.084	37.579	OK
11-12-2024	08:33:39.676	155.255	7.497	7.497	27.505	939	0	1.0913	OK	11-12-2024	08:33:39.676	155.255	37.578	OK
11-12-2024	08:33:39.778	155.357	7.496	7.496	27.503	938	0	1.0914	OK	11-12-2024	08:33:39.778	155.357	37.578	OK
11-12-2024	08:33:39.877	155.456	7.496	7.496	27.499	939	0	1.0917	OK	11-12-2024	08:33:39.877	155.456	37.578	OK
11-12-2024	08:33:39.980	155.559	7.495	7.495	27.496	938	0	1.0919	OK	11-12-2024	08:33:39.980	155.559	37.577	OK
11-12-2024	08:33:40.077	155.656	7.496	7.496	27.498	938	0	1.0918	OK	11-12-2024	08:33:40.077	155.656	37.577	OK
11-12-2024	08:33:40.254	155.833	7.496	7.496	27.502	938	0	1.0915	OK	11-12-2024	08:33:40.254	155.833	37.578	OK
11-12-2024	08:33:40.512	156.090	7.497	7.497	27.505	939	0	1.0913	OK	11-12-2024	08:33:40.512	156.090	37.577	OK
11-12-2024	08:33:40.678	156.257	7.497	7.497	27.505	939	0	1.0913	OK	11-12-2024	08:33:40.678	156.257	37.577	OK
11-12-2024	08:33:40.777	156.356	7.496	7.496	27.500	938	0	1.0916	OK	11-12-2024	08:33:40.777	156.356	37.576	OK
11-12-2024	08:33:40.878	156.457	7.496	7.496	27.498	939	0	1.0917	OK	11-12-2024	08:33:40.878	156.457	37.576	OK
11-12-2024	08:33:40.978	156.557	7.496	7.496	27.497	939	0	1.0918	OK	11-12-2024	08:33:40.978	156.557	37.576	OK
11-12-2024	08:33:41.079	156.658	7.495	7.495	27.496	938	0	1.0919	OK	11-12-2024	08:33:41.079	156.658	37.576	OK
11-12-2024	08:33:41.249	156.828	7.496	7.496	27.500	939	0	1.0916	OK	11-12-2024	08:33:41.249	156.828	37.576	OK
11-12-2024	08:33:41.507	157.086	7.496	7.496	27.503	939	0	1.0914	OK	11-12-2024	08:33:41.507	157.086	37.576	OK
11-12-2024	08:33:41.679	157.258	7.496	7.496	27.499	939	0	1.0917	OK	11-12-2024	08:33:41.679	157.258	37.575	OK
11-12-2024	08:33:41.780	157.359	7.496	7.496	27.499	939	0	1.0917	OK	11-12-2024	08:33:41.780	157.359	37.575	OK
11-12-2024	08:33:41.880	157.459	7.496	7.496	27.498	939	0	1.0918	OK	11-12-2024	08:33:41.880	157.459	37.575	OK
11-12-2024	08:33:41.980	157.559	7.495	7.495	27.493	938	0	1.0921	OK	11-12-2024	08:33:41.980	157.559	37.575	OK
11-12-2024	08:33:42.080	157.659	7.496	7.496	27.497	938	0	1.0919	OK	11-12-2024	08:33:42.080	157.659	37.575	OK
11-12-2024	08:33:42.251	157.830	7.496	7.496	27.499	938	0	1.0917	OK	11-12-2024	08:33:42.251	157.830	37.576	OK
11-12-2024	08:33:42.507	158.086	7.497	7.497	27.504	939	0	1.0914	OK	11-12-2024	08:33:42.507	158.086	37.576	OK
11-12-2024	08:33:42.680	158.259	7.496	7.496	27.498	939	0	1.0918	OK	11-12-2024	08:33:42.680	158.259	37.575	OK
11-12-2024	08:33:42.780	158.359	7.496	7.496	27.501	939	0	1.0916	OK	11-12-2024	08:33:42.780	158.359	37.576	OK
11-12-2024	08:33:42.880	158.458	7.495	7.495	27.495	939	0	1.0920	OK	11-12-2024	08:33:42.880	158.458	37.576	OK
11-12-2024	08:33:42.979	158.558	7.495	7.495	27.497	939	0	1.0919	OK	11-12-2024	08:33:42.979	158.558	37.576	OK
11-12-2024	08:33:43.240	158.819	7.496	7.496	27.502	939	0	1.0915	OK	11-12-2024	08:33:43.240	158.819	37.576	OK
11-12-2024	08:33:43.497	159.076	7.497	7.497	27.506	939	0	1.0912	OK	11-12-2024	08:33:43.497	159.076	37.576	OK
11-12-2024	08:33:43.681	159.260	7.497	7.497	27.504	939	0	1.0914	OK	11-12-2024	08:33:43.681	159.260	37.576	OK
11-12-2024	08:33:43.781	159.360	7.496	7.496	27.497	939	0	1.0918	OK	11-12-2024	08:33:43.781	159.360	37.577	OK
11-12-2024	08:33:43.881	159.460	7.496	7.496	27.500	939	0	1.0916	OK	11-12-2024	08:33:43.881	159.460	37.577	OK
11-12-2024	08:33:43.982	159.561	7.496	7.496	27.498	938	0	1.0917	OK	11-12-2024	08:33:43.982	159.561	37.577	OK
11-12-2024	08:33:44.082	159.661	7.496	7.496	27.501	938	0	1.0915	OK	11-12-2024	08:33:44.082	159.661	37.578	OK
11-12-2024	08:33:44.252	159.831	7.496	7.496	27.497	938	0	1.0918	OK	11-12-2024	08:33:44.252	159.831	37.578	OK
11-12-2024	08:33:44.507	160.086	7.496	7.496	27.503	939	0	1.0914	OK	11-12-2024	08:33:44.507	160.086	37.579	OK
11-12-2024	08:33:44.682	160.261	7.497	7.497	27.508	939	0	1.0911	OK	11-12-2024	08:33:44.682	160.261	37.579	OK
11-12-2024	08:33:44.784	160.363	7.496	7.496	27.503	938	0	1.0914	OK	11-12-2024	08:33:44.784	160.363	37.579	OK
11-12-2024	08:33:44.885	160.464	7.496	7.496	27.504	938	0	1.0914	OK	11-12-2024	08:33:44.885	160.464	37.580	OK
11-12-2024	08:33:44.986	160.564	7.495	7.495	27.497	938	0	1.0919	OK	11-12-2024	08:33:44.986	160.564	37.580	OK
11-12-2024	08:33:45.085	160.664	7.495	7.495	27.497	938	0	1.0919	OK	11-12-2024	08:33:45.085	160.664	37.580	OK
11-12-2024	08:33:45.256	160.835	7.496	7.496	27.501	939	0	1.0916	OK	11-12-2024	08:33:45.256	160.835	37.582	OK
11-12-2024	08:33:45.512	161.091	7.497	7.497	27.505	939	0	1.0913	OK	11-12-2024	08:33:45.512	161.091	37.581	OK
11-12-2024	08:33:45.687	161.266	7.497	7.497	27.505	939	0	1.0913	OK	11-12-2024	08:33:45.687	161.266	37.581	OK
11-12-2024	08:33:45.787	161.366	7.496	7.496	27.504	939	0	1.0914	OK	11-12-2024	08:33:45.787	161.366	37.581	OK
11-12-2024	08:33:45.887	161.466	7.495	7.495	27.497	939	0	1.0919	OK	11-12-2024	08:33:45.887	161.466	37.582	OK
11-12-2024	08:33:45.987	161.566	7.496	7.496	27.500	938	0	1.0917	OK	11-12-2024	08:33:45.987	161.566	37.582	OK
11-12-2024	08:33:46.088	161.667	7.496	7.496	27.498	938	0	1.0918	OK	11-12-2024	08:33:46.088	161.667	37.583	OK
11-12-2024	08:33:46.261	161.840	7.496	7.496	27.501	939	0	1.0916	OK	11-12-2024	08:33:46.261	161.840	37.582	OK
11-12-2024	08:33:46.517	162.096	7.497	7.497	27.505	939	0	1.0913	OK	11-12-2024	08:33:46.517	162.096	37.583	OK
11-12-2024	08:33:46.689	162.268	7.496	7.496	27.504	938	0	1.0914	OK	11-12-2024	08:33:46.689	162.268	37.583	OK
11-12-2024	08:33:46.788	162.367	7.496	7.496	27.501	938	0	1.0915	OK	11-12-2024	08:33:46.788	162.367	37.583	OK
11-12-2024	08:33:46.889	162.468	7.495	7.495	27.493	939	0	1.0921	OK	11-12-2024	08:33:46.889	162.468	37.582	OK
11-12-2024	08:33:46.989	162.568	7.495	7.495	27.497	939	0	1.0918	OK	11-12-2024	08:33:46.989	162.568	37.582	OK
11-12-2024	08:33:47.088	162.667	7.495	7.495	27.497	938	0	1.0918	OK	11-12-2024	08:33:47.088	162.667	37.582	OK
11-12-2024	08:33:47.260	162.839	7.496	7.496	27.500	939	0	1.0916	OK	11-12-2024	08:33:47.260	162.839	37.582	OK
11-12-2024	08:33:47.515	163.093	7.497	7.497	27.504	939	0	1.0913	OK	11-12-2024	08:33:47.515	163.093	37.583	OK
11-12-2024	08:33:47.691	163.270	7.496	7.496	27.503	939	0	1.0914	OK	11-12-2024	08:33:47.691	163.270	37.582	OK
11-12-2024	08:33:47.791	163.370	7.496	7.496	27.498	939	0	1.0917	OK	11-12-2024	08:33:47.791	163.370	37.582	OK
11-12-2024	08:33:47.892	163.471	7.495	7.495	27.494	939	0	1.0920	OK	11-12-2024	08:33:47.892	163.471	37.581	OK
11-12-2024	08:33:48.093	163.672	7.496	7.496	27.502	939	0	1.0915	OK	11-12-2024	08:33:48.093	163.672	37.582	OK
11-12-2024	08:33:48.267	163.846	7.496	7.496	27.498	939	0	1.0917	OK	11-12-2024	08:33:48.267	163.846	37.582	OK
11-12-2024	08:33:48.523	164.102	7.496	7.496	27.501	939	0	1.0915	OK	11-12-2024	08:33:48.523	164.102	37.580	OK
11-12-2024	08:33:48.694	164.273	7.497	7.497	27.505	939	0	1.0913	OK	11-12-2024	08:33:48.694	164.273	37.580	OK
11-12-2024	08:33:48.794	164.373	7.496	7.496	27.502	939	0	1.0915	OK	11-12-2024	08:33:48.794	164.373	37.580	OK
11-12-2024	08:33:48.894	164.472	7.496	7.496	27.499	939	0	1.0917	OK	11-12-2024	08:33:48.894	164.472	37.580	OK
11-12-2024	08:33:48.996	164.575	7.496	7.496	27.499	939	0	1.0917	OK	11-12-2024	08:33:48.996	164.575	37.580	OK
11-12-2024	08:33:49.094	164.672	7.495	7.495	27.493	939	0	1.0921	OK	11-12-2024	08:33:49.094	164.672	37.579	OK
11-12-2024	08:33:49.262	164.841	7.496	7.496	27.501	939	0	1.0915	OK	11-12-2024	08:33:49.262	164.841	37.579	OK
11-12-2024	08:33:49.520	165.099	7.496	7.496	27.503	939	0	1.0914	OK	11-12-2024	08:33:49.520	165.099	37.579	OK
11-12-2024	08:33:49.694	165.273	7.497	7.497	27.504	939	0	1.0913	OK	11-12-2024	08:33:49.694	165.273	37.578	OK
11-12-2024	08:33:49.794	165.373	7.496	7.496	27.500	939	0	1.0917	OK	11-12-2024	08:33:49.794	165.373	37.578	OK
11-12-2024	08:33:49.894	165.472	7.496	7.496	27.498	939	0	1.0918	OK	11-12-2024	08:33:49.894	165.472	37.577	OK
11-12-2024	08:33:49.994	165.573	7.495	7.495	27.495	939	0	1.0920	OK	11-12-2024	08:33:49.994	165.573	37.577	OK
11-12-2024	08:33:50.094	165.672	7.495	7.495	27.493	939	0	1.0921	OK	11-12-2024	08:33:50.094	165.672	37.577	OK
11-12-2024	08:33:50.262	165.841	7.496	7.496	27.500	939	0	1.0917	OK	11-12-2024	08:33:50.262	165.841	37.577	OK
11-12-2024	08:33:50.534	166.113	7.496	7.496	27.503	939	0	1.0914	OK	11-12-2024	08:33:50.534	166.113	37.576	OK
11-12-2024	08:33:50.698	166.277	7.496	7.496	27.500	939	0	1.0917	OK	11-12-2024	08:33:50.698	166.277	37.576	OK
11-12-2024	08:33:50.797	166.376	7.496	7.496	27.499	939	0	1.0917	OK	11-12-2024	08:33:50.797	166.376	37.576	OK
11-12-2024	08:33:50.897	166.476	7.495	7.495	27.491	939	0	1.0922	OK	11-12-2024	08:33:50.897	166.476	37.576	OK
11-12-2024	08:33:50.997	166.575	7.495	7.495	27.496	938	0	1.0919	OK	11-12-2024	08:33:50.997	166.575	37.576	OK
11-12-2024	08:33:51.242	166.821	7.496	7.496	27.503	939	0	1.0914	OK	11-12-2024	08:33:51.242	166.821	37.576	OK
11-12-2024	08:33:51.512	167.091	7.497	7.497	27.505	939	0	1.0913	OK	11-12-2024	08:33:51.512	167.091	37.576	OK
11-12-2024	08:33:51.698	167.277	7.496	7.496	27.503	939	0	1.0914	OK	11-12-2024	08:33:51.698	167.277	37.576	OK
11-12-2024	08:33:51.798	167.377	7.496	7.496	27.502	939	0	1.0915	OK	11-12-2024	08:33:51.798	167.377	37.576	OK
11-12-2024	08:33:51.898	167.477	7.495	7.495	27.495	938	0	1.0920	OK	11-12-2024	08:33:51.898	167.477	37.577	OK
11-12-2024	08:33:51.998	167.577	7.495	7.495	27.496	938	0	1.0919	OK	11-12-2024	08:33:51.998	167.577	37.577	OK
11-12-2024	08:33:52.098	167.677	7.495	7.495	27.492	938	0	1.0922	OK	11-12-2024	08:33:52.098	167.677	37.577	OK
11-12-2024	08:33:52.269	167.848	7.496	7.496	27.500	939	0	1.0917	OK	11-12-2024	08:33:52.269	167.848	37.577	OK
11-12-2024	08:33:52.547	168.126	7.497	7.497	27.504	939	0	1.0914	OK	11-12-2024	08:33:52.547	168.126	37.577	OK
11-12-2024	08:33:52.699	168.278	7.496	7.496	27.502	939	0	1.0915	OK	11-12-2024	08:33:52.699	168.278	37.577	OK
11-12-2024	08:33:52.799	168.378	7.496	7.496	27.499	939	0	1.0917	OK	11-12-2024	08:33:52.799	168.378	37.577	OK
11-12-2024	08:33:52.898	168.477	7.495	7.495	27.497	939	0	1.0919	OK	11-12-2024	08:33:52.898	168.477	37.577	OK
11-12-2024	08:33:52.999	168.578	7.495	7.495	27.496	939	0	1.0919	OK	11-12-2024	08:33:52.999	168.578	37.577	OK
11-12-2024	08:33:53.099	168.678	7.495	7.495	27.495	939	0	1.0920	OK	11-12-2024	08:33:53.099	168.678	37.577	OK
11-12-2024	08:33:53.273	168.852	7.495	7.495	27.497	939	0	1.0919	OK	11-12-2024	08:33:53.273	168.852	37.578	OK
11-12-2024	08:33:53.531	169.110	7.497	7.497	27.505	939	0	1.0913	OK	11-12-2024	08:33:53.531	169.110	37.579	OK
11-12-2024	08:33:53.699	169.277	7.496	7.496	27.500	939	0	1.0917	OK	11-12-2024	08:33:53.699	169.277	37.579	OK
11-12-2024	08:33:53.798	169.377	7.496	7.496	27.501	939	0	1.0916	OK	11-12-2024	08:33:53.798	169.377	37.579	OK
11-12-2024	08:33:53.899	169.478	7.496	7.496	27.497	939	0	1.0918	OK	11-12-2024	08:33:53.899	169.478	37.579	OK
11-12-2024	08:33:53.999	169.578	7.495	7.495	27.496	939	0	1.0919	OK	11-12-2024	08:33:53.999	169.578	37.579	OK
11-12-2024	08:33:54.099	169.678	7.495	7.495	27.496	938	0	1.0919	OK	11-12-2024	08:33:54.099	169.678	37.579	OK
11-12-2024	08:33:54.270	169.848	7.496	7.496	27.500	939	0	1.0916	OK	11-12-2024	08:33:54.270	169.848	37.580	OK
11-12-2024	08:33:54.526	170.105	7.497	7.497	27.506	939	0	1.0912	OK	11-12-2024	08:33:54.526	170.105	37.580	OK
11-12-2024	08:33:54.699	170.278	7.496	7.496	27.497	939	0	1.0918	OK	11-12-2024	08:33:54.699	170.278	37.579	OK
11-12-2024	08:33:54.799	170.378	7.496	7.496	27.498	939	0	1.0917	OK	11-12-2024	08:33:54.799	170.378	37.579	OK
11-12-2024	08:33:54.899	170.477	7.496	7.496	27.497	938	0	1.0918	OK	11-12-2024	08:33:54.899	170.477	37.579	OK
11-12-2024	08:33:54.999	170.578	7.495	7.495	27.496	938	0	1.0919	OK	11-12-2024	08:33:54.999	170.578	37.579	OK
11-12-2024	08:33:55.099	170.678	7.496	7.496	27.497	938	0	1.0918	OK	11-12-2024	08:33:55.099	170.678	37.579	OK
11-12-2024	08:33:55.270	170.849	7.495	7.495	27.496	938	0	1.0919	OK	11-12-2024	08:33:55.270	170.849	37.578	OK
11-12-2024	08:33:55.525	171.104	7.497	7.497	27.504	939	0	1.0913	OK	11-12-2024	08:33:55.525	171.104	37.578	OK
11-12-2024	08:33:55.700	171.279	7.496	7.496	27.501	939	0	1.0915	OK	11-12-2024	08:33:55.700	171.279	37.578	OK
11-12-2024	08:33:55.800	171.379	7.496	7.496	27.498	938	0	1.0917	OK	11-12-2024	08:33:55.800	171.379	37.578	OK
11-12-2024	08:33:55.898	171.477	7.496	7.496	27.499	938	0	1.0916	OK	11-12-2024	08:33:55.898	171.477	37.578	OK
11-12-2024	08:33:55.999	171.578	7.496	7.496	27.497	938	0	1.0918	OK	11-12-2024	08:33:55.999	171.578	37.579	OK
11-12-2024	08:33:56.100	171.679	7.496	7.496	27.499	938	0	1.0916	OK	11-12-2024	08:33:56.100	171.679	37.579	OK
11-12-2024	08:33:56.371	171.950	7.497	7.497	27.504	938	0	1.0913	OK	11-12-2024	08:33:56.371	171.950	37.579	OK
11-12-2024	08:33:56.542	172.121	7.496	7.496	27.498	938	0	1.0917	OK	11-12-2024	08:33:56.542	172.121	37.579	OK
11-12-2024	08:33:56.701	172.280	7.497	7.497	27.503	938	0	1.0913	OK	11-12-2024	08:33:56.701	172.280	37.579	OK
11-12-2024	08:33:56.800	172.379	7.496	7.496	27.500	938	0	1.0916	OK	11-12-2024	08:33:56.800	172.379	37.579	OK
11-12-2024	08:33:56.901	172.480	7.495	7.495	27.496	938	0	1.0919	OK	11-12-2024	08:33:56.901	172.480	37.579	OK
11-12-2024	08:33:57.101	172.680	7.496	7.496	27.502	938	0	1.0915	OK	11-12-2024	08:33:57.101	172.680	37.580	OK
11-12-2024	08:33:57.271	172.850	7.496	7.496	27.501	939	0	1.0915	OK	11-12-2024	08:33:57.271	172.850	37.579	OK
11-12-2024	08:33:57.527	173.106	7.496	7.496	27.502	939	0	1.0915	OK	11-12-2024	08:33:57.527	173.106	37.578	OK
11-12-2024	08:33:57.702	173.281	7.496	7.496	27.503	939	0	1.0914	OK	11-12-2024	08:33:57.702	173.281	37.579	OK
11-12-2024	08:33:57.802	173.381	7.496	7.496	27.501	939	0	1.0915	OK	11-12-2024	08:33:57.802	173.381	37.579	OK
11-12-2024	08:33:57.902	173.481	7.496	7.496	27.498	939	0	1.0917	OK	11-12-2024	08:33:57.902	173.481	37.579	OK
11-12-2024	08:33:58.002	173.581	7.496	7.496	27.498	939	0	1.0917	OK	11-12-2024	08:33:58.002	173.581	37.579	OK
11-12-2024	08:33:58.102	173.681	7.495	7.495	27.496	939	0	1.0919	OK	11-12-2024	08:33:58.102	173.681	37.579	OK
11-12-2024	08:33:58.273	173.852	7.496	7.496	27.497	939	0	1.0918	OK	11-12-2024	08:33:58.273	173.852	37.580	OK
11-12-2024	08:33:58.546	174.125	7.496	7.496	27.503	939	0	1.0914	OK	11-12-2024	08:33:58.546	174.125	37.580	OK
11-12-2024	08:33:58.702	174.281	7.496	7.496	27.503	939	0	1.0914	OK	11-12-2024	08:33:58.702	174.281	37.581	OK
11-12-2024	08:33:58.800	174.379	7.496	7.496	27.499	939	0	1.0917	OK	11-12-2024	08:33:58.800	174.379	37.581	OK
11-12-2024	08:33:58.902	174.481	7.496	7.496	27.499	939	0	1.0917	OK	11-12-2024	08:33:58.902	174.481	37.581	OK
11-12-2024	08:33:59.001	174.580	7.496	7.496	27.498	938	0	1.0917	OK	11-12-2024	08:33:59.001	174.580	37.582	OK
11-12-2024	08:33:59.102	174.681	7.495	7.495	27.496	938	0	1.0918	OK	11-12-2024	08:33:59.102	174.681	37.582	OK
11-12-2024	08:33:59.273	174.851	7.496	7.496	27.502	938	0	1.0914	OK	11-12-2024	08:33:59.273	174.851	37.581	OK
11-12-2024	08:33:59.526	175.105	7.497	7.497	27.506	939	0	1.0911	OK	11-12-2024	08:33:59.526	175.105	37.582	OK
11-12-2024	08:33:59.706	175.285	7.497	7.497	27.504	938	0	1.0913	OK	11-12-2024	08:33:59.706	175.285	37.582	OK
11-12-2024	08:33:59.805	175.384	7.496	7.496	27.501	939	0	1.0915	OK	11-12-2024	08:33:59.805	175.384	37.581	OK
11-12-2024	08:33:59.906	175.485	7.495	7.495	27.495	938	0	1.0919	OK	11-12-2024	08:33:59.906	175.485	37.581	OK
11-12-2024	08:34:00.006	175.585	7.495	7.495	27.493	938	0	1.0921	OK	11-12-2024	08:34:00.006	175.585	37.581	OK
11-12-2024	08:34:00.106	175.685	7.496	7.496	27.499	938	0	1.0917	OK	11-12-2024	08:34:00.106	175.685	37.582	OK
11-12-2024	08:34:00.293	175.872	7.496	7.496	27.501	938	0	1.0915	OK	11-12-2024	08:34:00.293	175.872	37.581	OK
11-12-2024	08:34:00.549	176.128	7.497	7.497	27.505	938	0	1.0913	OK	11-12-2024	08:34:00.549	176.128	37.582	OK
11-12-2024	08:34:00.709	176.288	7.496	7.496	27.501	938	0	1.0915	OK	11-12-2024	08:34:00.709	176.288	37.582	OK
11-12-2024	08:34:00.810	176.389	7.496	7.496	27.501	938	0	1.0915	OK	11-12-2024	08:34:00.810	176.389	37.582	OK
11-12-2024	08:34:00.910	176.489	7.495	7.495	27.494	938	0	1.0920	OK	11-12-2024	08:34:00.910	176.489	37.582	OK
11-12-2024	08:34:01.010	176.589	7.495	7.495	27.494	938	0	1.0920	OK	11-12-2024	08:34:01.010	176.589	37.582	OK
11-12-2024	08:34:01.110	176.689	7.495	7.495	27.493	939	0	1.0921	OK	11-12-2024	08:34:01.110	176.689	37.583	OK
11-12-2024	08:34:01.281	176.860	7.496	7.496	27.501	939	0	1.0915	OK	11-12-2024	08:34:01.281	176.860	37.582	OK
11-12-2024	08:34:01.542	177.121	7.497	7.497	27.504	939	0	1.0913	OK	11-12-2024	08:34:01.542	177.121	37.582	OK
11-12-2024	08:34:01.713	177.292	7.496	7.496	27.499	939	0	1.0917	OK	11-12-2024	08:34:01.713	177.292	37.583	OK
11-12-2024	08:34:01.813	177.392	7.496	7.496	27.500	939	0	1.0916	OK	11-12-2024	08:34:01.813	177.392	37.583	OK
11-12-2024	08:34:01.912	177.491	7.495	7.495	27.494	938	0	1.0920	OK	11-12-2024	08:34:01.912	177.491	37.582	OK
11-12-2024	08:34:02.013	177.592	7.495	7.495	27.496	939	0	1.0918	OK	11-12-2024	08:34:02.013	177.592	37.582	OK
11-12-2024	08:34:02.114	177.693	7.496	7.496	27.497	938	0	1.0918	OK	11-12-2024	08:34:02.114	177.693	37.581	OK
11-12-2024	08:34:02.285	177.864	7.495	7.495	27.496	938	0	1.0918	OK	11-12-2024	08:34:02.285	177.864	37.580	OK
11-12-2024	08:34:02.539	178.118	7.496	7.496	27.501	939	0	1.0915	OK	11-12-2024	08:34:02.539	178.118	37.581	OK
11-12-2024	08:34:02.713	178.292	7.496	7.496	27.502	939	0	1.0914	OK	11-12-2024	08:34:02.713	178.292	37.580	OK
11-12-2024	08:34:02.813	178.391	7.496	7.496	27.500	938	0	1.0916	OK	11-12-2024	08:34:02.813	178.391	37.580	OK
11-12-2024	08:34:02.914	178.493	7.496	7.496	27.497	938	0	1.0918	OK	11-12-2024	08:34:02.914	178.493	37.580	OK
11-12-2024	08:34:03.014	178.593	7.495	7.495	27.494	938	0	1.0920	OK	11-12-2024	08:34:03.014	178.593	37.580	OK
11-12-2024	08:34:03.115	178.694	7.495	7.495	27.495	939	0	1.0919	OK	11-12-2024	08:34:03.115	178.694	37.580	OK
11-12-2024	08:34:03.283	178.862	7.496	7.496	27.500	939	0	1.0916	OK	11-12-2024	08:34:03.283	178.862	37.580	OK
11-12-2024	08:34:03.537	179.116	7.497	7.497	27.504	939	0	1.0913	OK	11-12-2024	08:34:03.537	179.116	37.580	OK
11-12-2024	08:34:03.715	179.294	7.496	7.496	27.500	939	0	1.0916	OK	11-12-2024	08:34:03.715	179.294	37.580	OK
11-12-2024	08:34:03.815	179.394	7.496	7.496	27.499	939	0	1.0916	OK	11-12-2024	08:34:03.815	179.394	37.580	OK
11-12-2024	08:34:03.916	179.495	7.495	7.495	27.495	939	0	1.0919	OK	11-12-2024	08:34:03.916	179.495	37.580	OK
11-12-2024	08:34:04.017	179.596	7.496	7.496	27.498	939	0	1.0917	OK	11-12-2024	08:34:04.017	179.596	37.580	OK
11-12-2024	08:34:04.116	179.695	7.495	7.495	27.493	938	0	1.0920	OK	11-12-2024	08:34:04.116	179.695	37.580	OK
11-12-2024	08:34:04.289	179.868	7.496	7.496	27.496	939	0	1.0918	OK	11-12-2024	08:34:04.289	179.868	37.579	OK
11-12-2024	08:34:04.565	180.144	7.496	7.496	27.500	939	0	1.0916	OK	11-12-2024	08:34:04.565	180.144	37.580	OK
11-12-2024	08:34:04.718	180.297	7.497	7.497	27.503	939	0	1.0913	OK	11-12-2024	08:34:04.718	180.297	37.579	OK
11-12-2024	08:34:04.821	180.400	7.497	7.497	27.503	938	0	1.0913	OK	11-12-2024	08:34:04.821	180.400	37.579	OK
11-12-2024	08:34:04.918	180.497	7.495	7.495	27.493	939	0	1.0920	OK	11-12-2024	08:34:04.918	180.497	37.578	OK
11-12-2024	08:34:05.018	180.597	7.495	7.495	27.495	939	0	1.0919	OK	11-12-2024	08:34:05.018	180.597	37.578	OK
11-12-2024	08:34:05.119	180.698	7.496	7.496	27.498	939	0	1.0917	OK	11-12-2024	08:34:05.119	180.698	37.578	OK
11-12-2024	08:34:05.288	180.867	7.496	7.496	27.496	939	0	1.0918	OK	11-12-2024	08:34:05.288	180.867	37.579	OK
11-12-2024	08:34:05.545	181.124	7.496	7.496	27.500	939	0	1.0916	OK	11-12-2024	08:34:05.545	181.124	37.580	OK
11-12-2024	08:34:05.721	181.300	7.496	7.496	27.499	939	0	1.0916	OK	11-12-2024	08:34:05.721	181.300	37.580	OK
11-12-2024	08:34:05.820	181.399	7.496	7.496	27.498	939	0	1.0917	OK	11-12-2024	08:34:05.820	181.399	37.580	OK
11-12-2024	08:34:05.921	181.500	7.496	7.496	27.499	938	0	1.0916	OK	11-12-2024	08:34:05.921	181.500	37.580	OK
11-12-2024	08:34:06.021	181.600	7.495	7.495	27.491	939	0	1.0922	OK	11-12-2024	08:34:06.021	181.600	37.580	OK
11-12-2024	08:34:06.120	181.699	7.495	7.495	27.492	938	0	1.0921	OK	11-12-2024	08:34:06.120	181.699	37.580	OK
11-12-2024	08:34:06.288	181.867	7.496	7.496	27.500	939	0	1.0915	OK	11-12-2024	08:34:06.288	181.867	37.580	OK
11-12-2024	08:34:06.562	182.141	7.497	7.497	27.504	939	0	1.0912	OK	11-12-2024	08:34:06.562	182.141	37.581	OK
11-12-2024	08:34:06.723	182.302	7.497	7.497	27.503	938	0	1.0913	OK	11-12-2024	08:34:06.723	182.302	37.580	OK
11-12-2024	08:34:06.825	182.404	7.496	7.496	27.501	938	0	1.0914	OK	11-12-2024	08:34:06.825	182.404	37.580	OK
11-12-2024	08:34:06.923	182.502	7.495	7.495	27.495	938	0	1.0919	OK	11-12-2024	08:34:06.923	182.502	37.581	OK
11-12-2024	08:34:07.024	182.603	7.495	7.495	27.495	938	0	1.0919	OK	11-12-2024	08:34:07.024	182.603	37.581	OK
11-12-2024	08:34:07.124	182.703	7.495	7.495	27.495	939	0	1.0919	OK	11-12-2024	08:34:07.124	182.703	37.581	OK
11-12-2024	08:34:07.297	182.876	7.496	7.496	27.501	939	0	1.0915	OK	11-12-2024	08:34:07.297	182.876	37.581	OK
11-12-2024	08:34:07.552	183.131	7.495	7.495	27.496	939	0	1.0918	OK	11-12-2024	08:34:07.552	183.131	37.581	OK
11-12-2024	08:34:07.728	183.307	7.496	7.496	27.503	938	0	1.0913	OK	11-12-2024	08:34:07.728	183.307	37.581	OK
11-12-2024	08:34:07.827	183.406	7.496	7.496	27.501	938	0	1.0915	OK	11-12-2024	08:34:07.827	183.406	37.581	OK
11-12-2024	08:34:07.928	183.507	7.495	7.495	27.496	938	0	1.0918	OK	11-12-2024	08:34:07.928	183.507	37.581	OK
11-12-2024	08:34:08.028	183.607	7.496	7.496	27.499	938	0	1.0916	OK	11-12-2024	08:34:08.028	183.607	37.581	OK
11-12-2024	08:34:08.127	183.706	7.495	7.495	27.495	938	0	1.0919	OK	11-12-2024	08:34:08.127	183.706	37.582	OK
11-12-2024	08:34:08.298	183.877	7.496	7.496	27.499	939	0	1.0916	OK	11-12-2024	08:34:08.298	183.877	37.582	OK
11-12-2024	08:34:08.556	184.135	7.497	7.497	27.507	938	0	1.0911	OK	11-12-2024	08:34:08.556	184.135	37.581	OK
11-12-2024	08:34:08.729	184.308	7.497	7.497	27.505	938	0	1.0912	OK	11-12-2024	08:34:08.729	184.308	37.581	OK
11-12-2024	08:34:08.830	184.409	7.496	7.496	27.500	939	0	1.0916	OK	11-12-2024	08:34:08.830	184.409	37.580	OK
11-12-2024	08:34:08.930	184.509	7.496	7.496	27.497	938	0	1.0918	OK	11-12-2024	08:34:08.930	184.509	37.580	OK
11-12-2024	08:34:09.028	184.607	7.496	7.496	27.499	938	0	1.0916	OK	11-12-2024	08:34:09.028	184.607	37.579	OK
11-12-2024	08:34:09.245	184.824	7.496	7.496	27.501	938	0	1.0915	OK	11-12-2024	08:34:09.245	184.824	37.580	OK
11-12-2024	08:34:09.499	185.078	7.496	7.496	27.502	939	0	1.0914	OK	11-12-2024	08:34:09.499	185.078	37.579	OK
11-12-2024	08:34:09.631	185.210	7.496	7.496	27.501	939	0	1.0915	OK	11-12-2024	08:34:09.631	185.210	37.579	OK
11-12-2024	08:34:09.734	185.313	7.496	7.496	27.498	939	0	1.0917	OK	11-12-2024	08:34:09.734	185.313	37.579	OK
11-12-2024	08:34:09.833	185.412	7.496	7.496	27.498	939	0	1.0917	OK	11-12-2024	08:34:09.833	185.412	37.578	OK
11-12-2024	08:34:09.933	185.512	7.496	7.496	27.497	938	0	1.0918	OK	11-12-2024	08:34:09.933	185.512	37.578	OK
11-12-2024	08:34:10.032	185.611	7.496	7.496	27.499	939	0	1.0916	OK	11-12-2024	08:34:10.032	185.611	37.579	OK
11-12-2024	08:34:10.132	185.711	7.495	7.495	27.493	938	0	1.0920	OK	11-12-2024	08:34:10.132	185.711	37.579	OK
11-12-2024	08:34:10.305	185.884	7.496	7.496	27.498	939	0	1.0916	OK	11-12-2024	08:34:10.305	185.884	37.579	OK
11-12-2024	08:34:10.562	186.141	7.497	7.497	27.504	939	0	1.0912	OK	11-12-2024	08:34:10.562	186.141	37.578	OK
11-12-2024	08:34:10.733	186.312	7.496	7.496	27.499	939	0	1.0916	OK	11-12-2024	08:34:10.733	186.312	37.578	OK
11-12-2024	08:34:10.831	186.410	7.497	7.497	27.505	938	0	1.0912	OK	11-12-2024	08:34:10.831	186.410	37.579	OK
11-12-2024	08:34:10.933	186.512	7.496	7.496	27.498	939	0	1.0916	OK	11-12-2024	08:34:10.933	186.512	37.579	OK
11-12-2024	08:34:11.133	186.712	7.497	7.497	27.506	938	0	1.0911	OK	11-12-2024	08:34:11.133	186.712	37.578	OK
11-12-2024	08:34:11.306	186.885	7.496	7.496	27.501	939	0	1.0915	OK	11-12-2024	08:34:11.306	186.885	37.578	OK
11-12-2024	08:34:11.564	187.143	7.497	7.497	27.509	939	0	1.0909	OK	11-12-2024	08:34:11.564	187.143	37.578	OK
11-12-2024	08:34:11.736	187.315	7.497	7.497	27.503	939	0	1.0913	OK	11-12-2024	08:34:11.736	187.315	37.579	OK
11-12-2024	08:34:11.836	187.415	7.496	7.496	27.502	939	0	1.0914	OK	11-12-2024	08:34:11.836	187.415	37.579	OK
11-12-2024	08:34:11.936	187.515	7.496	7.496	27.499	939	0	1.0916	OK	11-12-2024	08:34:11.936	187.515	37.579	OK
11-12-2024	08:34:12.038	187.617	7.496	7.496	27.498	938	0	1.0917	OK	11-12-2024	08:34:12.038	187.617	37.580	OK
11-12-2024	08:34:12.136	187.715	7.496	7.496	27.497	939	0	1.0918	OK	11-12-2024	08:34:12.136	187.715	37.580	OK
11-12-2024	08:34:12.307	187.886	7.496	7.496	27.498	939	0	1.0917	OK	11-12-2024	08:34:12.307	187.886	37.580	OK
11-12-2024	08:34:12.564	188.143	7.496	7.496	27.498	939	0	1.0917	OK	11-12-2024	08:34:12.564	188.143	37.580	OK
11-12-2024	08:34:12.736	188.315	7.496	7.496	27.501	939	0	1.0915	OK	11-12-2024	08:34:12.736	188.315	37.580	OK
11-12-2024	08:34:12.837	188.416	7.495	7.495	27.494	939	0	1.0920	OK	11-12-2024	08:34:12.837	188.416	37.580	OK
11-12-2024	08:34:12.937	188.516	7.495	7.495	27.495	939	0	1.0919	OK	11-12-2024	08:34:12.937	188.516	37.580	OK
11-12-2024	08:34:13.038	188.617	7.495	7.495	27.493	939	0	1.0920	OK	11-12-2024	08:34:13.038	188.617	37.580	OK
11-12-2024	08:34:13.139	188.718	7.495	7.495	27.493	939	0	1.0920	OK	11-12-2024	08:34:13.139	188.718	37.580	OK
11-12-2024	08:34:13.311	188.890	7.496	7.496	27.496	939	0	1.0918	OK	11-12-2024	08:34:13.311	188.890	37.579	OK
11-12-2024	08:34:13.581	189.160	7.496	7.496	27.496	939	0	1.0918	OK	11-12-2024	08:34:13.581	189.160	37.579	OK
11-12-2024	08:34:13.739	189.318	7.496	7.496	27.501	938	0	1.0915	OK	11-12-2024	08:34:13.739	189.318	37.579	OK
11-12-2024	08:34:13.838	189.417	7.495	7.495	27.492	938	0	1.0921	OK	11-12-2024	08:34:13.838	189.417	37.579	OK
11-12-2024	08:34:13.939	189.518	7.495	7.495	27.495	938	0	1.0919	OK	11-12-2024	08:34:13.939	189.518	37.579	OK
11-12-2024	08:34:14.040	189.619	7.496	7.496	27.497	938	0	1.0918	OK	11-12-2024	08:34:14.040	189.619	37.579	OK
11-12-2024	08:34:14.138	189.717	7.496	7.496	27.497	938	0	1.0918	OK	11-12-2024	08:34:14.138	189.717	37.579	OK
11-12-2024	08:34:14.310	189.889	7.496	7.496	27.497	939	0	1.0917	OK	11-12-2024	08:34:14.310	189.889	37.580	OK
11-12-2024	08:34:14.581	190.160	7.496	7.496	27.501	939	0	1.0914	OK	11-12-2024	08:34:14.581	190.160	37.580	OK
11-12-2024	08:34:14.742	190.321	7.496	7.496	27.501	939	0	1.0914	OK	11-12-2024	08:34:14.742	190.321	37.581	OK
11-12-2024	08:34:14.843	190.422	7.496	7.496	27.496	939	0	1.0918	OK	11-12-2024	08:34:14.843	190.422	37.581	OK
11-12-2024	08:34:14.942	190.521	7.496	7.496	27.496	939	0	1.0918	OK	11-12-2024	08:34:14.942	190.521	37.581	OK
11-12-2024	08:34:15.043	190.622	7.495	7.495	27.493	939	0	1.0920	OK	11-12-2024	08:34:15.043	190.622	37.581	OK
11-12-2024	08:34:15.143	190.722	7.496	7.496	27.500	938	0	1.0915	OK	11-12-2024	08:34:15.143	190.722	37.581	OK
11-12-2024	08:34:15.320	190.899	7.496	7.496	27.502	939	0	1.0914	OK	11-12-2024	08:34:15.320	190.899	37.581	OK
11-12-2024	08:34:15.577	191.156	7.497	7.497	27.507	939	0	1.0911	OK	11-12-2024	08:34:15.577	191.156	37.582	OK
11-12-2024	08:34:15.744	191.323	7.496	7.496	27.501	939	0	1.0915	OK	11-12-2024	08:34:15.744	191.323	37.582	OK
11-12-2024	08:34:15.844	191.423	7.495	7.495	27.496	939	0	1.0918	OK	11-12-2024	08:34:15.844	191.423	37.581	OK
11-12-2024	08:34:15.945	191.524	7.496	7.496	27.498	939	0	1.0917	OK	11-12-2024	08:34:15.945	191.524	37.581	OK
11-12-2024	08:34:16.046	191.625	7.496	7.496	27.497	938	0	1.0918	OK	11-12-2024	08:34:16.046	191.625	37.582	OK
11-12-2024	08:34:16.146	191.725	7.495	7.495	27.495	939	0	1.0919	OK	11-12-2024	08:34:16.146	191.725	37.582	OK
11-12-2024	08:34:16.320	191.899	7.496	7.496	27.500	939	0	1.0915	OK	11-12-2024	08:34:16.320	191.899	37.581	OK
11-12-2024	08:34:16.572	192.151	7.497	7.497	27.506	939	0	1.0911	OK	11-12-2024	08:34:16.572	192.151	37.582	OK
11-12-2024	08:34:16.747	192.325	7.497	7.497	27.504	939	0	1.0912	OK	11-12-2024	08:34:16.747	192.325	37.582	OK
11-12-2024	08:34:16.846	192.425	7.496	7.496	27.499	939	0	1.0916	OK	11-12-2024	08:34:16.846	192.425	37.581	OK
11-12-2024	08:34:16.946	192.525	7.496	7.496	27.499	939	0	1.0916	OK	11-12-2024	08:34:16.946	192.525	37.581	OK
11-12-2024	08:34:17.047	192.626	7.495	7.495	27.495	939	0	1.0919	OK	11-12-2024	08:34:17.047	192.626	37.581	OK
11-12-2024	08:34:17.146	192.725	7.496	7.496	27.498	939	0	1.0916	OK	11-12-2024	08:34:17.146	192.725	37.581	OK
11-12-2024	08:34:17.318	192.897	7.496	7.496	27.503	939	0	1.0913	OK	11-12-2024	08:34:17.318	192.897	37.581	OK
11-12-2024	08:34:17.590	193.169	7.497	7.497	27.504	939	0	1.0913	OK	11-12-2024	08:34:17.590	193.169	37.580	OK
11-12-2024	08:34:17.747	193.326	7.497	7.497	27.503	939	0	1.0913	OK	11-12-2024	08:34:17.747	193.326	37.579	OK
11-12-2024	08:34:17.848	193.427	7.497	7.497	27.503	939	0	1.0913	OK	11-12-2024	08:34:17.848	193.427	37.579	OK
11-12-2024	08:34:17.947	193.526	7.497	7.497	27.504	938	0	1.0913	OK	11-12-2024	08:34:17.947	193.526	37.578	OK
11-12-2024	08:34:18.048	193.627	7.496	7.496	27.496	939	0	1.0918	OK	11-12-2024	08:34:18.048	193.627	37.578	OK
11-12-2024	08:34:18.149	193.728	7.495	7.495	27.494	939	0	1.0920	OK	11-12-2024	08:34:18.149	193.728	37.577	OK
11-12-2024	08:34:18.321	193.900	7.496	7.496	27.497	939	0	1.0917	OK	11-12-2024	08:34:18.321	193.900	37.577	OK
11-12-2024	08:34:18.576	194.155	7.497	7.497	27.503	939	0	1.0913	OK	11-12-2024	08:34:18.576	194.155	37.577	OK
11-12-2024	08:34:18.750	194.329	7.496	7.496	27.500	939	0	1.0915	OK	11-12-2024	08:34:18.750	194.329	37.577	OK
11-12-2024	08:34:18.850	194.429	7.496	7.496	27.499	939	0	1.0916	OK	11-12-2024	08:34:18.850	194.429	37.577	OK
11-12-2024	08:34:18.950	194.529	7.496	7.496	27.495	939	0	1.0919	OK	11-12-2024	08:34:18.950	194.529	37.576	OK
11-12-2024	08:34:19.051	194.630	7.496	7.496	27.495	939	0	1.0919	OK	11-12-2024	08:34:19.051	194.630	37.576	OK
11-12-2024	08:34:19.150	194.729	7.495	7.495	27.494	939	0	1.0919	OK	11-12-2024	08:34:19.150	194.729	37.577	OK
11-12-2024	08:34:19.319	194.898	7.496	7.496	27.497	939	0	1.0917	OK	11-12-2024	08:34:19.319	194.898	37.577	OK
11-12-2024	08:34:19.575	195.154	7.497	7.497	27.503	939	0	1.0913	OK	11-12-2024	08:34:19.575	195.154	37.576	OK
11-12-2024	08:34:19.753	195.332	7.496	7.496	27.500	939	0	1.0915	OK	11-12-2024	08:34:19.753	195.332	37.576	OK
11-12-2024	08:34:19.853	195.431	7.496	7.496	27.497	939	0	1.0917	OK	11-12-2024	08:34:19.853	195.431	37.576	OK
11-12-2024	08:34:19.952	195.531	7.496	7.496	27.500	939	0	1.0915	OK	11-12-2024	08:34:19.952	195.531	37.576	OK
11-12-2024	08:34:20.053	195.632	7.496	7.496	27.498	939	0	1.0916	OK	11-12-2024	08:34:20.053	195.632	37.576	OK
11-12-2024	08:34:20.153	195.732	7.496	7.496	27.496	939	0	1.0918	OK	11-12-2024	08:34:20.153	195.732	37.577	OK
11-12-2024	08:34:20.323	195.902	7.496	7.496	27.499	939	0	1.0916	OK	11-12-2024	08:34:20.323	195.902	37.577	OK
11-12-2024	08:34:20.596	196.175	7.497	7.497	27.505	939	0	1.0912	OK	11-12-2024	08:34:20.596	196.175	37.577	OK
11-12-2024	08:34:20.755	196.334	7.497	7.497	27.502	939	0	1.0914	OK	11-12-2024	08:34:20.755	196.334	37.578	OK
11-12-2024	08:34:20.855	196.434	7.497	7.497	27.502	939	0	1.0914	OK	11-12-2024	08:34:20.855	196.434	37.578	OK
11-12-2024	08:34:20.955	196.534	7.496	7.496	27.500	939	0	1.0915	OK	11-12-2024	08:34:20.955	196.534	37.578	OK
11-12-2024	08:34:21.057	196.636	7.496	7.496	27.496	939	0	1.0918	OK	11-12-2024	08:34:21.057	196.636	37.578	OK
11-12-2024	08:34:21.155	196.734	7.496	7.496	27.497	939	0	1.0917	OK	11-12-2024	08:34:21.155	196.734	37.577	OK
11-12-2024	08:34:21.325	196.904	7.496	7.496	27.498	939	0	1.0916	OK	11-12-2024	08:34:21.325	196.904	37.578	OK
11-12-2024	08:34:21.597	197.175	7.497	7.497	27.504	939	0	1.0912	OK	11-12-2024	08:34:21.597	197.175	37.577	OK
11-12-2024	08:34:21.755	197.334	7.497	7.497	27.503	939	0	1.0913	OK	11-12-2024	08:34:21.755	197.334	37.578	OK
11-12-2024	08:34:21.856	197.435	7.496	7.496	27.497	939	0	1.0917	OK	11-12-2024	08:34:21.856	197.435	37.578	OK
11-12-2024	08:34:21.956	197.535	7.496	7.496	27.496	939	0	1.0918	OK	11-12-2024	08:34:21.956	197.535	37.578	OK
11-12-2024	08:34:22.056	197.635	7.496	7.496	27.497	939	0	1.0917	OK	11-12-2024	08:34:22.056	197.635	37.578	OK
11-12-2024	08:34:22.155	197.734	7.497	7.497	27.503	939	0	1.0913	OK	11-12-2024	08:34:22.155	197.734	37.579	OK
11-12-2024	08:34:22.323	197.902	7.496	7.496	27.501	939	0	1.0914	OK	11-12-2024	08:34:22.323	197.902	37.579	OK
11-12-2024	08:34:22.580	198.158	7.497	7.497	27.506	939	0	1.0911	OK	11-12-2024	08:34:22.580	198.158	37.579	OK
11-12-2024	08:34:22.755	198.334	7.497	7.497	27.504	939	0	1.0912	OK	11-12-2024	08:34:22.755	198.334	37.579	OK
11-12-2024	08:34:22.856	198.435	7.496	7.496	27.497	939	0	1.0917	OK	11-12-2024	08:34:22.856	198.435	37.579	OK
11-12-2024	08:34:22.956	198.535	7.496	7.496	27.499	938	0	1.0916	OK	11-12-2024	08:34:22.956	198.535	37.579	OK
11-12-2024	08:34:23.057	198.635	7.495	7.495	27.495	938	0	1.0919	OK	11-12-2024	08:34:23.057	198.635	37.579	OK
11-12-2024	08:34:23.159	198.738	7.494	7.494	27.488	938	0	1.0923	OK	11-12-2024	08:34:23.159	198.738	37.579	OK
11-12-2024	08:34:23.329	198.908	7.496	7.496	27.501	938	0	1.0914	OK	11-12-2024	08:34:23.329	198.908	37.579	OK
11-12-2024	08:34:23.586	199.165	7.497	7.497	27.502	938	0	1.0914	OK	11-12-2024	08:34:23.586	199.165	37.578	OK
11-12-2024	08:34:23.755	199.334	7.497	7.497	27.504	938	0	1.0912	OK	11-12-2024	08:34:23.755	199.334	37.577	OK
11-12-2024	08:34:23.856	199.435	7.496	7.496	27.501	938	0	1.0914	OK	11-12-2024	08:34:23.856	199.435	37.577	OK
11-12-2024	08:34:23.955	199.534	7.496	7.496	27.495	938	0	1.0919	OK	11-12-2024	08:34:23.955	199.534	37.577	OK
11-12-2024	08:34:24.055	199.633	7.496	7.496	27.497	938	0	1.0917	OK	11-12-2024	08:34:24.055	199.633	37.577	OK
11-12-2024	08:34:24.157	199.736	7.495	7.495	27.491	938	0	1.0921	OK	11-12-2024	08:34:24.157	199.736	37.578	OK
11-12-2024	08:34:24.328	199.907	7.496	7.496	27.496	939	0	1.0918	OK	11-12-2024	08:34:24.328	199.907	37.578	OK
11-12-2024	08:34:24.583	200.161	7.496	7.496	27.499	939	0	1.0916	OK	11-12-2024	08:34:24.583	200.161	37.578	OK
11-12-2024	08:34:24.757	200.336	7.496	7.496	27.500	938	0	1.0915	OK	11-12-2024	08:34:24.757	200.336	37.578	OK
11-12-2024	08:34:24.859	200.438	7.496	7.496	27.497	938	0	1.0917	OK	11-12-2024	08:34:24.859	200.438	37.578	OK
11-12-2024	08:34:24.959	200.538	7.496	7.496	27.496	938	0	1.0918	OK	11-12-2024	08:34:24.959	200.538	37.577	OK
11-12-2024	08:34:25.058	200.637	7.496	7.496	27.498	938	0	1.0916	OK	11-12-2024	08:34:25.058	200.637	37.577	OK
11-12-2024	08:34:25.158	200.737	7.495	7.495	27.494	938	0	1.0919	OK	11-12-2024	08:34:25.158	200.737	37.577	OK
11-12-2024	08:34:25.330	200.909	7.496	7.496	27.500	939	0	1.0915	OK	11-12-2024	08:34:25.330	200.909	37.577	OK
11-12-2024	08:34:25.586	201.165	7.497	7.497	27.503	938	0	1.0913	OK	11-12-2024	08:34:25.586	201.165	37.576	OK
11-12-2024	08:34:25.759	201.338	7.497	7.497	27.502	938	0	1.0914	OK	11-12-2024	08:34:25.759	201.338	37.576	OK
11-12-2024	08:34:25.859	201.438	7.496	7.496	27.499	938	0	1.0916	OK	11-12-2024	08:34:25.859	201.438	37.576	OK
11-12-2024	08:34:25.959	201.538	7.496	7.496	27.497	938	0	1.0917	OK	11-12-2024	08:34:25.959	201.538	37.576	OK
11-12-2024	08:34:26.060	201.639	7.496	7.496	27.498	938	0	1.0916	OK	11-12-2024	08:34:26.060	201.639	37.576	OK
11-12-2024	08:34:26.160	201.739	7.496	7.496	27.498	938	0	1.0916	OK	11-12-2024	08:34:26.160	201.739	37.576	OK
11-12-2024	08:34:26.329	201.908	7.496	7.496	27.498	938	0	1.0916	OK	11-12-2024	08:34:26.329	201.908	37.576	OK
11-12-2024	08:34:26.583	202.162	7.497	7.497	27.504	938	0	1.0912	OK	11-12-2024	08:34:26.583	202.162	37.577	OK
11-12-2024	08:34:26.760	202.339	7.497	7.497	27.504	938	0	1.0912	OK	11-12-2024	08:34:26.760	202.339	37.577	OK
11-12-2024	08:34:26.860	202.439	7.496	7.496	27.499	938	0	1.0915	OK	11-12-2024	08:34:26.860	202.439	37.577	OK
11-12-2024	08:34:26.960	202.539	7.496	7.496	27.497	938	0	1.0917	OK	11-12-2024	08:34:26.960	202.539	37.577	OK
11-12-2024	08:34:27.060	202.639	7.496	7.496	27.497	938	0	1.0917	OK	11-12-2024	08:34:27.060	202.639	37.578	OK
11-12-2024	08:34:27.160	202.739	7.496	7.496	27.496	938	0	1.0917	OK	11-12-2024	08:34:27.160	202.739	37.578	OK
11-12-2024	08:34:27.347	202.926	7.496	7.496	27.500	938	0	1.0915	OK	11-12-2024	08:34:27.347	202.926	37.579	OK
11-12-2024	08:34:27.617	203.196	7.497	7.497	27.502	938	0	1.0913	OK	11-12-2024	08:34:27.617	203.196	37.578	OK
11-12-2024	08:34:27.760	203.339	7.496	7.496	27.500	938	0	1.0915	OK	11-12-2024	08:34:27.760	203.339	37.578	OK
11-12-2024	08:34:27.860	203.439	7.497	7.497	27.502	938	0	1.0913	OK	11-12-2024	08:34:27.860	203.439	37.580	OK
11-12-2024	08:34:27.961	203.540	7.496	7.496	27.498	938	0	1.0916	OK	11-12-2024	08:34:27.961	203.540	37.580	OK
11-12-2024	08:34:28.060	203.639	7.496	7.496	27.495	938	0	1.0918	OK	11-12-2024	08:34:28.060	203.639	37.581	OK
11-12-2024	08:34:28.261	203.840	7.496	7.496	27.498	938	0	1.0916	OK	11-12-2024	08:34:28.261	203.840	37.581	OK
11-12-2024	08:34:28.515	204.094	7.497	7.497	27.504	939	0	1.0912	OK	11-12-2024	08:34:28.515	204.094	37.582	OK
11-12-2024	08:34:28.661	204.240	7.496	7.496	27.500	939	0	1.0915	OK	11-12-2024	08:34:28.661	204.240	37.584	OK
11-12-2024	08:34:28.762	204.341	7.496	7.496	27.500	939	0	1.0915	OK	11-12-2024	08:34:28.762	204.341	37.584	OK
11-12-2024	08:34:28.861	204.440	7.496	7.496	27.497	939	0	1.0917	OK	11-12-2024	08:34:28.861	204.440	37.584	OK
11-12-2024	08:34:28.963	204.542	7.496	7.496	27.497	938	0	1.0917	OK	11-12-2024	08:34:28.963	204.542	37.584	OK
11-12-2024	08:34:29.063	204.642	7.495	7.495	27.495	939	0	1.0918	OK	11-12-2024	08:34:29.063	204.642	37.583	OK
11-12-2024	08:34:29.245	204.824	7.496	7.496	27.500	939	0	1.0915	OK	11-12-2024	08:34:29.245	204.824	37.584	OK
11-12-2024	08:34:29.502	205.081	7.496	7.496	27.502	938	0	1.0914	OK	11-12-2024	08:34:29.502	205.081	37.584	OK
11-12-2024	08:34:29.664	205.243	7.497	7.497	27.505	939	0	1.0912	OK	11-12-2024	08:34:29.664	205.243	37.584	OK
11-12-2024	08:34:29.764	205.343	7.497	7.497	27.503	939	0	1.0913	OK	11-12-2024	08:34:29.764	205.343	37.584	OK
11-12-2024	08:34:29.864	205.443	7.496	7.496	27.497	938	0	1.0917	OK	11-12-2024	08:34:29.864	205.443	37.583	OK
11-12-2024	08:34:29.965	205.544	7.496	7.496	27.500	939	0	1.0915	OK	11-12-2024	08:34:29.965	205.544	37.583	OK
11-12-2024	08:34:30.264	205.843	7.497	7.497	27.506	939	0	1.0911	OK	11-12-2024	08:34:30.264	205.843	37.582	OK
11-12-2024	08:34:30.522	206.101	7.497	7.497	27.505	939	0	1.0912	OK	11-12-2024	08:34:30.522	206.101	37.581	OK
11-12-2024	08:34:30.666	206.245	7.496	7.496	27.502	939	0	1.0914	OK	11-12-2024	08:34:30.666	206.245	37.580	OK
11-12-2024	08:34:30.766	206.345	7.496	7.496	27.500	939	0	1.0915	OK	11-12-2024	08:34:30.766	206.345	37.580	OK
11-12-2024	08:34:30.867	206.446	7.496	7.496	27.498	938	0	1.0916	OK	11-12-2024	08:34:30.867	206.446	37.581	OK
11-12-2024	08:34:30.968	206.547	7.496	7.496	27.497	939	0	1.0917	OK	11-12-2024	08:34:30.968	206.547	37.581	OK
11-12-2024	08:34:31.069	206.647	7.495	7.495	27.494	938	0	1.0919	OK	11-12-2024	08:34:31.069	206.647	37.580	OK
11-12-2024	08:34:31.247	206.826	7.496	7.496	27.501	939	0	1.0914	OK	11-12-2024	08:34:31.247	206.826	37.580	OK
11-12-2024	08:34:31.502	207.081	7.496	7.496	27.499	938	0	1.0915	OK	11-12-2024	08:34:31.502	207.081	37.580	OK
11-12-2024	08:34:31.668	207.247	7.497	7.497	27.504	938	0	1.0912	OK	11-12-2024	08:34:31.668	207.247	37.580	OK
11-12-2024	08:34:31.768	207.347	7.496	7.496	27.495	939	0	1.0918	OK	11-12-2024	08:34:31.768	207.347	37.580	OK
11-12-2024	08:34:31.868	207.447	7.496	7.496	27.500	939	0	1.0915	OK	11-12-2024	08:34:31.868	207.447	37.579	OK
11-12-2024	08:34:31.968	207.547	7.495	7.495	27.493	938	0	1.0919	OK	11-12-2024	08:34:31.968	207.547	37.579	OK
11-12-2024	08:34:32.068	207.647	7.495	7.495	27.493	938	0	1.0919	OK	11-12-2024	08:34:32.068	207.647	37.579	OK
11-12-2024	08:34:32.247	207.826	7.496	7.496	27.498	939	0	1.0916	OK	11-12-2024	08:34:32.247	207.826	37.579	OK
11-12-2024	08:34:32.508	208.087	7.496	7.496	27.502	939	0	1.0914	OK	11-12-2024	08:34:32.508	208.087	37.579	OK
11-12-2024	08:34:32.670	208.249	7.496	7.496	27.501	939	0	1.0914	OK	11-12-2024	08:34:32.670	208.249	37.579	OK
11-12-2024	08:34:32.772	208.351	7.496	7.496	27.498	939	0	1.0916	OK	11-12-2024	08:34:32.772	208.351	37.579	OK
11-12-2024	08:34:32.871	208.450	7.495	7.495	27.494	939	0	1.0919	OK	11-12-2024	08:34:32.871	208.450	37.580	OK
11-12-2024	08:34:32.972	208.551	7.496	7.496	27.496	939	0	1.0918	OK	11-12-2024	08:34:32.972	208.551	37.580	OK
11-12-2024	08:34:33.073	208.652	7.495	7.495	27.492	939	0	1.0921	OK	11-12-2024	08:34:33.073	208.652	37.581	OK
11-12-2024	08:34:33.247	208.826	7.496	7.496	27.498	939	0	1.0916	OK	11-12-2024	08:34:33.247	208.826	37.581	OK
11-12-2024	08:34:33.502	209.081	7.497	7.497	27.502	939	0	1.0913	OK	11-12-2024	08:34:33.502	209.081	37.581	OK
11-12-2024	08:34:33.675	209.254	7.496	7.496	27.499	939	0	1.0915	OK	11-12-2024	08:34:33.675	209.254	37.581	OK
11-12-2024	08:34:33.775	209.354	7.496	7.496	27.496	939	0	1.0917	OK	11-12-2024	08:34:33.775	209.354	37.580	OK
11-12-2024	08:34:33.875	209.454	7.496	7.496	27.498	939	0	1.0916	OK	11-12-2024	08:34:33.875	209.454	37.580	OK
11-12-2024	08:34:33.974	209.553	7.496	7.496	27.496	939	0	1.0917	OK	11-12-2024	08:34:33.974	209.553	37.581	OK
11-12-2024	08:34:34.075	209.654	7.496	7.496	27.499	939	0	1.0915	OK	11-12-2024	08:34:34.075	209.654	37.581	OK
11-12-2024	08:34:34.249	209.828	7.496	7.496	27.500	939	0	1.0915	OK	11-12-2024	08:34:34.249	209.828	37.581	OK
11-12-2024	08:34:34.507	210.086	7.496	7.496	27.500	939	0	1.0915	OK	11-12-2024	08:34:34.507	210.086	37.580	OK
11-12-2024	08:34:34.675	210.254	7.497	7.497	27.507	939	0	1.0910	OK	11-12-2024	08:34:34.675	210.254	37.580	OK
11-12-2024	08:34:34.775	210.354	7.496	7.496	27.501	939	0	1.0914	OK	11-12-2024	08:34:34.775	210.354	37.580	OK
11-12-2024	08:34:34.874	210.453	7.496	7.496	27.498	939	0	1.0916	OK	11-12-2024	08:34:34.874	210.453	37.580	OK
11-12-2024	08:34:34.975	210.554	7.496	7.496	27.499	939	0	1.0915	OK	11-12-2024	08:34:34.975	210.554	37.579	OK
11-12-2024	08:34:35.074	210.653	7.496	7.496	27.495	939	0	1.0918	OK	11-12-2024	08:34:35.074	210.653	37.579	OK
11-12-2024	08:34:35.250	210.829	7.497	7.497	27.502	938	0	1.0913	OK	11-12-2024	08:34:35.250	210.829	37.579	OK
11-12-2024	08:34:35.506	211.085	7.496	7.496	27.500	939	0	1.0915	OK	11-12-2024	08:34:35.506	211.085	37.579	OK
11-12-2024	08:34:35.675	211.254	7.497	7.497	27.505	939	0	1.0912	OK	11-12-2024	08:34:35.675	211.254	37.579	OK
11-12-2024	08:34:35.775	211.354	7.496	7.496	27.499	939	0	1.0916	OK	11-12-2024	08:34:35.775	211.354	37.578	OK
11-12-2024	08:34:35.876	211.455	7.496	7.496	27.496	938	0	1.0918	OK	11-12-2024	08:34:35.876	211.455	37.578	OK
11-12-2024	08:34:35.977	211.556	7.495	7.495	27.495	938	0	1.0919	OK	11-12-2024	08:34:35.977	211.556	37.578	OK
11-12-2024	08:34:36.247	211.826	7.496	7.496	27.501	939	0	1.0914	OK	11-12-2024	08:34:36.247	211.826	37.578	OK
11-12-2024	08:34:36.508	212.087	7.496	7.496	27.501	939	0	1.0914	OK	11-12-2024	08:34:36.508	212.087	37.577	OK
11-12-2024	08:34:36.677	212.256	7.496	7.496	27.500	939	0	1.0915	OK	11-12-2024	08:34:36.677	212.256	37.577	OK
11-12-2024	08:34:36.777	212.356	7.496	7.496	27.497	939	0	1.0917	OK	11-12-2024	08:34:36.777	212.356	37.577	OK
11-12-2024	08:34:36.878	212.457	7.495	7.495	27.494	939	0	1.0919	OK	11-12-2024	08:34:36.878	212.457	37.577	OK
11-12-2024	08:34:36.979	212.558	7.496	7.496	27.497	939	0	1.0917	OK	11-12-2024	08:34:36.979	212.558	37.578	OK
11-12-2024	08:34:37.079	212.658	7.495	7.495	27.492	939	0	1.0920	OK	11-12-2024	08:34:37.079	212.658	37.578	OK
11-12-2024	08:34:37.249	212.828	7.496	7.496	27.496	939	0	1.0917	OK	11-12-2024	08:34:37.249	212.828	37.577	OK
11-12-2024	08:34:37.504	213.083	7.497	7.497	27.502	939	0	1.0913	OK	11-12-2024	08:34:37.504	213.083	37.577	OK
11-12-2024	08:34:37.680	213.259	7.496	7.496	27.499	939	0	1.0915	OK	11-12-2024	08:34:37.680	213.259	37.577	OK
11-12-2024	08:34:37.780	213.359	7.496	7.496	27.498	939	0	1.0916	OK	11-12-2024	08:34:37.780	213.359	37.577	OK
11-12-2024	08:34:37.879	213.458	7.495	7.495	27.494	939	0	1.0919	OK	11-12-2024	08:34:37.879	213.458	37.577	OK
11-12-2024	08:34:37.979	213.558	7.496	7.496	27.497	938	0	1.0917	OK	11-12-2024	08:34:37.979	213.558	37.577	OK
11-12-2024	08:34:38.080	213.659	7.495	7.495	27.492	939	0	1.0920	OK	11-12-2024	08:34:38.080	213.659	37.577	OK
11-12-2024	08:34:38.250	213.829	7.496	7.496	27.498	939	0	1.0916	OK	11-12-2024	08:34:38.250	213.829	37.576	OK
11-12-2024	08:34:38.519	214.098	7.497	7.497	27.502	939	0	1.0913	OK	11-12-2024	08:34:38.519	214.098	37.577	OK
11-12-2024	08:34:38.680	214.259	7.497	7.497	27.504	939	0	1.0912	OK	11-12-2024	08:34:38.680	214.259	37.577	OK
11-12-2024	08:34:38.780	214.359	7.496	7.496	27.497	939	0	1.0917	OK	11-12-2024	08:34:38.780	214.359	37.578	OK
11-12-2024	08:34:38.880	214.459	7.495	7.495	27.492	939	0	1.0920	OK	11-12-2024	08:34:38.880	214.459	37.578	OK
11-12-2024	08:34:38.980	214.559	7.495	7.495	27.493	939	0	1.0919	OK	11-12-2024	08:34:38.980	214.559	37.578	OK
11-12-2024	08:34:39.080	214.659	7.495	7.495	27.494	939	0	1.0919	OK	11-12-2024	08:34:39.080	214.659	37.578	OK
11-12-2024	08:34:39.251	214.830	7.496	7.496	27.495	939	0	1.0918	OK	11-12-2024	08:34:39.251	214.830	37.578	OK
11-12-2024	08:34:39.507	215.086	7.496	7.496	27.501	939	0	1.0914	OK	11-12-2024	08:34:39.507	215.086	37.577	OK
11-12-2024	08:34:39.682	215.261	7.496	7.496	27.500	939	0	1.0915	OK	11-12-2024	08:34:39.682	215.261	37.577	OK
11-12-2024	08:34:39.782	215.361	7.496	7.496	27.500	939	0	1.0915	OK	11-12-2024	08:34:39.782	215.361	37.577	OK
11-12-2024	08:34:39.881	215.460	7.496	7.496	27.495	939	0	1.0918	OK	11-12-2024	08:34:39.881	215.460	37.577	OK
11-12-2024	08:34:39.980	215.559	7.496	7.496	27.495	939	0	1.0918	OK	11-12-2024	08:34:39.980	215.559	37.578	OK
11-12-2024	08:34:40.081	215.660	7.495	7.495	27.492	939	0	1.0920	OK	11-12-2024	08:34:40.081	215.660	37.578	OK
11-12-2024	08:34:40.252	215.831	7.496	7.496	27.496	939	0	1.0917	OK	11-12-2024	08:34:40.252	215.831	37.577	OK
11-12-2024	08:34:40.507	216.086	7.497	7.497	27.504	939	0	1.0912	OK	11-12-2024	08:34:40.507	216.086	37.577	OK
11-12-2024	08:34:40.685	216.264	7.497	7.497	27.504	939	0	1.0912	OK	11-12-2024	08:34:40.685	216.264	37.577	OK
11-12-2024	08:34:40.788	216.367	7.496	7.496	27.500	939	0	1.0915	OK	11-12-2024	08:34:40.788	216.367	37.577	OK
11-12-2024	08:34:40.885	216.464	7.496	7.496	27.498	939	0	1.0916	OK	11-12-2024	08:34:40.885	216.464	37.577	OK
11-12-2024	08:34:40.997	216.576	7.496	7.496	27.497	939	0	1.0917	OK	11-12-2024	08:34:40.997	216.576	37.578	OK
11-12-2024	08:34:41.085	216.664	7.496	7.496	27.495	939	0	1.0918	OK	11-12-2024	08:34:41.085	216.664	37.578	OK
11-12-2024	08:34:41.256	216.835	7.496	7.496	27.500	939	0	1.0915	OK	11-12-2024	08:34:41.256	216.835	37.578	OK
11-12-2024	08:34:41.513	217.092	7.496	7.496	27.501	939	0	1.0914	OK	11-12-2024	08:34:41.513	217.092	37.578	OK
11-12-2024	08:34:41.686	217.265	7.497	7.497	27.502	939	0	1.0913	OK	11-12-2024	08:34:41.686	217.265	37.577	OK
11-12-2024	08:34:41.786	217.365	7.496	7.496	27.499	939	0	1.0915	OK	11-12-2024	08:34:41.786	217.365	37.577	OK
11-12-2024	08:34:41.887	217.466	7.497	7.497	27.501	939	0	1.0913	OK	11-12-2024	08:34:41.887	217.466	37.577	OK
11-12-2024	08:34:41.995	217.574	7.496	7.496	27.497	939	0	1.0916	OK	11-12-2024	08:34:41.995	217.574	37.576	OK
11-12-2024	08:34:42.085	217.664	7.496	7.496	27.497	939	0	1.0916	OK	11-12-2024	08:34:42.085	217.664	37.576	OK
11-12-2024	08:34:42.254	217.833	7.496	7.496	27.500	939	0	1.0914	OK	11-12-2024	08:34:42.254	217.833	37.577	OK
11-12-2024	08:34:42.508	218.087	7.496	7.496	27.500	939	0	1.0914	OK	11-12-2024	08:34:42.508	218.087	37.577	OK
11-12-2024	08:34:42.687	218.266	7.497	7.497	27.502	939	0	1.0913	OK	11-12-2024	08:34:42.687	218.266	37.578	OK
11-12-2024	08:34:42.787	218.366	7.496	7.496	27.500	939	0	1.0914	OK	11-12-2024	08:34:42.787	218.366	37.578	OK
11-12-2024	08:34:42.887	218.465	7.496	7.496	27.495	939	0	1.0918	OK	11-12-2024	08:34:42.887	218.465	37.579	OK
11-12-2024	08:34:42.997	218.576	7.495	7.495	27.492	939	0	1.0920	OK	11-12-2024	08:34:42.997	218.576	37.579	OK
11-12-2024	08:34:43.087	218.666	7.495	7.495	27.488	939	0	1.0922	OK	11-12-2024	08:34:43.087	218.666	37.580	OK
11-12-2024	08:34:43.256	218.835	7.496	7.496	27.499	939	0	1.0915	OK	11-12-2024	08:34:43.256	218.835	37.579	OK
11-12-2024	08:34:43.517	219.096	7.496	7.496	27.500	939	0	1.0914	OK	11-12-2024	08:34:43.517	219.096	37.580	OK
11-12-2024	08:34:43.689	219.267	7.496	7.496	27.500	939	0	1.0914	OK	11-12-2024	08:34:43.689	219.267	37.581	OK
11-12-2024	08:34:43.788	219.367	7.496	7.496	27.498	939	0	1.0915	OK	11-12-2024	08:34:43.788	219.367	37.581	OK
11-12-2024	08:34:43.888	219.467	7.495	7.495	27.494	939	0	1.0918	OK	11-12-2024	08:34:43.888	219.467	37.581	OK
11-12-2024	08:34:43.997	219.576	7.496	7.496	27.498	939	0	1.0915	OK	11-12-2024	08:34:43.997	219.576	37.581	OK
11-12-2024	08:34:44.252	219.831	7.497	7.497	27.501	939	0	1.0913	OK	11-12-2024	08:34:44.252	219.831	37.581	OK
11-12-2024	08:34:44.509	220.088	7.497	7.497	27.504	939	0	1.0911	OK	11-12-2024	08:34:44.509	220.088	37.581	OK
11-12-2024	08:34:44.689	220.268	7.497	7.497	27.505	939	0	1.0911	OK	11-12-2024	08:34:44.689	220.268	37.582	OK
11-12-2024	08:34:44.789	220.368	7.496	7.496	27.500	939	0	1.0915	OK	11-12-2024	08:34:44.789	220.368	37.582	OK
11-12-2024	08:34:44.891	220.470	7.496	7.496	27.500	939	0	1.0915	OK	11-12-2024	08:34:44.891	220.470	37.583	OK
11-12-2024	08:34:45.012	220.591	7.496	7.496	27.499	939	0	1.0915	OK	11-12-2024	08:34:45.012	220.591	37.583	OK
11-12-2024	08:34:45.253	220.832	7.497	7.497	27.503	939	0	1.0913	OK	11-12-2024	08:34:45.253	220.832	37.583	OK
11-12-2024	08:34:45.523	221.102	7.498	7.498	27.509	939	0	1.0908	OK	11-12-2024	08:34:45.523	221.102	37.583	OK
11-12-2024	08:34:45.693	221.272	7.497	7.497	27.503	939	0	1.0912	OK	11-12-2024	08:34:45.693	221.272	37.583	OK
11-12-2024	08:34:45.792	221.371	7.497	7.497	27.503	939	0	1.0912	OK	11-12-2024	08:34:45.792	221.371	37.583	OK
11-12-2024	08:34:45.893	221.472	7.496	7.496	27.500	939	0	1.0914	OK	11-12-2024	08:34:45.893	221.472	37.582	OK
11-12-2024	08:34:45.999	221.578	7.495	7.495	27.494	939	0	1.0918	OK	11-12-2024	08:34:45.999	221.578	37.582	OK
11-12-2024	08:34:46.094	221.672	7.496	7.496	27.497	939	0	1.0916	OK	11-12-2024	08:34:46.094	221.672	37.580	OK
11-12-2024	08:34:46.264	221.843	7.497	7.497	27.504	939	0	1.0911	OK	11-12-2024	08:34:46.264	221.843	37.580	OK
11-12-2024	08:34:46.536	222.115	7.497	7.497	27.501	939	0	1.0913	OK	11-12-2024	08:34:46.536	222.115	37.580	OK
11-12-2024	08:34:46.693	222.272	7.496	7.496	27.498	939	0	1.0916	OK	11-12-2024	08:34:46.693	222.272	37.581	OK
11-12-2024	08:34:46.794	222.372	7.496	7.496	27.500	939	0	1.0915	OK	11-12-2024	08:34:46.794	222.372	37.581	OK
11-12-2024	08:34:46.893	222.472	7.495	7.495	27.494	939	0	1.0919	OK	11-12-2024	08:34:46.893	222.472	37.580	OK
11-12-2024	08:34:46.997	222.576	7.496	7.496	27.498	939	0	1.0916	OK	11-12-2024	08:34:46.997	222.576	37.580	OK
11-12-2024	08:34:47.093	222.672	7.496	7.496	27.499	939	0	1.0915	OK	11-12-2024	08:34:47.093	222.672	37.579	OK
11-12-2024	08:34:47.267	222.846	7.497	7.497	27.502	939	0	1.0913	OK	11-12-2024	08:34:47.267	222.846	37.579	OK
11-12-2024	08:34:47.525	223.104	7.497	7.497	27.505	939	0	1.0911	OK	11-12-2024	08:34:47.525	223.104	37.578	OK
11-12-2024	08:34:47.693	223.272	7.497	7.497	27.506	939	0	1.0910	OK	11-12-2024	08:34:47.693	223.272	37.577	OK
11-12-2024	08:34:47.794	223.372	7.496	7.496	27.501	939	0	1.0914	OK	11-12-2024	08:34:47.794	223.372	37.577	OK
11-12-2024	08:34:47.894	223.473	7.496	7.496	27.499	939	0	1.0915	OK	11-12-2024	08:34:47.894	223.473	37.578	OK
11-12-2024	08:34:47.999	223.578	7.497	7.497	27.502	939	0	1.0913	OK	11-12-2024	08:34:47.999	223.578	37.578	OK
11-12-2024	08:34:48.253	223.832	7.497	7.497	27.506	939	0	1.0910	OK	11-12-2024	08:34:48.253	223.832	37.577	OK
11-12-2024	08:34:48.528	224.107	7.497	7.497	27.506	939	0	1.0910	OK	11-12-2024	08:34:48.528	224.107	37.575	OK
11-12-2024	08:34:48.694	224.273	7.498	7.498	27.508	939	0	1.0909	OK	11-12-2024	08:34:48.694	224.273	37.575	OK
11-12-2024	08:34:48.795	224.374	7.496	7.496	27.499	939	0	1.0915	OK	11-12-2024	08:34:48.795	224.374	37.575	OK
11-12-2024	08:34:48.894	224.473	7.496	7.496	27.496	939	0	1.0917	OK	11-12-2024	08:34:48.894	224.473	37.575	OK
11-12-2024	08:34:48.998	224.577	7.496	7.496	27.497	939	0	1.0917	OK	11-12-2024	08:34:48.998	224.577	37.575	OK
11-12-2024	08:34:49.094	224.673	7.497	7.497	27.501	939	0	1.0914	OK	11-12-2024	08:34:49.094	224.673	37.575	OK
11-12-2024	08:34:49.263	224.842	7.496	7.496	27.499	939	0	1.0915	OK	11-12-2024	08:34:49.263	224.842	37.575	OK
11-12-2024	08:34:49.520	225.099	7.497	7.497	27.505	939	0	1.0911	OK	11-12-2024	08:34:49.520	225.099	37.575	OK
11-12-2024	08:34:49.697	225.276	7.497	7.497	27.504	939	0	1.0912	OK	11-12-2024	08:34:49.697	225.276	37.575	OK
11-12-2024	08:34:49.797	225.376	7.497	7.497	27.502	939	0	1.0913	OK	11-12-2024	08:34:49.797	225.376	37.574	OK
11-12-2024	08:34:49.897	225.476	7.496	7.496	27.497	939	0	1.0916	OK	11-12-2024	08:34:49.897	225.476	37.574	OK
11-12-2024	08:34:49.998	225.577	7.496	7.496	27.499	938	0	1.0915	OK	11-12-2024	08:34:49.998	225.577	37.574	OK
11-12-2024	08:34:50.100	225.679	7.495	7.495	27.491	939	0	1.0920	OK	11-12-2024	08:34:50.100	225.679	37.574	OK
11-12-2024	08:34:50.273	225.852	7.496	7.496	27.495	939	0	1.0918	OK	11-12-2024	08:34:50.273	225.852	37.574	OK
11-12-2024	08:34:50.532	226.111	7.497	7.497	27.501	939	0	1.0913	OK	11-12-2024	08:34:50.532	226.111	37.574	OK
11-12-2024	08:34:50.703	226.282	7.496	7.496	27.499	939	0	1.0915	OK	11-12-2024	08:34:50.703	226.282	37.574	OK
11-12-2024	08:34:50.805	226.384	7.496	7.496	27.499	939	0	1.0915	OK	11-12-2024	08:34:50.805	226.384	37.574	OK
11-12-2024	08:34:50.902	226.481	7.495	7.495	27.493	939	0	1.0919	OK	11-12-2024	08:34:50.902	226.481	37.574	OK
11-12-2024	08:34:51.002	226.581	7.495	7.495	27.493	939	0	1.0919	OK	11-12-2024	08:34:51.002	226.581	37.576	OK
11-12-2024	08:34:51.102	226.681	7.496	7.496	27.497	938	0	1.0917	OK	11-12-2024	08:34:51.102	226.681	37.576	OK
11-12-2024	08:34:51.277	226.856	7.496	7.496	27.495	939	0	1.0918	OK	11-12-2024	08:34:51.277	226.856	37.575	OK
11-12-2024	08:34:51.549	227.127	7.497	7.497	27.501	939	0	1.0914	OK	11-12-2024	08:34:51.549	227.127	37.575	OK
11-12-2024	08:34:51.705	227.284	7.497	7.497	27.501	939	0	1.0914	OK	11-12-2024	08:34:51.705	227.284	37.575	OK
11-12-2024	08:34:51.803	227.382	7.496	7.496	27.495	939	0	1.0918	OK	11-12-2024	08:34:51.803	227.382	37.575	OK
11-12-2024	08:34:51.904	227.483	7.496	7.496	27.495	939	0	1.0918	OK	11-12-2024	08:34:51.904	227.483	37.575	OK
11-12-2024	08:34:52.005	227.584	7.495	7.495	27.493	939	0	1.0919	OK	11-12-2024	08:34:52.005	227.584	37.576	OK
11-12-2024	08:34:52.105	227.684	7.495	7.495	27.492	939	0	1.0920	OK	11-12-2024	08:34:52.105	227.684	37.576	OK
11-12-2024	08:34:52.293	227.872	7.496	7.496	27.500	939	0	1.0914	OK	11-12-2024	08:34:52.293	227.872	37.577	OK
11-12-2024	08:34:52.567	228.146	7.497	7.497	27.506	939	0	1.0910	OK	11-12-2024	08:34:52.567	228.146	37.577	OK
11-12-2024	08:34:52.707	228.286	7.497	7.497	27.501	939	0	1.0913	OK	11-12-2024	08:34:52.707	228.286	37.577	OK
11-12-2024	08:34:52.806	228.385	7.497	7.497	27.504	939	0	1.0912	OK	11-12-2024	08:34:52.806	228.385	37.577	OK
11-12-2024	08:34:52.906	228.485	7.496	7.496	27.501	939	0	1.0914	OK	11-12-2024	08:34:52.906	228.485	37.577	OK
11-12-2024	08:34:53.006	228.585	7.495	7.495	27.492	939	0	1.0920	OK	11-12-2024	08:34:53.006	228.585	37.577	OK
11-12-2024	08:34:53.107	228.686	7.496	7.496	27.495	939	0	1.0918	OK	11-12-2024	08:34:53.107	228.686	37.577	OK
11-12-2024	08:34:53.279	228.858	7.496	7.496	27.499	939	0	1.0915	OK	11-12-2024	08:34:53.279	228.858	37.577	OK
11-12-2024	08:34:53.536	229.115	7.496	7.496	27.501	939	0	1.0914	OK	11-12-2024	08:34:53.536	229.115	37.576	OK
11-12-2024	08:34:53.706	229.285	7.497	7.497	27.503	939	0	1.0913	OK	11-12-2024	08:34:53.706	229.285	37.576	OK
11-12-2024	08:34:53.806	229.385	7.496	7.496	27.496	939	0	1.0917	OK	11-12-2024	08:34:53.806	229.385	37.576	OK
11-12-2024	08:34:53.907	229.486	7.496	7.496	27.496	938	0	1.0917	OK	11-12-2024	08:34:53.907	229.486	37.576	OK
11-12-2024	08:34:54.009	229.588	7.495	7.495	27.494	939	0	1.0919	OK	11-12-2024	08:34:54.009	229.588	37.576	OK
11-12-2024	08:34:54.110	229.689	7.495	7.495	27.494	939	0	1.0919	OK	11-12-2024	08:34:54.110	229.689	37.576	OK
11-12-2024	08:34:54.282	229.861	7.495	7.495	27.494	939	0	1.0919	OK	11-12-2024	08:34:54.282	229.861	37.575	OK
11-12-2024	08:34:54.539	230.118	7.496	7.496	27.501	939	0	1.0914	OK	11-12-2024	08:34:54.539	230.118	37.576	OK
11-12-2024	08:34:54.711	230.290	7.496	7.496	27.497	939	0	1.0917	OK	11-12-2024	08:34:54.711	230.290	37.575	OK
11-12-2024	08:34:54.813	230.392	7.496	7.496	27.499	939	0	1.0915	OK	11-12-2024	08:34:54.813	230.392	37.575	OK
11-12-2024	08:34:54.914	230.493	7.496	7.496	27.495	939	0	1.0918	OK	11-12-2024	08:34:54.914	230.493	37.575	OK
11-12-2024	08:34:55.014	230.593	7.496	7.496	27.497	939	0	1.0916	OK	11-12-2024	08:34:55.014	230.593	37.576	OK
11-12-2024	08:34:55.114	230.693	7.495	7.495	27.491	939	0	1.0920	OK	11-12-2024	08:34:55.114	230.693	37.576	OK
11-12-2024	08:34:55.286	230.865	7.496	7.496	27.497	939	0	1.0916	OK	11-12-2024	08:34:55.286	230.865	37.575	OK
11-12-2024	08:34:55.542	231.121	7.497	7.497	27.502	939	0	1.0913	OK	11-12-2024	08:34:55.542	231.121	37.575	OK
11-12-2024	08:34:55.717	231.296	7.496	7.496	27.498	939	0	1.0915	OK	11-12-2024	08:34:55.717	231.296	37.576	OK
11-12-2024	08:34:55.815	231.394	7.496	7.496	27.497	939	0	1.0916	OK	11-12-2024	08:34:55.815	231.394	37.575	OK
11-12-2024	08:34:55.916	231.495	7.496	7.496	27.496	939	0	1.0916	OK	11-12-2024	08:34:55.916	231.495	37.575	OK
11-12-2024	08:34:56.016	231.594	7.496	7.496	27.496	939	0	1.0916	OK	11-12-2024	08:34:56.016	231.594	37.576	OK
11-12-2024	08:34:56.115	231.694	7.495	7.495	27.491	939	0	1.0920	OK	11-12-2024	08:34:56.115	231.694	37.576	OK
11-12-2024	08:34:56.301	231.880	7.496	7.496	27.499	939	0	1.0914	OK	11-12-2024	08:34:56.301	231.880	37.577	OK
11-12-2024	08:34:56.574	232.153	7.497	7.497	27.500	939	0	1.0914	OK	11-12-2024	08:34:56.574	232.153	37.577	OK
11-12-2024	08:34:56.717	232.296	7.496	7.496	27.498	939	0	1.0915	OK	11-12-2024	08:34:56.717	232.296	37.578	OK
11-12-2024	08:34:56.816	232.395	7.496	7.496	27.496	939	0	1.0916	OK	11-12-2024	08:34:56.816	232.395	37.578	OK
11-12-2024	08:34:56.918	232.497	7.495	7.495	27.491	939	0	1.0920	OK	11-12-2024	08:34:56.918	232.497	37.578	OK
11-12-2024	08:34:57.018	232.597	7.495	7.495	27.489	939	0	1.0922	OK	11-12-2024	08:34:57.018	232.597	37.579	OK
11-12-2024	08:34:57.119	232.698	7.495	7.495	27.491	939	0	1.0920	OK	11-12-2024	08:34:57.119	232.698	37.579	OK
11-12-2024	08:34:57.288	232.867	7.497	7.497	27.502	939	0	1.0913	OK	11-12-2024	08:34:57.288	232.867	37.579	OK
11-12-2024	08:34:57.542	233.121	7.497	7.497	27.502	939	0	1.0913	OK	11-12-2024	08:34:57.542	233.121	37.580	OK
11-12-2024	08:34:57.718	233.297	7.496	7.496	27.499	939	0	1.0915	OK	11-12-2024	08:34:57.718	233.297	37.580	OK
11-12-2024	08:34:57.817	233.396	7.496	7.496	27.501	939	0	1.0913	OK	11-12-2024	08:34:57.817	233.396	37.582	OK
11-12-2024	08:34:57.918	233.497	7.496	7.496	27.499	939	0	1.0915	OK	11-12-2024	08:34:57.918	233.497	37.582	OK
11-12-2024	08:34:58.020	233.599	7.495	7.495	27.494	938	0	1.0919	OK	11-12-2024	08:34:58.020	233.599	37.582	OK
11-12-2024	08:34:58.121	233.700	7.495	7.495	27.494	938	0	1.0919	OK	11-12-2024	08:34:58.121	233.700	37.582	OK
11-12-2024	08:34:58.307	233.886	7.495	7.495	27.494	939	0	1.0919	OK	11-12-2024	08:34:58.307	233.886	37.581	OK
11-12-2024	08:34:58.579	234.158	7.497	7.497	27.502	939	0	1.0913	OK	11-12-2024	08:34:58.579	234.158	37.582	OK
11-12-2024	08:34:58.723	234.302	7.496	7.496	27.498	939	0	1.0916	OK	11-12-2024	08:34:58.723	234.302	37.581	OK
11-12-2024	08:34:58.824	234.403	7.496	7.496	27.496	939	0	1.0917	OK	11-12-2024	08:34:58.824	234.403	37.581	OK
11-12-2024	08:34:58.925	234.504	7.496	7.496	27.495	939	0	1.0918	OK	11-12-2024	08:34:58.925	234.504	37.580	OK
11-12-2024	08:34:59.024	234.603	7.495	7.495	27.490	939	0	1.0921	OK	11-12-2024	08:34:59.024	234.603	37.580	OK
11-12-2024	08:34:59.124	234.703	7.495	7.495	27.492	939	0	1.0920	OK	11-12-2024	08:34:59.124	234.703	37.580	OK
11-12-2024	08:34:59.295	234.874	7.496	7.496	27.495	939	0	1.0918	OK	11-12-2024	08:34:59.295	234.874	37.580	OK
11-12-2024	08:34:59.566	235.145	7.496	7.496	27.499	939	0	1.0915	OK	11-12-2024	08:34:59.566	235.145	37.578	OK
11-12-2024	08:34:59.725	235.304	7.497	7.497	27.501	939	0	1.0913	OK	11-12-2024	08:34:59.725	235.304	37.578	OK
11-12-2024	08:34:59.825	235.404	7.496	7.496	27.494	939	0	1.0918	OK	11-12-2024	08:34:59.825	235.404	37.578	OK
11-12-2024	08:34:59.925	235.504	7.495	7.495	27.490	939	0	1.0921	OK	11-12-2024	08:34:59.925	235.504	37.578	OK
11-12-2024	08:35:00.026	235.605	7.495	7.495	27.491	939	0	1.0920	OK	11-12-2024	08:35:00.026	235.605	37.578	OK
11-12-2024	08:35:00.126	235.705	7.496	7.496	27.495	938	0	1.0918	OK	11-12-2024	08:35:00.126	235.705	37.577	OK
11-12-2024	08:35:00.298	235.877	7.496	7.496	27.496	938	0	1.0917	OK	11-12-2024	08:35:00.298	235.877	37.577	OK
11-12-2024	08:35:00.555	236.134	7.496	7.496	27.500	939	0	1.0914	OK	11-12-2024	08:35:00.555	236.134	37.576	OK
11-12-2024	08:35:00.726	236.305	7.496	7.496	27.500	938	0	1.0914	OK	11-12-2024	08:35:00.726	236.305	37.576	OK
11-12-2024	08:35:00.827	236.406	7.495	7.495	27.493	939	0	1.0919	OK	11-12-2024	08:35:00.827	236.406	37.576	OK
11-12-2024	08:35:00.927	236.506	7.496	7.496	27.495	939	0	1.0918	OK	11-12-2024	08:35:00.927	236.506	37.576	OK
11-12-2024	08:35:01.028	236.607	7.495	7.495	27.493	938	0	1.0919	OK	11-12-2024	08:35:01.028	236.607	37.576	OK
11-12-2024	08:35:01.128	236.707	7.495	7.495	27.493	938	0	1.0919	OK	11-12-2024	08:35:01.128	236.707	37.574	OK
11-12-2024	08:35:01.297	236.876	7.496	7.496	27.497	939	0	1.0916	OK	11-12-2024	08:35:01.297	236.876	37.574	OK
11-12-2024	08:35:01.555	237.134	7.496	7.496	27.499	939	0	1.0915	OK	11-12-2024	08:35:01.555	237.134	37.574	OK
11-12-2024	08:35:01.728	237.307	7.496	7.496	27.499	939	0	1.0915	OK	11-12-2024	08:35:01.728	237.307	37.575	OK
11-12-2024	08:35:01.827	237.406	7.496	7.496	27.496	939	0	1.0917	OK	11-12-2024	08:35:01.827	237.406	37.575	OK
11-12-2024	08:35:01.928	237.507	7.496	7.496	27.495	938	0	1.0918	OK	11-12-2024	08:35:01.928	237.507	37.575	OK
11-12-2024	08:35:02.028	237.607	7.495	7.495	27.493	938	0	1.0919	OK	11-12-2024	08:35:02.028	237.607	37.575	OK
11-12-2024	08:35:02.128	237.707	7.495	7.495	27.491	938	0	1.0920	OK	11-12-2024	08:35:02.128	237.707	37.577	OK
11-12-2024	08:35:02.300	237.879	7.496	7.496	27.497	939	0	1.0916	OK	11-12-2024	08:35:02.300	237.879	37.576	OK
11-12-2024	08:35:02.557	238.136	7.496	7.496	27.499	938	0	1.0915	OK	11-12-2024	08:35:02.557	238.136	37.576	OK
11-12-2024	08:35:02.732	238.311	7.497	7.497	27.501	938	0	1.0913	OK	11-12-2024	08:35:02.732	238.311	37.576	OK
11-12-2024	08:35:02.834	238.413	7.496	7.496	27.498	939	0	1.0915	OK	11-12-2024	08:35:02.834	238.413	37.576	OK
11-12-2024	08:35:02.934	238.513	7.496	7.496	27.497	939	0	1.0916	OK	11-12-2024	08:35:02.934	238.513	37.577	OK
11-12-2024	08:35:03.036	238.615	7.496	7.496	27.495	939	0	1.0917	OK	11-12-2024	08:35:03.036	238.615	37.577	OK
11-12-2024	08:35:03.133	238.712	7.496	7.496	27.498	939	0	1.0915	OK	11-12-2024	08:35:03.133	238.712	37.578	OK
11-12-2024	08:35:03.307	238.886	7.495	7.495	27.493	939	0	1.0918	OK	11-12-2024	08:35:03.307	238.886	37.579	OK
11-12-2024	08:35:03.562	239.141	7.497	7.497	27.502	939	0	1.0912	OK	11-12-2024	08:35:03.562	239.141	37.578	OK
11-12-2024	08:35:03.734	239.313	7.496	7.496	27.498	939	0	1.0915	OK	11-12-2024	08:35:03.734	239.313	37.579	OK
11-12-2024	08:35:03.834	239.413	7.497	7.497	27.500	938	0	1.0914	OK	11-12-2024	08:35:03.834	239.413	37.579	OK
11-12-2024	08:35:03.935	239.513	7.496	7.496	27.496	939	0	1.0916	OK	11-12-2024	08:35:03.935	239.513	37.579	OK
11-12-2024	08:35:04.034	239.613	7.496	7.496	27.495	939	0	1.0917	OK	11-12-2024	08:35:04.034	239.613	37.579	OK
11-12-2024	08:35:04.135	239.714	7.496	7.496	27.495	938	0	1.0917	OK	11-12-2024	08:35:04.135	239.714	37.580	OK
11-12-2024	08:35:04.305	239.884	7.496	7.496	27.498	938	0	1.0915	OK	11-12-2024	08:35:04.305	239.884	37.580	OK
11-12-2024	08:35:04.576	240.155	7.497	7.497	27.505	939	0	1.0910	OK	11-12-2024	08:35:04.576	240.155	37.581	OK
11-12-2024	08:35:04.735	240.314	7.497	7.497	27.503	939	0	1.0912	OK	11-12-2024	08:35:04.735	240.314	37.581	OK
11-12-2024	08:35:04.835	240.414	7.496	7.496	27.495	939	0	1.0917	OK	11-12-2024	08:35:04.835	240.414	37.581	OK
11-12-2024	08:35:04.935	240.514	7.496	7.496	27.496	939	0	1.0916	OK	11-12-2024	08:35:04.935	240.514	37.580	OK
11-12-2024	08:35:05.038	240.616	7.496	7.496	27.497	938	0	1.0916	OK	11-12-2024	08:35:05.038	240.616	37.580	OK
11-12-2024	08:35:05.138	240.717	7.496	7.496	27.498	938	0	1.0915	OK	11-12-2024	08:35:05.138	240.717	37.579	OK
11-12-2024	08:35:05.308	240.887	7.496	7.496	27.494	939	0	1.0918	OK	11-12-2024	08:35:05.308	240.887	37.579	OK
11-12-2024	08:35:05.580	241.159	7.497	7.497	27.501	939	0	1.0913	OK	11-12-2024	08:35:05.580	241.159	37.579	OK
11-12-2024	08:35:05.739	241.318	7.497	7.497	27.501	939	0	1.0913	OK	11-12-2024	08:35:05.739	241.318	37.580	OK
11-12-2024	08:35:05.840	241.419	7.497	7.497	27.502	939	0	1.0912	OK	11-12-2024	08:35:05.840	241.419	37.580	OK
11-12-2024	08:35:05.940	241.519	7.496	7.496	27.496	939	0	1.0916	OK	11-12-2024	08:35:05.940	241.519	37.581	OK
11-12-2024	08:35:06.040	241.619	7.496	7.496	27.496	939	0	1.0916	OK	11-12-2024	08:35:06.040	241.619	37.581	OK
11-12-2024	08:35:06.140	241.719	7.496	7.496	27.494	938	0	1.0918	OK	11-12-2024	08:35:06.140	241.719	37.580	OK
11-12-2024	08:35:06.310	241.889	7.496	7.496	27.499	939	0	1.0914	OK	11-12-2024	08:35:06.310	241.889	37.580	OK
11-12-2024	08:35:06.568	242.147	7.497	7.497	27.502	939	0	1.0912	OK	11-12-2024	08:35:06.568	242.147	37.579	OK
11-12-2024	08:35:06.740	242.319	7.497	7.497	27.506	939	0	1.0909	OK	11-12-2024	08:35:06.740	242.319	37.579	OK
11-12-2024	08:35:06.839	242.418	7.496	7.496	27.497	939	0	1.0916	OK	11-12-2024	08:35:06.839	242.418	37.579	OK
11-12-2024	08:35:06.941	242.520	7.496	7.496	27.495	938	0	1.0917	OK	11-12-2024	08:35:06.941	242.520	37.579	OK
11-12-2024	08:35:07.141	242.720	7.496	7.496	27.498	939	0	1.0915	OK	11-12-2024	08:35:07.141	242.720	37.578	OK
11-12-2024	08:35:07.311	242.889	7.497	7.497	27.506	939	0	1.0909	OK	11-12-2024	08:35:07.311	242.889	37.577	OK
11-12-2024	08:35:07.571	243.150	7.497	7.497	27.500	939	0	1.0914	OK	11-12-2024	08:35:07.571	243.150	37.575	OK
11-12-2024	08:35:07.741	243.320	7.497	7.497	27.503	939	0	1.0912	OK	11-12-2024	08:35:07.741	243.320	37.575	OK
11-12-2024	08:35:07.841	243.420	7.496	7.496	27.497	939	0	1.0916	OK	11-12-2024	08:35:07.841	243.420	37.575	OK
11-12-2024	08:35:07.942	243.521	7.496	7.496	27.496	939	0	1.0916	OK	11-12-2024	08:35:07.942	243.521	37.575	OK
11-12-2024	08:35:08.042	243.621	7.496	7.496	27.497	939	0	1.0916	OK	11-12-2024	08:35:08.042	243.621	37.575	OK
11-12-2024	08:35:08.141	243.720	7.496	7.496	27.496	939	0	1.0917	OK	11-12-2024	08:35:08.141	243.720	37.575	OK
11-12-2024	08:35:08.314	243.893	7.496	7.496	27.495	939	0	1.0918	OK	11-12-2024	08:35:08.314	243.893	37.575	OK
11-12-2024	08:35:08.565	244.144	7.497	7.497	27.502	939	0	1.0913	OK	11-12-2024	08:35:08.565	244.144	37.576	OK
11-12-2024	08:35:08.742	244.321	7.496	7.496	27.499	939	0	1.0915	OK	11-12-2024	08:35:08.742	244.321	37.576	OK
11-12-2024	08:35:08.841	244.420	7.496	7.496	27.498	939	0	1.0915	OK	11-12-2024	08:35:08.841	244.420	37.577	OK
11-12-2024	08:35:08.943	244.522	7.496	7.496	27.495	939	0	1.0918	OK	11-12-2024	08:35:08.943	244.522	37.577	OK
11-12-2024	08:35:09.043	244.622	7.496	7.496	27.495	939	0	1.0917	OK	11-12-2024	08:35:09.043	244.622	37.577	OK
11-12-2024	08:35:09.144	244.723	7.495	7.495	27.492	939	0	1.0919	OK	11-12-2024	08:35:09.144	244.723	37.577	OK
11-12-2024	08:35:09.331	244.910	7.497	7.497	27.500	939	0	1.0914	OK	11-12-2024	08:35:09.331	244.910	37.578	OK
11-12-2024	08:35:09.589	245.168	7.497	7.497	27.501	939	0	1.0913	OK	11-12-2024	08:35:09.589	245.168	37.578	OK
11-12-2024	08:35:09.744	245.323	7.497	7.497	27.504	939	0	1.0911	OK	11-12-2024	08:35:09.744	245.323	37.578	OK
11-12-2024	08:35:09.844	245.423	7.497	7.497	27.502	939	0	1.0912	OK	11-12-2024	08:35:09.844	245.423	37.579	OK
11-12-2024	08:35:09.945	245.524	7.495	7.495	27.493	939	0	1.0918	OK	11-12-2024	08:35:09.945	245.524	37.579	OK
11-12-2024	08:35:10.045	245.624	7.496	7.496	27.495	939	0	1.0917	OK	11-12-2024	08:35:10.045	245.624	37.580	OK
11-12-2024	08:35:10.261	245.840	7.497	7.497	27.501	939	0	1.0913	OK	11-12-2024	08:35:10.261	245.840	37.581	OK
11-12-2024	08:35:10.514	246.093	7.497	7.497	27.504	939	0	1.0911	OK	11-12-2024	08:35:10.514	246.093	37.583	OK
11-12-2024	08:35:10.646	246.225	7.496	7.496	27.498	939	0	1.0915	OK	11-12-2024	08:35:10.646	246.225	37.585	OK
11-12-2024	08:35:10.745	246.324	7.496	7.496	27.498	939	0	1.0915	OK	11-12-2024	08:35:10.745	246.324	37.585	OK
11-12-2024	08:35:10.846	246.425	7.496	7.496	27.495	939	0	1.0917	OK	11-12-2024	08:35:10.846	246.425	37.585	OK
11-12-2024	08:35:10.945	246.524	7.496	7.496	27.494	939	0	1.0918	OK	11-12-2024	08:35:10.945	246.524	37.585	OK
11-12-2024	08:35:11.047	246.626	7.496	7.496	27.496	939	0	1.0916	OK	11-12-2024	08:35:11.047	246.626	37.585	OK
11-12-2024	08:35:11.149	246.728	7.495	7.495	27.491	939	0	1.0920	OK	11-12-2024	08:35:11.149	246.728	37.585	OK
11-12-2024	08:35:11.336	246.915	7.496	7.496	27.494	939	0	1.0918	OK	11-12-2024	08:35:11.336	246.915	37.585	OK
11-12-2024	08:35:11.623	247.202	7.496	7.496	27.500	939	0	1.0914	OK	11-12-2024	08:35:11.623	247.202	37.586	OK
11-12-2024	08:35:11.749	247.328	7.497	7.497	27.504	939	0	1.0911	OK	11-12-2024	08:35:11.749	247.328	37.586	OK
11-12-2024	08:35:11.850	247.429	7.496	7.496	27.497	938	0	1.0916	OK	11-12-2024	08:35:11.850	247.429	37.586	OK
11-12-2024	08:35:11.950	247.529	7.495	7.495	27.492	939	0	1.0919	OK	11-12-2024	08:35:11.950	247.529	37.586	OK
11-12-2024	08:35:12.050	247.629	7.496	7.496	27.495	939	0	1.0917	OK	11-12-2024	08:35:12.050	247.629	37.585	OK
11-12-2024	08:35:12.149	247.728	7.495	7.495	27.493	939	0	1.0918	OK	11-12-2024	08:35:12.149	247.728	37.585	OK
11-12-2024	08:35:12.319	247.898	7.496	7.496	27.496	939	0	1.0916	OK	11-12-2024	08:35:12.319	247.898	37.585	OK
11-12-2024	08:35:12.577	248.156	7.497	7.497	27.502	939	0	1.0912	OK	11-12-2024	08:35:12.577	248.156	37.584	OK
11-12-2024	08:35:12.751	248.330	7.497	7.497	27.501	939	0	1.0913	OK	11-12-2024	08:35:12.751	248.330	37.584	OK
11-12-2024	08:35:12.852	248.430	7.496	7.496	27.500	939	0	1.0914	OK	11-12-2024	08:35:12.852	248.430	37.584	OK
11-12-2024	08:35:12.952	248.531	7.495	7.495	27.492	939	0	1.0919	OK	11-12-2024	08:35:12.952	248.531	37.584	OK
11-12-2024	08:35:13.050	248.629	7.496	7.496	27.496	939	0	1.0916	OK	11-12-2024	08:35:13.050	248.629	37.584	OK
11-12-2024	08:35:13.151	248.730	7.495	7.495	27.493	939	0	1.0918	OK	11-12-2024	08:35:13.151	248.730	37.584	OK
11-12-2024	08:35:13.321	248.900	7.496	7.496	27.498	939	0	1.0915	OK	11-12-2024	08:35:13.321	248.900	37.583	OK
11-12-2024	08:35:13.578	249.157	7.496	7.496	27.499	939	0	1.0914	OK	11-12-2024	08:35:13.578	249.157	37.583	OK
11-12-2024	08:35:13.752	249.331	7.496	7.496	27.498	939	0	1.0915	OK	11-12-2024	08:35:13.752	249.331	37.582	OK
11-12-2024	08:35:13.851	249.430	7.496	7.496	27.495	939	0	1.0917	OK	11-12-2024	08:35:13.851	249.430	37.581	OK
11-12-2024	08:35:13.950	249.529	7.496	7.496	27.496	939	0	1.0916	OK	11-12-2024	08:35:13.950	249.529	37.581	OK
11-12-2024	08:35:14.051	249.630	7.496	7.496	27.495	939	0	1.0917	OK	11-12-2024	08:35:14.051	249.630	37.581	OK
11-12-2024	08:35:14.151	249.730	7.496	7.496	27.494	939	0	1.0918	OK	11-12-2024	08:35:14.151	249.730	37.581	OK
11-12-2024	08:35:14.326	249.905	7.496	7.496	27.498	938	0	1.0915	OK	11-12-2024	08:35:14.326	249.905	37.581	OK
11-12-2024	08:35:14.598	250.177	7.497	7.497	27.502	939	0	1.0912	OK	11-12-2024	08:35:14.598	250.177	37.582	OK
11-12-2024	08:35:14.752	250.331	7.497	7.497	27.501	939	0	1.0913	OK	11-12-2024	08:35:14.752	250.331	37.582	OK
11-12-2024	08:35:14.852	250.431	7.496	7.496	27.500	939	0	1.0914	OK	11-12-2024	08:35:14.852	250.431	37.582	OK
11-12-2024	08:35:14.952	250.531	7.496	7.496	27.496	939	0	1.0916	OK	11-12-2024	08:35:14.952	250.531	37.582	OK
11-12-2024	08:35:15.052	250.631	7.496	7.496	27.496	939	0	1.0916	OK	11-12-2024	08:35:15.052	250.631	37.582	OK
11-12-2024	08:35:15.151	250.730	7.496	7.496	27.495	939	0	1.0917	OK	11-12-2024	08:35:15.151	250.730	37.582	OK
11-12-2024	08:35:15.320	250.899	7.497	7.497	27.500	939	0	1.0913	OK	11-12-2024	08:35:15.320	250.899	37.582	OK
11-12-2024	08:35:15.576	251.155	7.497	7.497	27.502	939	0	1.0912	OK	11-12-2024	08:35:15.576	251.155	37.583	OK
11-12-2024	08:35:15.752	251.331	7.496	7.496	27.499	939	0	1.0914	OK	11-12-2024	08:35:15.752	251.331	37.583	OK
11-12-2024	08:35:15.853	251.431	7.497	7.497	27.502	939	0	1.0912	OK	11-12-2024	08:35:15.853	251.431	37.583	OK
11-12-2024	08:35:15.953	251.532	7.496	7.496	27.499	939	0	1.0914	OK	11-12-2024	08:35:15.953	251.532	37.582	OK
11-12-2024	08:35:16.154	251.733	7.497	7.497	27.501	939	0	1.0913	OK	11-12-2024	08:35:16.154	251.733	37.582	OK
11-12-2024	08:35:16.322	251.901	7.497	7.497	27.503	939	0	1.0912	OK	11-12-2024	08:35:16.322	251.901	37.582	OK
11-12-2024	08:35:16.579	252.158	7.497	7.497	27.506	939	0	1.0909	OK	11-12-2024	08:35:16.579	252.158	37.581	OK
11-12-2024	08:35:16.754	252.333	7.496	7.496	27.499	939	0	1.0914	OK	11-12-2024	08:35:16.754	252.333	37.581	OK
11-12-2024	08:35:16.854	252.433	7.496	7.496	27.500	939	0	1.0914	OK	11-12-2024	08:35:16.854	252.433	37.581	OK
11-12-2024	08:35:16.954	252.533	7.496	7.496	27.494	939	0	1.0918	OK	11-12-2024	08:35:16.954	252.533	37.581	OK
11-12-2024	08:35:17.054	252.633	7.496	7.496	27.496	938	0	1.0916	OK	11-12-2024	08:35:17.054	252.633	37.581	OK
11-12-2024	08:35:17.153	252.732	7.496	7.496	27.494	938	0	1.0918	OK	11-12-2024	08:35:17.153	252.732	37.582	OK
11-12-2024	08:35:17.325	252.904	7.496	7.496	27.498	939	0	1.0915	OK	11-12-2024	08:35:17.325	252.904	37.581	OK
11-12-2024	08:35:17.583	253.162	7.497	7.497	27.506	939	0	1.0909	OK	11-12-2024	08:35:17.583	253.162	37.581	OK
11-12-2024	08:35:17.754	253.333	7.497	7.497	27.505	939	0	1.0910	OK	11-12-2024	08:35:17.754	253.333	37.581	OK
11-12-2024	08:35:17.854	253.433	7.496	7.496	27.498	939	0	1.0915	OK	11-12-2024	08:35:17.854	253.433	37.581	OK
11-12-2024	08:35:17.954	253.533	7.496	7.496	27.496	938	0	1.0916	OK	11-12-2024	08:35:17.954	253.533	37.580	OK
11-12-2024	08:35:18.056	253.635	7.496	7.496	27.495	939	0	1.0917	OK	11-12-2024	08:35:18.056	253.635	37.580	OK
11-12-2024	08:35:18.157	253.736	7.496	7.496	27.498	939	0	1.0915	OK	11-12-2024	08:35:18.157	253.736	37.580	OK
11-12-2024	08:35:18.328	253.906	7.496	7.496	27.497	939	0	1.0916	OK	11-12-2024	08:35:18.328	253.906	37.580	OK
11-12-2024	08:35:18.613	254.192	7.497	7.497	27.506	939	0	1.0909	OK	11-12-2024	08:35:18.613	254.192	37.579	OK
11-12-2024	08:35:18.756	254.335	7.497	7.497	27.504	939	0	1.0911	OK	11-12-2024	08:35:18.756	254.335	37.580	OK
11-12-2024	08:35:18.856	254.435	7.496	7.496	27.498	939	0	1.0915	OK	11-12-2024	08:35:18.856	254.435	37.580	OK
11-12-2024	08:35:18.956	254.535	7.496	7.496	27.498	939	0	1.0915	OK	11-12-2024	08:35:18.956	254.535	37.579	OK
11-12-2024	08:35:19.057	254.636	7.496	7.496	27.496	938	0	1.0916	OK	11-12-2024	08:35:19.057	254.636	37.579	OK
11-12-2024	08:35:19.156	254.735	7.496	7.496	27.494	938	0	1.0918	OK	11-12-2024	08:35:19.156	254.735	37.580	OK
11-12-2024	08:35:19.325	254.904	7.496	7.496	27.498	939	0	1.0915	OK	11-12-2024	08:35:19.325	254.904	37.580	OK
11-12-2024	08:35:19.583	255.162	7.497	7.497	27.502	939	0	1.0912	OK	11-12-2024	08:35:19.583	255.162	37.579	OK
11-12-2024	08:35:19.757	255.336	7.496	7.496	27.498	939	0	1.0915	OK	11-12-2024	08:35:19.757	255.336	37.580	OK
11-12-2024	08:35:19.857	255.436	7.497	7.497	27.501	939	0	1.0913	OK	11-12-2024	08:35:19.857	255.436	37.580	OK
11-12-2024	08:35:19.957	255.536	7.496	7.496	27.494	939	0	1.0918	OK	11-12-2024	08:35:19.957	255.536	37.580	OK
11-12-2024	08:35:20.057	255.636	7.496	7.496	27.495	939	0	1.0917	OK	11-12-2024	08:35:20.057	255.636	37.580	OK
11-12-2024	08:35:20.158	255.737	7.496	7.496	27.496	939	0	1.0916	OK	11-12-2024	08:35:20.158	255.737	37.581	OK
11-12-2024	08:35:20.329	255.908	7.496	7.496	27.496	939	0	1.0916	OK	11-12-2024	08:35:20.329	255.908	37.581	OK
11-12-2024	08:35:20.586	256.165	7.497	7.497	27.501	939	0	1.0912	OK	11-12-2024	08:35:20.586	256.165	37.581	OK
11-12-2024	08:35:20.759	256.338	7.497	7.497	27.504	939	0	1.0910	OK	11-12-2024	08:35:20.759	256.338	37.581	OK
11-12-2024	08:35:20.860	256.439	7.496	7.496	27.496	939	0	1.0916	OK	11-12-2024	08:35:20.860	256.439	37.581	OK
11-12-2024	08:35:20.960	256.539	7.496	7.496	27.498	939	0	1.0914	OK	11-12-2024	08:35:20.960	256.539	37.580	OK
11-12-2024	08:35:21.063	256.642	7.496	7.496	27.499	939	0	1.0914	OK	11-12-2024	08:35:21.063	256.642	37.580	OK
11-12-2024	08:35:21.160	256.739	7.495	7.495	27.491	939	0	1.0919	OK	11-12-2024	08:35:21.160	256.739	37.580	OK
11-12-2024	08:35:21.330	256.909	7.496	7.496	27.498	939	0	1.0915	OK	11-12-2024	08:35:21.330	256.909	37.580	OK
11-12-2024	08:35:21.589	257.168	7.497	7.497	27.505	939	0	1.0910	OK	11-12-2024	08:35:21.589	257.168	37.579	OK
11-12-2024	08:35:21.760	257.339	7.497	7.497	27.503	939	0	1.0912	OK	11-12-2024	08:35:21.760	257.339	37.579	OK
11-12-2024	08:35:21.861	257.440	7.497	7.497	27.502	939	0	1.0912	OK	11-12-2024	08:35:21.861	257.440	37.579	OK
11-12-2024	08:35:21.961	257.540	7.497	7.497	27.502	939	0	1.0912	OK	11-12-2024	08:35:21.961	257.540	37.579	OK
11-12-2024	08:35:22.061	257.640	7.496	7.496	27.496	939	0	1.0916	OK	11-12-2024	08:35:22.061	257.640	37.579	OK
11-12-2024	08:35:22.161	257.740	7.496	7.496	27.495	939	0	1.0917	OK	11-12-2024	08:35:22.161	257.740	37.578	OK
11-12-2024	08:35:22.328	257.907	7.496	7.496	27.499	939	0	1.0914	OK	11-12-2024	08:35:22.328	257.907	37.578	OK
11-12-2024	08:35:22.599	258.178	7.498	7.498	27.506	939	0	1.0909	OK	11-12-2024	08:35:22.599	258.178	37.578	OK
11-12-2024	08:35:22.760	258.339	7.496	7.496	27.499	939	0	1.0914	OK	11-12-2024	08:35:22.760	258.339	37.578	OK
11-12-2024	08:35:22.862	258.440	7.496	7.496	27.496	939	0	1.0916	OK	11-12-2024	08:35:22.862	258.440	37.579	OK
11-12-2024	08:35:22.961	258.540	7.495	7.495	27.492	939	0	1.0919	OK	11-12-2024	08:35:22.961	258.540	37.579	OK
11-12-2024	08:35:23.061	258.640	7.496	7.496	27.498	939	0	1.0914	OK	11-12-2024	08:35:23.061	258.640	37.578	OK
11-12-2024	08:35:23.161	258.740	7.496	7.496	27.496	939	0	1.0916	OK	11-12-2024	08:35:23.161	258.740	37.578	OK
11-12-2024	08:35:23.330	258.909	7.496	7.496	27.498	939	0	1.0914	OK	11-12-2024	08:35:23.330	258.909	37.579	OK
11-12-2024	08:35:23.585	259.164	7.497	7.497	27.503	939	0	1.0911	OK	11-12-2024	08:35:23.585	259.164	37.578	OK
11-12-2024	08:35:23.762	259.341	7.497	7.497	27.505	939	0	1.0910	OK	11-12-2024	08:35:23.762	259.341	37.578	OK
11-12-2024	08:35:23.862	259.441	7.497	7.497	27.500	939	0	1.0913	OK	11-12-2024	08:35:23.862	259.441	37.578	OK
11-12-2024	08:35:23.962	259.541	7.496	7.496	27.497	939	0	1.0915	OK	11-12-2024	08:35:23.962	259.541	37.578	OK
11-12-2024	08:35:24.062	259.641	7.496	7.496	27.497	939	0	1.0915	OK	11-12-2024	08:35:24.062	259.641	37.577	OK
11-12-2024	08:35:24.162	259.741	7.495	7.495	27.491	939	0	1.0919	OK	11-12-2024	08:35:24.162	259.741	37.577	OK
11-12-2024	08:35:24.333	259.912	7.497	7.497	27.500	938	0	1.0913	OK	11-12-2024	08:35:24.333	259.912	37.577	OK
11-12-2024	08:35:24.606	260.185	7.497	7.497	27.501	939	0	1.0912	OK	11-12-2024	08:35:24.606	260.185	37.578	OK
11-12-2024	08:35:24.762	260.341	7.497	7.497	27.502	939	0	1.0912	OK	11-12-2024	08:35:24.762	260.341	37.578	OK
11-12-2024	08:35:24.863	260.442	7.496	7.496	27.497	939	0	1.0915	OK	11-12-2024	08:35:24.863	260.442	37.579	OK
11-12-2024	08:35:24.963	260.542	7.496	7.496	27.496	939	0	1.0916	OK	11-12-2024	08:35:24.963	260.542	37.579	OK
11-12-2024	08:35:25.064	260.642	7.495	7.495	27.492	938	0	1.0919	OK	11-12-2024	08:35:25.064	260.642	37.579	OK
11-12-2024	08:35:25.164	260.743	7.496	7.496	27.494	939	0	1.0917	OK	11-12-2024	08:35:25.164	260.743	37.579	OK
11-12-2024	08:35:25.337	260.916	7.496	7.496	27.498	938	0	1.0914	OK	11-12-2024	08:35:25.337	260.916	37.579	OK
11-12-2024	08:35:25.592	261.171	7.497	7.497	27.503	939	0	1.0911	OK	11-12-2024	08:35:25.592	261.171	37.579	OK
11-12-2024	08:35:25.768	261.347	7.497	7.497	27.500	939	0	1.0913	OK	11-12-2024	08:35:25.768	261.347	37.579	OK
11-12-2024	08:35:25.868	261.447	7.496	7.496	27.494	938	0	1.0917	OK	11-12-2024	08:35:25.868	261.447	37.579	OK
11-12-2024	08:35:25.969	261.548	7.496	7.496	27.494	939	0	1.0917	OK	11-12-2024	08:35:25.969	261.548	37.579	OK
11-12-2024	08:35:26.069	261.648	7.496	7.496	27.494	938	0	1.0917	OK	11-12-2024	08:35:26.069	261.648	37.578	OK
11-12-2024	08:35:26.168	261.747	7.496	7.496	27.495	938	0	1.0917	OK	11-12-2024	08:35:26.168	261.747	37.578	OK
11-12-2024	08:35:26.337	261.916	7.496	7.496	27.498	939	0	1.0914	OK	11-12-2024	08:35:26.337	261.916	37.578	OK
11-12-2024	08:35:26.592	262.171	7.497	7.497	27.501	939	0	1.0912	OK	11-12-2024	08:35:26.592	262.171	37.577	OK
11-12-2024	08:35:26.770	262.349	7.497	7.497	27.504	939	0	1.0910	OK	11-12-2024	08:35:26.770	262.349	37.576	OK
11-12-2024	08:35:26.871	262.450	7.496	7.496	27.497	939	0	1.0915	OK	11-12-2024	08:35:26.871	262.450	37.575	OK
11-12-2024	08:35:26.971	262.550	7.495	7.495	27.490	938	0	1.0920	OK	11-12-2024	08:35:26.971	262.550	37.575	OK
11-12-2024	08:35:27.071	262.650	7.496	7.496	27.494	938	0	1.0917	OK	11-12-2024	08:35:27.071	262.650	37.575	OK
11-12-2024	08:35:27.172	262.751	7.495	7.495	27.491	938	0	1.0919	OK	11-12-2024	08:35:27.172	262.751	37.575	OK
11-12-2024	08:35:27.342	262.921	7.496	7.496	27.494	938	0	1.0917	OK	11-12-2024	08:35:27.342	262.921	37.575	OK
11-12-2024	08:35:27.600	263.179	7.497	7.497	27.500	939	0	1.0913	OK	11-12-2024	08:35:27.600	263.179	37.576	OK
11-12-2024	08:35:27.774	263.352	7.496	7.496	27.498	939	0	1.0914	OK	11-12-2024	08:35:27.774	263.352	37.575	OK
11-12-2024	08:35:27.875	263.454	7.496	7.496	27.496	938	0	1.0916	OK	11-12-2024	08:35:27.875	263.454	37.575	OK
11-12-2024	08:35:27.975	263.554	7.496	7.496	27.496	939	0	1.0916	OK	11-12-2024	08:35:27.975	263.554	37.575	OK
11-12-2024	08:35:28.075	263.654	7.496	7.496	27.496	939	0	1.0916	OK	11-12-2024	08:35:28.075	263.654	37.574	OK
11-12-2024	08:35:28.175	263.754	7.496	7.496	27.497	938	0	1.0915	OK	11-12-2024	08:35:28.175	263.754	37.574	OK
11-12-2024	08:35:28.349	263.928	7.497	7.497	27.499	939	0	1.0914	OK	11-12-2024	08:35:28.349	263.928	37.574	OK
11-12-2024	08:35:28.606	264.185	7.496	7.496	27.497	939	0	1.0915	OK	11-12-2024	08:35:28.606	264.185	37.574	OK
11-12-2024	08:35:28.776	264.355	7.496	7.496	27.498	939	0	1.0914	OK	11-12-2024	08:35:28.776	264.355	37.574	OK
11-12-2024	08:35:28.875	264.454	7.496	7.496	27.496	938	0	1.0916	OK	11-12-2024	08:35:28.875	264.454	37.575	OK
11-12-2024	08:35:28.976	264.555	7.496	7.496	27.496	939	0	1.0916	OK	11-12-2024	08:35:28.976	264.555	37.575	OK
11-12-2024	08:35:29.076	264.655	7.496	7.496	27.496	939	0	1.0916	OK	11-12-2024	08:35:29.076	264.655	37.575	OK
11-12-2024	08:35:29.177	264.755	7.496	7.496	27.496	938	0	1.0916	OK	11-12-2024	08:35:29.177	264.755	37.575	OK
11-12-2024	08:35:29.346	264.925	7.497	7.497	27.499	939	0	1.0914	OK	11-12-2024	08:35:29.346	264.925	37.575	OK
11-12-2024	08:35:29.617	265.196	7.497	7.497	27.503	939	0	1.0911	OK	11-12-2024	08:35:29.617	265.196	37.576	OK
11-12-2024	08:35:29.777	265.356	7.497	7.497	27.501	939	0	1.0912	OK	11-12-2024	08:35:29.777	265.356	37.577	OK
11-12-2024	08:35:29.877	265.456	7.496	7.496	27.495	938	0	1.0917	OK	11-12-2024	08:35:29.877	265.456	37.578	OK
11-12-2024	08:35:29.976	265.555	7.496	7.496	27.499	938	0	1.0914	OK	11-12-2024	08:35:29.976	265.555	37.578	OK
11-12-2024	08:35:30.077	265.656	7.496	7.496	27.493	938	0	1.0918	OK	11-12-2024	08:35:30.077	265.656	37.579	OK
11-12-2024	08:35:30.177	265.755	7.496	7.496	27.495	938	0	1.0917	OK	11-12-2024	08:35:30.177	265.755	37.579	OK
11-12-2024	08:35:30.349	265.928	7.496	7.496	27.496	938	0	1.0916	OK	11-12-2024	08:35:30.349	265.928	37.579	OK
11-12-2024	08:35:30.622	266.201	7.496	7.496	27.499	938	0	1.0914	OK	11-12-2024	08:35:30.622	266.201	37.580	OK
11-12-2024	08:35:30.779	266.358	7.497	7.497	27.501	938	0	1.0912	OK	11-12-2024	08:35:30.779	266.358	37.579	OK
11-12-2024	08:35:30.878	266.457	7.496	7.496	27.499	939	0	1.0914	OK	11-12-2024	08:35:30.878	266.457	37.579	OK
11-12-2024	08:35:30.979	266.558	7.496	7.496	27.496	938	0	1.0916	OK	11-12-2024	08:35:30.979	266.558	37.579	OK
11-12-2024	08:35:31.080	266.659	7.496	7.496	27.495	938	0	1.0917	OK	11-12-2024	08:35:31.080	266.659	37.579	OK
11-12-2024	08:35:31.180	266.759	7.495	7.495	27.492	938	0	1.0919	OK	11-12-2024	08:35:31.180	266.759	37.580	OK
11-12-2024	08:35:31.354	266.933	7.496	7.496	27.498	939	0	1.0914	OK	11-12-2024	08:35:31.354	266.933	37.580	OK
11-12-2024	08:35:31.610	267.189	7.496	7.496	27.498	939	0	1.0914	OK	11-12-2024	08:35:31.610	267.189	37.580	OK
11-12-2024	08:35:31.782	267.360	7.497	7.497	27.505	939	0	1.0910	OK	11-12-2024	08:35:31.782	267.360	37.581	OK
11-12-2024	08:35:31.879	267.458	7.496	7.496	27.493	939	0	1.0918	OK	11-12-2024	08:35:31.879	267.458	37.581	OK
11-12-2024	08:35:31.981	267.560	7.496	7.496	27.496	938	0	1.0916	OK	11-12-2024	08:35:31.981	267.560	37.581	OK
11-12-2024	08:35:32.081	267.660	7.495	7.495	27.492	939	0	1.0919	OK	11-12-2024	08:35:32.081	267.660	37.581	OK
11-12-2024	08:35:32.181	267.760	7.495	7.495	27.489	939	0	1.0921	OK	11-12-2024	08:35:32.181	267.760	37.580	OK
11-12-2024	08:35:32.353	267.932	7.496	7.496	27.494	939	0	1.0917	OK	11-12-2024	08:35:32.353	267.932	37.582	OK
11-12-2024	08:35:32.607	268.186	7.497	7.497	27.499	939	0	1.0913	OK	11-12-2024	08:35:32.607	268.186	37.582	OK
11-12-2024	08:35:32.781	268.360	7.497	7.497	27.503	939	0	1.0911	OK	11-12-2024	08:35:32.781	268.360	37.582	OK
11-12-2024	08:35:32.882	268.461	7.496	7.496	27.493	939	0	1.0917	OK	11-12-2024	08:35:32.882	268.461	37.582	OK
11-12-2024	08:35:32.982	268.561	7.495	7.495	27.491	939	0	1.0919	OK	11-12-2024	08:35:32.982	268.561	37.582	OK
11-12-2024	08:35:33.081	268.660	7.496	7.496	27.494	939	0	1.0917	OK	11-12-2024	08:35:33.081	268.660	37.582	OK
11-12-2024	08:35:33.182	268.761	7.495	7.495	27.489	939	0	1.0920	OK	11-12-2024	08:35:33.182	268.761	37.583	OK
11-12-2024	08:35:33.354	268.933	7.496	7.496	27.493	939	0	1.0917	OK	11-12-2024	08:35:33.354	268.933	37.582	OK
11-12-2024	08:35:33.610	269.189	7.496	7.496	27.497	939	0	1.0915	OK	11-12-2024	08:35:33.610	269.189	37.582	OK
11-12-2024	08:35:33.782	269.361	7.497	7.497	27.502	939	0	1.0912	OK	11-12-2024	08:35:33.782	269.361	37.582	OK
11-12-2024	08:35:33.883	269.462	7.496	7.496	27.494	939	0	1.0917	OK	11-12-2024	08:35:33.883	269.462	37.582	OK
11-12-2024	08:35:33.983	269.562	7.495	7.495	27.492	939	0	1.0919	OK	11-12-2024	08:35:33.983	269.562	37.583	OK
11-12-2024	08:35:34.082	269.661	7.496	7.496	27.496	939	0	1.0916	OK	11-12-2024	08:35:34.082	269.661	37.583	OK
11-12-2024	08:35:34.268	269.847	7.496	7.496	27.496	939	0	1.0916	OK	11-12-2024	08:35:34.268	269.847	37.582	OK
11-12-2024	08:35:34.537	270.116	7.497	7.497	27.502	939	0	1.0912	OK	11-12-2024	08:35:34.537	270.116	37.583	OK
11-12-2024	08:35:34.683	270.262	7.497	7.497	27.500	939	0	1.0913	OK	11-12-2024	08:35:34.683	270.262	37.583	OK
11-12-2024	08:35:34.782	270.361	7.496	7.496	27.497	939	0	1.0915	OK	11-12-2024	08:35:34.782	270.361	37.583	OK
11-12-2024	08:35:34.884	270.463	7.496	7.496	27.495	939	0	1.0917	OK	11-12-2024	08:35:34.884	270.463	37.583	OK
11-12-2024	08:35:34.985	270.564	7.496	7.496	27.494	939	0	1.0917	OK	11-12-2024	08:35:34.985	270.564	37.582	OK
11-12-2024	08:35:35.085	270.664	7.495	7.495	27.492	938	0	1.0919	OK	11-12-2024	08:35:35.085	270.664	37.582	OK
11-12-2024	08:35:35.267	270.846	7.497	7.497	27.503	939	0	1.0911	OK	11-12-2024	08:35:35.267	270.846	37.582	OK
11-12-2024	08:35:35.527	271.106	7.496	7.496	27.497	939	0	1.0915	OK	11-12-2024	08:35:35.527	271.106	37.583	OK
11-12-2024	08:35:35.684	271.263	7.496	7.496	27.498	939	0	1.0914	OK	11-12-2024	08:35:35.684	271.263	37.582	OK
11-12-2024	08:35:35.786	271.365	7.496	7.496	27.499	939	0	1.0914	OK	11-12-2024	08:35:35.786	271.365	37.581	OK
11-12-2024	08:35:35.986	271.565	7.497	7.497	27.502	939	0	1.0912	OK	11-12-2024	08:35:35.986	271.565	37.581	OK
11-12-2024	08:35:36.087	271.666	7.497	7.497	27.502	938	0	1.0912	OK	11-12-2024	08:35:36.087	271.666	37.581	OK
11-12-2024	08:35:36.266	271.845	7.497	7.497	27.501	939	0	1.0912	OK	11-12-2024	08:35:36.266	271.845	37.581	OK
11-12-2024	08:35:36.540	272.119	7.497	7.497	27.500	939	0	1.0913	OK	11-12-2024	08:35:36.540	272.119	37.579	OK
11-12-2024	08:35:36.688	272.267	7.497	7.497	27.501	939	0	1.0912	OK	11-12-2024	08:35:36.688	272.267	37.579	OK
11-12-2024	08:35:36.788	272.367	7.496	7.496	27.497	939	0	1.0915	OK	11-12-2024	08:35:36.788	272.367	37.578	OK
11-12-2024	08:35:36.889	272.468	7.497	7.497	27.499	939	0	1.0913	OK	11-12-2024	08:35:36.889	272.468	37.578	OK
11-12-2024	08:35:36.989	272.568	7.496	7.496	27.494	939	0	1.0917	OK	11-12-2024	08:35:36.989	272.568	37.578	OK
11-12-2024	08:35:37.089	272.667	7.496	7.496	27.495	939	0	1.0916	OK	11-12-2024	08:35:37.089	272.667	37.578	OK
11-12-2024	08:35:37.265	272.844	7.497	7.497	27.500	939	0	1.0913	OK	11-12-2024	08:35:37.265	272.844	37.577	OK
11-12-2024	08:35:37.521	273.100	7.496	7.496	27.497	939	0	1.0915	OK	11-12-2024	08:35:37.521	273.100	37.577	OK
11-12-2024	08:35:37.692	273.271	7.497	7.497	27.504	939	0	1.0910	OK	11-12-2024	08:35:37.692	273.271	37.577	OK
11-12-2024	08:35:37.792	273.371	7.496	7.496	27.498	939	0	1.0914	OK	11-12-2024	08:35:37.792	273.371	37.577	OK
11-12-2024	08:35:37.892	273.471	7.496	7.496	27.496	939	0	1.0915	OK	11-12-2024	08:35:37.892	273.471	37.577	OK
11-12-2024	08:35:37.993	273.572	7.496	7.496	27.492	938	0	1.0918	OK	11-12-2024	08:35:37.993	273.572	37.576	OK
11-12-2024	08:35:38.092	273.670	7.496	7.496	27.493	939	0	1.0917	OK	11-12-2024	08:35:38.092	273.670	37.576	OK
11-12-2024	08:35:38.269	273.848	7.496	7.496	27.497	938	0	1.0915	OK	11-12-2024	08:35:38.269	273.848	37.576	OK
11-12-2024	08:35:38.527	274.106	7.497	7.497	27.500	939	0	1.0913	OK	11-12-2024	08:35:38.527	274.106	37.577	OK
11-12-2024	08:35:38.693	274.272	7.497	7.497	27.503	939	0	1.0911	OK	11-12-2024	08:35:38.693	274.272	37.576	OK
11-12-2024	08:35:38.893	274.472	7.497	7.497	27.501	939	0	1.0912	OK	11-12-2024	08:35:38.893	274.472	37.576	OK
11-12-2024	08:35:39.007	274.586	7.497	7.497	27.500	938	0	1.0913	OK	11-12-2024	08:35:39.007	274.586	37.576	OK
11-12-2024	08:35:39.098	274.677	7.496	7.496	27.496	938	0	1.0916	OK	11-12-2024	08:35:39.098	274.677	37.576	OK
11-12-2024	08:35:39.271	274.850	7.497	7.497	27.503	939	0	1.0911	OK	11-12-2024	08:35:39.271	274.850	37.577	OK
11-12-2024	08:35:39.528	275.107	7.497	7.497	27.503	939	0	1.0911	OK	11-12-2024	08:35:39.528	275.107	37.576	OK
11-12-2024	08:35:39.699	275.278	7.497	7.497	27.501	939	0	1.0912	OK	11-12-2024	08:35:39.699	275.278	37.577	OK
11-12-2024	08:35:39.799	275.378	7.497	7.497	27.502	939	0	1.0912	OK	11-12-2024	08:35:39.799	275.378	37.577	OK
11-12-2024	08:35:39.900	275.479	7.496	7.496	27.497	939	0	1.0915	OK	11-12-2024	08:35:39.900	275.479	37.576	OK
11-12-2024	08:35:40.005	275.584	7.496	7.496	27.496	939	0	1.0916	OK	11-12-2024	08:35:40.005	275.584	37.576	OK
11-12-2024	08:35:40.099	275.678	7.496	7.496	27.498	939	0	1.0914	OK	11-12-2024	08:35:40.099	275.678	37.577	OK
11-12-2024	08:35:40.272	275.851	7.497	7.497	27.500	939	0	1.0913	OK	11-12-2024	08:35:40.272	275.851	37.578	OK
11-12-2024	08:35:40.530	276.109	7.497	7.497	27.502	939	0	1.0911	OK	11-12-2024	08:35:40.530	276.109	37.577	OK
11-12-2024	08:35:40.700	276.279	7.497	7.497	27.501	939	0	1.0912	OK	11-12-2024	08:35:40.700	276.279	37.578	OK
11-12-2024	08:35:40.800	276.379	7.496	7.496	27.496	939	0	1.0915	OK	11-12-2024	08:35:40.800	276.379	37.578	OK
11-12-2024	08:35:40.901	276.480	7.496	7.496	27.494	939	0	1.0917	OK	11-12-2024	08:35:40.901	276.480	37.578	OK
11-12-2024	08:35:41.007	276.586	7.496	7.496	27.496	938	0	1.0915	OK	11-12-2024	08:35:41.007	276.586	37.578	OK
11-12-2024	08:35:41.105	276.684	7.495	7.495	27.491	938	0	1.0919	OK	11-12-2024	08:35:41.105	276.684	37.578	OK
11-12-2024	08:35:41.274	276.852	7.496	7.496	27.496	939	0	1.0915	OK	11-12-2024	08:35:41.274	276.852	37.578	OK
11-12-2024	08:35:41.531	277.110	7.497	7.497	27.501	939	0	1.0912	OK	11-12-2024	08:35:41.531	277.110	37.578	OK
11-12-2024	08:35:41.703	277.282	7.496	7.496	27.498	939	0	1.0914	OK	11-12-2024	08:35:41.703	277.282	37.578	OK
11-12-2024	08:35:41.803	277.382	7.496	7.496	27.496	939	0	1.0916	OK	11-12-2024	08:35:41.803	277.382	37.578	OK
11-12-2024	08:35:41.904	277.482	7.496	7.496	27.497	939	0	1.0915	OK	11-12-2024	08:35:41.904	277.482	37.578	OK
11-12-2024	08:35:42.006	277.585	7.495	7.495	27.491	938	0	1.0919	OK	11-12-2024	08:35:42.006	277.585	37.578	OK
11-12-2024	08:35:42.104	277.683	7.496	7.496	27.494	939	0	1.0917	OK	11-12-2024	08:35:42.104	277.683	37.579	OK
11-12-2024	08:35:42.276	277.855	7.496	7.496	27.493	939	0	1.0918	OK	11-12-2024	08:35:42.276	277.855	37.580	OK
11-12-2024	08:35:42.535	278.114	7.497	7.497	27.500	939	0	1.0913	OK	11-12-2024	08:35:42.535	278.114	37.580	OK
11-12-2024	08:35:42.705	278.284	7.497	7.497	27.501	939	0	1.0912	OK	11-12-2024	08:35:42.705	278.284	37.579	OK
11-12-2024	08:35:42.805	278.384	7.496	7.496	27.498	939	0	1.0914	OK	11-12-2024	08:35:42.805	278.384	37.579	OK
11-12-2024	08:35:42.905	278.484	7.496	7.496	27.497	939	0	1.0915	OK	11-12-2024	08:35:42.905	278.484	37.580	OK
11-12-2024	08:35:43.006	278.585	7.496	7.496	27.497	938	0	1.0915	OK	11-12-2024	08:35:43.006	278.585	37.580	OK
11-12-2024	08:35:43.106	278.685	7.495	7.495	27.492	939	0	1.0919	OK	11-12-2024	08:35:43.106	278.685	37.580	OK
11-12-2024	08:35:43.276	278.855	7.496	7.496	27.496	939	0	1.0916	OK	11-12-2024	08:35:43.276	278.855	37.580	OK
11-12-2024	08:35:43.533	279.112	7.497	7.497	27.502	939	0	1.0912	OK	11-12-2024	08:35:43.533	279.112	37.580	OK
11-12-2024	08:35:43.706	279.285	7.497	7.497	27.500	938	0	1.0913	OK	11-12-2024	08:35:43.706	279.285	37.582	OK
11-12-2024	08:35:43.807	279.386	7.496	7.496	27.499	939	0	1.0914	OK	11-12-2024	08:35:43.807	279.386	37.582	OK
11-12-2024	08:35:43.907	279.485	7.496	7.496	27.497	939	0	1.0915	OK	11-12-2024	08:35:43.907	279.485	37.582	OK
11-12-2024	08:35:44.007	279.586	7.495	7.495	27.491	938	0	1.0919	OK	11-12-2024	08:35:44.007	279.586	37.582	OK
11-12-2024	08:35:44.271	279.850	7.497	7.497	27.503	938	0	1.0911	OK	11-12-2024	08:35:44.271	279.850	37.582	OK
11-12-2024	08:35:44.527	280.106	7.497	7.497	27.504	939	0	1.0910	OK	11-12-2024	08:35:44.527	280.106	37.582	OK
11-12-2024	08:35:44.707	280.286	7.498	7.498	27.506	939	0	1.0908	OK	11-12-2024	08:35:44.707	280.286	37.583	OK
11-12-2024	08:35:44.810	280.389	7.497	7.497	27.501	939	0	1.0912	OK	11-12-2024	08:35:44.810	280.389	37.583	OK
11-12-2024	08:35:44.906	280.485	7.497	7.497	27.500	939	0	1.0913	OK	11-12-2024	08:35:44.906	280.485	37.582	OK
11-12-2024	08:35:45.007	280.586	7.496	7.496	27.494	939	0	1.0917	OK	11-12-2024	08:35:45.007	280.586	37.582	OK
11-12-2024	08:35:45.107	280.686	7.495	7.495	27.491	939	0	1.0919	OK	11-12-2024	08:35:45.107	280.686	37.582	OK
11-12-2024	08:35:45.278	280.856	7.497	7.497	27.502	939	0	1.0911	OK	11-12-2024	08:35:45.278	280.856	37.582	OK
11-12-2024	08:35:45.533	281.112	7.497	7.497	27.500	939	0	1.0913	OK	11-12-2024	08:35:45.533	281.112	37.580	OK
11-12-2024	08:35:45.707	281.286	7.497	7.497	27.501	939	0	1.0912	OK	11-12-2024	08:35:45.707	281.286	37.581	OK
11-12-2024	08:35:45.808	281.387	7.496	7.496	27.495	939	0	1.0916	OK	11-12-2024	08:35:45.808	281.387	37.581	OK
11-12-2024	08:35:45.908	281.487	7.496	7.496	27.495	939	0	1.0916	OK	11-12-2024	08:35:45.908	281.487	37.581	OK
11-12-2024	08:35:46.008	281.587	7.495	7.495	27.491	939	0	1.0919	OK	11-12-2024	08:35:46.008	281.587	37.581	OK
11-12-2024	08:35:46.107	281.686	7.496	7.496	27.495	939	0	1.0916	OK	11-12-2024	08:35:46.107	281.686	37.581	OK
11-12-2024	08:35:46.278	281.857	7.497	7.497	27.499	939	0	1.0913	OK	11-12-2024	08:35:46.278	281.857	37.581	OK
11-12-2024	08:35:46.535	282.114	7.497	7.497	27.499	939	0	1.0913	OK	11-12-2024	08:35:46.535	282.114	37.581	OK
11-12-2024	08:35:46.709	282.288	7.497	7.497	27.499	939	0	1.0913	OK	11-12-2024	08:35:46.709	282.288	37.581	OK
11-12-2024	08:35:46.809	282.388	7.496	7.496	27.495	939	0	1.0916	OK	11-12-2024	08:35:46.809	282.388	37.581	OK
11-12-2024	08:35:46.908	282.487	7.496	7.496	27.498	939	0	1.0914	OK	11-12-2024	08:35:46.908	282.487	37.581	OK
11-12-2024	08:35:47.009	282.588	7.496	7.496	27.496	939	0	1.0915	OK	11-12-2024	08:35:47.009	282.588	37.581	OK
11-12-2024	08:35:47.110	282.689	7.496	7.496	27.494	939	0	1.0917	OK	11-12-2024	08:35:47.110	282.689	37.581	OK
11-12-2024	08:35:47.280	282.859	7.496	7.496	27.493	939	0	1.0917	OK	11-12-2024	08:35:47.280	282.859	37.581	OK
11-12-2024	08:35:47.537	283.116	7.497	7.497	27.503	939	0	1.0911	OK	11-12-2024	08:35:47.537	283.116	37.581	OK
11-12-2024	08:35:47.711	283.290	7.497	7.497	27.504	939	0	1.0910	OK	11-12-2024	08:35:47.711	283.290	37.581	OK
11-12-2024	08:35:47.811	283.390	7.497	7.497	27.500	939	0	1.0913	OK	11-12-2024	08:35:47.811	283.390	37.582	OK
11-12-2024	08:35:47.912	283.490	7.496	7.496	27.498	939	0	1.0914	OK	11-12-2024	08:35:47.912	283.490	37.582	OK
11-12-2024	08:35:48.011	283.590	7.496	7.496	27.498	939	0	1.0914	OK	11-12-2024	08:35:48.011	283.590	37.582	OK
11-12-2024	08:35:48.115	283.694	7.496	7.496	27.495	939	0	1.0916	OK	11-12-2024	08:35:48.115	283.694	37.582	OK
11-12-2024	08:35:48.286	283.865	7.496	7.496	27.498	939	0	1.0914	OK	11-12-2024	08:35:48.286	283.865	37.581	OK
11-12-2024	08:35:48.541	284.120	7.497	7.497	27.501	939	0	1.0912	OK	11-12-2024	08:35:48.541	284.120	37.582	OK
11-12-2024	08:35:48.715	284.294	7.497	7.497	27.500	939	0	1.0913	OK	11-12-2024	08:35:48.715	284.294	37.582	OK
11-12-2024	08:35:48.815	284.394	7.496	7.496	27.495	939	0	1.0917	OK	11-12-2024	08:35:48.815	284.394	37.582	OK
11-12-2024	08:35:48.915	284.494	7.496	7.496	27.494	939	0	1.0917	OK	11-12-2024	08:35:48.915	284.494	37.582	OK
11-12-2024	08:35:49.018	284.597	7.496	7.496	27.494	939	0	1.0917	OK	11-12-2024	08:35:49.018	284.597	37.583	OK
11-12-2024	08:35:49.115	284.694	7.495	7.495	27.490	939	0	1.0920	OK	11-12-2024	08:35:49.115	284.694	37.583	OK
11-12-2024	08:35:49.287	284.866	7.496	7.496	27.496	939	0	1.0916	OK	11-12-2024	08:35:49.287	284.866	37.582	OK
11-12-2024	08:35:49.542	285.121	7.497	7.497	27.505	939	0	1.0910	OK	11-12-2024	08:35:49.542	285.121	37.583	OK
11-12-2024	08:35:49.717	285.296	7.497	7.497	27.505	939	0	1.0909	OK	11-12-2024	08:35:49.717	285.296	37.583	OK
11-12-2024	08:35:49.817	285.396	7.497	7.497	27.500	939	0	1.0913	OK	11-12-2024	08:35:49.817	285.396	37.583	OK
11-12-2024	08:35:49.918	285.497	7.497	7.497	27.499	939	0	1.0913	OK	11-12-2024	08:35:49.918	285.497	37.583	OK
11-12-2024	08:35:50.016	285.595	7.496	7.496	27.496	939	0	1.0915	OK	11-12-2024	08:35:50.016	285.595	37.583	OK
11-12-2024	08:35:50.118	285.697	7.497	7.497	27.499	939	0	1.0913	OK	11-12-2024	08:35:50.118	285.697	37.583	OK
11-12-2024	08:35:50.289	285.868	7.496	7.496	27.497	939	0	1.0915	OK	11-12-2024	08:35:50.289	285.868	37.582	OK
11-12-2024	08:35:50.560	286.139	7.498	7.498	27.506	939	0	1.0908	OK	11-12-2024	08:35:50.560	286.139	37.584	OK
11-12-2024	08:35:50.719	286.298	7.497	7.497	27.504	939	0	1.0910	OK	11-12-2024	08:35:50.719	286.298	37.584	OK
11-12-2024	08:35:50.820	286.399	7.497	7.497	27.501	939	0	1.0912	OK	11-12-2024	08:35:50.820	286.399	37.584	OK
11-12-2024	08:35:50.921	286.500	7.496	7.496	27.497	939	0	1.0915	OK	11-12-2024	08:35:50.921	286.500	37.584	OK
11-12-2024	08:35:51.019	286.598	7.496	7.496	27.494	939	0	1.0917	OK	11-12-2024	08:35:51.019	286.598	37.583	OK
11-12-2024	08:35:51.121	286.700	7.496	7.496	27.494	939	0	1.0917	OK	11-12-2024	08:35:51.121	286.700	37.583	OK
11-12-2024	08:35:51.291	286.870	7.496	7.496	27.498	939	0	1.0914	OK	11-12-2024	08:35:51.291	286.870	37.584	OK
11-12-2024	08:35:51.548	287.127	7.497	7.497	27.503	939	0	1.0911	OK	11-12-2024	08:35:51.548	287.127	37.584	OK
11-12-2024	08:35:51.723	287.302	7.497	7.497	27.501	939	0	1.0912	OK	11-12-2024	08:35:51.723	287.302	37.584	OK
11-12-2024	08:35:51.822	287.401	7.496	7.496	27.495	939	0	1.0916	OK	11-12-2024	08:35:51.822	287.401	37.584	OK
11-12-2024	08:35:51.923	287.502	7.496	7.496	27.494	939	0	1.0917	OK	11-12-2024	08:35:51.923	287.502	37.584	OK
11-12-2024	08:35:52.024	287.603	7.496	7.496	27.497	938	0	1.0915	OK	11-12-2024	08:35:52.024	287.603	37.584	OK
11-12-2024	08:35:52.125	287.704	7.495	7.495	27.492	938	0	1.0918	OK	11-12-2024	08:35:52.125	287.704	37.584	OK
11-12-2024	08:35:52.295	287.874	7.496	7.496	27.497	939	0	1.0915	OK	11-12-2024	08:35:52.295	287.874	37.583	OK
11-12-2024	08:35:52.551	288.130	7.497	7.497	27.503	939	0	1.0911	OK	11-12-2024	08:35:52.551	288.130	37.583	OK
11-12-2024	08:35:52.726	288.305	7.497	7.497	27.502	939	0	1.0911	OK	11-12-2024	08:35:52.726	288.305	37.583	OK
11-12-2024	08:35:52.826	288.405	7.496	7.496	27.497	939	0	1.0915	OK	11-12-2024	08:35:52.826	288.405	37.584	OK
11-12-2024	08:35:52.926	288.505	7.496	7.496	27.497	939	0	1.0915	OK	11-12-2024	08:35:52.926	288.505	37.584	OK
11-12-2024	08:35:53.026	288.605	7.496	7.496	27.496	939	0	1.0915	OK	11-12-2024	08:35:53.026	288.605	37.584	OK
11-12-2024	08:35:53.128	288.707	7.496	7.496	27.494	939	0	1.0917	OK	11-12-2024	08:35:53.128	288.707	37.584	OK
11-12-2024	08:35:53.418	288.997	7.496	7.496	27.498	939	0	1.0914	OK	11-12-2024	08:35:53.418	288.997	37.582	OK
11-12-2024	08:35:53.590	289.169	7.496	7.496	27.498	939	0	1.0914	OK	11-12-2024	08:35:53.590	289.169	37.582	OK
11-12-2024	08:35:53.729	289.308	7.497	7.497	27.502	939	0	1.0911	OK	11-12-2024	08:35:53.729	289.308	37.582	OK
11-12-2024	08:35:53.829	289.407	7.497	7.497	27.500	939	0	1.0912	OK	11-12-2024	08:35:53.829	289.407	37.581	OK
11-12-2024	08:35:53.930	289.509	7.496	7.496	27.497	939	0	1.0914	OK	11-12-2024	08:35:53.930	289.509	37.581	OK
11-12-2024	08:35:54.030	289.608	7.496	7.496	27.492	939	0	1.0918	OK	11-12-2024	08:35:54.030	289.608	37.581	OK
11-12-2024	08:35:54.269	289.848	7.497	7.497	27.501	939	0	1.0911	OK	11-12-2024	08:35:54.269	289.848	37.581	OK
11-12-2024	08:35:54.530	290.109	7.497	7.497	27.504	939	0	1.0909	OK	11-12-2024	08:35:54.530	290.109	37.580	OK
11-12-2024	08:35:54.631	290.210	7.496	7.496	27.497	939	0	1.0914	OK	11-12-2024	08:35:54.631	290.210	37.580	OK
11-12-2024	08:35:54.732	290.310	7.496	7.496	27.496	939	0	1.0915	OK	11-12-2024	08:35:54.732	290.310	37.580	OK
11-12-2024	08:35:54.833	290.412	7.496	7.496	27.494	939	0	1.0916	OK	11-12-2024	08:35:54.833	290.412	37.579	OK
11-12-2024	08:35:54.933	290.512	7.496	7.496	27.492	939	0	1.0918	OK	11-12-2024	08:35:54.933	290.512	37.579	OK
11-12-2024	08:35:55.033	290.612	7.496	7.496	27.492	938	0	1.0918	OK	11-12-2024	08:35:55.033	290.612	37.578	OK
11-12-2024	08:35:55.134	290.713	7.496	7.496	27.491	938	0	1.0918	OK	11-12-2024	08:35:55.134	290.713	37.578	OK
11-12-2024	08:35:55.304	290.883	7.496	7.496	27.495	939	0	1.0916	OK	11-12-2024	08:35:55.304	290.883	37.579	OK
11-12-2024	08:35:55.575	291.154	7.497	7.497	27.501	939	0	1.0911	OK	11-12-2024	08:35:55.575	291.154	37.579	OK
11-12-2024	08:35:55.734	291.313	7.497	7.497	27.498	939	0	1.0913	OK	11-12-2024	08:35:55.734	291.313	37.579	OK
11-12-2024	08:35:55.833	291.412	7.496	7.496	27.495	938	0	1.0916	OK	11-12-2024	08:35:55.833	291.412	37.578	OK
11-12-2024	08:35:55.934	291.513	7.496	7.496	27.495	938	0	1.0916	OK	11-12-2024	08:35:55.934	291.513	37.578	OK
11-12-2024	08:35:56.033	291.612	7.496	7.496	27.493	938	0	1.0917	OK	11-12-2024	08:35:56.033	291.612	37.577	OK
11-12-2024	08:35:56.136	291.714	7.495	7.495	27.489	939	0	1.0920	OK	11-12-2024	08:35:56.136	291.714	37.577	OK
11-12-2024	08:35:56.510	292.089	7.497	7.497	27.500	939	0	1.0913	OK	11-12-2024	08:35:56.510	292.089	37.577	OK
11-12-2024	08:35:56.634	292.213	7.496	7.496	27.497	939	0	1.0915	OK	11-12-2024	08:35:56.634	292.213	37.577	OK
11-12-2024	08:35:56.735	292.314	7.495	7.495	27.491	939	0	1.0919	OK	11-12-2024	08:35:56.735	292.314	37.577	OK
11-12-2024	08:35:56.835	292.414	7.496	7.496	27.494	939	0	1.0917	OK	11-12-2024	08:35:56.835	292.414	37.577	OK
11-12-2024	08:35:56.934	292.513	7.495	7.495	27.490	939	0	1.0920	OK	11-12-2024	08:35:56.934	292.513	37.577	OK
11-12-2024	08:35:57.035	292.614	7.496	7.496	27.493	939	0	1.0917	OK	11-12-2024	08:35:57.035	292.614	37.577	OK
11-12-2024	08:35:57.135	292.714	7.496	7.496	27.492	939	0	1.0918	OK	11-12-2024	08:35:57.135	292.714	37.578	OK
11-12-2024	08:35:57.304	292.883	7.497	7.497	27.500	939	0	1.0913	OK	11-12-2024	08:35:57.304	292.883	37.577	OK
11-12-2024	08:35:57.574	293.153	7.497	7.497	27.500	939	0	1.0913	OK	11-12-2024	08:35:57.574	293.153	37.577	OK
11-12-2024	08:35:57.737	293.316	7.497	7.497	27.499	939	0	1.0913	OK	11-12-2024	08:35:57.737	293.316	37.577	OK
11-12-2024	08:35:57.837	293.416	7.497	7.497	27.498	939	0	1.0913	OK	11-12-2024	08:35:57.837	293.416	37.577	OK
11-12-2024	08:35:57.937	293.516	7.496	7.496	27.494	939	0	1.0916	OK	11-12-2024	08:35:57.937	293.516	37.576	OK
11-12-2024	08:35:58.038	293.617	7.496	7.496	27.493	939	0	1.0917	OK	11-12-2024	08:35:58.038	293.617	37.576	OK
11-12-2024	08:35:58.136	293.715	7.496	7.496	27.493	939	0	1.0917	OK	11-12-2024	08:35:58.136	293.715	37.577	OK
11-12-2024	08:35:58.324	293.903	7.496	7.496	27.494	939	0	1.0916	OK	11-12-2024	08:35:58.324	293.903	37.576	OK
11-12-2024	08:35:58.583	294.162	7.497	7.497	27.499	939	0	1.0913	OK	11-12-2024	08:35:58.583	294.162	37.577	OK
11-12-2024	08:35:58.740	294.319	7.497	7.497	27.501	939	0	1.0911	OK	11-12-2024	08:35:58.740	294.319	37.576	OK
11-12-2024	08:35:58.840	294.419	7.496	7.496	27.494	938	0	1.0916	OK	11-12-2024	08:35:58.840	294.419	37.576	OK
11-12-2024	08:35:58.941	294.520	7.496	7.496	27.494	939	0	1.0916	OK	11-12-2024	08:35:58.941	294.520	37.575	OK
11-12-2024	08:35:59.042	294.621	7.496	7.496	27.492	938	0	1.0918	OK	11-12-2024	08:35:59.042	294.621	37.575	OK
11-12-2024	08:35:59.142	294.721	7.496	7.496	27.496	939	0	1.0915	OK	11-12-2024	08:35:59.142	294.721	37.576	OK
11-12-2024	08:35:59.313	294.892	7.496	7.496	27.496	938	0	1.0915	OK	11-12-2024	08:35:59.313	294.892	37.575	OK
11-12-2024	08:35:59.585	295.164	7.497	7.497	27.501	939	0	1.0911	OK	11-12-2024	08:35:59.585	295.164	37.576	OK
11-12-2024	08:35:59.742	295.321	7.497	7.497	27.501	939	0	1.0911	OK	11-12-2024	08:35:59.742	295.321	37.576	OK
11-12-2024	08:35:59.841	295.420	7.497	7.497	27.499	939	0	1.0913	OK	11-12-2024	08:35:59.841	295.420	37.576	OK
11-12-2024	08:35:59.942	295.521	7.497	7.497	27.498	939	0	1.0913	OK	11-12-2024	08:35:59.942	295.521	37.577	OK
11-12-2024	08:36:00.040	295.619	7.496	7.496	27.492	939	0	1.0918	OK	11-12-2024	08:36:00.040	295.619	37.577	OK
11-12-2024	08:36:00.270	295.849	7.497	7.497	27.499	939	0	1.0913	OK	11-12-2024	08:36:00.270	295.849	37.576	OK
11-12-2024	08:36:00.524	296.103	7.497	7.497	27.501	939	0	1.0911	OK	11-12-2024	08:36:00.524	296.103	37.576	OK
11-12-2024	08:36:00.642	296.220	7.497	7.497	27.501	939	0	1.0911	OK	11-12-2024	08:36:00.642	296.220	37.576	OK
11-12-2024	08:36:00.740	296.319	7.496	7.496	27.495	939	0	1.0916	OK	11-12-2024	08:36:00.740	296.319	37.576	OK
11-12-2024	08:36:00.842	296.421	7.497	7.497	27.499	939	0	1.0913	OK	11-12-2024	08:36:00.842	296.421	37.576	OK
11-12-2024	08:36:00.941	296.520	7.496	7.496	27.495	939	0	1.0916	OK	11-12-2024	08:36:00.941	296.520	37.576	OK
11-12-2024	08:36:01.042	296.621	7.496	7.496	27.497	939	0	1.0914	OK	11-12-2024	08:36:01.042	296.621	37.576	OK
11-12-2024	08:36:01.143	296.722	7.496	7.496	27.493	939	0	1.0917	OK	11-12-2024	08:36:01.143	296.722	37.576	OK
11-12-2024	08:36:01.495	297.074	7.496	7.496	27.496	939	0	1.0915	OK	11-12-2024	08:36:01.495	297.074	37.577	OK
11-12-2024	08:36:01.641	297.220	7.497	7.497	27.503	939	0	1.0910	OK	11-12-2024	08:36:01.641	297.220	37.578	OK
11-12-2024	08:36:01.742	297.321	7.497	7.497	27.498	939	0	1.0913	OK	11-12-2024	08:36:01.742	297.321	37.577	OK
11-12-2024	08:36:01.841	297.420	7.496	7.496	27.497	939	0	1.0914	OK	11-12-2024	08:36:01.841	297.420	37.577	OK
11-12-2024	08:36:01.941	297.520	7.496	7.496	27.494	939	0	1.0916	OK	11-12-2024	08:36:01.941	297.520	37.578	OK
11-12-2024	08:36:02.043	297.621	7.496	7.496	27.497	939	0	1.0914	OK	11-12-2024	08:36:02.043	297.621	37.578	OK
11-12-2024	08:36:02.142	297.721	7.496	7.496	27.492	939	0	1.0918	OK	11-12-2024	08:36:02.142	297.721	37.578	OK
11-12-2024	08:36:02.311	297.890	7.496	7.496	27.494	939	0	1.0916	OK	11-12-2024	08:36:02.311	297.890	37.578	OK
11-12-2024	08:36:02.574	298.153	7.497	7.497	27.501	939	0	1.0911	OK	11-12-2024	08:36:02.574	298.153	37.580	OK
11-12-2024	08:36:02.743	298.322	7.497	7.497	27.498	939	0	1.0913	OK	11-12-2024	08:36:02.743	298.322	37.578	OK
11-12-2024	08:36:02.843	298.422	7.496	7.496	27.493	939	0	1.0917	OK	11-12-2024	08:36:02.843	298.422	37.578	OK
11-12-2024	08:36:02.944	298.523	7.496	7.496	27.495	939	0	1.0916	OK	11-12-2024	08:36:02.944	298.523	37.578	OK
11-12-2024	08:36:03.048	298.627	7.495	7.495	27.490	938	0	1.0919	OK	11-12-2024	08:36:03.048	298.627	37.578	OK
11-12-2024	08:36:03.142	298.721	7.495	7.495	27.488	939	0	1.0920	OK	11-12-2024	08:36:03.142	298.721	37.579	OK
11-12-2024	08:36:03.312	298.891	7.496	7.496	27.494	939	0	1.0916	OK	11-12-2024	08:36:03.312	298.891	37.579	OK
11-12-2024	08:36:03.570	299.149	7.497	7.497	27.500	938	0	1.0912	OK	11-12-2024	08:36:03.570	299.149	37.578	OK
11-12-2024	08:36:03.744	299.323	7.497	7.497	27.498	938	0	1.0913	OK	11-12-2024	08:36:03.744	299.323	37.577	OK
11-12-2024	08:36:03.845	299.424	7.496	7.496	27.496	938	0	1.0915	OK	11-12-2024	08:36:03.845	299.424	37.577	OK
11-12-2024	08:36:03.944	299.523	7.495	7.495	27.488	938	0	1.0920	OK	11-12-2024	08:36:03.944	299.523	37.577	OK
11-12-2024	08:36:04.044	299.623	7.496	7.496	27.494	938	0	1.0916	OK	11-12-2024	08:36:04.044	299.623	37.577	OK
11-12-2024	08:36:04.144	299.723	7.495	7.495	27.490	938	0	1.0919	OK	11-12-2024	08:36:04.144	299.723	37.577	OK
11-12-2024	08:36:04.314	299.893	7.497	7.497	27.498	938	0	1.0913	OK	11-12-2024	08:36:04.314	299.893	37.578	OK
11-12-2024	08:36:04.588	300.167	7.497	7.497	27.499	938	0	1.0913	OK	11-12-2024	08:36:04.588	300.167	37.578	OK
11-12-2024	08:36:04.746	300.325	7.497	7.497	27.501	938	0	1.0911	OK	11-12-2024	08:36:04.746	300.325	37.578	OK
11-12-2024	08:36:04.845	300.424	7.496	7.496	27.496	939	0	1.0915	OK	11-12-2024	08:36:04.845	300.424	37.579	OK
11-12-2024	08:36:04.945	300.524	7.496	7.496	27.494	938	0	1.0916	OK	11-12-2024	08:36:04.945	300.524	37.579	OK
11-12-2024	08:36:05.046	300.624	7.496	7.496	27.495	938	0	1.0916	OK	11-12-2024	08:36:05.046	300.624	37.579	OK
11-12-2024	08:36:05.145	300.724	7.496	7.496	27.493	938	0	1.0917	OK	11-12-2024	08:36:05.145	300.724	37.579	OK
11-12-2024	08:36:05.332	300.911	7.496	7.496	27.497	939	0	1.0914	OK	11-12-2024	08:36:05.332	300.911	37.579	OK
11-12-2024	08:36:05.593	301.172	7.497	7.497	27.499	938	0	1.0913	OK	11-12-2024	08:36:05.593	301.172	37.578	OK
11-12-2024	08:36:05.747	301.326	7.497	7.497	27.500	938	0	1.0912	OK	11-12-2024	08:36:05.747	301.326	37.578	OK
11-12-2024	08:36:05.847	301.426	7.496	7.496	27.495	938	0	1.0916	OK	11-12-2024	08:36:05.847	301.426	37.578	OK
11-12-2024	08:36:05.946	301.525	7.496	7.496	27.491	938	0	1.0918	OK	11-12-2024	08:36:05.946	301.525	37.578	OK
11-12-2024	08:36:06.047	301.626	7.496	7.496	27.493	938	0	1.0916	OK	11-12-2024	08:36:06.047	301.626	37.579	OK
11-12-2024	08:36:06.146	301.725	7.495	7.495	27.490	938	0	1.0919	OK	11-12-2024	08:36:06.146	301.725	37.579	OK
11-12-2024	08:36:06.317	301.896	7.497	7.497	27.498	938	0	1.0913	OK	11-12-2024	08:36:06.317	301.896	37.580	OK
11-12-2024	08:36:06.587	302.166	7.497	7.497	27.498	938	0	1.0913	OK	11-12-2024	08:36:06.587	302.166	37.580	OK
11-12-2024	08:36:06.746	302.325	7.496	7.496	27.494	938	0	1.0916	OK	11-12-2024	08:36:06.746	302.325	37.580	OK
11-12-2024	08:36:06.846	302.425	7.496	7.496	27.495	938	0	1.0915	OK	11-12-2024	08:36:06.846	302.425	37.581	OK
11-12-2024	08:36:06.946	302.525	7.496	7.496	27.495	938	0	1.0916	OK	11-12-2024	08:36:06.946	302.525	37.581	OK
11-12-2024	08:36:07.047	302.626	7.496	7.496	27.498	938	0	1.0913	OK	11-12-2024	08:36:07.047	302.626	37.582	OK
11-12-2024	08:36:07.147	302.726	7.496	7.496	27.494	938	0	1.0916	OK	11-12-2024	08:36:07.147	302.726	37.582	OK
11-12-2024	08:36:07.320	302.899	7.497	7.497	27.499	938	0	1.0913	OK	11-12-2024	08:36:07.320	302.899	37.582	OK
11-12-2024	08:36:07.575	303.154	7.497	7.497	27.505	939	0	1.0909	OK	11-12-2024	08:36:07.575	303.154	37.582	OK
11-12-2024	08:36:07.746	303.325	7.496	7.496	27.498	939	0	1.0913	OK	11-12-2024	08:36:07.746	303.325	37.582	OK
11-12-2024	08:36:07.847	303.426	7.496	7.496	27.498	939	0	1.0913	OK	11-12-2024	08:36:07.847	303.426	37.581	OK
11-12-2024	08:36:07.947	303.526	7.496	7.496	27.494	939	0	1.0916	OK	11-12-2024	08:36:07.947	303.526	37.581	OK
11-12-2024	08:36:08.046	303.625	7.496	7.496	27.494	939	0	1.0916	OK	11-12-2024	08:36:08.046	303.625	37.580	OK
11-12-2024	08:36:08.146	303.725	7.496	7.496	27.492	939	0	1.0918	OK	11-12-2024	08:36:08.146	303.725	37.580	OK
11-12-2024	08:36:08.316	303.895	7.496	7.496	27.496	939	0	1.0915	OK	11-12-2024	08:36:08.316	303.895	37.580	OK
11-12-2024	08:36:08.573	304.152	7.497	7.497	27.503	939	0	1.0910	OK	11-12-2024	08:36:08.573	304.152	37.580	OK
11-12-2024	08:36:08.747	304.326	7.497	7.497	27.504	939	0	1.0909	OK	11-12-2024	08:36:08.747	304.326	37.580	OK
11-12-2024	08:36:08.846	304.425	7.496	7.496	27.495	939	0	1.0916	OK	11-12-2024	08:36:08.846	304.425	37.581	OK
11-12-2024	08:36:08.946	304.525	7.496	7.496	27.497	939	0	1.0914	OK	11-12-2024	08:36:08.946	304.525	37.581	OK
11-12-2024	08:36:09.048	304.627	7.496	7.496	27.491	939	0	1.0918	OK	11-12-2024	08:36:09.048	304.627	37.581	OK
11-12-2024	08:36:09.149	304.728	7.496	7.496	27.493	939	0	1.0916	OK	11-12-2024	08:36:09.149	304.728	37.581	OK
11-12-2024	08:36:09.321	304.900	7.496	7.496	27.496	939	0	1.0914	OK	11-12-2024	08:36:09.321	304.900	37.580	OK
11-12-2024	08:36:09.577	305.156	7.497	7.497	27.499	939	0	1.0912	OK	11-12-2024	08:36:09.577	305.156	37.579	OK
11-12-2024	08:36:09.751	305.330	7.497	7.497	27.502	939	0	1.0910	OK	11-12-2024	08:36:09.751	305.330	37.578	OK
11-12-2024	08:36:09.849	305.428	7.496	7.496	27.496	939	0	1.0914	OK	11-12-2024	08:36:09.849	305.428	37.579	OK
11-12-2024	08:36:09.950	305.529	7.496	7.496	27.496	939	0	1.0914	OK	11-12-2024	08:36:09.950	305.529	37.579	OK
11-12-2024	08:36:10.049	305.628	7.496	7.496	27.494	939	0	1.0916	OK	11-12-2024	08:36:10.049	305.628	37.578	OK
11-12-2024	08:36:10.151	305.730	7.497	7.497	27.499	939	0	1.0913	OK	11-12-2024	08:36:10.151	305.730	37.578	OK
11-12-2024	08:36:10.322	305.901	7.497	7.497	27.498	939	0	1.0913	OK	11-12-2024	08:36:10.322	305.901	37.578	OK
11-12-2024	08:36:10.594	306.173	7.497	7.497	27.502	939	0	1.0911	OK	11-12-2024	08:36:10.594	306.173	37.579	OK
11-12-2024	08:36:10.751	306.330	7.497	7.497	27.500	939	0	1.0912	OK	11-12-2024	08:36:10.751	306.330	37.578	OK
11-12-2024	08:36:10.850	306.429	7.496	7.496	27.495	939	0	1.0916	OK	11-12-2024	08:36:10.850	306.429	37.578	OK
11-12-2024	08:36:10.953	306.532	7.497	7.497	27.499	939	0	1.0913	OK	11-12-2024	08:36:10.953	306.532	37.578	OK
11-12-2024	08:36:11.051	306.630	7.496	7.496	27.494	939	0	1.0916	OK	11-12-2024	08:36:11.051	306.630	37.578	OK
11-12-2024	08:36:11.152	306.731	7.496	7.496	27.493	939	0	1.0916	OK	11-12-2024	08:36:11.152	306.731	37.578	OK
11-12-2024	08:36:11.323	306.902	7.496	7.496	27.497	939	0	1.0914	OK	11-12-2024	08:36:11.323	306.902	37.578	OK
11-12-2024	08:36:11.577	307.156	7.497	7.497	27.503	939	0	1.0910	OK	11-12-2024	08:36:11.577	307.156	37.578	OK
11-12-2024	08:36:11.754	307.333	7.497	7.497	27.502	939	0	1.0910	OK	11-12-2024	08:36:11.754	307.333	37.578	OK
11-12-2024	08:36:11.853	307.432	7.497	7.497	27.499	939	0	1.0912	OK	11-12-2024	08:36:11.853	307.432	37.578	OK
11-12-2024	08:36:11.952	307.531	7.497	7.497	27.498	939	0	1.0913	OK	11-12-2024	08:36:11.952	307.531	37.578	OK
11-12-2024	08:36:12.052	307.631	7.496	7.496	27.495	939	0	1.0915	OK	11-12-2024	08:36:12.052	307.631	37.578	OK
11-12-2024	08:36:12.154	307.733	7.496	7.496	27.492	939	0	1.0917	OK	11-12-2024	08:36:12.154	307.733	37.577	OK
11-12-2024	08:36:12.322	307.901	7.496	7.496	27.496	939	0	1.0914	OK	11-12-2024	08:36:12.322	307.901	37.578	OK
11-12-2024	08:36:12.576	308.155	7.498	7.498	27.504	939	0	1.0909	OK	11-12-2024	08:36:12.576	308.155	37.578	OK
11-12-2024	08:36:12.754	308.333	7.497	7.497	27.500	939	0	1.0912	OK	11-12-2024	08:36:12.754	308.333	37.578	OK
11-12-2024	08:36:12.854	308.433	7.496	7.496	27.497	939	0	1.0914	OK	11-12-2024	08:36:12.854	308.433	37.578	OK
11-12-2024	08:36:12.953	308.532	7.497	7.497	27.501	939	0	1.0911	OK	11-12-2024	08:36:12.953	308.532	37.578	OK
11-12-2024	08:36:13.053	308.632	7.496	7.496	27.495	939	0	1.0915	OK	11-12-2024	08:36:13.053	308.632	37.578	OK
11-12-2024	08:36:13.154	308.733	7.496	7.496	27.491	939	0	1.0918	OK	11-12-2024	08:36:13.154	308.733	37.578	OK
11-12-2024	08:36:13.323	308.902	7.496	7.496	27.496	939	0	1.0914	OK	11-12-2024	08:36:13.323	308.902	37.578	OK
11-12-2024	08:36:13.597	309.176	7.497	7.497	27.502	939	0	1.0910	OK	11-12-2024	08:36:13.597	309.176	37.578	OK
11-12-2024	08:36:13.754	309.333	7.497	7.497	27.502	939	0	1.0910	OK	11-12-2024	08:36:13.754	309.333	37.578	OK
11-12-2024	08:36:13.854	309.433	7.496	7.496	27.492	939	0	1.0917	OK	11-12-2024	08:36:13.854	309.433	37.578	OK
11-12-2024	08:36:13.954	309.533	7.496	7.496	27.496	939	0	1.0914	OK	11-12-2024	08:36:13.954	309.533	37.577	OK
11-12-2024	08:36:14.053	309.632	7.496	7.496	27.492	939	0	1.0917	OK	11-12-2024	08:36:14.053	309.632	37.577	OK
11-12-2024	08:36:14.155	309.734	7.496	7.496	27.494	939	0	1.0916	OK	11-12-2024	08:36:14.155	309.734	37.577	OK
11-12-2024	08:36:14.325	309.904	7.496	7.496	27.496	939	0	1.0914	OK	11-12-2024	08:36:14.325	309.904	37.577	OK
11-12-2024	08:36:14.587	310.166	7.497	7.497	27.503	939	0	1.0910	OK	11-12-2024	08:36:14.587	310.166	37.577	OK
11-12-2024	08:36:14.756	310.335	7.497	7.497	27.497	939	0	1.0914	OK	11-12-2024	08:36:14.756	310.335	37.577	OK
11-12-2024	08:36:14.856	310.435	7.496	7.496	27.496	939	0	1.0914	OK	11-12-2024	08:36:14.856	310.435	37.577	OK
11-12-2024	08:36:14.957	310.536	7.496	7.496	27.493	939	0	1.0916	OK	11-12-2024	08:36:14.957	310.536	37.577	OK
11-12-2024	08:36:15.057	310.636	7.495	7.495	27.488	939	0	1.0920	OK	11-12-2024	08:36:15.057	310.636	37.577	OK
11-12-2024	08:36:15.158	310.737	7.495	7.495	27.490	939	0	1.0919	OK	11-12-2024	08:36:15.158	310.737	37.577	OK
11-12-2024	08:36:15.329	310.908	7.497	7.497	27.497	939	0	1.0914	OK	11-12-2024	08:36:15.329	310.908	37.577	OK
11-12-2024	08:36:15.586	311.165	7.496	7.496	27.493	939	0	1.0916	OK	11-12-2024	08:36:15.586	311.165	37.577	OK
11-12-2024	08:36:15.757	311.336	7.497	7.497	27.500	939	0	1.0912	OK	11-12-2024	08:36:15.757	311.336	37.577	OK
11-12-2024	08:36:15.858	311.437	7.496	7.496	27.495	939	0	1.0915	OK	11-12-2024	08:36:15.858	311.437	37.577	OK
11-12-2024	08:36:15.959	311.538	7.496	7.496	27.492	939	0	1.0917	OK	11-12-2024	08:36:15.959	311.538	37.578	OK
11-12-2024	08:36:16.058	311.637	7.495	7.495	27.489	939	0	1.0919	OK	11-12-2024	08:36:16.058	311.637	37.578	OK
11-12-2024	08:36:16.157	311.736	7.495	7.495	27.489	939	0	1.0919	OK	11-12-2024	08:36:16.157	311.736	37.578	OK
11-12-2024	08:36:16.327	311.906	7.496	7.496	27.497	939	0	1.0914	OK	11-12-2024	08:36:16.327	311.906	37.578	OK
11-12-2024	08:36:16.583	312.161	7.497	7.497	27.498	939	0	1.0913	OK	11-12-2024	08:36:16.583	312.161	37.578	OK
11-12-2024	08:36:16.759	312.338	7.497	7.497	27.501	939	0	1.0911	OK	11-12-2024	08:36:16.759	312.338	37.579	OK
11-12-2024	08:36:16.860	312.439	7.497	7.497	27.499	939	0	1.0912	OK	11-12-2024	08:36:16.860	312.439	37.579	OK
11-12-2024	08:36:16.960	312.539	7.496	7.496	27.494	939	0	1.0916	OK	11-12-2024	08:36:16.960	312.539	37.579	OK
11-12-2024	08:36:17.061	312.640	7.497	7.497	27.498	938	0	1.0913	OK	11-12-2024	08:36:17.061	312.640	37.579	OK
11-12-2024	08:36:17.162	312.741	7.496	7.496	27.492	939	0	1.0918	OK	11-12-2024	08:36:17.162	312.741	37.579	OK
11-12-2024	08:36:17.332	312.911	7.497	7.497	27.499	939	0	1.0913	OK	11-12-2024	08:36:17.332	312.911	37.579	OK
11-12-2024	08:36:17.588	313.167	7.497	7.497	27.503	939	0	1.0910	OK	11-12-2024	08:36:17.588	313.167	37.579	OK
11-12-2024	08:36:17.760	313.339	7.497	7.497	27.502	939	0	1.0911	OK	11-12-2024	08:36:17.760	313.339	37.579	OK
11-12-2024	08:36:17.862	313.441	7.497	7.497	27.499	939	0	1.0913	OK	11-12-2024	08:36:17.862	313.441	37.579	OK
11-12-2024	08:36:17.962	313.541	7.496	7.496	27.497	939	0	1.0914	OK	11-12-2024	08:36:17.962	313.541	37.579	OK
11-12-2024	08:36:18.062	313.641	7.496	7.496	27.495	939	0	1.0916	OK	11-12-2024	08:36:18.062	313.641	37.579	OK
11-12-2024	08:36:18.162	313.741	7.496	7.496	27.494	939	0	1.0916	OK	11-12-2024	08:36:18.162	313.741	37.579	OK
11-12-2024	08:36:18.332	313.911	7.496	7.496	27.496	939	0	1.0914	OK	11-12-2024	08:36:18.332	313.911	37.579	OK
11-12-2024	08:36:18.583	314.162	7.497	7.497	27.502	939	0	1.0910	OK	11-12-2024	08:36:18.583	314.162	37.579	OK
11-12-2024	08:36:18.764	314.343	7.497	7.497	27.499	939	0	1.0912	OK	11-12-2024	08:36:18.764	314.343	37.578	OK
11-12-2024	08:36:18.863	314.441	7.497	7.497	27.500	939	0	1.0912	OK	11-12-2024	08:36:18.863	314.441	37.578	OK
11-12-2024	08:36:18.963	314.542	7.496	7.496	27.493	939	0	1.0916	OK	11-12-2024	08:36:18.963	314.542	37.578	OK
11-12-2024	08:36:19.066	314.645	7.496	7.496	27.495	939	0	1.0915	OK	11-12-2024	08:36:19.066	314.645	37.578	OK
11-12-2024	08:36:19.162	314.741	7.496	7.496	27.495	939	0	1.0915	OK	11-12-2024	08:36:19.162	314.741	37.578	OK
11-12-2024	08:36:19.333	314.912	7.496	7.496	27.493	939	0	1.0916	OK	11-12-2024	08:36:19.333	314.912	37.578	OK
11-12-2024	08:36:19.588	315.167	7.497	7.497	27.499	939	0	1.0912	OK	11-12-2024	08:36:19.588	315.167	37.578	OK
11-12-2024	08:36:19.762	315.341	7.497	7.497	27.500	939	0	1.0912	OK	11-12-2024	08:36:19.762	315.341	37.578	OK
11-12-2024	08:36:19.862	315.441	7.496	7.496	27.497	939	0	1.0914	OK	11-12-2024	08:36:19.862	315.441	37.578	OK
11-12-2024	08:36:19.963	315.542	7.496	7.496	27.496	939	0	1.0914	OK	11-12-2024	08:36:19.963	315.542	37.578	OK
11-12-2024	08:36:20.063	315.642	7.496	7.496	27.494	939	0	1.0916	OK	11-12-2024	08:36:20.063	315.642	37.578	OK
11-12-2024	08:36:20.163	315.742	7.496	7.496	27.493	939	0	1.0916	OK	11-12-2024	08:36:20.163	315.742	37.578	OK
11-12-2024	08:36:20.332	315.911	7.496	7.496	27.493	939	0	1.0916	OK	11-12-2024	08:36:20.332	315.911	37.577	OK
11-12-2024	08:36:20.587	316.166	7.497	7.497	27.501	939	0	1.0911	OK	11-12-2024	08:36:20.587	316.166	37.579	OK
11-12-2024	08:36:20.762	316.341	7.496	7.496	27.497	939	0	1.0914	OK	11-12-2024	08:36:20.762	316.341	37.579	OK
11-12-2024	08:36:20.863	316.442	7.496	7.496	27.495	939	0	1.0915	OK	11-12-2024	08:36:20.863	316.442	37.580	OK
11-12-2024	08:36:20.963	316.542	7.496	7.496	27.493	939	0	1.0916	OK	11-12-2024	08:36:20.963	316.542	37.580	OK
11-12-2024	08:36:21.062	316.641	7.496	7.496	27.491	939	0	1.0918	OK	11-12-2024	08:36:21.062	316.641	37.579	OK
11-12-2024	08:36:21.163	316.742	7.496	7.496	27.493	939	0	1.0917	OK	11-12-2024	08:36:21.163	316.742	37.579	OK
11-12-2024	08:36:21.334	316.913	7.496	7.496	27.495	939	0	1.0916	OK	11-12-2024	08:36:21.334	316.913	37.579	OK
11-12-2024	08:36:21.622	317.201	7.497	7.497	27.499	939	0	1.0913	OK	11-12-2024	08:36:21.622	317.201	37.580	OK
11-12-2024	08:36:21.764	317.343	7.497	7.497	27.499	939	0	1.0913	OK	11-12-2024	08:36:21.764	317.343	37.580	OK
11-12-2024	08:36:21.865	317.444	7.496	7.496	27.497	939	0	1.0914	OK	11-12-2024	08:36:21.865	317.444	37.579	OK
11-12-2024	08:36:21.963	317.542	7.496	7.496	27.494	939	0	1.0916	OK	11-12-2024	08:36:21.963	317.542	37.579	OK
11-12-2024	08:36:22.065	317.644	7.496	7.496	27.494	939	0	1.0916	OK	11-12-2024	08:36:22.065	317.644	37.581	OK
11-12-2024	08:36:22.165	317.744	7.496	7.496	27.492	939	0	1.0917	OK	11-12-2024	08:36:22.165	317.744	37.581	OK
11-12-2024	08:36:22.519	318.098	7.497	7.497	27.503	939	0	1.0910	OK	11-12-2024	08:36:22.519	318.098	37.581	OK
11-12-2024	08:36:22.665	318.244	7.497	7.497	27.498	939	0	1.0913	OK	11-12-2024	08:36:22.665	318.244	37.581	OK
11-12-2024	08:36:22.765	318.344	7.496	7.496	27.494	939	0	1.0916	OK	11-12-2024	08:36:22.765	318.344	37.581	OK
11-12-2024	08:36:22.866	318.444	7.496	7.496	27.495	939	0	1.0915	OK	11-12-2024	08:36:22.866	318.444	37.581	OK
11-12-2024	08:36:22.966	318.545	7.496	7.496	27.492	939	0	1.0917	OK	11-12-2024	08:36:22.966	318.545	37.581	OK
11-12-2024	08:36:23.066	318.645	7.496	7.496	27.495	939	0	1.0915	OK	11-12-2024	08:36:23.066	318.645	37.581	OK
11-12-2024	08:36:23.167	318.746	7.495	7.495	27.490	939	0	1.0919	OK	11-12-2024	08:36:23.167	318.746	37.581	OK
11-12-2024	08:36:23.338	318.917	7.496	7.496	27.493	939	0	1.0916	OK	11-12-2024	08:36:23.338	318.917	37.581	OK
11-12-2024	08:36:23.594	319.173	7.497	7.497	27.501	939	0	1.0910	OK	11-12-2024	08:36:23.594	319.173	37.581	OK
11-12-2024	08:36:23.768	319.347	7.496	7.496	27.496	939	0	1.0914	OK	11-12-2024	08:36:23.768	319.347	37.580	OK
11-12-2024	08:36:23.869	319.448	7.497	7.497	27.500	939	0	1.0911	OK	11-12-2024	08:36:23.869	319.448	37.580	OK
11-12-2024	08:36:23.968	319.547	7.497	7.497	27.497	939	0	1.0913	OK	11-12-2024	08:36:23.968	319.547	37.580	OK
11-12-2024	08:36:24.068	319.647	7.496	7.496	27.496	939	0	1.0914	OK	11-12-2024	08:36:24.068	319.647	37.580	OK
11-12-2024	08:36:24.168	319.747	7.496	7.496	27.496	939	0	1.0914	OK	11-12-2024	08:36:24.168	319.747	37.580	OK
11-12-2024	08:36:24.338	319.917	7.497	7.497	27.501	939	0	1.0911	OK	11-12-2024	08:36:24.338	319.917	37.580	OK
11-12-2024	08:36:24.595	320.174	7.497	7.497	27.504	939	0	1.0909	OK	11-12-2024	08:36:24.595	320.174	37.581	OK
11-12-2024	08:36:24.768	320.347	7.497	7.497	27.501	939	0	1.0911	OK	11-12-2024	08:36:24.768	320.347	37.580	OK
11-12-2024	08:36:24.869	320.448	7.497	7.497	27.499	939	0	1.0912	OK	11-12-2024	08:36:24.869	320.448	37.580	OK
11-12-2024	08:36:24.969	320.547	7.496	7.496	27.493	939	0	1.0916	OK	11-12-2024	08:36:24.969	320.547	37.580	OK
11-12-2024	08:36:25.069	320.647	7.496	7.496	27.497	939	0	1.0914	OK	11-12-2024	08:36:25.069	320.647	37.581	OK
11-12-2024	08:36:25.168	320.747	7.496	7.496	27.491	939	0	1.0918	OK	11-12-2024	08:36:25.168	320.747	37.581	OK
11-12-2024	08:36:25.337	320.916	7.497	7.497	27.499	939	0	1.0912	OK	11-12-2024	08:36:25.337	320.916	37.579	OK
11-12-2024	08:36:25.612	321.191	7.497	7.497	27.500	939	0	1.0912	OK	11-12-2024	08:36:25.612	321.191	37.579	OK
11-12-2024	08:36:25.768	321.347	7.497	7.497	27.499	939	0	1.0912	OK	11-12-2024	08:36:25.768	321.347	37.579	OK
11-12-2024	08:36:25.869	321.448	7.496	7.496	27.495	939	0	1.0915	OK	11-12-2024	08:36:25.869	321.448	37.579	OK
11-12-2024	08:36:25.970	321.549	7.496	7.496	27.494	939	0	1.0916	OK	11-12-2024	08:36:25.970	321.549	37.579	OK
11-12-2024	08:36:26.069	321.648	7.496	7.496	27.496	939	0	1.0914	OK	11-12-2024	08:36:26.069	321.648	37.580	OK
11-12-2024	08:36:26.169	321.748	7.496	7.496	27.497	939	0	1.0914	OK	11-12-2024	08:36:26.169	321.748	37.580	OK
11-12-2024	08:36:26.339	321.918	7.497	7.497	27.498	939	0	1.0913	OK	11-12-2024	08:36:26.339	321.918	37.580	OK
11-12-2024	08:36:26.596	322.175	7.497	7.497	27.500	939	0	1.0911	OK	11-12-2024	08:36:26.596	322.175	37.580	OK
11-12-2024	08:36:26.770	322.349	7.497	7.497	27.501	939	0	1.0910	OK	11-12-2024	08:36:26.770	322.349	37.580	OK
11-12-2024	08:36:26.870	322.449	7.497	7.497	27.499	939	0	1.0912	OK	11-12-2024	08:36:26.870	322.449	37.580	OK
11-12-2024	08:36:26.972	322.551	7.497	7.497	27.499	939	0	1.0912	OK	11-12-2024	08:36:26.972	322.551	37.580	OK
11-12-2024	08:36:27.072	322.651	7.496	7.496	27.495	939	0	1.0915	OK	11-12-2024	08:36:27.072	322.651	37.580	OK
11-12-2024	08:36:27.170	322.749	7.496	7.496	27.491	939	0	1.0917	OK	11-12-2024	08:36:27.170	322.749	37.580	OK
11-12-2024	08:36:27.342	322.921	7.497	7.497	27.500	939	0	1.0912	OK	11-12-2024	08:36:27.342	322.921	37.580	OK
11-12-2024	08:36:27.598	323.177	7.498	7.498	27.506	939	0	1.0907	OK	11-12-2024	08:36:27.598	323.177	37.580	OK
11-12-2024	08:36:27.772	323.351	7.497	7.497	27.501	939	0	1.0911	OK	11-12-2024	08:36:27.772	323.351	37.581	OK
11-12-2024	08:36:27.872	323.451	7.497	7.497	27.499	939	0	1.0912	OK	11-12-2024	08:36:27.872	323.451	37.581	OK
11-12-2024	08:36:27.973	323.552	7.496	7.496	27.496	939	0	1.0914	OK	11-12-2024	08:36:27.973	323.552	37.581	OK
11-12-2024	08:36:28.074	323.653	7.496	7.496	27.495	938	0	1.0915	OK	11-12-2024	08:36:28.074	323.653	37.581	OK
11-12-2024	08:36:28.174	323.753	7.496	7.496	27.493	939	0	1.0916	OK	11-12-2024	08:36:28.174	323.753	37.582	OK
11-12-2024	08:36:28.343	323.922	7.496	7.496	27.497	939	0	1.0914	OK	11-12-2024	08:36:28.343	323.922	37.582	OK
11-12-2024	08:36:28.599	324.178	7.497	7.497	27.501	939	0	1.0911	OK	11-12-2024	08:36:28.599	324.178	37.582	OK
11-12-2024	08:36:28.774	324.353	7.497	7.497	27.502	939	0	1.0910	OK	11-12-2024	08:36:28.774	324.353	37.583	OK
11-12-2024	08:36:28.876	324.455	7.497	7.497	27.500	939	0	1.0912	OK	11-12-2024	08:36:28.876	324.455	37.583	OK
11-12-2024	08:36:28.974	324.553	7.497	7.497	27.498	938	0	1.0913	OK	11-12-2024	08:36:28.974	324.553	37.583	OK
11-12-2024	08:36:29.077	324.655	7.496	7.496	27.493	939	0	1.0916	OK	11-12-2024	08:36:29.077	324.655	37.583	OK
11-12-2024	08:36:29.176	324.755	7.496	7.496	27.491	939	0	1.0918	OK	11-12-2024	08:36:29.176	324.755	37.582	OK
11-12-2024	08:36:29.349	324.928	7.497	7.497	27.499	939	0	1.0912	OK	11-12-2024	08:36:29.349	324.928	37.581	OK
11-12-2024	08:36:29.608	325.187	7.498	7.498	27.506	939	0	1.0907	OK	11-12-2024	08:36:29.608	325.187	37.581	OK
11-12-2024	08:36:29.777	325.356	7.497	7.497	27.501	939	0	1.0910	OK	11-12-2024	08:36:29.777	325.356	37.579	OK
11-12-2024	08:36:29.877	325.456	7.496	7.496	27.494	939	0	1.0915	OK	11-12-2024	08:36:29.877	325.456	37.579	OK
11-12-2024	08:36:29.977	325.556	7.497	7.497	27.497	939	0	1.0913	OK	11-12-2024	08:36:29.977	325.556	37.579	OK
11-12-2024	08:36:30.078	325.657	7.496	7.496	27.496	939	0	1.0914	OK	11-12-2024	08:36:30.078	325.657	37.579	OK
11-12-2024	08:36:30.179	325.758	7.496	7.496	27.492	939	0	1.0917	OK	11-12-2024	08:36:30.179	325.758	37.579	OK
11-12-2024	08:36:30.349	325.928	7.496	7.496	27.496	939	0	1.0914	OK	11-12-2024	08:36:30.349	325.928	37.578	OK
11-12-2024	08:36:30.603	326.182	7.497	7.497	27.499	939	0	1.0912	OK	11-12-2024	08:36:30.603	326.182	37.578	OK
11-12-2024	08:36:30.780	326.359	7.497	7.497	27.499	939	0	1.0912	OK	11-12-2024	08:36:30.780	326.359	37.578	OK
11-12-2024	08:36:30.881	326.459	7.497	7.497	27.498	939	0	1.0913	OK	11-12-2024	08:36:30.881	326.459	37.578	OK
11-12-2024	08:36:30.980	326.559	7.496	7.496	27.492	939	0	1.0917	OK	11-12-2024	08:36:30.980	326.559	37.577	OK
11-12-2024	08:36:31.080	326.659	7.496	7.496	27.494	939	0	1.0915	OK	11-12-2024	08:36:31.080	326.659	37.577	OK
11-12-2024	08:36:31.180	326.759	7.496	7.496	27.491	939	0	1.0917	OK	11-12-2024	08:36:31.180	326.759	37.576	OK
11-12-2024	08:36:31.350	326.929	7.497	7.497	27.497	939	0	1.0913	OK	11-12-2024	08:36:31.350	326.929	37.575	OK
11-12-2024	08:36:31.623	327.202	7.497	7.497	27.496	939	0	1.0914	OK	11-12-2024	08:36:31.623	327.202	37.575	OK
11-12-2024	08:36:31.780	327.359	7.497	7.497	27.499	939	0	1.0912	OK	11-12-2024	08:36:31.780	327.359	37.574	OK
11-12-2024	08:36:31.881	327.460	7.497	7.497	27.496	939	0	1.0914	OK	11-12-2024	08:36:31.881	327.460	37.574	OK
11-12-2024	08:36:31.979	327.558	7.497	7.497	27.497	939	0	1.0913	OK	11-12-2024	08:36:31.979	327.558	37.574	OK
11-12-2024	08:36:32.083	327.662	7.497	7.497	27.496	939	0	1.0914	OK	11-12-2024	08:36:32.083	327.662	37.574	OK
11-12-2024	08:36:32.184	327.763	7.496	7.496	27.494	939	0	1.0915	OK	11-12-2024	08:36:32.184	327.763	37.574	OK
11-12-2024	08:36:32.351	327.930	7.497	7.497	27.499	939	0	1.0912	OK	11-12-2024	08:36:32.351	327.930	37.574	OK
11-12-2024	08:36:32.610	328.189	7.497	7.497	27.502	939	0	1.0910	OK	11-12-2024	08:36:32.610	328.189	37.575	OK
11-12-2024	08:36:32.785	328.364	7.498	7.498	27.505	939	0	1.0908	OK	11-12-2024	08:36:32.785	328.364	37.574	OK
11-12-2024	08:36:32.885	328.464	7.497	7.497	27.498	939	0	1.0913	OK	11-12-2024	08:36:32.885	328.464	37.574	OK
11-12-2024	08:36:32.985	328.564	7.496	7.496	27.494	939	0	1.0915	OK	11-12-2024	08:36:32.985	328.564	37.576	OK
11-12-2024	08:36:33.085	328.664	7.496	7.496	27.493	939	0	1.0916	OK	11-12-2024	08:36:33.085	328.664	37.576	OK
11-12-2024	08:36:33.184	328.763	7.496	7.496	27.496	939	0	1.0914	OK	11-12-2024	08:36:33.184	328.763	37.576	OK
11-12-2024	08:36:33.356	328.934	7.496	7.496	27.493	939	0	1.0916	OK	11-12-2024	08:36:33.356	328.934	37.575	OK
11-12-2024	08:36:33.613	329.192	7.497	7.497	27.502	939	0	1.0910	OK	11-12-2024	08:36:33.613	329.192	37.576	OK
11-12-2024	08:36:33.786	329.365	7.497	7.497	27.497	939	0	1.0913	OK	11-12-2024	08:36:33.786	329.365	37.578	OK
11-12-2024	08:36:33.885	329.464	7.497	7.497	27.499	939	0	1.0912	OK	11-12-2024	08:36:33.885	329.464	37.578	OK
11-12-2024	08:36:33.986	329.565	7.496	7.496	27.494	939	0	1.0915	OK	11-12-2024	08:36:33.986	329.565	37.578	OK
11-12-2024	08:36:34.086	329.665	7.496	7.496	27.495	939	0	1.0915	OK	11-12-2024	08:36:34.086	329.665	37.578	OK
11-12-2024	08:36:34.187	329.766	7.496	7.496	27.493	939	0	1.0916	OK	11-12-2024	08:36:34.187	329.766	37.578	OK
11-12-2024	08:36:34.359	329.938	7.496	7.496	27.493	939	0	1.0916	OK	11-12-2024	08:36:34.359	329.938	37.578	OK
11-12-2024	08:36:34.612	330.191	7.497	7.497	27.502	939	0	1.0910	OK	11-12-2024	08:36:34.612	330.191	37.580	OK
11-12-2024	08:36:34.787	330.366	7.497	7.497	27.499	939	0	1.0912	OK	11-12-2024	08:36:34.787	330.366	37.580	OK
11-12-2024	08:36:34.888	330.467	7.497	7.497	27.500	939	0	1.0911	OK	11-12-2024	08:36:34.888	330.467	37.580	OK
11-12-2024	08:36:34.988	330.567	7.497	7.497	27.497	939	0	1.0913	OK	11-12-2024	08:36:34.988	330.567	37.580	OK
11-12-2024	08:36:35.089	330.668	7.496	7.496	27.496	939	0	1.0914	OK	11-12-2024	08:36:35.089	330.668	37.580	OK
11-12-2024	08:36:35.189	330.768	7.496	7.496	27.492	939	0	1.0917	OK	11-12-2024	08:36:35.189	330.768	37.580	OK
11-12-2024	08:36:35.361	330.940	7.496	7.496	27.494	939	0	1.0915	OK	11-12-2024	08:36:35.361	330.940	37.580	OK
11-12-2024	08:36:35.619	331.198	7.497	7.497	27.501	939	0	1.0910	OK	11-12-2024	08:36:35.619	331.198	37.580	OK
11-12-2024	08:36:35.790	331.369	7.497	7.497	27.499	939	0	1.0912	OK	11-12-2024	08:36:35.790	331.369	37.579	OK
11-12-2024	08:36:35.891	331.470	7.497	7.497	27.497	939	0	1.0913	OK	11-12-2024	08:36:35.891	331.470	37.579	OK
11-12-2024	08:36:35.992	331.571	7.496	7.496	27.496	939	0	1.0914	OK	11-12-2024	08:36:35.992	331.571	37.580	OK
11-12-2024	08:36:36.092	331.671	7.496	7.496	27.494	939	0	1.0915	OK	11-12-2024	08:36:36.092	331.671	37.580	OK
11-12-2024	08:36:36.276	331.855	7.496	7.496	27.495	939	0	1.0915	OK	11-12-2024	08:36:36.276	331.855	37.580	OK
11-12-2024	08:36:36.548	332.127	7.497	7.497	27.501	939	0	1.0910	OK	11-12-2024	08:36:36.548	332.127	37.580	OK
11-12-2024	08:36:36.693	332.272	7.497	7.497	27.497	939	0	1.0913	OK	11-12-2024	08:36:36.693	332.272	37.581	OK
11-12-2024	08:36:36.794	332.373	7.496	7.496	27.495	939	0	1.0915	OK	11-12-2024	08:36:36.794	332.373	37.581	OK
11-12-2024	08:36:36.893	332.472	7.496	7.496	27.492	939	0	1.0917	OK	11-12-2024	08:36:36.893	332.472	37.580	OK
11-12-2024	08:36:36.993	332.572	7.496	7.496	27.495	939	0	1.0915	OK	11-12-2024	08:36:36.993	332.572	37.580	OK
11-12-2024	08:36:37.093	332.672	7.496	7.496	27.493	939	0	1.0916	OK	11-12-2024	08:36:37.093	332.672	37.580	OK
11-12-2024	08:36:37.276	332.855	7.496	7.496	27.494	939	0	1.0915	OK	11-12-2024	08:36:37.276	332.855	37.581	OK
11-12-2024	08:36:37.552	333.131	7.497	7.497	27.501	939	0	1.0910	OK	11-12-2024	08:36:37.552	333.131	37.580	OK
11-12-2024	08:36:37.693	333.272	7.497	7.497	27.500	939	0	1.0911	OK	11-12-2024	08:36:37.693	333.272	37.580	OK
11-12-2024	08:36:37.792	333.371	7.496	7.496	27.493	939	0	1.0916	OK	11-12-2024	08:36:37.792	333.371	37.580	OK
11-12-2024	08:36:37.892	333.471	7.496	7.496	27.492	939	0	1.0917	OK	11-12-2024	08:36:37.892	333.471	37.580	OK
11-12-2024	08:36:37.993	333.572	7.496	7.496	27.496	939	0	1.0914	OK	11-12-2024	08:36:37.993	333.572	37.580	OK
11-12-2024	08:36:38.096	333.675	7.496	7.496	27.493	939	0	1.0916	OK	11-12-2024	08:36:38.096	333.675	37.580	OK
11-12-2024	08:36:38.277	333.855	7.497	7.497	27.498	939	0	1.0913	OK	11-12-2024	08:36:38.277	333.855	37.580	OK
11-12-2024	08:36:38.548	334.127	7.497	7.497	27.498	939	0	1.0913	OK	11-12-2024	08:36:38.548	334.127	37.579	OK
11-12-2024	08:36:38.692	334.271	7.497	7.497	27.497	939	0	1.0913	OK	11-12-2024	08:36:38.692	334.271	37.580	OK
11-12-2024	08:36:38.793	334.372	7.496	7.496	27.494	939	0	1.0915	OK	11-12-2024	08:36:38.793	334.372	37.580	OK
11-12-2024	08:36:38.893	334.472	7.496	7.496	27.495	939	0	1.0915	OK	11-12-2024	08:36:38.893	334.472	37.580	OK
11-12-2024	08:36:38.993	334.572	7.496	7.496	27.493	939	0	1.0916	OK	11-12-2024	08:36:38.993	334.572	37.580	OK
11-12-2024	08:36:39.093	334.672	7.496	7.496	27.493	939	0	1.0916	OK	11-12-2024	08:36:39.093	334.672	37.581	OK
11-12-2024	08:36:39.276	334.854	7.496	7.496	27.495	939	0	1.0915	OK	11-12-2024	08:36:39.276	334.854	37.581	OK
11-12-2024	08:36:39.533	335.112	7.498	7.498	27.505	939	0	1.0907	OK	11-12-2024	08:36:39.533	335.112	37.580	OK
11-12-2024	08:36:39.693	335.272	7.497	7.497	27.501	939	0	1.0910	OK	11-12-2024	08:36:39.693	335.272	37.580	OK
11-12-2024	08:36:39.794	335.373	7.497	7.497	27.499	939	0	1.0911	OK	11-12-2024	08:36:39.794	335.373	37.580	OK
11-12-2024	08:36:39.894	335.473	7.497	7.497	27.497	938	0	1.0913	OK	11-12-2024	08:36:39.894	335.473	37.579	OK
11-12-2024	08:36:39.993	335.572	7.496	7.496	27.494	938	0	1.0915	OK	11-12-2024	08:36:39.993	335.572	37.579	OK
11-12-2024	08:36:40.095	335.674	7.496	7.496	27.494	939	0	1.0915	OK	11-12-2024	08:36:40.095	335.674	37.579	OK
11-12-2024	08:36:40.276	335.855	7.498	7.498	27.504	939	0	1.0908	OK	11-12-2024	08:36:40.276	335.855	37.578	OK
11-12-2024	08:36:40.544	336.122	7.497	7.497	27.502	939	0	1.0910	OK	11-12-2024	08:36:40.544	336.122	37.578	OK
11-12-2024	08:36:40.693	336.272	7.497	7.497	27.498	939	0	1.0913	OK	11-12-2024	08:36:40.693	336.272	37.578	OK
11-12-2024	08:36:40.793	336.372	7.496	7.496	27.496	938	0	1.0914	OK	11-12-2024	08:36:40.793	336.372	37.578	OK
11-12-2024	08:36:40.894	336.473	7.496	7.496	27.492	939	0	1.0917	OK	11-12-2024	08:36:40.894	336.473	37.578	OK
11-12-2024	08:36:40.999	336.578	7.496	7.496	27.495	938	0	1.0915	OK	11-12-2024	08:36:40.999	336.578	37.578	OK
11-12-2024	08:36:41.099	336.678	7.496	7.496	27.494	938	0	1.0915	OK	11-12-2024	08:36:41.099	336.678	37.578	OK
11-12-2024	08:36:41.276	336.855	7.496	7.496	27.495	939	0	1.0915	OK	11-12-2024	08:36:41.276	336.855	37.578	OK
11-12-2024	08:36:41.531	337.110	7.497	7.497	27.502	938	0	1.0910	OK	11-12-2024	08:36:41.531	337.110	37.579	OK
11-12-2024	08:36:41.695	337.274	7.497	7.497	27.498	938	0	1.0913	OK	11-12-2024	08:36:41.695	337.274	37.579	OK
11-12-2024	08:36:41.796	337.375	7.497	7.497	27.498	939	0	1.0913	OK	11-12-2024	08:36:41.796	337.375	37.579	OK
11-12-2024	08:36:41.896	337.475	7.496	7.496	27.494	939	0	1.0915	OK	11-12-2024	08:36:41.896	337.475	37.579	OK
11-12-2024	08:36:41.995	337.574	7.496	7.496	27.495	939	0	1.0915	OK	11-12-2024	08:36:41.995	337.574	37.579	OK
11-12-2024	08:36:42.095	337.674	7.495	7.495	27.489	938	0	1.0919	OK	11-12-2024	08:36:42.095	337.674	37.579	OK
11-12-2024	08:36:42.277	337.856	7.497	7.497	27.498	939	0	1.0913	OK	11-12-2024	08:36:42.277	337.856	37.579	OK
11-12-2024	08:36:42.532	338.111	7.497	7.497	27.497	939	0	1.0913	OK	11-12-2024	08:36:42.532	338.111	37.580	OK
11-12-2024	08:36:42.697	338.275	7.497	7.497	27.501	939	0	1.0910	OK	11-12-2024	08:36:42.697	338.275	37.580	OK
11-12-2024	08:36:42.796	338.375	7.497	7.497	27.497	939	0	1.0913	OK	11-12-2024	08:36:42.796	338.375	37.580	OK
11-12-2024	08:36:42.896	338.475	7.496	7.496	27.493	939	0	1.0916	OK	11-12-2024	08:36:42.896	338.475	37.580	OK
11-12-2024	08:36:42.995	338.574	7.496	7.496	27.495	938	0	1.0915	OK	11-12-2024	08:36:42.995	338.574	37.580	OK
11-12-2024	08:36:43.097	338.676	7.496	7.496	27.491	938	0	1.0917	OK	11-12-2024	08:36:43.097	338.676	37.580	OK
11-12-2024	08:36:43.278	338.857	7.496	7.496	27.495	938	0	1.0915	OK	11-12-2024	08:36:43.278	338.857	37.580	OK
11-12-2024	08:36:43.537	339.116	7.497	7.497	27.501	938	0	1.0910	OK	11-12-2024	08:36:43.537	339.116	37.581	OK
11-12-2024	08:36:43.701	339.280	7.497	7.497	27.500	938	0	1.0911	OK	11-12-2024	08:36:43.701	339.280	37.580	OK
11-12-2024	08:36:43.798	339.377	7.497	7.497	27.503	938	0	1.0909	OK	11-12-2024	08:36:43.798	339.377	37.580	OK
11-12-2024	08:36:43.896	339.475	7.496	7.496	27.496	938	0	1.0914	OK	11-12-2024	08:36:43.896	339.475	37.580	OK
11-12-2024	08:36:43.996	339.575	7.496	7.496	27.492	938	0	1.0917	OK	11-12-2024	08:36:43.996	339.575	37.580	OK
11-12-2024	08:36:44.098	339.677	7.496	7.496	27.496	938	0	1.0914	OK	11-12-2024	08:36:44.098	339.677	37.580	OK
11-12-2024	08:36:44.279	339.858	7.497	7.497	27.500	938	0	1.0911	OK	11-12-2024	08:36:44.279	339.858	37.580	OK
11-12-2024	08:36:44.564	340.143	7.497	7.497	27.498	939	0	1.0913	OK	11-12-2024	08:36:44.564	340.143	37.580	OK
11-12-2024	08:36:44.700	340.279	7.497	7.497	27.498	939	0	1.0913	OK	11-12-2024	08:36:44.700	340.279	37.580	OK
11-12-2024	08:36:44.800	340.378	7.496	7.496	27.496	938	0	1.0914	OK	11-12-2024	08:36:44.800	340.378	37.579	OK
11-12-2024	08:36:44.899	340.478	7.496	7.496	27.496	938	0	1.0914	OK	11-12-2024	08:36:44.899	340.478	37.579	OK
11-12-2024	08:36:44.999	340.578	7.496	7.496	27.490	938	0	1.0918	OK	11-12-2024	08:36:44.999	340.578	37.577	OK
11-12-2024	08:36:45.099	340.678	7.495	7.495	27.487	938	0	1.0920	OK	11-12-2024	08:36:45.099	340.678	37.577	OK
11-12-2024	08:36:45.280	340.859	7.496	7.496	27.493	939	0	1.0916	OK	11-12-2024	08:36:45.280	340.859	37.578	OK
11-12-2024	08:36:45.554	341.133	7.497	7.497	27.502	938	0	1.0910	OK	11-12-2024	08:36:45.554	341.133	37.576	OK
11-12-2024	08:36:45.699	341.278	7.496	7.496	27.496	938	0	1.0914	OK	11-12-2024	08:36:45.699	341.278	37.576	OK
11-12-2024	08:36:45.801	341.379	7.497	7.497	27.496	939	0	1.0914	OK	11-12-2024	08:36:45.801	341.379	37.575	OK
11-12-2024	08:36:45.901	341.480	7.496	7.496	27.494	938	0	1.0915	OK	11-12-2024	08:36:45.901	341.480	37.575	OK
11-12-2024	08:36:46.000	341.579	7.495	7.495	27.488	939	0	1.0919	OK	11-12-2024	08:36:46.000	341.579	37.574	OK
11-12-2024	08:36:46.102	341.681	7.496	7.496	27.492	939	0	1.0917	OK	11-12-2024	08:36:46.102	341.681	37.574	OK
11-12-2024	08:36:46.277	341.856	7.496	7.496	27.494	939	0	1.0915	OK	11-12-2024	08:36:46.277	341.856	37.574	OK
11-12-2024	08:36:46.533	342.111	7.497	7.497	27.498	939	0	1.0913	OK	11-12-2024	08:36:46.533	342.111	37.574	OK
11-12-2024	08:36:46.703	342.282	7.497	7.497	27.496	939	0	1.0914	OK	11-12-2024	08:36:46.703	342.282	37.573	OK
11-12-2024	08:36:46.803	342.382	7.497	7.497	27.496	938	0	1.0914	OK	11-12-2024	08:36:46.803	342.382	37.573	OK
11-12-2024	08:36:46.902	342.481	7.496	7.496	27.494	939	0	1.0915	OK	11-12-2024	08:36:46.902	342.481	37.573	OK
11-12-2024	08:36:47.003	342.582	7.496	7.496	27.491	938	0	1.0917	OK	11-12-2024	08:36:47.003	342.582	37.574	OK
11-12-2024	08:36:47.103	342.682	7.496	7.496	27.493	939	0	1.0916	OK	11-12-2024	08:36:47.103	342.682	37.574	OK
11-12-2024	08:36:47.278	342.857	7.497	7.497	27.500	939	0	1.0911	OK	11-12-2024	08:36:47.278	342.857	37.574	OK
11-12-2024	08:36:47.531	343.110	7.497	7.497	27.501	938	0	1.0910	OK	11-12-2024	08:36:47.531	343.110	37.575	OK
11-12-2024	08:36:47.702	343.281	7.497	7.497	27.500	938	0	1.0911	OK	11-12-2024	08:36:47.702	343.281	37.576	OK
11-12-2024	08:36:47.804	343.382	7.497	7.497	27.499	938	0	1.0912	OK	11-12-2024	08:36:47.804	343.382	37.576	OK
11-12-2024	08:36:47.903	343.482	7.496	7.496	27.494	938	0	1.0915	OK	11-12-2024	08:36:47.903	343.482	37.576	OK
11-12-2024	08:36:48.004	343.583	7.496	7.496	27.494	938	0	1.0915	OK	11-12-2024	08:36:48.004	343.583	37.576	OK
11-12-2024	08:36:48.104	343.683	7.496	7.496	27.492	938	0	1.0917	OK	11-12-2024	08:36:48.104	343.683	37.576	OK
11-12-2024	08:36:48.278	343.857	7.497	7.497	27.500	938	0	1.0911	OK	11-12-2024	08:36:48.278	343.857	37.578	OK
11-12-2024	08:36:48.531	344.110	7.497	7.497	27.502	939	0	1.0910	OK	11-12-2024	08:36:48.531	344.110	37.579	OK
11-12-2024	08:36:48.705	344.284	7.497	7.497	27.502	938	0	1.0909	OK	11-12-2024	08:36:48.705	344.284	37.579	OK
11-12-2024	08:36:48.805	344.384	7.498	7.498	27.503	938	0	1.0909	OK	11-12-2024	08:36:48.805	344.384	37.580	OK
11-12-2024	08:36:48.905	344.484	7.496	7.496	27.495	938	0	1.0914	OK	11-12-2024	08:36:48.905	344.484	37.580	OK
11-12-2024	08:36:49.017	344.596	7.496	7.496	27.494	938	0	1.0915	OK	11-12-2024	08:36:49.017	344.596	37.580	OK
11-12-2024	08:36:49.107	344.686	7.496	7.496	27.495	938	0	1.0914	OK	11-12-2024	08:36:49.107	344.686	37.580	OK
11-12-2024	08:36:49.278	344.857	7.497	7.497	27.500	938	0	1.0911	OK	11-12-2024	08:36:49.278	344.857	37.580	OK
11-12-2024	08:36:49.535	345.114	7.497	7.497	27.499	938	0	1.0911	OK	11-12-2024	08:36:49.535	345.114	37.581	OK
11-12-2024	08:36:49.709	345.287	7.498	7.498	27.504	938	0	1.0908	OK	11-12-2024	08:36:49.709	345.287	37.581	OK
11-12-2024	08:36:49.809	345.388	7.497	7.497	27.497	938	0	1.0913	OK	11-12-2024	08:36:49.809	345.388	37.581	OK
11-12-2024	08:36:49.909	345.488	7.496	7.496	27.493	938	0	1.0916	OK	11-12-2024	08:36:49.909	345.488	37.581	OK
11-12-2024	08:36:50.018	345.597	7.496	7.496	27.491	938	0	1.0917	OK	11-12-2024	08:36:50.018	345.597	37.580	OK
11-12-2024	08:36:50.279	345.858	7.497	7.497	27.503	938	0	1.0909	OK	11-12-2024	08:36:50.279	345.858	37.581	OK
11-12-2024	08:36:50.539	346.118	7.497	7.497	27.502	938	0	1.0910	OK	11-12-2024	08:36:50.539	346.118	37.581	OK
11-12-2024	08:36:50.710	346.289	7.498	7.498	27.503	938	0	1.0909	OK	11-12-2024	08:36:50.710	346.289	37.581	OK
11-12-2024	08:36:50.810	346.389	7.496	7.496	27.493	938	0	1.0915	OK	11-12-2024	08:36:50.810	346.389	37.581	OK
11-12-2024	08:36:50.909	346.488	7.496	7.496	27.492	938	0	1.0916	OK	11-12-2024	08:36:50.909	346.488	37.581	OK
11-12-2024	08:36:51.019	346.598	7.496	7.496	27.492	938	0	1.0916	OK	11-12-2024	08:36:51.019	346.598	37.581	OK
11-12-2024	08:36:51.111	346.690	7.496	7.496	27.492	938	0	1.0916	OK	11-12-2024	08:36:51.111	346.690	37.581	OK
11-12-2024	08:36:51.280	346.859	7.497	7.497	27.497	938	0	1.0913	OK	11-12-2024	08:36:51.280	346.859	37.581	OK
11-12-2024	08:36:51.539	347.118	7.497	7.497	27.501	938	0	1.0910	OK	11-12-2024	08:36:51.539	347.118	37.580	OK
11-12-2024	08:36:51.712	347.291	7.497	7.497	27.500	938	0	1.0911	OK	11-12-2024	08:36:51.712	347.291	37.580	OK
11-12-2024	08:36:51.813	347.392	7.497	7.497	27.498	938	0	1.0913	OK	11-12-2024	08:36:51.813	347.392	37.580	OK
11-12-2024	08:36:51.914	347.492	7.497	7.497	27.499	938	0	1.0912	OK	11-12-2024	08:36:51.914	347.492	37.581	OK
11-12-2024	08:36:52.019	347.598	7.496	7.496	27.494	938	0	1.0915	OK	11-12-2024	08:36:52.019	347.598	37.580	OK
11-12-2024	08:36:52.114	347.693	7.496	7.496	27.491	938	0	1.0917	OK	11-12-2024	08:36:52.114	347.693	37.580	OK
11-12-2024	08:36:52.301	347.880	7.497	7.497	27.499	938	0	1.0912	OK	11-12-2024	08:36:52.301	347.880	37.581	OK
11-12-2024	08:36:52.557	348.136	7.497	7.497	27.501	938	0	1.0910	OK	11-12-2024	08:36:52.557	348.136	37.581	OK
11-12-2024	08:36:52.715	348.293	7.497	7.497	27.501	938	0	1.0910	OK	11-12-2024	08:36:52.715	348.293	37.581	OK
11-12-2024	08:36:52.815	348.394	7.497	7.497	27.500	938	0	1.0911	OK	11-12-2024	08:36:52.815	348.394	37.581	OK
11-12-2024	08:36:53.017	348.596	7.498	7.498	27.507	938	0	1.0906	OK	11-12-2024	08:36:53.017	348.596	37.581	OK
11-12-2024	08:36:53.116	348.695	7.497	7.497	27.498	938	0	1.0913	OK	11-12-2024	08:36:53.116	348.695	37.581	OK
11-12-2024	08:36:53.286	348.865	7.497	7.497	27.500	938	0	1.0911	OK	11-12-2024	08:36:53.286	348.865	37.581	OK
11-12-2024	08:36:53.543	349.122	7.497	7.497	27.501	938	0	1.0910	OK	11-12-2024	08:36:53.543	349.122	37.580	OK
11-12-2024	08:36:53.715	349.294	7.497	7.497	27.500	938	0	1.0911	OK	11-12-2024	08:36:53.715	349.294	37.580	OK
11-12-2024	08:36:53.815	349.394	7.497	7.497	27.497	938	0	1.0913	OK	11-12-2024	08:36:53.815	349.394	37.580	OK
11-12-2024	08:36:53.915	349.494	7.496	7.496	27.494	938	0	1.0915	OK	11-12-2024	08:36:53.915	349.494	37.580	OK
11-12-2024	08:36:54.017	349.596	7.496	7.496	27.494	938	0	1.0915	OK	11-12-2024	08:36:54.017	349.596	37.580	OK
11-12-2024	08:36:54.116	349.695	7.496	7.496	27.492	938	0	1.0917	OK	11-12-2024	08:36:54.116	349.695	37.580	OK
11-12-2024	08:36:54.288	349.867	7.497	7.497	27.497	938	0	1.0913	OK	11-12-2024	08:36:54.288	349.867	37.578	OK
11-12-2024	08:36:54.545	350.124	7.497	7.497	27.503	938	0	1.0909	OK	11-12-2024	08:36:54.545	350.124	37.579	OK
11-12-2024	08:36:54.716	350.295	7.497	7.497	27.501	938	0	1.0910	OK	11-12-2024	08:36:54.716	350.295	37.579	OK
11-12-2024	08:36:54.816	350.395	7.497	7.497	27.497	938	0	1.0913	OK	11-12-2024	08:36:54.816	350.395	37.579	OK
11-12-2024	08:36:54.916	350.495	7.497	7.497	27.496	938	0	1.0913	OK	11-12-2024	08:36:54.916	350.495	37.579	OK
11-12-2024	08:36:55.023	350.602	7.496	7.496	27.494	938	0	1.0915	OK	11-12-2024	08:36:55.023	350.602	37.579	OK
11-12-2024	08:36:55.118	350.696	7.496	7.496	27.494	938	0	1.0915	OK	11-12-2024	08:36:55.118	350.696	37.578	OK
11-12-2024	08:36:55.289	350.867	7.496	7.496	27.494	938	0	1.0915	OK	11-12-2024	08:36:55.289	350.867	37.578	OK
11-12-2024	08:36:55.544	351.123	7.497	7.497	27.502	938	0	1.0909	OK	11-12-2024	08:36:55.544	351.123	37.577	OK
11-12-2024	08:36:55.717	351.296	7.497	7.497	27.501	938	0	1.0910	OK	11-12-2024	08:36:55.717	351.296	37.577	OK
11-12-2024	08:36:55.818	351.397	7.497	7.497	27.500	938	0	1.0911	OK	11-12-2024	08:36:55.818	351.397	37.577	OK
11-12-2024	08:36:55.918	351.497	7.496	7.496	27.492	938	0	1.0916	OK	11-12-2024	08:36:55.918	351.497	37.577	OK
11-12-2024	08:36:56.019	351.598	7.496	7.496	27.491	938	0	1.0917	OK	11-12-2024	08:36:56.019	351.598	37.577	OK
11-12-2024	08:36:56.119	351.698	7.496	7.496	27.493	938	0	1.0915	OK	11-12-2024	08:36:56.119	351.698	37.577	OK
11-12-2024	08:36:56.305	351.884	7.497	7.497	27.496	938	0	1.0913	OK	11-12-2024	08:36:56.305	351.884	37.577	OK
11-12-2024	08:36:56.566	352.145	7.498	7.498	27.503	938	0	1.0909	OK	11-12-2024	08:36:56.566	352.145	37.576	OK
11-12-2024	08:36:56.719	352.298	7.497	7.497	27.501	938	0	1.0910	OK	11-12-2024	08:36:56.719	352.298	37.576	OK
11-12-2024	08:36:56.819	352.398	7.497	7.497	27.498	938	0	1.0913	OK	11-12-2024	08:36:56.819	352.398	37.576	OK
11-12-2024	08:36:56.919	352.498	7.496	7.496	27.496	938	0	1.0914	OK	11-12-2024	08:36:56.919	352.498	37.576	OK
11-12-2024	08:36:57.019	352.598	7.496	7.496	27.493	938	0	1.0916	OK	11-12-2024	08:36:57.019	352.598	37.576	OK
11-12-2024	08:36:57.119	352.698	7.496	7.496	27.494	938	0	1.0915	OK	11-12-2024	08:36:57.119	352.698	37.575	OK
11-12-2024	08:36:57.290	352.869	7.497	7.497	27.499	938	0	1.0912	OK	11-12-2024	08:36:57.290	352.869	37.575	OK
11-12-2024	08:36:57.546	353.125	7.497	7.497	27.500	938	0	1.0911	OK	11-12-2024	08:36:57.546	353.125	37.578	OK
11-12-2024	08:36:57.719	353.298	7.497	7.497	27.501	938	0	1.0910	OK	11-12-2024	08:36:57.719	353.298	37.577	OK
11-12-2024	08:36:57.819	353.398	7.496	7.496	27.494	939	0	1.0915	OK	11-12-2024	08:36:57.819	353.398	37.577	OK
11-12-2024	08:36:57.920	353.498	7.496	7.496	27.491	938	0	1.0917	OK	11-12-2024	08:36:57.920	353.498	37.577	OK
11-12-2024	08:36:58.018	353.597	7.496	7.496	27.493	938	0	1.0915	OK	11-12-2024	08:36:58.018	353.597	37.577	OK
11-12-2024	08:36:58.119	353.698	7.496	7.496	27.493	938	0	1.0915	OK	11-12-2024	08:36:58.119	353.698	37.577	OK
11-12-2024	08:36:58.290	353.869	7.496	7.496	27.495	938	0	1.0914	OK	11-12-2024	08:36:58.290	353.869	37.577	OK
11-12-2024	08:36:58.563	354.142	7.497	7.497	27.499	939	0	1.0911	OK	11-12-2024	08:36:58.563	354.142	37.576	OK
11-12-2024	08:36:58.720	354.299	7.497	7.497	27.497	938	0	1.0913	OK	11-12-2024	08:36:58.720	354.299	37.577	OK
11-12-2024	08:36:58.820	354.399	7.497	7.497	27.501	939	0	1.0910	OK	11-12-2024	08:36:58.820	354.399	37.577	OK
11-12-2024	08:36:58.920	354.499	7.496	7.496	27.495	939	0	1.0914	OK	11-12-2024	08:36:58.920	354.499	37.577	OK
11-12-2024	08:36:59.020	354.599	7.496	7.496	27.492	938	0	1.0916	OK	11-12-2024	08:36:59.020	354.599	37.577	OK
11-12-2024	08:36:59.119	354.698	7.496	7.496	27.492	938	0	1.0916	OK	11-12-2024	08:36:59.119	354.698	37.577	OK
11-12-2024	08:36:59.290	354.869	7.496	7.496	27.494	938	0	1.0915	OK	11-12-2024	08:36:59.290	354.869	37.577	OK
11-12-2024	08:36:59.562	355.141	7.497	7.497	27.499	939	0	1.0911	OK	11-12-2024	08:36:59.562	355.141	37.578	OK
11-12-2024	08:36:59.722	355.301	7.497	7.497	27.498	939	0	1.0912	OK	11-12-2024	08:36:59.722	355.301	37.578	OK
11-12-2024	08:36:59.823	355.402	7.497	7.497	27.497	939	0	1.0913	OK	11-12-2024	08:36:59.823	355.402	37.577	OK
11-12-2024	08:36:59.923	355.502	7.497	7.497	27.496	939	0	1.0913	OK	11-12-2024	08:36:59.923	355.502	37.577	OK
11-12-2024	08:37:00.023	355.602	7.496	7.496	27.495	939	0	1.0914	OK	11-12-2024	08:37:00.023	355.602	37.577	OK
11-12-2024	08:37:00.123	355.702	7.496	7.496	27.493	938	0	1.0915	OK	11-12-2024	08:37:00.123	355.702	37.577	OK
11-12-2024	08:37:00.295	355.874	7.496	7.496	27.495	939	0	1.0914	OK	11-12-2024	08:37:00.295	355.874	37.578	OK
11-12-2024	08:37:00.553	356.132	7.497	7.497	27.502	939	0	1.0909	OK	11-12-2024	08:37:00.553	356.132	37.578	OK
11-12-2024	08:37:00.725	356.304	7.498	7.498	27.507	939	0	1.0906	OK	11-12-2024	08:37:00.725	356.304	37.578	OK
11-12-2024	08:37:00.826	356.405	7.497	7.497	27.498	938	0	1.0912	OK	11-12-2024	08:37:00.826	356.405	37.576	OK
11-12-2024	08:37:00.926	356.505	7.496	7.496	27.495	938	0	1.0914	OK	11-12-2024	08:37:00.926	356.505	37.576	OK
11-12-2024	08:37:01.026	356.605	7.496	7.496	27.493	938	0	1.0915	OK	11-12-2024	08:37:01.026	356.605	37.576	OK
11-12-2024	08:37:01.126	356.705	7.496	7.496	27.489	938	0	1.0918	OK	11-12-2024	08:37:01.126	356.705	37.576	OK
11-12-2024	08:37:01.298	356.877	7.497	7.497	27.499	938	0	1.0911	OK	11-12-2024	08:37:01.298	356.877	37.577	OK
11-12-2024	08:37:01.571	357.150	7.498	7.498	27.503	939	0	1.0909	OK	11-12-2024	08:37:01.571	357.150	37.578	OK
11-12-2024	08:37:01.727	357.306	7.497	7.497	27.498	939	0	1.0912	OK	11-12-2024	08:37:01.727	357.306	37.578	OK
11-12-2024	08:37:01.828	357.407	7.497	7.497	27.500	938	0	1.0911	OK	11-12-2024	08:37:01.828	357.407	37.578	OK
11-12-2024	08:37:01.928	357.507	7.496	7.496	27.494	938	0	1.0915	OK	11-12-2024	08:37:01.928	357.507	37.578	OK
11-12-2024	08:37:02.028	357.607	7.496	7.496	27.492	939	0	1.0916	OK	11-12-2024	08:37:02.028	357.607	37.578	OK
11-12-2024	08:37:02.128	357.707	7.496	7.496	27.492	938	0	1.0916	OK	11-12-2024	08:37:02.128	357.707	37.578	OK
11-12-2024	08:37:02.298	357.877	7.497	7.497	27.496	938	0	1.0913	OK	11-12-2024	08:37:02.298	357.877	37.579	OK
11-12-2024	08:37:02.569	358.148	7.497	7.497	27.502	939	0	1.0909	OK	11-12-2024	08:37:02.569	358.148	37.579	OK
11-12-2024	08:37:02.729	358.308	7.497	7.497	27.502	938	0	1.0909	OK	11-12-2024	08:37:02.729	358.308	37.579	OK
11-12-2024	08:37:02.831	358.409	7.497	7.497	27.501	939	0	1.0909	OK	11-12-2024	08:37:02.831	358.409	37.579	OK
11-12-2024	08:37:02.932	358.511	7.497	7.497	27.495	939	0	1.0914	OK	11-12-2024	08:37:02.932	358.511	37.579	OK
11-12-2024	08:37:03.032	358.611	7.497	7.497	27.496	938	0	1.0913	OK	11-12-2024	08:37:03.032	358.611	37.579	OK
11-12-2024	08:37:03.132	358.711	7.496	7.496	27.494	938	0	1.0914	OK	11-12-2024	08:37:03.132	358.711	37.579	OK
11-12-2024	08:37:03.302	358.881	7.497	7.497	27.499	939	0	1.0911	OK	11-12-2024	08:37:03.302	358.881	37.579	OK
11-12-2024	08:37:03.559	359.138	7.498	7.498	27.502	938	0	1.0909	OK	11-12-2024	08:37:03.559	359.138	37.579	OK
11-12-2024	08:37:03.733	359.312	7.497	7.497	27.499	938	0	1.0911	OK	11-12-2024	08:37:03.733	359.312	37.579	OK
11-12-2024	08:37:03.833	359.412	7.497	7.497	27.498	939	0	1.0912	OK	11-12-2024	08:37:03.833	359.412	37.580	OK
11-12-2024	08:37:03.934	359.513	7.496	7.496	27.491	938	0	1.0916	OK	11-12-2024	08:37:03.934	359.513	37.580	OK
11-12-2024	08:37:04.037	359.616	7.497	7.497	27.497	938	0	1.0912	OK	11-12-2024	08:37:04.037	359.616	37.581	OK
11-12-2024	08:37:04.135	359.714	7.496	7.496	27.494	938	0	1.0914	OK	11-12-2024	08:37:04.135	359.714	37.581	OK
11-12-2024	08:37:04.307	359.886	7.497	7.497	27.497	938	0	1.0912	OK	11-12-2024	08:37:04.307	359.886	37.581	OK
11-12-2024	08:37:04.561	360.140	7.498	7.498	27.503	938	0	1.0908	OK	11-12-2024	08:37:04.561	360.140	37.581	OK
11-12-2024	08:37:04.735	360.314	7.498	7.498	27.503	938	0	1.0908	OK	11-12-2024	08:37:04.735	360.314	37.581	OK
11-12-2024	08:37:04.835	360.414	7.496	7.496	27.494	939	0	1.0915	OK	11-12-2024	08:37:04.835	360.414	37.580	OK
11-12-2024	08:37:04.935	360.514	7.497	7.497	27.496	938	0	1.0913	OK	11-12-2024	08:37:04.935	360.514	37.580	OK
11-12-2024	08:37:05.035	360.614	7.497	7.497	27.499	938	0	1.0911	OK	11-12-2024	08:37:05.035	360.614	37.580	OK
11-12-2024	08:37:05.135	360.714	7.497	7.497	27.497	938	0	1.0913	OK	11-12-2024	08:37:05.135	360.714	37.580	OK
11-12-2024	08:37:05.308	360.887	7.497	7.497	27.501	938	0	1.0910	OK	11-12-2024	08:37:05.308	360.887	37.579	OK
11-12-2024	08:37:05.567	361.146	7.497	7.497	27.502	938	0	1.0909	OK	11-12-2024	08:37:05.567	361.146	37.579	OK
11-12-2024	08:37:05.738	361.317	7.497	7.497	27.502	938	0	1.0909	OK	11-12-2024	08:37:05.738	361.317	37.580	OK
11-12-2024	08:37:05.839	361.418	7.497	7.497	27.499	938	0	1.0911	OK	11-12-2024	08:37:05.839	361.418	37.579	OK
11-12-2024	08:37:05.938	361.517	7.497	7.497	27.497	938	0	1.0912	OK	11-12-2024	08:37:05.938	361.517	37.579	OK
11-12-2024	08:37:06.038	361.617	7.497	7.497	27.500	938	0	1.0910	OK	11-12-2024	08:37:06.038	361.617	37.579	OK
11-12-2024	08:37:06.139	361.718	7.497	7.497	27.496	938	0	1.0913	OK	11-12-2024	08:37:06.139	361.718	37.579	OK
11-12-2024	08:37:06.312	361.891	7.497	7.497	27.498	938	0	1.0912	OK	11-12-2024	08:37:06.312	361.891	37.579	OK
11-12-2024	08:37:06.570	362.149	7.497	7.497	27.501	938	0	1.0909	OK	11-12-2024	08:37:06.570	362.149	37.579	OK
11-12-2024	08:37:06.738	362.317	7.497	7.497	27.501	938	0	1.0909	OK	11-12-2024	08:37:06.738	362.317	37.579	OK
11-12-2024	08:37:06.838	362.417	7.497	7.497	27.499	938	0	1.0911	OK	11-12-2024	08:37:06.838	362.417	37.579	OK
11-12-2024	08:37:06.939	362.518	7.496	7.496	27.495	938	0	1.0914	OK	11-12-2024	08:37:06.939	362.518	37.579	OK
11-12-2024	08:37:07.039	362.618	7.496	7.496	27.495	938	0	1.0914	OK	11-12-2024	08:37:07.039	362.618	37.578	OK
11-12-2024	08:37:07.138	362.717	7.496	7.496	27.493	938	0	1.0915	OK	11-12-2024	08:37:07.138	362.717	37.578	OK
11-12-2024	08:37:07.311	362.890	7.497	7.497	27.498	938	0	1.0912	OK	11-12-2024	08:37:07.311	362.890	37.576	OK
11-12-2024	08:37:07.568	363.147	7.498	7.498	27.504	938	0	1.0908	OK	11-12-2024	08:37:07.568	363.147	37.577	OK
11-12-2024	08:37:07.740	363.319	7.498	7.498	27.504	938	0	1.0908	OK	11-12-2024	08:37:07.740	363.319	37.576	OK
11-12-2024	08:37:07.840	363.419	7.497	7.497	27.496	938	0	1.0913	OK	11-12-2024	08:37:07.840	363.419	37.576	OK
11-12-2024	08:37:07.940	363.519	7.496	7.496	27.493	938	0	1.0915	OK	11-12-2024	08:37:07.940	363.519	37.576	OK
11-12-2024	08:37:08.040	363.619	7.496	7.496	27.493	938	0	1.0915	OK	11-12-2024	08:37:08.040	363.619	37.576	OK
11-12-2024	08:37:08.140	363.719	7.497	7.497	27.495	938	0	1.0914	OK	11-12-2024	08:37:08.140	363.719	37.576	OK
11-12-2024	08:37:08.312	363.891	7.496	7.496	27.494	938	0	1.0914	OK	11-12-2024	08:37:08.312	363.891	37.577	OK
11-12-2024	08:37:08.567	364.146	7.497	7.497	27.500	938	0	1.0910	OK	11-12-2024	08:37:08.567	364.146	37.577	OK
11-12-2024	08:37:08.740	364.319	7.497	7.497	27.498	938	0	1.0912	OK	11-12-2024	08:37:08.740	364.319	37.576	OK
11-12-2024	08:37:08.841	364.420	7.497	7.497	27.498	938	0	1.0912	OK	11-12-2024	08:37:08.841	364.420	37.576	OK
11-12-2024	08:37:08.941	364.520	7.496	7.496	27.493	938	0	1.0915	OK	11-12-2024	08:37:08.941	364.520	37.576	OK
11-12-2024	08:37:09.042	364.621	7.497	7.497	27.495	938	0	1.0914	OK	11-12-2024	08:37:09.042	364.621	37.576	OK
11-12-2024	08:37:09.143	364.722	7.496	7.496	27.491	938	0	1.0916	OK	11-12-2024	08:37:09.143	364.722	37.575	OK
11-12-2024	08:37:09.314	364.893	7.497	7.497	27.495	939	0	1.0914	OK	11-12-2024	08:37:09.314	364.893	37.576	OK
11-12-2024	08:37:09.585	365.164	7.498	7.498	27.502	939	0	1.0909	OK	11-12-2024	08:37:09.585	365.164	37.575	OK
11-12-2024	08:37:09.743	365.322	7.497	7.497	27.499	938	0	1.0911	OK	11-12-2024	08:37:09.743	365.322	37.574	OK
11-12-2024	08:37:09.844	365.423	7.497	7.497	27.500	938	0	1.0910	OK	11-12-2024	08:37:09.844	365.423	37.574	OK
11-12-2024	08:37:09.944	365.523	7.497	7.497	27.496	938	0	1.0913	OK	11-12-2024	08:37:09.944	365.523	37.575	OK
11-12-2024	08:37:10.043	365.621	7.496	7.496	27.494	938	0	1.0914	OK	11-12-2024	08:37:10.043	365.621	37.575	OK
11-12-2024	08:37:10.285	365.864	7.497	7.497	27.501	938	0	1.0909	OK	11-12-2024	08:37:10.285	365.864	37.577	OK
11-12-2024	08:37:10.544	366.123	7.498	7.498	27.503	938	0	1.0908	OK	11-12-2024	08:37:10.544	366.123	37.578	OK
11-12-2024	08:37:10.746	366.324	7.498	7.498	27.503	938	0	1.0908	OK	11-12-2024	08:37:10.746	366.324	37.578	OK
11-12-2024	08:37:10.845	366.424	7.497	7.497	27.496	938	0	1.0913	OK	11-12-2024	08:37:10.845	366.424	37.578	OK
11-12-2024	08:37:10.947	366.526	7.498	7.498	27.504	938	0	1.0908	OK	11-12-2024	08:37:10.947	366.526	37.579	OK
11-12-2024	08:37:11.149	366.728	7.497	7.497	27.501	938	0	1.0910	OK	11-12-2024	08:37:11.149	366.728	37.579	OK
11-12-2024	08:37:11.318	366.897	7.497	7.497	27.498	939	0	1.0912	OK	11-12-2024	08:37:11.318	366.897	37.579	OK
11-12-2024	08:37:11.592	367.171	7.497	7.497	27.501	939	0	1.0910	OK	11-12-2024	08:37:11.592	367.171	37.579	OK
11-12-2024	08:37:11.749	367.328	7.497	7.497	27.502	939	0	1.0909	OK	11-12-2024	08:37:11.749	367.328	37.579	OK
11-12-2024	08:37:11.848	367.427	7.497	7.497	27.499	938	0	1.0911	OK	11-12-2024	08:37:11.848	367.427	37.579	OK
11-12-2024	08:37:11.949	367.528	7.497	7.497	27.497	938	0	1.0913	OK	11-12-2024	08:37:11.949	367.528	37.580	OK
11-12-2024	08:37:12.048	367.627	7.496	7.496	27.491	938	0	1.0917	OK	11-12-2024	08:37:12.048	367.627	37.580	OK
11-12-2024	08:37:12.148	367.727	7.496	7.496	27.492	938	0	1.0916	OK	11-12-2024	08:37:12.148	367.727	37.580	OK
11-12-2024	08:37:12.319	367.898	7.497	7.497	27.498	938	0	1.0912	OK	11-12-2024	08:37:12.319	367.898	37.580	OK
11-12-2024	08:37:12.577	368.155	7.497	7.497	27.500	938	0	1.0911	OK	11-12-2024	08:37:12.577	368.155	37.580	OK
11-12-2024	08:37:12.750	368.329	7.497	7.497	27.501	939	0	1.0910	OK	11-12-2024	08:37:12.750	368.329	37.582	OK
11-12-2024	08:37:12.850	368.429	7.497	7.497	27.498	938	0	1.0912	OK	11-12-2024	08:37:12.850	368.429	37.582	OK
11-12-2024	08:37:12.950	368.529	7.497	7.497	27.497	938	0	1.0913	OK	11-12-2024	08:37:12.950	368.529	37.583	OK
11-12-2024	08:37:13.053	368.632	7.496	7.496	27.494	938	0	1.0915	OK	11-12-2024	08:37:13.053	368.632	37.583	OK
11-12-2024	08:37:13.152	368.731	7.496	7.496	27.495	938	0	1.0914	OK	11-12-2024	08:37:13.152	368.731	37.583	OK
11-12-2024	08:37:13.324	368.903	7.497	7.497	27.498	938	0	1.0912	OK	11-12-2024	08:37:13.324	368.903	37.582	OK
11-12-2024	08:37:13.581	369.160	7.497	7.497	27.502	938	0	1.0909	OK	11-12-2024	08:37:13.581	369.160	37.581	OK
11-12-2024	08:37:13.754	369.333	7.498	7.498	27.504	938	0	1.0908	OK	11-12-2024	08:37:13.754	369.333	37.581	OK
11-12-2024	08:37:13.855	369.434	7.497	7.497	27.497	938	0	1.0913	OK	11-12-2024	08:37:13.855	369.434	37.581	OK
11-12-2024	08:37:13.954	369.533	7.496	7.496	27.494	938	0	1.0915	OK	11-12-2024	08:37:13.954	369.533	37.580	OK
11-12-2024	08:37:14.056	369.635	7.497	7.497	27.497	938	0	1.0913	OK	11-12-2024	08:37:14.056	369.635	37.580	OK
11-12-2024	08:37:14.155	369.734	7.496	7.496	27.490	938	0	1.0918	OK	11-12-2024	08:37:14.155	369.734	37.580	OK
11-12-2024	08:37:14.324	369.903	7.497	7.497	27.497	938	0	1.0913	OK	11-12-2024	08:37:14.324	369.903	37.580	OK
11-12-2024	08:37:14.581	370.160	7.497	7.497	27.501	938	0	1.0910	OK	11-12-2024	08:37:14.581	370.160	37.580	OK
11-12-2024	08:37:14.755	370.334	7.497	7.497	27.498	938	0	1.0912	OK	11-12-2024	08:37:14.755	370.334	37.579	OK
11-12-2024	08:37:14.855	370.434	7.497	7.497	27.498	938	0	1.0912	OK	11-12-2024	08:37:14.855	370.434	37.579	OK
11-12-2024	08:37:14.954	370.533	7.496	7.496	27.492	938	0	1.0916	OK	11-12-2024	08:37:14.954	370.533	37.579	OK
11-12-2024	08:37:15.054	370.633	7.497	7.497	27.499	938	0	1.0911	OK	11-12-2024	08:37:15.054	370.633	37.579	OK
11-12-2024	08:37:15.155	370.734	7.496	7.496	27.492	938	0	1.0916	OK	11-12-2024	08:37:15.155	370.734	37.578	OK
11-12-2024	08:37:15.328	370.907	7.497	7.497	27.497	939	0	1.0913	OK	11-12-2024	08:37:15.328	370.907	37.578	OK
11-12-2024	08:37:15.585	371.164	7.497	7.497	27.499	938	0	1.0911	OK	11-12-2024	08:37:15.585	371.164	37.578	OK
11-12-2024	08:37:15.757	371.336	7.497	7.497	27.498	938	0	1.0912	OK	11-12-2024	08:37:15.757	371.336	37.577	OK
11-12-2024	08:37:15.856	371.435	7.496	7.496	27.495	938	0	1.0914	OK	11-12-2024	08:37:15.856	371.435	37.577	OK
11-12-2024	08:37:15.957	371.536	7.496	7.496	27.494	938	0	1.0915	OK	11-12-2024	08:37:15.957	371.536	37.576	OK
11-12-2024	08:37:16.057	371.636	7.497	7.497	27.497	938	0	1.0912	OK	11-12-2024	08:37:16.057	371.636	37.576	OK
11-12-2024	08:37:16.287	371.866	7.498	7.498	27.506	938	0	1.0906	OK	11-12-2024	08:37:16.287	371.866	37.575	OK
11-12-2024	08:37:16.546	372.125	7.497	7.497	27.499	938	0	1.0911	OK	11-12-2024	08:37:16.546	372.125	37.574	OK
11-12-2024	08:37:16.657	372.236	7.497	7.497	27.500	938	0	1.0910	OK	11-12-2024	08:37:16.657	372.236	37.574	OK
11-12-2024	08:37:16.758	372.337	7.496	7.496	27.493	938	0	1.0915	OK	11-12-2024	08:37:16.758	372.337	37.574	OK
11-12-2024	08:37:16.858	372.436	7.497	7.497	27.495	938	0	1.0914	OK	11-12-2024	08:37:16.858	372.436	37.574	OK
11-12-2024	08:37:16.959	372.538	7.497	7.497	27.495	938	0	1.0914	OK	11-12-2024	08:37:16.959	372.538	37.574	OK
11-12-2024	08:37:17.060	372.638	7.496	7.496	27.491	938	0	1.0917	OK	11-12-2024	08:37:17.060	372.638	37.574	OK
11-12-2024	08:37:17.159	372.738	7.496	7.496	27.494	938	0	1.0915	OK	11-12-2024	08:37:17.159	372.738	37.574	OK
11-12-2024	08:37:17.331	372.910	7.497	7.497	27.496	938	0	1.0913	OK	11-12-2024	08:37:17.331	372.910	37.574	OK
11-12-2024	08:37:17.587	373.166	7.497	7.497	27.499	939	0	1.0911	OK	11-12-2024	08:37:17.587	373.166	37.574	OK
11-12-2024	08:37:17.759	373.338	7.497	7.497	27.500	938	0	1.0911	OK	11-12-2024	08:37:17.759	373.338	37.574	OK
11-12-2024	08:37:17.858	373.437	7.496	7.496	27.495	938	0	1.0914	OK	11-12-2024	08:37:17.858	373.437	37.575	OK
11-12-2024	08:37:17.959	373.538	7.496	7.496	27.492	938	0	1.0916	OK	11-12-2024	08:37:17.959	373.538	37.575	OK
11-12-2024	08:37:18.060	373.639	7.496	7.496	27.494	938	0	1.0914	OK	11-12-2024	08:37:18.060	373.639	37.575	OK
11-12-2024	08:37:18.161	373.739	7.496	7.496	27.493	938	0	1.0915	OK	11-12-2024	08:37:18.161	373.739	37.575	OK
11-12-2024	08:37:18.330	373.909	7.497	7.497	27.497	938	0	1.0912	OK	11-12-2024	08:37:18.330	373.909	37.575	OK
11-12-2024	08:37:18.587	374.166	7.497	7.497	27.498	938	0	1.0912	OK	11-12-2024	08:37:18.587	374.166	37.576	OK
11-12-2024	08:37:18.760	374.338	7.498	7.498	27.502	939	0	1.0909	OK	11-12-2024	08:37:18.760	374.338	37.577	OK
11-12-2024	08:37:18.861	374.440	7.497	7.497	27.499	938	0	1.0911	OK	11-12-2024	08:37:18.861	374.440	37.576	OK
11-12-2024	08:37:18.961	374.540	7.496	7.496	27.492	939	0	1.0916	OK	11-12-2024	08:37:18.961	374.540	37.576	OK
11-12-2024	08:37:19.061	374.640	7.496	7.496	27.493	939	0	1.0915	OK	11-12-2024	08:37:19.061	374.640	37.576	OK
11-12-2024	08:37:19.164	374.743	7.496	7.496	27.494	939	0	1.0914	OK	11-12-2024	08:37:19.164	374.743	37.576	OK
11-12-2024	08:37:19.334	374.913	7.497	7.497	27.500	938	0	1.0910	OK	11-12-2024	08:37:19.334	374.913	37.577	OK
11-12-2024	08:37:19.603	375.182	7.497	7.497	27.501	938	0	1.0909	OK	11-12-2024	08:37:19.603	375.182	37.576	OK
11-12-2024	08:37:19.763	375.342	7.497	7.497	27.501	938	0	1.0909	OK	11-12-2024	08:37:19.763	375.342	37.576	OK
11-12-2024	08:37:19.863	375.442	7.496	7.496	27.494	938	0	1.0914	OK	11-12-2024	08:37:19.863	375.442	37.576	OK
11-12-2024	08:37:19.962	375.541	7.497	7.497	27.496	938	0	1.0913	OK	11-12-2024	08:37:19.962	375.541	37.576	OK
11-12-2024	08:37:20.064	375.643	7.496	7.496	27.493	938	0	1.0915	OK	11-12-2024	08:37:20.064	375.643	37.577	OK
11-12-2024	08:37:20.163	375.742	7.496	7.496	27.492	938	0	1.0916	OK	11-12-2024	08:37:20.163	375.742	37.577	OK
11-12-2024	08:37:20.332	375.911	7.497	7.497	27.495	938	0	1.0914	OK	11-12-2024	08:37:20.332	375.911	37.577	OK
11-12-2024	08:37:20.587	376.165	7.497	7.497	27.501	938	0	1.0909	OK	11-12-2024	08:37:20.587	376.165	37.577	OK
11-12-2024	08:37:20.766	376.345	7.497	7.497	27.498	939	0	1.0912	OK	11-12-2024	08:37:20.766	376.345	37.577	OK
11-12-2024	08:37:20.865	376.444	7.497	7.497	27.497	938	0	1.0912	OK	11-12-2024	08:37:20.865	376.444	37.577	OK
11-12-2024	08:37:20.966	376.545	7.497	7.497	27.496	938	0	1.0913	OK	11-12-2024	08:37:20.966	376.545	37.577	OK
11-12-2024	08:37:21.066	376.645	7.497	7.497	27.495	938	0	1.0914	OK	11-12-2024	08:37:21.066	376.645	37.577	OK
11-12-2024	08:37:21.167	376.746	7.496	7.496	27.494	938	0	1.0915	OK	11-12-2024	08:37:21.167	376.746	37.577	OK
11-12-2024	08:37:21.356	376.935	7.496	7.496	27.493	938	0	1.0915	OK	11-12-2024	08:37:21.356	376.935	37.576	OK
11-12-2024	08:37:21.611	377.190	7.497	7.497	27.499	938	0	1.0911	OK	11-12-2024	08:37:21.611	377.190	37.576	OK
11-12-2024	08:37:21.770	377.349	7.497	7.497	27.500	938	0	1.0911	OK	11-12-2024	08:37:21.770	377.349	37.576	OK
11-12-2024	08:37:21.869	377.448	7.497	7.497	27.496	938	0	1.0913	OK	11-12-2024	08:37:21.869	377.448	37.576	OK
11-12-2024	08:37:21.969	377.548	7.496	7.496	27.495	938	0	1.0914	OK	11-12-2024	08:37:21.969	377.548	37.576	OK
11-12-2024	08:37:22.068	377.647	7.496	7.496	27.491	938	0	1.0917	OK	11-12-2024	08:37:22.068	377.647	37.576	OK
11-12-2024	08:37:22.170	377.749	7.496	7.496	27.489	938	0	1.0918	OK	11-12-2024	08:37:22.170	377.749	37.576	OK
11-12-2024	08:37:22.528	378.107	7.497	7.497	27.498	938	0	1.0912	OK	11-12-2024	08:37:22.528	378.107	37.575	OK
11-12-2024	08:37:22.670	378.249	7.497	7.497	27.495	938	0	1.0914	OK	11-12-2024	08:37:22.670	378.249	37.576	OK
11-12-2024	08:37:22.770	378.349	7.497	7.497	27.496	938	0	1.0913	OK	11-12-2024	08:37:22.770	378.349	37.576	OK
11-12-2024	08:37:22.871	378.450	7.496	7.496	27.494	938	0	1.0914	OK	11-12-2024	08:37:22.871	378.450	37.574	OK
11-12-2024	08:37:22.972	378.551	7.496	7.496	27.489	938	0	1.0918	OK	11-12-2024	08:37:22.972	378.551	37.574	OK
11-12-2024	08:37:23.072	378.651	7.496	7.496	27.490	938	0	1.0917	OK	11-12-2024	08:37:23.072	378.651	37.574	OK
11-12-2024	08:37:23.172	378.751	7.496	7.496	27.491	938	0	1.0916	OK	11-12-2024	08:37:23.172	378.751	37.574	OK
11-12-2024	08:37:23.357	378.936	7.497	7.497	27.496	938	0	1.0913	OK	11-12-2024	08:37:23.357	378.936	37.574	OK
11-12-2024	08:37:23.611	379.190	7.497	7.497	27.499	939	0	1.0911	OK	11-12-2024	08:37:23.611	379.190	37.574	OK
11-12-2024	08:37:23.773	379.352	7.497	7.497	27.496	938	0	1.0913	OK	11-12-2024	08:37:23.773	379.352	37.574	OK
11-12-2024	08:37:23.874	379.453	7.497	7.497	27.498	938	0	1.0912	OK	11-12-2024	08:37:23.874	379.453	37.574	OK
11-12-2024	08:37:23.974	379.553	7.497	7.497	27.498	938	0	1.0912	OK	11-12-2024	08:37:23.974	379.553	37.574	OK
11-12-2024	08:37:24.074	379.653	7.496	7.496	27.492	938	0	1.0916	OK	11-12-2024	08:37:24.074	379.653	37.575	OK
11-12-2024	08:37:24.174	379.753	7.496	7.496	27.493	938	0	1.0915	OK	11-12-2024	08:37:24.174	379.753	37.575	OK
11-12-2024	08:37:24.345	379.924	7.497	7.497	27.498	938	0	1.0912	OK	11-12-2024	08:37:24.345	379.924	37.574	OK
11-12-2024	08:37:24.617	380.196	7.497	7.497	27.497	939	0	1.0912	OK	11-12-2024	08:37:24.617	380.196	37.574	OK
11-12-2024	08:37:24.775	380.354	7.497	7.497	27.501	939	0	1.0909	OK	11-12-2024	08:37:24.775	380.354	37.574	OK
11-12-2024	08:37:24.876	380.455	7.496	7.496	27.494	939	0	1.0914	OK	11-12-2024	08:37:24.876	380.455	37.574	OK
11-12-2024	08:37:25.076	380.654	7.497	7.497	27.501	939	0	1.0909	OK	11-12-2024	08:37:25.076	380.654	37.573	OK
11-12-2024	08:37:25.176	380.755	7.497	7.497	27.500	939	0	1.0910	OK	11-12-2024	08:37:25.176	380.755	37.573	OK
11-12-2024	08:37:25.348	380.927	7.497	7.497	27.501	939	0	1.0909	OK	11-12-2024	08:37:25.348	380.927	37.573	OK
11-12-2024	08:37:25.607	381.186	7.497	7.497	27.500	939	0	1.0910	OK	11-12-2024	08:37:25.607	381.186	37.574	OK
11-12-2024	08:37:25.778	381.357	7.497	7.497	27.499	938	0	1.0911	OK	11-12-2024	08:37:25.778	381.357	37.574	OK
11-12-2024	08:37:25.876	381.455	7.497	7.497	27.498	938	0	1.0912	OK	11-12-2024	08:37:25.876	381.455	37.574	OK
11-12-2024	08:37:25.978	381.557	7.497	7.497	27.498	938	0	1.0912	OK	11-12-2024	08:37:25.978	381.557	37.574	OK
11-12-2024	08:37:26.078	381.656	7.496	7.496	27.488	938	0	1.0918	OK	11-12-2024	08:37:26.078	381.656	37.574	OK
11-12-2024	08:37:26.177	381.756	7.496	7.496	27.491	938	0	1.0916	OK	11-12-2024	08:37:26.177	381.756	37.575	OK
11-12-2024	08:37:26.346	381.925	7.497	7.497	27.495	938	0	1.0914	OK	11-12-2024	08:37:26.346	381.925	37.575	OK
11-12-2024	08:37:26.602	382.181	7.498	7.498	27.503	939	0	1.0908	OK	11-12-2024	08:37:26.602	382.181	37.574	OK
11-12-2024	08:37:26.778	382.357	7.498	7.498	27.503	939	0	1.0908	OK	11-12-2024	08:37:26.778	382.357	37.573	OK
11-12-2024	08:37:26.878	382.457	7.497	7.497	27.499	938	0	1.0911	OK	11-12-2024	08:37:26.878	382.457	37.573	OK
11-12-2024	08:37:26.979	382.558	7.496	7.496	27.494	938	0	1.0914	OK	11-12-2024	08:37:26.979	382.558	37.573	OK
11-12-2024	08:37:27.080	382.659	7.496	7.496	27.491	938	0	1.0916	OK	11-12-2024	08:37:27.080	382.659	37.573	OK
11-12-2024	08:37:27.180	382.759	7.497	7.497	27.496	938	0	1.0913	OK	11-12-2024	08:37:27.180	382.759	37.573	OK
11-12-2024	08:37:27.350	382.929	7.497	7.497	27.498	938	0	1.0912	OK	11-12-2024	08:37:27.350	382.929	37.573	OK
11-12-2024	08:37:27.603	383.182	7.498	7.498	27.503	938	0	1.0908	OK	11-12-2024	08:37:27.603	383.182	37.573	OK
11-12-2024	08:37:27.782	383.361	7.497	7.497	27.500	938	0	1.0910	OK	11-12-2024	08:37:27.782	383.361	37.573	OK
11-12-2024	08:37:27.882	383.461	7.497	7.497	27.500	938	0	1.0910	OK	11-12-2024	08:37:27.882	383.461	37.573	OK
11-12-2024	08:37:27.982	383.560	7.498	7.498	27.502	939	0	1.0909	OK	11-12-2024	08:37:27.982	383.560	37.574	OK
11-12-2024	08:37:28.083	383.662	7.496	7.496	27.491	939	0	1.0916	OK	11-12-2024	08:37:28.083	383.662	37.574	OK
11-12-2024	08:37:28.184	383.762	7.496	7.496	27.493	938	0	1.0915	OK	11-12-2024	08:37:28.184	383.762	37.574	OK
11-12-2024	08:37:28.352	383.931	7.497	7.497	27.495	939	0	1.0913	OK	11-12-2024	08:37:28.352	383.931	37.574	OK
11-12-2024	08:37:28.608	384.187	7.498	7.498	27.502	939	0	1.0908	OK	11-12-2024	08:37:28.608	384.187	37.575	OK
11-12-2024	08:37:28.784	384.363	7.498	7.498	27.505	938	0	1.0906	OK	11-12-2024	08:37:28.784	384.363	37.576	OK
11-12-2024	08:37:28.886	384.465	7.497	7.497	27.499	939	0	1.0910	OK	11-12-2024	08:37:28.886	384.465	37.576	OK
11-12-2024	08:37:28.987	384.566	7.497	7.497	27.496	938	0	1.0912	OK	11-12-2024	08:37:28.987	384.566	37.576	OK
11-12-2024	08:37:29.087	384.666	7.497	7.497	27.497	938	0	1.0912	OK	11-12-2024	08:37:29.087	384.666	37.576	OK
11-12-2024	08:37:29.190	384.769	7.496	7.496	27.491	938	0	1.0916	OK	11-12-2024	08:37:29.190	384.769	37.576	OK
11-12-2024	08:37:29.361	384.940	7.497	7.497	27.498	938	0	1.0911	OK	11-12-2024	08:37:29.361	384.940	37.578	OK
11-12-2024	08:37:29.633	385.212	7.498	7.498	27.506	938	0	1.0905	OK	11-12-2024	08:37:29.633	385.212	37.577	OK
11-12-2024	08:37:29.789	385.368	7.497	7.497	27.498	938	0	1.0911	OK	11-12-2024	08:37:29.789	385.368	37.579	OK
11-12-2024	08:37:29.890	385.469	7.497	7.497	27.496	938	0	1.0912	OK	11-12-2024	08:37:29.890	385.469	37.579	OK
11-12-2024	08:37:29.988	385.567	7.497	7.497	27.496	938	0	1.0912	OK	11-12-2024	08:37:29.988	385.567	37.579	OK
11-12-2024	08:37:30.090	385.669	7.497	7.497	27.495	938	0	1.0913	OK	11-12-2024	08:37:30.090	385.669	37.579	OK
11-12-2024	08:37:30.190	385.769	7.497	7.497	27.496	938	0	1.0912	OK	11-12-2024	08:37:30.190	385.769	37.580	OK
11-12-2024	08:37:30.377	385.956	7.497	7.497	27.500	938	0	1.0911	OK	11-12-2024	08:37:30.377	385.956	37.580	OK
11-12-2024	08:37:30.648	386.227	7.498	7.498	27.504	938	0	1.0908	OK	11-12-2024	08:37:30.648	386.227	37.580	OK
11-12-2024	08:37:30.789	386.368	7.497	7.497	27.498	938	0	1.0912	OK	11-12-2024	08:37:30.789	386.368	37.580	OK
11-12-2024	08:37:30.889	386.467	7.497	7.497	27.500	938	0	1.0911	OK	11-12-2024	08:37:30.889	386.467	37.580	OK
11-12-2024	08:37:30.990	386.569	7.496	7.496	27.495	938	0	1.0914	OK	11-12-2024	08:37:30.990	386.569	37.580	OK
11-12-2024	08:37:31.090	386.669	7.496	7.496	27.494	938	0	1.0915	OK	11-12-2024	08:37:31.090	386.669	37.580	OK
11-12-2024	08:37:31.190	386.769	7.496	7.496	27.493	938	0	1.0915	OK	11-12-2024	08:37:31.190	386.769	37.580	OK
11-12-2024	08:37:31.358	386.937	7.496	7.496	27.493	938	0	1.0915	OK	11-12-2024	08:37:31.358	386.937	37.580	OK
11-12-2024	08:37:31.615	387.194	7.497	7.497	27.498	938	0	1.0912	OK	11-12-2024	08:37:31.615	387.194	37.579	OK
11-12-2024	08:37:31.792	387.371	7.498	7.498	27.504	938	0	1.0907	OK	11-12-2024	08:37:31.792	387.371	37.579	OK
11-12-2024	08:37:31.892	387.471	7.497	7.497	27.496	939	0	1.0913	OK	11-12-2024	08:37:31.892	387.471	37.579	OK
11-12-2024	08:37:31.992	387.571	7.496	7.496	27.492	938	0	1.0916	OK	11-12-2024	08:37:31.992	387.571	37.578	OK
11-12-2024	08:37:32.092	387.671	7.496	7.496	27.492	938	0	1.0916	OK	11-12-2024	08:37:32.092	387.671	37.578	OK
11-12-2024	08:37:32.193	387.772	7.496	7.496	27.494	938	0	1.0914	OK	11-12-2024	08:37:32.193	387.772	37.578	OK
11-12-2024	08:37:32.366	387.945	7.497	7.497	27.497	939	0	1.0912	OK	11-12-2024	08:37:32.366	387.945	37.578	OK
11-12-2024	08:37:32.625	388.204	7.497	7.497	27.498	938	0	1.0912	OK	11-12-2024	08:37:32.625	388.204	37.578	OK
11-12-2024	08:37:32.793	388.372	7.497	7.497	27.501	939	0	1.0909	OK	11-12-2024	08:37:32.793	388.372	37.578	OK
11-12-2024	08:37:32.896	388.475	7.497	7.497	27.495	939	0	1.0914	OK	11-12-2024	08:37:32.896	388.475	37.578	OK
11-12-2024	08:37:33.097	388.676	7.497	7.497	27.496	938	0	1.0913	OK	11-12-2024	08:37:33.097	388.676	37.577	OK
11-12-2024	08:37:33.196	388.775	7.496	7.496	27.492	938	0	1.0916	OK	11-12-2024	08:37:33.196	388.775	37.576	OK
11-12-2024	08:37:33.365	388.944	7.497	7.497	27.496	938	0	1.0912	OK	11-12-2024	08:37:33.365	388.944	37.576	OK
11-12-2024	08:37:33.624	389.203	7.497	7.497	27.499	938	0	1.0910	OK	11-12-2024	08:37:33.624	389.203	37.577	OK
11-12-2024	08:37:33.802	389.381	7.497	7.497	27.500	938	0	1.0910	OK	11-12-2024	08:37:33.802	389.381	37.577	OK
11-12-2024	08:37:33.898	389.477	7.497	7.497	27.496	938	0	1.0912	OK	11-12-2024	08:37:33.898	389.477	37.577	OK
11-12-2024	08:37:33.997	389.576	7.496	7.496	27.490	938	0	1.0917	OK	11-12-2024	08:37:33.997	389.576	37.577	OK
11-12-2024	08:37:34.097	389.676	7.496	7.496	27.493	938	0	1.0914	OK	11-12-2024	08:37:34.097	389.676	37.578	OK
11-12-2024	08:37:34.198	389.777	7.496	7.496	27.491	938	0	1.0916	OK	11-12-2024	08:37:34.198	389.777	37.578	OK
11-12-2024	08:37:34.369	389.948	7.497	7.497	27.495	938	0	1.0913	OK	11-12-2024	08:37:34.369	389.948	37.578	OK
11-12-2024	08:37:34.638	390.216	7.497	7.497	27.496	938	0	1.0912	OK	11-12-2024	08:37:34.638	390.216	37.580	OK
11-12-2024	08:37:34.801	390.380	7.497	7.497	27.498	938	0	1.0911	OK	11-12-2024	08:37:34.801	390.380	37.580	OK
11-12-2024	08:37:34.900	390.479	7.496	7.496	27.493	938	0	1.0914	OK	11-12-2024	08:37:34.900	390.479	37.581	OK
11-12-2024	08:37:35.001	390.580	7.497	7.497	27.496	938	0	1.0912	OK	11-12-2024	08:37:35.001	390.580	37.581	OK
11-12-2024	08:37:35.101	390.680	7.496	7.496	27.488	938	0	1.0918	OK	11-12-2024	08:37:35.101	390.680	37.581	OK
11-12-2024	08:37:35.202	390.781	7.496	7.496	27.490	938	0	1.0917	OK	11-12-2024	08:37:35.202	390.781	37.581	OK
11-12-2024	08:37:35.370	390.949	7.496	7.496	27.493	938	0	1.0915	OK	11-12-2024	08:37:35.370	390.949	37.582	OK
11-12-2024	08:37:35.642	391.221	7.496	7.496	27.495	938	0	1.0914	OK	11-12-2024	08:37:35.642	391.221	37.580	OK
11-12-2024	08:37:35.803	391.382	7.497	7.497	27.496	939	0	1.0913	OK	11-12-2024	08:37:35.803	391.382	37.580	OK
11-12-2024	08:37:35.904	391.483	7.496	7.496	27.491	938	0	1.0916	OK	11-12-2024	08:37:35.904	391.483	37.580	OK
11-12-2024	08:37:36.004	391.583	7.496	7.496	27.491	938	0	1.0916	OK	11-12-2024	08:37:36.004	391.583	37.580	OK
11-12-2024	08:37:36.103	391.682	7.496	7.496	27.492	938	0	1.0916	OK	11-12-2024	08:37:36.103	391.682	37.581	OK
11-12-2024	08:37:36.203	391.782	7.496	7.496	27.491	938	0	1.0916	OK	11-12-2024	08:37:36.203	391.782	37.581	OK
11-12-2024	08:37:36.374	391.953	7.496	7.496	27.492	938	0	1.0915	OK	11-12-2024	08:37:36.374	391.953	37.582	OK
11-12-2024	08:37:36.631	392.210	7.498	7.498	27.502	938	0	1.0908	OK	11-12-2024	08:37:36.631	392.210	37.583	OK
11-12-2024	08:37:36.803	392.382	7.497	7.497	27.501	938	0	1.0909	OK	11-12-2024	08:37:36.803	392.382	37.583	OK
11-12-2024	08:37:36.904	392.483	7.497	7.497	27.499	938	0	1.0910	OK	11-12-2024	08:37:36.904	392.483	37.581	OK
11-12-2024	08:37:37.005	392.584	7.497	7.497	27.495	938	0	1.0913	OK	11-12-2024	08:37:37.005	392.584	37.581	OK
11-12-2024	08:37:37.291	392.870	7.498	7.498	27.502	938	0	1.0908	OK	11-12-2024	08:37:37.291	392.870	37.581	OK
11-12-2024	08:37:37.545	393.124	7.498	7.498	27.507	938	0	1.0905	OK	11-12-2024	08:37:37.545	393.124	37.580	OK
11-12-2024	08:37:37.705	393.284	7.497	7.497	27.501	938	0	1.0909	OK	11-12-2024	08:37:37.705	393.284	37.581	OK
11-12-2024	08:37:37.806	393.385	7.497	7.497	27.498	938	0	1.0912	OK	11-12-2024	08:37:37.806	393.385	37.581	OK
11-12-2024	08:37:37.907	393.486	7.496	7.496	27.495	938	0	1.0914	OK	11-12-2024	08:37:37.907	393.486	37.580	OK
11-12-2024	08:37:38.007	393.586	7.496	7.496	27.494	938	0	1.0914	OK	11-12-2024	08:37:38.007	393.586	37.580	OK
11-12-2024	08:37:38.106	393.685	7.496	7.496	27.492	938	0	1.0916	OK	11-12-2024	08:37:38.106	393.685	37.580	OK
11-12-2024	08:37:38.289	393.868	7.497	7.497	27.499	938	0	1.0911	OK	11-12-2024	08:37:38.289	393.868	37.580	OK
11-12-2024	08:37:38.565	394.144	7.498	7.498	27.502	938	0	1.0908	OK	11-12-2024	08:37:38.565	394.144	37.581	OK
11-12-2024	08:37:38.707	394.286	7.497	7.497	27.501	938	0	1.0909	OK	11-12-2024	08:37:38.707	394.286	37.581	OK
11-12-2024	08:37:38.807	394.386	7.498	7.498	27.502	938	0	1.0908	OK	11-12-2024	08:37:38.807	394.386	37.581	OK
11-12-2024	08:37:38.908	394.487	7.497	7.497	27.496	938	0	1.0912	OK	11-12-2024	08:37:38.908	394.487	37.581	OK
11-12-2024	08:37:39.008	394.587	7.497	7.497	27.498	938	0	1.0911	OK	11-12-2024	08:37:39.008	394.587	37.581	OK
11-12-2024	08:37:39.109	394.688	7.496	7.496	27.494	938	0	1.0914	OK	11-12-2024	08:37:39.109	394.688	37.580	OK
11-12-2024	08:37:39.290	394.869	7.497	7.497	27.497	938	0	1.0912	OK	11-12-2024	08:37:39.290	394.869	37.580	OK
11-12-2024	08:37:39.549	395.128	7.497	7.497	27.502	938	0	1.0909	OK	11-12-2024	08:37:39.549	395.128	37.581	OK
11-12-2024	08:37:39.710	395.289	7.497	7.497	27.501	938	0	1.0909	OK	11-12-2024	08:37:39.710	395.289	37.581	OK
11-12-2024	08:37:39.809	395.388	7.497	7.497	27.496	938	0	1.0913	OK	11-12-2024	08:37:39.809	395.388	37.581	OK
11-12-2024	08:37:39.909	395.488	7.497	7.497	27.498	938	0	1.0912	OK	11-12-2024	08:37:39.909	395.488	37.581	OK
11-12-2024	08:37:40.010	395.588	7.496	7.496	27.494	938	0	1.0914	OK	11-12-2024	08:37:40.010	395.588	37.581	OK
11-12-2024	08:37:40.110	395.689	7.496	7.496	27.490	938	0	1.0917	OK	11-12-2024	08:37:40.110	395.689	37.583	OK
11-12-2024	08:37:40.291	395.869	7.497	7.497	27.500	938	0	1.0910	OK	11-12-2024	08:37:40.291	395.869	37.583	OK
11-12-2024	08:37:40.549	396.128	7.498	7.498	27.502	938	0	1.0908	OK	11-12-2024	08:37:40.549	396.128	37.583	OK
11-12-2024	08:37:40.710	396.288	7.497	7.497	27.499	938	0	1.0910	OK	11-12-2024	08:37:40.710	396.288	37.583	OK
11-12-2024	08:37:40.810	396.389	7.497	7.497	27.500	938	0	1.0910	OK	11-12-2024	08:37:40.810	396.389	37.583	OK
11-12-2024	08:37:40.911	396.490	7.497	7.497	27.495	938	0	1.0913	OK	11-12-2024	08:37:40.911	396.490	37.583	OK
11-12-2024	08:37:41.012	396.591	7.497	7.497	27.495	938	0	1.0913	OK	11-12-2024	08:37:41.012	396.591	37.583	OK
11-12-2024	08:37:41.115	396.694	7.497	7.497	27.496	938	0	1.0912	OK	11-12-2024	08:37:41.115	396.694	37.583	OK
11-12-2024	08:37:41.290	396.869	7.497	7.497	27.501	938	0	1.0909	OK	11-12-2024	08:37:41.290	396.869	37.583	OK
11-12-2024	08:37:41.547	397.126	7.498	7.498	27.503	938	0	1.0908	OK	11-12-2024	08:37:41.547	397.126	37.582	OK
11-12-2024	08:37:41.711	397.290	7.497	7.497	27.500	939	0	1.0910	OK	11-12-2024	08:37:41.711	397.290	37.582	OK
11-12-2024	08:37:41.810	397.389	7.497	7.497	27.500	938	0	1.0910	OK	11-12-2024	08:37:41.810	397.389	37.582	OK
11-12-2024	08:37:41.909	397.488	7.497	7.497	27.497	938	0	1.0912	OK	11-12-2024	08:37:41.909	397.488	37.582	OK
11-12-2024	08:37:42.011	397.590	7.496	7.496	27.493	938	0	1.0914	OK	11-12-2024	08:37:42.011	397.590	37.582	OK
11-12-2024	08:37:42.111	397.690	7.496	7.496	27.492	938	0	1.0915	OK	11-12-2024	08:37:42.111	397.690	37.582	OK
11-12-2024	08:37:42.291	397.870	7.496	7.496	27.493	938	0	1.0914	OK	11-12-2024	08:37:42.291	397.870	37.581	OK
11-12-2024	08:37:42.544	398.122	7.497	7.497	27.498	938	0	1.0911	OK	11-12-2024	08:37:42.544	398.122	37.581	OK
11-12-2024	08:37:42.711	398.290	7.498	7.498	27.504	938	0	1.0907	OK	11-12-2024	08:37:42.711	398.290	37.581	OK
11-12-2024	08:37:42.811	398.390	7.497	7.497	27.501	938	0	1.0909	OK	11-12-2024	08:37:42.811	398.390	37.580	OK
11-12-2024	08:37:42.911	398.490	7.496	7.496	27.494	938	0	1.0914	OK	11-12-2024	08:37:42.911	398.490	37.580	OK
11-12-2024	08:37:43.010	398.589	7.496	7.496	27.491	938	0	1.0916	OK	11-12-2024	08:37:43.010	398.589	37.580	OK
11-12-2024	08:37:43.112	398.691	7.496	7.496	27.492	938	0	1.0915	OK	11-12-2024	08:37:43.112	398.691	37.580	OK
11-12-2024	08:37:43.292	398.871	7.497	7.497	27.495	938	0	1.0913	OK	11-12-2024	08:37:43.292	398.871	37.580	OK
11-12-2024	08:37:43.551	399.130	7.498	7.498	27.503	938	0	1.0907	OK	11-12-2024	08:37:43.551	399.130	37.578	OK
11-12-2024	08:37:43.712	399.291	7.498	7.498	27.503	938	0	1.0907	OK	11-12-2024	08:37:43.712	399.291	37.578	OK
11-12-2024	08:37:43.812	399.391	7.497	7.497	27.498	938	0	1.0911	OK	11-12-2024	08:37:43.812	399.391	37.579	OK
11-12-2024	08:37:43.912	399.491	7.497	7.497	27.494	938	0	1.0913	OK	11-12-2024	08:37:43.912	399.491	37.579	OK
11-12-2024	08:37:44.012	399.591	7.497	7.497	27.495	938	0	1.0913	OK	11-12-2024	08:37:44.012	399.591	37.578	OK
11-12-2024	08:37:44.112	399.691	7.496	7.496	27.492	938	0	1.0915	OK	11-12-2024	08:37:44.112	399.691	37.578	OK
11-12-2024	08:37:44.294	399.873	7.497	7.497	27.499	938	0	1.0910	OK	11-12-2024	08:37:44.294	399.873	37.578	OK
11-12-2024	08:37:44.550	400.129	7.498	7.498	27.502	938	0	1.0908	OK	11-12-2024	08:37:44.550	400.129	37.578	OK
11-12-2024	08:37:44.712	400.290	7.497	7.497	27.501	938	0	1.0909	OK	11-12-2024	08:37:44.712	400.290	37.579	OK
11-12-2024	08:37:44.812	400.391	7.497	7.497	27.498	938	0	1.0911	OK	11-12-2024	08:37:44.812	400.391	37.579	OK
11-12-2024	08:37:44.913	400.492	7.497	7.497	27.496	938	0	1.0912	OK	11-12-2024	08:37:44.913	400.492	37.579	OK
11-12-2024	08:37:45.112	400.691	7.498	7.498	27.501	938	0	1.0909	OK	11-12-2024	08:37:45.112	400.691	37.578	OK
11-12-2024	08:37:45.291	400.870	7.497	7.497	27.499	938	0	1.0910	OK	11-12-2024	08:37:45.291	400.870	37.579	OK
11-12-2024	08:37:45.546	401.125	7.498	7.498	27.502	938	0	1.0908	OK	11-12-2024	08:37:45.546	401.125	37.580	OK
11-12-2024	08:37:45.713	401.292	7.497	7.497	27.499	938	0	1.0910	OK	11-12-2024	08:37:45.713	401.292	37.581	OK
11-12-2024	08:37:45.813	401.392	7.496	7.496	27.493	938	0	1.0914	OK	11-12-2024	08:37:45.813	401.392	37.581	OK
11-12-2024	08:37:45.913	401.492	7.496	7.496	27.493	938	0	1.0914	OK	11-12-2024	08:37:45.913	401.492	37.581	OK
11-12-2024	08:37:46.012	401.591	7.496	7.496	27.493	938	0	1.0914	OK	11-12-2024	08:37:46.012	401.591	37.582	OK
11-12-2024	08:37:46.112	401.690	7.496	7.496	27.493	938	0	1.0914	OK	11-12-2024	08:37:46.112	401.690	37.582	OK
11-12-2024	08:37:46.293	401.872	7.497	7.497	27.496	938	0	1.0912	OK	11-12-2024	08:37:46.293	401.872	37.582	OK
11-12-2024	08:37:46.550	402.129	7.498	7.498	27.502	938	0	1.0908	OK	11-12-2024	08:37:46.550	402.129	37.581	OK
11-12-2024	08:37:46.716	402.295	7.497	7.497	27.501	938	0	1.0909	OK	11-12-2024	08:37:46.716	402.295	37.583	OK
11-12-2024	08:37:46.814	402.393	7.497	7.497	27.501	938	0	1.0909	OK	11-12-2024	08:37:46.814	402.393	37.582	OK
11-12-2024	08:37:46.916	402.494	7.497	7.497	27.498	937	0	1.0911	OK	11-12-2024	08:37:46.916	402.494	37.582	OK
11-12-2024	08:37:47.016	402.595	7.497	7.497	27.496	937	0	1.0912	OK	11-12-2024	08:37:47.016	402.595	37.583	OK
11-12-2024	08:37:47.115	402.694	7.497	7.497	27.496	937	0	1.0912	OK	11-12-2024	08:37:47.115	402.694	37.583	OK
11-12-2024	08:37:47.292	402.871	7.497	7.497	27.497	938	0	1.0912	OK	11-12-2024	08:37:47.292	402.871	37.583	OK
11-12-2024	08:37:47.547	403.126	7.497	7.497	27.500	938	0	1.0910	OK	11-12-2024	08:37:47.547	403.126	37.583	OK
11-12-2024	08:37:47.716	403.295	7.497	7.497	27.500	938	0	1.0910	OK	11-12-2024	08:37:47.716	403.295	37.583	OK
11-12-2024	08:37:47.816	403.395	7.497	7.497	27.500	938	0	1.0910	OK	11-12-2024	08:37:47.816	403.395	37.583	OK
11-12-2024	08:37:47.915	403.494	7.497	7.497	27.498	938	0	1.0911	OK	11-12-2024	08:37:47.915	403.494	37.583	OK
11-12-2024	08:37:48.017	403.596	7.496	7.496	27.493	938	0	1.0914	OK	11-12-2024	08:37:48.017	403.596	37.583	OK
11-12-2024	08:37:48.118	403.697	7.497	7.497	27.495	938	0	1.0913	OK	11-12-2024	08:37:48.118	403.697	37.583	OK
11-12-2024	08:37:48.293	403.872	7.497	7.497	27.497	938	0	1.0912	OK	11-12-2024	08:37:48.293	403.872	37.582	OK
11-12-2024	08:37:48.562	404.141	7.497	7.497	27.501	938	0	1.0909	OK	11-12-2024	08:37:48.562	404.141	37.582	OK
11-12-2024	08:37:48.720	404.299	7.498	7.498	27.503	938	0	1.0908	OK	11-12-2024	08:37:48.720	404.299	37.581	OK
11-12-2024	08:37:48.821	404.400	7.497	7.497	27.498	938	0	1.0911	OK	11-12-2024	08:37:48.821	404.400	37.580	OK
11-12-2024	08:37:48.922	404.501	7.497	7.497	27.495	938	0	1.0913	OK	11-12-2024	08:37:48.922	404.501	37.580	OK
11-12-2024	08:37:49.032	404.610	7.496	7.496	27.493	938	0	1.0914	OK	11-12-2024	08:37:49.032	404.610	37.579	OK
11-12-2024	08:37:49.123	404.702	7.497	7.497	27.496	938	0	1.0912	OK	11-12-2024	08:37:49.123	404.702	37.579	OK
11-12-2024	08:37:49.292	404.871	7.497	7.497	27.497	938	0	1.0912	OK	11-12-2024	08:37:49.292	404.871	37.578	OK
11-12-2024	08:37:49.584	405.163	7.498	7.498	27.504	938	0	1.0907	OK	11-12-2024	08:37:49.584	405.163	37.577	OK
11-12-2024	08:37:49.725	405.304	7.497	7.497	27.494	938	0	1.0914	OK	11-12-2024	08:37:49.725	405.304	37.577	OK
11-12-2024	08:37:49.823	405.402	7.496	7.496	27.490	938	0	1.0917	OK	11-12-2024	08:37:49.823	405.402	37.577	OK
11-12-2024	08:37:49.925	405.504	7.497	7.497	27.498	938	0	1.0911	OK	11-12-2024	08:37:49.925	405.504	37.576	OK
11-12-2024	08:37:50.032	405.611	7.496	7.496	27.493	938	0	1.0914	OK	11-12-2024	08:37:50.032	405.611	37.577	OK
11-12-2024	08:37:50.126	405.704	7.497	7.497	27.494	938	0	1.0914	OK	11-12-2024	08:37:50.126	405.704	37.577	OK
11-12-2024	08:37:50.293	405.872	7.496	7.496	27.492	938	0	1.0915	OK	11-12-2024	08:37:50.293	405.872	37.576	OK
11-12-2024	08:37:50.550	406.129	7.497	7.497	27.496	938	0	1.0912	OK	11-12-2024	08:37:50.550	406.129	37.576	OK
11-12-2024	08:37:50.726	406.305	7.497	7.497	27.499	938	0	1.0910	OK	11-12-2024	08:37:50.726	406.305	37.575	OK
11-12-2024	08:37:50.826	406.405	7.497	7.497	27.498	938	0	1.0911	OK	11-12-2024	08:37:50.826	406.405	37.575	OK
11-12-2024	08:37:50.928	406.507	7.497	7.497	27.496	938	0	1.0912	OK	11-12-2024	08:37:50.928	406.507	37.575	OK
11-12-2024	08:37:51.035	406.614	7.496	7.496	27.492	938	0	1.0915	OK	11-12-2024	08:37:51.035	406.614	37.575	OK
11-12-2024	08:37:51.127	406.705	7.496	7.496	27.491	938	0	1.0916	OK	11-12-2024	08:37:51.127	406.705	37.575	OK
11-12-2024	08:37:51.299	406.878	7.496	7.496	27.490	938	0	1.0917	OK	11-12-2024	08:37:51.299	406.878	37.575	OK
11-12-2024	08:37:51.556	407.135	7.497	7.497	27.497	938	0	1.0912	OK	11-12-2024	08:37:51.556	407.135	37.575	OK
11-12-2024	08:37:51.728	407.307	7.497	7.497	27.495	938	0	1.0913	OK	11-12-2024	08:37:51.728	407.307	37.575	OK
11-12-2024	08:37:51.829	407.408	7.497	7.497	27.495	938	0	1.0913	OK	11-12-2024	08:37:51.829	407.408	37.575	OK
11-12-2024	08:37:51.929	407.508	7.497	7.497	27.494	938	0	1.0914	OK	11-12-2024	08:37:51.929	407.508	37.575	OK
11-12-2024	08:37:52.034	407.613	7.497	7.497	27.498	938	0	1.0911	OK	11-12-2024	08:37:52.034	407.613	37.575	OK
11-12-2024	08:37:52.129	407.708	7.497	7.497	27.494	938	0	1.0914	OK	11-12-2024	08:37:52.129	407.708	37.574	OK
11-12-2024	08:37:52.300	407.879	7.497	7.497	27.498	938	0	1.0911	OK	11-12-2024	08:37:52.300	407.879	37.575	OK
11-12-2024	08:37:52.558	408.137	7.497	7.497	27.500	938	0	1.0910	OK	11-12-2024	08:37:52.558	408.137	37.575	OK
11-12-2024	08:37:52.729	408.308	7.497	7.497	27.498	938	0	1.0911	OK	11-12-2024	08:37:52.729	408.308	37.575	OK
11-12-2024	08:37:52.830	408.408	7.497	7.497	27.494	938	0	1.0914	OK	11-12-2024	08:37:52.830	408.408	37.575	OK
11-12-2024	08:37:52.931	408.510	7.497	7.497	27.497	938	0	1.0912	OK	11-12-2024	08:37:52.931	408.510	37.576	OK
11-12-2024	08:37:53.035	408.614	7.497	7.497	27.495	938	0	1.0913	OK	11-12-2024	08:37:53.035	408.614	37.576	OK
11-12-2024	08:37:53.295	408.874	7.497	7.497	27.497	938	0	1.0912	OK	11-12-2024	08:37:53.295	408.874	37.575	OK
11-12-2024	08:37:53.551	409.130	7.498	7.498	27.502	938	0	1.0908	OK	11-12-2024	08:37:53.551	409.130	37.576	OK
11-12-2024	08:37:53.730	409.309	7.498	7.498	27.502	938	0	1.0908	OK	11-12-2024	08:37:53.730	409.309	37.575	OK
11-12-2024	08:37:53.831	409.410	7.498	7.498	27.500	938	0	1.0909	OK	11-12-2024	08:37:53.831	409.410	37.575	OK
11-12-2024	08:37:53.931	409.510	7.497	7.497	27.498	938	0	1.0911	OK	11-12-2024	08:37:53.931	409.510	37.576	OK
11-12-2024	08:37:54.035	409.614	7.497	7.497	27.496	938	0	1.0912	OK	11-12-2024	08:37:54.035	409.614	37.576	OK
11-12-2024	08:37:54.131	409.710	7.496	7.496	27.492	938	0	1.0915	OK	11-12-2024	08:37:54.131	409.710	37.576	OK
11-12-2024	08:37:54.304	409.883	7.497	7.497	27.496	938	0	1.0912	OK	11-12-2024	08:37:54.304	409.883	37.576	OK
11-12-2024	08:37:54.560	410.139	7.498	7.498	27.503	938	0	1.0907	OK	11-12-2024	08:37:54.560	410.139	37.576	OK
11-12-2024	08:37:54.732	410.311	7.497	7.497	27.499	938	0	1.0910	OK	11-12-2024	08:37:54.732	410.311	37.575	OK
11-12-2024	08:37:54.831	410.410	7.497	7.497	27.498	938	0	1.0911	OK	11-12-2024	08:37:54.831	410.410	37.575	OK
11-12-2024	08:37:54.932	410.511	7.497	7.497	27.495	938	0	1.0913	OK	11-12-2024	08:37:54.932	410.511	37.575	OK
11-12-2024	08:37:55.036	410.615	7.497	7.497	27.494	938	0	1.0913	OK	11-12-2024	08:37:55.036	410.615	37.575	OK
11-12-2024	08:37:55.132	410.711	7.496	7.496	27.493	938	0	1.0914	OK	11-12-2024	08:37:55.132	410.711	37.576	OK
11-12-2024	08:37:55.302	410.881	7.497	7.497	27.494	938	0	1.0913	OK	11-12-2024	08:37:55.302	410.881	37.576	OK
11-12-2024	08:37:55.565	411.144	7.497	7.497	27.499	938	0	1.0910	OK	11-12-2024	08:37:55.565	411.144	37.577	OK
11-12-2024	08:37:55.732	411.311	7.497	7.497	27.497	938	0	1.0912	OK	11-12-2024	08:37:55.732	411.311	37.578	OK
11-12-2024	08:37:55.833	411.412	7.497	7.497	27.498	938	0	1.0911	OK	11-12-2024	08:37:55.833	411.412	37.578	OK
11-12-2024	08:37:55.933	411.512	7.496	7.496	27.493	938	0	1.0914	OK	11-12-2024	08:37:55.933	411.512	37.577	OK
11-12-2024	08:37:56.035	411.614	7.497	7.497	27.496	938	0	1.0912	OK	11-12-2024	08:37:56.035	411.614	37.577	OK
11-12-2024	08:37:56.131	411.710	7.497	7.497	27.497	938	0	1.0912	OK	11-12-2024	08:37:56.131	411.710	37.577	OK
11-12-2024	08:37:56.301	411.880	7.496	7.496	27.493	938	0	1.0914	OK	11-12-2024	08:37:56.301	411.880	37.577	OK
11-12-2024	08:37:56.573	412.152	7.498	7.498	27.501	938	0	1.0909	OK	11-12-2024	08:37:56.573	412.152	37.577	OK
11-12-2024	08:37:56.733	412.312	7.497	7.497	27.500	938	0	1.0910	OK	11-12-2024	08:37:56.733	412.312	37.577	OK
11-12-2024	08:37:56.833	412.412	7.497	7.497	27.494	938	0	1.0914	OK	11-12-2024	08:37:56.833	412.412	37.577	OK
11-12-2024	08:37:56.933	412.512	7.497	7.497	27.495	938	0	1.0913	OK	11-12-2024	08:37:56.933	412.512	37.578	OK
11-12-2024	08:37:57.036	412.615	7.496	7.496	27.494	938	0	1.0914	OK	11-12-2024	08:37:57.036	412.615	37.578	OK
11-12-2024	08:37:57.296	412.875	7.497	7.497	27.498	938	0	1.0911	OK	11-12-2024	08:37:57.296	412.875	37.577	OK
11-12-2024	08:37:57.554	413.132	7.498	7.498	27.502	938	0	1.0908	OK	11-12-2024	08:37:57.554	413.132	37.578	OK
11-12-2024	08:37:57.734	413.313	7.498	7.498	27.501	938	0	1.0908	OK	11-12-2024	08:37:57.734	413.313	37.578	OK
11-12-2024	08:37:57.835	413.414	7.498	7.498	27.501	938	0	1.0908	OK	11-12-2024	08:37:57.835	413.414	37.578	OK
11-12-2024	08:37:57.935	413.514	7.496	7.496	27.492	938	0	1.0915	OK	11-12-2024	08:37:57.935	413.514	37.578	OK
11-12-2024	08:37:58.036	413.615	7.497	7.497	27.498	938	0	1.0911	OK	11-12-2024	08:37:58.036	413.615	37.580	OK
11-12-2024	08:37:58.300	413.879	7.497	7.497	27.497	938	0	1.0911	OK	11-12-2024	08:37:58.300	413.879	37.580	OK
11-12-2024	08:37:58.556	414.135	7.498	7.498	27.503	938	0	1.0907	OK	11-12-2024	08:37:58.556	414.135	37.580	OK
11-12-2024	08:37:58.735	414.314	7.498	7.498	27.503	938	0	1.0908	OK	11-12-2024	08:37:58.735	414.314	37.580	OK
11-12-2024	08:37:58.835	414.414	7.497	7.497	27.497	938	0	1.0912	OK	11-12-2024	08:37:58.835	414.414	37.580	OK
11-12-2024	08:37:58.935	414.514	7.497	7.497	27.498	938	0	1.0911	OK	11-12-2024	08:37:58.935	414.514	37.580	OK
11-12-2024	08:37:59.037	414.616	7.497	7.497	27.497	938	0	1.0912	OK	11-12-2024	08:37:59.037	414.616	37.579	OK
11-12-2024	08:37:59.136	414.715	7.496	7.496	27.494	938	0	1.0914	OK	11-12-2024	08:37:59.136	414.715	37.579	OK
11-12-2024	08:37:59.306	414.885	7.497	7.497	27.500	938	0	1.0910	OK	11-12-2024	08:37:59.306	414.885	37.580	OK
11-12-2024	08:37:59.579	415.158	7.498	7.498	27.502	938	0	1.0908	OK	11-12-2024	08:37:59.579	415.158	37.580	OK
11-12-2024	08:37:59.736	415.315	7.498	7.498	27.502	938	0	1.0908	OK	11-12-2024	08:37:59.736	415.315	37.580	OK
11-12-2024	08:37:59.835	415.414	7.498	7.498	27.501	938	0	1.0908	OK	11-12-2024	08:37:59.835	415.414	37.580	OK
11-12-2024	08:37:59.934	415.513	7.497	7.497	27.499	938	0	1.0910	OK	11-12-2024	08:37:59.934	415.513	37.580	OK
11-12-2024	08:38:00.038	415.617	7.497	7.497	27.495	937	0	1.0913	OK	11-12-2024	08:38:00.038	415.617	37.580	OK
11-12-2024	08:38:00.137	415.716	7.497	7.497	27.499	938	0	1.0910	OK	11-12-2024	08:38:00.137	415.716	37.580	OK
11-12-2024	08:38:00.312	415.891	7.497	7.497	27.499	938	0	1.0910	OK	11-12-2024	08:38:00.312	415.891	37.580	OK
11-12-2024	08:38:00.566	416.145	7.498	7.498	27.502	938	0	1.0908	OK	11-12-2024	08:38:00.566	416.145	37.581	OK
11-12-2024	08:38:00.738	416.317	7.498	7.498	27.502	938	0	1.0908	OK	11-12-2024	08:38:00.738	416.317	37.580	OK
11-12-2024	08:38:00.839	416.418	7.498	7.498	27.501	938	0	1.0908	OK	11-12-2024	08:38:00.839	416.418	37.580	OK
11-12-2024	08:38:00.938	416.517	7.497	7.497	27.499	938	0	1.0910	OK	11-12-2024	08:38:00.938	416.517	37.580	OK
11-12-2024	08:38:01.039	416.618	7.497	7.497	27.494	938	0	1.0913	OK	11-12-2024	08:38:01.039	416.618	37.580	OK
11-12-2024	08:38:01.138	416.717	7.497	7.497	27.495	938	0	1.0913	OK	11-12-2024	08:38:01.138	416.717	37.580	OK
11-12-2024	08:38:01.308	416.887	7.498	7.498	27.504	938	0	1.0906	OK	11-12-2024	08:38:01.308	416.887	37.578	OK
11-12-2024	08:38:01.581	417.160	7.497	7.497	27.500	938	0	1.0909	OK	11-12-2024	08:38:01.581	417.160	37.577	OK
11-12-2024	08:38:01.738	417.317	7.497	7.497	27.498	938	0	1.0911	OK	11-12-2024	08:38:01.738	417.317	37.577	OK
11-12-2024	08:38:01.839	417.418	7.497	7.497	27.497	938	0	1.0911	OK	11-12-2024	08:38:01.839	417.418	37.577	OK
11-12-2024	08:38:01.938	417.517	7.497	7.497	27.499	938	0	1.0910	OK	11-12-2024	08:38:01.938	417.517	37.577	OK
11-12-2024	08:38:02.038	417.617	7.497	7.497	27.495	938	0	1.0913	OK	11-12-2024	08:38:02.038	417.617	37.577	OK
11-12-2024	08:38:02.137	417.716	7.496	7.496	27.493	938	0	1.0914	OK	11-12-2024	08:38:02.137	417.716	37.577	OK
11-12-2024	08:38:02.309	417.888	7.497	7.497	27.499	938	0	1.0910	OK	11-12-2024	08:38:02.309	417.888	37.577	OK
11-12-2024	08:38:02.567	418.146	7.498	7.498	27.502	938	0	1.0908	OK	11-12-2024	08:38:02.567	418.146	37.577	OK
11-12-2024	08:38:02.738	418.317	7.497	7.497	27.499	938	0	1.0910	OK	11-12-2024	08:38:02.738	418.317	37.577	OK
11-12-2024	08:38:02.838	418.417	7.497	7.497	27.496	938	0	1.0912	OK	11-12-2024	08:38:02.838	418.417	37.577	OK
11-12-2024	08:38:02.939	418.518	7.497	7.497	27.497	938	0	1.0912	OK	11-12-2024	08:38:02.939	418.518	37.577	OK
11-12-2024	08:38:03.039	418.618	7.497	7.497	27.495	938	0	1.0913	OK	11-12-2024	08:38:03.039	418.618	37.577	OK
11-12-2024	08:38:03.139	418.718	7.497	7.497	27.497	938	0	1.0912	OK	11-12-2024	08:38:03.139	418.718	37.577	OK
11-12-2024	08:38:03.309	418.888	7.497	7.497	27.499	938	0	1.0910	OK	11-12-2024	08:38:03.309	418.888	37.577	OK
11-12-2024	08:38:03.565	419.144	7.497	7.497	27.498	938	0	1.0911	OK	11-12-2024	08:38:03.565	419.144	37.577	OK
11-12-2024	08:38:03.741	419.320	7.498	7.498	27.503	938	0	1.0908	OK	11-12-2024	08:38:03.741	419.320	37.577	OK
11-12-2024	08:38:03.839	419.418	7.497	7.497	27.496	938	0	1.0912	OK	11-12-2024	08:38:03.839	419.418	37.577	OK
11-12-2024	08:38:03.940	419.519	7.497	7.497	27.497	938	0	1.0911	OK	11-12-2024	08:38:03.940	419.519	37.577	OK
11-12-2024	08:38:04.041	419.620	7.496	7.496	27.490	938	0	1.0916	OK	11-12-2024	08:38:04.041	419.620	37.576	OK
11-12-2024	08:38:04.140	419.718	7.496	7.496	27.493	938	0	1.0914	OK	11-12-2024	08:38:04.140	419.718	37.576	OK
11-12-2024	08:38:04.314	419.893	7.497	7.497	27.499	938	0	1.0910	OK	11-12-2024	08:38:04.314	419.893	37.576	OK
11-12-2024	08:38:04.568	420.147	7.498	7.498	27.502	938	0	1.0908	OK	11-12-2024	08:38:04.568	420.147	37.577	OK
11-12-2024	08:38:04.740	420.319	7.497	7.497	27.500	938	0	1.0909	OK	11-12-2024	08:38:04.740	420.319	37.577	OK
11-12-2024	08:38:04.839	420.418	7.497	7.497	27.496	938	0	1.0912	OK	11-12-2024	08:38:04.839	420.418	37.577	OK
11-12-2024	08:38:04.942	420.521	7.497	7.497	27.495	938	0	1.0913	OK	11-12-2024	08:38:04.942	420.521	37.577	OK
11-12-2024	08:38:05.041	420.620	7.497	7.497	27.494	938	0	1.0913	OK	11-12-2024	08:38:05.041	420.620	37.579	OK
11-12-2024	08:38:05.141	420.720	7.496	7.496	27.492	938	0	1.0915	OK	11-12-2024	08:38:05.141	420.720	37.579	OK
11-12-2024	08:38:05.311	420.890	7.497	7.497	27.494	938	0	1.0913	OK	11-12-2024	08:38:05.311	420.890	37.579	OK
11-12-2024	08:38:05.584	421.163	7.498	7.498	27.501	938	0	1.0908	OK	11-12-2024	08:38:05.584	421.163	37.579	OK
11-12-2024	08:38:05.747	421.326	7.498	7.498	27.501	938	0	1.0908	OK	11-12-2024	08:38:05.747	421.326	37.580	OK
11-12-2024	08:38:05.841	421.420	7.497	7.497	27.498	938	0	1.0911	OK	11-12-2024	08:38:05.841	421.420	37.580	OK
11-12-2024	08:38:05.942	421.521	7.496	7.496	27.492	938	0	1.0915	OK	11-12-2024	08:38:05.942	421.521	37.579	OK
11-12-2024	08:38:06.045	421.624	7.496	7.496	27.493	938	0	1.0914	OK	11-12-2024	08:38:06.045	421.624	37.579	OK
11-12-2024	08:38:06.144	421.723	7.497	7.497	27.495	938	0	1.0913	OK	11-12-2024	08:38:06.144	421.723	37.580	OK
11-12-2024	08:38:06.319	421.898	7.497	7.497	27.498	938	0	1.0911	OK	11-12-2024	08:38:06.319	421.898	37.581	OK
11-12-2024	08:38:06.578	422.157	7.498	7.498	27.503	938	0	1.0907	OK	11-12-2024	08:38:06.578	422.157	37.581	OK
11-12-2024	08:38:06.743	422.322	7.497	7.497	27.499	938	0	1.0910	OK	11-12-2024	08:38:06.743	422.322	37.580	OK
11-12-2024	08:38:06.843	422.422	7.497	7.497	27.494	938	0	1.0913	OK	11-12-2024	08:38:06.843	422.422	37.580	OK
11-12-2024	08:38:06.944	422.523	7.496	7.496	27.493	938	0	1.0914	OK	11-12-2024	08:38:06.944	422.523	37.579	OK
11-12-2024	08:38:07.044	422.623	7.497	7.497	27.494	938	0	1.0913	OK	11-12-2024	08:38:07.044	422.623	37.579	OK
11-12-2024	08:38:07.146	422.725	7.496	7.496	27.491	938	0	1.0915	OK	11-12-2024	08:38:07.146	422.725	37.579	OK
11-12-2024	08:38:07.346	422.925	7.497	7.497	27.495	938	0	1.0913	OK	11-12-2024	08:38:07.346	422.925	37.581	OK
11-12-2024	08:38:07.606	423.185	7.497	7.497	27.500	938	0	1.0909	OK	11-12-2024	08:38:07.606	423.185	37.581	OK
11-12-2024	08:38:07.745	423.324	7.498	7.498	27.501	938	0	1.0908	OK	11-12-2024	08:38:07.745	423.324	37.581	OK
11-12-2024	08:38:07.845	423.424	7.496	7.496	27.493	938	0	1.0914	OK	11-12-2024	08:38:07.845	423.424	37.581	OK
11-12-2024	08:38:07.946	423.525	7.497	7.497	27.493	938	0	1.0914	OK	11-12-2024	08:38:07.946	423.525	37.580	OK
11-12-2024	08:38:08.049	423.628	7.496	7.496	27.491	938	0	1.0915	OK	11-12-2024	08:38:08.049	423.628	37.580	OK
11-12-2024	08:38:08.147	423.726	7.496	7.496	27.490	938	0	1.0916	OK	11-12-2024	08:38:08.147	423.726	37.580	OK
11-12-2024	08:38:08.320	423.899	7.497	7.497	27.495	938	0	1.0912	OK	11-12-2024	08:38:08.320	423.899	37.579	OK
11-12-2024	08:38:08.579	424.158	7.497	7.497	27.499	938	0	1.0909	OK	11-12-2024	08:38:08.579	424.158	37.579	OK
11-12-2024	08:38:08.748	424.327	7.497	7.497	27.497	938	0	1.0911	OK	11-12-2024	08:38:08.748	424.327	37.580	OK
11-12-2024	08:38:08.848	424.427	7.497	7.497	27.493	938	0	1.0914	OK	11-12-2024	08:38:08.848	424.427	37.580	OK
11-12-2024	08:38:08.948	424.527	7.497	7.497	27.493	938	0	1.0914	OK	11-12-2024	08:38:08.948	424.527	37.579	OK
11-12-2024	08:38:09.048	424.627	7.497	7.497	27.494	938	0	1.0913	OK	11-12-2024	08:38:09.048	424.627	37.579	OK
11-12-2024	08:38:09.149	424.728	7.496	7.496	27.492	938	0	1.0914	OK	11-12-2024	08:38:09.149	424.728	37.579	OK
11-12-2024	08:38:09.323	424.901	7.497	7.497	27.494	938	0	1.0913	OK	11-12-2024	08:38:09.323	424.901	37.578	OK
11-12-2024	08:38:09.578	425.157	7.498	7.498	27.500	938	0	1.0909	OK	11-12-2024	08:38:09.578	425.157	37.578	OK
11-12-2024	08:38:09.752	425.331	7.498	7.498	27.502	938	0	1.0907	OK	11-12-2024	08:38:09.752	425.331	37.577	OK
11-12-2024	08:38:09.857	425.436	7.497	7.497	27.494	938	0	1.0913	OK	11-12-2024	08:38:09.857	425.436	37.577	OK
11-12-2024	08:38:09.953	425.532	7.497	7.497	27.496	938	0	1.0911	OK	11-12-2024	08:38:09.953	425.532	37.578	OK
11-12-2024	08:38:10.054	425.633	7.497	7.497	27.493	938	0	1.0914	OK	11-12-2024	08:38:10.054	425.633	37.578	OK
11-12-2024	08:38:10.156	425.735	7.496	7.496	27.492	938	0	1.0914	OK	11-12-2024	08:38:10.156	425.735	37.578	OK
11-12-2024	08:38:10.327	425.906	7.497	7.497	27.496	938	0	1.0911	OK	11-12-2024	08:38:10.327	425.906	37.577	OK
11-12-2024	08:38:10.583	426.162	7.498	7.498	27.501	938	0	1.0908	OK	11-12-2024	08:38:10.583	426.162	37.577	OK
11-12-2024	08:38:10.757	426.336	7.498	7.498	27.503	938	0	1.0907	OK	11-12-2024	08:38:10.757	426.336	37.577	OK
11-12-2024	08:38:10.857	426.436	7.497	7.497	27.498	938	0	1.0911	OK	11-12-2024	08:38:10.857	426.436	37.577	OK
11-12-2024	08:38:10.957	426.536	7.497	7.497	27.495	938	0	1.0913	OK	11-12-2024	08:38:10.957	426.536	37.577	OK
11-12-2024	08:38:11.058	426.637	7.497	7.497	27.495	938	0	1.0913	OK	11-12-2024	08:38:11.058	426.637	37.577	OK
11-12-2024	08:38:11.159	426.738	7.497	7.497	27.496	938	0	1.0912	OK	11-12-2024	08:38:11.159	426.738	37.577	OK
11-12-2024	08:38:11.440	427.019	7.497	7.497	27.500	938	0	1.0909	OK	11-12-2024	08:38:11.440	427.019	37.577	OK
11-12-2024	08:38:11.613	427.192	7.497	7.497	27.496	938	0	1.0912	OK	11-12-2024	08:38:11.613	427.192	37.578	OK
11-12-2024	08:38:11.759	427.338	7.497	7.497	27.497	938	0	1.0911	OK	11-12-2024	08:38:11.759	427.338	37.578	OK
11-12-2024	08:38:11.859	427.438	7.497	7.497	27.497	938	0	1.0911	OK	11-12-2024	08:38:11.859	427.438	37.578	OK
11-12-2024	08:38:11.959	427.538	7.496	7.496	27.492	938	0	1.0915	OK	11-12-2024	08:38:11.959	427.538	37.578	OK
11-12-2024	08:38:12.059	427.638	7.496	7.496	27.492	938	0	1.0915	OK	11-12-2024	08:38:12.059	427.638	37.578	OK
11-12-2024	08:38:12.160	427.739	7.496	7.496	27.489	938	0	1.0917	OK	11-12-2024	08:38:12.160	427.739	37.578	OK
11-12-2024	08:38:12.329	427.907	7.497	7.497	27.495	938	0	1.0913	OK	11-12-2024	08:38:12.329	427.907	37.578	OK
11-12-2024	08:38:12.599	428.178	7.498	7.498	27.502	938	0	1.0908	OK	11-12-2024	08:38:12.599	428.178	37.578	OK
11-12-2024	08:38:12.761	428.340	7.498	7.498	27.501	938	0	1.0908	OK	11-12-2024	08:38:12.761	428.340	37.577	OK
11-12-2024	08:38:12.860	428.439	7.497	7.497	27.499	938	0	1.0910	OK	11-12-2024	08:38:12.860	428.439	37.577	OK
11-12-2024	08:38:12.961	428.540	7.496	7.496	27.491	938	0	1.0915	OK	11-12-2024	08:38:12.961	428.540	37.579	OK
11-12-2024	08:38:13.062	428.641	7.496	7.496	27.492	938	0	1.0914	OK	11-12-2024	08:38:13.062	428.641	37.579	OK
11-12-2024	08:38:13.165	428.744	7.497	7.497	27.495	938	0	1.0912	OK	11-12-2024	08:38:13.165	428.744	37.579	OK
11-12-2024	08:38:13.351	428.930	7.497	7.497	27.495	938	0	1.0912	OK	11-12-2024	08:38:13.351	428.930	37.579	OK
11-12-2024	08:38:13.606	429.184	7.497	7.497	27.495	938	0	1.0912	OK	11-12-2024	08:38:13.606	429.184	37.579	OK
11-12-2024	08:38:13.767	429.346	7.498	7.498	27.500	938	0	1.0909	OK	11-12-2024	08:38:13.767	429.346	37.578	OK
11-12-2024	08:38:13.866	429.445	7.497	7.497	27.499	938	0	1.0909	OK	11-12-2024	08:38:13.866	429.445	37.578	OK
11-12-2024	08:38:13.970	429.549	7.497	7.497	27.495	938	0	1.0912	OK	11-12-2024	08:38:13.970	429.549	37.579	OK
11-12-2024	08:38:14.069	429.648	7.497	7.497	27.494	938	0	1.0913	OK	11-12-2024	08:38:14.069	429.648	37.579	OK
11-12-2024	08:38:14.169	429.748	7.497	7.497	27.493	938	0	1.0914	OK	11-12-2024	08:38:14.169	429.748	37.578	OK
11-12-2024	08:38:14.338	429.917	7.497	7.497	27.499	938	0	1.0909	OK	11-12-2024	08:38:14.338	429.917	37.578	OK
11-12-2024	08:38:14.593	430.172	7.497	7.497	27.496	938	0	1.0911	OK	11-12-2024	08:38:14.593	430.172	37.578	OK
11-12-2024	08:38:14.767	430.346	7.498	7.498	27.500	938	0	1.0909	OK	11-12-2024	08:38:14.767	430.346	37.578	OK
11-12-2024	08:38:14.868	430.446	7.498	7.498	27.500	938	0	1.0909	OK	11-12-2024	08:38:14.868	430.446	37.578	OK
11-12-2024	08:38:14.968	430.547	7.497	7.497	27.500	938	0	1.0909	OK	11-12-2024	08:38:14.968	430.547	37.578	OK
11-12-2024	08:38:15.070	430.649	7.496	7.496	27.491	938	0	1.0915	OK	11-12-2024	08:38:15.070	430.649	37.578	OK
11-12-2024	08:38:15.302	430.881	7.497	7.497	27.499	938	0	1.0910	OK	11-12-2024	08:38:15.302	430.881	37.578	OK
11-12-2024	08:38:15.559	431.138	7.498	7.498	27.505	938	0	1.0906	OK	11-12-2024	08:38:15.559	431.138	37.577	OK
11-12-2024	08:38:15.669	431.248	7.497	7.497	27.497	938	0	1.0911	OK	11-12-2024	08:38:15.669	431.248	37.576	OK
11-12-2024	08:38:15.769	431.348	7.497	7.497	27.495	938	0	1.0913	OK	11-12-2024	08:38:15.769	431.348	37.576	OK
11-12-2024	08:38:15.870	431.449	7.497	7.497	27.494	938	0	1.0913	OK	11-12-2024	08:38:15.870	431.449	37.577	OK
11-12-2024	08:38:15.970	431.549	7.497	7.497	27.493	938	0	1.0914	OK	11-12-2024	08:38:15.970	431.549	37.577	OK
11-12-2024	08:38:16.071	431.650	7.497	7.497	27.497	938	0	1.0911	OK	11-12-2024	08:38:16.071	431.650	37.577	OK
11-12-2024	08:38:16.170	431.749	7.497	7.497	27.495	938	0	1.0912	OK	11-12-2024	08:38:16.170	431.749	37.577	OK
11-12-2024	08:38:16.339	431.918	7.497	7.497	27.498	938	0	1.0910	OK	11-12-2024	08:38:16.339	431.918	37.576	OK
11-12-2024	08:38:16.612	432.191	7.498	7.498	27.502	938	0	1.0907	OK	11-12-2024	08:38:16.612	432.191	37.575	OK
11-12-2024	08:38:16.770	432.349	7.498	7.498	27.501	938	0	1.0908	OK	11-12-2024	08:38:16.770	432.349	37.575	OK
11-12-2024	08:38:16.870	432.449	7.497	7.497	27.496	938	0	1.0911	OK	11-12-2024	08:38:16.870	432.449	37.576	OK
11-12-2024	08:38:16.971	432.550	7.497	7.497	27.499	938	0	1.0909	OK	11-12-2024	08:38:16.971	432.550	37.576	OK
11-12-2024	08:38:17.070	432.649	7.497	7.497	27.497	938	0	1.0911	OK	11-12-2024	08:38:17.070	432.649	37.576	OK
11-12-2024	08:38:17.169	432.748	7.497	7.497	27.494	938	0	1.0913	OK	11-12-2024	08:38:17.169	432.748	37.576	OK
11-12-2024	08:38:17.339	432.918	7.497	7.497	27.499	938	0	1.0909	OK	11-12-2024	08:38:17.339	432.918	37.576	OK
11-12-2024	08:38:17.595	433.174	7.497	7.497	27.498	938	0	1.0910	OK	11-12-2024	08:38:17.595	433.174	37.575	OK
11-12-2024	08:38:17.772	433.351	7.497	7.497	27.497	938	0	1.0911	OK	11-12-2024	08:38:17.772	433.351	37.575	OK
11-12-2024	08:38:17.872	433.451	7.497	7.497	27.494	938	0	1.0913	OK	11-12-2024	08:38:17.872	433.451	37.575	OK
11-12-2024	08:38:17.972	433.551	7.497	7.497	27.494	938	0	1.0913	OK	11-12-2024	08:38:17.972	433.551	37.575	OK
11-12-2024	08:38:18.072	433.651	7.497	7.497	27.494	938	0	1.0913	OK	11-12-2024	08:38:18.072	433.651	37.574	OK
11-12-2024	08:38:18.173	433.752	7.497	7.497	27.493	938	0	1.0914	OK	11-12-2024	08:38:18.173	433.752	37.574	OK
11-12-2024	08:38:18.344	433.923	7.497	7.497	27.496	938	0	1.0912	OK	11-12-2024	08:38:18.344	433.923	37.573	OK
11-12-2024	08:38:18.616	434.195	7.498	7.498	27.500	938	0	1.0909	OK	11-12-2024	08:38:18.616	434.195	37.573	OK
11-12-2024	08:38:18.773	434.352	7.497	7.497	27.496	938	0	1.0912	OK	11-12-2024	08:38:18.773	434.352	37.574	OK
11-12-2024	08:38:18.874	434.453	7.497	7.497	27.496	938	0	1.0912	OK	11-12-2024	08:38:18.874	434.453	37.574	OK
11-12-2024	08:38:18.973	434.552	7.497	7.497	27.496	938	0	1.0912	OK	11-12-2024	08:38:18.973	434.552	37.574	OK
11-12-2024	08:38:19.077	434.655	7.497	7.497	27.494	938	0	1.0913	OK	11-12-2024	08:38:19.077	434.655	37.574	OK
11-12-2024	08:38:19.175	434.754	7.497	7.497	27.493	938	0	1.0914	OK	11-12-2024	08:38:19.175	434.754	37.574	OK
11-12-2024	08:38:19.347	434.926	7.497	7.497	27.494	938	0	1.0913	OK	11-12-2024	08:38:19.347	434.926	37.575	OK
11-12-2024	08:38:19.618	435.197	7.498	7.498	27.503	938	0	1.0907	OK	11-12-2024	08:38:19.618	435.197	37.575	OK
11-12-2024	08:38:19.778	435.357	7.497	7.497	27.499	938	0	1.0909	OK	11-12-2024	08:38:19.778	435.357	37.575	OK
11-12-2024	08:38:19.878	435.457	7.496	7.496	27.491	938	0	1.0915	OK	11-12-2024	08:38:19.878	435.457	37.575	OK
11-12-2024	08:38:19.977	435.556	7.497	7.497	27.494	938	0	1.0913	OK	11-12-2024	08:38:19.977	435.556	37.575	OK
11-12-2024	08:38:20.080	435.659	7.496	7.496	27.492	938	0	1.0914	OK	11-12-2024	08:38:20.080	435.659	37.574	OK
11-12-2024	08:38:20.180	435.759	7.496	7.496	27.487	938	0	1.0918	OK	11-12-2024	08:38:20.180	435.759	37.574	OK
11-12-2024	08:38:20.352	435.931	7.497	7.497	27.496	938	0	1.0911	OK	11-12-2024	08:38:20.352	435.931	37.574	OK
11-12-2024	08:38:20.628	436.207	7.497	7.497	27.498	938	0	1.0910	OK	11-12-2024	08:38:20.628	436.207	37.574	OK
11-12-2024	08:38:20.782	436.361	7.498	7.498	27.504	938	0	1.0906	OK	11-12-2024	08:38:20.782	436.361	37.575	OK
11-12-2024	08:38:20.881	436.460	7.497	7.497	27.498	938	0	1.0910	OK	11-12-2024	08:38:20.881	436.460	37.575	OK
11-12-2024	08:38:20.981	436.560	7.497	7.497	27.498	938	0	1.0910	OK	11-12-2024	08:38:20.981	436.560	37.575	OK
11-12-2024	08:38:21.082	436.661	7.497	7.497	27.494	938	0	1.0913	OK	11-12-2024	08:38:21.082	436.661	37.575	OK
11-12-2024	08:38:21.181	436.760	7.497	7.497	27.493	938	0	1.0914	OK	11-12-2024	08:38:21.181	436.760	37.575	OK
11-12-2024	08:38:21.352	436.931	7.497	7.497	27.497	938	0	1.0911	OK	11-12-2024	08:38:21.352	436.931	37.575	OK
11-12-2024	08:38:21.613	437.192	7.498	7.498	27.503	938	0	1.0907	OK	11-12-2024	08:38:21.613	437.192	37.576	OK
11-12-2024	08:38:21.782	437.361	7.498	7.498	27.502	938	0	1.0907	OK	11-12-2024	08:38:21.782	437.361	37.577	OK
11-12-2024	08:38:21.885	437.464	7.497	7.497	27.496	938	0	1.0911	OK	11-12-2024	08:38:21.885	437.464	37.577	OK
11-12-2024	08:38:21.985	437.564	7.497	7.497	27.497	938	0	1.0911	OK	11-12-2024	08:38:21.985	437.564	37.577	OK
11-12-2024	08:38:22.086	437.665	7.496	7.496	27.493	938	0	1.0914	OK	11-12-2024	08:38:22.086	437.665	37.577	OK
11-12-2024	08:38:22.307	437.886	7.497	7.497	27.496	938	0	1.0912	OK	11-12-2024	08:38:22.307	437.886	37.577	OK
11-12-2024	08:38:22.563	438.142	7.497	7.497	27.497	938	0	1.0911	OK	11-12-2024	08:38:22.563	438.142	37.578	OK
11-12-2024	08:38:22.689	438.268	7.498	7.498	27.503	938	0	1.0907	OK	11-12-2024	08:38:22.689	438.268	37.577	OK
11-12-2024	08:38:22.789	438.368	7.497	7.497	27.499	938	0	1.0910	OK	11-12-2024	08:38:22.789	438.368	37.577	OK
11-12-2024	08:38:22.889	438.468	7.497	7.497	27.496	938	0	1.0912	OK	11-12-2024	08:38:22.889	438.468	37.577	OK
11-12-2024	08:38:22.989	438.568	7.496	7.496	27.493	938	0	1.0914	OK	11-12-2024	08:38:22.989	438.568	37.577	OK
11-12-2024	08:38:23.088	438.667	7.497	7.497	27.497	938	0	1.0911	OK	11-12-2024	08:38:23.088	438.667	37.577	OK
11-12-2024	08:38:23.190	438.769	7.496	7.496	27.492	938	0	1.0914	OK	11-12-2024	08:38:23.190	438.769	37.577	OK
11-12-2024	08:38:23.547	439.126	7.498	7.498	27.501	938	0	1.0908	OK	11-12-2024	08:38:23.547	439.126	37.578	OK
11-12-2024	08:38:23.691	439.270	7.498	7.498	27.501	938	0	1.0908	OK	11-12-2024	08:38:23.691	439.270	37.578	OK
11-12-2024	08:38:23.790	439.369	7.498	7.498	27.500	938	0	1.0909	OK	11-12-2024	08:38:23.790	439.369	37.578	OK
11-12-2024	08:38:23.891	439.470	7.497	7.497	27.497	938	0	1.0911	OK	11-12-2024	08:38:23.891	439.470	37.578	OK
11-12-2024	08:38:23.990	439.569	7.497	7.497	27.496	938	0	1.0911	OK	11-12-2024	08:38:23.990	439.569	37.577	OK
11-12-2024	08:38:24.091	439.670	7.496	7.496	27.490	938	0	1.0916	OK	11-12-2024	08:38:24.091	439.670	37.577	OK
11-12-2024	08:38:24.306	439.885	7.497	7.497	27.495	938	0	1.0912	OK	11-12-2024	08:38:24.306	439.885	37.578	OK
11-12-2024	08:38:24.561	440.140	7.498	7.498	27.501	938	0	1.0908	OK	11-12-2024	08:38:24.561	440.140	37.578	OK
11-12-2024	08:38:24.692	440.271	7.498	7.498	27.500	938	0	1.0909	OK	11-12-2024	08:38:24.692	440.271	37.578	OK
11-12-2024	08:38:24.791	440.370	7.496	7.496	27.491	938	0	1.0915	OK	11-12-2024	08:38:24.791	440.370	37.579	OK
11-12-2024	08:38:24.892	440.471	7.497	7.497	27.493	938	0	1.0914	OK	11-12-2024	08:38:24.892	440.471	37.579	OK
11-12-2024	08:38:24.993	440.572	7.496	7.496	27.490	938	0	1.0916	OK	11-12-2024	08:38:24.993	440.572	37.580	OK
11-12-2024	08:38:25.092	440.671	7.496	7.496	27.489	938	0	1.0916	OK	11-12-2024	08:38:25.092	440.671	37.580	OK
11-12-2024	08:38:25.194	440.773	7.496	7.496	27.489	938	0	1.0916	OK	11-12-2024	08:38:25.194	440.773	37.580	OK
11-12-2024	08:38:25.367	440.946	7.497	7.497	27.496	938	0	1.0911	OK	11-12-2024	08:38:25.367	440.946	37.579	OK
11-12-2024	08:38:25.622	441.201	7.497	7.497	27.498	938	0	1.0910	OK	11-12-2024	08:38:25.622	441.201	37.580	OK
11-12-2024	08:38:25.795	441.374	7.497	7.497	27.496	938	0	1.0911	OK	11-12-2024	08:38:25.795	441.374	37.579	OK
11-12-2024	08:38:25.895	441.474	7.496	7.496	27.492	938	0	1.0914	OK	11-12-2024	08:38:25.895	441.474	37.579	OK
11-12-2024	08:38:25.995	441.574	7.497	7.497	27.498	938	0	1.0910	OK	11-12-2024	08:38:25.995	441.574	37.580	OK
11-12-2024	08:38:26.096	441.675	7.497	7.497	27.493	938	0	1.0914	OK	11-12-2024	08:38:26.096	441.675	37.580	OK
11-12-2024	08:38:26.195	441.774	7.496	7.496	27.490	938	0	1.0916	OK	11-12-2024	08:38:26.195	441.774	37.580	OK
11-12-2024	08:38:26.365	441.944	7.497	7.497	27.495	938	0	1.0912	OK	11-12-2024	08:38:26.365	441.944	37.579	OK
11-12-2024	08:38:26.624	442.203	7.497	7.497	27.498	938	0	1.0910	OK	11-12-2024	08:38:26.624	442.203	37.579	OK
11-12-2024	08:38:26.795	442.374	7.498	7.498	27.502	938	0	1.0907	OK	11-12-2024	08:38:26.795	442.374	37.579	OK
11-12-2024	08:38:26.895	442.474	7.496	7.496	27.492	938	0	1.0914	OK	11-12-2024	08:38:26.895	442.474	37.579	OK
11-12-2024	08:38:26.996	442.575	7.497	7.497	27.496	938	0	1.0911	OK	11-12-2024	08:38:26.996	442.575	37.579	OK
11-12-2024	08:38:27.197	442.776	7.497	7.497	27.497	938	0	1.0911	OK	11-12-2024	08:38:27.197	442.776	37.579	OK
11-12-2024	08:38:27.372	442.951	7.498	7.498	27.502	938	0	1.0907	OK	11-12-2024	08:38:27.372	442.951	37.580	OK
11-12-2024	08:38:27.629	443.208	7.497	7.497	27.498	938	0	1.0910	OK	11-12-2024	08:38:27.629	443.208	37.579	OK
11-12-2024	08:38:27.800	443.379	7.497	7.497	27.499	938	0	1.0909	OK	11-12-2024	08:38:27.800	443.379	37.579	OK
11-12-2024	08:38:27.901	443.480	7.497	7.497	27.498	938	0	1.0910	OK	11-12-2024	08:38:27.901	443.480	37.579	OK
11-12-2024	08:38:28.002	443.581	7.497	7.497	27.494	938	0	1.0913	OK	11-12-2024	08:38:28.002	443.581	37.578	OK
11-12-2024	08:38:28.102	443.681	7.497	7.497	27.495	938	0	1.0912	OK	11-12-2024	08:38:28.102	443.681	37.578	OK
11-12-2024	08:38:28.202	443.781	7.496	7.496	27.492	938	0	1.0914	OK	11-12-2024	08:38:28.202	443.781	37.578	OK
11-12-2024	08:38:28.371	443.950	7.497	7.497	27.499	938	0	1.0909	OK	11-12-2024	08:38:28.371	443.950	37.578	OK
11-12-2024	08:38:28.630	444.209	7.498	7.498	27.500	938	0	1.0909	OK	11-12-2024	08:38:28.630	444.209	37.579	OK
11-12-2024	08:38:28.802	444.381	7.498	7.498	27.502	938	0	1.0907	OK	11-12-2024	08:38:28.802	444.381	37.578	OK
11-12-2024	08:38:28.902	444.481	7.496	7.496	27.491	938	0	1.0915	OK	11-12-2024	08:38:28.902	444.481	37.578	OK
11-12-2024	08:38:29.002	444.581	7.496	7.496	27.491	938	0	1.0915	OK	11-12-2024	08:38:29.002	444.581	37.578	OK
11-12-2024	08:38:29.102	444.681	7.497	7.497	27.496	938	0	1.0911	OK	11-12-2024	08:38:29.102	444.681	37.578	OK
11-12-2024	08:38:29.201	444.780	7.496	7.496	27.491	938	0	1.0914	OK	11-12-2024	08:38:29.201	444.780	37.579	OK
11-12-2024	08:38:29.372	444.951	7.497	7.497	27.495	938	0	1.0912	OK	11-12-2024	08:38:29.372	444.951	37.579	OK
11-12-2024	08:38:29.628	445.207	7.498	7.498	27.499	938	0	1.0909	OK	11-12-2024	08:38:29.628	445.207	37.579	OK
11-12-2024	08:38:29.803	445.382	7.498	7.498	27.501	938	0	1.0907	OK	11-12-2024	08:38:29.803	445.382	37.579	OK
11-12-2024	08:38:29.901	445.480	7.497	7.497	27.495	938	0	1.0912	OK	11-12-2024	08:38:29.901	445.480	37.579	OK
11-12-2024	08:38:30.002	445.581	7.497	7.497	27.494	938	0	1.0912	OK	11-12-2024	08:38:30.002	445.581	37.579	OK
11-12-2024	08:38:30.101	445.680	7.497	7.497	27.498	938	0	1.0910	OK	11-12-2024	08:38:30.101	445.680	37.579	OK
11-12-2024	08:38:30.306	445.885	7.498	7.498	27.499	938	0	1.0909	OK	11-12-2024	08:38:30.306	445.885	37.579	OK
11-12-2024	08:38:30.562	446.141	7.498	7.498	27.501	938	0	1.0907	OK	11-12-2024	08:38:30.562	446.141	37.580	OK
11-12-2024	08:38:30.703	446.282	7.498	7.498	27.500	938	0	1.0908	OK	11-12-2024	08:38:30.703	446.282	37.578	OK
11-12-2024	08:38:30.804	446.383	7.497	7.497	27.496	938	0	1.0911	OK	11-12-2024	08:38:30.804	446.383	37.580	OK
11-12-2024	08:38:30.905	446.484	7.497	7.497	27.498	938	0	1.0910	OK	11-12-2024	08:38:30.905	446.484	37.580	OK
11-12-2024	08:38:31.004	446.583	7.496	7.496	27.490	938	0	1.0915	OK	11-12-2024	08:38:31.004	446.583	37.581	OK
11-12-2024	08:38:31.105	446.684	7.496	7.496	27.492	938	0	1.0914	OK	11-12-2024	08:38:31.105	446.684	37.581	OK
11-12-2024	08:38:31.206	446.785	7.496	7.496	27.492	938	0	1.0914	OK	11-12-2024	08:38:31.206	446.785	37.581	OK
11-12-2024	08:38:31.375	446.954	7.496	7.496	27.491	938	0	1.0915	OK	11-12-2024	08:38:31.375	446.954	37.581	OK
11-12-2024	08:38:31.646	447.225	7.498	7.498	27.500	938	0	1.0909	OK	11-12-2024	08:38:31.646	447.225	37.581	OK
11-12-2024	08:38:31.806	447.385	7.497	7.497	27.497	938	0	1.0911	OK	11-12-2024	08:38:31.806	447.385	37.581	OK
11-12-2024	08:38:31.907	447.486	7.497	7.497	27.496	938	0	1.0911	OK	11-12-2024	08:38:31.907	447.486	37.581	OK
11-12-2024	08:38:32.008	447.587	7.496	7.496	27.493	938	0	1.0914	OK	11-12-2024	08:38:32.008	447.587	37.581	OK
11-12-2024	08:38:32.108	447.687	7.497	7.497	27.497	938	0	1.0911	OK	11-12-2024	08:38:32.108	447.687	37.581	OK
11-12-2024	08:38:32.308	447.887	7.497	7.497	27.499	938	0	1.0909	OK	11-12-2024	08:38:32.308	447.887	37.580	OK
11-12-2024	08:38:32.563	448.142	7.498	7.498	27.504	938	0	1.0906	OK	11-12-2024	08:38:32.563	448.142	37.580	OK
11-12-2024	08:38:32.709	448.288	7.498	7.498	27.505	938	0	1.0905	OK	11-12-2024	08:38:32.709	448.288	37.580	OK
11-12-2024	08:38:32.809	448.388	7.497	7.497	27.499	938	0	1.0909	OK	11-12-2024	08:38:32.809	448.388	37.580	OK
11-12-2024	08:38:32.909	448.488	7.498	7.498	27.501	938	0	1.0908	OK	11-12-2024	08:38:32.909	448.488	37.580	OK
11-12-2024	08:38:33.010	448.589	7.497	7.497	27.498	938	0	1.0910	OK	11-12-2024	08:38:33.010	448.589	37.580	OK
11-12-2024	08:38:33.111	448.690	7.498	7.498	27.500	938	0	1.0909	OK	11-12-2024	08:38:33.111	448.690	37.580	OK
11-12-2024	08:38:33.211	448.790	7.497	7.497	27.494	938	0	1.0913	OK	11-12-2024	08:38:33.211	448.790	37.580	OK
11-12-2024	08:38:33.380	448.959	7.498	7.498	27.502	938	0	1.0907	OK	11-12-2024	08:38:33.380	448.959	37.580	OK
11-12-2024	08:38:33.637	449.216	7.498	7.498	27.501	938	0	1.0908	OK	11-12-2024	08:38:33.637	449.216	37.580	OK
11-12-2024	08:38:33.811	449.390	7.498	7.498	27.506	938	0	1.0905	OK	11-12-2024	08:38:33.811	449.390	37.580	OK
11-12-2024	08:38:33.914	449.493	7.498	7.498	27.500	938	0	1.0909	OK	11-12-2024	08:38:33.914	449.493	37.581	OK
11-12-2024	08:38:34.013	449.592	7.497	7.497	27.497	938	0	1.0911	OK	11-12-2024	08:38:34.013	449.592	37.581	OK
11-12-2024	08:38:34.114	449.693	7.497	7.497	27.497	938	0	1.0911	OK	11-12-2024	08:38:34.114	449.693	37.580	OK
11-12-2024	08:38:34.214	449.793	7.497	7.497	27.495	938	0	1.0912	OK	11-12-2024	08:38:34.214	449.793	37.580	OK
11-12-2024	08:38:34.385	449.964	7.497	7.497	27.497	938	0	1.0910	OK	11-12-2024	08:38:34.385	449.964	37.580	OK
11-12-2024	08:38:34.642	450.221	7.498	7.498	27.505	938	0	1.0905	OK	11-12-2024	08:38:34.642	450.221	37.580	OK
11-12-2024	08:38:34.816	450.395	7.498	7.498	27.503	938	0	1.0906	OK	11-12-2024	08:38:34.816	450.395	37.579	OK
11-12-2024	08:38:34.915	450.494	7.497	7.497	27.497	938	0	1.0910	OK	11-12-2024	08:38:34.915	450.494	37.579	OK
11-12-2024	08:38:35.016	450.595	7.496	7.496	27.488	938	0	1.0916	OK	11-12-2024	08:38:35.016	450.595	37.579	OK
11-12-2024	08:38:35.118	450.697	7.497	7.497	27.493	938	0	1.0913	OK	11-12-2024	08:38:35.118	450.697	37.578	OK
11-12-2024	08:38:35.218	450.796	7.496	7.496	27.489	938	0	1.0916	OK	11-12-2024	08:38:35.218	450.796	37.578	OK
11-12-2024	08:38:35.391	450.970	7.497	7.497	27.494	938	0	1.0912	OK	11-12-2024	08:38:35.391	450.970	37.578	OK
11-12-2024	08:38:35.650	451.229	7.497	7.497	27.497	938	0	1.0910	OK	11-12-2024	08:38:35.650	451.229	37.578	OK
11-12-2024	08:38:35.820	451.399	7.498	7.498	27.499	938	0	1.0909	OK	11-12-2024	08:38:35.820	451.399	37.578	OK
11-12-2024	08:38:35.920	451.499	7.497	7.497	27.495	938	0	1.0912	OK	11-12-2024	08:38:35.920	451.499	37.578	OK
11-12-2024	08:38:36.021	451.599	7.497	7.497	27.493	938	0	1.0913	OK	11-12-2024	08:38:36.021	451.599	37.578	OK
11-12-2024	08:38:36.120	451.699	7.496	7.496	27.492	938	0	1.0914	OK	11-12-2024	08:38:36.120	451.699	37.578	OK
11-12-2024	08:38:36.220	451.799	7.496	7.496	27.491	938	0	1.0914	OK	11-12-2024	08:38:36.220	451.799	37.578	OK
11-12-2024	08:38:36.390	451.969	7.497	7.497	27.493	938	0	1.0913	OK	11-12-2024	08:38:36.390	451.969	37.578	OK
11-12-2024	08:38:36.664	452.243	7.498	7.498	27.499	938	0	1.0909	OK	11-12-2024	08:38:36.664	452.243	37.577	OK
11-12-2024	08:38:36.820	452.399	7.498	7.498	27.502	938	0	1.0907	OK	11-12-2024	08:38:36.820	452.399	37.577	OK
11-12-2024	08:38:36.920	452.499	7.497	7.497	27.494	938	0	1.0912	OK	11-12-2024	08:38:36.920	452.499	37.576	OK
11-12-2024	08:38:37.022	452.601	7.497	7.497	27.493	938	0	1.0913	OK	11-12-2024	08:38:37.022	452.601	37.576	OK
11-12-2024	08:38:37.121	452.700	7.497	7.497	27.492	938	0	1.0914	OK	11-12-2024	08:38:37.121	452.700	37.575	OK
11-12-2024	08:38:37.321	452.900	7.497	7.497	27.496	938	0	1.0911	OK	11-12-2024	08:38:37.321	452.900	37.575	OK
11-12-2024	08:38:37.592	453.171	7.498	7.498	27.499	938	0	1.0909	OK	11-12-2024	08:38:37.592	453.171	37.574	OK
11-12-2024	08:38:37.721	453.300	7.498	7.498	27.501	938	0	1.0907	OK	11-12-2024	08:38:37.721	453.300	37.574	OK
11-12-2024	08:38:37.821	453.400	7.497	7.497	27.494	938	0	1.0912	OK	11-12-2024	08:38:37.821	453.400	37.574	OK
11-12-2024	08:38:37.921	453.500	7.497	7.497	27.493	938	0	1.0913	OK	11-12-2024	08:38:37.921	453.500	37.574	OK
11-12-2024	08:38:38.021	453.600	7.496	7.496	27.490	938	0	1.0915	OK	11-12-2024	08:38:38.021	453.600	37.574	OK
11-12-2024	08:38:38.121	453.700	7.497	7.497	27.493	938	0	1.0913	OK	11-12-2024	08:38:38.121	453.700	37.574	OK
11-12-2024	08:38:38.222	453.800	7.497	7.497	27.494	938	0	1.0912	OK	11-12-2024	08:38:38.222	453.800	37.574	OK
11-12-2024	08:38:38.390	453.969	7.497	7.497	27.495	938	0	1.0912	OK	11-12-2024	08:38:38.390	453.969	37.575	OK
11-12-2024	08:38:38.647	454.226	7.498	7.498	27.499	938	0	1.0909	OK	11-12-2024	08:38:38.647	454.226	37.576	OK
11-12-2024	08:38:38.821	454.400	7.498	7.498	27.504	938	0	1.0905	OK	11-12-2024	08:38:38.821	454.400	37.577	OK
11-12-2024	08:38:38.922	454.501	7.497	7.497	27.493	938	0	1.0913	OK	11-12-2024	08:38:38.922	454.501	37.577	OK
11-12-2024	08:38:39.020	454.599	7.497	7.497	27.497	938	0	1.0910	OK	11-12-2024	08:38:39.020	454.599	37.577	OK
11-12-2024	08:38:39.122	454.701	7.497	7.497	27.494	938	0	1.0912	OK	11-12-2024	08:38:39.122	454.701	37.576	OK
11-12-2024	08:38:39.221	454.800	7.497	7.497	27.495	938	0	1.0912	OK	11-12-2024	08:38:39.221	454.800	37.576	OK
11-12-2024	08:38:39.406	454.985	7.497	7.497	27.498	938	0	1.0910	OK	11-12-2024	08:38:39.406	454.985	37.576	OK
11-12-2024	08:38:39.663	455.241	7.498	7.498	27.500	938	0	1.0908	OK	11-12-2024	08:38:39.663	455.241	37.576	OK
11-12-2024	08:38:39.821	455.400	7.497	7.497	27.497	938	0	1.0910	OK	11-12-2024	08:38:39.821	455.400	37.577	OK
11-12-2024	08:38:39.921	455.500	7.497	7.497	27.496	938	0	1.0911	OK	11-12-2024	08:38:39.921	455.500	37.577	OK
11-12-2024	08:38:40.021	455.600	7.497	7.497	27.496	938	0	1.0911	OK	11-12-2024	08:38:40.021	455.600	37.577	OK
11-12-2024	08:38:40.120	455.699	7.497	7.497	27.492	938	0	1.0914	OK	11-12-2024	08:38:40.120	455.699	37.577	OK
11-12-2024	08:38:40.222	455.801	7.497	7.497	27.493	938	0	1.0913	OK	11-12-2024	08:38:40.222	455.801	37.578	OK
11-12-2024	08:38:40.393	455.972	7.497	7.497	27.493	938	0	1.0913	OK	11-12-2024	08:38:40.393	455.972	37.579	OK
11-12-2024	08:38:40.652	456.231	7.498	7.498	27.501	938	0	1.0907	OK	11-12-2024	08:38:40.652	456.231	37.579	OK
11-12-2024	08:38:40.823	456.402	7.497	7.497	27.496	938	0	1.0910	OK	11-12-2024	08:38:40.823	456.402	37.579	OK
11-12-2024	08:38:40.923	456.502	7.497	7.497	27.492	938	0	1.0913	OK	11-12-2024	08:38:40.923	456.502	37.579	OK
11-12-2024	08:38:41.022	456.601	7.497	7.497	27.494	938	0	1.0912	OK	11-12-2024	08:38:41.022	456.601	37.579	OK
11-12-2024	08:38:41.123	456.702	7.497	7.497	27.494	938	0	1.0912	OK	11-12-2024	08:38:41.123	456.702	37.579	OK
11-12-2024	08:38:41.225	456.803	7.496	7.496	27.491	938	0	1.0914	OK	11-12-2024	08:38:41.225	456.803	37.580	OK
11-12-2024	08:38:41.394	456.973	7.497	7.497	27.494	938	0	1.0912	OK	11-12-2024	08:38:41.394	456.973	37.581	OK
11-12-2024	08:38:41.651	457.230	7.498	7.498	27.499	938	0	1.0908	OK	11-12-2024	08:38:41.651	457.230	37.581	OK
11-12-2024	08:38:41.823	457.402	7.498	7.498	27.499	938	0	1.0908	OK	11-12-2024	08:38:41.823	457.402	37.580	OK
11-12-2024	08:38:41.923	457.502	7.496	7.496	27.491	938	0	1.0914	OK	11-12-2024	08:38:41.923	457.502	37.580	OK
11-12-2024	08:38:42.024	457.603	7.497	7.497	27.496	938	0	1.0910	OK	11-12-2024	08:38:42.024	457.603	37.581	OK
11-12-2024	08:38:42.124	457.703	7.497	7.497	27.492	938	0	1.0913	OK	11-12-2024	08:38:42.124	457.703	37.581	OK
11-12-2024	08:38:42.224	457.803	7.497	7.497	27.493	938	0	1.0913	OK	11-12-2024	08:38:42.224	457.803	37.581	OK
11-12-2024	08:38:42.392	457.971	7.497	7.497	27.495	938	0	1.0911	OK	11-12-2024	08:38:42.392	457.971	37.581	OK
11-12-2024	08:38:42.648	458.227	7.498	7.498	27.499	938	0	1.0908	OK	11-12-2024	08:38:42.648	458.227	37.583	OK
11-12-2024	08:38:42.825	458.404	7.497	7.497	27.498	938	0	1.0909	OK	11-12-2024	08:38:42.825	458.404	37.583	OK
11-12-2024	08:38:42.925	458.504	7.497	7.497	27.497	938	0	1.0910	OK	11-12-2024	08:38:42.925	458.504	37.583	OK
11-12-2024	08:38:43.025	458.604	7.497	7.497	27.492	938	0	1.0913	OK	11-12-2024	08:38:43.025	458.604	37.582	OK
11-12-2024	08:38:43.126	458.705	7.497	7.497	27.498	938	0	1.0909	OK	11-12-2024	08:38:43.126	458.705	37.582	OK
11-12-2024	08:38:43.224	458.803	7.497	7.497	27.494	938	0	1.0912	OK	11-12-2024	08:38:43.224	458.803	37.582	OK
11-12-2024	08:38:43.397	458.976	7.497	7.497	27.497	938	0	1.0910	OK	11-12-2024	08:38:43.397	458.976	37.582	OK
11-12-2024	08:38:43.652	459.231	7.498	7.498	27.499	938	0	1.0908	OK	11-12-2024	08:38:43.652	459.231	37.582	OK
11-12-2024	08:38:43.824	459.403	7.498	7.498	27.500	938	0	1.0908	OK	11-12-2024	08:38:43.824	459.403	37.582	OK
11-12-2024	08:38:43.925	459.504	7.498	7.498	27.500	938	0	1.0908	OK	11-12-2024	08:38:43.925	459.504	37.582	OK
11-12-2024	08:38:44.025	459.603	7.497	7.497	27.494	938	0	1.0912	OK	11-12-2024	08:38:44.025	459.603	37.583	OK
11-12-2024	08:38:44.125	459.704	7.497	7.497	27.494	938	0	1.0912	OK	11-12-2024	08:38:44.125	459.704	37.583	OK
11-12-2024	08:38:44.226	459.805	7.497	7.497	27.495	938	0	1.0911	OK	11-12-2024	08:38:44.226	459.805	37.583	OK
11-12-2024	08:38:44.396	459.975	7.498	7.498	27.502	938	0	1.0907	OK	11-12-2024	08:38:44.396	459.975	37.583	OK
11-12-2024	08:38:44.669	460.248	7.498	7.498	27.505	938	0	1.0905	OK	11-12-2024	08:38:44.669	460.248	37.583	OK
11-12-2024	08:38:44.825	460.404	7.498	7.498	27.504	938	0	1.0905	OK	11-12-2024	08:38:44.825	460.404	37.584	OK
11-12-2024	08:38:44.925	460.504	7.497	7.497	27.499	938	0	1.0909	OK	11-12-2024	08:38:44.925	460.504	37.584	OK
11-12-2024	08:38:45.025	460.604	7.497	7.497	27.497	938	0	1.0910	OK	11-12-2024	08:38:45.025	460.604	37.584	OK
11-12-2024	08:38:45.127	460.706	7.497	7.497	27.496	938	0	1.0911	OK	11-12-2024	08:38:45.127	460.706	37.584	OK
11-12-2024	08:38:45.225	460.804	7.497	7.497	27.493	938	0	1.0913	OK	11-12-2024	08:38:45.225	460.804	37.583	OK
11-12-2024	08:38:45.394	460.973	7.497	7.497	27.497	938	0	1.0910	OK	11-12-2024	08:38:45.394	460.973	37.583	OK
11-12-2024	08:38:45.647	461.226	7.498	7.498	27.502	938	0	1.0906	OK	11-12-2024	08:38:45.647	461.226	37.583	OK
11-12-2024	08:38:45.825	461.404	7.498	7.498	27.502	938	0	1.0906	OK	11-12-2024	08:38:45.825	461.404	37.583	OK
11-12-2024	08:38:45.926	461.505	7.497	7.497	27.496	938	0	1.0910	OK	11-12-2024	08:38:45.926	461.505	37.583	OK
11-12-2024	08:38:46.031	461.610	7.497	7.497	27.496	938	0	1.0910	OK	11-12-2024	08:38:46.031	461.610	37.582	OK
11-12-2024	08:38:46.132	461.711	7.497	7.497	27.493	938	0	1.0913	OK	11-12-2024	08:38:46.132	461.711	37.582	OK
11-12-2024	08:38:46.314	461.892	7.498	7.498	27.500	938	0	1.0908	OK	11-12-2024	08:38:46.314	461.892	37.583	OK
11-12-2024	08:38:46.583	462.162	7.498	7.498	27.501	938	0	1.0907	OK	11-12-2024	08:38:46.583	462.162	37.583	OK
11-12-2024	08:38:46.732	462.311	7.498	7.498	27.502	938	0	1.0907	OK	11-12-2024	08:38:46.732	462.311	37.583	OK
11-12-2024	08:38:46.832	462.410	7.497	7.497	27.496	938	0	1.0911	OK	11-12-2024	08:38:46.832	462.410	37.582	OK
11-12-2024	08:38:46.932	462.511	7.497	7.497	27.497	938	0	1.0910	OK	11-12-2024	08:38:46.932	462.511	37.582	OK
11-12-2024	08:38:47.032	462.611	7.497	7.497	27.496	938	0	1.0911	OK	11-12-2024	08:38:47.032	462.611	37.582	OK
11-12-2024	08:38:47.132	462.711	7.497	7.497	27.496	938	0	1.0911	OK	11-12-2024	08:38:47.132	462.711	37.582	OK
11-12-2024	08:38:47.313	462.892	7.497	7.497	27.497	938	0	1.0910	OK	11-12-2024	08:38:47.313	462.892	37.580	OK
11-12-2024	08:38:47.586	463.165	7.498	7.498	27.504	938	0	1.0905	OK	11-12-2024	08:38:47.586	463.165	37.581	OK
11-12-2024	08:38:47.732	463.311	7.498	7.498	27.500	938	0	1.0908	OK	11-12-2024	08:38:47.732	463.311	37.581	OK
11-12-2024	08:38:47.832	463.411	7.497	7.497	27.494	938	0	1.0912	OK	11-12-2024	08:38:47.832	463.411	37.581	OK
11-12-2024	08:38:47.933	463.512	7.496	7.496	27.491	938	0	1.0914	OK	11-12-2024	08:38:47.933	463.512	37.579	OK
11-12-2024	08:38:48.034	463.613	7.497	7.497	27.495	938	0	1.0911	OK	11-12-2024	08:38:48.034	463.613	37.579	OK
11-12-2024	08:38:48.134	463.713	7.496	7.496	27.491	938	0	1.0914	OK	11-12-2024	08:38:48.134	463.713	37.578	OK
11-12-2024	08:38:48.314	463.893	7.497	7.497	27.494	938	0	1.0912	OK	11-12-2024	08:38:48.314	463.893	37.577	OK
11-12-2024	08:38:48.567	464.146	7.498	7.498	27.501	938	0	1.0907	OK	11-12-2024	08:38:48.567	464.146	37.577	OK
11-12-2024	08:38:48.735	464.314	7.498	7.498	27.501	938	0	1.0907	OK	11-12-2024	08:38:48.735	464.314	37.576	OK
11-12-2024	08:38:48.835	464.414	7.497	7.497	27.496	938	0	1.0910	OK	11-12-2024	08:38:48.835	464.414	37.576	OK
11-12-2024	08:38:48.936	464.514	7.497	7.497	27.496	938	0	1.0910	OK	11-12-2024	08:38:48.936	464.514	37.575	OK
11-12-2024	08:38:49.035	464.614	7.496	7.496	27.490	938	0	1.0915	OK	11-12-2024	08:38:49.035	464.614	37.575	OK
11-12-2024	08:38:49.135	464.714	7.496	7.496	27.489	938	0	1.0915	OK	11-12-2024	08:38:49.135	464.714	37.575	OK
11-12-2024	08:38:49.315	464.894	7.496	7.496	27.491	938	0	1.0914	OK	11-12-2024	08:38:49.315	464.894	37.576	OK
11-12-2024	08:38:49.569	465.148	7.498	7.498	27.499	938	0	1.0908	OK	11-12-2024	08:38:49.569	465.148	37.576	OK
11-12-2024	08:38:49.735	465.314	7.498	7.498	27.502	938	0	1.0906	OK	11-12-2024	08:38:49.735	465.314	37.575	OK
11-12-2024	08:38:49.935	465.514	7.498	7.498	27.500	938	0	1.0908	OK	11-12-2024	08:38:49.935	465.514	37.575	OK
11-12-2024	08:38:50.034	465.613	7.497	7.497	27.496	938	0	1.0910	OK	11-12-2024	08:38:50.034	465.613	37.575	OK
11-12-2024	08:38:50.135	465.714	7.497	7.497	27.495	938	0	1.0911	OK	11-12-2024	08:38:50.135	465.714	37.575	OK
11-12-2024	08:38:50.316	465.895	7.498	7.498	27.500	938	0	1.0908	OK	11-12-2024	08:38:50.316	465.895	37.575	OK
11-12-2024	08:38:50.572	466.151	7.498	7.498	27.500	938	0	1.0908	OK	11-12-2024	08:38:50.572	466.151	37.577	OK
11-12-2024	08:38:50.737	466.316	7.497	7.497	27.498	938	0	1.0910	OK	11-12-2024	08:38:50.737	466.316	37.577	OK
11-12-2024	08:38:50.837	466.416	7.497	7.497	27.494	938	0	1.0912	OK	11-12-2024	08:38:50.837	466.416	37.577	OK
11-12-2024	08:38:50.937	466.516	7.497	7.497	27.497	938	0	1.0910	OK	11-12-2024	08:38:50.937	466.516	37.576	OK
11-12-2024	08:38:51.036	466.615	7.498	7.498	27.499	938	0	1.0909	OK	11-12-2024	08:38:51.036	466.615	37.576	OK
11-12-2024	08:38:51.138	466.716	7.497	7.497	27.492	938	0	1.0914	OK	11-12-2024	08:38:51.138	466.716	37.575	OK
11-12-2024	08:38:51.313	466.892	7.497	7.497	27.496	938	0	1.0911	OK	11-12-2024	08:38:51.313	466.892	37.575	OK
11-12-2024	08:38:51.569	467.148	7.497	7.497	27.496	938	0	1.0910	OK	11-12-2024	08:38:51.569	467.148	37.576	OK
11-12-2024	08:38:51.737	467.316	7.498	7.498	27.502	938	0	1.0906	OK	11-12-2024	08:38:51.737	467.316	37.576	OK
11-12-2024	08:38:51.836	467.415	7.497	7.497	27.496	938	0	1.0910	OK	11-12-2024	08:38:51.836	467.415	37.576	OK
11-12-2024	08:38:51.937	467.516	7.497	7.497	27.496	938	0	1.0910	OK	11-12-2024	08:38:51.937	467.516	37.577	OK
11-12-2024	08:38:52.036	467.615	7.497	7.497	27.493	938	0	1.0913	OK	11-12-2024	08:38:52.036	467.615	37.577	OK
11-12-2024	08:38:52.136	467.715	7.497	7.497	27.492	938	0	1.0913	OK	11-12-2024	08:38:52.136	467.715	37.576	OK
11-12-2024	08:38:52.315	467.894	7.498	7.498	27.499	938	0	1.0908	OK	11-12-2024	08:38:52.315	467.894	37.575	OK
11-12-2024	08:38:52.587	468.166	7.498	7.498	27.500	938	0	1.0908	OK	11-12-2024	08:38:52.587	468.166	37.575	OK
11-12-2024	08:38:52.737	468.315	7.498	7.498	27.499	938	0	1.0908	OK	11-12-2024	08:38:52.737	468.315	37.574	OK
11-12-2024	08:38:52.838	468.417	7.498	7.498	27.499	938	0	1.0908	OK	11-12-2024	08:38:52.838	468.417	37.574	OK
11-12-2024	08:38:52.939	468.517	7.497	7.497	27.495	938	0	1.0911	OK	11-12-2024	08:38:52.939	468.517	37.573	OK
11-12-2024	08:38:53.040	468.619	7.497	7.497	27.496	938	0	1.0910	OK	11-12-2024	08:38:53.040	468.619	37.573	OK
11-12-2024	08:38:53.139	468.718	7.497	7.497	27.496	938	0	1.0910	OK	11-12-2024	08:38:53.139	468.718	37.573	OK
11-12-2024	08:38:53.315	468.894	7.497	7.497	27.496	938	0	1.0910	OK	11-12-2024	08:38:53.315	468.894	37.573	OK
11-12-2024	08:38:53.585	469.164	7.498	7.498	27.503	938	0	1.0906	OK	11-12-2024	08:38:53.585	469.164	37.571	OK
11-12-2024	08:38:53.741	469.320	7.498	7.498	27.501	938	0	1.0907	OK	11-12-2024	08:38:53.741	469.320	37.570	OK
11-12-2024	08:38:53.841	469.420	7.497	7.497	27.495	938	0	1.0912	OK	11-12-2024	08:38:53.841	469.420	37.570	OK
11-12-2024	08:38:53.941	469.520	7.497	7.497	27.497	938	0	1.0910	OK	11-12-2024	08:38:53.941	469.520	37.571	OK
11-12-2024	08:38:54.042	469.621	7.497	7.497	27.495	938	0	1.0912	OK	11-12-2024	08:38:54.042	469.621	37.571	OK
11-12-2024	08:38:54.145	469.724	7.497	7.497	27.494	938	0	1.0912	OK	11-12-2024	08:38:54.145	469.724	37.570	OK
11-12-2024	08:38:54.331	469.910	7.498	7.498	27.498	938	0	1.0910	OK	11-12-2024	08:38:54.331	469.910	37.570	OK
11-12-2024	08:38:54.621	470.200	7.499	7.499	27.505	938	0	1.0904	OK	11-12-2024	08:38:54.621	470.200	37.570	OK
11-12-2024	08:38:54.741	470.320	7.498	7.498	27.502	938	0	1.0906	OK	11-12-2024	08:38:54.741	470.320	37.570	OK
11-12-2024	08:38:54.841	470.420	7.498	7.498	27.499	938	0	1.0908	OK	11-12-2024	08:38:54.841	470.420	37.570	OK
11-12-2024	08:38:54.942	470.521	7.497	7.497	27.495	938	0	1.0911	OK	11-12-2024	08:38:54.942	470.521	37.570	OK
11-12-2024	08:38:55.042	470.620	7.497	7.497	27.495	938	0	1.0911	OK	11-12-2024	08:38:55.042	470.620	37.570	OK
11-12-2024	08:38:55.142	470.720	7.497	7.497	27.493	938	0	1.0913	OK	11-12-2024	08:38:55.142	470.720	37.570	OK
11-12-2024	08:38:55.316	470.895	7.498	7.498	27.500	938	0	1.0908	OK	11-12-2024	08:38:55.316	470.895	37.570	OK
11-12-2024	08:38:55.571	471.150	7.498	7.498	27.499	938	0	1.0908	OK	11-12-2024	08:38:55.571	471.150	37.570	OK
11-12-2024	08:38:55.744	471.323	7.498	7.498	27.500	938	0	1.0908	OK	11-12-2024	08:38:55.744	471.323	37.570	OK
11-12-2024	08:38:55.844	471.423	7.497	7.497	27.496	938	0	1.0910	OK	11-12-2024	08:38:55.844	471.423	37.570	OK
11-12-2024	08:38:55.945	471.524	7.497	7.497	27.497	938	0	1.0910	OK	11-12-2024	08:38:55.945	471.524	37.570	OK
11-12-2024	08:38:56.056	471.635	7.497	7.497	27.496	938	0	1.0910	OK	11-12-2024	08:38:56.056	471.635	37.572	OK
11-12-2024	08:38:56.147	471.726	7.497	7.497	27.496	938	0	1.0910	OK	11-12-2024	08:38:56.147	471.726	37.572	OK
11-12-2024	08:38:56.316	471.895	7.498	7.498	27.500	938	0	1.0908	OK	11-12-2024	08:38:56.316	471.895	37.572	OK
11-12-2024	08:38:56.570	472.149	7.498	7.498	27.502	938	0	1.0906	OK	11-12-2024	08:38:56.570	472.149	37.574	OK
11-12-2024	08:38:56.748	472.327	7.498	7.498	27.500	938	0	1.0908	OK	11-12-2024	08:38:56.748	472.327	37.574	OK
11-12-2024	08:38:56.848	472.427	7.497	7.497	27.497	938	0	1.0910	OK	11-12-2024	08:38:56.848	472.427	37.575	OK
11-12-2024	08:38:56.948	472.527	7.497	7.497	27.497	938	0	1.0910	OK	11-12-2024	08:38:56.948	472.527	37.575	OK
11-12-2024	08:38:57.057	472.636	7.497	7.497	27.491	938	0	1.0914	OK	11-12-2024	08:38:57.057	472.636	37.574	OK
11-12-2024	08:38:57.147	472.726	7.496	7.496	27.490	938	0	1.0915	OK	11-12-2024	08:38:57.147	472.726	37.574	OK
11-12-2024	08:38:57.320	472.899	7.497	7.497	27.495	938	0	1.0911	OK	11-12-2024	08:38:57.320	472.899	37.575	OK
11-12-2024	08:38:57.591	473.170	7.498	7.498	27.501	938	0	1.0907	OK	11-12-2024	08:38:57.591	473.170	37.577	OK
11-12-2024	08:38:57.749	473.328	7.497	7.497	27.498	938	0	1.0910	OK	11-12-2024	08:38:57.749	473.328	37.577	OK
11-12-2024	08:38:57.849	473.427	7.497	7.497	27.495	938	0	1.0912	OK	11-12-2024	08:38:57.849	473.427	37.578	OK
11-12-2024	08:38:57.949	473.528	7.497	7.497	27.494	938	0	1.0912	OK	11-12-2024	08:38:57.949	473.528	37.578	OK
11-12-2024	08:38:58.057	473.636	7.497	7.497	27.494	938	0	1.0912	OK	11-12-2024	08:38:58.057	473.636	37.577	OK
11-12-2024	08:38:58.149	473.728	7.496	7.496	27.491	938	0	1.0914	OK	11-12-2024	08:38:58.149	473.728	37.577	OK
11-12-2024	08:38:58.318	473.897	7.497	7.497	27.498	938	0	1.0910	OK	11-12-2024	08:38:58.318	473.897	37.577	OK
11-12-2024	08:38:58.591	474.170	7.498	7.498	27.501	938	0	1.0907	OK	11-12-2024	08:38:58.591	474.170	37.579	OK
11-12-2024	08:38:58.750	474.329	7.498	7.498	27.500	938	0	1.0908	OK	11-12-2024	08:38:58.750	474.329	37.579	OK
11-12-2024	08:38:58.850	474.429	7.497	7.497	27.496	938	0	1.0910	OK	11-12-2024	08:38:58.850	474.429	37.579	OK
11-12-2024	08:38:58.952	474.531	7.497	7.497	27.492	938	0	1.0913	OK	11-12-2024	08:38:58.952	474.531	37.579	OK
11-12-2024	08:38:59.056	474.635	7.497	7.497	27.495	938	0	1.0911	OK	11-12-2024	08:38:59.056	474.635	37.580	OK
11-12-2024	08:38:59.154	474.733	7.497	7.497	27.494	938	0	1.0912	OK	11-12-2024	08:38:59.154	474.733	37.580	OK
11-12-2024	08:38:59.323	474.902	7.498	7.498	27.499	938	0	1.0908	OK	11-12-2024	08:38:59.323	474.902	37.579	OK
11-12-2024	08:38:59.579	475.158	7.498	7.498	27.499	938	0	1.0908	OK	11-12-2024	08:38:59.579	475.158	37.579	OK
11-12-2024	08:38:59.755	475.334	7.498	7.498	27.499	938	0	1.0908	OK	11-12-2024	08:38:59.755	475.334	37.580	OK
11-12-2024	08:38:59.855	475.434	7.498	7.498	27.502	938	0	1.0906	OK	11-12-2024	08:38:59.855	475.434	37.580	OK
11-12-2024	08:38:59.955	475.534	7.497	7.497	27.496	938	0	1.0910	OK	11-12-2024	08:38:59.955	475.534	37.580	OK
11-12-2024	08:39:00.056	475.635	7.497	7.497	27.497	938	0	1.0909	OK	11-12-2024	08:39:00.056	475.635	37.579	OK
11-12-2024	08:39:00.316	475.895	7.498	7.498	27.501	938	0	1.0906	OK	11-12-2024	08:39:00.316	475.895	37.579	OK
11-12-2024	08:39:00.594	476.173	7.498	7.498	27.504	938	0	1.0904	OK	11-12-2024	08:39:00.594	476.173	37.578	OK
11-12-2024	08:39:00.755	476.334	7.498	7.498	27.501	938	0	1.0907	OK	11-12-2024	08:39:00.755	476.334	37.578	OK
11-12-2024	08:39:00.856	476.435	7.497	7.497	27.494	938	0	1.0912	OK	11-12-2024	08:39:00.856	476.435	37.577	OK
11-12-2024	08:39:00.957	476.536	7.497	7.497	27.496	938	0	1.0910	OK	11-12-2024	08:39:00.957	476.536	37.577	OK
11-12-2024	08:39:01.058	476.637	7.497	7.497	27.492	938	0	1.0913	OK	11-12-2024	08:39:01.058	476.637	37.576	OK
11-12-2024	08:39:01.319	476.898	7.498	7.498	27.501	938	0	1.0907	OK	11-12-2024	08:39:01.319	476.898	37.576	OK
11-12-2024	08:39:01.578	477.157	7.498	7.498	27.504	938	0	1.0905	OK	11-12-2024	08:39:01.578	477.157	37.576	OK
11-12-2024	08:39:01.759	477.338	7.498	7.498	27.502	938	0	1.0906	OK	11-12-2024	08:39:01.759	477.338	37.576	OK
11-12-2024	08:39:01.860	477.438	7.498	7.498	27.498	938	0	1.0909	OK	11-12-2024	08:39:01.860	477.438	37.575	OK
11-12-2024	08:39:02.060	477.639	7.498	7.498	27.499	938	0	1.0908	OK	11-12-2024	08:39:02.060	477.639	37.576	OK
11-12-2024	08:39:02.158	477.737	7.498	7.498	27.499	938	0	1.0908	OK	11-12-2024	08:39:02.158	477.737	37.576	OK
11-12-2024	08:39:02.330	477.908	7.498	7.498	27.500	938	0	1.0908	OK	11-12-2024	08:39:02.330	477.908	37.576	OK
11-12-2024	08:39:02.600	478.179	7.498	7.498	27.499	938	0	1.0908	OK	11-12-2024	08:39:02.600	478.179	37.576	OK
11-12-2024	08:39:02.763	478.342	7.498	7.498	27.500	938	0	1.0908	OK	11-12-2024	08:39:02.763	478.342	37.576	OK
11-12-2024	08:39:02.868	478.447	7.498	7.498	27.500	938	0	1.0908	OK	11-12-2024	08:39:02.868	478.447	37.575	OK
11-12-2024	08:39:02.968	478.547	7.497	7.497	27.496	938	0	1.0910	OK	11-12-2024	08:39:02.968	478.547	37.575	OK
11-12-2024	08:39:03.071	478.650	7.497	7.497	27.493	938	0	1.0913	OK	11-12-2024	08:39:03.071	478.650	37.576	OK
11-12-2024	08:39:03.168	478.747	7.497	7.497	27.493	938	0	1.0913	OK	11-12-2024	08:39:03.168	478.747	37.576	OK
11-12-2024	08:39:03.356	478.935	7.498	7.498	27.501	938	0	1.0907	OK	11-12-2024	08:39:03.356	478.935	37.575	OK
11-12-2024	08:39:03.612	479.191	7.499	7.499	27.509	938	0	1.0901	OK	11-12-2024	08:39:03.612	479.191	37.575	OK
11-12-2024	08:39:03.770	479.349	7.498	7.498	27.503	938	0	1.0906	OK	11-12-2024	08:39:03.770	479.349	37.576	OK
11-12-2024	08:39:03.870	479.449	7.497	7.497	27.497	938	0	1.0910	OK	11-12-2024	08:39:03.870	479.449	37.577	OK
11-12-2024	08:39:03.970	479.549	7.497	7.497	27.498	938	0	1.0910	OK	11-12-2024	08:39:03.970	479.549	37.577	OK
11-12-2024	08:39:04.070	479.649	7.497	7.497	27.497	938	0	1.0910	OK	11-12-2024	08:39:04.070	479.649	37.576	OK
11-12-2024	08:39:04.170	479.749	7.497	7.497	27.498	938	0	1.0910	OK	11-12-2024	08:39:04.170	479.749	37.576	OK
11-12-2024	08:39:04.343	479.922	7.498	7.498	27.502	938	0	1.0907	OK	11-12-2024	08:39:04.343	479.922	37.578	OK
11-12-2024	08:39:04.599	480.178	7.498	7.498	27.504	938	0	1.0905	OK	11-12-2024	08:39:04.599	480.178	37.578	OK
11-12-2024	08:39:04.770	480.349	7.497	7.497	27.498	938	0	1.0909	OK	11-12-2024	08:39:04.770	480.349	37.578	OK
11-12-2024	08:39:04.870	480.449	7.497	7.497	27.493	938	0	1.0913	OK	11-12-2024	08:39:04.870	480.449	37.578	OK
11-12-2024	08:39:04.970	480.549	7.497	7.497	27.494	938	0	1.0912	OK	11-12-2024	08:39:04.970	480.549	37.579	OK
11-12-2024	08:39:05.071	480.650	7.497	7.497	27.493	938	0	1.0913	OK	11-12-2024	08:39:05.071	480.650	37.579	OK
11-12-2024	08:39:05.171	480.750	7.497	7.497	27.497	938	0	1.0910	OK	11-12-2024	08:39:05.171	480.750	37.579	OK
11-12-2024	08:39:05.343	480.922	7.497	7.497	27.498	938	0	1.0909	OK	11-12-2024	08:39:05.343	480.922	37.579	OK
11-12-2024	08:39:05.601	481.180	7.498	7.498	27.504	938	0	1.0905	OK	11-12-2024	08:39:05.601	481.180	37.578	OK
11-12-2024	08:39:05.773	481.352	7.498	7.498	27.501	938	0	1.0907	OK	11-12-2024	08:39:05.773	481.352	37.578	OK
11-12-2024	08:39:05.873	481.452	7.497	7.497	27.498	938	0	1.0909	OK	11-12-2024	08:39:05.873	481.452	37.578	OK
11-12-2024	08:39:05.974	481.553	7.497	7.497	27.497	938	0	1.0910	OK	11-12-2024	08:39:05.974	481.553	37.577	OK
11-12-2024	08:39:06.074	481.653	7.497	7.497	27.493	938	0	1.0913	OK	11-12-2024	08:39:06.074	481.653	37.577	OK
11-12-2024	08:39:06.174	481.753	7.497	7.497	27.492	938	0	1.0913	OK	11-12-2024	08:39:06.174	481.753	37.576	OK
11-12-2024	08:39:06.347	481.925	7.498	7.498	27.499	938	0	1.0908	OK	11-12-2024	08:39:06.347	481.925	37.576	OK
11-12-2024	08:39:06.617	482.196	7.498	7.498	27.500	938	0	1.0908	OK	11-12-2024	08:39:06.617	482.196	37.577	OK
11-12-2024	08:39:06.773	482.352	7.497	7.497	27.497	938	0	1.0910	OK	11-12-2024	08:39:06.773	482.352	37.577	OK
11-12-2024	08:39:06.875	482.454	7.497	7.497	27.493	938	0	1.0913	OK	11-12-2024	08:39:06.875	482.454	37.577	OK
11-12-2024	08:39:06.974	482.553	7.496	7.496	27.490	938	0	1.0915	OK	11-12-2024	08:39:06.974	482.553	37.577	OK
11-12-2024	08:39:07.075	482.654	7.497	7.497	27.493	938	0	1.0913	OK	11-12-2024	08:39:07.075	482.654	37.577	OK
11-12-2024	08:39:07.174	482.753	7.497	7.497	27.492	938	0	1.0913	OK	11-12-2024	08:39:07.174	482.753	37.577	OK
11-12-2024	08:39:07.344	482.922	7.497	7.497	27.497	938	0	1.0910	OK	11-12-2024	08:39:07.344	482.922	37.576	OK
11-12-2024	08:39:07.601	483.180	7.497	7.497	27.495	938	0	1.0911	OK	11-12-2024	08:39:07.601	483.180	37.575	OK
11-12-2024	08:39:07.775	483.354	7.498	7.498	27.499	938	0	1.0908	OK	11-12-2024	08:39:07.775	483.354	37.575	OK
11-12-2024	08:39:07.876	483.455	7.497	7.497	27.496	938	0	1.0910	OK	11-12-2024	08:39:07.876	483.455	37.575	OK
11-12-2024	08:39:07.975	483.554	7.497	7.497	27.495	938	0	1.0911	OK	11-12-2024	08:39:07.975	483.554	37.575	OK
11-12-2024	08:39:08.075	483.654	7.497	7.497	27.491	938	0	1.0914	OK	11-12-2024	08:39:08.075	483.654	37.575	OK
11-12-2024	08:39:08.176	483.755	7.497	7.497	27.493	938	0	1.0913	OK	11-12-2024	08:39:08.176	483.755	37.575	OK
11-12-2024	08:39:08.346	483.925	7.497	7.497	27.495	938	0	1.0911	OK	11-12-2024	08:39:08.346	483.925	37.574	OK
11-12-2024	08:39:08.619	484.198	7.498	7.498	27.498	938	0	1.0909	OK	11-12-2024	08:39:08.619	484.198	37.574	OK
11-12-2024	08:39:08.779	484.358	7.498	7.498	27.502	938	0	1.0906	OK	11-12-2024	08:39:08.779	484.358	37.574	OK
11-12-2024	08:39:08.880	484.458	7.497	7.497	27.497	938	0	1.0910	OK	11-12-2024	08:39:08.880	484.458	37.574	OK
11-12-2024	08:39:08.980	484.559	7.497	7.497	27.496	938	0	1.0910	OK	11-12-2024	08:39:08.980	484.559	37.574	OK
11-12-2024	08:39:09.079	484.658	7.497	7.497	27.493	938	0	1.0913	OK	11-12-2024	08:39:09.079	484.658	37.574	OK
11-12-2024	08:39:09.319	484.898	7.498	7.498	27.501	938	0	1.0907	OK	11-12-2024	08:39:09.319	484.898	37.574	OK
11-12-2024	08:39:09.573	485.152	7.498	7.498	27.503	938	0	1.0906	OK	11-12-2024	08:39:09.573	485.152	37.575	OK
11-12-2024	08:39:09.681	485.260	7.497	7.497	27.497	938	0	1.0910	OK	11-12-2024	08:39:09.681	485.260	37.575	OK
11-12-2024	08:39:09.781	485.360	7.497	7.497	27.495	938	0	1.0911	OK	11-12-2024	08:39:09.781	485.360	37.575	OK
11-12-2024	08:39:09.880	485.459	7.497	7.497	27.494	938	0	1.0912	OK	11-12-2024	08:39:09.880	485.459	37.575	OK
11-12-2024	08:39:09.981	485.560	7.498	7.498	27.499	938	0	1.0908	OK	11-12-2024	08:39:09.981	485.560	37.575	OK
11-12-2024	08:39:10.081	485.660	7.498	7.498	27.498	938	0	1.0909	OK	11-12-2024	08:39:10.081	485.660	37.575	OK
11-12-2024	08:39:10.182	485.761	7.497	7.497	27.493	938	0	1.0913	OK	11-12-2024	08:39:10.182	485.761	37.574	OK
11-12-2024	08:39:10.351	485.930	7.497	7.497	27.497	938	0	1.0910	OK	11-12-2024	08:39:10.351	485.930	37.574	OK
11-12-2024	08:39:10.607	486.186	7.498	7.498	27.500	938	0	1.0908	OK	11-12-2024	08:39:10.607	486.186	37.574	OK
11-12-2024	08:39:10.783	486.362	7.498	7.498	27.500	938	0	1.0908	OK	11-12-2024	08:39:10.783	486.362	37.574	OK
11-12-2024	08:39:10.883	486.461	7.498	7.498	27.497	938	0	1.0909	OK	11-12-2024	08:39:10.883	486.461	37.574	OK
11-12-2024	08:39:10.983	486.562	7.497	7.497	27.491	938	0	1.0913	OK	11-12-2024	08:39:10.983	486.562	37.574	OK
11-12-2024	08:39:11.084	486.663	7.497	7.497	27.495	938	0	1.0911	OK	11-12-2024	08:39:11.084	486.663	37.574	OK
11-12-2024	08:39:11.185	486.763	7.497	7.497	27.492	938	0	1.0913	OK	11-12-2024	08:39:11.185	486.763	37.573	OK
11-12-2024	08:39:11.371	486.950	7.497	7.497	27.493	938	0	1.0912	OK	11-12-2024	08:39:11.371	486.950	37.572	OK
11-12-2024	08:39:11.641	487.220	7.498	7.498	27.501	938	0	1.0906	OK	11-12-2024	08:39:11.641	487.220	37.572	OK
11-12-2024	08:39:11.786	487.365	7.498	7.498	27.499	938	0	1.0908	OK	11-12-2024	08:39:11.786	487.365	37.572	OK
11-12-2024	08:39:11.886	487.465	7.498	7.498	27.497	938	0	1.0909	OK	11-12-2024	08:39:11.886	487.465	37.572	OK
11-12-2024	08:39:11.986	487.565	7.497	7.497	27.495	938	0	1.0911	OK	11-12-2024	08:39:11.986	487.565	37.572	OK
11-12-2024	08:39:12.087	487.666	7.497	7.497	27.491	938	0	1.0913	OK	11-12-2024	08:39:12.087	487.666	37.572	OK
11-12-2024	08:39:12.187	487.766	7.497	7.497	27.490	938	0	1.0914	OK	11-12-2024	08:39:12.187	487.766	37.572	OK
11-12-2024	08:39:12.359	487.938	7.498	7.498	27.498	938	0	1.0909	OK	11-12-2024	08:39:12.359	487.938	37.572	OK
11-12-2024	08:39:12.612	488.191	7.498	7.498	27.502	938	0	1.0906	OK	11-12-2024	08:39:12.612	488.191	37.572	OK
11-12-2024	08:39:12.791	488.370	7.498	7.498	27.501	938	0	1.0906	OK	11-12-2024	08:39:12.791	488.370	37.571	OK
11-12-2024	08:39:12.890	488.469	7.498	7.498	27.497	938	0	1.0909	OK	11-12-2024	08:39:12.890	488.469	37.571	OK
11-12-2024	08:39:13.000	488.579	7.497	7.497	27.495	938	0	1.0911	OK	11-12-2024	08:39:13.000	488.579	37.570	OK
11-12-2024	08:39:13.099	488.678	7.497	7.497	27.494	938	0	1.0911	OK	11-12-2024	08:39:13.099	488.678	37.570	OK
11-12-2024	08:39:13.192	488.771	7.497	7.497	27.494	938	0	1.0911	OK	11-12-2024	08:39:13.192	488.771	37.570	OK
11-12-2024	08:39:13.364	488.943	7.497	7.497	27.496	938	0	1.0910	OK	11-12-2024	08:39:13.364	488.943	37.570	OK
11-12-2024	08:39:13.627	489.206	7.498	7.498	27.500	938	0	1.0907	OK	11-12-2024	08:39:13.627	489.206	37.570	OK
11-12-2024	08:39:13.795	489.374	7.498	7.498	27.498	938	0	1.0909	OK	11-12-2024	08:39:13.795	489.374	37.570	OK
11-12-2024	08:39:13.895	489.474	7.498	7.498	27.497	938	0	1.0909	OK	11-12-2024	08:39:13.895	489.474	37.570	OK
11-12-2024	08:39:13.995	489.574	7.497	7.497	27.496	938	0	1.0910	OK	11-12-2024	08:39:13.995	489.574	37.570	OK
11-12-2024	08:39:14.095	489.674	7.498	7.498	27.497	938	0	1.0909	OK	11-12-2024	08:39:14.095	489.674	37.571	OK
11-12-2024	08:39:14.195	489.774	7.497	7.497	27.493	938	0	1.0912	OK	11-12-2024	08:39:14.195	489.774	37.571	OK
11-12-2024	08:39:14.363	489.942	7.497	7.497	27.495	938	0	1.0911	OK	11-12-2024	08:39:14.363	489.942	37.571	OK
11-12-2024	08:39:14.634	490.213	7.498	7.498	27.503	938	0	1.0905	OK	11-12-2024	08:39:14.634	490.213	37.573	OK
11-12-2024	08:39:14.797	490.376	7.498	7.498	27.500	938	0	1.0907	OK	11-12-2024	08:39:14.797	490.376	37.573	OK
11-12-2024	08:39:14.897	490.476	7.497	7.497	27.495	938	0	1.0911	OK	11-12-2024	08:39:14.897	490.476	37.573	OK
11-12-2024	08:39:14.997	490.576	7.497	7.497	27.495	938	0	1.0911	OK	11-12-2024	08:39:14.997	490.576	37.573	OK
11-12-2024	08:39:15.097	490.676	7.497	7.497	27.493	938	0	1.0912	OK	11-12-2024	08:39:15.097	490.676	37.573	OK
11-12-2024	08:39:15.197	490.776	7.497	7.497	27.495	938	0	1.0911	OK	11-12-2024	08:39:15.197	490.776	37.573	OK
11-12-2024	08:39:15.366	490.945	7.497	7.497	27.496	938	0	1.0910	OK	11-12-2024	08:39:15.366	490.945	37.573	OK
11-12-2024	08:39:15.625	491.204	7.498	7.498	27.499	938	0	1.0908	OK	11-12-2024	08:39:15.625	491.204	37.573	OK
11-12-2024	08:39:15.802	491.381	7.498	7.498	27.499	938	0	1.0908	OK	11-12-2024	08:39:15.802	491.381	37.574	OK
11-12-2024	08:39:15.897	491.476	7.497	7.497	27.495	938	0	1.0911	OK	11-12-2024	08:39:15.897	491.476	37.574	OK
11-12-2024	08:39:15.998	491.577	7.498	7.498	27.497	938	0	1.0909	OK	11-12-2024	08:39:15.998	491.577	37.574	OK
11-12-2024	08:39:16.103	491.682	7.497	7.497	27.493	938	0	1.0912	OK	11-12-2024	08:39:16.103	491.682	37.575	OK
11-12-2024	08:39:16.320	491.899	7.497	7.497	27.495	938	0	1.0911	OK	11-12-2024	08:39:16.320	491.899	37.575	OK
11-12-2024	08:39:16.574	492.152	7.498	7.498	27.500	938	0	1.0907	OK	11-12-2024	08:39:16.574	492.152	37.576	OK
11-12-2024	08:39:16.700	492.279	7.497	7.497	27.495	938	0	1.0911	OK	11-12-2024	08:39:16.700	492.279	37.577	OK
11-12-2024	08:39:16.800	492.379	7.497	7.497	27.496	938	0	1.0910	OK	11-12-2024	08:39:16.800	492.379	37.577	OK
11-12-2024	08:39:16.899	492.478	7.497	7.497	27.494	938	0	1.0911	OK	11-12-2024	08:39:16.899	492.478	37.578	OK
11-12-2024	08:39:17.000	492.578	7.497	7.497	27.493	938	0	1.0912	OK	11-12-2024	08:39:17.000	492.578	37.578	OK
11-12-2024	08:39:17.100	492.679	7.496	7.496	27.489	938	0	1.0915	OK	11-12-2024	08:39:17.100	492.679	37.577	OK
11-12-2024	08:39:17.199	492.778	7.497	7.497	27.493	938	0	1.0912	OK	11-12-2024	08:39:17.199	492.778	37.577	OK
11-12-2024	08:39:17.370	492.949	7.497	7.497	27.496	938	0	1.0910	OK	11-12-2024	08:39:17.370	492.949	37.577	OK
11-12-2024	08:39:17.640	493.219	7.498	7.498	27.503	938	0	1.0905	OK	11-12-2024	08:39:17.640	493.219	37.577	OK
11-12-2024	08:39:17.799	493.378	7.498	7.498	27.504	938	0	1.0904	OK	11-12-2024	08:39:17.799	493.378	37.576	OK
11-12-2024	08:39:17.900	493.479	7.497	7.497	27.497	938	0	1.0909	OK	11-12-2024	08:39:17.900	493.479	37.577	OK
11-12-2024	08:39:17.999	493.578	7.497	7.497	27.495	938	0	1.0911	OK	11-12-2024	08:39:17.999	493.578	37.577	OK
11-12-2024	08:39:18.100	493.678	7.497	7.497	27.497	938	0	1.0909	OK	11-12-2024	08:39:18.100	493.678	37.577	OK
11-12-2024	08:39:18.200	493.779	7.497	7.497	27.495	938	0	1.0911	OK	11-12-2024	08:39:18.200	493.779	37.577	OK
11-12-2024	08:39:18.372	493.951	7.497	7.497	27.496	938	0	1.0910	OK	11-12-2024	08:39:18.372	493.951	37.576	OK
11-12-2024	08:39:18.625	494.203	7.498	7.498	27.499	938	0	1.0908	OK	11-12-2024	08:39:18.625	494.203	37.577	OK
11-12-2024	08:39:18.802	494.381	7.498	7.498	27.504	938	0	1.0904	OK	11-12-2024	08:39:18.802	494.381	37.577	OK
11-12-2024	08:39:18.902	494.481	7.498	7.498	27.498	938	0	1.0909	OK	11-12-2024	08:39:18.902	494.481	37.577	OK
11-12-2024	08:39:19.002	494.581	7.497	7.497	27.497	938	0	1.0910	OK	11-12-2024	08:39:19.002	494.581	37.577	OK
11-12-2024	08:39:19.101	494.680	7.497	7.497	27.494	938	0	1.0912	OK	11-12-2024	08:39:19.101	494.680	37.577	OK
11-12-2024	08:39:19.202	494.781	7.497	7.497	27.495	938	0	1.0911	OK	11-12-2024	08:39:19.202	494.781	37.577	OK
11-12-2024	08:39:19.375	494.954	7.497	7.497	27.496	938	0	1.0910	OK	11-12-2024	08:39:19.375	494.954	37.577	OK
11-12-2024	08:39:19.633	495.212	7.498	7.498	27.501	938	0	1.0907	OK	11-12-2024	08:39:19.633	495.212	37.577	OK
11-12-2024	08:39:19.803	495.382	7.499	7.499	27.505	938	0	1.0904	OK	11-12-2024	08:39:19.803	495.382	37.577	OK
11-12-2024	08:39:19.903	495.482	7.498	7.498	27.500	938	0	1.0908	OK	11-12-2024	08:39:19.903	495.482	37.576	OK
11-12-2024	08:39:20.002	495.581	7.498	7.498	27.498	938	0	1.0909	OK	11-12-2024	08:39:20.002	495.581	37.576	OK
11-12-2024	08:39:20.103	495.682	7.497	7.497	27.493	938	0	1.0912	OK	11-12-2024	08:39:20.103	495.682	37.575	OK
11-12-2024	08:39:20.204	495.782	7.497	7.497	27.497	938	0	1.0909	OK	11-12-2024	08:39:20.204	495.782	37.575	OK
11-12-2024	08:39:20.375	495.954	7.497	7.497	27.497	938	0	1.0909	OK	11-12-2024	08:39:20.375	495.954	37.576	OK
11-12-2024	08:39:20.630	496.209	7.498	7.498	27.501	938	0	1.0906	OK	11-12-2024	08:39:20.630	496.209	37.576	OK
11-12-2024	08:39:20.803	496.382	7.498	7.498	27.498	938	0	1.0909	OK	11-12-2024	08:39:20.803	496.382	37.577	OK
11-12-2024	08:39:20.905	496.484	7.497	7.497	27.497	938	0	1.0909	OK	11-12-2024	08:39:20.905	496.484	37.577	OK
11-12-2024	08:39:21.007	496.586	7.497	7.497	27.494	938	0	1.0911	OK	11-12-2024	08:39:21.007	496.586	37.577	OK
11-12-2024	08:39:21.108	496.687	7.497	7.497	27.494	938	0	1.0911	OK	11-12-2024	08:39:21.108	496.687	37.577	OK
11-12-2024	08:39:21.207	496.786	7.497	7.497	27.495	938	0	1.0911	OK	11-12-2024	08:39:21.207	496.786	37.577	OK
11-12-2024	08:39:21.385	496.964	7.497	7.497	27.496	938	0	1.0910	OK	11-12-2024	08:39:21.385	496.964	37.577	OK
11-12-2024	08:39:21.639	497.218	7.498	7.498	27.499	938	0	1.0908	OK	11-12-2024	08:39:21.639	497.218	37.578	OK
11-12-2024	08:39:21.808	497.387	7.498	7.498	27.500	938	0	1.0907	OK	11-12-2024	08:39:21.808	497.387	37.578	OK
11-12-2024	08:39:21.910	497.489	7.497	7.497	27.493	938	0	1.0912	OK	11-12-2024	08:39:21.910	497.489	37.578	OK
11-12-2024	08:39:22.010	497.589	7.497	7.497	27.491	938	0	1.0913	OK	11-12-2024	08:39:22.010	497.589	37.578	OK
11-12-2024	08:39:22.114	497.693	7.497	7.497	27.496	938	0	1.0910	OK	11-12-2024	08:39:22.114	497.693	37.578	OK
11-12-2024	08:39:22.216	497.795	7.497	7.497	27.497	938	0	1.0909	OK	11-12-2024	08:39:22.216	497.795	37.578	OK
11-12-2024	08:39:22.385	497.964	7.496	7.496	27.489	938	0	1.0915	OK	11-12-2024	08:39:22.385	497.964	37.577	OK
11-12-2024	08:39:22.641	498.220	7.498	7.498	27.501	938	0	1.0906	OK	11-12-2024	08:39:22.641	498.220	37.578	OK
11-12-2024	08:39:22.814	498.393	7.498	7.498	27.501	938	0	1.0906	OK	11-12-2024	08:39:22.814	498.393	37.579	OK
11-12-2024	08:39:22.913	498.492	7.498	7.498	27.498	938	0	1.0909	OK	11-12-2024	08:39:22.913	498.492	37.579	OK
11-12-2024	08:39:23.014	498.593	7.497	7.497	27.497	938	0	1.0909	OK	11-12-2024	08:39:23.014	498.593	37.579	OK
11-12-2024	08:39:23.115	498.694	7.497	7.497	27.494	938	0	1.0911	OK	11-12-2024	08:39:23.115	498.694	37.579	OK
11-12-2024	08:39:23.214	498.793	7.497	7.497	27.493	938	0	1.0912	OK	11-12-2024	08:39:23.214	498.793	37.580	OK
11-12-2024	08:39:23.398	498.977	7.498	7.498	27.499	938	0	1.0908	OK	11-12-2024	08:39:23.398	498.977	37.581	OK
11-12-2024	08:39:23.653	499.232	7.498	7.498	27.504	938	0	1.0904	OK	11-12-2024	08:39:23.653	499.232	37.580	OK
11-12-2024	08:39:23.813	499.392	7.499	7.499	27.505	938	0	1.0904	OK	11-12-2024	08:39:23.813	499.392	37.581	OK
11-12-2024	08:39:23.913	499.492	7.497	7.497	27.494	938	0	1.0911	OK	11-12-2024	08:39:23.913	499.492	37.581	OK
11-12-2024	08:39:24.013	499.592	7.497	7.497	27.491	938	0	1.0913	OK	11-12-2024	08:39:24.013	499.592	37.581	OK
11-12-2024	08:39:24.112	499.691	7.497	7.497	27.495	938	0	1.0911	OK	11-12-2024	08:39:24.112	499.691	37.581	OK
11-12-2024	08:39:24.214	499.793	7.497	7.497	27.492	938	0	1.0913	OK	11-12-2024	08:39:24.214	499.793	37.581	OK
11-12-2024	08:39:24.385	499.964	7.498	7.498	27.502	938	0	1.0906	OK	11-12-2024	08:39:24.385	499.964	37.581	OK
11-12-2024	08:39:24.656	500.235	7.498	7.498	27.504	938	0	1.0904	OK	11-12-2024	08:39:24.656	500.235	37.582	OK
11-12-2024	08:39:24.815	500.393	7.497	7.497	27.497	938	0	1.0909	OK	11-12-2024	08:39:24.815	500.393	37.583	OK
11-12-2024	08:39:24.915	500.494	7.497	7.497	27.498	938	0	1.0909	OK	11-12-2024	08:39:24.915	500.494	37.583	OK
11-12-2024	08:39:25.015	500.594	7.497	7.497	27.494	938	0	1.0911	OK	11-12-2024	08:39:25.015	500.594	37.583	OK
11-12-2024	08:39:25.119	500.698	7.496	7.496	27.490	938	0	1.0914	OK	11-12-2024	08:39:25.119	500.698	37.583	OK
11-12-2024	08:39:25.215	500.794	7.496	7.496	27.490	938	0	1.0914	OK	11-12-2024	08:39:25.215	500.794	37.583	OK
11-12-2024	08:39:25.382	500.961	7.497	7.497	27.495	938	0	1.0911	OK	11-12-2024	08:39:25.382	500.961	37.583	OK
11-12-2024	08:39:25.638	501.217	7.497	7.497	27.497	938	0	1.0909	OK	11-12-2024	08:39:25.638	501.217	37.584	OK
11-12-2024	08:39:25.815	501.394	7.497	7.497	27.497	938	0	1.0909	OK	11-12-2024	08:39:25.815	501.394	37.583	OK
11-12-2024	08:39:25.916	501.495	7.497	7.497	27.496	938	0	1.0910	OK	11-12-2024	08:39:25.916	501.495	37.583	OK
11-12-2024	08:39:26.016	501.595	7.496	7.496	27.491	938	0	1.0913	OK	11-12-2024	08:39:26.016	501.595	37.582	OK
11-12-2024	08:39:26.118	501.697	7.496	7.496	27.490	938	0	1.0914	OK	11-12-2024	08:39:26.118	501.697	37.582	OK
11-12-2024	08:39:26.218	501.797	7.496	7.496	27.487	938	0	1.0916	OK	11-12-2024	08:39:26.218	501.797	37.583	OK
11-12-2024	08:39:26.387	501.966	7.497	7.497	27.494	938	0	1.0911	OK	11-12-2024	08:39:26.387	501.966	37.583	OK
11-12-2024	08:39:26.645	502.224	7.498	7.498	27.499	938	0	1.0908	OK	11-12-2024	08:39:26.645	502.224	37.583	OK
11-12-2024	08:39:26.817	502.396	7.498	7.498	27.500	938	0	1.0907	OK	11-12-2024	08:39:26.817	502.396	37.583	OK
11-12-2024	08:39:26.918	502.497	7.497	7.497	27.494	938	0	1.0911	OK	11-12-2024	08:39:26.918	502.497	37.583	OK
11-12-2024	08:39:27.019	502.598	7.497	7.497	27.495	938	0	1.0911	OK	11-12-2024	08:39:27.019	502.598	37.583	OK
11-12-2024	08:39:27.119	502.698	7.497	7.497	27.496	938	0	1.0910	OK	11-12-2024	08:39:27.119	502.698	37.583	OK
11-12-2024	08:39:27.219	502.798	7.497	7.497	27.496	938	0	1.0910	OK	11-12-2024	08:39:27.219	502.798	37.582	OK
11-12-2024	08:39:27.390	502.969	7.497	7.497	27.497	938	0	1.0909	OK	11-12-2024	08:39:27.390	502.969	37.582	OK
11-12-2024	08:39:27.648	503.227	7.498	7.498	27.502	938	0	1.0906	OK	11-12-2024	08:39:27.648	503.227	37.582	OK
11-12-2024	08:39:27.821	503.400	7.498	7.498	27.498	938	0	1.0909	OK	11-12-2024	08:39:27.821	503.400	37.582	OK
11-12-2024	08:39:27.922	503.501	7.498	7.498	27.503	938	0	1.0905	OK	11-12-2024	08:39:27.922	503.501	37.582	OK
11-12-2024	08:39:28.022	503.601	7.497	7.497	27.494	938	0	1.0911	OK	11-12-2024	08:39:28.022	503.601	37.581	OK
11-12-2024	08:39:28.123	503.702	7.497	7.497	27.491	938	0	1.0913	OK	11-12-2024	08:39:28.123	503.702	37.581	OK
11-12-2024	08:39:28.223	503.801	7.497	7.497	27.491	938	0	1.0913	OK	11-12-2024	08:39:28.223	503.801	37.580	OK
11-12-2024	08:39:28.392	503.971	7.497	7.497	27.496	938	0	1.0910	OK	11-12-2024	08:39:28.392	503.971	37.580	OK
11-12-2024	08:39:28.650	504.229	7.498	7.498	27.502	938	0	1.0906	OK	11-12-2024	08:39:28.650	504.229	37.581	OK
11-12-2024	08:39:28.824	504.403	7.498	7.498	27.503	938	0	1.0905	OK	11-12-2024	08:39:28.824	504.403	37.581	OK
11-12-2024	08:39:28.924	504.503	7.498	7.498	27.498	938	0	1.0909	OK	11-12-2024	08:39:28.924	504.503	37.581	OK
11-12-2024	08:39:29.023	504.602	7.496	7.496	27.491	938	0	1.0913	OK	11-12-2024	08:39:29.023	504.602	37.582	OK
11-12-2024	08:39:29.124	504.703	7.496	7.496	27.491	938	0	1.0913	OK	11-12-2024	08:39:29.124	504.703	37.582	OK
11-12-2024	08:39:29.224	504.803	7.496	7.496	27.491	938	0	1.0913	OK	11-12-2024	08:39:29.224	504.803	37.582	OK
11-12-2024	08:39:29.394	504.973	7.497	7.497	27.493	938	0	1.0912	OK	11-12-2024	08:39:29.394	504.973	37.582	OK
11-12-2024	08:39:29.664	505.243	7.498	7.498	27.501	938	0	1.0906	OK	11-12-2024	08:39:29.664	505.243	37.580	OK
11-12-2024	08:39:29.824	505.403	7.498	7.498	27.498	938	0	1.0909	OK	11-12-2024	08:39:29.824	505.403	37.580	OK
11-12-2024	08:39:29.925	505.504	7.498	7.498	27.500	938	0	1.0907	OK	11-12-2024	08:39:29.925	505.504	37.579	OK
11-12-2024	08:39:30.026	505.605	7.497	7.497	27.491	938	0	1.0913	OK	11-12-2024	08:39:30.026	505.605	37.579	OK
11-12-2024	08:39:30.126	505.705	7.497	7.497	27.492	938	0	1.0912	OK	11-12-2024	08:39:30.126	505.705	37.580	OK
11-12-2024	08:39:30.225	505.804	7.497	7.497	27.492	938	0	1.0912	OK	11-12-2024	08:39:30.225	505.804	37.580	OK
11-12-2024	08:39:30.395	505.974	7.497	7.497	27.492	938	0	1.0912	OK	11-12-2024	08:39:30.395	505.974	37.579	OK
11-12-2024	08:39:30.657	506.236	7.498	7.498	27.497	938	0	1.0909	OK	11-12-2024	08:39:30.657	506.236	37.578	OK
11-12-2024	08:39:30.827	506.406	7.498	7.498	27.498	938	0	1.0908	OK	11-12-2024	08:39:30.827	506.406	37.578	OK
11-12-2024	08:39:30.927	506.506	7.497	7.497	27.494	938	0	1.0911	OK	11-12-2024	08:39:30.927	506.506	37.578	OK
11-12-2024	08:39:31.028	506.607	7.496	7.496	27.489	938	0	1.0914	OK	11-12-2024	08:39:31.028	506.607	37.578	OK
11-12-2024	08:39:31.127	506.706	7.497	7.497	27.491	938	0	1.0913	OK	11-12-2024	08:39:31.127	506.706	37.577	OK
11-12-2024	08:39:31.228	506.807	7.497	7.497	27.494	938	0	1.0911	OK	11-12-2024	08:39:31.228	506.807	37.577	OK
11-12-2024	08:39:31.402	506.981	7.497	7.497	27.495	938	0	1.0910	OK	11-12-2024	08:39:31.402	506.981	37.577	OK
11-12-2024	08:39:31.673	507.252	7.497	7.497	27.496	938	0	1.0910	OK	11-12-2024	08:39:31.673	507.252	37.578	OK
11-12-2024	08:39:31.828	507.407	7.498	7.498	27.500	938	0	1.0907	OK	11-12-2024	08:39:31.828	507.407	37.578	OK
11-12-2024	08:39:31.929	507.508	7.497	7.497	27.495	938	0	1.0910	OK	11-12-2024	08:39:31.929	507.508	37.577	OK
11-12-2024	08:39:32.028	507.607	7.497	7.497	27.496	938	0	1.0910	OK	11-12-2024	08:39:32.028	507.607	37.577	OK
11-12-2024	08:39:32.131	507.710	7.497	7.497	27.493	938	0	1.0912	OK	11-12-2024	08:39:32.131	507.710	37.577	OK
11-12-2024	08:39:32.231	507.809	7.497	7.497	27.490	938	0	1.0914	OK	11-12-2024	08:39:32.231	507.809	37.577	OK
11-12-2024	08:39:32.401	507.980	7.497	7.497	27.493	938	0	1.0912	OK	11-12-2024	08:39:32.401	507.980	37.577	OK
11-12-2024	08:39:32.658	508.237	7.498	7.498	27.497	938	0	1.0909	OK	11-12-2024	08:39:32.658	508.237	37.577	OK
11-12-2024	08:39:32.831	508.409	7.497	7.497	27.494	938	0	1.0911	OK	11-12-2024	08:39:32.831	508.409	37.578	OK
11-12-2024	08:39:32.931	508.510	7.497	7.497	27.493	938	0	1.0912	OK	11-12-2024	08:39:32.931	508.510	37.577	OK
11-12-2024	08:39:33.031	508.610	7.496	7.496	27.487	938	0	1.0916	OK	11-12-2024	08:39:33.031	508.610	37.577	OK
11-12-2024	08:39:33.133	508.712	7.497	7.497	27.494	938	0	1.0911	OK	11-12-2024	08:39:33.133	508.712	37.578	OK
11-12-2024	08:39:33.231	508.810	7.496	7.496	27.490	938	0	1.0914	OK	11-12-2024	08:39:33.231	508.810	37.578	OK
11-12-2024	08:39:33.404	508.983	7.497	7.497	27.497	938	0	1.0909	OK	11-12-2024	08:39:33.404	508.983	37.577	OK
11-12-2024	08:39:33.658	509.237	7.498	7.498	27.500	938	0	1.0907	OK	11-12-2024	08:39:33.658	509.237	37.577	OK
11-12-2024	08:39:33.832	509.411	7.498	7.498	27.499	938	0	1.0908	OK	11-12-2024	08:39:33.832	509.411	37.580	OK
11-12-2024	08:39:33.934	509.513	7.497	7.497	27.497	938	0	1.0909	OK	11-12-2024	08:39:33.934	509.513	37.580	OK
11-12-2024	08:39:34.034	509.613	7.497	7.497	27.496	938	0	1.0910	OK	11-12-2024	08:39:34.034	509.613	37.580	OK
11-12-2024	08:39:34.134	509.712	7.496	7.496	27.490	938	0	1.0914	OK	11-12-2024	08:39:34.134	509.712	37.579	OK
11-12-2024	08:39:34.234	509.813	7.497	7.497	27.494	938	0	1.0911	OK	11-12-2024	08:39:34.234	509.813	37.579	OK
11-12-2024	08:39:34.404	509.982	7.498	7.498	27.498	938	0	1.0908	OK	11-12-2024	08:39:34.404	509.982	37.579	OK
11-12-2024	08:39:34.657	510.236	7.498	7.498	27.499	938	0	1.0907	OK	11-12-2024	08:39:34.657	510.236	37.578	OK
11-12-2024	08:39:34.834	510.412	7.498	7.498	27.500	938	0	1.0907	OK	11-12-2024	08:39:34.834	510.412	37.578	OK
11-12-2024	08:39:34.934	510.513	7.498	7.498	27.497	938	0	1.0909	OK	11-12-2024	08:39:34.934	510.513	37.578	OK
11-12-2024	08:39:35.034	510.613	7.497	7.497	27.494	938	0	1.0911	OK	11-12-2024	08:39:35.034	510.613	37.578	OK
11-12-2024	08:39:35.133	510.712	7.496	7.496	27.489	938	0	1.0914	OK	11-12-2024	08:39:35.133	510.712	37.578	OK
11-12-2024	08:39:35.333	510.912	7.498	7.498	27.499	938	0	1.0907	OK	11-12-2024	08:39:35.333	510.912	37.577	OK
11-12-2024	08:39:35.593	511.172	7.498	7.498	27.503	938	0	1.0905	OK	11-12-2024	08:39:35.593	511.172	37.577	OK
11-12-2024	08:39:35.736	511.315	7.498	7.498	27.498	938	0	1.0908	OK	11-12-2024	08:39:35.736	511.315	37.578	OK
11-12-2024	08:39:35.836	511.415	7.498	7.498	27.499	938	0	1.0907	OK	11-12-2024	08:39:35.836	511.415	37.578	OK
11-12-2024	08:39:35.935	511.514	7.497	7.497	27.491	938	0	1.0913	OK	11-12-2024	08:39:35.935	511.514	37.578	OK
11-12-2024	08:39:36.035	511.614	7.497	7.497	27.495	938	0	1.0910	OK	11-12-2024	08:39:36.035	511.614	37.578	OK
11-12-2024	08:39:36.135	511.714	7.497	7.497	27.496	938	0	1.0910	OK	11-12-2024	08:39:36.135	511.714	37.578	OK
11-12-2024	08:39:36.320	511.899	7.497	7.497	27.496	938	0	1.0910	OK	11-12-2024	08:39:36.320	511.899	37.578	OK
11-12-2024	08:39:36.575	512.154	7.498	7.498	27.501	938	0	1.0906	OK	11-12-2024	08:39:36.575	512.154	37.578	OK
11-12-2024	08:39:36.737	512.316	7.498	7.498	27.503	938	0	1.0905	OK	11-12-2024	08:39:36.737	512.316	37.577	OK
11-12-2024	08:39:36.838	512.417	7.498	7.498	27.497	938	0	1.0909	OK	11-12-2024	08:39:36.838	512.417	37.577	OK
11-12-2024	08:39:36.938	512.517	7.498	7.498	27.500	938	0	1.0907	OK	11-12-2024	08:39:36.938	512.517	37.575	OK
11-12-2024	08:39:37.038	512.617	7.498	7.498	27.497	938	0	1.0909	OK	11-12-2024	08:39:37.038	512.617	37.575	OK
11-12-2024	08:39:37.137	512.716	7.497	7.497	27.495	938	0	1.0910	OK	11-12-2024	08:39:37.137	512.716	37.575	OK
11-12-2024	08:39:37.322	512.901	7.498	7.498	27.502	938	0	1.0905	OK	11-12-2024	08:39:37.322	512.901	37.575	OK
11-12-2024	08:39:37.575	513.154	7.498	7.498	27.501	938	0	1.0906	OK	11-12-2024	08:39:37.575	513.154	37.575	OK
11-12-2024	08:39:37.739	513.318	7.498	7.498	27.502	938	0	1.0905	OK	11-12-2024	08:39:37.739	513.318	37.575	OK
11-12-2024	08:39:37.839	513.418	7.498	7.498	27.497	938	0	1.0909	OK	11-12-2024	08:39:37.839	513.418	37.575	OK
11-12-2024	08:39:37.938	513.517	7.497	7.497	27.490	938	0	1.0914	OK	11-12-2024	08:39:37.938	513.517	37.575	OK
11-12-2024	08:39:38.038	513.617	7.497	7.497	27.494	938	0	1.0911	OK	11-12-2024	08:39:38.038	513.617	37.577	OK
11-12-2024	08:39:38.139	513.718	7.497	7.497	27.492	938	0	1.0912	OK	11-12-2024	08:39:38.139	513.718	37.577	OK
11-12-2024	08:39:38.320	513.899	7.497	7.497	27.495	938	0	1.0910	OK	11-12-2024	08:39:38.320	513.899	37.575	OK
11-12-2024	08:39:38.577	514.156	7.498	7.498	27.501	938	0	1.0906	OK	11-12-2024	08:39:38.577	514.156	37.576	OK
11-12-2024	08:39:38.738	514.317	7.498	7.498	27.499	938	0	1.0907	OK	11-12-2024	08:39:38.738	514.317	37.576	OK
11-12-2024	08:39:38.837	514.416	7.497	7.497	27.493	938	0	1.0912	OK	11-12-2024	08:39:38.837	514.416	37.576	OK
11-12-2024	08:39:38.939	514.518	7.497	7.497	27.494	938	0	1.0911	OK	11-12-2024	08:39:38.939	514.518	37.576	OK
11-12-2024	08:39:39.140	514.719	7.498	7.498	27.501	938	0	1.0906	OK	11-12-2024	08:39:39.140	514.719	37.576	OK
11-12-2024	08:39:39.319	514.898	7.497	7.497	27.496	938	0	1.0910	OK	11-12-2024	08:39:39.319	514.898	37.577	OK
11-12-2024	08:39:39.575	515.154	7.498	7.498	27.503	938	0	1.0905	OK	11-12-2024	08:39:39.575	515.154	37.578	OK
11-12-2024	08:39:39.739	515.318	7.498	7.498	27.499	938	0	1.0907	OK	11-12-2024	08:39:39.739	515.318	37.578	OK
11-12-2024	08:39:39.839	515.418	7.497	7.497	27.495	938	0	1.0910	OK	11-12-2024	08:39:39.839	515.418	37.578	OK
11-12-2024	08:39:39.943	515.522	7.498	7.498	27.498	938	0	1.0908	OK	11-12-2024	08:39:39.943	515.522	37.578	OK
11-12-2024	08:39:40.039	515.618	7.497	7.497	27.495	938	0	1.0910	OK	11-12-2024	08:39:40.039	515.618	37.579	OK
11-12-2024	08:39:40.139	515.718	7.497	7.497	27.492	938	0	1.0912	OK	11-12-2024	08:39:40.139	515.718	37.579	OK
11-12-2024	08:39:40.321	515.900	7.498	7.498	27.499	938	0	1.0907	OK	11-12-2024	08:39:40.321	515.900	37.580	OK
11-12-2024	08:39:40.576	516.155	7.498	7.498	27.501	938	0	1.0906	OK	11-12-2024	08:39:40.576	516.155	37.580	OK
11-12-2024	08:39:40.740	516.319	7.498	7.498	27.500	938	0	1.0907	OK	11-12-2024	08:39:40.740	516.319	37.580	OK
11-12-2024	08:39:40.840	516.419	7.497	7.497	27.497	938	0	1.0909	OK	11-12-2024	08:39:40.840	516.419	37.580	OK
11-12-2024	08:39:40.941	516.520	7.497	7.497	27.495	938	0	1.0910	OK	11-12-2024	08:39:40.941	516.520	37.580	OK
11-12-2024	08:39:41.040	516.619	7.497	7.497	27.494	938	0	1.0911	OK	11-12-2024	08:39:41.040	516.619	37.580	OK
11-12-2024	08:39:41.140	516.719	7.497	7.497	27.495	938	0	1.0910	OK	11-12-2024	08:39:41.140	516.719	37.580	OK
11-12-2024	08:39:41.322	516.900	7.498	7.498	27.501	938	0	1.0906	OK	11-12-2024	08:39:41.322	516.900	37.578	OK
11-12-2024	08:39:41.577	517.156	7.498	7.498	27.500	938	0	1.0907	OK	11-12-2024	08:39:41.577	517.156	37.579	OK
11-12-2024	08:39:41.741	517.320	7.498	7.498	27.500	938	0	1.0907	OK	11-12-2024	08:39:41.741	517.320	37.579	OK
11-12-2024	08:39:41.842	517.421	7.497	7.497	27.497	938	0	1.0909	OK	11-12-2024	08:39:41.842	517.421	37.580	OK
11-12-2024	08:39:41.940	517.519	7.497	7.497	27.497	938	0	1.0909	OK	11-12-2024	08:39:41.940	517.519	37.580	OK
11-12-2024	08:39:42.041	517.620	7.497	7.497	27.495	938	0	1.0910	OK	11-12-2024	08:39:42.041	517.620	37.579	OK
11-12-2024	08:39:42.143	517.722	7.497	7.497	27.493	938	0	1.0912	OK	11-12-2024	08:39:42.143	517.722	37.579	OK
11-12-2024	08:39:42.322	517.901	7.497	7.497	27.492	938	0	1.0912	OK	11-12-2024	08:39:42.322	517.901	37.579	OK
11-12-2024	08:39:42.593	518.172	7.498	7.498	27.501	938	0	1.0906	OK	11-12-2024	08:39:42.593	518.172	37.579	OK
11-12-2024	08:39:42.743	518.322	7.498	7.498	27.499	938	0	1.0907	OK	11-12-2024	08:39:42.743	518.322	37.579	OK
11-12-2024	08:39:42.843	518.422	7.497	7.497	27.494	938	0	1.0911	OK	11-12-2024	08:39:42.843	518.422	37.577	OK
11-12-2024	08:39:42.944	518.523	7.497	7.497	27.495	938	0	1.0910	OK	11-12-2024	08:39:42.944	518.523	37.577	OK
11-12-2024	08:39:43.043	518.622	7.497	7.497	27.495	938	0	1.0910	OK	11-12-2024	08:39:43.043	518.622	37.578	OK
11-12-2024	08:39:43.144	518.723	7.497	7.497	27.492	938	0	1.0912	OK	11-12-2024	08:39:43.144	518.723	37.578	OK
11-12-2024	08:39:43.322	518.901	7.498	7.498	27.499	938	0	1.0907	OK	11-12-2024	08:39:43.322	518.901	37.577	OK
11-12-2024	08:39:43.591	519.170	7.498	7.498	27.501	938	0	1.0906	OK	11-12-2024	08:39:43.591	519.170	37.577	OK
11-12-2024	08:39:43.744	519.323	7.498	7.498	27.497	938	0	1.0909	OK	11-12-2024	08:39:43.744	519.323	37.576	OK
11-12-2024	08:39:43.844	519.423	7.498	7.498	27.503	938	0	1.0905	OK	11-12-2024	08:39:43.844	519.423	37.577	OK
11-12-2024	08:39:43.945	519.524	7.498	7.498	27.500	938	0	1.0907	OK	11-12-2024	08:39:43.945	519.524	37.577	OK
11-12-2024	08:39:44.045	519.624	7.498	7.498	27.497	938	0	1.0909	OK	11-12-2024	08:39:44.045	519.624	37.577	OK
11-12-2024	08:39:44.144	519.723	7.498	7.498	27.499	938	0	1.0907	OK	11-12-2024	08:39:44.144	519.723	37.577	OK
11-12-2024	08:39:44.320	519.899	7.498	7.498	27.497	938	0	1.0909	OK	11-12-2024	08:39:44.320	519.899	37.577	OK
11-12-2024	08:39:44.578	520.157	7.498	7.498	27.502	938	0	1.0905	OK	11-12-2024	08:39:44.578	520.157	37.578	OK
11-12-2024	08:39:44.745	520.324	7.498	7.498	27.503	938	0	1.0905	OK	11-12-2024	08:39:44.745	520.324	37.578	OK
11-12-2024	08:39:44.845	520.424	7.498	7.498	27.500	938	0	1.0907	OK	11-12-2024	08:39:44.845	520.424	37.579	OK
11-12-2024	08:39:44.946	520.525	7.497	7.497	27.496	938	0	1.0910	OK	11-12-2024	08:39:44.946	520.525	37.579	OK
11-12-2024	08:39:45.045	520.624	7.497	7.497	27.495	938	0	1.0910	OK	11-12-2024	08:39:45.045	520.624	37.578	OK
11-12-2024	08:39:45.146	520.725	7.498	7.498	27.498	938	0	1.0908	OK	11-12-2024	08:39:45.146	520.725	37.578	OK
11-12-2024	08:39:45.320	520.899	7.498	7.498	27.497	938	0	1.0909	OK	11-12-2024	08:39:45.320	520.899	37.578	OK
11-12-2024	08:39:45.589	521.168	7.499	7.499	27.506	938	0	1.0903	OK	11-12-2024	08:39:45.589	521.168	37.578	OK
11-12-2024	08:39:45.746	521.325	7.498	7.498	27.503	938	0	1.0905	OK	11-12-2024	08:39:45.746	521.325	37.578	OK
11-12-2024	08:39:45.845	521.424	7.498	7.498	27.498	938	0	1.0908	OK	11-12-2024	08:39:45.845	521.424	37.578	OK
11-12-2024	08:39:45.946	521.524	7.497	7.497	27.496	938	0	1.0910	OK	11-12-2024	08:39:45.946	521.524	37.578	OK
11-12-2024	08:39:46.045	521.624	7.497	7.497	27.492	938	0	1.0912	OK	11-12-2024	08:39:46.045	521.624	37.578	OK
11-12-2024	08:39:46.146	521.725	7.497	7.497	27.497	938	0	1.0909	OK	11-12-2024	08:39:46.146	521.725	37.580	OK
11-12-2024	08:39:46.321	521.900	7.497	7.497	27.495	938	0	1.0910	OK	11-12-2024	08:39:46.321	521.900	37.580	OK
11-12-2024	08:39:46.576	522.155	7.498	7.498	27.502	938	0	1.0905	OK	11-12-2024	08:39:46.576	522.155	37.580	OK
11-12-2024	08:39:46.746	522.325	7.498	7.498	27.500	938	0	1.0907	OK	11-12-2024	08:39:46.746	522.325	37.580	OK
11-12-2024	08:39:46.847	522.426	7.497	7.497	27.496	938	0	1.0910	OK	11-12-2024	08:39:46.847	522.426	37.580	OK
11-12-2024	08:39:46.947	522.526	7.497	7.497	27.493	938	0	1.0912	OK	11-12-2024	08:39:46.947	522.526	37.580	OK
11-12-2024	08:39:47.046	522.625	7.497	7.497	27.494	938	0	1.0911	OK	11-12-2024	08:39:47.046	522.625	37.580	OK
11-12-2024	08:39:47.148	522.726	7.497	7.497	27.495	938	0	1.0910	OK	11-12-2024	08:39:47.148	522.726	37.580	OK
11-12-2024	08:39:47.321	522.900	7.497	7.497	27.494	938	0	1.0911	OK	11-12-2024	08:39:47.321	522.900	37.580	OK
11-12-2024	08:39:47.595	523.174	7.498	7.498	27.498	938	0	1.0908	OK	11-12-2024	08:39:47.595	523.174	37.579	OK
11-12-2024	08:39:47.747	523.326	7.498	7.498	27.500	938	0	1.0907	OK	11-12-2024	08:39:47.747	523.326	37.578	OK
11-12-2024	08:39:47.848	523.427	7.497	7.497	27.495	938	0	1.0910	OK	11-12-2024	08:39:47.848	523.427	37.578	OK
11-12-2024	08:39:47.948	523.527	7.497	7.497	27.491	938	0	1.0913	OK	11-12-2024	08:39:47.948	523.527	37.578	OK
11-12-2024	08:39:48.047	523.626	7.497	7.497	27.492	938	0	1.0912	OK	11-12-2024	08:39:48.047	523.626	37.578	OK
11-12-2024	08:39:48.149	523.728	7.497	7.497	27.492	938	0	1.0912	OK	11-12-2024	08:39:48.149	523.728	37.578	OK
11-12-2024	08:39:48.325	523.904	7.497	7.497	27.496	938	0	1.0910	OK	11-12-2024	08:39:48.325	523.904	37.578	OK
11-12-2024	08:39:48.582	524.161	7.498	7.498	27.503	938	0	1.0905	OK	11-12-2024	08:39:48.582	524.161	37.578	OK
11-12-2024	08:39:48.751	524.330	7.498	7.498	27.497	938	0	1.0909	OK	11-12-2024	08:39:48.751	524.330	37.578	OK
11-12-2024	08:39:48.850	524.429	7.498	7.498	27.498	938	0	1.0908	OK	11-12-2024	08:39:48.850	524.429	37.578	OK
11-12-2024	08:39:48.951	524.530	7.497	7.497	27.493	938	0	1.0912	OK	11-12-2024	08:39:48.951	524.530	37.578	OK
11-12-2024	08:39:49.065	524.644	7.497	7.497	27.495	938	0	1.0910	OK	11-12-2024	08:39:49.065	524.644	37.578	OK
11-12-2024	08:39:49.320	524.899	7.498	7.498	27.498	938	0	1.0908	OK	11-12-2024	08:39:49.320	524.899	37.577	OK
11-12-2024	08:39:49.578	525.157	7.499	7.499	27.507	938	0	1.0902	OK	11-12-2024	08:39:49.578	525.157	37.577	OK
11-12-2024	08:39:49.753	525.332	7.497	7.497	27.493	938	0	1.0912	OK	11-12-2024	08:39:49.753	525.332	37.578	OK
11-12-2024	08:39:49.854	525.433	7.498	7.498	27.498	938	0	1.0908	OK	11-12-2024	08:39:49.854	525.433	37.578	OK
11-12-2024	08:39:49.953	525.532	7.497	7.497	27.494	938	0	1.0911	OK	11-12-2024	08:39:49.953	525.532	37.578	OK
11-12-2024	08:39:50.064	525.643	7.497	7.497	27.494	938	0	1.0911	OK	11-12-2024	08:39:50.064	525.643	37.578	OK
11-12-2024	08:39:50.154	525.733	7.496	7.496	27.490	938	0	1.0914	OK	11-12-2024	08:39:50.154	525.733	37.579	OK
11-12-2024	08:39:50.325	525.904	7.498	7.498	27.497	938	0	1.0909	OK	11-12-2024	08:39:50.325	525.904	37.579	OK
11-12-2024	08:39:50.579	526.158	7.497	7.497	27.496	938	0	1.0910	OK	11-12-2024	08:39:50.579	526.158	37.580	OK
11-12-2024	08:39:50.753	526.332	7.497	7.497	27.496	938	0	1.0910	OK	11-12-2024	08:39:50.753	526.332	37.580	OK
11-12-2024	08:39:50.854	526.432	7.497	7.497	27.495	938	0	1.0910	OK	11-12-2024	08:39:50.854	526.432	37.580	OK
11-12-2024	08:39:50.953	526.532	7.498	7.498	27.499	938	0	1.0907	OK	11-12-2024	08:39:50.953	526.532	37.580	OK
11-12-2024	08:39:51.067	526.646	7.497	7.497	27.493	938	0	1.0912	OK	11-12-2024	08:39:51.067	526.646	37.580	OK
11-12-2024	08:39:51.326	526.905	7.498	7.498	27.502	938	0	1.0905	OK	11-12-2024	08:39:51.326	526.905	37.580	OK
11-12-2024	08:39:51.583	527.162	7.498	7.498	27.498	938	0	1.0908	OK	11-12-2024	08:39:51.583	527.162	37.579	OK
11-12-2024	08:39:51.752	527.331	7.499	7.499	27.506	938	0	1.0903	OK	11-12-2024	08:39:51.752	527.331	37.579	OK
11-12-2024	08:39:51.855	527.434	7.497	7.497	27.496	938	0	1.0910	OK	11-12-2024	08:39:51.855	527.434	37.579	OK
11-12-2024	08:39:51.955	527.534	7.498	7.498	27.499	938	0	1.0907	OK	11-12-2024	08:39:51.955	527.534	37.578	OK
11-12-2024	08:39:52.066	527.645	7.498	7.498	27.500	938	0	1.0907	OK	11-12-2024	08:39:52.066	527.645	37.578	OK
11-12-2024	08:39:52.326	527.905	7.499	7.499	27.504	938	0	1.0904	OK	11-12-2024	08:39:52.326	527.905	37.578	OK
11-12-2024	08:39:52.589	528.168	7.499	7.499	27.506	938	0	1.0903	OK	11-12-2024	08:39:52.589	528.168	37.578	OK
11-12-2024	08:39:52.755	528.334	7.498	7.498	27.503	938	0	1.0905	OK	11-12-2024	08:39:52.755	528.334	37.578	OK
11-12-2024	08:39:52.856	528.434	7.498	7.498	27.501	938	0	1.0906	OK	11-12-2024	08:39:52.856	528.434	37.578	OK
11-12-2024	08:39:52.956	528.535	7.498	7.498	27.498	938	0	1.0908	OK	11-12-2024	08:39:52.956	528.535	37.577	OK
11-12-2024	08:39:53.066	528.645	7.497	7.497	27.496	938	0	1.0910	OK	11-12-2024	08:39:53.066	528.645	37.577	OK
11-12-2024	08:39:53.324	528.903	7.498	7.498	27.500	938	0	1.0907	OK	11-12-2024	08:39:53.324	528.903	37.577	OK
11-12-2024	08:39:53.593	529.172	7.499	7.499	27.506	938	0	1.0903	OK	11-12-2024	08:39:53.593	529.172	37.575	OK
11-12-2024	08:39:53.759	529.338	7.498	7.498	27.502	938	0	1.0905	OK	11-12-2024	08:39:53.759	529.338	37.575	OK
11-12-2024	08:39:53.860	529.439	7.498	7.498	27.502	938	0	1.0905	OK	11-12-2024	08:39:53.860	529.439	37.574	OK
11-12-2024	08:39:53.961	529.540	7.498	7.498	27.498	938	0	1.0908	OK	11-12-2024	08:39:53.961	529.540	37.574	OK
11-12-2024	08:39:54.067	529.646	7.498	7.498	27.500	938	0	1.0907	OK	11-12-2024	08:39:54.067	529.646	37.575	OK
11-12-2024	08:39:54.160	529.739	7.497	7.497	27.496	938	0	1.0910	OK	11-12-2024	08:39:54.160	529.739	37.575	OK
11-12-2024	08:39:54.347	529.926	7.498	7.498	27.500	938	0	1.0907	OK	11-12-2024	08:39:54.347	529.926	37.575	OK
11-12-2024	08:39:54.601	530.180	7.499	7.499	27.505	938	0	1.0903	OK	11-12-2024	08:39:54.601	530.180	37.575	OK
11-12-2024	08:39:54.761	530.340	7.498	7.498	27.503	938	0	1.0905	OK	11-12-2024	08:39:54.761	530.340	37.575	OK
11-12-2024	08:39:54.859	530.438	7.498	7.498	27.501	938	0	1.0906	OK	11-12-2024	08:39:54.859	530.438	37.575	OK
11-12-2024	08:39:54.961	530.540	7.497	7.497	27.492	938	0	1.0912	OK	11-12-2024	08:39:54.961	530.540	37.575	OK
11-12-2024	08:39:55.066	530.645	7.497	7.497	27.496	938	0	1.0910	OK	11-12-2024	08:39:55.066	530.645	37.577	OK
11-12-2024	08:39:55.161	530.740	7.497	7.497	27.491	938	0	1.0913	OK	11-12-2024	08:39:55.161	530.740	37.577	OK
11-12-2024	08:39:55.332	530.911	7.498	7.498	27.498	938	0	1.0908	OK	11-12-2024	08:39:55.332	530.911	37.576	OK
11-12-2024	08:39:55.595	531.174	7.498	7.498	27.499	938	0	1.0907	OK	11-12-2024	08:39:55.595	531.174	37.577	OK
11-12-2024	08:39:55.761	531.340	7.498	7.498	27.497	938	0	1.0909	OK	11-12-2024	08:39:55.761	531.340	37.577	OK
11-12-2024	08:39:55.861	531.440	7.498	7.498	27.498	938	0	1.0908	OK	11-12-2024	08:39:55.861	531.440	37.578	OK
11-12-2024	08:39:55.961	531.540	7.497	7.497	27.496	938	0	1.0910	OK	11-12-2024	08:39:55.961	531.540	37.578	OK
11-12-2024	08:39:56.064	531.643	7.498	7.498	27.497	938	0	1.0909	OK	11-12-2024	08:39:56.064	531.643	37.578	OK
11-12-2024	08:39:56.162	531.741	7.497	7.497	27.492	938	0	1.0912	OK	11-12-2024	08:39:56.162	531.741	37.578	OK
11-12-2024	08:39:56.350	531.929	7.498	7.498	27.498	938	0	1.0908	OK	11-12-2024	08:39:56.350	531.929	37.579	OK
11-12-2024	08:39:56.622	532.201	7.498	7.498	27.497	938	0	1.0908	OK	11-12-2024	08:39:56.622	532.201	37.578	OK
11-12-2024	08:39:56.763	532.342	7.499	7.499	27.503	938	0	1.0904	OK	11-12-2024	08:39:56.763	532.342	37.578	OK
11-12-2024	08:39:56.863	532.441	7.498	7.498	27.498	938	0	1.0908	OK	11-12-2024	08:39:56.863	532.441	37.579	OK
11-12-2024	08:39:56.963	532.542	7.497	7.497	27.492	937	0	1.0912	OK	11-12-2024	08:39:56.963	532.542	37.579	OK
11-12-2024	08:39:57.067	532.646	7.497	7.497	27.491	938	0	1.0912	OK	11-12-2024	08:39:57.067	532.646	37.580	OK
11-12-2024	08:39:57.164	532.743	7.497	7.497	27.490	937	0	1.0913	OK	11-12-2024	08:39:57.164	532.743	37.580	OK
11-12-2024	08:39:57.332	532.911	7.497	7.497	27.495	938	0	1.0910	OK	11-12-2024	08:39:57.332	532.911	37.580	OK
11-12-2024	08:39:57.587	533.166	7.498	7.498	27.501	938	0	1.0906	OK	11-12-2024	08:39:57.587	533.166	37.580	OK
11-12-2024	08:39:57.765	533.344	7.498	7.498	27.500	938	0	1.0907	OK	11-12-2024	08:39:57.765	533.344	37.580	OK
11-12-2024	08:39:57.865	533.444	7.497	7.497	27.497	938	0	1.0909	OK	11-12-2024	08:39:57.865	533.444	37.580	OK
11-12-2024	08:39:57.965	533.544	7.497	7.497	27.495	938	0	1.0910	OK	11-12-2024	08:39:57.965	533.544	37.580	OK
11-12-2024	08:39:58.067	533.646	7.498	7.498	27.499	938	0	1.0907	OK	11-12-2024	08:39:58.067	533.646	37.581	OK
11-12-2024	08:39:58.165	533.744	7.497	7.497	27.492	938	0	1.0912	OK	11-12-2024	08:39:58.165	533.744	37.581	OK
11-12-2024	08:39:58.335	533.914	7.497	7.497	27.496	938	0	1.0910	OK	11-12-2024	08:39:58.335	533.914	37.580	OK
11-12-2024	08:39:58.594	534.173	7.498	7.498	27.498	938	0	1.0908	OK	11-12-2024	08:39:58.594	534.173	37.580	OK
11-12-2024	08:39:58.765	534.344	7.498	7.498	27.499	938	0	1.0907	OK	11-12-2024	08:39:58.765	534.344	37.579	OK
11-12-2024	08:39:58.866	534.445	7.498	7.498	27.498	938	0	1.0908	OK	11-12-2024	08:39:58.866	534.445	37.579	OK
11-12-2024	08:39:58.967	534.546	7.498	7.498	27.499	938	0	1.0907	OK	11-12-2024	08:39:58.967	534.546	37.579	OK
11-12-2024	08:39:59.068	534.647	7.497	7.497	27.492	938	0	1.0912	OK	11-12-2024	08:39:59.068	534.647	37.578	OK
11-12-2024	08:39:59.171	534.750	7.497	7.497	27.495	938	0	1.0910	OK	11-12-2024	08:39:59.171	534.750	37.578	OK
11-12-2024	08:39:59.340	534.919	7.498	7.498	27.497	938	0	1.0909	OK	11-12-2024	08:39:59.340	534.919	37.578	OK
11-12-2024	08:39:59.595	535.174	7.498	7.498	27.500	938	0	1.0906	OK	11-12-2024	08:39:59.595	535.174	37.578	OK
11-12-2024	08:39:59.769	535.348	7.498	7.498	27.498	938	0	1.0908	OK	11-12-2024	08:39:59.769	535.348	37.579	OK
11-12-2024	08:39:59.871	535.450	7.498	7.498	27.497	938	0	1.0908	OK	11-12-2024	08:39:59.871	535.450	37.579	OK
11-12-2024	08:39:59.971	535.550	7.497	7.497	27.494	938	0	1.0910	OK	11-12-2024	08:39:59.971	535.550	37.579	OK
11-12-2024	08:40:00.071	535.650	7.497	7.497	27.494	938	0	1.0910	OK	11-12-2024	08:40:00.071	535.650	37.579	OK
11-12-2024	08:40:00.172	535.751	7.497	7.497	27.492	938	0	1.0912	OK	11-12-2024	08:40:00.172	535.751	37.579	OK
11-12-2024	08:40:00.371	535.950	7.497	7.497	27.496	938	0	1.0909	OK	11-12-2024	08:40:00.371	535.950	37.579	OK
11-12-2024	08:40:00.627	536.206	7.498	7.498	27.497	938	0	1.0909	OK	11-12-2024	08:40:00.627	536.206	37.578	OK
11-12-2024	08:40:00.772	536.351	7.497	7.497	27.496	938	0	1.0910	OK	11-12-2024	08:40:00.772	536.351	37.578	OK
11-12-2024	08:40:00.871	536.450	7.497	7.497	27.494	938	0	1.0911	OK	11-12-2024	08:40:00.871	536.450	37.578	OK
11-12-2024	08:40:00.972	536.551	7.497	7.497	27.495	938	0	1.0910	OK	11-12-2024	08:40:00.972	536.551	37.578	OK
11-12-2024	08:40:01.071	536.650	7.497	7.497	27.493	938	0	1.0912	OK	11-12-2024	08:40:01.071	536.650	37.578	OK
11-12-2024	08:40:01.171	536.750	7.497	7.497	27.491	938	0	1.0913	OK	11-12-2024	08:40:01.171	536.750	37.578	OK
11-12-2024	08:40:01.340	536.919	7.497	7.497	27.495	938	0	1.0910	OK	11-12-2024	08:40:01.340	536.919	37.579	OK
11-12-2024	08:40:01.600	537.179	7.498	7.498	27.497	938	0	1.0908	OK	11-12-2024	08:40:01.600	537.179	37.579	OK
11-12-2024	08:40:01.774	537.353	7.498	7.498	27.500	938	0	1.0906	OK	11-12-2024	08:40:01.774	537.353	37.580	OK
11-12-2024	08:40:01.873	537.452	7.497	7.497	27.494	938	0	1.0910	OK	11-12-2024	08:40:01.873	537.452	37.580	OK
11-12-2024	08:40:01.974	537.553	7.497	7.497	27.495	938	0	1.0910	OK	11-12-2024	08:40:01.974	537.553	37.580	OK
11-12-2024	08:40:02.073	537.652	7.497	7.497	27.495	938	0	1.0910	OK	11-12-2024	08:40:02.073	537.652	37.580	OK
11-12-2024	08:40:02.173	537.752	7.497	7.497	27.496	938	0	1.0909	OK	11-12-2024	08:40:02.173	537.752	37.581	OK
11-12-2024	08:40:02.343	537.922	7.497	7.497	27.496	938	0	1.0909	OK	11-12-2024	08:40:02.343	537.922	37.581	OK
11-12-2024	08:40:02.600	538.179	7.498	7.498	27.503	938	0	1.0904	OK	11-12-2024	08:40:02.600	538.179	37.580	OK
11-12-2024	08:40:02.774	538.353	7.498	7.498	27.501	937	0	1.0906	OK	11-12-2024	08:40:02.774	538.353	37.579	OK
11-12-2024	08:40:02.875	538.454	7.498	7.498	27.502	937	0	1.0905	OK	11-12-2024	08:40:02.875	538.454	37.579	OK
11-12-2024	08:40:02.974	538.553	7.497	7.497	27.494	937	0	1.0910	OK	11-12-2024	08:40:02.974	538.553	37.580	OK
11-12-2024	08:40:03.075	538.654	7.498	7.498	27.498	937	0	1.0908	OK	11-12-2024	08:40:03.075	538.654	37.580	OK
11-12-2024	08:40:03.175	538.754	7.497	7.497	27.495	938	0	1.0910	OK	11-12-2024	08:40:03.175	538.754	37.579	OK
11-12-2024	08:40:03.346	538.925	7.498	7.498	27.497	938	0	1.0908	OK	11-12-2024	08:40:03.346	538.925	37.578	OK
11-12-2024	08:40:03.606	539.185	7.498	7.498	27.500	938	0	1.0906	OK	11-12-2024	08:40:03.606	539.185	37.579	OK
11-12-2024	08:40:03.777	539.356	7.498	7.498	27.497	938	0	1.0908	OK	11-12-2024	08:40:03.777	539.356	37.579	OK
11-12-2024	08:40:03.876	539.455	7.497	7.497	27.492	938	0	1.0912	OK	11-12-2024	08:40:03.876	539.455	37.579	OK
11-12-2024	08:40:03.978	539.557	7.497	7.497	27.496	938	0	1.0909	OK	11-12-2024	08:40:03.978	539.557	37.580	OK
11-12-2024	08:40:04.080	539.659	7.497	7.497	27.496	938	0	1.0909	OK	11-12-2024	08:40:04.080	539.659	37.580	OK
11-12-2024	08:40:04.179	539.758	7.498	7.498	27.498	937	0	1.0908	OK	11-12-2024	08:40:04.179	539.758	37.578	OK
11-12-2024	08:40:04.349	539.928	7.498	7.498	27.497	938	0	1.0908	OK	11-12-2024	08:40:04.349	539.928	37.578	OK
11-12-2024	08:40:04.604	540.183	7.498	7.498	27.501	938	0	1.0906	OK	11-12-2024	08:40:04.604	540.183	37.577	OK
11-12-2024	08:40:04.780	540.359	7.499	7.499	27.504	938	0	1.0903	OK	11-12-2024	08:40:04.780	540.359	37.578	OK
11-12-2024	08:40:04.880	540.459	7.498	7.498	27.497	938	0	1.0908	OK	11-12-2024	08:40:04.880	540.459	37.578	OK
11-12-2024	08:40:04.981	540.560	7.497	7.497	27.494	938	0	1.0910	OK	11-12-2024	08:40:04.981	540.560	37.577	OK
11-12-2024	08:40:05.080	540.659	7.497	7.497	27.492	938	0	1.0912	OK	11-12-2024	08:40:05.080	540.659	37.577	OK
11-12-2024	08:40:05.181	540.760	7.497	7.497	27.495	938	0	1.0910	OK	11-12-2024	08:40:05.181	540.760	37.577	OK
11-12-2024	08:40:05.356	540.935	7.498	7.498	27.500	938	0	1.0906	OK	11-12-2024	08:40:05.356	540.935	37.576	OK
11-12-2024	08:40:05.610	541.189	7.498	7.498	27.500	938	0	1.0906	OK	11-12-2024	08:40:05.610	541.189	37.576	OK
11-12-2024	08:40:05.785	541.364	7.498	7.498	27.499	938	0	1.0907	OK	11-12-2024	08:40:05.785	541.364	37.577	OK
11-12-2024	08:40:05.885	541.464	7.498	7.498	27.499	938	0	1.0907	OK	11-12-2024	08:40:05.885	541.464	37.577	OK
11-12-2024	08:40:05.986	541.565	7.498	7.498	27.499	938	0	1.0907	OK	11-12-2024	08:40:05.986	541.565	37.577	OK
11-12-2024	08:40:06.086	541.665	7.497	7.497	27.493	938	0	1.0911	OK	11-12-2024	08:40:06.086	541.665	37.577	OK
11-12-2024	08:40:06.187	541.765	7.497	7.497	27.495	938	0	1.0910	OK	11-12-2024	08:40:06.187	541.765	37.576	OK
11-12-2024	08:40:06.373	541.952	7.498	7.498	27.498	938	0	1.0908	OK	11-12-2024	08:40:06.373	541.952	37.577	OK
11-12-2024	08:40:06.634	542.213	7.498	7.498	27.499	938	0	1.0907	OK	11-12-2024	08:40:06.634	542.213	37.577	OK
11-12-2024	08:40:06.790	542.369	7.498	7.498	27.499	938	0	1.0907	OK	11-12-2024	08:40:06.790	542.369	37.577	OK
11-12-2024	08:40:06.890	542.468	7.497	7.497	27.495	938	0	1.0910	OK	11-12-2024	08:40:06.890	542.468	37.577	OK
11-12-2024	08:40:06.989	542.568	7.498	7.498	27.497	938	0	1.0908	OK	11-12-2024	08:40:06.989	542.568	37.577	OK
11-12-2024	08:40:07.090	542.669	7.497	7.497	27.495	938	0	1.0910	OK	11-12-2024	08:40:07.090	542.669	37.577	OK
11-12-2024	08:40:07.191	542.770	7.498	7.498	27.496	938	0	1.0909	OK	11-12-2024	08:40:07.191	542.770	37.577	OK
11-12-2024	08:40:07.378	542.957	7.498	7.498	27.500	938	0	1.0906	OK	11-12-2024	08:40:07.378	542.957	37.577	OK
11-12-2024	08:40:07.631	543.210	7.499	7.499	27.503	938	0	1.0904	OK	11-12-2024	08:40:07.631	543.210	37.577	OK
11-12-2024	08:40:07.790	543.369	7.498	7.498	27.502	938	0	1.0905	OK	11-12-2024	08:40:07.790	543.369	37.576	OK
11-12-2024	08:40:07.890	543.469	7.497	7.497	27.495	938	0	1.0910	OK	11-12-2024	08:40:07.890	543.469	37.576	OK
11-12-2024	08:40:07.991	543.570	7.498	7.498	27.497	938	0	1.0908	OK	11-12-2024	08:40:07.991	543.570	37.575	OK
11-12-2024	08:40:08.091	543.670	7.498	7.498	27.497	938	0	1.0908	OK	11-12-2024	08:40:08.091	543.670	37.575	OK
11-12-2024	08:40:08.191	543.770	7.497	7.497	27.492	938	0	1.0912	OK	11-12-2024	08:40:08.191	543.770	37.575	OK
11-12-2024	08:40:08.361	543.940	7.497	7.497	27.495	938	0	1.0910	OK	11-12-2024	08:40:08.361	543.940	37.575	OK
11-12-2024	08:40:08.616	544.195	7.498	7.498	27.498	938	0	1.0908	OK	11-12-2024	08:40:08.616	544.195	37.576	OK
11-12-2024	08:40:08.790	544.369	7.498	7.498	27.496	938	0	1.0909	OK	11-12-2024	08:40:08.790	544.369	37.577	OK
11-12-2024	08:40:08.890	544.469	7.497	7.497	27.495	938	0	1.0910	OK	11-12-2024	08:40:08.890	544.469	37.577	OK
11-12-2024	08:40:08.993	544.572	7.497	7.497	27.492	938	0	1.0912	OK	11-12-2024	08:40:08.993	544.572	37.577	OK
11-12-2024	08:40:09.094	544.673	7.497	7.497	27.493	938	0	1.0911	OK	11-12-2024	08:40:09.094	544.673	37.577	OK
11-12-2024	08:40:09.192	544.771	7.497	7.497	27.491	938	0	1.0912	OK	11-12-2024	08:40:09.192	544.771	37.576	OK
11-12-2024	08:40:09.378	544.957	7.498	7.498	27.498	938	0	1.0908	OK	11-12-2024	08:40:09.378	544.957	37.576	OK
11-12-2024	08:40:09.634	545.213	7.498	7.498	27.502	938	0	1.0905	OK	11-12-2024	08:40:09.634	545.213	37.576	OK
11-12-2024	08:40:09.794	545.373	7.498	7.498	27.500	938	0	1.0906	OK	11-12-2024	08:40:09.794	545.373	37.576	OK
11-12-2024	08:40:09.894	545.473	7.498	7.498	27.499	938	0	1.0906	OK	11-12-2024	08:40:09.894	545.473	37.576	OK
11-12-2024	08:40:09.994	545.573	7.496	7.496	27.488	938	0	1.0914	OK	11-12-2024	08:40:09.994	545.573	37.575	OK
11-12-2024	08:40:10.094	545.673	7.497	7.497	27.493	938	0	1.0911	OK	11-12-2024	08:40:10.094	545.673	37.575	OK
11-12-2024	08:40:10.194	545.773	7.497	7.497	27.492	938	0	1.0911	OK	11-12-2024	08:40:10.194	545.773	37.574	OK
11-12-2024	08:40:10.363	545.942	7.497	7.497	27.494	938	0	1.0910	OK	11-12-2024	08:40:10.363	545.942	37.574	OK
11-12-2024	08:40:10.635	546.214	7.498	7.498	27.495	938	0	1.0909	OK	11-12-2024	08:40:10.635	546.214	37.575	OK
11-12-2024	08:40:10.795	546.374	7.497	7.497	27.495	938	0	1.0910	OK	11-12-2024	08:40:10.795	546.374	37.575	OK
11-12-2024	08:40:10.897	546.476	7.498	7.498	27.498	938	0	1.0908	OK	11-12-2024	08:40:10.897	546.476	37.575	OK
11-12-2024	08:40:10.996	546.575	7.497	7.497	27.493	938	0	1.0911	OK	11-12-2024	08:40:10.996	546.575	37.575	OK
11-12-2024	08:40:11.095	546.674	7.497	7.497	27.495	938	0	1.0910	OK	11-12-2024	08:40:11.095	546.674	37.576	OK
11-12-2024	08:40:11.196	546.775	7.497	7.497	27.491	938	0	1.0912	OK	11-12-2024	08:40:11.196	546.775	37.576	OK
11-12-2024	08:40:11.365	546.943	7.497	7.497	27.492	938	0	1.0912	OK	11-12-2024	08:40:11.365	546.943	37.576	OK
11-12-2024	08:40:11.633	547.212	7.498	7.498	27.496	938	0	1.0909	OK	11-12-2024	08:40:11.633	547.212	37.577	OK
11-12-2024	08:40:11.797	547.376	7.498	7.498	27.500	938	0	1.0906	OK	11-12-2024	08:40:11.797	547.376	37.577	OK
11-12-2024	08:40:11.897	547.475	7.498	7.498	27.497	938	0	1.0908	OK	11-12-2024	08:40:11.897	547.475	37.577	OK
11-12-2024	08:40:11.997	547.576	7.498	7.498	27.499	938	0	1.0906	OK	11-12-2024	08:40:11.997	547.576	37.577	OK
11-12-2024	08:40:12.098	547.676	7.498	7.498	27.496	938	0	1.0908	OK	11-12-2024	08:40:12.098	547.676	37.577	OK
11-12-2024	08:40:12.198	547.776	7.497	7.497	27.492	938	0	1.0911	OK	11-12-2024	08:40:12.198	547.776	37.577	OK
11-12-2024	08:40:12.371	547.950	7.498	7.498	27.499	938	0	1.0906	OK	11-12-2024	08:40:12.371	547.950	37.577	OK
11-12-2024	08:40:12.629	548.208	7.499	7.499	27.507	938	0	1.0901	OK	11-12-2024	08:40:12.629	548.208	37.577	OK
11-12-2024	08:40:12.797	548.376	7.498	7.498	27.497	938	0	1.0908	OK	11-12-2024	08:40:12.797	548.376	37.577	OK
11-12-2024	08:40:12.897	548.476	7.498	7.498	27.497	938	0	1.0908	OK	11-12-2024	08:40:12.897	548.476	37.578	OK
11-12-2024	08:40:12.998	548.576	7.498	7.498	27.496	938	0	1.0908	OK	11-12-2024	08:40:12.998	548.576	37.578	OK
11-12-2024	08:40:13.098	548.677	7.497	7.497	27.493	938	0	1.0911	OK	11-12-2024	08:40:13.098	548.677	37.578	OK
11-12-2024	08:40:13.197	548.776	7.497	7.497	27.494	938	0	1.0910	OK	11-12-2024	08:40:13.197	548.776	37.578	OK
11-12-2024	08:40:13.367	548.946	7.498	7.498	27.500	938	0	1.0906	OK	11-12-2024	08:40:13.367	548.946	37.578	OK
11-12-2024	08:40:13.640	549.219	7.498	7.498	27.496	938	0	1.0908	OK	11-12-2024	08:40:13.640	549.219	37.578	OK
11-12-2024	08:40:13.798	549.377	7.498	7.498	27.501	938	0	1.0906	OK	11-12-2024	08:40:13.798	549.377	37.578	OK
11-12-2024	08:40:13.896	549.475	7.498	7.498	27.500	938	0	1.0906	OK	11-12-2024	08:40:13.896	549.475	37.578	OK
11-12-2024	08:40:13.997	549.576	7.497	7.497	27.495	938	0	1.0910	OK	11-12-2024	08:40:13.997	549.576	37.578	OK
11-12-2024	08:40:14.097	549.676	7.497	7.497	27.493	938	0	1.0911	OK	11-12-2024	08:40:14.097	549.676	37.577	OK
11-12-2024	08:40:14.197	549.776	7.497	7.497	27.494	938	0	1.0910	OK	11-12-2024	08:40:14.197	549.776	37.577	OK
11-12-2024	08:40:14.368	549.947	7.497	7.497	27.495	938	0	1.0910	OK	11-12-2024	08:40:14.368	549.947	37.577	OK
11-12-2024	08:40:14.624	550.203	7.498	7.498	27.502	938	0	1.0905	OK	11-12-2024	08:40:14.624	550.203	37.577	OK
11-12-2024	08:40:14.798	550.377	7.498	7.498	27.498	938	0	1.0907	OK	11-12-2024	08:40:14.798	550.377	37.576	OK
11-12-2024	08:40:14.896	550.475	7.498	7.498	27.495	938	0	1.0909	OK	11-12-2024	08:40:14.896	550.475	37.575	OK
11-12-2024	08:40:14.998	550.577	7.498	7.498	27.496	938	0	1.0908	OK	11-12-2024	08:40:14.998	550.577	37.575	OK
11-12-2024	08:40:15.097	550.676	7.497	7.497	27.493	938	0	1.0911	OK	11-12-2024	08:40:15.097	550.676	37.575	OK
11-12-2024	08:40:15.198	550.776	7.497	7.497	27.490	938	0	1.0913	OK	11-12-2024	08:40:15.198	550.776	37.575	OK
11-12-2024	08:40:15.367	550.946	7.498	7.498	27.497	938	0	1.0908	OK	11-12-2024	08:40:15.367	550.946	37.574	OK
11-12-2024	08:40:15.621	551.200	7.499	7.499	27.502	938	0	1.0904	OK	11-12-2024	08:40:15.621	551.200	37.573	OK
11-12-2024	08:40:15.797	551.376	7.498	7.498	27.500	938	0	1.0906	OK	11-12-2024	08:40:15.797	551.376	37.573	OK
11-12-2024	08:40:15.898	551.477	7.497	7.497	27.495	938	0	1.0910	OK	11-12-2024	08:40:15.898	551.477	37.574	OK
11-12-2024	08:40:15.997	551.576	7.497	7.497	27.495	938	0	1.0910	OK	11-12-2024	08:40:15.997	551.576	37.574	OK
11-12-2024	08:40:16.097	551.676	7.497	7.497	27.491	938	0	1.0912	OK	11-12-2024	08:40:16.097	551.676	37.573	OK
11-12-2024	08:40:16.198	551.777	7.497	7.497	27.495	938	0	1.0910	OK	11-12-2024	08:40:16.198	551.777	37.573	OK
11-12-2024	08:40:16.367	551.946	7.498	7.498	27.498	938	0	1.0908	OK	11-12-2024	08:40:16.367	551.946	37.573	OK
11-12-2024	08:40:16.622	552.201	7.498	7.498	27.498	938	0	1.0908	OK	11-12-2024	08:40:16.622	552.201	37.573	OK
11-12-2024	08:40:16.798	552.377	7.498	7.498	27.502	938	0	1.0905	OK	11-12-2024	08:40:16.798	552.377	37.574	OK
11-12-2024	08:40:16.898	552.477	7.498	7.498	27.498	938	0	1.0908	OK	11-12-2024	08:40:16.898	552.477	37.574	OK
11-12-2024	08:40:16.998	552.577	7.498	7.498	27.498	938	0	1.0908	OK	11-12-2024	08:40:16.998	552.577	37.574	OK
11-12-2024	08:40:17.100	552.679	7.498	7.498	27.498	938	0	1.0908	OK	11-12-2024	08:40:17.100	552.679	37.574	OK
11-12-2024	08:40:17.200	552.779	7.498	7.498	27.496	938	0	1.0909	OK	11-12-2024	08:40:17.200	552.779	37.574	OK
11-12-2024	08:40:17.386	552.965	7.498	7.498	27.498	938	0	1.0908	OK	11-12-2024	08:40:17.386	552.965	37.574	OK
11-12-2024	08:40:17.642	553.221	7.498	7.498	27.500	938	0	1.0906	OK	11-12-2024	08:40:17.642	553.221	37.574	OK
11-12-2024	08:40:17.800	553.379	7.498	7.498	27.499	938	0	1.0907	OK	11-12-2024	08:40:17.800	553.379	37.573	OK
11-12-2024	08:40:17.901	553.480	7.497	7.497	27.495	938	0	1.0910	OK	11-12-2024	08:40:17.901	553.480	37.573	OK
11-12-2024	08:40:18.001	553.580	7.497	7.497	27.495	938	0	1.0910	OK	11-12-2024	08:40:18.001	553.580	37.573	OK
11-12-2024	08:40:18.101	553.680	7.497	7.497	27.493	938	0	1.0911	OK	11-12-2024	08:40:18.101	553.680	37.573	OK
11-12-2024	08:40:18.204	553.783	7.498	7.498	27.496	938	0	1.0909	OK	11-12-2024	08:40:18.204	553.783	37.573	OK
11-12-2024	08:40:18.376	553.955	7.498	7.498	27.498	938	0	1.0908	OK	11-12-2024	08:40:18.376	553.955	37.573	OK
11-12-2024	08:40:18.650	554.228	7.498	7.498	27.501	938	0	1.0906	OK	11-12-2024	08:40:18.650	554.228	37.573	OK
11-12-2024	08:40:18.804	554.383	7.499	7.499	27.504	938	0	1.0903	OK	11-12-2024	08:40:18.804	554.383	37.573	OK
11-12-2024	08:40:18.905	554.484	7.498	7.498	27.496	938	0	1.0909	OK	11-12-2024	08:40:18.905	554.484	37.573	OK
11-12-2024	08:40:19.104	554.683	7.499	7.499	27.503	938	0	1.0904	OK	11-12-2024	08:40:19.104	554.683	37.573	OK
11-12-2024	08:40:19.205	554.783	7.497	7.497	27.495	938	0	1.0910	OK	11-12-2024	08:40:19.205	554.783	37.572	OK
11-12-2024	08:40:19.376	554.955	7.498	7.498	27.498	938	0	1.0908	OK	11-12-2024	08:40:19.376	554.955	37.571	OK
11-12-2024	08:40:19.637	555.216	7.499	7.499	27.503	938	0	1.0904	OK	11-12-2024	08:40:19.637	555.216	37.571	OK
11-12-2024	08:40:19.806	555.385	7.498	7.498	27.500	938	0	1.0906	OK	11-12-2024	08:40:19.806	555.385	37.571	OK
11-12-2024	08:40:19.906	555.485	7.498	7.498	27.499	938	0	1.0906	OK	11-12-2024	08:40:19.906	555.485	37.571	OK
11-12-2024	08:40:20.006	555.585	7.497	7.497	27.493	938	0	1.0911	OK	11-12-2024	08:40:20.006	555.585	37.571	OK
11-12-2024	08:40:20.107	555.685	7.498	7.498	27.495	938	0	1.0909	OK	11-12-2024	08:40:20.107	555.685	37.571	OK
11-12-2024	08:40:20.207	555.786	7.498	7.498	27.495	938	0	1.0909	OK	11-12-2024	08:40:20.207	555.786	37.570	OK
11-12-2024	08:40:20.375	555.954	7.498	7.498	27.497	938	0	1.0908	OK	11-12-2024	08:40:20.375	555.954	37.570	OK
11-12-2024	08:40:20.631	556.210	7.498	7.498	27.500	938	0	1.0906	OK	11-12-2024	08:40:20.631	556.210	37.571	OK
11-12-2024	08:40:20.808	556.387	7.498	7.498	27.500	938	0	1.0906	OK	11-12-2024	08:40:20.808	556.387	37.572	OK
11-12-2024	08:40:20.908	556.487	7.498	7.498	27.499	938	0	1.0906	OK	11-12-2024	08:40:20.908	556.487	37.572	OK
11-12-2024	08:40:21.009	556.587	7.498	7.498	27.496	938	0	1.0908	OK	11-12-2024	08:40:21.009	556.587	37.572	OK
11-12-2024	08:40:21.109	556.688	7.498	7.498	27.495	938	0	1.0909	OK	11-12-2024	08:40:21.109	556.688	37.572	OK
11-12-2024	08:40:21.209	556.788	7.497	7.497	27.493	938	0	1.0911	OK	11-12-2024	08:40:21.209	556.788	37.572	OK
11-12-2024	08:40:21.378	556.957	7.498	7.498	27.496	938	0	1.0908	OK	11-12-2024	08:40:21.378	556.957	37.572	OK
11-12-2024	08:40:21.647	557.226	7.498	7.498	27.499	938	0	1.0906	OK	11-12-2024	08:40:21.647	557.226	37.572	OK
11-12-2024	08:40:21.808	557.387	7.498	7.498	27.500	938	0	1.0906	OK	11-12-2024	08:40:21.808	557.387	37.572	OK
11-12-2024	08:40:21.907	557.486	7.498	7.498	27.496	938	0	1.0908	OK	11-12-2024	08:40:21.907	557.486	37.572	OK
11-12-2024	08:40:22.008	557.587	7.498	7.498	27.495	938	0	1.0909	OK	11-12-2024	08:40:22.008	557.587	37.572	OK
11-12-2024	08:40:22.108	557.687	7.497	7.497	27.494	938	0	1.0910	OK	11-12-2024	08:40:22.108	557.687	37.572	OK
11-12-2024	08:40:22.208	557.787	7.497	7.497	27.491	938	0	1.0912	OK	11-12-2024	08:40:22.208	557.787	37.572	OK
11-12-2024	08:40:22.380	557.959	7.498	7.498	27.498	938	0	1.0907	OK	11-12-2024	08:40:22.380	557.959	37.572	OK
11-12-2024	08:40:22.655	558.233	7.498	7.498	27.499	938	0	1.0906	OK	11-12-2024	08:40:22.655	558.233	37.574	OK
11-12-2024	08:40:22.808	558.387	7.498	7.498	27.499	938	0	1.0906	OK	11-12-2024	08:40:22.808	558.387	37.575	OK
11-12-2024	08:40:22.908	558.487	7.498	7.498	27.497	938	0	1.0908	OK	11-12-2024	08:40:22.908	558.487	37.575	OK
11-12-2024	08:40:23.009	558.588	7.498	7.498	27.497	938	0	1.0908	OK	11-12-2024	08:40:23.009	558.588	37.575	OK
11-12-2024	08:40:23.109	558.688	7.498	7.498	27.495	938	0	1.0909	OK	11-12-2024	08:40:23.109	558.688	37.575	OK
11-12-2024	08:40:23.210	558.789	7.497	7.497	27.494	938	0	1.0910	OK	11-12-2024	08:40:23.210	558.789	37.575	OK
11-12-2024	08:40:23.380	558.959	7.498	7.498	27.496	938	0	1.0908	OK	11-12-2024	08:40:23.380	558.959	37.575	OK
11-12-2024	08:40:23.637	559.216	7.499	7.499	27.502	938	0	1.0904	OK	11-12-2024	08:40:23.637	559.216	37.575	OK
11-12-2024	08:40:23.811	559.390	7.498	7.498	27.499	938	0	1.0906	OK	11-12-2024	08:40:23.811	559.390	37.575	OK
11-12-2024	08:40:23.911	559.489	7.498	7.498	27.497	938	0	1.0908	OK	11-12-2024	08:40:23.911	559.489	37.575	OK
11-12-2024	08:40:24.011	559.590	7.497	7.497	27.492	938	0	1.0911	OK	11-12-2024	08:40:24.011	559.590	37.573	OK
11-12-2024	08:40:24.112	559.691	7.498	7.498	27.497	938	0	1.0908	OK	11-12-2024	08:40:24.112	559.691	37.573	OK
11-12-2024	08:40:24.213	559.792	7.497	7.497	27.494	938	0	1.0910	OK	11-12-2024	08:40:24.213	559.792	37.574	OK
11-12-2024	08:40:24.386	559.965	7.498	7.498	27.496	938	0	1.0908	OK	11-12-2024	08:40:24.386	559.965	37.574	OK
11-12-2024	08:40:24.647	560.226	7.498	7.498	27.500	938	0	1.0906	OK	11-12-2024	08:40:24.647	560.226	37.575	OK
11-12-2024	08:40:24.814	560.393	7.499	7.499	27.503	938	0	1.0904	OK	11-12-2024	08:40:24.814	560.393	37.575	OK
11-12-2024	08:40:24.914	560.493	7.498	7.498	27.497	938	0	1.0908	OK	11-12-2024	08:40:24.914	560.493	37.575	OK
11-12-2024	08:40:25.014	560.593	7.498	7.498	27.497	938	0	1.0908	OK	11-12-2024	08:40:25.014	560.593	37.574	OK
11-12-2024	08:40:25.114	560.693	7.497	7.497	27.493	938	0	1.0911	OK	11-12-2024	08:40:25.114	560.693	37.574	OK
11-12-2024	08:40:25.215	560.794	7.497	7.497	27.493	938	0	1.0911	OK	11-12-2024	08:40:25.215	560.794	37.573	OK
11-12-2024	08:40:25.386	560.965	7.497	7.497	27.492	938	0	1.0911	OK	11-12-2024	08:40:25.386	560.965	37.573	OK
11-12-2024	08:40:25.658	561.237	7.498	7.498	27.501	938	0	1.0905	OK	11-12-2024	08:40:25.658	561.237	37.573	OK
11-12-2024	08:40:25.817	561.396	7.499	7.499	27.502	938	0	1.0904	OK	11-12-2024	08:40:25.817	561.396	37.572	OK
11-12-2024	08:40:25.917	561.496	7.497	7.497	27.494	938	0	1.0910	OK	11-12-2024	08:40:25.917	561.496	37.572	OK
11-12-2024	08:40:26.016	561.595	7.497	7.497	27.493	938	0	1.0910	OK	11-12-2024	08:40:26.016	561.595	37.572	OK
11-12-2024	08:40:26.116	561.694	7.498	7.498	27.497	938	0	1.0907	OK	11-12-2024	08:40:26.116	561.694	37.572	OK
11-12-2024	08:40:26.216	561.795	7.498	7.498	27.494	938	0	1.0909	OK	11-12-2024	08:40:26.216	561.795	37.572	OK
11-12-2024	08:40:26.387	561.966	7.498	7.498	27.495	938	0	1.0909	OK	11-12-2024	08:40:26.387	561.966	37.572	OK
11-12-2024	08:40:26.647	562.226	7.498	7.498	27.499	938	0	1.0906	OK	11-12-2024	08:40:26.647	562.226	37.573	OK
11-12-2024	08:40:26.819	562.398	7.498	7.498	27.500	938	0	1.0905	OK	11-12-2024	08:40:26.819	562.398	37.573	OK
11-12-2024	08:40:26.919	562.498	7.498	7.498	27.498	938	0	1.0907	OK	11-12-2024	08:40:26.919	562.498	37.573	OK
11-12-2024	08:40:27.019	562.598	7.498	7.498	27.495	938	0	1.0909	OK	11-12-2024	08:40:27.019	562.598	37.573	OK
11-12-2024	08:40:27.120	562.699	7.498	7.498	27.497	938	0	1.0908	OK	11-12-2024	08:40:27.120	562.699	37.573	OK
11-12-2024	08:40:27.220	562.799	7.497	7.497	27.493	938	0	1.0911	OK	11-12-2024	08:40:27.220	562.799	37.573	OK
11-12-2024	08:40:27.390	562.969	7.498	7.498	27.498	938	0	1.0907	OK	11-12-2024	08:40:27.390	562.969	37.573	OK
11-12-2024	08:40:27.664	563.243	7.498	7.498	27.501	938	0	1.0905	OK	11-12-2024	08:40:27.664	563.243	37.573	OK
11-12-2024	08:40:27.821	563.400	7.498	7.498	27.499	938	0	1.0906	OK	11-12-2024	08:40:27.821	563.400	37.573	OK
11-12-2024	08:40:27.921	563.500	7.497	7.497	27.492	938	0	1.0911	OK	11-12-2024	08:40:27.921	563.500	37.574	OK
11-12-2024	08:40:28.021	563.600	7.497	7.497	27.493	938	0	1.0911	OK	11-12-2024	08:40:28.021	563.600	37.574	OK
11-12-2024	08:40:28.121	563.700	7.497	7.497	27.494	938	0	1.0910	OK	11-12-2024	08:40:28.121	563.700	37.575	OK
11-12-2024	08:40:28.221	563.800	7.498	7.498	27.495	938	0	1.0909	OK	11-12-2024	08:40:28.221	563.800	37.575	OK
11-12-2024	08:40:28.390	563.969	7.498	7.498	27.499	938	0	1.0906	OK	11-12-2024	08:40:28.390	563.969	37.575	OK
11-12-2024	08:40:28.646	564.224	7.498	7.498	27.497	938	0	1.0908	OK	11-12-2024	08:40:28.646	564.224	37.576	OK
11-12-2024	08:40:28.823	564.402	7.498	7.498	27.498	938	0	1.0907	OK	11-12-2024	08:40:28.823	564.402	37.577	OK
11-12-2024	08:40:28.923	564.502	7.497	7.497	27.495	938	0	1.0909	OK	11-12-2024	08:40:28.923	564.502	37.577	OK
11-12-2024	08:40:29.124	564.703	7.497	7.497	27.495	938	0	1.0909	OK	11-12-2024	08:40:29.124	564.703	37.577	OK
11-12-2024	08:40:29.224	564.803	7.497	7.497	27.492	938	0	1.0911	OK	11-12-2024	08:40:29.224	564.803	37.577	OK
11-12-2024	08:40:29.392	564.971	7.498	7.498	27.498	938	0	1.0907	OK	11-12-2024	08:40:29.392	564.971	37.577	OK
11-12-2024	08:40:29.652	565.230	7.498	7.498	27.500	938	0	1.0906	OK	11-12-2024	08:40:29.652	565.230	37.576	OK
11-12-2024	08:40:29.827	565.406	7.498	7.498	27.497	938	0	1.0908	OK	11-12-2024	08:40:29.827	565.406	37.576	OK
11-12-2024	08:40:29.928	565.506	7.498	7.498	27.500	938	0	1.0906	OK	11-12-2024	08:40:29.928	565.506	37.576	OK
11-12-2024	08:40:30.029	565.608	7.498	7.498	27.497	938	0	1.0908	OK	11-12-2024	08:40:30.029	565.608	37.576	OK
11-12-2024	08:40:30.128	565.707	7.498	7.498	27.496	938	0	1.0908	OK	11-12-2024	08:40:30.128	565.707	37.577	OK
11-12-2024	08:40:30.333	565.912	7.498	7.498	27.498	938	0	1.0907	OK	11-12-2024	08:40:30.333	565.912	37.577	OK
11-12-2024	08:40:30.597	566.176	7.499	7.499	27.507	938	0	1.0901	OK	11-12-2024	08:40:30.597	566.176	37.577	OK
11-12-2024	08:40:30.728	566.307	7.497	7.497	27.495	938	0	1.0909	OK	11-12-2024	08:40:30.728	566.307	37.578	OK
11-12-2024	08:40:30.828	566.407	7.498	7.498	27.497	938	0	1.0908	OK	11-12-2024	08:40:30.828	566.407	37.578	OK
11-12-2024	08:40:30.928	566.507	7.497	7.497	27.495	938	0	1.0909	OK	11-12-2024	08:40:30.928	566.507	37.578	OK
11-12-2024	08:40:31.029	566.608	7.497	7.497	27.494	938	0	1.0910	OK	11-12-2024	08:40:31.029	566.608	37.578	OK
11-12-2024	08:40:31.129	566.708	7.497	7.497	27.492	938	0	1.0911	OK	11-12-2024	08:40:31.129	566.708	37.578	OK
11-12-2024	08:40:31.230	566.809	7.497	7.497	27.492	938	0	1.0911	OK	11-12-2024	08:40:31.230	566.809	37.578	OK
11-12-2024	08:40:31.399	566.978	7.497	7.497	27.495	938	0	1.0909	OK	11-12-2024	08:40:31.399	566.978	37.578	OK
11-12-2024	08:40:31.657	567.235	7.498	7.498	27.498	938	0	1.0907	OK	11-12-2024	08:40:31.657	567.235	37.579	OK
11-12-2024	08:40:31.830	567.409	7.498	7.498	27.500	938	0	1.0906	OK	11-12-2024	08:40:31.830	567.409	37.579	OK
11-12-2024	08:40:31.929	567.508	7.497	7.497	27.493	938	0	1.0911	OK	11-12-2024	08:40:31.929	567.508	37.579	OK
11-12-2024	08:40:32.030	567.609	7.498	7.498	27.496	938	0	1.0908	OK	11-12-2024	08:40:32.030	567.609	37.579	OK
11-12-2024	08:40:32.131	567.710	7.497	7.497	27.492	938	0	1.0911	OK	11-12-2024	08:40:32.131	567.710	37.579	OK
11-12-2024	08:40:32.232	567.811	7.497	7.497	27.493	938	0	1.0911	OK	11-12-2024	08:40:32.232	567.811	37.579	OK
11-12-2024	08:40:32.405	567.984	7.497	7.497	27.495	938	0	1.0909	OK	11-12-2024	08:40:32.405	567.984	37.579	OK
11-12-2024	08:40:32.666	568.245	7.498	7.498	27.499	938	0	1.0906	OK	11-12-2024	08:40:32.666	568.245	37.577	OK
11-12-2024	08:40:32.832	568.411	7.498	7.498	27.500	938	0	1.0906	OK	11-12-2024	08:40:32.832	568.411	37.578	OK
11-12-2024	08:40:32.934	568.513	7.498	7.498	27.496	938	0	1.0908	OK	11-12-2024	08:40:32.934	568.513	37.579	OK
11-12-2024	08:40:33.035	568.613	7.497	7.497	27.495	938	0	1.0909	OK	11-12-2024	08:40:33.035	568.613	37.579	OK
11-12-2024	08:40:33.133	568.712	7.497	7.497	27.490	938	0	1.0912	OK	11-12-2024	08:40:33.133	568.712	37.579	OK
11-12-2024	08:40:33.235	568.814	7.497	7.497	27.493	938	0	1.0910	OK	11-12-2024	08:40:33.235	568.814	37.579	OK
11-12-2024	08:40:33.403	568.982	7.498	7.498	27.498	938	0	1.0907	OK	11-12-2024	08:40:33.403	568.982	37.580	OK
11-12-2024	08:40:33.659	569.238	7.498	7.498	27.500	938	0	1.0905	OK	11-12-2024	08:40:33.659	569.238	37.580	OK
11-12-2024	08:40:33.834	569.413	7.498	7.498	27.497	938	0	1.0907	OK	11-12-2024	08:40:33.834	569.413	37.580	OK
11-12-2024	08:40:33.934	569.513	7.497	7.497	27.493	938	0	1.0910	OK	11-12-2024	08:40:33.934	569.513	37.580	OK
11-12-2024	08:40:34.033	569.612	7.497	7.497	27.493	938	0	1.0910	OK	11-12-2024	08:40:34.033	569.612	37.580	OK
11-12-2024	08:40:34.135	569.714	7.497	7.497	27.488	938	0	1.0914	OK	11-12-2024	08:40:34.135	569.714	37.580	OK
11-12-2024	08:40:34.236	569.814	7.497	7.497	27.493	938	0	1.0910	OK	11-12-2024	08:40:34.236	569.814	37.580	OK
11-12-2024	08:40:34.407	569.986	7.497	7.497	27.494	938	0	1.0909	OK	11-12-2024	08:40:34.407	569.986	37.580	OK
11-12-2024	08:40:34.678	570.257	7.498	7.498	27.498	938	0	1.0907	OK	11-12-2024	08:40:34.678	570.257	37.580	OK
11-12-2024	08:40:34.838	570.416	7.498	7.498	27.498	938	0	1.0907	OK	11-12-2024	08:40:34.838	570.416	37.579	OK
11-12-2024	08:40:34.937	570.516	7.498	7.498	27.496	938	0	1.0908	OK	11-12-2024	08:40:34.937	570.516	37.579	OK
11-12-2024	08:40:35.037	570.616	7.497	7.497	27.494	938	0	1.0909	OK	11-12-2024	08:40:35.037	570.616	37.579	OK
11-12-2024	08:40:35.137	570.716	7.498	7.498	27.496	938	0	1.0908	OK	11-12-2024	08:40:35.137	570.716	37.579	OK
11-12-2024	08:40:35.237	570.816	7.497	7.497	27.490	938	0	1.0913	OK	11-12-2024	08:40:35.237	570.816	37.579	OK
11-12-2024	08:40:35.406	570.985	7.497	7.497	27.495	938	0	1.0909	OK	11-12-2024	08:40:35.406	570.985	37.580	OK
11-12-2024	08:40:35.662	571.241	7.499	7.499	27.503	938	0	1.0904	OK	11-12-2024	08:40:35.662	571.241	37.580	OK
11-12-2024	08:40:35.837	571.416	7.498	7.498	27.498	938	0	1.0907	OK	11-12-2024	08:40:35.837	571.416	37.581	OK
11-12-2024	08:40:35.938	571.517	7.497	7.497	27.493	938	0	1.0911	OK	11-12-2024	08:40:35.938	571.517	37.581	OK
11-12-2024	08:40:36.039	571.618	7.497	7.497	27.494	938	0	1.0910	OK	11-12-2024	08:40:36.039	571.618	37.582	OK
11-12-2024	08:40:36.140	571.719	7.498	7.498	27.497	938	0	1.0908	OK	11-12-2024	08:40:36.140	571.719	37.582	OK
11-12-2024	08:40:36.239	571.818	7.497	7.497	27.494	938	0	1.0910	OK	11-12-2024	08:40:36.239	571.818	37.581	OK
11-12-2024	08:40:36.412	571.991	7.497	7.497	27.493	938	0	1.0911	OK	11-12-2024	08:40:36.412	571.991	37.581	OK
11-12-2024	08:40:36.687	572.266	7.498	7.498	27.499	938	0	1.0906	OK	11-12-2024	08:40:36.687	572.266	37.580	OK
11-12-2024	08:40:36.841	572.420	7.498	7.498	27.501	938	0	1.0905	OK	11-12-2024	08:40:36.841	572.420	37.580	OK
11-12-2024	08:40:36.943	572.522	7.497	7.497	27.494	938	0	1.0910	OK	11-12-2024	08:40:36.943	572.522	37.580	OK
11-12-2024	08:40:37.043	572.622	7.498	7.498	27.496	938	0	1.0908	OK	11-12-2024	08:40:37.043	572.622	37.579	OK
11-12-2024	08:40:37.143	572.722	7.497	7.497	27.493	938	0	1.0910	OK	11-12-2024	08:40:37.143	572.722	37.579	OK
11-12-2024	08:40:37.244	572.823	7.498	7.498	27.495	938	0	1.0909	OK	11-12-2024	08:40:37.244	572.823	37.579	OK
11-12-2024	08:40:37.416	572.995	7.498	7.498	27.496	938	0	1.0908	OK	11-12-2024	08:40:37.416	572.995	37.579	OK
11-12-2024	08:40:37.675	573.254	7.498	7.498	27.501	938	0	1.0905	OK	11-12-2024	08:40:37.675	573.254	37.580	OK
11-12-2024	08:40:37.845	573.424	7.498	7.498	27.499	938	0	1.0906	OK	11-12-2024	08:40:37.845	573.424	37.579	OK
11-12-2024	08:40:37.945	573.524	7.498	7.498	27.497	938	0	1.0907	OK	11-12-2024	08:40:37.945	573.524	37.579	OK
11-12-2024	08:40:38.047	573.626	7.498	7.498	27.495	938	0	1.0909	OK	11-12-2024	08:40:38.047	573.626	37.580	OK
11-12-2024	08:40:38.147	573.726	7.497	7.497	27.491	938	0	1.0911	OK	11-12-2024	08:40:38.147	573.726	37.580	OK
11-12-2024	08:40:38.247	573.826	7.497	7.497	27.491	938	0	1.0911	OK	11-12-2024	08:40:38.247	573.826	37.579	OK
11-12-2024	08:40:38.416	573.995	7.498	7.498	27.495	938	0	1.0909	OK	11-12-2024	08:40:38.416	573.995	37.581	OK
11-12-2024	08:40:38.671	574.250	7.498	7.498	27.499	938	0	1.0906	OK	11-12-2024	08:40:38.671	574.250	37.580	OK
11-12-2024	08:40:38.852	574.431	7.498	7.498	27.500	938	0	1.0905	OK	11-12-2024	08:40:38.852	574.431	37.579	OK
11-12-2024	08:40:38.949	574.528	7.498	7.498	27.495	938	0	1.0909	OK	11-12-2024	08:40:38.949	574.528	37.579	OK
11-12-2024	08:40:39.049	574.628	7.498	7.498	27.495	938	0	1.0909	OK	11-12-2024	08:40:39.049	574.628	37.579	OK
11-12-2024	08:40:39.149	574.728	7.498	7.498	27.495	938	0	1.0909	OK	11-12-2024	08:40:39.149	574.728	37.579	OK
11-12-2024	08:40:39.250	574.829	7.497	7.497	27.493	938	0	1.0910	OK	11-12-2024	08:40:39.250	574.829	37.579	OK
11-12-2024	08:40:39.418	574.997	7.497	7.497	27.492	938	0	1.0911	OK	11-12-2024	08:40:39.418	574.997	37.579	OK
11-12-2024	08:40:39.677	575.256	7.498	7.498	27.500	938	0	1.0905	OK	11-12-2024	08:40:39.677	575.256	37.579	OK
11-12-2024	08:40:39.852	575.431	7.498	7.498	27.496	938	0	1.0908	OK	11-12-2024	08:40:39.852	575.431	37.579	OK
11-12-2024	08:40:39.951	575.530	7.498	7.498	27.495	938	0	1.0909	OK	11-12-2024	08:40:39.951	575.530	37.579	OK
11-12-2024	08:40:40.051	575.630	7.497	7.497	27.494	938	0	1.0909	OK	11-12-2024	08:40:40.051	575.630	37.578	OK
11-12-2024	08:40:40.157	575.736	7.497	7.497	27.494	938	0	1.0909	OK	11-12-2024	08:40:40.157	575.736	37.578	OK
11-12-2024	08:40:40.337	575.916	7.498	7.498	27.497	938	0	1.0907	OK	11-12-2024	08:40:40.337	575.916	37.578	OK
11-12-2024	08:40:40.593	576.172	7.498	7.498	27.496	938	0	1.0908	OK	11-12-2024	08:40:40.593	576.172	37.578	OK
11-12-2024	08:40:40.752	576.331	7.498	7.498	27.495	938	0	1.0909	OK	11-12-2024	08:40:40.752	576.331	37.578	OK
11-12-2024	08:40:40.853	576.432	7.498	7.498	27.496	938	0	1.0908	OK	11-12-2024	08:40:40.853	576.432	37.577	OK
11-12-2024	08:40:40.951	576.530	7.498	7.498	27.495	938	0	1.0909	OK	11-12-2024	08:40:40.951	576.530	37.577	OK
11-12-2024	08:40:41.052	576.630	7.497	7.497	27.492	938	0	1.0911	OK	11-12-2024	08:40:41.052	576.630	37.577	OK
11-12-2024	08:40:41.152	576.731	7.497	7.497	27.491	938	0	1.0911	OK	11-12-2024	08:40:41.152	576.731	37.577	OK
11-12-2024	08:40:41.335	576.914	7.498	7.498	27.498	938	0	1.0907	OK	11-12-2024	08:40:41.335	576.914	37.578	OK
11-12-2024	08:40:41.592	577.170	7.498	7.498	27.499	938	0	1.0906	OK	11-12-2024	08:40:41.592	577.170	37.577	OK
11-12-2024	08:40:41.753	577.332	7.498	7.498	27.496	938	0	1.0908	OK	11-12-2024	08:40:41.753	577.332	37.577	OK
11-12-2024	08:40:41.853	577.432	7.498	7.498	27.495	938	0	1.0909	OK	11-12-2024	08:40:41.853	577.432	37.577	OK
11-12-2024	08:40:41.953	577.532	7.497	7.497	27.491	938	0	1.0911	OK	11-12-2024	08:40:41.953	577.532	37.577	OK
11-12-2024	08:40:42.054	577.633	7.498	7.498	27.496	938	0	1.0908	OK	11-12-2024	08:40:42.054	577.633	37.579	OK
11-12-2024	08:40:42.154	577.733	7.498	7.498	27.496	938	0	1.0908	OK	11-12-2024	08:40:42.154	577.733	37.579	OK
11-12-2024	08:40:42.337	577.916	7.497	7.497	27.493	938	0	1.0910	OK	11-12-2024	08:40:42.337	577.916	37.579	OK
11-12-2024	08:40:42.595	578.174	7.498	7.498	27.499	937	0	1.0906	OK	11-12-2024	08:40:42.595	578.174	37.577	OK
11-12-2024	08:40:42.757	578.336	7.498	7.498	27.501	938	0	1.0905	OK	11-12-2024	08:40:42.757	578.336	37.578	OK
11-12-2024	08:40:42.856	578.435	7.497	7.497	27.493	937	0	1.0910	OK	11-12-2024	08:40:42.856	578.435	37.578	OK
11-12-2024	08:40:42.957	578.536	7.498	7.498	27.497	937	0	1.0907	OK	11-12-2024	08:40:42.957	578.536	37.578	OK
11-12-2024	08:40:43.057	578.636	7.497	7.497	27.492	937	0	1.0911	OK	11-12-2024	08:40:43.057	578.636	37.579	OK
11-12-2024	08:40:43.158	578.737	7.498	7.498	27.495	938	0	1.0909	OK	11-12-2024	08:40:43.158	578.737	37.579	OK
11-12-2024	08:40:43.340	578.919	7.498	7.498	27.495	937	0	1.0909	OK	11-12-2024	08:40:43.340	578.919	37.579	OK
11-12-2024	08:40:43.593	579.171	7.498	7.498	27.499	937	0	1.0906	OK	11-12-2024	08:40:43.593	579.171	37.580	OK
11-12-2024	08:40:43.757	579.336	7.499	7.499	27.504	937	0	1.0902	OK	11-12-2024	08:40:43.757	579.336	37.580	OK
11-12-2024	08:40:43.857	579.436	7.498	7.498	27.497	938	0	1.0907	OK	11-12-2024	08:40:43.857	579.436	37.580	OK
11-12-2024	08:40:44.058	579.637	7.498	7.498	27.500	938	0	1.0905	OK	11-12-2024	08:40:44.058	579.637	37.580	OK
11-12-2024	08:40:44.157	579.736	7.498	7.498	27.500	937	0	1.0905	OK	11-12-2024	08:40:44.157	579.736	37.580	OK
11-12-2024	08:40:44.339	579.918	7.498	7.498	27.501	937	0	1.0905	OK	11-12-2024	08:40:44.339	579.918	37.580	OK
11-12-2024	08:40:44.610	580.189	7.499	7.499	27.504	938	0	1.0903	OK	11-12-2024	08:40:44.610	580.189	37.579	OK
11-12-2024	08:40:44.758	580.337	7.499	7.499	27.505	938	0	1.0902	OK	11-12-2024	08:40:44.758	580.337	37.579	OK
11-12-2024	08:40:44.858	580.437	7.498	7.498	27.497	937	0	1.0908	OK	11-12-2024	08:40:44.858	580.437	37.579	OK
11-12-2024	08:40:44.958	580.537	7.498	7.498	27.497	937	0	1.0908	OK	11-12-2024	08:40:44.958	580.537	37.577	OK
11-12-2024	08:40:45.058	580.637	7.498	7.498	27.498	937	0	1.0907	OK	11-12-2024	08:40:45.058	580.637	37.577	OK
11-12-2024	08:40:45.159	580.738	7.497	7.497	27.494	938	0	1.0910	OK	11-12-2024	08:40:45.159	580.738	37.577	OK
11-12-2024	08:40:45.340	580.919	7.497	7.497	27.494	937	0	1.0909	OK	11-12-2024	08:40:45.340	580.919	37.577	OK
11-12-2024	08:40:45.613	581.192	7.498	7.498	27.501	938	0	1.0905	OK	11-12-2024	08:40:45.613	581.192	37.575	OK
11-12-2024	08:40:45.759	581.338	7.498	7.498	27.498	938	0	1.0907	OK	11-12-2024	08:40:45.759	581.338	37.574	OK
11-12-2024	08:40:45.859	581.438	7.498	7.498	27.500	938	0	1.0905	OK	11-12-2024	08:40:45.859	581.438	37.574	OK
11-12-2024	08:40:45.960	581.539	7.498	7.498	27.495	937	0	1.0909	OK	11-12-2024	08:40:45.960	581.539	37.572	OK
11-12-2024	08:40:46.061	581.640	7.498	7.498	27.497	937	0	1.0907	OK	11-12-2024	08:40:46.061	581.640	37.572	OK
11-12-2024	08:40:46.162	581.741	7.497	7.497	27.493	938	0	1.0910	OK	11-12-2024	08:40:46.162	581.741	37.571	OK
11-12-2024	08:40:46.340	581.919	7.498	7.498	27.496	938	0	1.0908	OK	11-12-2024	08:40:46.340	581.919	37.570	OK
11-12-2024	08:40:46.595	582.174	7.498	7.498	27.497	938	0	1.0907	OK	11-12-2024	08:40:46.595	582.174	37.570	OK
11-12-2024	08:40:46.764	582.343	7.498	7.498	27.496	938	0	1.0908	OK	11-12-2024	08:40:46.764	582.343	37.569	OK
11-12-2024	08:40:46.865	582.444	7.498	7.498	27.499	938	0	1.0906	OK	11-12-2024	08:40:46.865	582.444	37.569	OK
11-12-2024	08:40:46.966	582.545	7.498	7.498	27.495	937	0	1.0909	OK	11-12-2024	08:40:46.966	582.545	37.568	OK
11-12-2024	08:40:47.086	582.665	7.497	7.497	27.492	937	0	1.0911	OK	11-12-2024	08:40:47.086	582.665	37.568	OK
11-12-2024	08:40:47.338	582.917	7.498	7.498	27.498	938	0	1.0907	OK	11-12-2024	08:40:47.338	582.917	37.567	OK
11-12-2024	08:40:47.591	583.170	7.499	7.499	27.503	938	0	1.0903	OK	11-12-2024	08:40:47.591	583.170	37.566	OK
11-12-2024	08:40:47.768	583.347	7.499	7.499	27.500	938	0	1.0905	OK	11-12-2024	08:40:47.768	583.347	37.565	OK
11-12-2024	08:40:47.869	583.448	7.498	7.498	27.496	938	0	1.0908	OK	11-12-2024	08:40:47.869	583.448	37.565	OK
11-12-2024	08:40:47.969	583.548	7.498	7.498	27.496	938	0	1.0908	OK	11-12-2024	08:40:47.969	583.548	37.564	OK
11-12-2024	08:40:48.080	583.659	7.498	7.498	27.493	938	0	1.0910	OK	11-12-2024	08:40:48.080	583.659	37.564	OK
11-12-2024	08:40:48.169	583.748	7.498	7.498	27.497	938	0	1.0907	OK	11-12-2024	08:40:48.169	583.748	37.565	OK
11-12-2024	08:40:48.341	583.920	7.498	7.498	27.496	938	0	1.0908	OK	11-12-2024	08:40:48.341	583.920	37.565	OK
11-12-2024	08:40:48.617	584.196	7.498	7.498	27.499	938	0	1.0906	OK	11-12-2024	08:40:48.617	584.196	37.564	OK
11-12-2024	08:40:48.770	584.348	7.498	7.498	27.498	938	0	1.0907	OK	11-12-2024	08:40:48.770	584.348	37.564	OK
11-12-2024	08:40:48.870	584.449	7.498	7.498	27.494	938	0	1.0909	OK	11-12-2024	08:40:48.870	584.449	37.564	OK
11-12-2024	08:40:48.971	584.550	7.497	7.497	27.490	938	0	1.0912	OK	11-12-2024	08:40:48.971	584.550	37.565	OK
11-12-2024	08:40:49.092	584.671	7.498	7.498	27.498	938	0	1.0907	OK	11-12-2024	08:40:49.092	584.671	37.565	OK
11-12-2024	08:40:49.339	584.918	7.499	7.499	27.502	938	0	1.0904	OK	11-12-2024	08:40:49.339	584.918	37.566	OK
11-12-2024	08:40:49.595	585.174	7.499	7.499	27.501	938	0	1.0905	OK	11-12-2024	08:40:49.595	585.174	37.566	OK
11-12-2024	08:40:49.772	585.351	7.499	7.499	27.503	938	0	1.0903	OK	11-12-2024	08:40:49.772	585.351	37.567	OK
11-12-2024	08:40:49.872	585.451	7.498	7.498	27.497	938	0	1.0907	OK	11-12-2024	08:40:49.872	585.451	37.567	OK
11-12-2024	08:40:49.972	585.551	7.498	7.498	27.498	938	0	1.0907	OK	11-12-2024	08:40:49.972	585.551	37.567	OK
11-12-2024	08:40:50.078	585.657	7.498	7.498	27.497	938	0	1.0907	OK	11-12-2024	08:40:50.078	585.657	37.567	OK
11-12-2024	08:40:50.175	585.754	7.497	7.497	27.493	938	0	1.0910	OK	11-12-2024	08:40:50.175	585.754	37.568	OK
11-12-2024	08:40:50.350	585.928	7.498	7.498	27.498	938	0	1.0907	OK	11-12-2024	08:40:50.350	585.928	37.568	OK
11-12-2024	08:40:50.602	586.181	7.499	7.499	27.503	938	0	1.0903	OK	11-12-2024	08:40:50.602	586.181	37.568	OK
11-12-2024	08:40:50.773	586.352	7.498	7.498	27.498	938	0	1.0907	OK	11-12-2024	08:40:50.773	586.352	37.567	OK
11-12-2024	08:40:50.872	586.451	7.498	7.498	27.496	938	0	1.0908	OK	11-12-2024	08:40:50.872	586.451	37.567	OK
11-12-2024	08:40:50.973	586.552	7.498	7.498	27.496	938	0	1.0908	OK	11-12-2024	08:40:50.973	586.552	37.570	OK
11-12-2024	08:40:51.079	586.658	7.498	7.498	27.494	938	0	1.0909	OK	11-12-2024	08:40:51.079	586.658	37.570	OK
11-12-2024	08:40:51.172	586.751	7.498	7.498	27.495	938	0	1.0909	OK	11-12-2024	08:40:51.172	586.751	37.572	OK
11-12-2024	08:40:51.343	586.922	7.498	7.498	27.499	938	0	1.0906	OK	11-12-2024	08:40:51.343	586.922	37.572	OK
11-12-2024	08:40:51.599	587.178	7.498	7.498	27.500	938	0	1.0905	OK	11-12-2024	08:40:51.599	587.178	37.572	OK
11-12-2024	08:40:51.773	587.352	7.498	7.498	27.497	938	0	1.0907	OK	11-12-2024	08:40:51.773	587.352	37.572	OK
11-12-2024	08:40:51.875	587.453	7.498	7.498	27.498	938	0	1.0907	OK	11-12-2024	08:40:51.875	587.453	37.573	OK
11-12-2024	08:40:51.977	587.556	7.498	7.498	27.494	938	0	1.0909	OK	11-12-2024	08:40:51.977	587.556	37.573	OK
11-12-2024	08:40:52.080	587.659	7.497	7.497	27.494	938	0	1.0909	OK	11-12-2024	08:40:52.080	587.659	37.574	OK
11-12-2024	08:40:52.341	587.920	7.498	7.498	27.497	938	0	1.0907	OK	11-12-2024	08:40:52.341	587.920	37.575	OK
11-12-2024	08:40:52.599	588.178	7.499	7.499	27.502	938	0	1.0904	OK	11-12-2024	08:40:52.599	588.178	37.575	OK
11-12-2024	08:40:52.780	588.359	7.499	7.499	27.504	938	0	1.0902	OK	11-12-2024	08:40:52.780	588.359	37.575	OK
11-12-2024	08:40:52.880	588.459	7.498	7.498	27.495	938	0	1.0909	OK	11-12-2024	08:40:52.880	588.459	37.576	OK
11-12-2024	08:40:52.980	588.559	7.497	7.497	27.494	938	0	1.0909	OK	11-12-2024	08:40:52.980	588.559	37.576	OK
11-12-2024	08:40:53.080	588.659	7.497	7.497	27.493	938	0	1.0910	OK	11-12-2024	08:40:53.080	588.659	37.576	OK
11-12-2024	08:40:53.181	588.760	7.498	7.498	27.495	938	0	1.0909	OK	11-12-2024	08:40:53.181	588.760	37.576	OK
11-12-2024	08:40:53.354	588.933	7.498	7.498	27.496	938	0	1.0908	OK	11-12-2024	08:40:53.354	588.933	37.576	OK
11-12-2024	08:40:53.625	589.204	7.498	7.498	27.498	938	0	1.0907	OK	11-12-2024	08:40:53.625	589.204	37.576	OK
11-12-2024	08:40:53.783	589.362	7.498	7.498	27.501	938	0	1.0905	OK	11-12-2024	08:40:53.783	589.362	37.576	OK
11-12-2024	08:40:53.883	589.462	7.498	7.498	27.501	938	0	1.0905	OK	11-12-2024	08:40:53.883	589.462	37.577	OK
11-12-2024	08:40:53.983	589.562	7.497	7.497	27.494	938	0	1.0909	OK	11-12-2024	08:40:53.983	589.562	37.577	OK
11-12-2024	08:40:54.084	589.663	7.498	7.498	27.497	938	0	1.0907	OK	11-12-2024	08:40:54.084	589.663	37.578	OK
11-12-2024	08:40:54.183	589.762	7.497	7.497	27.491	938	0	1.0911	OK	11-12-2024	08:40:54.183	589.762	37.578	OK
11-12-2024	08:40:54.353	589.932	7.498	7.498	27.497	938	0	1.0907	OK	11-12-2024	08:40:54.353	589.932	37.577	OK
11-12-2024	08:40:54.612	590.191	7.498	7.498	27.501	938	0	1.0905	OK	11-12-2024	08:40:54.612	590.191	37.577	OK
11-12-2024	08:40:54.783	590.362	7.498	7.498	27.501	938	0	1.0905	OK	11-12-2024	08:40:54.783	590.362	37.578	OK
11-12-2024	08:40:54.885	590.464	7.498	7.498	27.497	938	0	1.0907	OK	11-12-2024	08:40:54.885	590.464	37.578	OK
11-12-2024	08:40:54.984	590.563	7.497	7.497	27.494	938	0	1.0909	OK	11-12-2024	08:40:54.984	590.563	37.578	OK
11-12-2024	08:40:55.089	590.668	7.498	7.498	27.496	938	0	1.0908	OK	11-12-2024	08:40:55.089	590.668	37.578	OK
11-12-2024	08:40:55.189	590.768	7.497	7.497	27.489	938	0	1.0913	OK	11-12-2024	08:40:55.189	590.768	37.578	OK
11-12-2024	08:40:55.361	590.940	7.498	7.498	27.497	938	0	1.0907	OK	11-12-2024	08:40:55.361	590.940	37.579	OK
11-12-2024	08:40:55.619	591.198	7.498	7.498	27.499	938	0	1.0906	OK	11-12-2024	08:40:55.619	591.198	37.579	OK
11-12-2024	08:40:55.789	591.368	7.498	7.498	27.499	938	0	1.0906	OK	11-12-2024	08:40:55.789	591.368	37.580	OK
11-12-2024	08:40:55.889	591.468	7.497	7.497	27.494	938	0	1.0909	OK	11-12-2024	08:40:55.889	591.468	37.580	OK
11-12-2024	08:40:55.989	591.568	7.497	7.497	27.492	938	0	1.0911	OK	11-12-2024	08:40:55.989	591.568	37.580	OK
11-12-2024	08:40:56.089	591.668	7.497	7.497	27.491	938	0	1.0911	OK	11-12-2024	08:40:56.089	591.668	37.580	OK
11-12-2024	08:40:56.190	591.769	7.497	7.497	27.493	938	0	1.0910	OK	11-12-2024	08:40:56.190	591.769	37.580	OK
11-12-2024	08:40:56.361	591.940	7.497	7.497	27.492	938	0	1.0911	OK	11-12-2024	08:40:56.361	591.940	37.579	OK
11-12-2024	08:40:56.615	592.194	7.498	7.498	27.498	938	0	1.0907	OK	11-12-2024	08:40:56.615	592.194	37.578	OK
11-12-2024	08:40:56.793	592.371	7.498	7.498	27.501	938	0	1.0905	OK	11-12-2024	08:40:56.793	592.371	37.579	OK
11-12-2024	08:40:56.893	592.472	7.498	7.498	27.496	938	0	1.0908	OK	11-12-2024	08:40:56.893	592.472	37.579	OK
11-12-2024	08:40:56.993	592.572	7.498	7.498	27.496	938	0	1.0908	OK	11-12-2024	08:40:56.993	592.572	37.579	OK
11-12-2024	08:40:57.095	592.674	7.497	7.497	27.494	938	0	1.0909	OK	11-12-2024	08:40:57.095	592.674	37.579	OK
11-12-2024	08:40:57.192	592.771	7.497	7.497	27.490	938	0	1.0912	OK	11-12-2024	08:40:57.192	592.771	37.579	OK
11-12-2024	08:40:57.364	592.943	7.497	7.497	27.492	938	0	1.0911	OK	11-12-2024	08:40:57.364	592.943	37.579	OK
11-12-2024	08:40:57.633	593.212	7.498	7.498	27.501	938	0	1.0905	OK	11-12-2024	08:40:57.633	593.212	37.579	OK
11-12-2024	08:40:57.792	593.371	7.499	7.499	27.502	938	0	1.0904	OK	11-12-2024	08:40:57.792	593.371	37.579	OK
11-12-2024	08:40:57.893	593.472	7.498	7.498	27.497	938	0	1.0907	OK	11-12-2024	08:40:57.893	593.472	37.579	OK
11-12-2024	08:40:57.993	593.572	7.497	7.497	27.494	938	0	1.0909	OK	11-12-2024	08:40:57.993	593.572	37.579	OK
11-12-2024	08:40:58.094	593.673	7.497	7.497	27.493	938	0	1.0910	OK	11-12-2024	08:40:58.094	593.673	37.578	OK
11-12-2024	08:40:58.194	593.773	7.497	7.497	27.492	938	0	1.0911	OK	11-12-2024	08:40:58.194	593.773	37.578	OK
11-12-2024	08:40:58.365	593.944	7.498	7.498	27.497	938	0	1.0907	OK	11-12-2024	08:40:58.365	593.944	37.579	OK
11-12-2024	08:40:58.621	594.200	7.498	7.498	27.500	938	0	1.0905	OK	11-12-2024	08:40:58.621	594.200	37.577	OK
11-12-2024	08:40:58.794	594.373	7.498	7.498	27.497	938	0	1.0907	OK	11-12-2024	08:40:58.794	594.373	37.577	OK
11-12-2024	08:40:58.894	594.473	7.498	7.498	27.498	938	0	1.0907	OK	11-12-2024	08:40:58.894	594.473	37.578	OK
11-12-2024	08:40:58.994	594.573	7.497	7.497	27.494	938	0	1.0909	OK	11-12-2024	08:40:58.994	594.573	37.578	OK
11-12-2024	08:40:59.094	594.673	7.497	7.497	27.494	938	0	1.0909	OK	11-12-2024	08:40:59.094	594.673	37.577	OK
11-12-2024	08:40:59.193	594.772	7.497	7.497	27.494	938	0	1.0909	OK	11-12-2024	08:40:59.193	594.772	37.577	OK
11-12-2024	08:40:59.362	594.941	7.498	7.498	27.496	938	0	1.0908	OK	11-12-2024	08:40:59.362	594.941	37.577	OK
11-12-2024	08:40:59.621	595.200	7.499	7.499	27.501	938	0	1.0904	OK	11-12-2024	08:40:59.621	595.200	37.578	OK
11-12-2024	08:40:59.794	595.373	7.499	7.499	27.501	938	0	1.0904	OK	11-12-2024	08:40:59.794	595.373	37.579	OK
11-12-2024	08:40:59.895	595.474	7.498	7.498	27.496	938	0	1.0907	OK	11-12-2024	08:40:59.895	595.474	37.578	OK
11-12-2024	08:41:00.096	595.675	7.498	7.498	27.498	938	0	1.0906	OK	11-12-2024	08:41:00.096	595.675	37.578	OK
11-12-2024	08:41:00.195	595.774	7.497	7.497	27.493	938	0	1.0910	OK	11-12-2024	08:41:00.195	595.774	37.578	OK
11-12-2024	08:41:00.363	595.942	7.498	7.498	27.496	938	0	1.0907	OK	11-12-2024	08:41:00.363	595.942	37.578	OK
11-12-2024	08:41:00.636	596.215	7.498	7.498	27.500	938	0	1.0905	OK	11-12-2024	08:41:00.636	596.215	37.579	OK
11-12-2024	08:41:00.795	596.374	7.499	7.499	27.502	938	0	1.0904	OK	11-12-2024	08:41:00.795	596.374	37.579	OK
11-12-2024	08:41:00.898	596.477	7.498	7.498	27.497	938	0	1.0907	OK	11-12-2024	08:41:00.898	596.477	37.579	OK
11-12-2024	08:41:00.999	596.577	7.497	7.497	27.494	938	0	1.0909	OK	11-12-2024	08:41:00.999	596.577	37.579	OK
11-12-2024	08:41:01.098	596.677	7.498	7.498	27.495	938	0	1.0909	OK	11-12-2024	08:41:01.098	596.677	37.579	OK
11-12-2024	08:41:01.199	596.778	7.497	7.497	27.494	938	0	1.0909	OK	11-12-2024	08:41:01.199	596.778	37.578	OK
11-12-2024	08:41:01.370	596.948	7.498	7.498	27.496	938	0	1.0908	OK	11-12-2024	08:41:01.370	596.948	37.579	OK
11-12-2024	08:41:01.624	597.203	7.498	7.498	27.497	938	0	1.0907	OK	11-12-2024	08:41:01.624	597.203	37.578	OK
11-12-2024	08:41:01.799	597.378	7.499	7.499	27.503	938	0	1.0903	OK	11-12-2024	08:41:01.799	597.378	37.579	OK
11-12-2024	08:41:01.901	597.480	7.498	7.498	27.498	938	0	1.0907	OK	11-12-2024	08:41:01.901	597.480	37.579	OK
11-12-2024	08:41:02.100	597.679	7.498	7.498	27.500	938	0	1.0905	OK	11-12-2024	08:41:02.100	597.679	37.579	OK
11-12-2024	08:41:02.200	597.779	7.498	7.498	27.497	938	0	1.0907	OK	11-12-2024	08:41:02.200	597.779	37.578	OK
11-12-2024	08:41:02.369	597.948	7.498	7.498	27.497	938	0	1.0907	OK	11-12-2024	08:41:02.369	597.948	37.578	OK
11-12-2024	08:41:02.640	598.219	7.499	7.499	27.504	938	0	1.0902	OK	11-12-2024	08:41:02.640	598.219	37.578	OK
11-12-2024	08:41:02.801	598.380	7.498	7.498	27.501	938	0	1.0905	OK	11-12-2024	08:41:02.801	598.380	37.578	OK
11-12-2024	08:41:02.901	598.480	7.498	7.498	27.499	938	0	1.0906	OK	11-12-2024	08:41:02.901	598.480	37.578	OK
11-12-2024	08:41:03.001	598.580	7.498	7.498	27.498	938	0	1.0907	OK	11-12-2024	08:41:03.001	598.580	37.578	OK
11-12-2024	08:41:03.101	598.680	7.498	7.498	27.500	938	0	1.0905	OK	11-12-2024	08:41:03.101	598.680	37.578	OK
11-12-2024	08:41:03.201	598.780	7.497	7.497	27.494	938	0	1.0909	OK	11-12-2024	08:41:03.201	598.780	37.578	OK
11-12-2024	08:41:03.370	598.949	7.498	7.498	27.500	938	0	1.0905	OK	11-12-2024	08:41:03.370	598.949	37.578	OK
11-12-2024	08:41:03.627	599.206	7.498	7.498	27.499	938	0	1.0906	OK	11-12-2024	08:41:03.627	599.206	37.578	OK
11-12-2024	08:41:03.801	599.380	7.498	7.498	27.497	938	0	1.0907	OK	11-12-2024	08:41:03.801	599.380	37.577	OK
11-12-2024	08:41:03.901	599.480	7.498	7.498	27.496	938	0	1.0908	OK	11-12-2024	08:41:03.901	599.480	37.577	OK
11-12-2024	08:41:04.003	599.581	7.497	7.497	27.491	938	0	1.0911	OK	11-12-2024	08:41:04.003	599.581	37.577	OK
11-12-2024	08:41:04.102	599.681	7.497	7.497	27.493	938	0	1.0910	OK	11-12-2024	08:41:04.102	599.681	37.577	OK
11-12-2024	08:41:04.203	599.781	7.498	7.498	27.495	938	0	1.0909	OK	11-12-2024	08:41:04.203	599.781	37.578	OK
11-12-2024	08:41:04.376	599.955	7.498	7.498	27.499	938	0	1.0906	OK	11-12-2024	08:41:04.376	599.955	37.577	OK
11-12-2024	08:41:04.650	600.229	7.498	7.498	27.500	938	0	1.0905	OK	11-12-2024	08:41:04.650	600.229	37.577	OK
11-12-2024	08:41:04.805	600.384	7.498	7.498	27.497	938	0	1.0907	OK	11-12-2024	08:41:04.805	600.384	37.577	OK
11-12-2024	08:41:04.905	600.484	7.498	7.498	27.498	938	0	1.0907	OK	11-12-2024	08:41:04.905	600.484	37.577	OK
11-12-2024	08:41:05.006	600.585	7.497	7.497	27.492	938	0	1.0911	OK	11-12-2024	08:41:05.006	600.585	37.577	OK
11-12-2024	08:41:05.106	600.685	7.497	7.497	27.494	938	0	1.0909	OK	11-12-2024	08:41:05.106	600.685	37.577	OK
11-12-2024	08:41:05.206	600.785	7.497	7.497	27.493	938	0	1.0910	OK	11-12-2024	08:41:05.206	600.785	37.577	OK
11-12-2024	08:41:05.381	600.960	7.498	7.498	27.498	938	0	1.0907	OK	11-12-2024	08:41:05.381	600.960	37.578	OK
11-12-2024	08:41:05.652	601.231	7.499	7.499	27.502	938	0	1.0903	OK	11-12-2024	08:41:05.652	601.231	37.578	OK
11-12-2024	08:41:05.805	601.384	7.498	7.498	27.500	938	0	1.0905	OK	11-12-2024	08:41:05.805	601.384	37.577	OK
11-12-2024	08:41:05.905	601.484	7.498	7.498	27.495	938	0	1.0908	OK	11-12-2024	08:41:05.905	601.484	37.577	OK
11-12-2024	08:41:06.007	601.586	7.497	7.497	27.489	938	0	1.0912	OK	11-12-2024	08:41:06.007	601.586	37.577	OK
11-12-2024	08:41:06.110	601.689	7.497	7.497	27.490	938	0	1.0912	OK	11-12-2024	08:41:06.110	601.689	37.577	OK
11-12-2024	08:41:06.208	601.787	7.498	7.498	27.495	938	0	1.0908	OK	11-12-2024	08:41:06.208	601.787	37.577	OK
11-12-2024	08:41:06.378	601.957	7.498	7.498	27.497	938	0	1.0907	OK	11-12-2024	08:41:06.378	601.957	37.577	OK
11-12-2024	08:41:06.651	602.230	7.498	7.498	27.497	938	0	1.0907	OK	11-12-2024	08:41:06.651	602.230	37.577	OK
11-12-2024	08:41:06.809	602.388	7.497	7.497	27.493	938	0	1.0910	OK	11-12-2024	08:41:06.809	602.388	37.577	OK
11-12-2024	08:41:06.909	602.488	7.498	7.498	27.494	938	0	1.0909	OK	11-12-2024	08:41:06.909	602.488	37.577	OK
11-12-2024	08:41:07.010	602.589	7.497	7.497	27.493	938	0	1.0910	OK	11-12-2024	08:41:07.010	602.589	37.577	OK
11-12-2024	08:41:07.110	602.689	7.497	7.497	27.491	938	0	1.0911	OK	11-12-2024	08:41:07.110	602.689	37.577	OK
11-12-2024	08:41:07.209	602.788	7.497	7.497	27.490	938	0	1.0912	OK	11-12-2024	08:41:07.209	602.788	37.577	OK
11-12-2024	08:41:07.381	602.960	7.498	7.498	27.497	938	0	1.0907	OK	11-12-2024	08:41:07.381	602.960	37.577	OK
11-12-2024	08:41:07.637	603.216	7.498	7.498	27.498	938	0	1.0906	OK	11-12-2024	08:41:07.637	603.216	37.577	OK
11-12-2024	08:41:07.810	603.389	7.498	7.498	27.500	938	0	1.0905	OK	11-12-2024	08:41:07.810	603.389	37.577	OK
11-12-2024	08:41:07.910	603.489	7.498	7.498	27.497	938	0	1.0907	OK	11-12-2024	08:41:07.910	603.489	37.577	OK
11-12-2024	08:41:08.010	603.589	7.497	7.497	27.493	938	0	1.0910	OK	11-12-2024	08:41:08.010	603.589	37.577	OK
11-12-2024	08:41:08.112	603.691	7.498	7.498	27.496	938	0	1.0907	OK	11-12-2024	08:41:08.112	603.691	37.577	OK
11-12-2024	08:41:08.210	603.789	7.498	7.498	27.496	938	0	1.0907	OK	11-12-2024	08:41:08.210	603.789	37.577	OK
11-12-2024	08:41:08.382	603.961	7.498	7.498	27.494	938	0	1.0909	OK	11-12-2024	08:41:08.382	603.961	37.577	OK
11-12-2024	08:41:08.656	604.235	7.498	7.498	27.499	938	0	1.0905	OK	11-12-2024	08:41:08.656	604.235	37.575	OK
11-12-2024	08:41:08.810	604.389	7.499	7.499	27.501	938	0	1.0904	OK	11-12-2024	08:41:08.810	604.389	37.575	OK
11-12-2024	08:41:08.910	604.489	7.499	7.499	27.501	938	0	1.0904	OK	11-12-2024	08:41:08.910	604.489	37.574	OK
11-12-2024	08:41:09.010	604.589	7.498	7.498	27.496	938	0	1.0907	OK	11-12-2024	08:41:09.010	604.589	37.574	OK
11-12-2024	08:41:09.111	604.690	7.498	7.498	27.497	938	0	1.0907	OK	11-12-2024	08:41:09.111	604.690	37.574	OK
11-12-2024	08:41:09.212	604.791	7.498	7.498	27.496	938	0	1.0907	OK	11-12-2024	08:41:09.212	604.791	37.574	OK
11-12-2024	08:41:09.387	604.966	7.499	7.499	27.501	938	0	1.0904	OK	11-12-2024	08:41:09.387	604.966	37.574	OK
11-12-2024	08:41:09.639	605.218	7.498	7.498	27.498	938	0	1.0906	OK	11-12-2024	08:41:09.639	605.218	37.573	OK
11-12-2024	08:41:09.813	605.392	7.499	7.499	27.501	938	0	1.0904	OK	11-12-2024	08:41:09.813	605.392	37.573	OK
11-12-2024	08:41:09.914	605.493	7.498	7.498	27.497	938	0	1.0907	OK	11-12-2024	08:41:09.914	605.493	37.572	OK
11-12-2024	08:41:10.015	605.594	7.498	7.498	27.496	938	0	1.0907	OK	11-12-2024	08:41:10.015	605.594	37.572	OK
11-12-2024	08:41:10.115	605.694	7.498	7.498	27.495	937	0	1.0908	OK	11-12-2024	08:41:10.115	605.694	37.571	OK
11-12-2024	08:41:10.216	605.795	7.497	7.497	27.488	938	0	1.0913	OK	11-12-2024	08:41:10.216	605.795	37.571	OK
11-12-2024	08:41:10.490	606.069	7.499	7.499	27.500	938	0	1.0905	OK	11-12-2024	08:41:10.490	606.069	37.570	OK
11-12-2024	08:41:10.660	606.239	7.499	7.499	27.501	938	0	1.0904	OK	11-12-2024	08:41:10.660	606.239	37.569	OK
11-12-2024	08:41:10.817	606.396	7.498	7.498	27.499	938	0	1.0905	OK	11-12-2024	08:41:10.817	606.396	37.569	OK
11-12-2024	08:41:10.918	606.497	7.497	7.497	27.492	938	0	1.0910	OK	11-12-2024	08:41:10.918	606.497	37.569	OK
11-12-2024	08:41:11.018	606.597	7.498	7.498	27.494	938	0	1.0909	OK	11-12-2024	08:41:11.018	606.597	37.569	OK
11-12-2024	08:41:11.118	606.697	7.497	7.497	27.491	938	0	1.0911	OK	11-12-2024	08:41:11.118	606.697	37.568	OK
11-12-2024	08:41:11.219	606.797	7.497	7.497	27.489	938	0	1.0912	OK	11-12-2024	08:41:11.219	606.797	37.568	OK
11-12-2024	08:41:11.392	606.971	7.498	7.498	27.493	938	0	1.0910	OK	11-12-2024	08:41:11.392	606.971	37.567	OK
11-12-2024	08:41:11.665	607.244	7.498	7.498	27.499	938	0	1.0905	OK	11-12-2024	08:41:11.665	607.244	37.567	OK
11-12-2024	08:41:11.820	607.399	7.499	7.499	27.502	938	0	1.0903	OK	11-12-2024	08:41:11.820	607.399	37.567	OK
11-12-2024	08:41:11.921	607.500	7.497	7.497	27.491	938	0	1.0911	OK	11-12-2024	08:41:11.921	607.500	37.567	OK
11-12-2024	08:41:12.021	607.600	7.497	7.497	27.491	938	0	1.0911	OK	11-12-2024	08:41:12.021	607.600	37.567	OK
11-12-2024	08:41:12.121	607.700	7.497	7.497	27.488	938	0	1.0913	OK	11-12-2024	08:41:12.121	607.700	37.568	OK
11-12-2024	08:41:12.222	607.801	7.497	7.497	27.489	938	0	1.0912	OK	11-12-2024	08:41:12.222	607.801	37.568	OK
11-12-2024	08:41:12.396	607.975	7.498	7.498	27.497	938	0	1.0907	OK	11-12-2024	08:41:12.396	607.975	37.568	OK
11-12-2024	08:41:12.653	608.232	7.498	7.498	27.499	938	0	1.0905	OK	11-12-2024	08:41:12.653	608.232	37.568	OK
11-12-2024	08:41:12.821	608.400	7.498	7.498	27.498	938	0	1.0906	OK	11-12-2024	08:41:12.821	608.400	37.568	OK
11-12-2024	08:41:12.922	608.501	7.497	7.497	27.492	938	0	1.0910	OK	11-12-2024	08:41:12.922	608.501	37.569	OK
11-12-2024	08:41:13.021	608.600	7.498	7.498	27.493	938	0	1.0910	OK	11-12-2024	08:41:13.021	608.600	37.569	OK
11-12-2024	08:41:13.120	608.699	7.497	7.497	27.491	938	0	1.0911	OK	11-12-2024	08:41:13.120	608.699	37.570	OK
11-12-2024	08:41:13.221	608.800	7.497	7.497	27.491	938	0	1.0911	OK	11-12-2024	08:41:13.221	608.800	37.570	OK
11-12-2024	08:41:13.391	608.969	7.498	7.498	27.495	938	0	1.0908	OK	11-12-2024	08:41:13.391	608.969	37.570	OK
11-12-2024	08:41:13.648	609.227	7.499	7.499	27.501	937	0	1.0904	OK	11-12-2024	08:41:13.648	609.227	37.570	OK
11-12-2024	08:41:13.821	609.400	7.498	7.498	27.498	938	0	1.0906	OK	11-12-2024	08:41:13.821	609.400	37.571	OK
11-12-2024	08:41:13.921	609.500	7.498	7.498	27.493	937	0	1.0909	OK	11-12-2024	08:41:13.921	609.500	37.571	OK
11-12-2024	08:41:14.021	609.600	7.498	7.498	27.495	937	0	1.0908	OK	11-12-2024	08:41:14.021	609.600	37.571	OK
11-12-2024	08:41:14.122	609.700	7.498	7.498	27.494	937	0	1.0908	OK	11-12-2024	08:41:14.122	609.700	37.571	OK
11-12-2024	08:41:14.221	609.800	7.498	7.498	27.493	938	0	1.0909	OK	11-12-2024	08:41:14.221	609.800	37.571	OK
11-12-2024	08:41:14.388	609.967	7.498	7.498	27.499	938	0	1.0905	OK	11-12-2024	08:41:14.388	609.967	37.573	OK
11-12-2024	08:41:14.644	610.223	7.499	7.499	27.500	938	0	1.0904	OK	11-12-2024	08:41:14.644	610.223	37.574	OK
11-12-2024	08:41:14.821	610.400	7.499	7.499	27.502	938	0	1.0903	OK	11-12-2024	08:41:14.821	610.400	37.573	OK
11-12-2024	08:41:14.921	610.500	7.498	7.498	27.498	938	0	1.0906	OK	11-12-2024	08:41:14.921	610.500	37.573	OK
11-12-2024	08:41:15.021	610.600	7.498	7.498	27.495	938	0	1.0908	OK	11-12-2024	08:41:15.021	610.600	37.573	OK
11-12-2024	08:41:15.121	610.700	7.498	7.498	27.494	938	0	1.0909	OK	11-12-2024	08:41:15.121	610.700	37.574	OK
11-12-2024	08:41:15.222	610.801	7.498	7.498	27.494	938	0	1.0909	OK	11-12-2024	08:41:15.222	610.801	37.574	OK
11-12-2024	08:41:15.390	610.969	7.498	7.498	27.496	938	0	1.0907	OK	11-12-2024	08:41:15.390	610.969	37.574	OK
11-12-2024	08:41:15.646	611.225	7.498	7.498	27.500	938	0	1.0905	OK	11-12-2024	08:41:15.646	611.225	37.572	OK
11-12-2024	08:41:15.822	611.401	7.499	7.499	27.503	938	0	1.0903	OK	11-12-2024	08:41:15.822	611.401	37.573	OK
11-12-2024	08:41:15.922	611.501	7.498	7.498	27.500	938	0	1.0905	OK	11-12-2024	08:41:15.922	611.501	37.574	OK
11-12-2024	08:41:16.022	611.601	7.498	7.498	27.494	938	0	1.0909	OK	11-12-2024	08:41:16.022	611.601	37.574	OK
11-12-2024	08:41:16.123	611.702	7.498	7.498	27.496	938	0	1.0907	OK	11-12-2024	08:41:16.123	611.702	37.573	OK
11-12-2024	08:41:16.223	611.802	7.498	7.498	27.496	938	0	1.0907	OK	11-12-2024	08:41:16.223	611.802	37.573	OK
11-12-2024	08:41:16.392	611.971	7.498	7.498	27.497	938	0	1.0907	OK	11-12-2024	08:41:16.392	611.971	37.572	OK
11-12-2024	08:41:16.647	612.226	7.499	7.499	27.502	938	0	1.0903	OK	11-12-2024	08:41:16.647	612.226	37.572	OK
11-12-2024	08:41:16.823	612.402	7.498	7.498	27.499	938	0	1.0905	OK	11-12-2024	08:41:16.823	612.402	37.573	OK
11-12-2024	08:41:16.923	612.502	7.498	7.498	27.496	937	0	1.0907	OK	11-12-2024	08:41:16.923	612.502	37.573	OK
11-12-2024	08:41:17.023	612.602	7.498	7.498	27.495	938	0	1.0908	OK	11-12-2024	08:41:17.023	612.602	37.573	OK
11-12-2024	08:41:17.124	612.703	7.497	7.497	27.491	937	0	1.0910	OK	11-12-2024	08:41:17.124	612.703	37.573	OK
11-12-2024	08:41:17.225	612.804	7.498	7.498	27.496	938	0	1.0907	OK	11-12-2024	08:41:17.225	612.804	37.573	OK
11-12-2024	08:41:17.396	612.974	7.498	7.498	27.499	938	0	1.0905	OK	11-12-2024	08:41:17.396	612.974	37.573	OK
11-12-2024	08:41:17.652	613.231	7.499	7.499	27.503	938	0	1.0902	OK	11-12-2024	08:41:17.652	613.231	37.572	OK
11-12-2024	08:41:17.825	613.404	7.499	7.499	27.503	937	0	1.0902	OK	11-12-2024	08:41:17.825	613.404	37.572	OK
11-12-2024	08:41:17.925	613.504	7.498	7.498	27.497	938	0	1.0906	OK	11-12-2024	08:41:17.925	613.504	37.572	OK
11-12-2024	08:41:18.025	613.603	7.498	7.498	27.495	937	0	1.0908	OK	11-12-2024	08:41:18.025	613.603	37.573	OK
11-12-2024	08:41:18.124	613.703	7.498	7.498	27.496	937	0	1.0907	OK	11-12-2024	08:41:18.124	613.703	37.573	OK
11-12-2024	08:41:18.224	613.803	7.498	7.498	27.496	937	0	1.0907	OK	11-12-2024	08:41:18.224	613.803	37.573	OK
11-12-2024	08:41:18.394	613.973	7.498	7.498	27.497	938	0	1.0906	OK	11-12-2024	08:41:18.394	613.973	37.573	OK
11-12-2024	08:41:18.648	614.227	7.499	7.499	27.500	938	0	1.0904	OK	11-12-2024	08:41:18.648	614.227	37.573	OK
11-12-2024	08:41:18.826	614.405	7.499	7.499	27.501	937	0	1.0904	OK	11-12-2024	08:41:18.826	614.405	37.573	OK
11-12-2024	08:41:18.926	614.505	7.498	7.498	27.496	937	0	1.0907	OK	11-12-2024	08:41:18.926	614.505	37.573	OK
11-12-2024	08:41:19.026	614.605	7.498	7.498	27.496	938	0	1.0907	OK	11-12-2024	08:41:19.026	614.605	37.573	OK
11-12-2024	08:41:19.126	614.705	7.497	7.497	27.492	938	0	1.0910	OK	11-12-2024	08:41:19.126	614.705	37.573	OK
11-12-2024	08:41:19.226	614.805	7.497	7.497	27.492	937	0	1.0910	OK	11-12-2024	08:41:19.226	614.805	37.573	OK
11-12-2024	08:41:19.396	614.974	7.498	7.498	27.496	937	0	1.0907	OK	11-12-2024	08:41:19.396	614.974	37.574	OK
11-12-2024	08:41:19.652	615.231	7.499	7.499	27.501	938	0	1.0904	OK	11-12-2024	08:41:19.652	615.231	37.573	OK
11-12-2024	08:41:19.827	615.406	7.498	7.498	27.495	938	0	1.0908	OK	11-12-2024	08:41:19.827	615.406	37.574	OK
11-12-2024	08:41:19.927	615.506	7.498	7.498	27.493	938	0	1.0909	OK	11-12-2024	08:41:19.927	615.506	37.574	OK
11-12-2024	08:41:20.027	615.606	7.497	7.497	27.490	937	0	1.0911	OK	11-12-2024	08:41:20.027	615.606	37.574	OK
11-12-2024	08:41:20.127	615.706	7.497	7.497	27.488	938	0	1.0913	OK	11-12-2024	08:41:20.127	615.706	37.574	OK
11-12-2024	08:41:20.227	615.806	7.497	7.497	27.489	938	0	1.0912	OK	11-12-2024	08:41:20.227	615.806	37.575	OK
11-12-2024	08:41:20.399	615.978	7.497	7.497	27.489	938	0	1.0912	OK	11-12-2024	08:41:20.399	615.978	37.574	OK
11-12-2024	08:41:20.654	616.233	7.498	7.498	27.496	938	0	1.0907	OK	11-12-2024	08:41:20.654	616.233	37.574	OK
11-12-2024	08:41:20.827	616.405	7.498	7.498	27.495	938	0	1.0908	OK	11-12-2024	08:41:20.827	616.405	37.574	OK
11-12-2024	08:41:20.927	616.505	7.498	7.498	27.495	938	0	1.0908	OK	11-12-2024	08:41:20.927	616.505	37.574	OK
11-12-2024	08:41:21.027	616.606	7.497	7.497	27.492	938	0	1.0910	OK	11-12-2024	08:41:21.027	616.606	37.574	OK
11-12-2024	08:41:21.128	616.707	7.498	7.498	27.494	938	0	1.0908	OK	11-12-2024	08:41:21.128	616.707	37.574	OK
11-12-2024	08:41:21.230	616.809	7.497	7.497	27.491	938	0	1.0910	OK	11-12-2024	08:41:21.230	616.809	37.574	OK
11-12-2024	08:41:21.403	616.982	7.499	7.499	27.500	938	0	1.0904	OK	11-12-2024	08:41:21.403	616.982	37.573	OK
11-12-2024	08:41:21.660	617.239	7.499	7.499	27.500	938	0	1.0904	OK	11-12-2024	08:41:21.660	617.239	37.574	OK
11-12-2024	08:41:21.830	617.408	7.498	7.498	27.496	938	0	1.0907	OK	11-12-2024	08:41:21.830	617.408	37.574	OK
11-12-2024	08:41:21.930	617.509	7.498	7.498	27.497	938	0	1.0906	OK	11-12-2024	08:41:21.930	617.509	37.574	OK
11-12-2024	08:41:22.030	617.609	7.498	7.498	27.497	938	0	1.0906	OK	11-12-2024	08:41:22.030	617.609	37.575	OK
11-12-2024	08:41:22.131	617.710	7.498	7.498	27.496	938	0	1.0907	OK	11-12-2024	08:41:22.131	617.710	37.575	OK
11-12-2024	08:41:22.232	617.811	7.498	7.498	27.494	938	0	1.0908	OK	11-12-2024	08:41:22.232	617.811	37.575	OK
11-12-2024	08:41:22.590	618.169	7.499	7.499	27.502	938	0	1.0903	OK	11-12-2024	08:41:22.590	618.169	37.575	OK
11-12-2024	08:41:22.733	618.312	7.499	7.499	27.501	938	0	1.0904	OK	11-12-2024	08:41:22.733	618.312	37.574	OK
11-12-2024	08:41:22.833	618.412	7.498	7.498	27.495	938	0	1.0908	OK	11-12-2024	08:41:22.833	618.412	37.575	OK
11-12-2024	08:41:22.933	618.512	7.498	7.498	27.499	938	0	1.0905	OK	11-12-2024	08:41:22.933	618.512	37.575	OK
11-12-2024	08:41:23.034	618.613	7.498	7.498	27.495	938	0	1.0908	OK	11-12-2024	08:41:23.034	618.613	37.575	OK
11-12-2024	08:41:23.133	618.712	7.498	7.498	27.496	938	0	1.0907	OK	11-12-2024	08:41:23.133	618.712	37.575	OK
11-12-2024	08:41:23.234	618.813	7.497	7.497	27.491	938	0	1.0910	OK	11-12-2024	08:41:23.234	618.813	37.575	OK
11-12-2024	08:41:23.403	618.982	7.498	7.498	27.496	938	0	1.0907	OK	11-12-2024	08:41:23.403	618.982	37.575	OK
11-12-2024	08:41:23.674	619.253	7.498	7.498	27.499	938	0	1.0905	OK	11-12-2024	08:41:23.674	619.253	37.575	OK
11-12-2024	08:41:23.835	619.414	7.499	7.499	27.501	938	0	1.0904	OK	11-12-2024	08:41:23.835	619.414	37.574	OK
11-12-2024	08:41:23.936	619.514	7.497	7.497	27.492	938	0	1.0910	OK	11-12-2024	08:41:23.936	619.514	37.574	OK
11-12-2024	08:41:24.037	619.616	7.497	7.497	27.493	938	0	1.0910	OK	11-12-2024	08:41:24.037	619.616	37.575	OK
11-12-2024	08:41:24.137	619.716	7.497	7.497	27.492	938	0	1.0910	OK	11-12-2024	08:41:24.137	619.716	37.575	OK
11-12-2024	08:41:24.237	619.816	7.498	7.498	27.494	938	0	1.0909	OK	11-12-2024	08:41:24.237	619.816	37.576	OK
11-12-2024	08:41:24.408	619.987	7.498	7.498	27.495	937	0	1.0908	OK	11-12-2024	08:41:24.408	619.987	37.576	OK
11-12-2024	08:41:24.659	620.238	7.499	7.499	27.503	938	0	1.0903	OK	11-12-2024	08:41:24.659	620.238	37.577	OK
11-12-2024	08:41:24.838	620.416	7.499	7.499	27.502	938	0	1.0903	OK	11-12-2024	08:41:24.838	620.416	37.577	OK
11-12-2024	08:41:24.939	620.518	7.498	7.498	27.497	938	0	1.0906	OK	11-12-2024	08:41:24.939	620.518	37.577	OK
11-12-2024	08:41:25.040	620.619	7.498	7.498	27.496	938	0	1.0907	OK	11-12-2024	08:41:25.040	620.619	37.577	OK
11-12-2024	08:41:25.141	620.720	7.497	7.497	27.493	938	0	1.0909	OK	11-12-2024	08:41:25.141	620.720	37.577	OK
11-12-2024	08:41:25.240	620.819	7.498	7.498	27.495	938	0	1.0908	OK	11-12-2024	08:41:25.240	620.819	37.577	OK
11-12-2024	08:41:25.412	620.991	7.499	7.499	27.500	938	0	1.0904	OK	11-12-2024	08:41:25.412	620.991	37.577	OK
11-12-2024	08:41:25.670	621.249	7.499	7.499	27.501	938	0	1.0904	OK	11-12-2024	08:41:25.670	621.249	37.577	OK
11-12-2024	08:41:25.843	621.422	7.498	7.498	27.496	938	0	1.0907	OK	11-12-2024	08:41:25.843	621.422	37.577	OK
11-12-2024	08:41:25.943	621.522	7.498	7.498	27.499	938	0	1.0905	OK	11-12-2024	08:41:25.943	621.522	37.577	OK
11-12-2024	08:41:26.043	621.622	7.498	7.498	27.499	938	0	1.0905	OK	11-12-2024	08:41:26.043	621.622	37.577	OK
11-12-2024	08:41:26.143	621.722	7.498	7.498	27.499	937	0	1.0905	OK	11-12-2024	08:41:26.143	621.722	37.577	OK
11-12-2024	08:41:26.242	621.821	7.497	7.497	27.491	938	0	1.0910	OK	11-12-2024	08:41:26.242	621.821	37.577	OK
11-12-2024	08:41:26.412	621.991	7.498	7.498	27.496	938	0	1.0907	OK	11-12-2024	08:41:26.412	621.991	37.577	OK
11-12-2024	08:41:26.688	622.267	7.499	7.499	27.502	938	0	1.0903	OK	11-12-2024	08:41:26.688	622.267	37.578	OK
11-12-2024	08:41:26.845	622.424	7.498	7.498	27.499	938	0	1.0905	OK	11-12-2024	08:41:26.845	622.424	37.578	OK
11-12-2024	08:41:26.946	622.525	7.497	7.497	27.491	938	0	1.0910	OK	11-12-2024	08:41:26.946	622.525	37.578	OK
11-12-2024	08:41:27.046	622.625	7.498	7.498	27.499	937	0	1.0905	OK	11-12-2024	08:41:27.046	622.625	37.578	OK
11-12-2024	08:41:27.147	622.726	7.497	7.497	27.492	937	0	1.0910	OK	11-12-2024	08:41:27.147	622.726	37.578	OK
11-12-2024	08:41:27.248	622.827	7.497	7.497	27.490	938	0	1.0911	OK	11-12-2024	08:41:27.248	622.827	37.578	OK
11-12-2024	08:41:27.422	623.001	7.498	7.498	27.497	938	0	1.0906	OK	11-12-2024	08:41:27.422	623.001	37.578	OK
11-12-2024	08:41:27.676	623.255	7.498	7.498	27.499	938	0	1.0905	OK	11-12-2024	08:41:27.676	623.255	37.577	OK
11-12-2024	08:41:27.849	623.428	7.498	7.498	27.496	938	0	1.0907	OK	11-12-2024	08:41:27.849	623.428	37.578	OK
11-12-2024	08:41:27.948	623.527	7.498	7.498	27.496	937	0	1.0907	OK	11-12-2024	08:41:27.948	623.527	37.577	OK
11-12-2024	08:41:28.049	623.628	7.497	7.497	27.493	938	0	1.0909	OK	11-12-2024	08:41:28.049	623.628	37.577	OK
11-12-2024	08:41:28.249	623.828	7.498	7.498	27.499	938	0	1.0905	OK	11-12-2024	08:41:28.249	623.828	37.577	OK
11-12-2024	08:41:28.418	623.997	7.498	7.498	27.496	938	0	1.0907	OK	11-12-2024	08:41:28.418	623.997	37.577	OK
11-12-2024	08:41:28.689	624.268	7.499	7.499	27.500	938	0	1.0904	OK	11-12-2024	08:41:28.689	624.268	37.577	OK
11-12-2024	08:41:28.849	624.428	7.498	7.498	27.498	938	0	1.0906	OK	11-12-2024	08:41:28.849	624.428	37.577	OK
11-12-2024	08:41:28.948	624.527	7.498	7.498	27.498	937	0	1.0906	OK	11-12-2024	08:41:28.948	624.527	37.578	OK
11-12-2024	08:41:29.049	624.628	7.498	7.498	27.496	938	0	1.0907	OK	11-12-2024	08:41:29.049	624.628	37.578	OK
11-12-2024	08:41:29.149	624.728	7.498	7.498	27.497	937	0	1.0907	OK	11-12-2024	08:41:29.149	624.728	37.577	OK
11-12-2024	08:41:29.248	624.827	7.498	7.498	27.495	937	0	1.0908	OK	11-12-2024	08:41:29.248	624.827	37.577	OK
11-12-2024	08:41:29.419	624.998	7.498	7.498	27.497	938	0	1.0907	OK	11-12-2024	08:41:29.419	624.998	37.578	OK
11-12-2024	08:41:29.691	625.270	7.499	7.499	27.501	938	0	1.0904	OK	11-12-2024	08:41:29.691	625.270	37.578	OK
11-12-2024	08:41:29.849	625.428	7.498	7.498	27.500	938	0	1.0905	OK	11-12-2024	08:41:29.849	625.428	37.578	OK
11-12-2024	08:41:29.949	625.528	7.498	7.498	27.497	937	0	1.0907	OK	11-12-2024	08:41:29.949	625.528	37.577	OK
11-12-2024	08:41:30.049	625.628	7.498	7.498	27.498	937	0	1.0906	OK	11-12-2024	08:41:30.049	625.628	37.577	OK
11-12-2024	08:41:30.149	625.728	7.498	7.498	27.493	937	0	1.0909	OK	11-12-2024	08:41:30.149	625.728	37.576	OK
11-12-2024	08:41:30.249	625.828	7.498	7.498	27.494	937	0	1.0908	OK	11-12-2024	08:41:30.249	625.828	37.576	OK
11-12-2024	08:41:30.419	625.998	7.499	7.499	27.501	937	0	1.0904	OK	11-12-2024	08:41:30.419	625.998	37.576	OK
11-12-2024	08:41:30.673	626.252	7.499	7.499	27.504	937	0	1.0901	OK	11-12-2024	08:41:30.673	626.252	37.577	OK
11-12-2024	08:41:30.848	626.427	7.499	7.499	27.500	937	0	1.0904	OK	11-12-2024	08:41:30.848	626.427	37.577	OK
11-12-2024	08:41:30.949	626.528	7.499	7.499	27.500	937	0	1.0904	OK	11-12-2024	08:41:30.949	626.528	37.577	OK
11-12-2024	08:41:31.049	626.628	7.498	7.498	27.499	937	0	1.0905	OK	11-12-2024	08:41:31.049	626.628	37.577	OK
11-12-2024	08:41:31.149	626.728	7.497	7.497	27.491	937	0	1.0910	OK	11-12-2024	08:41:31.149	626.728	37.578	OK
11-12-2024	08:41:31.249	626.828	7.498	7.498	27.496	937	0	1.0907	OK	11-12-2024	08:41:31.249	626.828	37.578	OK
11-12-2024	08:41:31.420	626.999	7.498	7.498	27.498	937	0	1.0906	OK	11-12-2024	08:41:31.420	626.999	37.578	OK
11-12-2024	08:41:31.674	627.253	7.499	7.499	27.502	938	0	1.0903	OK	11-12-2024	08:41:31.674	627.253	37.578	OK
11-12-2024	08:41:31.852	627.431	7.498	7.498	27.500	938	0	1.0904	OK	11-12-2024	08:41:31.852	627.431	37.578	OK
11-12-2024	08:41:31.952	627.530	7.498	7.498	27.496	937	0	1.0907	OK	11-12-2024	08:41:31.952	627.530	37.578	OK
11-12-2024	08:41:32.052	627.631	7.498	7.498	27.498	937	0	1.0906	OK	11-12-2024	08:41:32.052	627.631	37.578	OK
11-12-2024	08:41:32.152	627.731	7.498	7.498	27.496	937	0	1.0907	OK	11-12-2024	08:41:32.152	627.731	37.577	OK
11-12-2024	08:41:32.252	627.831	7.498	7.498	27.495	937	0	1.0908	OK	11-12-2024	08:41:32.252	627.831	37.577	OK
11-12-2024	08:41:32.437	628.016	7.499	7.499	27.501	937	0	1.0904	OK	11-12-2024	08:41:32.437	628.016	37.577	OK
11-12-2024	08:41:32.692	628.271	7.499	7.499	27.504	938	0	1.0901	OK	11-12-2024	08:41:32.692	628.271	37.577	OK
11-12-2024	08:41:32.852	628.431	7.498	7.498	27.498	937	0	1.0906	OK	11-12-2024	08:41:32.852	628.431	37.576	OK
11-12-2024	08:41:32.951	628.530	7.498	7.498	27.498	937	0	1.0906	OK	11-12-2024	08:41:32.951	628.530	37.576	OK
11-12-2024	08:41:33.054	628.633	7.499	7.499	27.501	938	0	1.0904	OK	11-12-2024	08:41:33.054	628.633	37.577	OK
11-12-2024	08:41:33.153	628.732	7.498	7.498	27.499	937	0	1.0905	OK	11-12-2024	08:41:33.153	628.732	37.577	OK
11-12-2024	08:41:33.254	628.833	7.498	7.498	27.493	938	0	1.0909	OK	11-12-2024	08:41:33.254	628.833	37.576	OK
11-12-2024	08:41:33.439	629.018	7.498	7.498	27.496	937	0	1.0907	OK	11-12-2024	08:41:33.439	629.018	37.577	OK
11-12-2024	08:41:33.709	629.288	7.498	7.498	27.498	938	0	1.0906	OK	11-12-2024	08:41:33.709	629.288	37.577	OK
11-12-2024	08:41:33.854	629.433	7.498	7.498	27.499	938	0	1.0905	OK	11-12-2024	08:41:33.854	629.433	37.578	OK
11-12-2024	08:41:33.954	629.532	7.498	7.498	27.496	937	0	1.0907	OK	11-12-2024	08:41:33.954	629.532	37.578	OK
11-12-2024	08:41:34.055	629.634	7.498	7.498	27.494	937	0	1.0908	OK	11-12-2024	08:41:34.055	629.634	37.578	OK
11-12-2024	08:41:34.155	629.734	7.497	7.497	27.487	938	0	1.0913	OK	11-12-2024	08:41:34.155	629.734	37.578	OK
11-12-2024	08:41:34.356	629.935	7.498	7.498	27.498	937	0	1.0906	OK	11-12-2024	08:41:34.356	629.935	37.578	OK
11-12-2024	08:41:34.624	630.203	7.498	7.498	27.498	938	0	1.0906	OK	11-12-2024	08:41:34.624	630.203	37.577	OK
11-12-2024	08:41:34.758	630.337	7.498	7.498	27.496	938	0	1.0907	OK	11-12-2024	08:41:34.758	630.337	37.577	OK
11-12-2024	08:41:34.858	630.437	7.498	7.498	27.497	937	0	1.0906	OK	11-12-2024	08:41:34.858	630.437	37.577	OK
11-12-2024	08:41:34.958	630.537	7.498	7.498	27.494	937	0	1.0908	OK	11-12-2024	08:41:34.958	630.537	37.577	OK
11-12-2024	08:41:35.057	630.636	7.497	7.497	27.491	938	0	1.0910	OK	11-12-2024	08:41:35.057	630.636	37.578	OK
11-12-2024	08:41:35.158	630.737	7.497	7.497	27.489	937	0	1.0912	OK	11-12-2024	08:41:35.158	630.737	37.578	OK
11-12-2024	08:41:35.258	630.837	7.498	7.498	27.494	937	0	1.0908	OK	11-12-2024	08:41:35.258	630.837	37.578	OK
11-12-2024	08:41:35.431	631.010	7.498	7.498	27.499	938	0	1.0905	OK	11-12-2024	08:41:35.431	631.010	37.579	OK
11-12-2024	08:41:35.688	631.267	7.499	7.499	27.503	937	0	1.0902	OK	11-12-2024	08:41:35.688	631.267	37.580	OK
11-12-2024	08:41:35.862	631.441	7.499	7.499	27.501	937	0	1.0904	OK	11-12-2024	08:41:35.862	631.441	37.580	OK
11-12-2024	08:41:35.961	631.540	7.497	7.497	27.491	937	0	1.0910	OK	11-12-2024	08:41:35.961	631.540	37.580	OK
11-12-2024	08:41:36.064	631.643	7.498	7.498	27.495	938	0	1.0907	OK	11-12-2024	08:41:36.064	631.643	37.581	OK
11-12-2024	08:41:36.167	631.746	7.497	7.497	27.492	938	0	1.0909	OK	11-12-2024	08:41:36.167	631.746	37.581	OK
11-12-2024	08:41:36.263	631.842	7.497	7.497	27.489	938	0	1.0911	OK	11-12-2024	08:41:36.263	631.842	37.581	OK
11-12-2024	08:41:36.436	632.015	7.498	7.498	27.493	937	0	1.0909	OK	11-12-2024	08:41:36.436	632.015	37.582	OK
11-12-2024	08:41:36.694	632.272	7.498	7.498	27.499	938	0	1.0904	OK	11-12-2024	08:41:36.694	632.272	37.583	OK
11-12-2024	08:41:36.863	632.442	7.499	7.499	27.501	938	0	1.0903	OK	11-12-2024	08:41:36.863	632.442	37.582	OK
11-12-2024	08:41:36.964	632.543	7.498	7.498	27.496	938	0	1.0907	OK	11-12-2024	08:41:36.964	632.543	37.582	OK
11-12-2024	08:41:37.064	632.643	7.498	7.498	27.493	938	0	1.0909	OK	11-12-2024	08:41:37.064	632.643	37.581	OK
11-12-2024	08:41:37.165	632.744	7.497	7.497	27.491	937	0	1.0910	OK	11-12-2024	08:41:37.165	632.744	37.581	OK
11-12-2024	08:41:37.263	632.842	7.497	7.497	27.492	938	0	1.0910	OK	11-12-2024	08:41:37.263	632.842	37.582	OK
11-12-2024	08:41:37.436	633.015	7.497	7.497	27.490	938	0	1.0911	OK	11-12-2024	08:41:37.436	633.015	37.583	OK
11-12-2024	08:41:37.694	633.272	7.498	7.498	27.500	938	0	1.0904	OK	11-12-2024	08:41:37.694	633.272	37.582	OK
11-12-2024	08:41:37.864	633.443	7.498	7.498	27.500	938	0	1.0904	OK	11-12-2024	08:41:37.864	633.443	37.582	OK
11-12-2024	08:41:37.965	633.543	7.498	7.498	27.496	938	0	1.0907	OK	11-12-2024	08:41:37.965	633.543	37.582	OK
11-12-2024	08:41:38.064	633.643	7.498	7.498	27.495	938	0	1.0908	OK	11-12-2024	08:41:38.064	633.643	37.583	OK
11-12-2024	08:41:38.164	633.743	7.497	7.497	27.493	938	0	1.0909	OK	11-12-2024	08:41:38.164	633.743	37.583	OK
11-12-2024	08:41:38.265	633.844	7.497	7.497	27.493	938	0	1.0909	OK	11-12-2024	08:41:38.265	633.844	37.582	OK
11-12-2024	08:41:38.436	634.015	7.498	7.498	27.495	937	0	1.0908	OK	11-12-2024	08:41:38.436	634.015	37.582	OK
11-12-2024	08:41:38.690	634.269	7.498	7.498	27.498	938	0	1.0906	OK	11-12-2024	08:41:38.690	634.269	37.582	OK
11-12-2024	08:41:38.865	634.444	7.499	7.499	27.503	938	0	1.0902	OK	11-12-2024	08:41:38.865	634.444	37.580	OK
11-12-2024	08:41:38.969	634.548	7.498	7.498	27.500	937	0	1.0904	OK	11-12-2024	08:41:38.969	634.548	37.580	OK
11-12-2024	08:41:39.066	634.645	7.498	7.498	27.496	937	0	1.0907	OK	11-12-2024	08:41:39.066	634.645	37.580	OK
11-12-2024	08:41:39.166	634.744	7.498	7.498	27.499	937	0	1.0905	OK	11-12-2024	08:41:39.166	634.744	37.580	OK
11-12-2024	08:41:39.266	634.845	7.498	7.498	27.497	937	0	1.0906	OK	11-12-2024	08:41:39.266	634.845	37.580	OK
11-12-2024	08:41:39.436	635.015	7.498	7.498	27.495	937	0	1.0908	OK	11-12-2024	08:41:39.436	635.015	37.580	OK
11-12-2024	08:41:39.709	635.288	7.500	7.500	27.507	938	0	1.0899	OK	11-12-2024	08:41:39.709	635.288	37.578	OK
11-12-2024	08:41:39.868	635.447	7.499	7.499	27.502	938	0	1.0903	OK	11-12-2024	08:41:39.868	635.447	37.578	OK
11-12-2024	08:41:39.968	635.547	7.499	7.499	27.501	938	0	1.0904	OK	11-12-2024	08:41:39.968	635.547	37.578	OK
11-12-2024	08:41:40.068	635.647	7.498	7.498	27.495	938	0	1.0908	OK	11-12-2024	08:41:40.068	635.647	37.579	OK
11-12-2024	08:41:40.167	635.746	7.498	7.498	27.497	937	0	1.0906	OK	11-12-2024	08:41:40.167	635.746	37.579	OK
11-12-2024	08:41:40.268	635.847	7.498	7.498	27.499	937	0	1.0904	OK	11-12-2024	08:41:40.268	635.847	37.579	OK
11-12-2024	08:41:40.438	636.017	7.498	7.498	27.498	937	0	1.0905	OK	11-12-2024	08:41:40.438	636.017	37.579	OK
11-12-2024	08:41:40.694	636.273	7.499	7.499	27.502	938	0	1.0902	OK	11-12-2024	08:41:40.694	636.273	37.578	OK
11-12-2024	08:41:40.868	636.447	7.500	7.500	27.507	938	0	1.0899	OK	11-12-2024	08:41:40.868	636.447	37.578	OK
11-12-2024	08:41:40.966	636.545	7.498	7.498	27.499	937	0	1.0904	OK	11-12-2024	08:41:40.966	636.545	37.578	OK
11-12-2024	08:41:41.069	636.648	7.498	7.498	27.497	937	0	1.0906	OK	11-12-2024	08:41:41.069	636.648	37.578	OK
11-12-2024	08:41:41.169	636.748	7.498	7.498	27.495	937	0	1.0907	OK	11-12-2024	08:41:41.169	636.748	37.578	OK
11-12-2024	08:41:41.269	636.848	7.498	7.498	27.494	937	0	1.0908	OK	11-12-2024	08:41:41.269	636.848	37.577	OK
11-12-2024	08:41:41.437	637.016	7.499	7.499	27.501	937	0	1.0903	OK	11-12-2024	08:41:41.437	637.016	37.577	OK
11-12-2024	08:41:41.692	637.271	7.498	7.498	27.498	938	0	1.0905	OK	11-12-2024	08:41:41.692	637.271	37.577	OK
11-12-2024	08:41:41.869	637.448	7.498	7.498	27.498	938	0	1.0905	OK	11-12-2024	08:41:41.869	637.448	37.577	OK
11-12-2024	08:41:41.970	637.549	7.497	7.497	27.491	938	0	1.0910	OK	11-12-2024	08:41:41.970	637.549	37.577	OK
11-12-2024	08:41:42.071	637.650	7.497	7.497	27.491	937	0	1.0910	OK	11-12-2024	08:41:42.071	637.650	37.577	OK
11-12-2024	08:41:42.170	637.749	7.497	7.497	27.491	937	0	1.0910	OK	11-12-2024	08:41:42.170	637.749	37.577	OK
11-12-2024	08:41:42.370	637.949	7.498	7.498	27.497	937	0	1.0906	OK	11-12-2024	08:41:42.370	637.949	37.576	OK
11-12-2024	08:41:42.624	638.203	7.499	7.499	27.503	937	0	1.0902	OK	11-12-2024	08:41:42.624	638.203	37.576	OK
11-12-2024	08:41:42.770	638.349	7.498	7.498	27.494	937	0	1.0908	OK	11-12-2024	08:41:42.770	638.349	37.576	OK
11-12-2024	08:41:42.869	638.448	7.498	7.498	27.495	937	0	1.0907	OK	11-12-2024	08:41:42.869	638.448	37.576	OK
11-12-2024	08:41:42.970	638.549	7.498	7.498	27.497	937	0	1.0906	OK	11-12-2024	08:41:42.970	638.549	37.577	OK
11-12-2024	08:41:43.070	638.649	7.498	7.498	27.497	937	0	1.0906	OK	11-12-2024	08:41:43.070	638.649	37.577	OK
11-12-2024	08:41:43.173	638.752	7.498	7.498	27.496	937	0	1.0907	OK	11-12-2024	08:41:43.173	638.752	37.576	OK
11-12-2024	08:41:43.273	638.852	7.497	7.497	27.492	937	0	1.0909	OK	11-12-2024	08:41:43.273	638.852	37.576	OK
11-12-2024	08:41:43.446	639.025	7.498	7.498	27.499	937	0	1.0904	OK	11-12-2024	08:41:43.446	639.025	37.575	OK
11-12-2024	08:41:43.721	639.300	7.499	7.499	27.500	937	0	1.0904	OK	11-12-2024	08:41:43.721	639.300	37.575	OK
11-12-2024	08:41:43.875	639.454	7.498	7.498	27.496	937	0	1.0907	OK	11-12-2024	08:41:43.875	639.454	37.575	OK
11-12-2024	08:41:43.974	639.553	7.498	7.498	27.497	937	0	1.0906	OK	11-12-2024	08:41:43.974	639.553	37.575	OK
11-12-2024	08:41:44.076	639.655	7.498	7.498	27.496	937	0	1.0907	OK	11-12-2024	08:41:44.076	639.655	37.575	OK
11-12-2024	08:41:44.178	639.757	7.498	7.498	27.498	937	0	1.0905	OK	11-12-2024	08:41:44.178	639.757	37.575	OK
11-12-2024	08:41:44.363	639.941	7.498	7.498	27.494	937	0	1.0908	OK	11-12-2024	08:41:44.363	639.941	37.575	OK
11-12-2024	08:41:44.623	640.202	7.499	7.499	27.502	937	0	1.0902	OK	11-12-2024	08:41:44.623	640.202	37.576	OK
11-12-2024	08:41:44.778	640.357	7.499	7.499	27.503	937	0	1.0902	OK	11-12-2024	08:41:44.778	640.357	37.578	OK
11-12-2024	08:41:44.879	640.458	7.498	7.498	27.498	937	0	1.0905	OK	11-12-2024	08:41:44.879	640.458	37.578	OK
11-12-2024	08:41:44.979	640.558	7.498	7.498	27.494	937	0	1.0908	OK	11-12-2024	08:41:44.979	640.558	37.577	OK
11-12-2024	08:41:45.092	640.670	7.498	7.498	27.496	937	0	1.0907	OK	11-12-2024	08:41:45.092	640.670	37.577	OK
11-12-2024	08:41:45.361	640.940	7.499	7.499	27.505	937	0	1.0900	OK	11-12-2024	08:41:45.361	640.940	37.577	OK
11-12-2024	08:41:45.619	641.198	7.499	7.499	27.500	937	0	1.0904	OK	11-12-2024	08:41:45.619	641.198	37.577	OK
11-12-2024	08:41:45.779	641.358	7.499	7.499	27.501	938	0	1.0903	OK	11-12-2024	08:41:45.779	641.358	37.576	OK
11-12-2024	08:41:45.878	641.457	7.499	7.499	27.500	938	0	1.0904	OK	11-12-2024	08:41:45.878	641.457	37.576	OK
11-12-2024	08:41:45.978	641.557	7.498	7.498	27.495	937	0	1.0907	OK	11-12-2024	08:41:45.978	641.557	37.576	OK
11-12-2024	08:41:46.091	641.670	7.498	7.498	27.495	938	0	1.0907	OK	11-12-2024	08:41:46.091	641.670	37.576	OK
11-12-2024	08:41:46.362	641.941	7.499	7.499	27.504	938	0	1.0901	OK	11-12-2024	08:41:46.362	641.941	37.575	OK
11-12-2024	08:41:46.619	642.198	7.499	7.499	27.502	938	0	1.0902	OK	11-12-2024	08:41:46.619	642.198	37.576	OK
11-12-2024	08:41:46.779	642.358	7.499	7.499	27.502	938	0	1.0902	OK	11-12-2024	08:41:46.779	642.358	37.576	OK
11-12-2024	08:41:46.877	642.456	7.498	7.498	27.498	938	0	1.0905	OK	11-12-2024	08:41:46.877	642.456	37.576	OK
11-12-2024	08:41:46.980	642.559	7.498	7.498	27.495	938	0	1.0907	OK	11-12-2024	08:41:46.980	642.559	37.576	OK
11-12-2024	08:41:47.180	642.759	7.499	7.499	27.501	938	0	1.0903	OK	11-12-2024	08:41:47.180	642.759	37.576	OK
11-12-2024	08:41:47.361	642.940	7.499	7.499	27.506	938	0	1.0900	OK	11-12-2024	08:41:47.361	642.940	37.577	OK
11-12-2024	08:41:47.617	643.196	7.499	7.499	27.504	938	0	1.0901	OK	11-12-2024	08:41:47.617	643.196	37.576	OK
11-12-2024	08:41:47.782	643.361	7.499	7.499	27.501	938	0	1.0904	OK	11-12-2024	08:41:47.782	643.361	37.576	OK
11-12-2024	08:41:47.881	643.460	7.499	7.499	27.501	938	0	1.0904	OK	11-12-2024	08:41:47.881	643.460	37.576	OK
11-12-2024	08:41:47.984	643.563	7.498	7.498	27.498	938	0	1.0906	OK	11-12-2024	08:41:47.984	643.563	37.575	OK
11-12-2024	08:41:48.091	643.670	7.498	7.498	27.496	938	0	1.0907	OK	11-12-2024	08:41:48.091	643.670	37.575	OK
11-12-2024	08:41:48.364	643.943	7.499	7.499	27.504	938	0	1.0901	OK	11-12-2024	08:41:48.364	643.943	37.575	OK
11-12-2024	08:41:48.635	644.214	7.499	7.499	27.506	938	0	1.0900	OK	11-12-2024	08:41:48.635	644.214	37.577	OK
11-12-2024	08:41:48.784	644.363	7.499	7.499	27.502	937	0	1.0903	OK	11-12-2024	08:41:48.784	644.363	37.578	OK
11-12-2024	08:41:48.884	644.463	7.498	7.498	27.500	938	0	1.0904	OK	11-12-2024	08:41:48.884	644.463	37.578	OK
11-12-2024	08:41:48.984	644.563	7.498	7.498	27.500	938	0	1.0904	OK	11-12-2024	08:41:48.984	644.563	37.578	OK
11-12-2024	08:41:49.092	644.671	7.498	7.498	27.499	938	0	1.0905	OK	11-12-2024	08:41:49.092	644.671	37.578	OK
11-12-2024	08:41:49.364	644.942	7.499	7.499	27.500	938	0	1.0904	OK	11-12-2024	08:41:49.364	644.942	37.578	OK
11-12-2024	08:41:49.620	645.199	7.500	7.500	27.508	938	0	1.0898	OK	11-12-2024	08:41:49.620	645.199	37.578	OK
11-12-2024	08:41:49.784	645.363	7.498	7.498	27.499	938	0	1.0904	OK	11-12-2024	08:41:49.784	645.363	37.578	OK
11-12-2024	08:41:49.885	645.464	7.499	7.499	27.502	938	0	1.0902	OK	11-12-2024	08:41:49.885	645.464	37.578	OK
11-12-2024	08:41:49.984	645.563	7.498	7.498	27.496	938	0	1.0907	OK	11-12-2024	08:41:49.984	645.563	37.578	OK
11-12-2024	08:41:50.095	645.674	7.499	7.499	27.500	937	0	1.0904	OK	11-12-2024	08:41:50.095	645.674	37.578	OK
11-12-2024	08:41:50.185	645.764	7.497	7.497	27.492	937	0	1.0909	OK	11-12-2024	08:41:50.185	645.764	37.578	OK
11-12-2024	08:41:50.364	645.943	7.498	7.498	27.497	938	0	1.0906	OK	11-12-2024	08:41:50.364	645.943	37.578	OK
11-12-2024	08:41:50.620	646.199	7.499	7.499	27.503	938	0	1.0902	OK	11-12-2024	08:41:50.620	646.199	37.577	OK
11-12-2024	08:41:50.784	646.363	7.498	7.498	27.494	937	0	1.0908	OK	11-12-2024	08:41:50.784	646.363	37.577	OK
11-12-2024	08:41:50.885	646.464	7.498	7.498	27.495	938	0	1.0908	OK	11-12-2024	08:41:50.885	646.464	37.578	OK
11-12-2024	08:41:50.986	646.565	7.497	7.497	27.491	937	0	1.0910	OK	11-12-2024	08:41:50.986	646.565	37.578	OK
11-12-2024	08:41:51.095	646.674	7.498	7.498	27.496	938	0	1.0907	OK	11-12-2024	08:41:51.095	646.674	37.578	OK
11-12-2024	08:41:51.186	646.765	7.497	7.497	27.491	937	0	1.0910	OK	11-12-2024	08:41:51.186	646.765	37.578	OK
11-12-2024	08:41:51.363	646.942	7.498	7.498	27.499	938	0	1.0905	OK	11-12-2024	08:41:51.363	646.942	37.578	OK
11-12-2024	08:41:51.619	647.198	7.498	7.498	27.500	938	0	1.0904	OK	11-12-2024	08:41:51.619	647.198	37.578	OK
11-12-2024	08:41:51.788	647.367	7.498	7.498	27.498	937	0	1.0906	OK	11-12-2024	08:41:51.788	647.367	37.578	OK
11-12-2024	08:41:51.887	647.466	7.498	7.498	27.495	937	0	1.0908	OK	11-12-2024	08:41:51.887	647.466	37.578	OK
11-12-2024	08:41:51.988	647.566	7.498	7.498	27.496	938	0	1.0907	OK	11-12-2024	08:41:51.988	647.566	37.578	OK
11-12-2024	08:41:52.095	647.674	7.498	7.498	27.498	938	0	1.0906	OK	11-12-2024	08:41:52.095	647.674	37.578	OK
11-12-2024	08:41:52.189	647.768	7.498	7.498	27.494	937	0	1.0908	OK	11-12-2024	08:41:52.189	647.768	37.578	OK
11-12-2024	08:41:52.367	647.946	7.498	7.498	27.494	938	0	1.0908	OK	11-12-2024	08:41:52.367	647.946	37.579	OK
11-12-2024	08:41:52.617	648.195	7.499	7.499	27.501	938	0	1.0904	OK	11-12-2024	08:41:52.617	648.195	37.579	OK
11-12-2024	08:41:52.790	648.368	7.499	7.499	27.502	938	0	1.0903	OK	11-12-2024	08:41:52.790	648.368	37.581	OK
11-12-2024	08:41:52.890	648.469	7.498	7.498	27.497	938	0	1.0906	OK	11-12-2024	08:41:52.890	648.469	37.581	OK
11-12-2024	08:41:52.989	648.568	7.497	7.497	27.493	937	0	1.0909	OK	11-12-2024	08:41:52.989	648.568	37.581	OK
11-12-2024	08:41:53.095	648.674	7.498	7.498	27.495	937	0	1.0908	OK	11-12-2024	08:41:53.095	648.674	37.582	OK
11-12-2024	08:41:53.189	648.768	7.498	7.498	27.496	937	0	1.0907	OK	11-12-2024	08:41:53.189	648.768	37.582	OK
11-12-2024	08:41:53.362	648.941	7.498	7.498	27.497	937	0	1.0906	OK	11-12-2024	08:41:53.362	648.941	37.581	OK
11-12-2024	08:41:53.620	649.199	7.498	7.498	27.500	937	0	1.0904	OK	11-12-2024	08:41:53.620	649.199	37.582	OK
11-12-2024	08:41:53.789	649.368	7.499	7.499	27.502	937	0	1.0903	OK	11-12-2024	08:41:53.789	649.368	37.582	OK
11-12-2024	08:41:53.890	649.469	7.498	7.498	27.498	937	0	1.0906	OK	11-12-2024	08:41:53.890	649.469	37.582	OK
11-12-2024	08:41:53.990	649.569	7.498	7.498	27.496	937	0	1.0907	OK	11-12-2024	08:41:53.990	649.569	37.582	OK
11-12-2024	08:41:54.096	649.675	7.498	7.498	27.494	937	0	1.0908	OK	11-12-2024	08:41:54.096	649.675	37.582	OK
11-12-2024	08:41:54.379	649.958	7.499	7.499	27.504	937	0	1.0901	OK	11-12-2024	08:41:54.379	649.958	37.581	OK
11-12-2024	08:41:54.634	650.213	7.499	7.499	27.500	937	0	1.0904	OK	11-12-2024	08:41:54.634	650.213	37.582	OK
11-12-2024	08:41:54.797	650.376	7.499	7.499	27.500	938	0	1.0904	OK	11-12-2024	08:41:54.797	650.376	37.581	OK
11-12-2024	08:41:54.891	650.470	7.498	7.498	27.499	937	0	1.0904	OK	11-12-2024	08:41:54.891	650.470	37.582	OK
11-12-2024	08:41:54.992	650.571	7.498	7.498	27.497	937	0	1.0906	OK	11-12-2024	08:41:54.992	650.571	37.582	OK
11-12-2024	08:41:55.193	650.772	7.499	7.499	27.500	937	0	1.0904	OK	11-12-2024	08:41:55.193	650.772	37.581	OK
11-12-2024	08:41:55.364	650.943	7.499	7.499	27.500	937	0	1.0904	OK	11-12-2024	08:41:55.364	650.943	37.580	OK
11-12-2024	08:41:55.619	651.198	7.499	7.499	27.502	937	0	1.0902	OK	11-12-2024	08:41:55.619	651.198	37.580	OK
11-12-2024	08:41:55.792	651.371	7.499	7.499	27.501	937	0	1.0903	OK	11-12-2024	08:41:55.792	651.371	37.580	OK
11-12-2024	08:41:55.892	651.471	7.498	7.498	27.498	937	0	1.0905	OK	11-12-2024	08:41:55.892	651.471	37.579	OK
11-12-2024	08:41:55.992	651.571	7.498	7.498	27.498	937	0	1.0905	OK	11-12-2024	08:41:55.992	651.571	37.579	OK
11-12-2024	08:41:56.096	651.675	7.498	7.498	27.497	937	0	1.0906	OK	11-12-2024	08:41:56.096	651.675	37.579	OK
11-12-2024	08:41:56.194	651.772	7.498	7.498	27.496	937	0	1.0907	OK	11-12-2024	08:41:56.194	651.772	37.579	OK
11-12-2024	08:41:56.363	651.942	7.499	7.499	27.502	938	0	1.0902	OK	11-12-2024	08:41:56.363	651.942	37.578	OK
11-12-2024	08:41:56.617	652.196	7.500	7.500	27.507	938	0	1.0899	OK	11-12-2024	08:41:56.617	652.196	37.578	OK
11-12-2024	08:41:56.794	652.373	7.499	7.499	27.503	938	0	1.0902	OK	11-12-2024	08:41:56.794	652.373	37.578	OK
11-12-2024	08:41:56.893	652.472	7.499	7.499	27.506	937	0	1.0900	OK	11-12-2024	08:41:56.893	652.472	37.578	OK
11-12-2024	08:41:56.994	652.573	7.498	7.498	27.500	938	0	1.0904	OK	11-12-2024	08:41:56.994	652.573	37.578	OK
11-12-2024	08:41:57.096	652.675	7.498	7.498	27.497	937	0	1.0906	OK	11-12-2024	08:41:57.096	652.675	37.578	OK
11-12-2024	08:41:57.193	652.772	7.498	7.498	27.499	937	0	1.0905	OK	11-12-2024	08:41:57.193	652.772	37.578	OK
11-12-2024	08:41:57.365	652.944	7.498	7.498	27.500	938	0	1.0904	OK	11-12-2024	08:41:57.365	652.944	37.578	OK
11-12-2024	08:41:57.621	653.200	7.499	7.499	27.505	938	0	1.0900	OK	11-12-2024	08:41:57.621	653.200	37.578	OK
11-12-2024	08:41:57.794	653.373	7.499	7.499	27.504	938	0	1.0901	OK	11-12-2024	08:41:57.794	653.373	37.577	OK
11-12-2024	08:41:57.902	653.481	7.498	7.498	27.499	938	0	1.0904	OK	11-12-2024	08:41:57.902	653.481	37.578	OK
11-12-2024	08:41:57.994	653.573	7.498	7.498	27.493	938	0	1.0909	OK	11-12-2024	08:41:57.994	653.573	37.578	OK
11-12-2024	08:41:58.097	653.676	7.498	7.498	27.499	937	0	1.0904	OK	11-12-2024	08:41:58.097	653.676	37.578	OK
11-12-2024	08:41:58.196	653.775	7.498	7.498	27.499	938	0	1.0904	OK	11-12-2024	08:41:58.196	653.775	37.577	OK
11-12-2024	08:41:58.366	653.945	7.498	7.498	27.499	937	0	1.0904	OK	11-12-2024	08:41:58.366	653.945	37.578	OK
11-12-2024	08:41:58.636	654.215	7.499	7.499	27.505	938	0	1.0900	OK	11-12-2024	08:41:58.636	654.215	37.578	OK
11-12-2024	08:41:58.795	654.374	7.499	7.499	27.501	937	0	1.0903	OK	11-12-2024	08:41:58.795	654.374	37.578	OK
11-12-2024	08:41:58.896	654.475	7.499	7.499	27.501	938	0	1.0903	OK	11-12-2024	08:41:58.896	654.475	37.578	OK
11-12-2024	08:41:58.996	654.575	7.498	7.498	27.496	937	0	1.0907	OK	11-12-2024	08:41:58.996	654.575	37.578	OK
11-12-2024	08:41:59.098	654.677	7.498	7.498	27.497	937	0	1.0906	OK	11-12-2024	08:41:59.098	654.677	37.578	OK
11-12-2024	08:41:59.199	654.778	7.497	7.497	27.491	937	0	1.0910	OK	11-12-2024	08:41:59.199	654.778	37.579	OK
11-12-2024	08:41:59.368	654.947	7.498	7.498	27.496	938	0	1.0907	OK	11-12-2024	08:41:59.368	654.947	37.579	OK
11-12-2024	08:41:59.626	655.205	7.499	7.499	27.500	938	0	1.0904	OK	11-12-2024	08:41:59.626	655.205	37.580	OK
11-12-2024	08:41:59.799	655.378	7.499	7.499	27.503	937	0	1.0902	OK	11-12-2024	08:41:59.799	655.378	37.580	OK
11-12-2024	08:41:59.899	655.478	7.499	7.499	27.500	937	0	1.0904	OK	11-12-2024	08:41:59.899	655.478	37.580	OK
11-12-2024	08:41:59.999	655.578	7.498	7.498	27.494	938	0	1.0908	OK	11-12-2024	08:41:59.999	655.578	37.580	OK
11-12-2024	08:42:00.100	655.679	7.498	7.498	27.495	937	0	1.0907	OK	11-12-2024	08:42:00.100	655.679	37.580	OK
11-12-2024	08:42:00.198	655.777	7.497	7.497	27.491	937	0	1.0910	OK	11-12-2024	08:42:00.198	655.777	37.580	OK
11-12-2024	08:42:00.372	655.951	7.498	7.498	27.494	937	0	1.0908	OK	11-12-2024	08:42:00.372	655.951	37.580	OK
11-12-2024	08:42:00.646	656.225	7.499	7.499	27.499	938	0	1.0904	OK	11-12-2024	08:42:00.646	656.225	37.580	OK
11-12-2024	08:42:00.800	656.379	7.498	7.498	27.498	938	0	1.0905	OK	11-12-2024	08:42:00.800	656.379	37.581	OK
11-12-2024	08:42:00.901	656.480	7.498	7.498	27.495	938	0	1.0907	OK	11-12-2024	08:42:00.901	656.480	37.581	OK
11-12-2024	08:42:01.009	656.588	7.498	7.498	27.494	938	0	1.0907	OK	11-12-2024	08:42:01.009	656.588	37.581	OK
11-12-2024	08:42:01.111	656.690	7.498	7.498	27.493	937	0	1.0908	OK	11-12-2024	08:42:01.111	656.690	37.581	OK
11-12-2024	08:42:01.203	656.782	7.497	7.497	27.492	937	0	1.0909	OK	11-12-2024	08:42:01.203	656.782	37.581	OK
11-12-2024	08:42:01.374	656.953	7.498	7.498	27.496	938	0	1.0906	OK	11-12-2024	08:42:01.374	656.953	37.580	OK
11-12-2024	08:42:01.628	657.207	7.498	7.498	27.498	938	0	1.0905	OK	11-12-2024	08:42:01.628	657.207	37.581	OK
11-12-2024	08:42:01.803	657.382	7.499	7.499	27.502	938	0	1.0902	OK	11-12-2024	08:42:01.803	657.382	37.581	OK
11-12-2024	08:42:01.903	657.482	7.498	7.498	27.498	938	0	1.0905	OK	11-12-2024	08:42:01.903	657.482	37.581	OK
11-12-2024	08:42:02.004	657.583	7.498	7.498	27.497	938	0	1.0906	OK	11-12-2024	08:42:02.004	657.583	37.581	OK
11-12-2024	08:42:02.105	657.683	7.497	7.497	27.491	938	0	1.0910	OK	11-12-2024	08:42:02.105	657.683	37.581	OK
11-12-2024	08:42:02.203	657.782	7.497	7.497	27.491	938	0	1.0910	OK	11-12-2024	08:42:02.203	657.782	37.581	OK
11-12-2024	08:42:02.373	657.952	7.498	7.498	27.496	937	0	1.0907	OK	11-12-2024	08:42:02.373	657.952	37.580	OK
11-12-2024	08:42:02.624	658.203	7.498	7.498	27.498	938	0	1.0905	OK	11-12-2024	08:42:02.624	658.203	37.580	OK
11-12-2024	08:42:02.804	658.383	7.498	7.498	27.499	938	0	1.0904	OK	11-12-2024	08:42:02.804	658.383	37.580	OK
11-12-2024	08:42:02.906	658.484	7.499	7.499	27.500	938	0	1.0904	OK	11-12-2024	08:42:02.906	658.484	37.580	OK
11-12-2024	08:42:03.006	658.584	7.498	7.498	27.495	937	0	1.0907	OK	11-12-2024	08:42:03.006	658.584	37.580	OK
11-12-2024	08:42:03.105	658.684	7.497	7.497	27.490	938	0	1.0911	OK	11-12-2024	08:42:03.105	658.684	37.580	OK
11-12-2024	08:42:03.204	658.783	7.498	7.498	27.495	937	0	1.0907	OK	11-12-2024	08:42:03.204	658.783	37.579	OK
11-12-2024	08:42:03.376	658.955	7.498	7.498	27.496	938	0	1.0907	OK	11-12-2024	08:42:03.376	658.955	37.579	OK
11-12-2024	08:42:03.632	659.211	7.499	7.499	27.504	938	0	1.0901	OK	11-12-2024	08:42:03.632	659.211	37.579	OK
11-12-2024	08:42:03.805	659.384	7.498	7.498	27.499	938	0	1.0904	OK	11-12-2024	08:42:03.805	659.384	37.578	OK
11-12-2024	08:42:03.905	659.484	7.499	7.499	27.501	938	0	1.0903	OK	11-12-2024	08:42:03.905	659.484	37.578	OK
11-12-2024	08:42:04.007	659.585	7.498	7.498	27.494	938	0	1.0908	OK	11-12-2024	08:42:04.007	659.585	37.577	OK
11-12-2024	08:42:04.109	659.688	7.498	7.498	27.496	937	0	1.0907	OK	11-12-2024	08:42:04.109	659.688	37.577	OK
11-12-2024	08:42:04.206	659.785	7.498	7.498	27.493	937	0	1.0909	OK	11-12-2024	08:42:04.206	659.785	37.575	OK
11-12-2024	08:42:04.392	659.971	7.498	7.498	27.494	938	0	1.0908	OK	11-12-2024	08:42:04.392	659.971	37.575	OK
11-12-2024	08:42:04.663	660.242	7.499	7.499	27.501	938	0	1.0903	OK	11-12-2024	08:42:04.663	660.242	37.574	OK
11-12-2024	08:42:04.806	660.385	7.499	7.499	27.499	938	0	1.0904	OK	11-12-2024	08:42:04.806	660.385	37.574	OK
11-12-2024	08:42:04.907	660.486	7.498	7.498	27.496	938	0	1.0906	OK	11-12-2024	08:42:04.907	660.486	37.574	OK
11-12-2024	08:42:05.006	660.585	7.498	7.498	27.495	938	0	1.0907	OK	11-12-2024	08:42:05.006	660.585	37.573	OK
11-12-2024	08:42:05.107	660.686	7.498	7.498	27.494	937	0	1.0907	OK	11-12-2024	08:42:05.107	660.686	37.573	OK
11-12-2024	08:42:05.208	660.786	7.498	7.498	27.496	938	0	1.0906	OK	11-12-2024	08:42:05.208	660.786	37.572	OK
11-12-2024	08:42:05.378	660.957	7.497	7.497	27.491	937	0	1.0909	OK	11-12-2024	08:42:05.378	660.957	37.572	OK
11-12-2024	08:42:05.631	661.210	7.498	7.498	27.497	938	0	1.0905	OK	11-12-2024	08:42:05.631	661.210	37.573	OK
11-12-2024	08:42:05.809	661.388	7.498	7.498	27.497	938	0	1.0905	OK	11-12-2024	08:42:05.809	661.388	37.573	OK
11-12-2024	08:42:05.909	661.488	7.498	7.498	27.494	938	0	1.0907	OK	11-12-2024	08:42:05.909	661.488	37.572	OK
11-12-2024	08:42:06.011	661.590	7.498	7.498	27.494	938	0	1.0907	OK	11-12-2024	08:42:06.011	661.590	37.572	OK
11-12-2024	08:42:06.211	661.790	7.498	7.498	27.496	938	0	1.0906	OK	11-12-2024	08:42:06.211	661.790	37.572	OK
11-12-2024	08:42:06.382	661.961	7.499	7.499	27.499	938	0	1.0904	OK	11-12-2024	08:42:06.382	661.961	37.573	OK
11-12-2024	08:42:06.651	662.230	7.499	7.499	27.501	938	0	1.0903	OK	11-12-2024	08:42:06.651	662.230	37.573	OK
11-12-2024	08:42:06.811	662.390	7.499	7.499	27.499	938	0	1.0904	OK	11-12-2024	08:42:06.811	662.390	37.573	OK
11-12-2024	08:42:06.909	662.488	7.499	7.499	27.499	938	0	1.0904	OK	11-12-2024	08:42:06.909	662.488	37.573	OK
11-12-2024	08:42:07.010	662.589	7.498	7.498	27.495	938	0	1.0907	OK	11-12-2024	08:42:07.010	662.589	37.573	OK
11-12-2024	08:42:07.111	662.690	7.498	7.498	27.495	938	0	1.0907	OK	11-12-2024	08:42:07.111	662.690	37.573	OK
11-12-2024	08:42:07.214	662.793	7.498	7.498	27.493	938	0	1.0909	OK	11-12-2024	08:42:07.214	662.793	37.573	OK
11-12-2024	08:42:07.385	662.964	7.499	7.499	27.502	938	0	1.0902	OK	11-12-2024	08:42:07.385	662.964	37.573	OK
11-12-2024	08:42:07.639	663.218	7.499	7.499	27.501	938	0	1.0903	OK	11-12-2024	08:42:07.639	663.218	37.574	OK
11-12-2024	08:42:07.814	663.393	7.499	7.499	27.501	938	0	1.0903	OK	11-12-2024	08:42:07.814	663.393	37.574	OK
11-12-2024	08:42:07.913	663.492	7.498	7.498	27.497	938	0	1.0906	OK	11-12-2024	08:42:07.913	663.492	37.575	OK
11-12-2024	08:42:08.014	663.593	7.498	7.498	27.496	938	0	1.0907	OK	11-12-2024	08:42:08.014	663.593	37.575	OK
11-12-2024	08:42:08.113	663.692	7.498	7.498	27.493	937	0	1.0909	OK	11-12-2024	08:42:08.113	663.692	37.575	OK
11-12-2024	08:42:08.213	663.792	7.497	7.497	27.490	938	0	1.0911	OK	11-12-2024	08:42:08.213	663.792	37.575	OK
11-12-2024	08:42:08.384	663.962	7.498	7.498	27.498	938	0	1.0905	OK	11-12-2024	08:42:08.384	663.962	37.575	OK
11-12-2024	08:42:08.640	664.219	7.499	7.499	27.503	938	0	1.0901	OK	11-12-2024	08:42:08.640	664.219	37.575	OK
11-12-2024	08:42:08.815	664.393	7.498	7.498	27.495	938	0	1.0907	OK	11-12-2024	08:42:08.815	664.393	37.576	OK
11-12-2024	08:42:08.914	664.493	7.498	7.498	27.492	938	0	1.0909	OK	11-12-2024	08:42:08.914	664.493	37.575	OK
11-12-2024	08:42:09.014	664.593	7.498	7.498	27.495	938	0	1.0907	OK	11-12-2024	08:42:09.014	664.593	37.575	OK
11-12-2024	08:42:09.115	664.693	7.498	7.498	27.494	937	0	1.0907	OK	11-12-2024	08:42:09.115	664.693	37.575	OK
11-12-2024	08:42:09.216	664.795	7.498	7.498	27.494	938	0	1.0907	OK	11-12-2024	08:42:09.216	664.795	37.575	OK
11-12-2024	08:42:09.386	664.965	7.499	7.499	27.502	938	0	1.0902	OK	11-12-2024	08:42:09.386	664.965	37.575	OK
11-12-2024	08:42:09.640	665.219	7.499	7.499	27.499	938	0	1.0904	OK	11-12-2024	08:42:09.640	665.219	37.575	OK
11-12-2024	08:42:09.819	665.398	7.499	7.499	27.502	938	0	1.0902	OK	11-12-2024	08:42:09.819	665.398	37.575	OK
11-12-2024	08:42:09.920	665.499	7.499	7.499	27.504	937	0	1.0901	OK	11-12-2024	08:42:09.920	665.499	37.575	OK
11-12-2024	08:42:10.121	665.700	7.499	7.499	27.500	938	0	1.0903	OK	11-12-2024	08:42:10.121	665.700	37.575	OK
11-12-2024	08:42:10.220	665.799	7.498	7.498	27.498	937	0	1.0905	OK	11-12-2024	08:42:10.220	665.799	37.575	OK
11-12-2024	08:42:10.390	665.969	7.499	7.499	27.501	937	0	1.0903	OK	11-12-2024	08:42:10.390	665.969	37.576	OK
11-12-2024	08:42:10.664	666.243	7.499	7.499	27.504	937	0	1.0901	OK	11-12-2024	08:42:10.664	666.243	37.576	OK
11-12-2024	08:42:10.820	666.399	7.499	7.499	27.502	937	0	1.0902	OK	11-12-2024	08:42:10.820	666.399	37.577	OK
11-12-2024	08:42:10.921	666.500	7.499	7.499	27.502	938	0	1.0902	OK	11-12-2024	08:42:10.921	666.500	37.576	OK
11-12-2024	08:42:11.022	666.601	7.498	7.498	27.496	938	0	1.0907	OK	11-12-2024	08:42:11.022	666.601	37.576	OK
11-12-2024	08:42:11.123	666.702	7.498	7.498	27.495	937	0	1.0907	OK	11-12-2024	08:42:11.123	666.702	37.577	OK
11-12-2024	08:42:11.223	666.802	7.498	7.498	27.494	938	0	1.0908	OK	11-12-2024	08:42:11.223	666.802	37.577	OK
11-12-2024	08:42:11.391	666.970	7.498	7.498	27.499	938	0	1.0904	OK	11-12-2024	08:42:11.391	666.970	37.577	OK
11-12-2024	08:42:11.651	667.230	7.499	7.499	27.499	938	0	1.0904	OK	11-12-2024	08:42:11.651	667.230	37.577	OK
11-12-2024	08:42:11.823	667.402	7.499	7.499	27.501	938	0	1.0903	OK	11-12-2024	08:42:11.823	667.402	37.576	OK
11-12-2024	08:42:11.924	667.503	7.498	7.498	27.496	938	0	1.0906	OK	11-12-2024	08:42:11.924	667.503	37.575	OK
11-12-2024	08:42:12.023	667.602	7.498	7.498	27.493	938	0	1.0908	OK	11-12-2024	08:42:12.023	667.602	37.575	OK
11-12-2024	08:42:12.123	667.702	7.498	7.498	27.497	938	0	1.0905	OK	11-12-2024	08:42:12.123	667.702	37.576	OK
11-12-2024	08:42:12.366	667.945	7.498	7.498	27.496	938	0	1.0906	OK	11-12-2024	08:42:12.366	667.945	37.576	OK
11-12-2024	08:42:12.624	668.203	7.499	7.499	27.504	938	0	1.0901	OK	11-12-2024	08:42:12.624	668.203	37.575	OK
11-12-2024	08:42:12.724	668.303	7.499	7.499	27.501	938	0	1.0903	OK	11-12-2024	08:42:12.724	668.303	37.575	OK
11-12-2024	08:42:12.825	668.403	7.498	7.498	27.497	938	0	1.0906	OK	11-12-2024	08:42:12.825	668.403	37.575	OK
11-12-2024	08:42:12.925	668.504	7.497	7.497	27.492	938	0	1.0909	OK	11-12-2024	08:42:12.925	668.504	37.576	OK
11-12-2024	08:42:13.025	668.604	7.497	7.497	27.491	938	0	1.0910	OK	11-12-2024	08:42:13.025	668.604	37.576	OK
11-12-2024	08:42:13.126	668.705	7.498	7.498	27.493	937	0	1.0909	OK	11-12-2024	08:42:13.126	668.705	37.575	OK
11-12-2024	08:42:13.226	668.805	7.497	7.497	27.492	938	0	1.0909	OK	11-12-2024	08:42:13.226	668.805	37.575	OK
11-12-2024	08:42:13.399	668.978	7.498	7.498	27.497	937	0	1.0906	OK	11-12-2024	08:42:13.399	668.978	37.575	OK
11-12-2024	08:42:13.671	669.250	7.500	7.500	27.506	938	0	1.0900	OK	11-12-2024	08:42:13.671	669.250	37.575	OK
11-12-2024	08:42:13.828	669.407	7.499	7.499	27.502	937	0	1.0902	OK	11-12-2024	08:42:13.828	669.407	37.575	OK
11-12-2024	08:42:13.928	669.507	7.499	7.499	27.503	937	0	1.0902	OK	11-12-2024	08:42:13.928	669.507	37.575	OK
11-12-2024	08:42:14.029	669.607	7.498	7.498	27.499	937	0	1.0904	OK	11-12-2024	08:42:14.029	669.607	37.575	OK
11-12-2024	08:42:14.129	669.708	7.498	7.498	27.494	937	0	1.0908	OK	11-12-2024	08:42:14.129	669.708	37.575	OK
11-12-2024	08:42:14.229	669.808	7.498	7.498	27.497	938	0	1.0906	OK	11-12-2024	08:42:14.229	669.808	37.575	OK
11-12-2024	08:42:14.402	669.980	7.498	7.498	27.498	937	0	1.0905	OK	11-12-2024	08:42:14.402	669.980	37.576	OK
11-12-2024	08:42:14.661	670.240	7.499	7.499	27.505	938	0	1.0900	OK	11-12-2024	08:42:14.661	670.240	37.576	OK
11-12-2024	08:42:14.829	670.408	7.499	7.499	27.505	938	0	1.0900	OK	11-12-2024	08:42:14.829	670.408	37.577	OK
11-12-2024	08:42:14.929	670.508	7.499	7.499	27.500	937	0	1.0903	OK	11-12-2024	08:42:14.929	670.508	37.577	OK
11-12-2024	08:42:15.030	670.609	7.498	7.498	27.493	938	0	1.0908	OK	11-12-2024	08:42:15.030	670.609	37.577	OK
11-12-2024	08:42:15.131	670.710	7.499	7.499	27.499	937	0	1.0904	OK	11-12-2024	08:42:15.131	670.710	37.577	OK
11-12-2024	08:42:15.231	670.810	7.498	7.498	27.495	938	0	1.0907	OK	11-12-2024	08:42:15.231	670.810	37.579	OK
11-12-2024	08:42:15.404	670.983	7.498	7.498	27.498	938	0	1.0905	OK	11-12-2024	08:42:15.404	670.983	37.578	OK
11-12-2024	08:42:15.659	671.238	7.499	7.499	27.505	938	0	1.0900	OK	11-12-2024	08:42:15.659	671.238	37.580	OK
11-12-2024	08:42:15.832	671.411	7.499	7.499	27.505	937	0	1.0900	OK	11-12-2024	08:42:15.832	671.411	37.580	OK
11-12-2024	08:42:15.933	671.512	7.499	7.499	27.500	937	0	1.0903	OK	11-12-2024	08:42:15.933	671.512	37.580	OK
11-12-2024	08:42:16.032	671.611	7.498	7.498	27.496	938	0	1.0906	OK	11-12-2024	08:42:16.032	671.611	37.579	OK
11-12-2024	08:42:16.131	671.710	7.498	7.498	27.496	938	0	1.0906	OK	11-12-2024	08:42:16.131	671.710	37.579	OK
11-12-2024	08:42:16.232	671.811	7.498	7.498	27.492	938	0	1.0909	OK	11-12-2024	08:42:16.232	671.811	37.579	OK
11-12-2024	08:42:16.402	671.981	7.499	7.499	27.504	938	0	1.0901	OK	11-12-2024	08:42:16.402	671.981	37.580	OK
11-12-2024	08:42:16.656	672.235	7.499	7.499	27.504	938	0	1.0901	OK	11-12-2024	08:42:16.656	672.235	37.580	OK
11-12-2024	08:42:16.833	672.412	7.499	7.499	27.503	938	0	1.0901	OK	11-12-2024	08:42:16.833	672.412	37.581	OK
11-12-2024	08:42:16.933	672.512	7.498	7.498	27.498	938	0	1.0905	OK	11-12-2024	08:42:16.933	672.512	37.581	OK
11-12-2024	08:42:17.032	672.611	7.498	7.498	27.498	938	0	1.0905	OK	11-12-2024	08:42:17.032	672.611	37.580	OK
11-12-2024	08:42:17.133	672.712	7.498	7.498	27.493	937	0	1.0908	OK	11-12-2024	08:42:17.133	672.712	37.580	OK
11-12-2024	08:42:17.232	672.811	7.498	7.498	27.496	937	0	1.0906	OK	11-12-2024	08:42:17.232	672.811	37.580	OK
11-12-2024	08:42:17.402	672.981	7.499	7.499	27.499	938	0	1.0904	OK	11-12-2024	08:42:17.402	672.981	37.580	OK
11-12-2024	08:42:17.658	673.237	7.499	7.499	27.499	938	0	1.0904	OK	11-12-2024	08:42:17.658	673.237	37.579	OK
11-12-2024	08:42:17.833	673.412	7.499	7.499	27.501	938	0	1.0903	OK	11-12-2024	08:42:17.833	673.412	37.579	OK
11-12-2024	08:42:17.934	673.513	7.498	7.498	27.496	938	0	1.0906	OK	11-12-2024	08:42:17.934	673.513	37.579	OK
11-12-2024	08:42:18.033	673.612	7.498	7.498	27.497	938	0	1.0905	OK	11-12-2024	08:42:18.033	673.612	37.579	OK
11-12-2024	08:42:18.133	673.712	7.499	7.499	27.499	937	0	1.0904	OK	11-12-2024	08:42:18.133	673.712	37.579	OK
11-12-2024	08:42:18.233	673.812	7.498	7.498	27.497	937	0	1.0905	OK	11-12-2024	08:42:18.233	673.812	37.578	OK
11-12-2024	08:42:18.407	673.986	7.499	7.499	27.499	937	0	1.0904	OK	11-12-2024	08:42:18.407	673.986	37.578	OK
11-12-2024	08:42:18.679	674.258	7.499	7.499	27.501	937	0	1.0903	OK	11-12-2024	08:42:18.679	674.258	37.578	OK
11-12-2024	08:42:18.836	674.415	7.499	7.499	27.503	937	0	1.0901	OK	11-12-2024	08:42:18.836	674.415	37.577	OK
11-12-2024	08:42:18.935	674.514	7.498	7.498	27.496	937	0	1.0906	OK	11-12-2024	08:42:18.935	674.514	37.577	OK
11-12-2024	08:42:19.037	674.616	7.498	7.498	27.497	937	0	1.0905	OK	11-12-2024	08:42:19.037	674.616	37.577	OK
11-12-2024	08:42:19.136	674.715	7.499	7.499	27.499	937	0	1.0904	OK	11-12-2024	08:42:19.136	674.715	37.577	OK
11-12-2024	08:42:19.237	674.816	7.498	7.498	27.496	937	0	1.0906	OK	11-12-2024	08:42:19.237	674.816	37.578	OK
11-12-2024	08:42:19.407	674.986	7.499	7.499	27.501	937	0	1.0903	OK	11-12-2024	08:42:19.407	674.986	37.577	OK
11-12-2024	08:42:19.677	675.256	7.499	7.499	27.502	938	0	1.0902	OK	11-12-2024	08:42:19.677	675.256	37.578	OK
11-12-2024	08:42:19.838	675.417	7.499	7.499	27.500	937	0	1.0903	OK	11-12-2024	08:42:19.838	675.417	37.578	OK
11-12-2024	08:42:19.938	675.517	7.499	7.499	27.500	937	0	1.0903	OK	11-12-2024	08:42:19.938	675.517	37.578	OK
11-12-2024	08:42:20.039	675.618	7.499	7.499	27.500	937	0	1.0903	OK	11-12-2024	08:42:20.039	675.618	37.578	OK
11-12-2024	08:42:20.138	675.717	7.498	7.498	27.497	937	0	1.0905	OK	11-12-2024	08:42:20.138	675.717	37.578	OK
11-12-2024	08:42:20.368	675.947	7.499	7.499	27.499	938	0	1.0903	OK	11-12-2024	08:42:20.368	675.947	37.579	OK
11-12-2024	08:42:20.624	676.202	7.500	7.500	27.505	938	0	1.0899	OK	11-12-2024	08:42:20.624	676.202	37.579	OK
11-12-2024	08:42:20.739	676.318	7.499	7.499	27.500	937	0	1.0903	OK	11-12-2024	08:42:20.739	676.318	37.579	OK
11-12-2024	08:42:20.840	676.419	7.498	7.498	27.495	938	0	1.0907	OK	11-12-2024	08:42:20.840	676.419	37.580	OK
11-12-2024	08:42:20.940	676.519	7.498	7.498	27.494	937	0	1.0907	OK	11-12-2024	08:42:20.940	676.519	37.580	OK
11-12-2024	08:42:21.040	676.619	7.498	7.498	27.499	937	0	1.0904	OK	11-12-2024	08:42:21.040	676.619	37.581	OK
11-12-2024	08:42:21.142	676.721	7.497	7.497	27.492	937	0	1.0909	OK	11-12-2024	08:42:21.142	676.721	37.581	OK
11-12-2024	08:42:21.242	676.821	7.498	7.498	27.496	937	0	1.0906	OK	11-12-2024	08:42:21.242	676.821	37.581	OK
11-12-2024	08:42:21.411	676.990	7.498	7.498	27.493	937	0	1.0908	OK	11-12-2024	08:42:21.411	676.990	37.581	OK
11-12-2024	08:42:21.664	677.243	7.498	7.498	27.499	938	0	1.0904	OK	11-12-2024	08:42:21.664	677.243	37.581	OK
11-12-2024	08:42:21.843	677.422	7.499	7.499	27.501	938	0	1.0903	OK	11-12-2024	08:42:21.843	677.422	37.580	OK
11-12-2024	08:42:21.943	677.521	7.499	7.499	27.503	937	0	1.0901	OK	11-12-2024	08:42:21.943	677.521	37.580	OK
11-12-2024	08:42:22.043	677.622	7.498	7.498	27.498	937	0	1.0905	OK	11-12-2024	08:42:22.043	677.622	37.581	OK
11-12-2024	08:42:22.143	677.722	7.498	7.498	27.495	937	0	1.0907	OK	11-12-2024	08:42:22.143	677.722	37.581	OK
11-12-2024	08:42:22.244	677.823	7.498	7.498	27.493	937	0	1.0908	OK	11-12-2024	08:42:22.244	677.823	37.580	OK
11-12-2024	08:42:22.415	677.994	7.498	7.498	27.497	938	0	1.0905	OK	11-12-2024	08:42:22.415	677.994	37.580	OK
11-12-2024	08:42:22.672	678.251	7.499	7.499	27.504	938	0	1.0901	OK	11-12-2024	08:42:22.672	678.251	37.580	OK
11-12-2024	08:42:22.844	678.423	7.498	7.498	27.497	938	0	1.0905	OK	11-12-2024	08:42:22.844	678.423	37.580	OK
11-12-2024	08:42:22.944	678.523	7.499	7.499	27.499	937	0	1.0904	OK	11-12-2024	08:42:22.944	678.523	37.579	OK
11-12-2024	08:42:23.044	678.623	7.498	7.498	27.496	938	0	1.0906	OK	11-12-2024	08:42:23.044	678.623	37.579	OK
11-12-2024	08:42:23.144	678.723	7.498	7.498	27.497	938	0	1.0905	OK	11-12-2024	08:42:23.144	678.723	37.577	OK
11-12-2024	08:42:23.246	678.825	7.499	7.499	27.499	937	0	1.0904	OK	11-12-2024	08:42:23.246	678.825	37.577	OK
11-12-2024	08:42:23.418	678.997	7.499	7.499	27.501	938	0	1.0903	OK	11-12-2024	08:42:23.418	678.997	37.577	OK
11-12-2024	08:42:23.679	679.258	7.499	7.499	27.502	938	0	1.0902	OK	11-12-2024	08:42:23.679	679.258	37.576	OK
11-12-2024	08:42:23.845	679.424	7.499	7.499	27.503	937	0	1.0901	OK	11-12-2024	08:42:23.845	679.424	37.576	OK
11-12-2024	08:42:23.947	679.525	7.499	7.499	27.499	938	0	1.0904	OK	11-12-2024	08:42:23.947	679.525	37.575	OK
11-12-2024	08:42:24.046	679.625	7.498	7.498	27.496	938	0	1.0906	OK	11-12-2024	08:42:24.046	679.625	37.575	OK
11-12-2024	08:42:24.148	679.727	7.498	7.498	27.495	937	0	1.0907	OK	11-12-2024	08:42:24.148	679.727	37.574	OK
11-12-2024	08:42:24.248	679.827	7.498	7.498	27.495	937	0	1.0907	OK	11-12-2024	08:42:24.248	679.827	37.574	OK
11-12-2024	08:42:24.419	679.998	7.498	7.498	27.496	938	0	1.0906	OK	11-12-2024	08:42:24.419	679.998	37.573	OK
11-12-2024	08:42:24.673	680.252	7.499	7.499	27.500	938	0	1.0903	OK	11-12-2024	08:42:24.673	680.252	37.572	OK
11-12-2024	08:42:24.848	680.427	7.499	7.499	27.501	938	0	1.0903	OK	11-12-2024	08:42:24.848	680.427	37.572	OK
11-12-2024	08:42:24.947	680.526	7.498	7.498	27.497	938	0	1.0905	OK	11-12-2024	08:42:24.947	680.526	37.572	OK
11-12-2024	08:42:25.048	680.627	7.498	7.498	27.495	937	0	1.0907	OK	11-12-2024	08:42:25.048	680.627	37.572	OK
11-12-2024	08:42:25.147	680.726	7.498	7.498	27.497	937	0	1.0905	OK	11-12-2024	08:42:25.147	680.726	37.573	OK
11-12-2024	08:42:25.248	680.827	7.498	7.498	27.494	938	0	1.0907	OK	11-12-2024	08:42:25.248	680.827	37.573	OK
11-12-2024	08:42:25.420	680.999	7.498	7.498	27.496	938	0	1.0906	OK	11-12-2024	08:42:25.420	680.999	37.572	OK
11-12-2024	08:42:25.673	681.252	7.498	7.498	27.495	938	0	1.0907	OK	11-12-2024	08:42:25.673	681.252	37.572	OK
11-12-2024	08:42:25.848	681.427	7.499	7.499	27.501	938	0	1.0903	OK	11-12-2024	08:42:25.848	681.427	37.572	OK
11-12-2024	08:42:25.948	681.526	7.498	7.498	27.496	938	0	1.0906	OK	11-12-2024	08:42:25.948	681.526	37.573	OK
11-12-2024	08:42:26.049	681.628	7.497	7.497	27.491	938	0	1.0909	OK	11-12-2024	08:42:26.049	681.628	37.573	OK
11-12-2024	08:42:26.149	681.728	7.498	7.498	27.493	937	0	1.0908	OK	11-12-2024	08:42:26.149	681.728	37.573	OK
11-12-2024	08:42:26.369	681.948	7.499	7.499	27.500	937	0	1.0903	OK	11-12-2024	08:42:26.369	681.948	37.575	OK
11-12-2024	08:42:26.625	682.204	7.499	7.499	27.505	938	0	1.0900	OK	11-12-2024	08:42:26.625	682.204	37.576	OK
11-12-2024	08:42:26.753	682.332	7.498	7.498	27.498	938	0	1.0905	OK	11-12-2024	08:42:26.753	682.332	37.577	OK
11-12-2024	08:42:26.853	682.432	7.498	7.498	27.496	938	0	1.0906	OK	11-12-2024	08:42:26.853	682.432	37.577	OK
11-12-2024	08:42:26.960	682.539	7.498	7.498	27.493	938	0	1.0908	OK	11-12-2024	08:42:26.960	682.539	37.577	OK
11-12-2024	08:42:27.054	682.633	7.498	7.498	27.497	938	0	1.0905	OK	11-12-2024	08:42:27.054	682.633	37.577	OK
11-12-2024	08:42:27.153	682.732	7.498	7.498	27.492	937	0	1.0909	OK	11-12-2024	08:42:27.153	682.732	37.578	OK
11-12-2024	08:42:27.255	682.834	7.498	7.498	27.493	938	0	1.0908	OK	11-12-2024	08:42:27.255	682.834	37.578	OK
11-12-2024	08:42:27.425	683.004	7.498	7.498	27.496	938	0	1.0906	OK	11-12-2024	08:42:27.425	683.004	37.579	OK
11-12-2024	08:42:27.683	683.262	7.498	7.498	27.498	938	0	1.0905	OK	11-12-2024	08:42:27.683	683.262	37.579	OK
11-12-2024	08:42:27.856	683.435	7.499	7.499	27.502	937	0	1.0902	OK	11-12-2024	08:42:27.856	683.435	37.581	OK
11-12-2024	08:42:27.958	683.537	7.498	7.498	27.496	937	0	1.0906	OK	11-12-2024	08:42:27.958	683.537	37.581	OK
11-12-2024	08:42:28.059	683.638	7.498	7.498	27.495	937	0	1.0907	OK	11-12-2024	08:42:28.059	683.638	37.581	OK
11-12-2024	08:42:28.159	683.737	7.498	7.498	27.495	938	0	1.0907	OK	11-12-2024	08:42:28.159	683.737	37.581	OK
11-12-2024	08:42:28.368	683.947	7.499	7.499	27.501	937	0	1.0903	OK	11-12-2024	08:42:28.368	683.947	37.581	OK
11-12-2024	08:42:28.642	684.221	7.499	7.499	27.502	938	0	1.0902	OK	11-12-2024	08:42:28.642	684.221	37.582	OK
11-12-2024	08:42:28.760	684.339	7.498	7.498	27.496	938	0	1.0906	OK	11-12-2024	08:42:28.760	684.339	37.584	OK
11-12-2024	08:42:28.861	684.440	7.498	7.498	27.495	937	0	1.0907	OK	11-12-2024	08:42:28.861	684.440	37.584	OK
11-12-2024	08:42:28.962	684.541	7.498	7.498	27.499	937	0	1.0904	OK	11-12-2024	08:42:28.962	684.541	37.584	OK
11-12-2024	08:42:29.062	684.641	7.498	7.498	27.494	937	0	1.0907	OK	11-12-2024	08:42:29.062	684.641	37.584	OK
11-12-2024	08:42:29.161	684.740	7.498	7.498	27.496	937	0	1.0906	OK	11-12-2024	08:42:29.161	684.740	37.584	OK
11-12-2024	08:42:29.260	684.839	7.498	7.498	27.497	937	0	1.0905	OK	11-12-2024	08:42:29.260	684.839	37.584	OK
11-12-2024	08:42:29.431	685.010	7.499	7.499	27.501	937	0	1.0903	OK	11-12-2024	08:42:29.431	685.010	37.585	OK
11-12-2024	08:42:29.686	685.265	7.499	7.499	27.502	937	0	1.0902	OK	11-12-2024	08:42:29.686	685.265	37.585	OK
11-12-2024	08:42:29.862	685.440	7.499	7.499	27.501	938	0	1.0903	OK	11-12-2024	08:42:29.862	685.440	37.584	OK
11-12-2024	08:42:29.962	685.541	7.498	7.498	27.498	937	0	1.0905	OK	11-12-2024	08:42:29.962	685.541	37.584	OK
11-12-2024	08:42:30.064	685.643	7.499	7.499	27.503	937	0	1.0901	OK	11-12-2024	08:42:30.064	685.643	37.584	OK
11-12-2024	08:42:30.163	685.742	7.498	7.498	27.496	937	0	1.0906	OK	11-12-2024	08:42:30.163	685.742	37.585	OK
11-12-2024	08:42:30.265	685.844	7.498	7.498	27.497	937	0	1.0905	OK	11-12-2024	08:42:30.265	685.844	37.585	OK
11-12-2024	08:42:30.621	686.200	7.500	7.500	27.509	937	0	1.0897	OK	11-12-2024	08:42:30.621	686.200	37.584	OK
11-12-2024	08:42:30.767	686.345	7.499	7.499	27.503	937	0	1.0901	OK	11-12-2024	08:42:30.767	686.345	37.584	OK
11-12-2024	08:42:30.867	686.446	7.498	7.498	27.498	937	0	1.0905	OK	11-12-2024	08:42:30.867	686.446	37.584	OK
11-12-2024	08:42:30.967	686.546	7.498	7.498	27.495	937	0	1.0906	OK	11-12-2024	08:42:30.967	686.546	37.583	OK
11-12-2024	08:42:31.067	686.646	7.498	7.498	27.497	937	0	1.0905	OK	11-12-2024	08:42:31.067	686.646	37.583	OK
11-12-2024	08:42:31.168	686.747	7.498	7.498	27.496	937	0	1.0906	OK	11-12-2024	08:42:31.168	686.747	37.584	OK
11-12-2024	08:42:31.269	686.848	7.498	7.498	27.495	937	0	1.0906	OK	11-12-2024	08:42:31.269	686.848	37.584	OK
11-12-2024	08:42:31.439	687.018	7.498	7.498	27.495	937	0	1.0906	OK	11-12-2024	08:42:31.439	687.018	37.585	OK
11-12-2024	08:42:31.695	687.274	7.499	7.499	27.503	938	0	1.0901	OK	11-12-2024	08:42:31.695	687.274	37.584	OK
11-12-2024	08:42:31.870	687.449	7.499	7.499	27.499	937	0	1.0903	OK	11-12-2024	08:42:31.870	687.449	37.584	OK
11-12-2024	08:42:31.970	687.549	7.499	7.499	27.500	937	0	1.0903	OK	11-12-2024	08:42:31.970	687.549	37.584	OK
11-12-2024	08:42:32.069	687.648	7.498	7.498	27.496	937	0	1.0906	OK	11-12-2024	08:42:32.069	687.648	37.584	OK
11-12-2024	08:42:32.172	687.751	7.499	7.499	27.500	937	0	1.0903	OK	11-12-2024	08:42:32.172	687.751	37.584	OK
11-12-2024	08:42:32.270	687.849	7.498	7.498	27.496	937	0	1.0906	OK	11-12-2024	08:42:32.270	687.849	37.584	OK
11-12-2024	08:42:32.442	688.021	7.498	7.498	27.495	937	0	1.0906	OK	11-12-2024	08:42:32.442	688.021	37.584	OK
11-12-2024	08:42:32.713	688.292	7.499	7.499	27.502	937	0	1.0901	OK	11-12-2024	08:42:32.713	688.292	37.584	OK
11-12-2024	08:42:32.870	688.449	7.499	7.499	27.502	937	0	1.0901	OK	11-12-2024	08:42:32.870	688.449	37.584	OK
11-12-2024	08:42:32.972	688.550	7.498	7.498	27.495	937	0	1.0906	OK	11-12-2024	08:42:32.972	688.550	37.584	OK
11-12-2024	08:42:33.072	688.651	7.498	7.498	27.496	937	0	1.0906	OK	11-12-2024	08:42:33.072	688.651	37.584	OK
11-12-2024	08:42:33.172	688.750	7.498	7.498	27.498	937	0	1.0904	OK	11-12-2024	08:42:33.172	688.750	37.584	OK
11-12-2024	08:42:33.271	688.850	7.498	7.498	27.493	937	0	1.0908	OK	11-12-2024	08:42:33.271	688.850	37.583	OK
11-12-2024	08:42:33.439	689.018	7.498	7.498	27.498	937	0	1.0904	OK	11-12-2024	08:42:33.439	689.018	37.582	OK
11-12-2024	08:42:33.693	689.272	7.499	7.499	27.503	937	0	1.0901	OK	11-12-2024	08:42:33.693	689.272	37.582	OK
11-12-2024	08:42:33.871	689.450	7.499	7.499	27.501	937	0	1.0902	OK	11-12-2024	08:42:33.871	689.450	37.582	OK
11-12-2024	08:42:33.970	689.549	7.499	7.499	27.501	937	0	1.0902	OK	11-12-2024	08:42:33.970	689.549	37.582	OK
11-12-2024	08:42:34.072	689.651	7.499	7.499	27.500	937	0	1.0902	OK	11-12-2024	08:42:34.072	689.651	37.583	OK
11-12-2024	08:42:34.172	689.751	7.499	7.499	27.501	937	0	1.0902	OK	11-12-2024	08:42:34.172	689.751	37.583	OK
11-12-2024	08:42:34.272	689.850	7.498	7.498	27.495	937	0	1.0906	OK	11-12-2024	08:42:34.272	689.850	37.583	OK
11-12-2024	08:42:34.458	690.037	7.499	7.499	27.501	937	0	1.0902	OK	11-12-2024	08:42:34.458	690.037	37.583	OK
11-12-2024	08:42:34.732	690.311	7.500	7.500	27.507	937	0	1.0897	OK	11-12-2024	08:42:34.732	690.311	37.582	OK
11-12-2024	08:42:34.873	690.452	7.499	7.499	27.501	937	0	1.0902	OK	11-12-2024	08:42:34.873	690.452	37.581	OK
11-12-2024	08:42:34.975	690.554	7.499	7.499	27.499	937	0	1.0903	OK	11-12-2024	08:42:34.975	690.554	37.581	OK
11-12-2024	08:42:35.075	690.654	7.498	7.498	27.494	937	0	1.0906	OK	11-12-2024	08:42:35.075	690.654	37.580	OK
11-12-2024	08:42:35.176	690.754	7.498	7.498	27.493	937	0	1.0907	OK	11-12-2024	08:42:35.176	690.754	37.580	OK
11-12-2024	08:42:35.276	690.855	7.498	7.498	27.493	937	0	1.0907	OK	11-12-2024	08:42:35.276	690.855	37.579	OK
11-12-2024	08:42:35.448	691.027	7.499	7.499	27.502	937	0	1.0901	OK	11-12-2024	08:42:35.448	691.027	37.579	OK
11-12-2024	08:42:35.736	691.315	7.498	7.498	27.497	937	0	1.0904	OK	11-12-2024	08:42:35.736	691.315	37.579	OK
11-12-2024	08:42:35.876	691.455	7.499	7.499	27.500	937	0	1.0902	OK	11-12-2024	08:42:35.876	691.455	37.578	OK
11-12-2024	08:42:35.976	691.555	7.498	7.498	27.494	937	0	1.0906	OK	11-12-2024	08:42:35.976	691.555	37.578	OK
11-12-2024	08:42:36.076	691.655	7.498	7.498	27.492	937	0	1.0909	OK	11-12-2024	08:42:36.076	691.655	37.577	OK
11-12-2024	08:42:36.177	691.756	7.498	7.498	27.494	937	0	1.0907	OK	11-12-2024	08:42:36.177	691.756	37.577	OK
11-12-2024	08:42:36.277	691.856	7.498	7.498	27.492	937	0	1.0909	OK	11-12-2024	08:42:36.277	691.856	37.577	OK
11-12-2024	08:42:36.450	692.029	7.498	7.498	27.497	937	0	1.0905	OK	11-12-2024	08:42:36.450	692.029	37.577	OK
11-12-2024	08:42:36.710	692.289	7.499	7.499	27.502	937	0	1.0902	OK	11-12-2024	08:42:36.710	692.289	37.577	OK
11-12-2024	08:42:36.877	692.456	7.498	7.498	27.498	937	0	1.0905	OK	11-12-2024	08:42:36.877	692.456	37.577	OK
11-12-2024	08:42:36.979	692.558	7.498	7.498	27.496	937	0	1.0906	OK	11-12-2024	08:42:36.979	692.558	37.577	OK
11-12-2024	08:42:37.177	692.756	7.499	7.499	27.501	937	0	1.0902	OK	11-12-2024	08:42:37.177	692.756	37.576	OK
11-12-2024	08:42:37.278	692.857	7.498	7.498	27.496	937	0	1.0906	OK	11-12-2024	08:42:37.278	692.857	37.575	OK
11-12-2024	08:42:37.464	693.043	7.499	7.499	27.503	937	0	1.0901	OK	11-12-2024	08:42:37.464	693.043	37.575	OK
11-12-2024	08:42:37.723	693.302	7.499	7.499	27.499	938	0	1.0903	OK	11-12-2024	08:42:37.723	693.302	37.574	OK
11-12-2024	08:42:37.880	693.459	7.499	7.499	27.500	937	0	1.0903	OK	11-12-2024	08:42:37.880	693.459	37.574	OK
11-12-2024	08:42:37.984	693.563	7.498	7.498	27.495	937	0	1.0906	OK	11-12-2024	08:42:37.984	693.563	37.574	OK
11-12-2024	08:42:38.084	693.663	7.498	7.498	27.494	937	0	1.0907	OK	11-12-2024	08:42:38.084	693.663	37.574	OK
11-12-2024	08:42:38.185	693.764	7.498	7.498	27.496	937	0	1.0906	OK	11-12-2024	08:42:38.185	693.764	37.574	OK
11-12-2024	08:42:38.285	693.864	7.498	7.498	27.492	937	0	1.0909	OK	11-12-2024	08:42:38.285	693.864	37.574	OK
11-12-2024	08:42:38.459	694.038	7.498	7.498	27.498	937	0	1.0905	OK	11-12-2024	08:42:38.459	694.038	37.574	OK
11-12-2024	08:42:38.718	694.297	7.499	7.499	27.498	937	0	1.0905	OK	11-12-2024	08:42:38.718	694.297	37.572	OK
11-12-2024	08:42:38.886	694.465	7.499	7.499	27.503	937	0	1.0901	OK	11-12-2024	08:42:38.886	694.465	37.572	OK
11-12-2024	08:42:38.986	694.564	7.498	7.498	27.497	937	0	1.0905	OK	11-12-2024	08:42:38.986	694.564	37.572	OK
11-12-2024	08:42:39.092	694.671	7.498	7.498	27.497	937	0	1.0905	OK	11-12-2024	08:42:39.092	694.671	37.572	OK
11-12-2024	08:42:39.191	694.770	7.498	7.498	27.495	937	0	1.0907	OK	11-12-2024	08:42:39.191	694.770	37.572	OK
11-12-2024	08:42:39.370	694.949	7.498	7.498	27.497	938	0	1.0905	OK	11-12-2024	08:42:39.370	694.949	37.572	OK
11-12-2024	08:42:39.626	695.205	7.499	7.499	27.503	938	0	1.0901	OK	11-12-2024	08:42:39.626	695.205	37.572	OK
11-12-2024	08:42:39.790	695.369	7.499	7.499	27.500	938	0	1.0903	OK	11-12-2024	08:42:39.790	695.369	37.572	OK
11-12-2024	08:42:39.890	695.469	7.498	7.498	27.496	937	0	1.0906	OK	11-12-2024	08:42:39.890	695.469	37.571	OK
11-12-2024	08:42:39.989	695.568	7.498	7.498	27.496	938	0	1.0906	OK	11-12-2024	08:42:39.989	695.568	37.571	OK
11-12-2024	08:42:40.090	695.669	7.498	7.498	27.493	938	0	1.0908	OK	11-12-2024	08:42:40.090	695.669	37.571	OK
11-12-2024	08:42:40.189	695.768	7.498	7.498	27.495	937	0	1.0906	OK	11-12-2024	08:42:40.189	695.768	37.571	OK
11-12-2024	08:42:40.371	695.950	7.498	7.498	27.496	937	0	1.0906	OK	11-12-2024	08:42:40.371	695.950	37.571	OK
11-12-2024	08:42:40.631	696.210	7.499	7.499	27.502	938	0	1.0901	OK	11-12-2024	08:42:40.631	696.210	37.571	OK
11-12-2024	08:42:40.788	696.367	7.499	7.499	27.501	938	0	1.0902	OK	11-12-2024	08:42:40.788	696.367	37.571	OK
11-12-2024	08:42:40.890	696.469	7.499	7.499	27.498	937	0	1.0904	OK	11-12-2024	08:42:40.890	696.469	37.571	OK
11-12-2024	08:42:40.990	696.569	7.498	7.498	27.494	937	0	1.0907	OK	11-12-2024	08:42:40.990	696.569	37.572	OK
11-12-2024	08:42:41.089	696.668	7.499	7.499	27.498	937	0	1.0904	OK	11-12-2024	08:42:41.089	696.668	37.572	OK
11-12-2024	08:42:41.190	696.769	7.498	7.498	27.496	937	0	1.0906	OK	11-12-2024	08:42:41.190	696.769	37.572	OK
11-12-2024	08:42:41.370	696.949	7.498	7.498	27.497	937	0	1.0905	OK	11-12-2024	08:42:41.370	696.949	37.573	OK
11-12-2024	08:42:41.623	697.202	7.499	7.499	27.503	937	0	1.0901	OK	11-12-2024	08:42:41.623	697.202	37.572	OK
11-12-2024	08:42:41.791	697.370	7.498	7.498	27.494	937	0	1.0907	OK	11-12-2024	08:42:41.791	697.370	37.573	OK
11-12-2024	08:42:41.890	697.469	7.499	7.499	27.498	937	0	1.0904	OK	11-12-2024	08:42:41.890	697.469	37.573	OK
11-12-2024	08:42:41.989	697.568	7.498	7.498	27.493	937	0	1.0908	OK	11-12-2024	08:42:41.989	697.568	37.573	OK
11-12-2024	08:42:42.091	697.670	7.498	7.498	27.495	937	0	1.0906	OK	11-12-2024	08:42:42.091	697.670	37.573	OK
11-12-2024	08:42:42.190	697.769	7.497	7.497	27.490	937	0	1.0910	OK	11-12-2024	08:42:42.190	697.769	37.573	OK
11-12-2024	08:42:42.372	697.951	7.498	7.498	27.497	938	0	1.0905	OK	11-12-2024	08:42:42.372	697.951	37.573	OK
11-12-2024	08:42:42.628	698.207	7.499	7.499	27.501	938	0	1.0902	OK	11-12-2024	08:42:42.628	698.207	37.573	OK
11-12-2024	08:42:42.791	698.370	7.498	7.498	27.497	937	0	1.0905	OK	11-12-2024	08:42:42.791	698.370	37.572	OK
11-12-2024	08:42:42.891	698.470	7.498	7.498	27.496	937	0	1.0906	OK	11-12-2024	08:42:42.891	698.470	37.572	OK
11-12-2024	08:42:43.111	698.690	7.499	7.499	27.501	937	0	1.0902	OK	11-12-2024	08:42:43.111	698.690	37.572	OK
11-12-2024	08:42:43.371	698.950	7.499	7.499	27.501	937	0	1.0902	OK	11-12-2024	08:42:43.371	698.950	37.573	OK
11-12-2024	08:42:43.643	699.222	7.498	7.498	27.497	938	0	1.0905	OK	11-12-2024	08:42:43.643	699.222	37.573	OK
11-12-2024	08:42:43.797	699.376	7.499	7.499	27.503	937	0	1.0901	OK	11-12-2024	08:42:43.797	699.376	37.573	OK
11-12-2024	08:42:43.897	699.476	7.499	7.499	27.499	937	0	1.0903	OK	11-12-2024	08:42:43.897	699.476	37.573	OK
11-12-2024	08:42:43.997	699.576	7.498	7.498	27.497	938	0	1.0905	OK	11-12-2024	08:42:43.997	699.576	37.573	OK
11-12-2024	08:42:44.111	699.689	7.499	7.499	27.498	937	0	1.0904	OK	11-12-2024	08:42:44.111	699.689	37.573	OK
11-12-2024	08:42:44.197	699.776	7.498	7.498	27.494	937	0	1.0907	OK	11-12-2024	08:42:44.197	699.776	37.572	OK
11-12-2024	08:42:44.371	699.949	7.499	7.499	27.501	937	0	1.0902	OK	11-12-2024	08:42:44.371	699.949	37.571	OK
11-12-2024	08:42:44.624	700.203	7.499	7.499	27.502	937	0	1.0901	OK	11-12-2024	08:42:44.624	700.203	37.571	OK
11-12-2024	08:42:44.798	700.377	7.499	7.499	27.502	937	0	1.0901	OK	11-12-2024	08:42:44.798	700.377	37.572	OK
11-12-2024	08:42:44.898	700.477	7.499	7.499	27.499	938	0	1.0903	OK	11-12-2024	08:42:44.898	700.477	37.572	OK
11-12-2024	08:42:44.998	700.577	7.498	7.498	27.496	937	0	1.0906	OK	11-12-2024	08:42:44.998	700.577	37.572	OK
11-12-2024	08:42:45.110	700.689	7.498	7.498	27.496	937	0	1.0906	OK	11-12-2024	08:42:45.110	700.689	37.572	OK
11-12-2024	08:42:45.199	700.778	7.498	7.498	27.495	937	0	1.0906	OK	11-12-2024	08:42:45.199	700.778	37.573	OK
11-12-2024	08:42:45.372	700.951	7.499	7.499	27.499	937	0	1.0903	OK	11-12-2024	08:42:45.372	700.951	37.573	OK
11-12-2024	08:42:45.645	701.224	7.499	7.499	27.501	938	0	1.0902	OK	11-12-2024	08:42:45.645	701.224	37.574	OK
11-12-2024	08:42:45.799	701.378	7.499	7.499	27.500	937	0	1.0903	OK	11-12-2024	08:42:45.799	701.378	37.573	OK
11-12-2024	08:42:45.898	701.477	7.498	7.498	27.495	938	0	1.0906	OK	11-12-2024	08:42:45.898	701.477	37.573	OK
11-12-2024	08:42:45.999	701.578	7.498	7.498	27.495	938	0	1.0906	OK	11-12-2024	08:42:45.999	701.578	37.574	OK
11-12-2024	08:42:46.105	701.684	7.498	7.498	27.494	938	0	1.0907	OK	11-12-2024	08:42:46.105	701.684	37.574	OK
11-12-2024	08:42:46.200	701.778	7.498	7.498	27.491	937	0	1.0909	OK	11-12-2024	08:42:46.200	701.778	37.574	OK
11-12-2024	08:42:46.371	701.950	7.498	7.498	27.495	937	0	1.0906	OK	11-12-2024	08:42:46.371	701.950	37.574	OK
11-12-2024	08:42:46.627	702.206	7.499	7.499	27.502	938	0	1.0901	OK	11-12-2024	08:42:46.627	702.206	37.574	OK
11-12-2024	08:42:46.800	702.379	7.498	7.498	27.496	938	0	1.0906	OK	11-12-2024	08:42:46.800	702.379	37.575	OK
11-12-2024	08:42:46.901	702.480	7.499	7.499	27.501	937	0	1.0902	OK	11-12-2024	08:42:46.901	702.480	37.575	OK
11-12-2024	08:42:47.001	702.579	7.498	7.498	27.496	937	0	1.0906	OK	11-12-2024	08:42:47.001	702.579	37.574	OK
11-12-2024	08:42:47.110	702.689	7.499	7.499	27.500	937	0	1.0903	OK	11-12-2024	08:42:47.110	702.689	37.574	OK
11-12-2024	08:42:47.203	702.781	7.498	7.498	27.494	937	0	1.0906	OK	11-12-2024	08:42:47.203	702.781	37.575	OK
11-12-2024	08:42:47.375	702.954	7.498	7.498	27.496	937	0	1.0905	OK	11-12-2024	08:42:47.375	702.954	37.575	OK
11-12-2024	08:42:47.633	703.212	7.499	7.499	27.502	937	0	1.0901	OK	11-12-2024	08:42:47.633	703.212	37.576	OK
11-12-2024	08:42:47.803	703.382	7.499	7.499	27.501	937	0	1.0902	OK	11-12-2024	08:42:47.803	703.382	37.576	OK
11-12-2024	08:42:47.903	703.482	7.499	7.499	27.500	937	0	1.0902	OK	11-12-2024	08:42:47.903	703.482	37.576	OK
11-12-2024	08:42:48.003	703.582	7.499	7.499	27.497	937	0	1.0904	OK	11-12-2024	08:42:48.003	703.582	37.576	OK
11-12-2024	08:42:48.110	703.689	7.499	7.499	27.498	937	0	1.0904	OK	11-12-2024	08:42:48.110	703.689	37.576	OK
11-12-2024	08:42:48.206	703.785	7.498	7.498	27.492	937	0	1.0908	OK	11-12-2024	08:42:48.206	703.785	37.576	OK
11-12-2024	08:42:48.376	703.955	7.498	7.498	27.493	937	0	1.0907	OK	11-12-2024	08:42:48.376	703.955	37.576	OK
11-12-2024	08:42:48.634	704.213	7.499	7.499	27.500	937	0	1.0902	OK	11-12-2024	08:42:48.634	704.213	37.576	OK
11-12-2024	08:42:48.809	704.388	7.500	7.500	27.504	937	0	1.0899	OK	11-12-2024	08:42:48.809	704.388	37.576	OK
11-12-2024	08:42:48.909	704.488	7.499	7.499	27.498	937	0	1.0904	OK	11-12-2024	08:42:48.909	704.488	37.575	OK
11-12-2024	08:42:49.009	704.588	7.498	7.498	27.496	937	0	1.0905	OK	11-12-2024	08:42:49.009	704.588	37.575	OK
11-12-2024	08:42:49.111	704.690	7.498	7.498	27.496	937	0	1.0905	OK	11-12-2024	08:42:49.111	704.690	37.574	OK
11-12-2024	08:42:49.211	704.790	7.498	7.498	27.497	937	0	1.0905	OK	11-12-2024	08:42:49.211	704.790	37.574	OK
11-12-2024	08:42:49.385	704.964	7.498	7.498	27.494	937	0	1.0907	OK	11-12-2024	08:42:49.385	704.964	37.575	OK
11-12-2024	08:42:49.640	705.219	7.499	7.499	27.504	937	0	1.0900	OK	11-12-2024	08:42:49.640	705.219	37.574	OK
11-12-2024	08:42:49.812	705.391	7.499	7.499	27.499	937	0	1.0903	OK	11-12-2024	08:42:49.812	705.391	37.574	OK
11-12-2024	08:42:49.912	705.491	7.499	7.499	27.498	937	0	1.0904	OK	11-12-2024	08:42:49.912	705.491	37.573	OK
11-12-2024	08:42:50.012	705.591	7.498	7.498	27.497	937	0	1.0905	OK	11-12-2024	08:42:50.012	705.591	37.573	OK
11-12-2024	08:42:50.113	705.692	7.499	7.499	27.501	937	0	1.0902	OK	11-12-2024	08:42:50.113	705.692	37.573	OK
11-12-2024	08:42:50.212	705.791	7.498	7.498	27.493	937	0	1.0908	OK	11-12-2024	08:42:50.212	705.791	37.573	OK
11-12-2024	08:42:50.384	705.963	7.499	7.499	27.498	937	0	1.0904	OK	11-12-2024	08:42:50.384	705.963	37.574	OK
11-12-2024	08:42:50.640	706.219	7.499	7.499	27.503	937	0	1.0901	OK	11-12-2024	08:42:50.640	706.219	37.573	OK
11-12-2024	08:42:50.815	706.394	7.499	7.499	27.503	938	0	1.0901	OK	11-12-2024	08:42:50.815	706.394	37.573	OK
11-12-2024	08:42:50.917	706.496	7.499	7.499	27.500	937	0	1.0903	OK	11-12-2024	08:42:50.917	706.496	37.572	OK
11-12-2024	08:42:51.116	706.695	7.499	7.499	27.501	937	0	1.0902	OK	11-12-2024	08:42:51.116	706.695	37.572	OK
11-12-2024	08:42:51.216	706.795	7.499	7.499	27.500	938	0	1.0903	OK	11-12-2024	08:42:51.216	706.795	37.572	OK
11-12-2024	08:42:51.384	706.963	7.499	7.499	27.499	938	0	1.0903	OK	11-12-2024	08:42:51.384	706.963	37.572	OK
11-12-2024	08:42:51.638	707.217	7.499	7.499	27.503	937	0	1.0900	OK	11-12-2024	08:42:51.638	707.217	37.571	OK
11-12-2024	08:42:51.817	707.396	7.500	7.500	27.504	938	0	1.0899	OK	11-12-2024	08:42:51.817	707.396	37.571	OK
11-12-2024	08:42:51.917	707.496	7.499	7.499	27.497	937	0	1.0904	OK	11-12-2024	08:42:51.917	707.496	37.572	OK
11-12-2024	08:42:52.019	707.598	7.499	7.499	27.499	937	0	1.0903	OK	11-12-2024	08:42:52.019	707.598	37.572	OK
11-12-2024	08:42:52.118	707.697	7.499	7.499	27.500	937	0	1.0902	OK	11-12-2024	08:42:52.118	707.697	37.571	OK
11-12-2024	08:42:52.218	707.797	7.498	7.498	27.495	937	0	1.0906	OK	11-12-2024	08:42:52.218	707.797	37.571	OK
11-12-2024	08:42:52.389	707.968	7.499	7.499	27.500	937	0	1.0903	OK	11-12-2024	08:42:52.389	707.968	37.572	OK
11-12-2024	08:42:52.661	708.240	7.499	7.499	27.503	938	0	1.0901	OK	11-12-2024	08:42:52.661	708.240	37.570	OK
11-12-2024	08:42:52.820	708.399	7.499	7.499	27.502	937	0	1.0901	OK	11-12-2024	08:42:52.820	708.399	37.570	OK
11-12-2024	08:42:52.918	708.497	7.499	7.499	27.501	937	0	1.0902	OK	11-12-2024	08:42:52.918	708.497	37.571	OK
11-12-2024	08:42:53.019	708.598	7.498	7.498	27.496	937	0	1.0906	OK	11-12-2024	08:42:53.019	708.598	37.571	OK
11-12-2024	08:42:53.120	708.699	7.499	7.499	27.499	937	0	1.0903	OK	11-12-2024	08:42:53.120	708.699	37.570	OK
11-12-2024	08:42:53.218	708.797	7.498	7.498	27.496	937	0	1.0906	OK	11-12-2024	08:42:53.218	708.797	37.570	OK
11-12-2024	08:42:53.388	708.967	7.499	7.499	27.498	937	0	1.0904	OK	11-12-2024	08:42:53.388	708.967	37.570	OK
11-12-2024	08:42:53.647	709.226	7.499	7.499	27.497	938	0	1.0904	OK	11-12-2024	08:42:53.647	709.226	37.570	OK
11-12-2024	08:42:53.819	709.398	7.499	7.499	27.503	938	0	1.0900	OK	11-12-2024	08:42:53.819	709.398	37.570	OK
11-12-2024	08:42:53.918	709.497	7.499	7.499	27.497	937	0	1.0904	OK	11-12-2024	08:42:53.918	709.497	37.570	OK
11-12-2024	08:42:54.019	709.598	7.498	7.498	27.496	937	0	1.0905	OK	11-12-2024	08:42:54.019	709.598	37.570	OK
11-12-2024	08:42:54.120	709.699	7.499	7.499	27.498	937	0	1.0904	OK	11-12-2024	08:42:54.120	709.699	37.571	OK
11-12-2024	08:42:54.218	709.797	7.498	7.498	27.495	937	0	1.0906	OK	11-12-2024	08:42:54.218	709.797	37.571	OK
11-12-2024	08:42:54.388	709.967	7.498	7.498	27.495	938	0	1.0906	OK	11-12-2024	08:42:54.388	709.967	37.571	OK
11-12-2024	08:42:54.647	710.226	7.498	7.498	27.497	938	0	1.0905	OK	11-12-2024	08:42:54.647	710.226	37.571	OK
11-12-2024	08:42:54.821	710.400	7.498	7.498	27.497	937	0	1.0905	OK	11-12-2024	08:42:54.821	710.400	37.572	OK
11-12-2024	08:42:54.923	710.501	7.498	7.498	27.497	937	0	1.0905	OK	11-12-2024	08:42:54.923	710.501	37.572	OK
11-12-2024	08:42:55.022	710.601	7.498	7.498	27.495	937	0	1.0906	OK	11-12-2024	08:42:55.022	710.601	37.572	OK
11-12-2024	08:42:55.124	710.703	7.497	7.497	27.485	937	0	1.0913	OK	11-12-2024	08:42:55.124	710.703	37.571	OK
11-12-2024	08:42:55.222	710.801	7.498	7.498	27.492	937	0	1.0908	OK	11-12-2024	08:42:55.222	710.801	37.571	OK
11-12-2024	08:42:55.396	710.975	7.499	7.499	27.497	937	0	1.0904	OK	11-12-2024	08:42:55.396	710.975	37.571	OK
11-12-2024	08:42:55.656	711.234	7.499	7.499	27.500	938	0	1.0902	OK	11-12-2024	08:42:55.656	711.234	37.572	OK
11-12-2024	08:42:55.822	711.401	7.499	7.499	27.497	938	0	1.0904	OK	11-12-2024	08:42:55.822	711.401	37.572	OK
11-12-2024	08:42:55.921	711.500	7.498	7.498	27.495	937	0	1.0905	OK	11-12-2024	08:42:55.921	711.500	37.574	OK
11-12-2024	08:42:56.023	711.602	7.498	7.498	27.494	938	0	1.0906	OK	11-12-2024	08:42:56.023	711.602	37.574	OK
11-12-2024	08:42:56.224	711.803	7.499	7.499	27.498	937	0	1.0903	OK	11-12-2024	08:42:56.224	711.803	37.573	OK
11-12-2024	08:42:56.397	711.976	7.499	7.499	27.497	938	0	1.0904	OK	11-12-2024	08:42:56.397	711.976	37.573	OK
11-12-2024	08:42:56.656	712.235	7.500	7.500	27.507	938	0	1.0897	OK	11-12-2024	08:42:56.656	712.235	37.573	OK
11-12-2024	08:42:56.826	712.404	7.499	7.499	27.498	938	0	1.0904	OK	11-12-2024	08:42:56.826	712.404	37.574	OK
11-12-2024	08:42:56.924	712.503	7.498	7.498	27.495	937	0	1.0906	OK	11-12-2024	08:42:56.924	712.503	37.574	OK
11-12-2024	08:42:57.025	712.604	7.498	7.498	27.493	937	0	1.0907	OK	11-12-2024	08:42:57.025	712.604	37.574	OK
11-12-2024	08:42:57.125	712.704	7.499	7.499	27.497	937	0	1.0904	OK	11-12-2024	08:42:57.125	712.704	37.574	OK
11-12-2024	08:42:57.224	712.803	7.499	7.499	27.498	938	0	1.0904	OK	11-12-2024	08:42:57.224	712.803	37.574	OK
11-12-2024	08:42:57.397	712.976	7.499	7.499	27.499	937	0	1.0903	OK	11-12-2024	08:42:57.397	712.976	37.574	OK
11-12-2024	08:42:57.649	713.228	7.500	7.500	27.505	937	0	1.0899	OK	11-12-2024	08:42:57.649	713.228	37.573	OK
11-12-2024	08:42:57.825	713.404	7.500	7.500	27.507	937	0	1.0898	OK	11-12-2024	08:42:57.825	713.404	37.572	OK
11-12-2024	08:42:57.925	713.503	7.499	7.499	27.498	937	0	1.0904	OK	11-12-2024	08:42:57.925	713.503	37.572	OK
11-12-2024	08:42:58.026	713.605	7.498	7.498	27.496	937	0	1.0906	OK	11-12-2024	08:42:58.026	713.605	37.572	OK
11-12-2024	08:42:58.125	713.704	7.498	7.498	27.493	937	0	1.0908	OK	11-12-2024	08:42:58.125	713.704	37.572	OK
11-12-2024	08:42:58.226	713.805	7.497	7.497	27.490	937	0	1.0910	OK	11-12-2024	08:42:58.226	713.805	37.572	OK
11-12-2024	08:42:58.397	713.976	7.499	7.499	27.499	938	0	1.0903	OK	11-12-2024	08:42:58.397	713.976	37.572	OK
11-12-2024	08:42:58.651	714.230	7.499	7.499	27.500	938	0	1.0902	OK	11-12-2024	08:42:58.651	714.230	37.571	OK
11-12-2024	08:42:58.828	714.407	7.499	7.499	27.502	938	0	1.0901	OK	11-12-2024	08:42:58.828	714.407	37.571	OK
11-12-2024	08:42:58.927	714.505	7.498	7.498	27.496	938	0	1.0905	OK	11-12-2024	08:42:58.927	714.505	37.571	OK
11-12-2024	08:42:59.026	714.605	7.498	7.498	27.492	938	0	1.0908	OK	11-12-2024	08:42:59.026	714.605	37.572	OK
11-12-2024	08:42:59.138	714.717	7.498	7.498	27.492	938	0	1.0908	OK	11-12-2024	08:42:59.138	714.717	37.572	OK
11-12-2024	08:42:59.228	714.807	7.498	7.498	27.493	937	0	1.0907	OK	11-12-2024	08:42:59.228	714.807	37.571	OK
11-12-2024	08:42:59.399	714.978	7.498	7.498	27.494	937	0	1.0907	OK	11-12-2024	08:42:59.399	714.978	37.572	OK
11-12-2024	08:42:59.654	715.233	7.499	7.499	27.502	938	0	1.0901	OK	11-12-2024	08:42:59.654	715.233	37.572	OK
11-12-2024	08:42:59.829	715.408	7.499	7.499	27.501	938	0	1.0902	OK	11-12-2024	08:42:59.829	715.408	37.571	OK
11-12-2024	08:42:59.928	715.507	7.498	7.498	27.494	938	0	1.0907	OK	11-12-2024	08:42:59.928	715.507	37.571	OK
11-12-2024	08:43:00.029	715.608	7.498	7.498	27.495	938	0	1.0906	OK	11-12-2024	08:43:00.029	715.608	37.571	OK
11-12-2024	08:43:00.130	715.709	7.498	7.498	27.495	938	0	1.0906	OK	11-12-2024	08:43:00.130	715.709	37.571	OK
11-12-2024	08:43:00.229	715.808	7.498	7.498	27.493	937	0	1.0908	OK	11-12-2024	08:43:00.229	715.808	37.569	OK
11-12-2024	08:43:00.399	715.978	7.499	7.499	27.498	938	0	1.0904	OK	11-12-2024	08:43:00.399	715.978	37.569	OK
11-12-2024	08:43:00.668	716.247	7.499	7.499	27.502	938	0	1.0901	OK	11-12-2024	08:43:00.668	716.247	37.569	OK
11-12-2024	08:43:00.830	716.409	7.499	7.499	27.499	938	0	1.0903	OK	11-12-2024	08:43:00.830	716.409	37.570	OK
11-12-2024	08:43:00.931	716.510	7.499	7.499	27.500	937	0	1.0902	OK	11-12-2024	08:43:00.931	716.510	37.570	OK
11-12-2024	08:43:01.031	716.610	7.499	7.499	27.497	937	0	1.0904	OK	11-12-2024	08:43:01.031	716.610	37.571	OK
11-12-2024	08:43:01.131	716.710	7.498	7.498	27.492	937	0	1.0908	OK	11-12-2024	08:43:01.131	716.710	37.571	OK
11-12-2024	08:43:01.232	716.811	7.498	7.498	27.491	937	0	1.0908	OK	11-12-2024	08:43:01.232	716.811	37.571	OK
11-12-2024	08:43:01.518	717.097	7.499	7.499	27.499	938	0	1.0903	OK	11-12-2024	08:43:01.518	717.097	37.572	OK
11-12-2024	08:43:01.688	717.267	7.499	7.499	27.499	938	0	1.0903	OK	11-12-2024	08:43:01.688	717.267	37.571	OK
11-12-2024	08:43:01.839	717.418	7.499	7.499	27.498	938	0	1.0904	OK	11-12-2024	08:43:01.839	717.418	37.571	OK
11-12-2024	08:43:01.934	717.513	7.498	7.498	27.496	938	0	1.0905	OK	11-12-2024	08:43:01.934	717.513	37.571	OK
11-12-2024	08:43:02.035	717.614	7.498	7.498	27.493	938	0	1.0907	OK	11-12-2024	08:43:02.035	717.614	37.570	OK
11-12-2024	08:43:02.136	717.715	7.498	7.498	27.494	938	0	1.0906	OK	11-12-2024	08:43:02.136	717.715	37.570	OK
11-12-2024	08:43:02.236	717.815	7.498	7.498	27.490	938	0	1.0909	OK	11-12-2024	08:43:02.236	717.815	37.571	OK
11-12-2024	08:43:02.423	718.002	7.499	7.499	27.497	937	0	1.0904	OK	11-12-2024	08:43:02.423	718.002	37.570	OK
11-12-2024	08:43:02.678	718.257	7.499	7.499	27.499	938	0	1.0903	OK	11-12-2024	08:43:02.678	718.257	37.570	OK
11-12-2024	08:43:02.836	718.415	7.499	7.499	27.498	938	0	1.0904	OK	11-12-2024	08:43:02.836	718.415	37.570	OK
11-12-2024	08:43:02.936	718.515	7.499	7.499	27.497	938	0	1.0904	OK	11-12-2024	08:43:02.936	718.515	37.570	OK
11-12-2024	08:43:03.037	718.616	7.498	7.498	27.494	937	0	1.0906	OK	11-12-2024	08:43:03.037	718.616	37.570	OK
11-12-2024	08:43:03.136	718.715	7.498	7.498	27.495	937	0	1.0906	OK	11-12-2024	08:43:03.136	718.715	37.570	OK
11-12-2024	08:43:03.239	718.817	7.499	7.499	27.497	937	0	1.0904	OK	11-12-2024	08:43:03.239	718.817	37.570	OK
11-12-2024	08:43:03.409	718.988	7.499	7.499	27.497	937	0	1.0904	OK	11-12-2024	08:43:03.409	718.988	37.570	OK
11-12-2024	08:43:03.661	719.240	7.499	7.499	27.503	937	0	1.0900	OK	11-12-2024	08:43:03.661	719.240	37.571	OK
11-12-2024	08:43:03.836	719.415	7.499	7.499	27.502	937	0	1.0901	OK	11-12-2024	08:43:03.836	719.415	37.571	OK
11-12-2024	08:43:03.937	719.515	7.499	7.499	27.499	937	0	1.0903	OK	11-12-2024	08:43:03.937	719.515	37.571	OK
11-12-2024	08:43:04.036	719.615	7.499	7.499	27.499	937	0	1.0903	OK	11-12-2024	08:43:04.036	719.615	37.571	OK
11-12-2024	08:43:04.136	719.715	7.498	7.498	27.496	937	0	1.0905	OK	11-12-2024	08:43:04.136	719.715	37.571	OK
11-12-2024	08:43:04.236	719.815	7.498	7.498	27.495	937	0	1.0906	OK	11-12-2024	08:43:04.236	719.815	37.571	OK
11-12-2024	08:43:04.408	719.987	7.499	7.499	27.499	937	0	1.0903	OK	11-12-2024	08:43:04.408	719.987	37.571	OK
11-12-2024	08:43:04.663	720.242	7.499	7.499	27.502	937	0	1.0901	OK	11-12-2024	08:43:04.663	720.242	37.570	OK
11-12-2024	08:43:04.836	720.415	7.499	7.499	27.497	937	0	1.0904	OK	11-12-2024	08:43:04.836	720.415	37.570	OK
11-12-2024	08:43:04.936	720.515	7.499	7.499	27.499	938	0	1.0903	OK	11-12-2024	08:43:04.936	720.515	37.571	OK
11-12-2024	08:43:05.037	720.615	7.499	7.499	27.497	938	0	1.0904	OK	11-12-2024	08:43:05.037	720.615	37.571	OK
11-12-2024	08:43:05.138	720.717	7.498	7.498	27.495	937	0	1.0906	OK	11-12-2024	08:43:05.138	720.717	37.572	OK
11-12-2024	08:43:05.237	720.816	7.498	7.498	27.493	937	0	1.0907	OK	11-12-2024	08:43:05.237	720.816	37.572	OK
11-12-2024	08:43:05.406	720.985	7.498	7.498	27.496	937	0	1.0905	OK	11-12-2024	08:43:05.406	720.985	37.571	OK
11-12-2024	08:43:05.677	721.256	7.499	7.499	27.500	937	0	1.0902	OK	11-12-2024	08:43:05.677	721.256	37.571	OK
11-12-2024	08:43:05.838	721.416	7.499	7.499	27.498	937	0	1.0903	OK	11-12-2024	08:43:05.838	721.416	37.571	OK
11-12-2024	08:43:05.936	721.515	7.498	7.498	27.495	937	0	1.0905	OK	11-12-2024	08:43:05.936	721.515	37.571	OK
11-12-2024	08:43:06.037	721.616	7.499	7.499	27.499	937	0	1.0902	OK	11-12-2024	08:43:06.037	721.616	37.571	OK
11-12-2024	08:43:06.137	721.716	7.498	7.498	27.489	937	0	1.0909	OK	11-12-2024	08:43:06.137	721.716	37.572	OK
11-12-2024	08:43:06.237	721.816	7.498	7.498	27.493	937	0	1.0907	OK	11-12-2024	08:43:06.237	721.816	37.572	OK
11-12-2024	08:43:06.410	721.989	7.499	7.499	27.496	937	0	1.0905	OK	11-12-2024	08:43:06.410	721.989	37.573	OK
11-12-2024	08:43:06.679	722.258	7.499	7.499	27.501	938	0	1.0902	OK	11-12-2024	08:43:06.679	722.258	37.573	OK
11-12-2024	08:43:06.838	722.417	7.499	7.499	27.499	938	0	1.0903	OK	11-12-2024	08:43:06.838	722.417	37.573	OK
11-12-2024	08:43:06.938	722.517	7.498	7.498	27.495	937	0	1.0906	OK	11-12-2024	08:43:06.938	722.517	37.574	OK
11-12-2024	08:43:07.039	722.618	7.498	7.498	27.492	937	0	1.0908	OK	11-12-2024	08:43:07.039	722.618	37.574	OK
11-12-2024	08:43:07.139	722.718	7.498	7.498	27.495	937	0	1.0906	OK	11-12-2024	08:43:07.139	722.718	37.575	OK
11-12-2024	08:43:07.240	722.819	7.498	7.498	27.496	937	0	1.0905	OK	11-12-2024	08:43:07.240	722.819	37.575	OK
11-12-2024	08:43:07.607	723.185	7.500	7.500	27.505	937	0	1.0898	OK	11-12-2024	08:43:07.607	723.185	37.575	OK
11-12-2024	08:43:07.742	723.321	7.499	7.499	27.498	937	0	1.0903	OK	11-12-2024	08:43:07.742	723.321	37.575	OK
11-12-2024	08:43:07.841	723.420	7.499	7.499	27.499	938	0	1.0902	OK	11-12-2024	08:43:07.841	723.420	37.575	OK
11-12-2024	08:43:07.942	723.521	7.498	7.498	27.493	938	0	1.0907	OK	11-12-2024	08:43:07.942	723.521	37.575	OK
11-12-2024	08:43:08.041	723.620	7.498	7.498	27.493	938	0	1.0907	OK	11-12-2024	08:43:08.041	723.620	37.575	OK
11-12-2024	08:43:08.142	723.721	7.499	7.499	27.497	938	0	1.0904	OK	11-12-2024	08:43:08.142	723.721	37.575	OK
11-12-2024	08:43:08.242	723.821	7.497	7.497	27.488	937	0	1.0910	OK	11-12-2024	08:43:08.242	723.821	37.575	OK
11-12-2024	08:43:08.414	723.992	7.498	7.498	27.496	937	0	1.0905	OK	11-12-2024	08:43:08.414	723.992	37.575	OK
11-12-2024	08:43:08.687	724.266	7.499	7.499	27.500	938	0	1.0902	OK	11-12-2024	08:43:08.687	724.266	37.576	OK
11-12-2024	08:43:08.842	724.421	7.499	7.499	27.498	937	0	1.0904	OK	11-12-2024	08:43:08.842	724.421	37.576	OK
11-12-2024	08:43:08.942	724.521	7.499	7.499	27.498	937	0	1.0904	OK	11-12-2024	08:43:08.942	724.521	37.576	OK
11-12-2024	08:43:09.041	724.620	7.499	7.499	27.499	937	0	1.0903	OK	11-12-2024	08:43:09.041	724.620	37.576	OK
11-12-2024	08:43:09.143	724.722	7.498	7.498	27.494	937	0	1.0906	OK	11-12-2024	08:43:09.143	724.722	37.577	OK
11-12-2024	08:43:09.244	724.822	7.498	7.498	27.492	937	0	1.0908	OK	11-12-2024	08:43:09.244	724.822	37.577	OK
11-12-2024	08:43:09.412	724.991	7.499	7.499	27.499	937	0	1.0903	OK	11-12-2024	08:43:09.412	724.991	37.577	OK
11-12-2024	08:43:09.667	725.246	7.499	7.499	27.501	937	0	1.0902	OK	11-12-2024	08:43:09.667	725.246	37.576	OK
11-12-2024	08:43:09.843	725.422	7.499	7.499	27.500	937	0	1.0902	OK	11-12-2024	08:43:09.843	725.422	37.576	OK
11-12-2024	08:43:09.944	725.523	7.499	7.499	27.497	937	0	1.0904	OK	11-12-2024	08:43:09.944	725.523	37.576	OK
11-12-2024	08:43:10.043	725.622	7.499	7.499	27.497	937	0	1.0904	OK	11-12-2024	08:43:10.043	725.622	37.576	OK
11-12-2024	08:43:10.142	725.721	7.499	7.499	27.497	937	0	1.0904	OK	11-12-2024	08:43:10.142	725.721	37.575	OK
11-12-2024	08:43:10.243	725.822	7.498	7.498	27.495	937	0	1.0906	OK	11-12-2024	08:43:10.243	725.822	37.575	OK
11-12-2024	08:43:10.412	725.991	7.498	7.498	27.496	937	0	1.0905	OK	11-12-2024	08:43:10.412	725.991	37.576	OK
11-12-2024	08:43:10.700	726.279	7.499	7.499	27.501	938	0	1.0901	OK	11-12-2024	08:43:10.700	726.279	37.575	OK
11-12-2024	08:43:10.844	726.423	7.499	7.499	27.501	937	0	1.0901	OK	11-12-2024	08:43:10.844	726.423	37.575	OK
11-12-2024	08:43:10.946	726.524	7.499	7.499	27.500	937	0	1.0902	OK	11-12-2024	08:43:10.946	726.524	37.575	OK
11-12-2024	08:43:11.145	726.724	7.499	7.499	27.500	937	0	1.0902	OK	11-12-2024	08:43:11.145	726.724	37.575	OK
11-12-2024	08:43:11.245	726.824	7.499	7.499	27.497	937	0	1.0904	OK	11-12-2024	08:43:11.245	726.824	37.575	OK
11-12-2024	08:43:11.418	726.997	7.499	7.499	27.499	937	0	1.0902	OK	11-12-2024	08:43:11.418	726.997	37.575	OK
11-12-2024	08:43:11.675	727.254	7.499	7.499	27.500	937	0	1.0902	OK	11-12-2024	08:43:11.675	727.254	37.575	OK
11-12-2024	08:43:11.845	727.424	7.499	7.499	27.501	938	0	1.0901	OK	11-12-2024	08:43:11.845	727.424	37.574	OK
11-12-2024	08:43:11.946	727.525	7.499	7.499	27.498	937	0	1.0903	OK	11-12-2024	08:43:11.946	727.525	37.575	OK
11-12-2024	08:43:12.046	727.625	7.499	7.499	27.497	937	0	1.0904	OK	11-12-2024	08:43:12.046	727.625	37.575	OK
11-12-2024	08:43:12.146	727.725	7.498	7.498	27.493	937	0	1.0907	OK	11-12-2024	08:43:12.146	727.725	37.574	OK
11-12-2024	08:43:12.247	727.826	7.499	7.499	27.497	937	0	1.0904	OK	11-12-2024	08:43:12.247	727.826	37.574	OK
11-12-2024	08:43:12.421	728.000	7.499	7.499	27.498	937	0	1.0903	OK	11-12-2024	08:43:12.421	728.000	37.573	OK
11-12-2024	08:43:12.677	728.256	7.499	7.499	27.503	937	0	1.0900	OK	11-12-2024	08:43:12.677	728.256	37.574	OK
11-12-2024	08:43:12.847	728.426	7.500	7.500	27.504	937	0	1.0899	OK	11-12-2024	08:43:12.847	728.426	37.574	OK
11-12-2024	08:43:12.948	728.527	7.498	7.498	27.494	938	0	1.0906	OK	11-12-2024	08:43:12.948	728.527	37.574	OK
11-12-2024	08:43:13.048	728.627	7.499	7.499	27.498	937	0	1.0904	OK	11-12-2024	08:43:13.048	728.627	37.575	OK
11-12-2024	08:43:13.148	728.727	7.498	7.498	27.494	937	0	1.0906	OK	11-12-2024	08:43:13.148	728.727	37.575	OK
11-12-2024	08:43:13.248	728.827	7.499	7.499	27.497	937	0	1.0904	OK	11-12-2024	08:43:13.248	728.827	37.576	OK
11-12-2024	08:43:13.416	728.995	7.498	7.498	27.495	937	0	1.0906	OK	11-12-2024	08:43:13.416	728.995	37.576	OK
11-12-2024	08:43:13.674	729.253	7.500	7.500	27.504	938	0	1.0899	OK	11-12-2024	08:43:13.674	729.253	37.576	OK
11-12-2024	08:43:13.848	729.427	7.499	7.499	27.501	937	0	1.0901	OK	11-12-2024	08:43:13.848	729.427	37.576	OK
11-12-2024	08:43:13.948	729.527	7.498	7.498	27.493	937	0	1.0907	OK	11-12-2024	08:43:13.948	729.527	37.576	OK
11-12-2024	08:43:14.049	729.628	7.499	7.499	27.497	937	0	1.0904	OK	11-12-2024	08:43:14.049	729.628	37.575	OK
11-12-2024	08:43:14.149	729.728	7.499	7.499	27.497	937	0	1.0904	OK	11-12-2024	08:43:14.149	729.728	37.575	OK
11-12-2024	08:43:14.249	729.828	7.498	7.498	27.491	937	0	1.0908	OK	11-12-2024	08:43:14.249	729.828	37.576	OK
11-12-2024	08:43:14.420	729.999	7.498	7.498	27.496	937	0	1.0905	OK	11-12-2024	08:43:14.420	729.999	37.576	OK
11-12-2024	08:43:14.677	730.256	7.500	7.500	27.504	937	0	1.0899	OK	11-12-2024	08:43:14.677	730.256	37.576	OK
11-12-2024	08:43:14.851	730.430	7.499	7.499	27.499	937	0	1.0902	OK	11-12-2024	08:43:14.851	730.430	37.576	OK
11-12-2024	08:43:14.951	730.530	7.499	7.499	27.498	937	0	1.0903	OK	11-12-2024	08:43:14.951	730.530	37.576	OK
11-12-2024	08:43:15.052	730.631	7.498	7.498	27.494	937	0	1.0906	OK	11-12-2024	08:43:15.052	730.631	37.577	OK
11-12-2024	08:43:15.151	730.730	7.498	7.498	27.492	937	0	1.0907	OK	11-12-2024	08:43:15.151	730.730	37.577	OK
11-12-2024	08:43:15.252	730.831	7.498	7.498	27.493	937	0	1.0907	OK	11-12-2024	08:43:15.252	730.831	37.577	OK
11-12-2024	08:43:15.426	731.005	7.499	7.499	27.500	937	0	1.0902	OK	11-12-2024	08:43:15.426	731.005	37.578	OK
11-12-2024	08:43:15.680	731.259	7.499	7.499	27.501	937	0	1.0901	OK	11-12-2024	08:43:15.680	731.259	37.578	OK
11-12-2024	08:43:15.853	731.432	7.499	7.499	27.500	937	0	1.0902	OK	11-12-2024	08:43:15.853	731.432	37.577	OK
11-12-2024	08:43:15.956	731.535	7.499	7.499	27.498	937	0	1.0903	OK	11-12-2024	08:43:15.956	731.535	37.577	OK
11-12-2024	08:43:16.053	731.632	7.498	7.498	27.496	937	0	1.0905	OK	11-12-2024	08:43:16.053	731.632	37.578	OK
11-12-2024	08:43:16.152	731.731	7.498	7.498	27.495	937	0	1.0905	OK	11-12-2024	08:43:16.152	731.731	37.578	OK
11-12-2024	08:43:16.253	731.832	7.498	7.498	27.493	937	0	1.0907	OK	11-12-2024	08:43:16.253	731.832	37.577	OK
11-12-2024	08:43:16.424	732.003	7.498	7.498	27.495	938	0	1.0905	OK	11-12-2024	08:43:16.424	732.003	37.576	OK
11-12-2024	08:43:16.696	732.275	7.500	7.500	27.504	938	0	1.0899	OK	11-12-2024	08:43:16.696	732.275	37.575	OK
11-12-2024	08:43:16.853	732.432	7.499	7.499	27.502	938	0	1.0900	OK	11-12-2024	08:43:16.853	732.432	37.574	OK
11-12-2024	08:43:16.953	732.532	7.499	7.499	27.497	937	0	1.0904	OK	11-12-2024	08:43:16.953	732.532	37.574	OK
11-12-2024	08:43:17.053	732.632	7.498	7.498	27.492	937	0	1.0907	OK	11-12-2024	08:43:17.053	732.632	37.575	OK
11-12-2024	08:43:17.154	732.733	7.498	7.498	27.495	937	0	1.0905	OK	11-12-2024	08:43:17.154	732.733	37.575	OK
11-12-2024	08:43:17.253	732.832	7.498	7.498	27.493	937	0	1.0907	OK	11-12-2024	08:43:17.253	732.832	37.575	OK
11-12-2024	08:43:17.422	733.001	7.499	7.499	27.497	937	0	1.0904	OK	11-12-2024	08:43:17.422	733.001	37.575	OK
11-12-2024	08:43:17.693	733.272	7.499	7.499	27.497	937	0	1.0904	OK	11-12-2024	08:43:17.693	733.272	37.575	OK
11-12-2024	08:43:17.854	733.433	7.499	7.499	27.497	937	0	1.0904	OK	11-12-2024	08:43:17.854	733.433	37.574	OK
11-12-2024	08:43:17.954	733.533	7.499	7.499	27.498	937	0	1.0903	OK	11-12-2024	08:43:17.954	733.533	37.574	OK
11-12-2024	08:43:18.054	733.633	7.499	7.499	27.496	937	0	1.0905	OK	11-12-2024	08:43:18.054	733.633	37.573	OK
11-12-2024	08:43:18.155	733.734	7.498	7.498	27.494	937	0	1.0906	OK	11-12-2024	08:43:18.155	733.734	37.573	OK
11-12-2024	08:43:18.257	733.836	7.498	7.498	27.492	937	0	1.0907	OK	11-12-2024	08:43:18.257	733.836	37.573	OK
11-12-2024	08:43:18.427	734.005	7.498	7.498	27.495	938	0	1.0905	OK	11-12-2024	08:43:18.427	734.005	37.573	OK
11-12-2024	08:43:18.697	734.276	7.499	7.499	27.500	938	0	1.0902	OK	11-12-2024	08:43:18.697	734.276	37.573	OK
11-12-2024	08:43:18.854	734.433	7.498	7.498	27.494	937	0	1.0906	OK	11-12-2024	08:43:18.854	734.433	37.575	OK
11-12-2024	08:43:18.954	734.533	7.498	7.498	27.496	938	0	1.0905	OK	11-12-2024	08:43:18.954	734.533	37.575	OK
11-12-2024	08:43:19.054	734.633	7.498	7.498	27.492	937	0	1.0907	OK	11-12-2024	08:43:19.054	734.633	37.575	OK
11-12-2024	08:43:19.154	734.733	7.499	7.499	27.497	937	0	1.0904	OK	11-12-2024	08:43:19.154	734.733	37.575	OK
11-12-2024	08:43:19.256	734.835	7.498	7.498	27.491	937	0	1.0908	OK	11-12-2024	08:43:19.256	734.835	37.574	OK
11-12-2024	08:43:19.425	735.004	7.499	7.499	27.496	937	0	1.0905	OK	11-12-2024	08:43:19.425	735.004	37.574	OK
11-12-2024	08:43:19.682	735.261	7.499	7.499	27.502	937	0	1.0900	OK	11-12-2024	08:43:19.682	735.261	37.575	OK
11-12-2024	08:43:19.855	735.434	7.499	7.499	27.499	938	0	1.0902	OK	11-12-2024	08:43:19.855	735.434	37.576	OK
11-12-2024	08:43:19.955	735.534	7.499	7.499	27.497	938	0	1.0904	OK	11-12-2024	08:43:19.955	735.534	37.576	OK
11-12-2024	08:43:20.055	735.634	7.498	7.498	27.495	937	0	1.0905	OK	11-12-2024	08:43:20.055	735.634	37.576	OK
11-12-2024	08:43:20.155	735.734	7.498	7.498	27.494	937	0	1.0906	OK	11-12-2024	08:43:20.155	735.734	37.576	OK
11-12-2024	08:43:20.384	735.963	7.499	7.499	27.502	937	0	1.0900	OK	11-12-2024	08:43:20.384	735.963	37.576	OK
11-12-2024	08:43:20.641	736.220	7.499	7.499	27.502	938	0	1.0900	OK	11-12-2024	08:43:20.641	736.220	37.576	OK
11-12-2024	08:43:20.756	736.335	7.499	7.499	27.497	937	0	1.0904	OK	11-12-2024	08:43:20.756	736.335	37.575	OK
11-12-2024	08:43:20.856	736.435	7.498	7.498	27.494	937	0	1.0906	OK	11-12-2024	08:43:20.856	736.435	37.575	OK
11-12-2024	08:43:20.956	736.535	7.498	7.498	27.492	937	0	1.0907	OK	11-12-2024	08:43:20.956	736.535	37.575	OK
11-12-2024	08:43:21.057	736.636	7.498	7.498	27.492	937	0	1.0907	OK	11-12-2024	08:43:21.057	736.636	37.575	OK
11-12-2024	08:43:21.156	736.735	7.498	7.498	27.490	937	0	1.0909	OK	11-12-2024	08:43:21.156	736.735	37.576	OK
11-12-2024	08:43:21.257	736.836	7.498	7.498	27.494	937	0	1.0906	OK	11-12-2024	08:43:21.257	736.836	37.576	OK
11-12-2024	08:43:21.427	737.006	7.499	7.499	27.498	937	0	1.0903	OK	11-12-2024	08:43:21.427	737.006	37.577	OK
11-12-2024	08:43:21.682	737.261	7.499	7.499	27.502	938	0	1.0900	OK	11-12-2024	08:43:21.682	737.261	37.575	OK
11-12-2024	08:43:21.859	737.438	7.499	7.499	27.501	937	0	1.0901	OK	11-12-2024	08:43:21.859	737.438	37.575	OK
11-12-2024	08:43:21.959	737.538	7.499	7.499	27.496	937	0	1.0904	OK	11-12-2024	08:43:21.959	737.538	37.575	OK
11-12-2024	08:43:22.059	737.638	7.498	7.498	27.492	937	0	1.0907	OK	11-12-2024	08:43:22.059	737.638	37.575	OK
11-12-2024	08:43:22.158	737.737	7.498	7.498	27.491	937	0	1.0908	OK	11-12-2024	08:43:22.158	737.737	37.574	OK
11-12-2024	08:43:22.384	737.963	7.499	7.499	27.501	937	0	1.0901	OK	11-12-2024	08:43:22.384	737.963	37.574	OK
11-12-2024	08:43:22.644	738.223	7.500	7.500	27.504	938	0	1.0899	OK	11-12-2024	08:43:22.644	738.223	37.575	OK
11-12-2024	08:43:22.759	738.338	7.499	7.499	27.500	938	0	1.0902	OK	11-12-2024	08:43:22.759	738.338	37.574	OK
11-12-2024	08:43:22.858	738.437	7.498	7.498	27.491	937	0	1.0908	OK	11-12-2024	08:43:22.858	738.437	37.574	OK
11-12-2024	08:43:22.959	738.538	7.499	7.499	27.499	938	0	1.0902	OK	11-12-2024	08:43:22.959	738.538	37.574	OK
11-12-2024	08:43:23.059	738.638	7.498	7.498	27.495	937	0	1.0905	OK	11-12-2024	08:43:23.059	738.638	37.574	OK
11-12-2024	08:43:23.160	738.739	7.499	7.499	27.496	937	0	1.0905	OK	11-12-2024	08:43:23.160	738.739	37.574	OK
11-12-2024	08:43:23.260	738.839	7.498	7.498	27.493	937	0	1.0907	OK	11-12-2024	08:43:23.260	738.839	37.574	OK
11-12-2024	08:43:23.432	739.011	7.499	7.499	27.496	937	0	1.0905	OK	11-12-2024	08:43:23.432	739.011	37.574	OK
11-12-2024	08:43:23.706	739.285	7.499	7.499	27.502	937	0	1.0900	OK	11-12-2024	08:43:23.706	739.285	37.574	OK
11-12-2024	08:43:23.861	739.440	7.500	7.500	27.503	938	0	1.0900	OK	11-12-2024	08:43:23.861	739.440	37.574	OK
11-12-2024	08:43:23.960	739.539	7.499	7.499	27.497	937	0	1.0904	OK	11-12-2024	08:43:23.960	739.539	37.575	OK
11-12-2024	08:43:24.061	739.640	7.499	7.499	27.497	938	0	1.0904	OK	11-12-2024	08:43:24.061	739.640	37.575	OK
11-12-2024	08:43:24.160	739.739	7.498	7.498	27.492	938	0	1.0907	OK	11-12-2024	08:43:24.160	739.739	37.574	OK
11-12-2024	08:43:24.262	739.841	7.499	7.499	27.496	937	0	1.0905	OK	11-12-2024	08:43:24.262	739.841	37.574	OK
11-12-2024	08:43:24.432	740.011	7.499	7.499	27.496	937	0	1.0905	OK	11-12-2024	08:43:24.432	740.011	37.574	OK
11-12-2024	08:43:24.687	740.266	7.499	7.499	27.499	937	0	1.0902	OK	11-12-2024	08:43:24.687	740.266	37.575	OK
11-12-2024	08:43:24.864	740.442	7.499	7.499	27.502	938	0	1.0900	OK	11-12-2024	08:43:24.864	740.442	37.575	OK
11-12-2024	08:43:24.964	740.543	7.498	7.498	27.494	937	0	1.0906	OK	11-12-2024	08:43:24.964	740.543	37.576	OK
11-12-2024	08:43:25.065	740.644	7.499	7.499	27.498	937	0	1.0903	OK	11-12-2024	08:43:25.065	740.644	37.576	OK
11-12-2024	08:43:25.164	740.743	7.499	7.499	27.499	937	0	1.0902	OK	11-12-2024	08:43:25.164	740.743	37.577	OK
11-12-2024	08:43:25.265	740.844	7.498	7.498	27.495	937	0	1.0905	OK	11-12-2024	08:43:25.265	740.844	37.577	OK
11-12-2024	08:43:25.436	741.015	7.499	7.499	27.499	937	0	1.0902	OK	11-12-2024	08:43:25.436	741.015	37.576	OK
11-12-2024	08:43:25.708	741.287	7.499	7.499	27.500	937	0	1.0902	OK	11-12-2024	08:43:25.708	741.287	37.576	OK
11-12-2024	08:43:25.866	741.445	7.499	7.499	27.502	937	0	1.0900	OK	11-12-2024	08:43:25.866	741.445	37.577	OK
11-12-2024	08:43:25.966	741.545	7.498	7.498	27.492	938	0	1.0907	OK	11-12-2024	08:43:25.966	741.545	37.577	OK
11-12-2024	08:43:26.066	741.645	7.499	7.499	27.496	937	0	1.0904	OK	11-12-2024	08:43:26.066	741.645	37.577	OK
11-12-2024	08:43:26.165	741.744	7.498	7.498	27.494	937	0	1.0905	OK	11-12-2024	08:43:26.165	741.744	37.577	OK
11-12-2024	08:43:26.267	741.846	7.498	7.498	27.493	937	0	1.0906	OK	11-12-2024	08:43:26.267	741.846	37.577	OK
11-12-2024	08:43:26.438	742.017	7.499	7.499	27.502	937	0	1.0900	OK	11-12-2024	08:43:26.438	742.017	37.577	OK
11-12-2024	08:43:26.693	742.272	7.499	7.499	27.500	938	0	1.0901	OK	11-12-2024	08:43:26.693	742.272	37.578	OK
11-12-2024	08:43:26.869	742.448	7.499	7.499	27.502	938	0	1.0900	OK	11-12-2024	08:43:26.869	742.448	37.577	OK
11-12-2024	08:43:26.970	742.548	7.499	7.499	27.498	937	0	1.0903	OK	11-12-2024	08:43:26.970	742.548	37.578	OK
11-12-2024	08:43:27.072	742.650	7.499	7.499	27.497	937	0	1.0904	OK	11-12-2024	08:43:27.072	742.650	37.578	OK
11-12-2024	08:43:27.272	742.851	7.499	7.499	27.499	938	0	1.0902	OK	11-12-2024	08:43:27.272	742.851	37.577	OK
11-12-2024	08:43:27.444	743.023	7.499	7.499	27.502	937	0	1.0900	OK	11-12-2024	08:43:27.444	743.023	37.577	OK
11-12-2024	08:43:27.702	743.280	7.500	7.500	27.507	938	0	1.0897	OK	11-12-2024	08:43:27.702	743.280	37.577	OK
11-12-2024	08:43:27.872	743.451	7.499	7.499	27.500	938	0	1.0901	OK	11-12-2024	08:43:27.872	743.451	37.576	OK
11-12-2024	08:43:27.972	743.551	7.500	7.500	27.503	938	0	1.0899	OK	11-12-2024	08:43:27.972	743.551	37.577	OK
11-12-2024	08:43:28.074	743.653	7.499	7.499	27.498	938	0	1.0903	OK	11-12-2024	08:43:28.074	743.653	37.577	OK
11-12-2024	08:43:28.176	743.755	7.499	7.499	27.498	937	0	1.0903	OK	11-12-2024	08:43:28.176	743.755	37.577	OK
11-12-2024	08:43:28.275	743.854	7.499	7.499	27.498	938	0	1.0903	OK	11-12-2024	08:43:28.275	743.854	37.577	OK
11-12-2024	08:43:28.448	744.027	7.499	7.499	27.497	938	0	1.0903	OK	11-12-2024	08:43:28.448	744.027	37.577	OK
11-12-2024	08:43:28.722	744.301	7.500	7.500	27.505	938	0	1.0898	OK	11-12-2024	08:43:28.722	744.301	37.577	OK
11-12-2024	08:43:28.877	744.456	7.499	7.499	27.502	937	0	1.0900	OK	11-12-2024	08:43:28.877	744.456	37.576	OK
11-12-2024	08:43:28.976	744.554	7.499	7.499	27.499	938	0	1.0902	OK	11-12-2024	08:43:28.976	744.554	37.576	OK
11-12-2024	08:43:29.077	744.656	7.498	7.498	27.495	937	0	1.0905	OK	11-12-2024	08:43:29.077	744.656	37.575	OK
11-12-2024	08:43:29.179	744.757	7.498	7.498	27.496	937	0	1.0905	OK	11-12-2024	08:43:29.179	744.757	37.575	OK
11-12-2024	08:43:29.278	744.857	7.499	7.499	27.497	937	0	1.0904	OK	11-12-2024	08:43:29.278	744.857	37.575	OK
11-12-2024	08:43:29.449	745.028	7.499	7.499	27.499	938	0	1.0902	OK	11-12-2024	08:43:29.449	745.028	37.575	OK
11-12-2024	08:43:29.721	745.300	7.499	7.499	27.500	938	0	1.0902	OK	11-12-2024	08:43:29.721	745.300	37.575	OK
11-12-2024	08:43:29.879	745.458	7.499	7.499	27.501	938	0	1.0901	OK	11-12-2024	08:43:29.879	745.458	37.574	OK
11-12-2024	08:43:29.980	745.559	7.498	7.498	27.495	937	0	1.0905	OK	11-12-2024	08:43:29.980	745.559	37.574	OK
11-12-2024	08:43:30.081	745.660	7.498	7.498	27.495	938	0	1.0905	OK	11-12-2024	08:43:30.081	745.660	37.575	OK
11-12-2024	08:43:30.180	745.759	7.498	7.498	27.494	937	0	1.0905	OK	11-12-2024	08:43:30.180	745.759	37.575	OK
11-12-2024	08:43:30.280	745.859	7.498	7.498	27.493	937	0	1.0906	OK	11-12-2024	08:43:30.280	745.859	37.575	OK
11-12-2024	08:43:30.451	746.030	7.499	7.499	27.499	937	0	1.0902	OK	11-12-2024	08:43:30.451	746.030	37.576	OK
11-12-2024	08:43:30.709	746.288	7.499	7.499	27.499	937	0	1.0902	OK	11-12-2024	08:43:30.709	746.288	37.576	OK
11-12-2024	08:43:30.881	746.460	7.499	7.499	27.501	938	0	1.0901	OK	11-12-2024	08:43:30.881	746.460	37.577	OK
11-12-2024	08:43:30.982	746.561	7.498	7.498	27.494	937	0	1.0905	OK	11-12-2024	08:43:30.982	746.561	37.577	OK
11-12-2024	08:43:31.082	746.661	7.499	7.499	27.497	937	0	1.0903	OK	11-12-2024	08:43:31.082	746.661	37.577	OK
11-12-2024	08:43:31.182	746.761	7.499	7.499	27.499	937	0	1.0902	OK	11-12-2024	08:43:31.182	746.761	37.577	OK
11-12-2024	08:43:31.282	746.860	7.498	7.498	27.490	937	0	1.0908	OK	11-12-2024	08:43:31.282	746.860	37.577	OK
11-12-2024	08:43:31.453	747.032	7.498	7.498	27.494	937	0	1.0905	OK	11-12-2024	08:43:31.453	747.032	37.576	OK
11-12-2024	08:43:31.710	747.289	7.499	7.499	27.502	937	0	1.0900	OK	11-12-2024	08:43:31.710	747.289	37.576	OK
11-12-2024	08:43:31.882	747.461	7.499	7.499	27.501	937	0	1.0901	OK	11-12-2024	08:43:31.882	747.461	37.577	OK
11-12-2024	08:43:31.982	747.560	7.499	7.499	27.497	937	0	1.0903	OK	11-12-2024	08:43:31.982	747.560	37.577	OK
11-12-2024	08:43:32.082	747.661	7.499	7.499	27.496	937	0	1.0904	OK	11-12-2024	08:43:32.082	747.661	37.576	OK
11-12-2024	08:43:32.183	747.762	7.499	7.499	27.499	937	0	1.0902	OK	11-12-2024	08:43:32.183	747.762	37.576	OK
11-12-2024	08:43:32.282	747.861	7.498	7.498	27.494	937	0	1.0905	OK	11-12-2024	08:43:32.282	747.861	37.576	OK
11-12-2024	08:43:32.467	748.046	7.499	7.499	27.498	937	0	1.0903	OK	11-12-2024	08:43:32.467	748.046	37.577	OK
11-12-2024	08:43:32.756	748.335	7.500	7.500	27.507	937	0	1.0896	OK	11-12-2024	08:43:32.756	748.335	37.575	OK
11-12-2024	08:43:32.882	748.461	7.499	7.499	27.496	937	0	1.0904	OK	11-12-2024	08:43:32.882	748.461	37.576	OK
11-12-2024	08:43:32.982	748.561	7.499	7.499	27.497	937	-1	1.0903	OK	11-12-2024	08:43:32.982	748.561	37.576	OK
11-12-2024	08:43:33.083	748.662	7.498	7.498	27.493	937	0	1.0906	OK	11-12-2024	08:43:33.083	748.662	37.575	OK
11-12-2024	08:43:33.183	748.762	7.499	7.499	27.497	937	0	1.0903	OK	11-12-2024	08:43:33.183	748.762	37.575	OK
11-12-2024	08:43:33.283	748.861	7.498	7.498	27.494	937	0	1.0905	OK	11-12-2024	08:43:33.283	748.861	37.576	OK
11-12-2024	08:43:33.451	749.030	7.498	7.498	27.495	937	0	1.0905	OK	11-12-2024	08:43:33.451	749.030	37.576	OK
11-12-2024	08:43:33.705	749.283	7.500	7.500	27.503	937	0	1.0899	OK	11-12-2024	08:43:33.705	749.283	37.576	OK
11-12-2024	08:43:33.883	749.461	7.500	7.500	27.503	938	0	1.0899	OK	11-12-2024	08:43:33.883	749.461	37.576	OK
11-12-2024	08:43:33.983	749.562	7.499	7.499	27.498	937	0	1.0903	OK	11-12-2024	08:43:33.983	749.562	37.576	OK
11-12-2024	08:43:34.083	749.662	7.499	7.499	27.500	937	0	1.0901	OK	11-12-2024	08:43:34.083	749.662	37.576	OK
11-12-2024	08:43:34.183	749.762	7.499	7.499	27.498	937	0	1.0903	OK	11-12-2024	08:43:34.183	749.762	37.576	OK
11-12-2024	08:43:34.283	749.862	7.499	7.499	27.498	937	0	1.0903	OK	11-12-2024	08:43:34.283	749.862	37.576	OK
11-12-2024	08:43:34.454	750.033	7.499	7.499	27.500	937	0	1.0901	OK	11-12-2024	08:43:34.454	750.033	37.576	OK
11-12-2024	08:43:34.710	750.289	7.499	7.499	27.497	937	0	1.0903	OK	11-12-2024	08:43:34.710	750.289	37.577	OK
11-12-2024	08:43:34.883	750.462	7.500	7.500	27.503	937	0	1.0899	OK	11-12-2024	08:43:34.883	750.462	37.577	OK
11-12-2024	08:43:34.983	750.562	7.499	7.499	27.499	937	0	1.0902	OK	11-12-2024	08:43:34.983	750.562	37.577	OK
11-12-2024	08:43:35.083	750.662	7.498	7.498	27.495	937	0	1.0905	OK	11-12-2024	08:43:35.083	750.662	37.576	OK
11-12-2024	08:43:35.183	750.762	7.499	7.499	27.496	937	0	1.0904	OK	11-12-2024	08:43:35.183	750.762	37.576	OK
11-12-2024	08:43:35.283	750.862	7.498	7.498	27.493	937	0	1.0906	OK	11-12-2024	08:43:35.283	750.862	37.576	OK
11-12-2024	08:43:35.454	751.033	7.499	7.499	27.496	937	0	1.0904	OK	11-12-2024	08:43:35.454	751.033	37.576	OK
11-12-2024	08:43:35.716	751.295	7.499	7.499	27.499	937	0	1.0902	OK	11-12-2024	08:43:35.716	751.295	37.578	OK
11-12-2024	08:43:35.885	751.464	7.499	7.499	27.499	937	0	1.0902	OK	11-12-2024	08:43:35.885	751.464	37.579	OK
11-12-2024	08:43:35.985	751.564	7.499	7.499	27.498	937	0	1.0902	OK	11-12-2024	08:43:35.985	751.564	37.579	OK
11-12-2024	08:43:36.085	751.664	7.498	7.498	27.494	937	0	1.0905	OK	11-12-2024	08:43:36.085	751.664	37.579	OK
11-12-2024	08:43:36.184	751.763	7.498	7.498	27.495	937	0	1.0904	OK	11-12-2024	08:43:36.184	751.763	37.579	OK
11-12-2024	08:43:36.285	751.864	7.498	7.498	27.494	937	0	1.0905	OK	11-12-2024	08:43:36.285	751.864	37.579	OK
11-12-2024	08:43:36.456	752.034	7.499	7.499	27.496	937	0	1.0904	OK	11-12-2024	08:43:36.456	752.034	37.579	OK
11-12-2024	08:43:36.715	752.294	7.500	7.500	27.504	937	0	1.0898	OK	11-12-2024	08:43:36.715	752.294	37.577	OK
11-12-2024	08:43:36.886	752.465	7.500	7.500	27.502	937	0	1.0899	OK	11-12-2024	08:43:36.886	752.465	37.577	OK
11-12-2024	08:43:36.986	752.565	7.499	7.499	27.502	937	0	1.0900	OK	11-12-2024	08:43:36.986	752.565	37.578	OK
11-12-2024	08:43:37.086	752.665	7.498	7.498	27.495	937	0	1.0905	OK	11-12-2024	08:43:37.086	752.665	37.578	OK
11-12-2024	08:43:37.186	752.765	7.498	7.498	27.493	937	0	1.0906	OK	11-12-2024	08:43:37.186	752.765	37.578	OK
11-12-2024	08:43:37.286	752.865	7.498	7.498	27.493	937	0	1.0906	OK	11-12-2024	08:43:37.286	752.865	37.578	OK
11-12-2024	08:43:37.458	753.037	7.499	7.499	27.499	937	0	1.0902	OK	11-12-2024	08:43:37.458	753.037	37.578	OK
11-12-2024	08:43:37.717	753.296	7.499	7.499	27.500	938	0	1.0901	OK	11-12-2024	08:43:37.717	753.296	37.576	OK
11-12-2024	08:43:37.886	753.465	7.499	7.499	27.501	937	0	1.0901	OK	11-12-2024	08:43:37.886	753.465	37.576	OK
11-12-2024	08:43:37.986	753.565	7.499	7.499	27.498	937	0	1.0903	OK	11-12-2024	08:43:37.986	753.565	37.576	OK
11-12-2024	08:43:38.087	753.666	7.498	7.498	27.494	937	0	1.0905	OK	11-12-2024	08:43:38.087	753.666	37.576	OK
11-12-2024	08:43:38.188	753.767	7.498	7.498	27.494	938	0	1.0905	OK	11-12-2024	08:43:38.188	753.767	37.576	OK
11-12-2024	08:43:38.287	753.866	7.498	7.498	27.490	937	0	1.0908	OK	11-12-2024	08:43:38.287	753.866	37.576	OK
11-12-2024	08:43:38.456	754.035	7.499	7.499	27.498	937	0	1.0903	OK	11-12-2024	08:43:38.456	754.035	37.576	OK
11-12-2024	08:43:38.712	754.290	7.499	7.499	27.498	938	0	1.0903	OK	11-12-2024	08:43:38.712	754.290	37.577	OK
11-12-2024	08:43:38.888	754.467	7.499	7.499	27.500	938	0	1.0901	OK	11-12-2024	08:43:38.888	754.467	37.577	OK
11-12-2024	08:43:38.987	754.566	7.499	7.499	27.498	937	0	1.0903	OK	11-12-2024	08:43:38.987	754.566	37.576	OK
11-12-2024	08:43:39.088	754.667	7.498	7.498	27.494	937	0	1.0905	OK	11-12-2024	08:43:39.088	754.667	37.576	OK
11-12-2024	08:43:39.189	754.768	7.498	7.498	27.495	937	0	1.0905	OK	11-12-2024	08:43:39.189	754.768	37.575	OK
11-12-2024	08:43:39.288	754.867	7.498	7.498	27.491	937	0	1.0908	OK	11-12-2024	08:43:39.288	754.867	37.575	OK
11-12-2024	08:43:39.460	755.039	7.498	7.498	27.495	937	0	1.0905	OK	11-12-2024	08:43:39.460	755.039	37.575	OK
11-12-2024	08:43:39.730	755.309	7.499	7.499	27.501	938	0	1.0901	OK	11-12-2024	08:43:39.730	755.309	37.574	OK
11-12-2024	08:43:39.888	755.467	7.499	7.499	27.499	937	0	1.0902	OK	11-12-2024	08:43:39.888	755.467	37.574	OK
11-12-2024	08:43:39.988	755.567	7.498	7.498	27.492	937	0	1.0907	OK	11-12-2024	08:43:39.988	755.567	37.575	OK
11-12-2024	08:43:40.088	755.667	7.499	7.499	27.496	937	0	1.0904	OK	11-12-2024	08:43:40.088	755.667	37.575	OK
11-12-2024	08:43:40.188	755.767	7.498	7.498	27.493	937	0	1.0906	OK	11-12-2024	08:43:40.188	755.767	37.574	OK
11-12-2024	08:43:40.288	755.867	7.498	7.498	27.492	937	0	1.0907	OK	11-12-2024	08:43:40.288	755.867	37.574	OK
11-12-2024	08:43:40.460	756.039	7.498	7.498	27.491	938	0	1.0908	OK	11-12-2024	08:43:40.460	756.039	37.574	OK
11-12-2024	08:43:40.714	756.293	7.499	7.499	27.498	938	0	1.0903	OK	11-12-2024	08:43:40.714	756.293	37.575	OK
11-12-2024	08:43:40.888	756.467	7.498	7.498	27.494	937	0	1.0905	OK	11-12-2024	08:43:40.888	756.467	37.576	OK
11-12-2024	08:43:40.988	756.567	7.498	7.498	27.495	937	0	1.0905	OK	11-12-2024	08:43:40.988	756.567	37.576	OK
11-12-2024	08:43:41.089	756.668	7.498	7.498	27.494	937	0	1.0905	OK	11-12-2024	08:43:41.089	756.668	37.576	OK
11-12-2024	08:43:41.190	756.769	7.498	7.498	27.491	937	0	1.0908	OK	11-12-2024	08:43:41.190	756.769	37.575	OK
11-12-2024	08:43:41.290	756.869	7.498	7.498	27.489	937	0	1.0909	OK	11-12-2024	08:43:41.290	756.869	37.575	OK
11-12-2024	08:43:41.463	757.042	7.498	7.498	27.495	937	0	1.0905	OK	11-12-2024	08:43:41.463	757.042	37.575	OK
11-12-2024	08:43:41.720	757.299	7.499	7.499	27.497	937	0	1.0903	OK	11-12-2024	08:43:41.720	757.299	37.575	OK
11-12-2024	08:43:41.891	757.470	7.499	7.499	27.496	937	0	1.0904	OK	11-12-2024	08:43:41.891	757.470	37.576	OK
11-12-2024	08:43:41.991	757.570	7.499	7.499	27.497	937	0	1.0903	OK	11-12-2024	08:43:41.991	757.570	37.576	OK
11-12-2024	08:43:42.091	757.670	7.498	7.498	27.494	937	0	1.0905	OK	11-12-2024	08:43:42.091	757.670	37.576	OK
11-12-2024	08:43:42.191	757.770	7.498	7.498	27.493	937	0	1.0906	OK	11-12-2024	08:43:42.191	757.770	37.577	OK
11-12-2024	08:43:42.291	757.870	7.498	7.498	27.494	937	0	1.0905	OK	11-12-2024	08:43:42.291	757.870	37.577	OK
11-12-2024	08:43:42.462	758.041	7.499	7.499	27.502	937	0	1.0900	OK	11-12-2024	08:43:42.462	758.041	37.577	OK
11-12-2024	08:43:42.734	758.313	7.499	7.499	27.499	937	0	1.0902	OK	11-12-2024	08:43:42.734	758.313	37.577	OK
11-12-2024	08:43:42.891	758.470	7.499	7.499	27.502	937	0	1.0900	OK	11-12-2024	08:43:42.891	758.470	37.578	OK
11-12-2024	08:43:42.990	758.569	7.498	7.498	27.494	937	0	1.0905	OK	11-12-2024	08:43:42.990	758.569	37.578	OK
11-12-2024	08:43:43.091	758.670	7.499	7.499	27.496	937	0	1.0904	OK	11-12-2024	08:43:43.091	758.670	37.578	OK
11-12-2024	08:43:43.191	758.770	7.499	7.499	27.496	937	0	1.0904	OK	11-12-2024	08:43:43.191	758.770	37.578	OK
11-12-2024	08:43:43.290	758.869	7.498	7.498	27.493	937	0	1.0906	OK	11-12-2024	08:43:43.290	758.869	37.578	OK
11-12-2024	08:43:43.460	759.039	7.498	7.498	27.493	937	0	1.0906	OK	11-12-2024	08:43:43.460	759.039	37.578	OK
11-12-2024	08:43:43.729	759.308	7.499	7.499	27.501	937	0	1.0901	OK	11-12-2024	08:43:43.729	759.308	37.577	OK
11-12-2024	08:43:43.893	759.472	7.499	7.499	27.500	937	0	1.0901	OK	11-12-2024	08:43:43.893	759.472	37.576	OK
11-12-2024	08:43:43.994	759.573	7.499	7.499	27.496	937	0	1.0904	OK	11-12-2024	08:43:43.994	759.573	37.575	OK
11-12-2024	08:43:44.092	759.671	7.498	7.498	27.493	937	0	1.0906	OK	11-12-2024	08:43:44.092	759.671	37.575	OK
11-12-2024	08:43:44.192	759.771	7.498	7.498	27.495	937	0	1.0905	OK	11-12-2024	08:43:44.192	759.771	37.575	OK
11-12-2024	08:43:44.293	759.872	7.498	7.498	27.495	937	0	1.0905	OK	11-12-2024	08:43:44.293	759.872	37.575	OK
11-12-2024	08:43:44.461	760.040	7.498	7.498	27.495	937	0	1.0905	OK	11-12-2024	08:43:44.461	760.040	37.575	OK
11-12-2024	08:43:44.734	760.313	7.499	7.499	27.501	937	0	1.0901	OK	11-12-2024	08:43:44.734	760.313	37.573	OK
11-12-2024	08:43:44.895	760.474	7.499	7.499	27.500	937	0	1.0901	OK	11-12-2024	08:43:44.895	760.474	37.574	OK
11-12-2024	08:43:44.996	760.575	7.498	7.498	27.494	937	0	1.0905	OK	11-12-2024	08:43:44.996	760.575	37.574	OK
11-12-2024	08:43:45.096	760.675	7.499	7.499	27.499	937	0	1.0902	OK	11-12-2024	08:43:45.096	760.675	37.573	OK
11-12-2024	08:43:45.195	760.774	7.498	7.498	27.495	937	0	1.0905	OK	11-12-2024	08:43:45.195	760.774	37.573	OK
11-12-2024	08:43:45.296	760.875	7.499	7.499	27.496	937	0	1.0904	OK	11-12-2024	08:43:45.296	760.875	37.572	OK
11-12-2024	08:43:45.469	761.048	7.499	7.499	27.498	937	0	1.0903	OK	11-12-2024	08:43:45.469	761.048	37.573	OK
11-12-2024	08:43:45.731	761.310	7.499	7.499	27.502	937	0	1.0900	OK	11-12-2024	08:43:45.731	761.310	37.573	OK
11-12-2024	08:43:45.896	761.475	7.499	7.499	27.499	937	0	1.0902	OK	11-12-2024	08:43:45.896	761.475	37.573	OK
11-12-2024	08:43:45.996	761.575	7.499	7.499	27.498	937	0	1.0903	OK	11-12-2024	08:43:45.996	761.575	37.573	OK
11-12-2024	08:43:46.097	761.676	7.498	7.498	27.495	937	0	1.0905	OK	11-12-2024	08:43:46.097	761.676	37.572	OK
11-12-2024	08:43:46.296	761.875	7.498	7.498	27.494	937	0	1.0905	OK	11-12-2024	08:43:46.296	761.875	37.573	OK
11-12-2024	08:43:46.466	762.045	7.499	7.499	27.497	938	0	1.0903	OK	11-12-2024	08:43:46.466	762.045	37.572	OK
11-12-2024	08:43:46.738	762.317	7.499	7.499	27.501	937	0	1.0901	OK	11-12-2024	08:43:46.738	762.317	37.572	OK
11-12-2024	08:43:46.897	762.476	7.499	7.499	27.500	937	0	1.0901	OK	11-12-2024	08:43:46.897	762.476	37.572	OK
11-12-2024	08:43:46.996	762.575	7.499	7.499	27.498	937	0	1.0903	OK	11-12-2024	08:43:46.996	762.575	37.572	OK
11-12-2024	08:43:47.097	762.675	7.499	7.499	27.496	937	0	1.0904	OK	11-12-2024	08:43:47.097	762.675	37.573	OK
11-12-2024	08:43:47.197	762.776	7.498	7.498	27.491	937	0	1.0908	OK	11-12-2024	08:43:47.197	762.776	37.573	OK
11-12-2024	08:43:47.297	762.876	7.498	7.498	27.492	937	0	1.0907	OK	11-12-2024	08:43:47.297	762.876	37.574	OK
11-12-2024	08:43:47.471	763.050	7.499	7.499	27.498	937	0	1.0903	OK	11-12-2024	08:43:47.471	763.050	37.574	OK
11-12-2024	08:43:47.745	763.324	7.498	7.498	27.495	938	0	1.0905	OK	11-12-2024	08:43:47.745	763.324	37.574	OK
11-12-2024	08:43:47.898	763.477	7.499	7.499	27.500	938	0	1.0901	OK	11-12-2024	08:43:47.898	763.477	37.575	OK
11-12-2024	08:43:47.999	763.578	7.498	7.498	27.494	938	0	1.0905	OK	11-12-2024	08:43:47.999	763.578	37.575	OK
11-12-2024	08:43:48.199	763.778	7.499	7.499	27.499	937	0	1.0902	OK	11-12-2024	08:43:48.199	763.778	37.574	OK
11-12-2024	08:43:48.298	763.876	7.499	7.499	27.497	937	0	1.0903	OK	11-12-2024	08:43:48.298	763.876	37.575	OK
11-12-2024	08:43:48.470	764.049	7.499	7.499	27.496	937	0	1.0904	OK	11-12-2024	08:43:48.470	764.049	37.575	OK
11-12-2024	08:43:48.742	764.321	7.499	7.499	27.502	937	0	1.0900	OK	11-12-2024	08:43:48.742	764.321	37.574	OK
11-12-2024	08:43:48.899	764.478	7.499	7.499	27.498	937	0	1.0903	OK	11-12-2024	08:43:48.899	764.478	37.574	OK
11-12-2024	08:43:48.999	764.578	7.499	7.499	27.497	937	0	1.0903	OK	11-12-2024	08:43:48.999	764.578	37.574	OK
11-12-2024	08:43:49.099	764.678	7.498	7.498	27.495	937	0	1.0905	OK	11-12-2024	08:43:49.099	764.678	37.574	OK
11-12-2024	08:43:49.200	764.779	7.498	7.498	27.494	937	0	1.0905	OK	11-12-2024	08:43:49.200	764.779	37.574	OK
11-12-2024	08:43:49.302	764.881	7.498	7.498	27.493	937	0	1.0906	OK	11-12-2024	08:43:49.302	764.881	37.574	OK
11-12-2024	08:43:49.477	765.056	7.499	7.499	27.498	937	0	1.0903	OK	11-12-2024	08:43:49.477	765.056	37.574	OK
11-12-2024	08:43:49.736	765.315	7.499	7.499	27.501	937	0	1.0901	OK	11-12-2024	08:43:49.736	765.315	37.574	OK
11-12-2024	08:43:49.903	765.482	7.499	7.499	27.500	937	0	1.0901	OK	11-12-2024	08:43:49.903	765.482	37.574	OK
11-12-2024	08:43:50.003	765.582	7.499	7.499	27.496	937	0	1.0904	OK	11-12-2024	08:43:50.003	765.582	37.574	OK
11-12-2024	08:43:50.102	765.681	7.498	7.498	27.494	937	0	1.0905	OK	11-12-2024	08:43:50.102	765.681	37.574	OK
11-12-2024	08:43:50.203	765.782	7.499	7.499	27.499	937	0	1.0902	OK	11-12-2024	08:43:50.203	765.782	37.574	OK
11-12-2024	08:43:50.389	765.968	7.500	7.500	27.503	937	0	1.0899	OK	11-12-2024	08:43:50.389	765.968	37.574	OK
11-12-2024	08:43:50.643	766.222	7.499	7.499	27.501	937	0	1.0901	OK	11-12-2024	08:43:50.643	766.222	37.574	OK
11-12-2024	08:43:50.807	766.386	7.499	7.499	27.501	937	0	1.0901	OK	11-12-2024	08:43:50.807	766.386	37.574	OK
11-12-2024	08:43:50.907	766.486	7.499	7.499	27.496	937	0	1.0904	OK	11-12-2024	08:43:50.907	766.486	37.576	OK
11-12-2024	08:43:51.008	766.587	7.498	7.498	27.495	937	0	1.0905	OK	11-12-2024	08:43:51.008	766.587	37.576	OK
11-12-2024	08:43:51.108	766.687	7.498	7.498	27.495	937	0	1.0905	OK	11-12-2024	08:43:51.108	766.687	37.575	OK
11-12-2024	08:43:51.208	766.787	7.498	7.498	27.493	937	0	1.0906	OK	11-12-2024	08:43:51.208	766.787	37.575	OK
11-12-2024	08:43:51.392	766.971	7.499	7.499	27.500	937	0	1.0901	OK	11-12-2024	08:43:51.392	766.971	37.576	OK
11-12-2024	08:43:51.665	767.244	7.500	7.500	27.503	937	0	1.0899	OK	11-12-2024	08:43:51.665	767.244	37.576	OK
11-12-2024	08:43:51.809	767.388	7.500	7.500	27.503	937	0	1.0899	OK	11-12-2024	08:43:51.809	767.388	37.577	OK
11-12-2024	08:43:51.910	767.489	7.499	7.499	27.501	937	0	1.0901	OK	11-12-2024	08:43:51.910	767.489	37.577	OK
11-12-2024	08:43:52.011	767.590	7.499	7.499	27.497	937	0	1.0903	OK	11-12-2024	08:43:52.011	767.590	37.577	OK
11-12-2024	08:43:52.111	767.690	7.499	7.499	27.498	937	0	1.0903	OK	11-12-2024	08:43:52.111	767.690	37.578	OK
11-12-2024	08:43:52.213	767.792	7.498	7.498	27.490	937	0	1.0908	OK	11-12-2024	08:43:52.213	767.792	37.578	OK
11-12-2024	08:43:52.391	767.970	7.499	7.499	27.497	938	0	1.0903	OK	11-12-2024	08:43:52.391	767.970	37.577	OK
11-12-2024	08:43:52.667	768.246	7.500	7.500	27.503	938	0	1.0899	OK	11-12-2024	08:43:52.667	768.246	37.577	OK
11-12-2024	08:43:52.812	768.391	7.500	7.500	27.502	937	0	1.0899	OK	11-12-2024	08:43:52.812	768.391	37.578	OK
11-12-2024	08:43:52.912	768.491	7.499	7.499	27.499	937	0	1.0901	OK	11-12-2024	08:43:52.912	768.491	37.578	OK
11-12-2024	08:43:53.014	768.593	7.500	7.500	27.503	937	0	1.0899	OK	11-12-2024	08:43:53.014	768.593	37.578	OK
11-12-2024	08:43:53.115	768.694	7.498	7.498	27.494	937	0	1.0905	OK	11-12-2024	08:43:53.115	768.694	37.578	OK
11-12-2024	08:43:53.215	768.794	7.498	7.498	27.495	937	0	1.0905	OK	11-12-2024	08:43:53.215	768.794	37.578	OK
11-12-2024	08:43:53.393	768.972	7.499	7.499	27.497	937	0	1.0903	OK	11-12-2024	08:43:53.393	768.972	37.578	OK
11-12-2024	08:43:53.649	769.228	7.500	7.500	27.504	937	0	1.0899	OK	11-12-2024	08:43:53.649	769.228	37.578	OK
11-12-2024	08:43:53.816	769.395	7.500	7.500	27.506	937	0	1.0897	OK	11-12-2024	08:43:53.816	769.395	37.578	OK
11-12-2024	08:43:53.916	769.495	7.499	7.499	27.500	937	0	1.0901	OK	11-12-2024	08:43:53.916	769.495	37.578	OK
11-12-2024	08:43:54.016	769.595	7.499	7.499	27.496	937	0	1.0904	OK	11-12-2024	08:43:54.016	769.595	37.578	OK
11-12-2024	08:43:54.133	769.712	7.499	7.499	27.496	937	0	1.0904	OK	11-12-2024	08:43:54.133	769.712	37.578	OK
11-12-2024	08:43:54.394	769.973	7.499	7.499	27.501	937	0	1.0900	OK	11-12-2024	08:43:54.394	769.973	37.578	OK
11-12-2024	08:43:54.653	770.232	7.500	7.500	27.503	937	0	1.0899	OK	11-12-2024	08:43:54.653	770.232	37.578	OK
11-12-2024	08:43:54.821	770.400	7.500	7.500	27.507	937	0	1.0896	OK	11-12-2024	08:43:54.821	770.400	37.577	OK
11-12-2024	08:43:54.922	770.501	7.499	7.499	27.498	937	0	1.0902	OK	11-12-2024	08:43:54.922	770.501	37.577	OK
11-12-2024	08:43:55.022	770.601	7.499	7.499	27.496	937	0	1.0904	OK	11-12-2024	08:43:55.022	770.601	37.577	OK
11-12-2024	08:43:55.131	770.710	7.499	7.499	27.497	937	0	1.0903	OK	11-12-2024	08:43:55.131	770.710	37.577	OK
11-12-2024	08:43:55.223	770.802	7.499	7.499	27.499	937	0	1.0901	OK	11-12-2024	08:43:55.223	770.802	37.578	OK
11-12-2024	08:43:55.397	770.976	7.499	7.499	27.496	937	0	1.0904	OK	11-12-2024	08:43:55.397	770.976	37.577	OK
11-12-2024	08:43:55.657	771.236	7.499	7.499	27.498	937	0	1.0902	OK	11-12-2024	08:43:55.657	771.236	37.578	OK
11-12-2024	08:43:55.823	771.402	7.499	7.499	27.498	937	0	1.0902	OK	11-12-2024	08:43:55.823	771.402	37.578	OK
11-12-2024	08:43:55.923	771.502	7.499	7.499	27.498	937	0	1.0902	OK	11-12-2024	08:43:55.923	771.502	37.578	OK
11-12-2024	08:43:56.023	771.602	7.499	7.499	27.499	937	0	1.0901	OK	11-12-2024	08:43:56.023	771.602	37.578	OK
11-12-2024	08:43:56.130	771.709	7.498	7.498	27.493	937	0	1.0906	OK	11-12-2024	08:43:56.130	771.709	37.578	OK
11-12-2024	08:43:56.391	771.970	7.499	7.499	27.498	937	0	1.0902	OK	11-12-2024	08:43:56.391	771.970	37.578	OK
11-12-2024	08:43:56.646	772.225	7.500	7.500	27.503	937	0	1.0899	OK	11-12-2024	08:43:56.646	772.225	37.578	OK
11-12-2024	08:43:56.823	772.402	7.500	7.500	27.503	937	0	1.0899	OK	11-12-2024	08:43:56.823	772.402	37.578	OK
11-12-2024	08:43:56.924	772.503	7.499	7.499	27.498	937	0	1.0902	OK	11-12-2024	08:43:56.924	772.503	37.578	OK
11-12-2024	08:43:57.130	772.709	7.500	7.500	27.504	937	0	1.0898	OK	11-12-2024	08:43:57.130	772.709	37.578	OK
11-12-2024	08:43:57.394	772.973	7.500	7.500	27.503	937	0	1.0899	OK	11-12-2024	08:43:57.394	772.973	37.578	OK
11-12-2024	08:43:57.646	773.225	7.499	7.499	27.502	937	0	1.0900	OK	11-12-2024	08:43:57.646	773.225	37.578	OK
11-12-2024	08:43:57.826	773.405	7.500	7.500	27.503	937	0	1.0899	OK	11-12-2024	08:43:57.826	773.405	37.577	OK
11-12-2024	08:43:57.927	773.506	7.498	7.498	27.494	937	0	1.0905	OK	11-12-2024	08:43:57.927	773.506	37.577	OK
11-12-2024	08:43:58.027	773.606	7.499	7.499	27.498	937	0	1.0903	OK	11-12-2024	08:43:58.027	773.606	37.577	OK
11-12-2024	08:43:58.132	773.711	7.499	7.499	27.498	937	0	1.0903	OK	11-12-2024	08:43:58.132	773.711	37.577	OK
11-12-2024	08:43:58.228	773.807	7.499	7.499	27.496	937	0	1.0904	OK	11-12-2024	08:43:58.228	773.807	37.575	OK
11-12-2024	08:43:58.398	773.977	7.499	7.499	27.501	937	0	1.0901	OK	11-12-2024	08:43:58.398	773.977	37.574	OK
11-12-2024	08:43:58.658	774.237	7.500	7.500	27.505	937	0	1.0898	OK	11-12-2024	08:43:58.658	774.237	37.574	OK
11-12-2024	08:43:58.830	774.409	7.499	7.499	27.500	938	0	1.0901	OK	11-12-2024	08:43:58.830	774.409	37.575	OK
11-12-2024	08:43:58.931	774.510	7.498	7.498	27.495	937	0	1.0905	OK	11-12-2024	08:43:58.931	774.510	37.575	OK
11-12-2024	08:43:59.031	774.610	7.499	7.499	27.497	937	0	1.0903	OK	11-12-2024	08:43:59.031	774.610	37.574	OK
11-12-2024	08:43:59.132	774.711	7.499	7.499	27.500	937	0	1.0901	OK	11-12-2024	08:43:59.132	774.711	37.574	OK
11-12-2024	08:43:59.231	774.810	7.498	7.498	27.492	937	0	1.0907	OK	11-12-2024	08:43:59.231	774.810	37.574	OK
11-12-2024	08:43:59.401	774.980	7.499	7.499	27.499	937	0	1.0902	OK	11-12-2024	08:43:59.401	774.980	37.574	OK
11-12-2024	08:43:59.656	775.235	7.499	7.499	27.501	937	0	1.0901	OK	11-12-2024	08:43:59.656	775.235	37.573	OK
11-12-2024	08:43:59.830	775.409	7.498	7.498	27.495	937	0	1.0905	OK	11-12-2024	08:43:59.830	775.409	37.572	OK
11-12-2024	08:43:59.932	775.511	7.499	7.499	27.501	937	0	1.0901	OK	11-12-2024	08:43:59.932	775.511	37.572	OK
11-12-2024	08:44:00.032	775.611	7.499	7.499	27.501	937	0	1.0901	OK	11-12-2024	08:44:00.032	775.611	37.573	OK
11-12-2024	08:44:00.132	775.711	7.499	7.499	27.496	937	0	1.0904	OK	11-12-2024	08:44:00.132	775.711	37.573	OK
11-12-2024	08:44:00.232	775.811	7.498	7.498	27.495	937	0	1.0905	OK	11-12-2024	08:44:00.232	775.811	37.573	OK
11-12-2024	08:44:00.402	775.981	7.498	7.498	27.495	937	0	1.0905	OK	11-12-2024	08:44:00.402	775.981	37.573	OK
11-12-2024	08:44:00.657	776.236	7.500	7.500	27.503	937	0	1.0899	OK	11-12-2024	08:44:00.657	776.236	37.572	OK
11-12-2024	08:44:00.833	776.412	7.499	7.499	27.499	937	0	1.0902	OK	11-12-2024	08:44:00.833	776.412	37.572	OK
11-12-2024	08:44:00.933	776.512	7.499	7.499	27.497	937	0	1.0903	OK	11-12-2024	08:44:00.933	776.512	37.572	OK
11-12-2024	08:44:01.033	776.612	7.498	7.498	27.493	937	0	1.0906	OK	11-12-2024	08:44:01.033	776.612	37.572	OK
11-12-2024	08:44:01.132	776.711	7.499	7.499	27.498	937	0	1.0903	OK	11-12-2024	08:44:01.132	776.711	37.572	OK
11-12-2024	08:44:01.233	776.812	7.498	7.498	27.493	937	0	1.0906	OK	11-12-2024	08:44:01.233	776.812	37.572	OK
11-12-2024	08:44:01.406	776.985	7.499	7.499	27.498	937	0	1.0903	OK	11-12-2024	08:44:01.406	776.985	37.572	OK
11-12-2024	08:44:01.675	777.254	7.499	7.499	27.502	937	0	1.0900	OK	11-12-2024	08:44:01.675	777.254	37.573	OK
11-12-2024	08:44:01.833	777.412	7.499	7.499	27.498	937	0	1.0903	OK	11-12-2024	08:44:01.833	777.412	37.573	OK
11-12-2024	08:44:01.935	777.514	7.499	7.499	27.500	937	0	1.0902	OK	11-12-2024	08:44:01.935	777.514	37.573	OK
11-12-2024	08:44:02.035	777.614	7.498	7.498	27.495	937	0	1.0905	OK	11-12-2024	08:44:02.035	777.614	37.573	OK
11-12-2024	08:44:02.136	777.715	7.498	7.498	27.494	937	0	1.0906	OK	11-12-2024	08:44:02.136	777.715	37.572	OK
11-12-2024	08:44:02.236	777.815	7.498	7.498	27.492	937	0	1.0907	OK	11-12-2024	08:44:02.236	777.815	37.572	OK
11-12-2024	08:44:02.409	777.988	7.499	7.499	27.499	937	0	1.0901	OK	11-12-2024	08:44:02.409	777.988	37.571	OK
11-12-2024	08:44:02.666	778.245	7.500	7.500	27.503	937	0	1.0899	OK	11-12-2024	08:44:02.666	778.245	37.570	OK
11-12-2024	08:44:02.836	778.414	7.500	7.500	27.502	937	0	1.0899	OK	11-12-2024	08:44:02.836	778.414	37.570	OK
11-12-2024	08:44:02.935	778.513	7.498	7.498	27.494	937	0	1.0905	OK	11-12-2024	08:44:02.935	778.513	37.571	OK
11-12-2024	08:44:03.035	778.614	7.498	7.498	27.493	937	0	1.0906	OK	11-12-2024	08:44:03.035	778.614	37.571	OK
11-12-2024	08:44:03.137	778.716	7.499	7.499	27.496	937	0	1.0904	OK	11-12-2024	08:44:03.137	778.716	37.572	OK
11-12-2024	08:44:03.237	778.816	7.499	7.499	27.496	937	0	1.0904	OK	11-12-2024	08:44:03.237	778.816	37.572	OK
11-12-2024	08:44:03.407	778.986	7.499	7.499	27.498	937	0	1.0902	OK	11-12-2024	08:44:03.407	778.986	37.571	OK
11-12-2024	08:44:03.665	779.244	7.500	7.500	27.505	937	0	1.0897	OK	11-12-2024	08:44:03.665	779.244	37.569	OK
11-12-2024	08:44:03.838	779.417	7.500	7.500	27.501	937	0	1.0900	OK	11-12-2024	08:44:03.838	779.417	37.569	OK
11-12-2024	08:44:03.937	779.516	7.499	7.499	27.499	937	0	1.0901	OK	11-12-2024	08:44:03.937	779.516	37.569	OK
11-12-2024	08:44:04.037	779.616	7.499	7.499	27.498	937	0	1.0902	OK	11-12-2024	08:44:04.037	779.616	37.569	OK
11-12-2024	08:44:04.139	779.718	7.499	7.499	27.496	937	0	1.0904	OK	11-12-2024	08:44:04.139	779.718	37.569	OK
11-12-2024	08:44:04.238	779.817	7.499	7.499	27.497	937	0	1.0903	OK	11-12-2024	08:44:04.238	779.817	37.569	OK
11-12-2024	08:44:04.410	779.989	7.499	7.499	27.499	937	0	1.0901	OK	11-12-2024	08:44:04.410	779.989	37.569	OK
11-12-2024	08:44:04.686	780.265	7.500	7.500	27.502	938	0	1.0899	OK	11-12-2024	08:44:04.686	780.265	37.569	OK
11-12-2024	08:44:04.842	780.421	7.500	7.500	27.503	937	0	1.0899	OK	11-12-2024	08:44:04.842	780.421	37.569	OK
11-12-2024	08:44:04.941	780.520	7.499	7.499	27.499	937	0	1.0901	OK	11-12-2024	08:44:04.941	780.520	37.570	OK
11-12-2024	08:44:05.042	780.621	7.499	7.499	27.497	937	0	1.0903	OK	11-12-2024	08:44:05.042	780.621	37.570	OK
11-12-2024	08:44:05.143	780.722	7.498	7.498	27.494	937	0	1.0905	OK	11-12-2024	08:44:05.143	780.722	37.570	OK
11-12-2024	08:44:05.243	780.822	7.499	7.499	27.496	937	0	1.0904	OK	11-12-2024	08:44:05.243	780.822	37.570	OK
11-12-2024	08:44:05.411	780.990	7.499	7.499	27.499	937	0	1.0901	OK	11-12-2024	08:44:05.411	780.990	37.571	OK
11-12-2024	08:44:05.669	781.248	7.500	7.500	27.503	937	0	1.0899	OK	11-12-2024	08:44:05.669	781.248	37.571	OK
11-12-2024	08:44:05.843	781.422	7.499	7.499	27.499	937	0	1.0901	OK	11-12-2024	08:44:05.843	781.422	37.571	OK
11-12-2024	08:44:05.943	781.522	7.499	7.499	27.497	937	0	1.0903	OK	11-12-2024	08:44:05.943	781.522	37.571	OK
11-12-2024	08:44:06.045	781.624	7.499	7.499	27.499	937	0	1.0901	OK	11-12-2024	08:44:06.045	781.624	37.571	OK
11-12-2024	08:44:06.145	781.724	7.499	7.499	27.496	937	0	1.0904	OK	11-12-2024	08:44:06.145	781.724	37.570	OK
11-12-2024	08:44:06.246	781.825	7.499	7.499	27.495	937	0	1.0904	OK	11-12-2024	08:44:06.246	781.825	37.570	OK
11-12-2024	08:44:06.431	782.010	7.499	7.499	27.501	937	0	1.0900	OK	11-12-2024	08:44:06.431	782.010	37.570	OK
11-12-2024	08:44:06.686	782.265	7.500	7.500	27.503	937	0	1.0899	OK	11-12-2024	08:44:06.686	782.265	37.570	OK
11-12-2024	08:44:06.847	782.426	7.499	7.499	27.500	937	0	1.0901	OK	11-12-2024	08:44:06.847	782.426	37.570	OK
11-12-2024	08:44:06.948	782.527	7.499	7.499	27.495	937	0	1.0904	OK	11-12-2024	08:44:06.948	782.527	37.570	OK
11-12-2024	08:44:07.048	782.627	7.499	7.499	27.499	937	0	1.0901	OK	11-12-2024	08:44:07.048	782.627	37.570	OK
11-12-2024	08:44:07.149	782.728	7.499	7.499	27.496	937	0	1.0904	OK	11-12-2024	08:44:07.149	782.728	37.570	OK
11-12-2024	08:44:07.250	782.828	7.498	7.498	27.493	937	0	1.0906	OK	11-12-2024	08:44:07.250	782.828	37.570	OK
11-12-2024	08:44:07.436	783.015	7.499	7.499	27.500	937	0	1.0901	OK	11-12-2024	08:44:07.436	783.015	37.570	OK
11-12-2024	08:44:07.692	783.271	7.500	7.500	27.502	937	0	1.0899	OK	11-12-2024	08:44:07.692	783.271	37.570	OK
11-12-2024	08:44:07.852	783.430	7.499	7.499	27.499	937	0	1.0901	OK	11-12-2024	08:44:07.852	783.430	37.571	OK
11-12-2024	08:44:07.952	783.531	7.499	7.499	27.499	937	0	1.0901	OK	11-12-2024	08:44:07.952	783.531	37.570	OK
11-12-2024	08:44:08.052	783.631	7.499	7.499	27.500	937	0	1.0901	OK	11-12-2024	08:44:08.052	783.631	37.570	OK
11-12-2024	08:44:08.152	783.731	7.498	7.498	27.490	937	0	1.0908	OK	11-12-2024	08:44:08.152	783.731	37.570	OK
11-12-2024	08:44:08.251	783.830	7.499	7.499	27.495	937	0	1.0904	OK	11-12-2024	08:44:08.251	783.830	37.570	OK
11-12-2024	08:44:08.420	783.999	7.499	7.499	27.500	937	0	1.0901	OK	11-12-2024	08:44:08.420	783.999	37.571	OK
11-12-2024	08:44:08.678	784.257	7.500	7.500	27.502	937	0	1.0899	OK	11-12-2024	08:44:08.678	784.257	37.570	OK
11-12-2024	08:44:08.852	784.431	7.499	7.499	27.501	937	0	1.0900	OK	11-12-2024	08:44:08.852	784.431	37.571	OK
11-12-2024	08:44:08.951	784.530	7.500	7.500	27.503	937	0	1.0899	OK	11-12-2024	08:44:08.951	784.530	37.571	OK
11-12-2024	08:44:09.052	784.631	7.499	7.499	27.501	937	0	1.0900	OK	11-12-2024	08:44:09.052	784.631	37.571	OK
11-12-2024	08:44:09.152	784.731	7.499	7.499	27.496	937	0	1.0904	OK	11-12-2024	08:44:09.152	784.731	37.572	OK
11-12-2024	08:44:09.253	784.832	7.499	7.499	27.497	937	0	1.0903	OK	11-12-2024	08:44:09.253	784.832	37.572	OK
11-12-2024	08:44:09.546	785.125	7.499	7.499	27.501	937	0	1.0900	OK	11-12-2024	08:44:09.546	785.125	37.574	OK
11-12-2024	08:44:09.720	785.299	7.499	7.499	27.500	937	0	1.0901	OK	11-12-2024	08:44:09.720	785.299	37.574	OK
11-12-2024	08:44:09.853	785.432	7.499	7.499	27.500	937	0	1.0901	OK	11-12-2024	08:44:09.853	785.432	37.576	OK
11-12-2024	08:44:09.954	785.533	7.499	7.499	27.496	937	0	1.0904	OK	11-12-2024	08:44:09.954	785.533	37.576	OK
11-12-2024	08:44:10.054	785.633	7.500	7.500	27.502	937	0	1.0899	OK	11-12-2024	08:44:10.054	785.633	37.576	OK
11-12-2024	08:44:10.154	785.733	7.499	7.499	27.496	937	0	1.0904	OK	11-12-2024	08:44:10.154	785.733	37.576	OK
11-12-2024	08:44:10.253	785.832	7.499	7.499	27.495	937	0	1.0904	OK	11-12-2024	08:44:10.253	785.832	37.576	OK
11-12-2024	08:44:10.427	786.006	7.499	7.499	27.500	937	0	1.0901	OK	11-12-2024	08:44:10.427	786.006	37.577	OK
11-12-2024	08:44:10.699	786.278	7.500	7.500	27.506	937	0	1.0897	OK	11-12-2024	08:44:10.699	786.278	37.577	OK
11-12-2024	08:44:10.855	786.434	7.500	7.500	27.503	937	0	1.0899	OK	11-12-2024	08:44:10.855	786.434	37.577	OK
11-12-2024	08:44:10.954	786.533	7.499	7.499	27.499	937	0	1.0901	OK	11-12-2024	08:44:10.954	786.533	37.577	OK
11-12-2024	08:44:11.054	786.633	7.499	7.499	27.499	937	0	1.0901	OK	11-12-2024	08:44:11.054	786.633	37.577	OK
11-12-2024	08:44:11.155	786.734	7.499	7.499	27.498	937	0	1.0902	OK	11-12-2024	08:44:11.155	786.734	37.577	OK
11-12-2024	08:44:11.254	786.833	7.499	7.499	27.499	937	0	1.0901	OK	11-12-2024	08:44:11.254	786.833	37.577	OK
11-12-2024	08:44:11.426	787.005	7.499	7.499	27.497	937	0	1.0903	OK	11-12-2024	08:44:11.426	787.005	37.576	OK
11-12-2024	08:44:11.680	787.259	7.500	7.500	27.504	937	0	1.0898	OK	11-12-2024	08:44:11.680	787.259	37.575	OK
11-12-2024	08:44:11.855	787.434	7.500	7.500	27.504	937	0	1.0898	OK	11-12-2024	08:44:11.855	787.434	37.576	OK
11-12-2024	08:44:11.954	787.533	7.499	7.499	27.501	937	0	1.0900	OK	11-12-2024	08:44:11.954	787.533	37.576	OK
11-12-2024	08:44:12.054	787.633	7.499	7.499	27.498	937	0	1.0902	OK	11-12-2024	08:44:12.054	787.633	37.575	OK
11-12-2024	08:44:12.154	787.733	7.498	7.498	27.491	937	0	1.0907	OK	11-12-2024	08:44:12.154	787.733	37.575	OK
11-12-2024	08:44:12.256	787.835	7.499	7.499	27.495	937	0	1.0904	OK	11-12-2024	08:44:12.256	787.835	37.575	OK
11-12-2024	08:44:12.425	788.004	7.499	7.499	27.497	937	0	1.0902	OK	11-12-2024	08:44:12.425	788.004	37.575	OK
11-12-2024	08:44:12.679	788.258	7.500	7.500	27.502	937	0	1.0899	OK	11-12-2024	08:44:12.679	788.258	37.574	OK
11-12-2024	08:44:12.860	788.439	7.500	7.500	27.502	937	0	1.0899	OK	11-12-2024	08:44:12.860	788.439	37.573	OK
11-12-2024	08:44:12.956	788.535	7.499	7.499	27.500	937	0	1.0900	OK	11-12-2024	08:44:12.956	788.535	37.573	OK
11-12-2024	08:44:13.057	788.636	7.498	7.498	27.493	937	0	1.0905	OK	11-12-2024	08:44:13.057	788.636	37.572	OK
11-12-2024	08:44:13.157	788.736	7.499	7.499	27.495	937	0	1.0904	OK	11-12-2024	08:44:13.157	788.736	37.572	OK
11-12-2024	08:44:13.257	788.836	7.499	7.499	27.494	937	0	1.0904	OK	11-12-2024	08:44:13.257	788.836	37.572	OK
11-12-2024	08:44:13.429	789.008	7.499	7.499	27.497	937	0	1.0902	OK	11-12-2024	08:44:13.429	789.008	37.573	OK
11-12-2024	08:44:13.700	789.279	7.499	7.499	27.499	937	0	1.0901	OK	11-12-2024	08:44:13.700	789.279	37.573	OK
11-12-2024	08:44:13.858	789.437	7.499	7.499	27.501	937	0	1.0900	OK	11-12-2024	08:44:13.858	789.437	37.573	OK
11-12-2024	08:44:13.958	789.537	7.498	7.498	27.493	937	0	1.0906	OK	11-12-2024	08:44:13.958	789.537	37.573	OK
11-12-2024	08:44:14.057	789.636	7.498	7.498	27.493	937	0	1.0906	OK	11-12-2024	08:44:14.057	789.636	37.573	OK
11-12-2024	08:44:14.159	789.738	7.499	7.499	27.496	937	0	1.0904	OK	11-12-2024	08:44:14.159	789.738	37.573	OK
11-12-2024	08:44:14.259	789.838	7.498	7.498	27.493	937	0	1.0906	OK	11-12-2024	08:44:14.259	789.838	37.573	OK
11-12-2024	08:44:14.428	790.007	7.498	7.498	27.492	937	0	1.0906	OK	11-12-2024	08:44:14.428	790.007	37.573	OK
11-12-2024	08:44:14.702	790.281	7.500	7.500	27.503	937	0	1.0899	OK	11-12-2024	08:44:14.702	790.281	37.574	OK
11-12-2024	08:44:14.859	790.438	7.499	7.499	27.497	937	0	1.0903	OK	11-12-2024	08:44:14.859	790.438	37.573	OK
11-12-2024	08:44:14.959	790.538	7.499	7.499	27.497	937	0	1.0903	OK	11-12-2024	08:44:14.959	790.538	37.573	OK
11-12-2024	08:44:15.059	790.638	7.499	7.499	27.498	937	0	1.0902	OK	11-12-2024	08:44:15.059	790.638	37.573	OK
11-12-2024	08:44:15.159	790.738	7.499	7.499	27.499	937	0	1.0901	OK	11-12-2024	08:44:15.159	790.738	37.573	OK
11-12-2024	08:44:15.259	790.838	7.499	7.499	27.495	937	0	1.0904	OK	11-12-2024	08:44:15.259	790.838	37.574	OK
11-12-2024	08:44:15.426	791.005	7.499	7.499	27.496	937	0	1.0904	OK	11-12-2024	08:44:15.426	791.005	37.574	OK
11-12-2024	08:44:15.684	791.263	7.499	7.499	27.499	937	0	1.0901	OK	11-12-2024	08:44:15.684	791.263	37.573	OK
11-12-2024	08:44:15.861	791.440	7.500	7.500	27.501	937	0	1.0900	OK	11-12-2024	08:44:15.861	791.440	37.574	OK
11-12-2024	08:44:15.961	791.540	7.499	7.499	27.498	937	0	1.0902	OK	11-12-2024	08:44:15.961	791.540	37.574	OK
11-12-2024	08:44:16.061	791.640	7.498	7.498	27.493	937	0	1.0905	OK	11-12-2024	08:44:16.061	791.640	37.573	OK
11-12-2024	08:44:16.161	791.740	7.500	7.500	27.501	937	0	1.0900	OK	11-12-2024	08:44:16.161	791.740	37.573	OK
11-12-2024	08:44:16.396	791.975	7.500	7.500	27.502	937	0	1.0899	OK	11-12-2024	08:44:16.396	791.975	37.573	OK
11-12-2024	08:44:16.654	792.233	7.499	7.499	27.499	937	0	1.0901	OK	11-12-2024	08:44:16.654	792.233	37.571	OK
11-12-2024	08:44:16.761	792.340	7.499	7.499	27.499	937	0	1.0901	OK	11-12-2024	08:44:16.761	792.340	37.571	OK
11-12-2024	08:44:16.861	792.440	7.499	7.499	27.500	937	0	1.0901	OK	11-12-2024	08:44:16.861	792.440	37.570	OK
11-12-2024	08:44:16.960	792.539	7.499	7.499	27.499	937	0	1.0901	OK	11-12-2024	08:44:16.960	792.539	37.570	OK
11-12-2024	08:44:17.060	792.639	7.498	7.498	27.493	937	0	1.0906	OK	11-12-2024	08:44:17.060	792.639	37.570	OK
11-12-2024	08:44:17.161	792.740	7.499	7.499	27.498	937	0	1.0902	OK	11-12-2024	08:44:17.161	792.740	37.570	OK
11-12-2024	08:44:17.398	792.977	7.499	7.499	27.495	937	0	1.0904	OK	11-12-2024	08:44:17.398	792.977	37.570	OK
11-12-2024	08:44:17.669	793.248	7.500	7.500	27.501	937	0	1.0900	OK	11-12-2024	08:44:17.669	793.248	37.570	OK
11-12-2024	08:44:17.762	793.341	7.499	7.499	27.495	937	0	1.0904	OK	11-12-2024	08:44:17.762	793.341	37.570	OK
11-12-2024	08:44:17.862	793.441	7.498	7.498	27.493	937	0	1.0905	OK	11-12-2024	08:44:17.862	793.441	37.570	OK
11-12-2024	08:44:17.962	793.541	7.498	7.498	27.493	937	0	1.0905	OK	11-12-2024	08:44:17.962	793.541	37.570	OK
11-12-2024	08:44:18.062	793.641	7.498	7.498	27.492	937	0	1.0906	OK	11-12-2024	08:44:18.062	793.641	37.570	OK
11-12-2024	08:44:18.162	793.741	7.498	7.498	27.490	937	0	1.0907	OK	11-12-2024	08:44:18.162	793.741	37.571	OK
11-12-2024	08:44:18.262	793.841	7.499	7.499	27.496	937	0	1.0903	OK	11-12-2024	08:44:18.262	793.841	37.571	OK
11-12-2024	08:44:18.434	794.013	7.499	7.499	27.500	937	0	1.0900	OK	11-12-2024	08:44:18.434	794.013	37.571	OK
11-12-2024	08:44:18.688	794.266	7.500	7.500	27.501	937	0	1.0900	OK	11-12-2024	08:44:18.688	794.266	37.571	OK
11-12-2024	08:44:18.863	794.442	7.499	7.499	27.499	937	0	1.0901	OK	11-12-2024	08:44:18.863	794.442	37.571	OK
11-12-2024	08:44:18.963	794.542	7.499	7.499	27.494	937	0	1.0904	OK	11-12-2024	08:44:18.963	794.542	37.571	OK
11-12-2024	08:44:19.065	794.643	7.498	7.498	27.493	937	0	1.0905	OK	11-12-2024	08:44:19.065	794.643	37.571	OK
11-12-2024	08:44:19.164	794.743	7.499	7.499	27.494	937	0	1.0904	OK	11-12-2024	08:44:19.164	794.743	37.571	OK
11-12-2024	08:44:19.266	794.845	7.499	7.499	27.495	937	0	1.0904	OK	11-12-2024	08:44:19.266	794.845	37.571	OK
11-12-2024	08:44:19.438	795.017	7.499	7.499	27.497	937	0	1.0902	OK	11-12-2024	08:44:19.438	795.017	37.571	OK
11-12-2024	08:44:19.698	795.277	7.499	7.499	27.499	937	0	1.0901	OK	11-12-2024	08:44:19.698	795.277	37.573	OK
11-12-2024	08:44:19.867	795.446	7.500	7.500	27.502	937	0	1.0899	OK	11-12-2024	08:44:19.867	795.446	37.573	OK
11-12-2024	08:44:19.967	795.546	7.499	7.499	27.497	937	0	1.0902	OK	11-12-2024	08:44:19.967	795.546	37.573	OK
11-12-2024	08:44:20.067	795.646	7.499	7.499	27.500	937	0	1.0900	OK	11-12-2024	08:44:20.067	795.646	37.573	OK
11-12-2024	08:44:20.168	795.747	7.499	7.499	27.495	937	0	1.0904	OK	11-12-2024	08:44:20.168	795.747	37.573	OK
11-12-2024	08:44:20.269	795.848	7.499	7.499	27.498	937	0	1.0902	OK	11-12-2024	08:44:20.269	795.848	37.573	OK
11-12-2024	08:44:20.441	796.020	7.499	7.499	27.498	937	0	1.0902	OK	11-12-2024	08:44:20.441	796.020	37.573	OK
11-12-2024	08:44:20.698	796.277	7.499	7.499	27.498	937	0	1.0902	OK	11-12-2024	08:44:20.698	796.277	37.573	OK
11-12-2024	08:44:20.871	796.450	7.500	7.500	27.501	937	0	1.0900	OK	11-12-2024	08:44:20.871	796.450	37.574	OK
11-12-2024	08:44:20.970	796.549	7.499	7.499	27.499	937	0	1.0901	OK	11-12-2024	08:44:20.970	796.549	37.574	OK
11-12-2024	08:44:21.068	796.647	7.499	7.499	27.496	937	0	1.0903	OK	11-12-2024	08:44:21.068	796.647	37.574	OK
11-12-2024	08:44:21.170	796.749	7.499	7.499	27.494	937	0	1.0904	OK	11-12-2024	08:44:21.170	796.749	37.574	OK
11-12-2024	08:44:21.271	796.850	7.499	7.499	27.494	937	0	1.0904	OK	11-12-2024	08:44:21.271	796.850	37.574	OK
11-12-2024	08:44:21.440	797.019	7.499	7.499	27.496	937	0	1.0903	OK	11-12-2024	08:44:21.440	797.019	37.574	OK
11-12-2024	08:44:21.693	797.272	7.500	7.500	27.503	937	0	1.0898	OK	11-12-2024	08:44:21.693	797.272	37.574	OK
11-12-2024	08:44:21.872	797.451	7.500	7.500	27.503	937	0	1.0898	OK	11-12-2024	08:44:21.872	797.451	37.574	OK
11-12-2024	08:44:21.973	797.551	7.500	7.500	27.504	937	0	1.0898	OK	11-12-2024	08:44:21.973	797.551	37.574	OK
11-12-2024	08:44:22.074	797.653	7.499	7.499	27.500	937	0	1.0900	OK	11-12-2024	08:44:22.074	797.653	37.574	OK
11-12-2024	08:44:22.173	797.752	7.499	7.499	27.494	937	0	1.0904	OK	11-12-2024	08:44:22.173	797.752	37.573	OK
11-12-2024	08:44:22.275	797.854	7.499	7.499	27.494	937	0	1.0904	OK	11-12-2024	08:44:22.275	797.854	37.573	OK
11-12-2024	08:44:22.464	798.043	7.499	7.499	27.498	937	0	1.0902	OK	11-12-2024	08:44:22.464	798.043	37.574	OK
11-12-2024	08:44:22.751	798.330	7.499	7.499	27.500	937	0	1.0900	OK	11-12-2024	08:44:22.751	798.330	37.574	OK
11-12-2024	08:44:22.875	798.454	7.499	7.499	27.498	937	0	1.0902	OK	11-12-2024	08:44:22.875	798.454	37.574	OK
11-12-2024	08:44:22.976	798.555	7.499	7.499	27.495	937	0	1.0904	OK	11-12-2024	08:44:22.976	798.555	37.574	OK
11-12-2024	08:44:23.076	798.655	7.498	7.498	27.493	937	0	1.0905	OK	11-12-2024	08:44:23.076	798.655	37.574	OK
11-12-2024	08:44:23.176	798.755	7.499	7.499	27.495	937	0	1.0904	OK	11-12-2024	08:44:23.176	798.755	37.574	OK
11-12-2024	08:44:23.276	798.855	7.499	7.499	27.494	937	0	1.0904	OK	11-12-2024	08:44:23.276	798.855	37.574	OK
11-12-2024	08:44:23.462	799.041	7.499	7.499	27.500	938	0	1.0900	OK	11-12-2024	08:44:23.462	799.041	37.574	OK
11-12-2024	08:44:23.720	799.298	7.499	7.499	27.499	938	0	1.0900	OK	11-12-2024	08:44:23.720	799.298	37.575	OK
11-12-2024	08:44:23.875	799.454	7.499	7.499	27.498	938	0	1.0901	OK	11-12-2024	08:44:23.875	799.454	37.575	OK
11-12-2024	08:44:23.976	799.555	7.499	7.499	27.497	937	0	1.0902	OK	11-12-2024	08:44:23.976	799.555	37.575	OK
11-12-2024	08:44:24.177	799.756	7.499	7.499	27.497	937	0	1.0902	OK	11-12-2024	08:44:24.177	799.756	37.573	OK
11-12-2024	08:44:24.276	799.855	7.499	7.499	27.498	937	0	1.0901	OK	11-12-2024	08:44:24.276	799.855	37.573	OK
11-12-2024	08:44:24.464	800.043	7.499	7.499	27.498	938	0	1.0901	OK	11-12-2024	08:44:24.464	800.043	37.573	OK
11-12-2024	08:44:24.720	800.299	7.499	7.499	27.496	937	0	1.0903	OK	11-12-2024	08:44:24.720	800.299	37.573	OK
11-12-2024	08:44:24.876	800.455	7.499	7.499	27.497	937	0	1.0902	OK	11-12-2024	08:44:24.876	800.455	37.573	OK
11-12-2024	08:44:24.975	800.554	7.499	7.499	27.494	937	0	1.0904	OK	11-12-2024	08:44:24.975	800.554	37.572	OK
11-12-2024	08:44:25.077	800.656	7.499	7.499	27.495	937	0	1.0904	OK	11-12-2024	08:44:25.077	800.656	37.572	OK
11-12-2024	08:44:25.179	800.758	7.498	7.498	27.489	937	0	1.0908	OK	11-12-2024	08:44:25.179	800.758	37.572	OK
11-12-2024	08:44:25.277	800.856	7.498	7.498	27.491	937	0	1.0907	OK	11-12-2024	08:44:25.277	800.856	37.572	OK
11-12-2024	08:44:25.448	801.027	7.499	7.499	27.496	937	0	1.0903	OK	11-12-2024	08:44:25.448	801.027	37.574	OK
11-12-2024	08:44:25.706	801.285	7.500	7.500	27.502	937	0	1.0899	OK	11-12-2024	08:44:25.706	801.285	37.573	OK
11-12-2024	08:44:25.876	801.455	7.499	7.499	27.500	937	0	1.0900	OK	11-12-2024	08:44:25.876	801.455	37.574	OK
11-12-2024	08:44:25.977	801.556	7.499	7.499	27.497	937	0	1.0902	OK	11-12-2024	08:44:25.977	801.556	37.573	OK
11-12-2024	08:44:26.076	801.655	7.499	7.499	27.497	937	0	1.0902	OK	11-12-2024	08:44:26.076	801.655	37.573	OK
11-12-2024	08:44:26.176	801.755	7.499	7.499	27.495	937	0	1.0904	OK	11-12-2024	08:44:26.176	801.755	37.573	OK
11-12-2024	08:44:26.276	801.855	7.499	7.499	27.494	937	0	1.0904	OK	11-12-2024	08:44:26.276	801.855	37.574	OK
11-12-2024	08:44:26.444	802.023	7.498	7.498	27.493	937	0	1.0905	OK	11-12-2024	08:44:26.444	802.023	37.574	OK
11-12-2024	08:44:26.731	802.310	7.500	7.500	27.503	937	0	1.0898	OK	11-12-2024	08:44:26.731	802.310	37.573	OK
11-12-2024	08:44:26.876	802.455	7.500	7.500	27.502	937	0	1.0899	OK	11-12-2024	08:44:26.876	802.455	37.573	OK
11-12-2024	08:44:26.977	802.556	7.499	7.499	27.494	937	0	1.0904	OK	11-12-2024	08:44:26.977	802.556	37.573	OK
11-12-2024	08:44:27.077	802.656	7.498	7.498	27.490	937	0	1.0907	OK	11-12-2024	08:44:27.077	802.656	37.573	OK
11-12-2024	08:44:27.177	802.756	7.498	7.498	27.493	937	0	1.0905	OK	11-12-2024	08:44:27.177	802.756	37.573	OK
11-12-2024	08:44:27.403	802.982	7.499	7.499	27.500	937	0	1.0900	OK	11-12-2024	08:44:27.403	802.982	37.575	OK
11-12-2024	08:44:27.658	803.237	7.500	7.500	27.501	937	0	1.0900	OK	11-12-2024	08:44:27.658	803.237	37.575	OK
11-12-2024	08:44:27.777	803.356	7.499	7.499	27.497	937	0	1.0902	OK	11-12-2024	08:44:27.777	803.356	37.575	OK
11-12-2024	08:44:27.876	803.455	7.499	7.499	27.496	937	0	1.0903	OK	11-12-2024	08:44:27.876	803.455	37.575	OK
11-12-2024	08:44:27.978	803.557	7.498	7.498	27.493	937	0	1.0905	OK	11-12-2024	08:44:27.978	803.557	37.575	OK
11-12-2024	08:44:28.077	803.656	7.498	7.498	27.494	937	0	1.0904	OK	11-12-2024	08:44:28.077	803.656	37.575	OK
11-12-2024	08:44:28.178	803.757	7.499	7.499	27.496	937	0	1.0903	OK	11-12-2024	08:44:28.178	803.757	37.575	OK
11-12-2024	08:44:28.278	803.857	7.498	7.498	27.490	937	0	1.0907	OK	11-12-2024	08:44:28.278	803.857	37.575	OK
11-12-2024	08:44:28.450	804.029	7.499	7.499	27.497	937	0	1.0902	OK	11-12-2024	08:44:28.450	804.029	37.575	OK
11-12-2024	08:44:28.705	804.284	7.500	7.500	27.505	937	0	1.0897	OK	11-12-2024	08:44:28.705	804.284	37.575	OK
11-12-2024	08:44:28.878	804.457	7.500	7.500	27.502	937	0	1.0899	OK	11-12-2024	08:44:28.878	804.457	37.575	OK
11-12-2024	08:44:28.979	804.558	7.498	7.498	27.494	937	0	1.0904	OK	11-12-2024	08:44:28.979	804.558	37.575	OK
11-12-2024	08:44:29.079	804.657	7.499	7.499	27.495	937	0	1.0904	OK	11-12-2024	08:44:29.079	804.657	37.575	OK
11-12-2024	08:44:29.179	804.758	7.499	7.499	27.495	937	0	1.0904	OK	11-12-2024	08:44:29.179	804.758	37.575	OK
11-12-2024	08:44:29.279	804.858	7.499	7.499	27.496	937	0	1.0903	OK	11-12-2024	08:44:29.279	804.858	37.575	OK
11-12-2024	08:44:29.448	805.027	7.498	7.498	27.493	937	0	1.0905	OK	11-12-2024	08:44:29.448	805.027	37.574	OK
11-12-2024	08:44:29.719	805.298	7.500	7.500	27.504	937	0	1.0898	OK	11-12-2024	08:44:29.719	805.298	37.575	OK
11-12-2024	08:44:29.877	805.456	7.499	7.499	27.498	937	0	1.0902	OK	11-12-2024	08:44:29.877	805.456	37.576	OK
11-12-2024	08:44:29.979	805.558	7.499	7.499	27.496	937	0	1.0903	OK	11-12-2024	08:44:29.979	805.558	37.576	OK
11-12-2024	08:44:30.078	805.657	7.499	7.499	27.498	937	0	1.0902	OK	11-12-2024	08:44:30.078	805.657	37.575	OK
11-12-2024	08:44:30.179	805.758	7.499	7.499	27.496	937	0	1.0903	OK	11-12-2024	08:44:30.179	805.758	37.575	OK
11-12-2024	08:44:30.279	805.858	7.499	7.499	27.495	937	0	1.0904	OK	11-12-2024	08:44:30.279	805.858	37.575	OK
11-12-2024	08:44:30.448	806.027	7.498	7.498	27.494	937	0	1.0904	OK	11-12-2024	08:44:30.448	806.027	37.575	OK
11-12-2024	08:44:30.704	806.282	7.500	7.500	27.505	937	0	1.0897	OK	11-12-2024	08:44:30.704	806.282	37.574	OK
11-12-2024	08:44:30.879	806.458	7.500	7.500	27.501	937	0	1.0899	OK	11-12-2024	08:44:30.879	806.458	37.573	OK
11-12-2024	08:44:30.979	806.558	7.499	7.499	27.497	937	0	1.0902	OK	11-12-2024	08:44:30.979	806.558	37.573	OK
11-12-2024	08:44:31.079	806.658	7.499	7.499	27.494	937	0	1.0904	OK	11-12-2024	08:44:31.079	806.658	37.574	OK
11-12-2024	08:44:31.178	806.757	7.498	7.498	27.492	937	0	1.0905	OK	11-12-2024	08:44:31.178	806.757	37.574	OK
11-12-2024	08:44:31.279	806.857	7.498	7.498	27.493	937	0	1.0905	OK	11-12-2024	08:44:31.279	806.857	37.574	OK
11-12-2024	08:44:31.448	807.027	7.499	7.499	27.494	937	0	1.0904	OK	11-12-2024	08:44:31.448	807.027	37.574	OK
11-12-2024	08:44:31.704	807.283	7.499	7.499	27.499	937	0	1.0900	OK	11-12-2024	08:44:31.704	807.283	37.576	OK
11-12-2024	08:44:31.879	807.457	7.500	7.500	27.501	937	0	1.0900	OK	11-12-2024	08:44:31.879	807.457	37.575	OK
11-12-2024	08:44:31.978	807.557	7.499	7.499	27.497	937	0	1.0902	OK	11-12-2024	08:44:31.978	807.557	37.575	OK
11-12-2024	08:44:32.078	807.657	7.498	7.498	27.494	937	0	1.0904	OK	11-12-2024	08:44:32.078	807.657	37.575	OK
11-12-2024	08:44:32.177	807.756	7.498	7.498	27.493	937	0	1.0905	OK	11-12-2024	08:44:32.177	807.756	37.575	OK
11-12-2024	08:44:32.278	807.857	7.498	7.498	27.490	937	0	1.0907	OK	11-12-2024	08:44:32.278	807.857	37.575	OK
11-12-2024	08:44:32.450	808.029	7.498	7.498	27.494	937	0	1.0904	OK	11-12-2024	08:44:32.450	808.029	37.575	OK
11-12-2024	08:44:32.722	808.301	7.499	7.499	27.498	937	0	1.0902	OK	11-12-2024	08:44:32.722	808.301	37.575	OK
11-12-2024	08:44:32.878	808.457	7.499	7.499	27.498	937	0	1.0901	OK	11-12-2024	08:44:32.878	808.457	37.574	OK
11-12-2024	08:44:32.979	808.558	7.500	7.500	27.500	937	0	1.0899	OK	11-12-2024	08:44:32.979	808.558	37.574	OK
11-12-2024	08:44:33.079	808.658	7.499	7.499	27.494	937	0	1.0903	OK	11-12-2024	08:44:33.079	808.658	37.574	OK
11-12-2024	08:44:33.178	808.757	7.499	7.499	27.498	937	0	1.0901	OK	11-12-2024	08:44:33.178	808.757	37.574	OK
11-12-2024	08:44:33.279	808.858	7.499	7.499	27.494	937	0	1.0903	OK	11-12-2024	08:44:33.279	808.858	37.576	OK
11-12-2024	08:44:33.447	809.026	7.500	7.500	27.500	937	0	1.0899	OK	11-12-2024	08:44:33.447	809.026	37.576	OK
11-12-2024	08:44:33.703	809.281	7.500	7.500	27.502	937	0	1.0898	OK	11-12-2024	08:44:33.703	809.281	37.576	OK
11-12-2024	08:44:33.879	809.458	7.500	7.500	27.504	937	0	1.0897	OK	11-12-2024	08:44:33.879	809.458	37.576	OK
11-12-2024	08:44:33.981	809.560	7.499	7.499	27.497	937	0	1.0902	OK	11-12-2024	08:44:33.981	809.560	37.577	OK
11-12-2024	08:44:34.080	809.659	7.499	7.499	27.497	937	0	1.0902	OK	11-12-2024	08:44:34.080	809.659	37.577	OK
11-12-2024	08:44:34.181	809.760	7.499	7.499	27.499	937	0	1.0900	OK	11-12-2024	08:44:34.181	809.760	37.577	OK
11-12-2024	08:44:34.281	809.860	7.498	7.498	27.492	937	0	1.0905	OK	11-12-2024	08:44:34.281	809.860	37.577	OK
11-12-2024	08:44:34.452	810.031	7.498	7.498	27.492	937	0	1.0905	OK	11-12-2024	08:44:34.452	810.031	37.576	OK
11-12-2024	08:44:34.708	810.287	7.500	7.500	27.502	937	0	1.0898	OK	11-12-2024	08:44:34.708	810.287	37.576	OK
11-12-2024	08:44:34.882	810.461	7.500	7.500	27.503	937	0	1.0898	OK	11-12-2024	08:44:34.882	810.461	37.576	OK
11-12-2024	08:44:34.981	810.560	7.499	7.499	27.498	937	0	1.0902	OK	11-12-2024	08:44:34.981	810.560	37.575	OK
11-12-2024	08:44:35.082	810.661	7.499	7.499	27.498	937	0	1.0902	OK	11-12-2024	08:44:35.082	810.661	37.575	OK
11-12-2024	08:44:35.180	810.759	7.499	7.499	27.497	937	0	1.0902	OK	11-12-2024	08:44:35.180	810.759	37.575	OK
11-12-2024	08:44:35.282	810.861	7.499	7.499	27.499	937	0	1.0901	OK	11-12-2024	08:44:35.282	810.861	37.575	OK
11-12-2024	08:44:35.449	811.028	7.499	7.499	27.497	937	0	1.0902	OK	11-12-2024	08:44:35.449	811.028	37.574	OK
11-12-2024	08:44:35.723	811.302	7.500	7.500	27.501	937	0	1.0900	OK	11-12-2024	08:44:35.723	811.302	37.574	OK
11-12-2024	08:44:35.882	811.461	7.499	7.499	27.499	938	0	1.0901	OK	11-12-2024	08:44:35.882	811.461	37.574	OK
11-12-2024	08:44:35.982	811.561	7.499	7.499	27.497	938	0	1.0902	OK	11-12-2024	08:44:35.982	811.561	37.574	OK
11-12-2024	08:44:36.083	811.662	7.499	7.499	27.496	938	0	1.0903	OK	11-12-2024	08:44:36.083	811.662	37.574	OK
11-12-2024	08:44:36.182	811.761	7.499	7.499	27.498	938	0	1.0902	OK	11-12-2024	08:44:36.182	811.761	37.574	OK
11-12-2024	08:44:36.283	811.862	7.499	7.499	27.495	937	0	1.0904	OK	11-12-2024	08:44:36.283	811.862	37.574	OK
11-12-2024	08:44:36.468	812.047	7.499	7.499	27.500	938	0	1.0900	OK	11-12-2024	08:44:36.468	812.047	37.574	OK
11-12-2024	08:44:36.738	812.317	7.500	7.500	27.505	938	0	1.0897	OK	11-12-2024	08:44:36.738	812.317	37.572	OK
11-12-2024	08:44:36.882	812.461	7.500	7.500	27.501	938	0	1.0900	OK	11-12-2024	08:44:36.882	812.461	37.572	OK
11-12-2024	08:44:36.983	812.562	7.499	7.499	27.500	938	0	1.0900	OK	11-12-2024	08:44:36.983	812.562	37.572	OK
11-12-2024	08:44:37.086	812.665	7.498	7.498	27.493	938	0	1.0905	OK	11-12-2024	08:44:37.086	812.665	37.572	OK
11-12-2024	08:44:37.185	812.764	7.499	7.499	27.496	938	0	1.0903	OK	11-12-2024	08:44:37.185	812.764	37.572	OK
11-12-2024	08:44:37.283	812.862	7.499	7.499	27.495	938	0	1.0904	OK	11-12-2024	08:44:37.283	812.862	37.572	OK
11-12-2024	08:44:37.453	813.032	7.499	7.499	27.500	938	0	1.0900	OK	11-12-2024	08:44:37.453	813.032	37.573	OK
11-12-2024	08:44:37.726	813.305	7.500	7.500	27.505	938	0	1.0897	OK	11-12-2024	08:44:37.726	813.305	37.574	OK
11-12-2024	08:44:37.882	813.461	7.500	7.500	27.501	938	0	1.0900	OK	11-12-2024	08:44:37.882	813.461	37.574	OK
11-12-2024	08:44:37.983	813.562	7.499	7.499	27.495	938	0	1.0904	OK	11-12-2024	08:44:37.983	813.562	37.574	OK
11-12-2024	08:44:38.083	813.662	7.499	7.499	27.495	938	0	1.0904	OK	11-12-2024	08:44:38.083	813.662	37.574	OK
11-12-2024	08:44:38.182	813.761	7.498	7.498	27.494	938	0	1.0904	OK	11-12-2024	08:44:38.182	813.761	37.575	OK
11-12-2024	08:44:38.407	813.986	7.499	7.499	27.497	938	0	1.0902	OK	11-12-2024	08:44:38.407	813.986	37.574	OK
11-12-2024	08:44:38.660	814.239	7.500	7.500	27.501	938	0	1.0900	OK	11-12-2024	08:44:38.660	814.239	37.574	OK
11-12-2024	08:44:38.782	814.361	7.499	7.499	27.498	938	0	1.0902	OK	11-12-2024	08:44:38.782	814.361	37.575	OK
11-12-2024	08:44:38.882	814.461	7.499	7.499	27.498	938	0	1.0902	OK	11-12-2024	08:44:38.882	814.461	37.575	OK
11-12-2024	08:44:38.981	814.560	7.499	7.499	27.498	938	0	1.0902	OK	11-12-2024	08:44:38.981	814.560	37.575	OK
11-12-2024	08:44:39.085	814.664	7.499	7.499	27.495	938	0	1.0904	OK	11-12-2024	08:44:39.085	814.664	37.575	OK
11-12-2024	08:44:39.184	814.763	7.498	7.498	27.491	938	0	1.0907	OK	11-12-2024	08:44:39.184	814.763	37.575	OK
11-12-2024	08:44:39.283	814.861	7.498	7.498	27.492	938	0	1.0906	OK	11-12-2024	08:44:39.283	814.861	37.575	OK
11-12-2024	08:44:39.455	815.034	7.499	7.499	27.497	938	0	1.0902	OK	11-12-2024	08:44:39.455	815.034	37.575	OK
11-12-2024	08:44:39.713	815.292	7.499	7.499	27.499	938	0	1.0901	OK	11-12-2024	08:44:39.713	815.292	37.575	OK
11-12-2024	08:44:39.884	815.463	7.499	7.499	27.500	938	0	1.0900	OK	11-12-2024	08:44:39.884	815.463	37.575	OK
11-12-2024	08:44:39.984	815.563	7.499	7.499	27.496	938	0	1.0903	OK	11-12-2024	08:44:39.984	815.563	37.575	OK
11-12-2024	08:44:40.086	815.665	7.499	7.499	27.497	938	0	1.0902	OK	11-12-2024	08:44:40.086	815.665	37.575	OK
11-12-2024	08:44:40.187	815.766	7.499	7.499	27.495	938	0	1.0903	OK	11-12-2024	08:44:40.187	815.766	37.575	OK
11-12-2024	08:44:40.288	815.867	7.498	7.498	27.491	938	0	1.0906	OK	11-12-2024	08:44:40.288	815.867	37.575	OK
11-12-2024	08:44:40.457	816.036	7.498	7.498	27.492	937	0	1.0905	OK	11-12-2024	08:44:40.457	816.036	37.575	OK
11-12-2024	08:44:40.713	816.292	7.500	7.500	27.501	937	0	1.0899	OK	11-12-2024	08:44:40.713	816.292	37.575	OK
11-12-2024	08:44:40.888	816.467	7.500	7.500	27.501	938	0	1.0899	OK	11-12-2024	08:44:40.888	816.467	37.574	OK
11-12-2024	08:44:40.988	816.567	7.499	7.499	27.496	938	0	1.0902	OK	11-12-2024	08:44:40.988	816.567	37.574	OK
11-12-2024	08:44:41.087	816.666	7.499	7.499	27.497	938	0	1.0901	OK	11-12-2024	08:44:41.087	816.666	37.574	OK
11-12-2024	08:44:41.187	816.766	7.499	7.499	27.495	938	0	1.0903	OK	11-12-2024	08:44:41.187	816.766	37.574	OK
11-12-2024	08:44:41.288	816.867	7.499	7.499	27.497	938	0	1.0901	OK	11-12-2024	08:44:41.288	816.867	37.574	OK
11-12-2024	08:44:41.457	817.036	7.499	7.499	27.497	938	0	1.0901	OK	11-12-2024	08:44:41.457	817.036	37.573	OK
11-12-2024	08:44:41.712	817.291	7.500	7.500	27.504	938	0	1.0897	OK	11-12-2024	08:44:41.712	817.291	37.573	OK
11-12-2024	08:44:41.888	817.467	7.499	7.499	27.499	938	0	1.0900	OK	11-12-2024	08:44:41.888	817.467	37.574	OK
11-12-2024	08:44:41.990	817.569	7.499	7.499	27.499	938	0	1.0900	OK	11-12-2024	08:44:41.990	817.569	37.574	OK
11-12-2024	08:44:42.090	817.669	7.499	7.499	27.495	938	0	1.0903	OK	11-12-2024	08:44:42.090	817.669	37.573	OK
11-12-2024	08:44:42.189	817.767	7.499	7.499	27.493	938	0	1.0904	OK	11-12-2024	08:44:42.189	817.767	37.573	OK
11-12-2024	08:44:42.289	817.868	7.499	7.499	27.494	938	0	1.0903	OK	11-12-2024	08:44:42.289	817.868	37.573	OK
11-12-2024	08:44:42.459	818.038	7.498	7.498	27.492	938	0	1.0905	OK	11-12-2024	08:44:42.459	818.038	37.573	OK
11-12-2024	08:44:42.729	818.308	7.499	7.499	27.499	938	0	1.0900	OK	11-12-2024	08:44:42.729	818.308	37.574	OK
11-12-2024	08:44:42.889	818.468	7.499	7.499	27.497	938	0	1.0901	OK	11-12-2024	08:44:42.889	818.468	37.574	OK
11-12-2024	08:44:42.989	818.568	7.499	7.499	27.496	937	0	1.0903	OK	11-12-2024	08:44:42.989	818.568	37.574	OK
11-12-2024	08:44:43.090	818.669	7.499	7.499	27.495	937	0	1.0903	OK	11-12-2024	08:44:43.090	818.669	37.573	OK
11-12-2024	08:44:43.189	818.768	7.498	7.498	27.490	937	0	1.0907	OK	11-12-2024	08:44:43.189	818.768	37.573	OK
11-12-2024	08:44:43.289	818.868	7.499	7.499	27.497	937	0	1.0902	OK	11-12-2024	08:44:43.289	818.868	37.573	OK
11-12-2024	08:44:43.460	819.039	7.499	7.499	27.495	937	0	1.0903	OK	11-12-2024	08:44:43.460	819.039	37.573	OK
11-12-2024	08:44:43.714	819.293	7.499	7.499	27.498	938	0	1.0901	OK	11-12-2024	08:44:43.714	819.293	37.573	OK
11-12-2024	08:44:43.889	819.468	7.500	7.500	27.500	938	0	1.0900	OK	11-12-2024	08:44:43.889	819.468	37.573	OK
11-12-2024	08:44:43.990	819.569	7.499	7.499	27.493	938	0	1.0904	OK	11-12-2024	08:44:43.990	819.569	37.573	OK
11-12-2024	08:44:44.090	819.668	7.499	7.499	27.494	938	0	1.0903	OK	11-12-2024	08:44:44.090	819.668	37.573	OK
11-12-2024	08:44:44.189	819.768	7.499	7.499	27.494	938	0	1.0903	OK	11-12-2024	08:44:44.189	819.768	37.573	OK
11-12-2024	08:44:44.289	819.868	7.498	7.498	27.492	937	0	1.0905	OK	11-12-2024	08:44:44.289	819.868	37.573	OK
11-12-2024	08:44:44.459	820.038	7.499	7.499	27.495	938	0	1.0903	OK	11-12-2024	08:44:44.459	820.038	37.573	OK
11-12-2024	08:44:44.714	820.293	7.499	7.499	27.497	938	0	1.0901	OK	11-12-2024	08:44:44.714	820.293	37.574	OK
11-12-2024	08:44:44.890	820.469	7.499	7.499	27.498	938	0	1.0901	OK	11-12-2024	08:44:44.890	820.469	37.574	OK
11-12-2024	08:44:44.990	820.568	7.499	7.499	27.494	938	0	1.0903	OK	11-12-2024	08:44:44.990	820.568	37.574	OK
11-12-2024	08:44:45.091	820.670	7.499	7.499	27.496	938	0	1.0902	OK	11-12-2024	08:44:45.091	820.670	37.574	OK
11-12-2024	08:44:45.190	820.769	7.499	7.499	27.493	938	0	1.0904	OK	11-12-2024	08:44:45.190	820.769	37.574	OK
11-12-2024	08:44:45.291	820.870	7.499	7.499	27.494	938	0	1.0903	OK	11-12-2024	08:44:45.291	820.870	37.573	OK
11-12-2024	08:44:45.460	821.039	7.499	7.499	27.494	938	0	1.0903	OK	11-12-2024	08:44:45.460	821.039	37.574	OK
11-12-2024	08:44:45.736	821.315	7.499	7.499	27.499	938	0	1.0900	OK	11-12-2024	08:44:45.736	821.315	37.574	OK
11-12-2024	08:44:45.892	821.471	7.499	7.499	27.494	938	0	1.0903	OK	11-12-2024	08:44:45.892	821.471	37.574	OK
11-12-2024	08:44:45.994	821.573	7.499	7.499	27.494	938	0	1.0903	OK	11-12-2024	08:44:45.994	821.573	37.574	OK
11-12-2024	08:44:46.093	821.672	7.499	7.499	27.494	938	0	1.0903	OK	11-12-2024	08:44:46.093	821.672	37.573	OK
11-12-2024	08:44:46.194	821.773	7.499	7.499	27.493	938	0	1.0904	OK	11-12-2024	08:44:46.194	821.773	37.573	OK
11-12-2024	08:44:46.294	821.873	7.499	7.499	27.493	938	0	1.0904	OK	11-12-2024	08:44:46.294	821.873	37.575	OK
11-12-2024	08:44:46.463	822.042	7.499	7.499	27.496	938	0	1.0902	OK	11-12-2024	08:44:46.463	822.042	37.575	OK
11-12-2024	08:44:46.722	822.301	7.500	7.500	27.502	938	0	1.0898	OK	11-12-2024	08:44:46.722	822.301	37.575	OK
11-12-2024	08:44:46.895	822.474	7.499	7.499	27.497	938	0	1.0901	OK	11-12-2024	08:44:46.895	822.474	37.576	OK
11-12-2024	08:44:46.994	822.573	7.500	7.500	27.500	938	0	1.0899	OK	11-12-2024	08:44:46.994	822.573	37.576	OK
11-12-2024	08:44:47.095	822.674	7.499	7.499	27.497	938	0	1.0901	OK	11-12-2024	08:44:47.095	822.674	37.578	OK
11-12-2024	08:44:47.195	822.774	7.499	7.499	27.493	938	0	1.0904	OK	11-12-2024	08:44:47.195	822.774	37.578	OK
11-12-2024	08:44:47.296	822.875	7.498	7.498	27.490	938	0	1.0906	OK	11-12-2024	08:44:47.296	822.875	37.577	OK
11-12-2024	08:44:47.465	823.044	7.499	7.499	27.495	938	0	1.0903	OK	11-12-2024	08:44:47.465	823.044	37.577	OK
11-12-2024	08:44:47.720	823.299	7.499	7.499	27.496	938	0	1.0902	OK	11-12-2024	08:44:47.720	823.299	37.578	OK
11-12-2024	08:44:47.896	823.474	7.499	7.499	27.498	938	0	1.0901	OK	11-12-2024	08:44:47.896	823.474	37.578	OK
11-12-2024	08:44:47.996	823.575	7.499	7.499	27.498	938	0	1.0901	OK	11-12-2024	08:44:47.996	823.575	37.578	OK
11-12-2024	08:44:48.095	823.674	7.498	7.498	27.492	938	0	1.0905	OK	11-12-2024	08:44:48.095	823.674	37.578	OK
11-12-2024	08:44:48.196	823.775	7.499	7.499	27.494	938	0	1.0904	OK	11-12-2024	08:44:48.196	823.775	37.578	OK
11-12-2024	08:44:48.408	823.987	7.499	7.499	27.499	938	0	1.0900	OK	11-12-2024	08:44:48.408	823.987	37.578	OK
11-12-2024	08:44:48.661	824.240	7.499	7.499	27.500	938	0	1.0900	OK	11-12-2024	08:44:48.661	824.240	37.579	OK
11-12-2024	08:44:48.798	824.377	7.500	7.500	27.501	938	0	1.0899	OK	11-12-2024	08:44:48.798	824.377	37.578	OK
11-12-2024	08:44:48.897	824.476	7.498	7.498	27.493	938	0	1.0905	OK	11-12-2024	08:44:48.897	824.476	37.579	OK
11-12-2024	08:44:48.997	824.576	7.498	7.498	27.493	938	0	1.0905	OK	11-12-2024	08:44:48.997	824.576	37.579	OK
11-12-2024	08:44:49.097	824.676	7.499	7.499	27.496	938	0	1.0902	OK	11-12-2024	08:44:49.097	824.676	37.579	OK
11-12-2024	08:44:49.198	824.777	7.498	7.498	27.493	938	0	1.0904	OK	11-12-2024	08:44:49.198	824.777	37.579	OK
11-12-2024	08:44:49.297	824.876	7.498	7.498	27.491	938	0	1.0906	OK	11-12-2024	08:44:49.297	824.876	37.579	OK
11-12-2024	08:44:49.466	825.045	7.499	7.499	27.497	938	0	1.0901	OK	11-12-2024	08:44:49.466	825.045	37.580	OK
11-12-2024	08:44:49.745	825.324	7.499	7.499	27.499	938	0	1.0900	OK	11-12-2024	08:44:49.745	825.324	37.580	OK
11-12-2024	08:44:49.899	825.478	7.499	7.499	27.497	938	0	1.0901	OK	11-12-2024	08:44:49.899	825.478	37.580	OK
11-12-2024	08:44:50.001	825.580	7.498	7.498	27.491	938	0	1.0906	OK	11-12-2024	08:44:50.001	825.580	37.580	OK
11-12-2024	08:44:50.100	825.679	7.498	7.498	27.493	938	0	1.0904	OK	11-12-2024	08:44:50.100	825.679	37.580	OK
11-12-2024	08:44:50.200	825.779	7.499	7.499	27.495	938	0	1.0903	OK	11-12-2024	08:44:50.200	825.779	37.579	OK
11-12-2024	08:44:50.299	825.878	7.498	7.498	27.490	938	0	1.0906	OK	11-12-2024	08:44:50.299	825.878	37.579	OK
11-12-2024	08:44:50.469	826.048	7.499	7.499	27.494	938	0	1.0903	OK	11-12-2024	08:44:50.469	826.048	37.578	OK
11-12-2024	08:44:50.739	826.318	7.499	7.499	27.498	938	0	1.0901	OK	11-12-2024	08:44:50.739	826.318	37.578	OK
11-12-2024	08:44:50.899	826.478	7.499	7.499	27.497	938	0	1.0901	OK	11-12-2024	08:44:50.899	826.478	37.578	OK
11-12-2024	08:44:51.000	826.579	7.498	7.498	27.490	938	0	1.0906	OK	11-12-2024	08:44:51.000	826.579	37.577	OK
11-12-2024	08:44:51.201	826.780	7.499	7.499	27.495	938	0	1.0903	OK	11-12-2024	08:44:51.201	826.780	37.577	OK
11-12-2024	08:44:51.300	826.879	7.499	7.499	27.495	938	0	1.0903	OK	11-12-2024	08:44:51.300	826.879	37.577	OK
11-12-2024	08:44:51.472	827.051	7.499	7.499	27.493	938	0	1.0904	OK	11-12-2024	08:44:51.472	827.051	37.577	OK
11-12-2024	08:44:51.727	827.306	7.499	7.499	27.499	938	0	1.0900	OK	11-12-2024	08:44:51.727	827.306	37.576	OK
11-12-2024	08:44:51.900	827.479	7.499	7.499	27.499	938	0	1.0900	OK	11-12-2024	08:44:51.900	827.479	37.577	OK
11-12-2024	08:44:52.002	827.581	7.499	7.499	27.496	938	0	1.0902	OK	11-12-2024	08:44:52.002	827.581	37.577	OK
11-12-2024	08:44:52.101	827.680	7.499	7.499	27.495	938	0	1.0903	OK	11-12-2024	08:44:52.101	827.680	37.577	OK
11-12-2024	08:44:52.203	827.782	7.499	7.499	27.496	938	0	1.0902	OK	11-12-2024	08:44:52.203	827.782	37.576	OK
11-12-2024	08:44:52.302	827.881	7.498	7.498	27.491	938	0	1.0906	OK	11-12-2024	08:44:52.302	827.881	37.576	OK
11-12-2024	08:44:52.472	828.051	7.499	7.499	27.498	938	0	1.0901	OK	11-12-2024	08:44:52.472	828.051	37.576	OK
11-12-2024	08:44:52.729	828.308	7.499	7.499	27.498	938	0	1.0901	OK	11-12-2024	08:44:52.729	828.308	37.575	OK
11-12-2024	08:44:52.904	828.483	7.500	7.500	27.500	938	0	1.0899	OK	11-12-2024	08:44:52.904	828.483	37.575	OK
11-12-2024	08:44:53.004	828.583	7.499	7.499	27.495	938	0	1.0903	OK	11-12-2024	08:44:53.004	828.583	37.574	OK
11-12-2024	08:44:53.106	828.685	7.499	7.499	27.495	938	0	1.0903	OK	11-12-2024	08:44:53.106	828.685	37.574	OK
11-12-2024	08:44:53.206	828.785	7.499	7.499	27.496	938	0	1.0903	OK	11-12-2024	08:44:53.206	828.785	37.573	OK
11-12-2024	08:44:53.307	828.886	7.498	7.498	27.491	937	0	1.0906	OK	11-12-2024	08:44:53.307	828.886	37.573	OK
11-12-2024	08:44:53.477	829.056	7.499	7.499	27.497	938	0	1.0902	OK	11-12-2024	08:44:53.477	829.056	37.574	OK
11-12-2024	08:44:53.731	829.310	7.499	7.499	27.496	938	0	1.0903	OK	11-12-2024	08:44:53.731	829.310	37.574	OK
11-12-2024	08:44:53.907	829.486	7.499	7.499	27.498	938	0	1.0901	OK	11-12-2024	08:44:53.907	829.486	37.575	OK
11-12-2024	08:44:54.007	829.586	7.499	7.499	27.498	938	0	1.0901	OK	11-12-2024	08:44:54.007	829.586	37.575	OK
11-12-2024	08:44:54.107	829.686	7.498	7.498	27.492	938	0	1.0905	OK	11-12-2024	08:44:54.107	829.686	37.575	OK
11-12-2024	08:44:54.208	829.787	7.499	7.499	27.494	938	0	1.0903	OK	11-12-2024	08:44:54.208	829.787	37.574	OK
11-12-2024	08:44:54.307	829.886	7.498	7.498	27.490	938	0	1.0906	OK	11-12-2024	08:44:54.307	829.886	37.574	OK
11-12-2024	08:44:54.478	830.057	7.499	7.499	27.494	938	0	1.0903	OK	11-12-2024	08:44:54.478	830.057	37.574	OK
11-12-2024	08:44:54.737	830.315	7.499	7.499	27.499	938	0	1.0900	OK	11-12-2024	08:44:54.737	830.315	37.574	OK
11-12-2024	08:44:54.908	830.487	7.499	7.499	27.499	938	0	1.0900	OK	11-12-2024	08:44:54.908	830.487	37.575	OK
11-12-2024	08:44:55.009	830.588	7.499	7.499	27.493	938	0	1.0904	OK	11-12-2024	08:44:55.009	830.588	37.574	OK
11-12-2024	08:44:55.108	830.687	7.498	7.498	27.490	938	0	1.0906	OK	11-12-2024	08:44:55.108	830.687	37.574	OK
11-12-2024	08:44:55.210	830.789	7.498	7.498	27.491	938	0	1.0906	OK	11-12-2024	08:44:55.210	830.789	37.574	OK
11-12-2024	08:44:55.310	830.889	7.499	7.499	27.493	938	0	1.0904	OK	11-12-2024	08:44:55.310	830.889	37.574	OK
11-12-2024	08:44:55.480	831.059	7.498	7.498	27.492	938	0	1.0905	OK	11-12-2024	08:44:55.480	831.059	37.573	OK
11-12-2024	08:44:55.737	831.316	7.500	7.500	27.501	938	0	1.0899	OK	11-12-2024	08:44:55.737	831.316	37.573	OK
11-12-2024	08:44:55.913	831.492	7.499	7.499	27.498	938	0	1.0901	OK	11-12-2024	08:44:55.913	831.492	37.574	OK
11-12-2024	08:44:56.014	831.593	7.499	7.499	27.496	938	0	1.0902	OK	11-12-2024	08:44:56.014	831.593	37.573	OK
11-12-2024	08:44:56.114	831.693	7.499	7.499	27.496	938	0	1.0902	OK	11-12-2024	08:44:56.114	831.693	37.573	OK
11-12-2024	08:44:56.214	831.793	7.498	7.498	27.490	938	0	1.0906	OK	11-12-2024	08:44:56.214	831.793	37.575	OK
11-12-2024	08:44:56.315	831.894	7.499	7.499	27.493	938	0	1.0904	OK	11-12-2024	08:44:56.315	831.894	37.575	OK
11-12-2024	08:44:56.487	832.066	7.499	7.499	27.496	938	0	1.0902	OK	11-12-2024	08:44:56.487	832.066	37.575	OK
11-12-2024	08:44:56.762	832.341	7.500	7.500	27.503	938	0	1.0897	OK	11-12-2024	08:44:56.762	832.341	37.575	OK
11-12-2024	08:44:56.916	832.495	7.499	7.499	27.499	938	0	1.0900	OK	11-12-2024	08:44:56.916	832.495	37.575	OK
11-12-2024	08:44:57.016	832.595	7.499	7.499	27.496	938	0	1.0902	OK	11-12-2024	08:44:57.016	832.595	37.575	OK
11-12-2024	08:44:57.117	832.696	7.499	7.499	27.498	938	0	1.0901	OK	11-12-2024	08:44:57.117	832.696	37.575	OK
11-12-2024	08:44:57.217	832.796	7.499	7.499	27.497	937	0	1.0901	OK	11-12-2024	08:44:57.217	832.796	37.575	OK
11-12-2024	08:44:57.318	832.897	7.499	7.499	27.495	938	0	1.0903	OK	11-12-2024	08:44:57.318	832.897	37.575	OK
11-12-2024	08:44:57.491	833.070	7.500	7.500	27.500	938	0	1.0899	OK	11-12-2024	08:44:57.491	833.070	37.576	OK
11-12-2024	08:44:57.753	833.332	7.500	7.500	27.501	938	0	1.0899	OK	11-12-2024	08:44:57.753	833.332	37.576	OK
11-12-2024	08:44:57.918	833.497	7.499	7.499	27.499	938	0	1.0900	OK	11-12-2024	08:44:57.918	833.497	37.576	OK
11-12-2024	08:44:58.019	833.597	7.499	7.499	27.496	938	0	1.0902	OK	11-12-2024	08:44:58.019	833.597	37.576	OK
11-12-2024	08:44:58.119	833.698	7.499	7.499	27.493	938	0	1.0904	OK	11-12-2024	08:44:58.119	833.698	37.575	OK
11-12-2024	08:44:58.219	833.798	7.498	7.498	27.492	938	0	1.0905	OK	11-12-2024	08:44:58.219	833.798	37.575	OK
11-12-2024	08:44:58.321	833.900	7.498	7.498	27.492	938	0	1.0905	OK	11-12-2024	08:44:58.321	833.900	37.575	OK
11-12-2024	08:44:58.489	834.067	7.499	7.499	27.496	938	0	1.0902	OK	11-12-2024	08:44:58.489	834.067	37.575	OK
11-12-2024	08:44:58.746	834.325	7.500	7.500	27.501	938	0	1.0899	OK	11-12-2024	08:44:58.746	834.325	37.576	OK
11-12-2024	08:44:58.921	834.500	7.499	7.499	27.498	938	0	1.0901	OK	11-12-2024	08:44:58.921	834.500	37.575	OK
11-12-2024	08:44:59.020	834.599	7.499	7.499	27.499	937	0	1.0900	OK	11-12-2024	08:44:59.020	834.599	37.575	OK
11-12-2024	08:44:59.120	834.699	7.499	7.499	27.498	937	0	1.0901	OK	11-12-2024	08:44:59.120	834.699	37.574	OK
11-12-2024	08:44:59.221	834.800	7.499	7.499	27.496	938	0	1.0902	OK	11-12-2024	08:44:59.221	834.800	37.574	OK
11-12-2024	08:44:59.320	834.899	7.499	7.499	27.497	937	0	1.0901	OK	11-12-2024	08:44:59.320	834.899	37.574	OK
11-12-2024	08:44:59.490	835.069	7.499	7.499	27.497	938	0	1.0901	OK	11-12-2024	08:44:59.490	835.069	37.573	OK
11-12-2024	08:44:59.747	835.326	7.500	7.500	27.503	938	0	1.0897	OK	11-12-2024	08:44:59.747	835.326	37.573	OK
11-12-2024	08:44:59.921	835.500	7.500	7.500	27.501	938	0	1.0899	OK	11-12-2024	08:44:59.921	835.500	37.573	OK
11-12-2024	08:45:00.022	835.601	7.499	7.499	27.495	938	0	1.0903	OK	11-12-2024	08:45:00.022	835.601	37.573	OK
11-12-2024	08:45:00.121	835.700	7.499	7.499	27.496	938	0	1.0902	OK	11-12-2024	08:45:00.121	835.700	37.573	OK
11-12-2024	08:45:00.222	835.801	7.499	7.499	27.495	938	0	1.0903	OK	11-12-2024	08:45:00.222	835.801	37.573	OK
11-12-2024	08:45:00.322	835.901	7.499	7.499	27.495	938	0	1.0903	OK	11-12-2024	08:45:00.322	835.901	37.573	OK
11-12-2024	08:45:00.493	836.072	7.500	7.500	27.500	937	0	1.0899	OK	11-12-2024	08:45:00.493	836.072	37.573	OK
11-12-2024	08:45:00.750	836.329	7.500	7.500	27.502	938	0	1.0898	OK	11-12-2024	08:45:00.750	836.329	37.573	OK
11-12-2024	08:45:00.924	836.503	7.500	7.500	27.503	938	0	1.0897	OK	11-12-2024	08:45:00.924	836.503	37.573	OK
11-12-2024	08:45:01.026	836.605	7.500	7.500	27.500	938	0	1.0899	OK	11-12-2024	08:45:01.026	836.605	37.573	OK
11-12-2024	08:45:01.226	836.805	7.500	7.500	27.503	938	0	1.0897	OK	11-12-2024	08:45:01.226	836.805	37.573	OK
11-12-2024	08:45:01.327	836.906	7.499	7.499	27.494	938	0	1.0903	OK	11-12-2024	08:45:01.327	836.906	37.574	OK
11-12-2024	08:45:01.496	837.075	7.499	7.499	27.496	938	0	1.0902	OK	11-12-2024	08:45:01.496	837.075	37.574	OK
11-12-2024	08:45:01.752	837.331	7.500	7.500	27.504	937	0	1.0897	OK	11-12-2024	08:45:01.752	837.331	37.574	OK
11-12-2024	08:45:01.927	837.506	7.500	7.500	27.502	938	0	1.0898	OK	11-12-2024	08:45:01.927	837.506	37.573	OK
11-12-2024	08:45:02.026	837.605	7.499	7.499	27.497	938	0	1.0901	OK	11-12-2024	08:45:02.026	837.605	37.573	OK
11-12-2024	08:45:02.127	837.706	7.499	7.499	27.497	937	0	1.0901	OK	11-12-2024	08:45:02.127	837.706	37.573	OK
11-12-2024	08:45:02.226	837.805	7.499	7.499	27.494	937	0	1.0903	OK	11-12-2024	08:45:02.226	837.805	37.573	OK
11-12-2024	08:45:02.326	837.905	7.499	7.499	27.499	937	0	1.0900	OK	11-12-2024	08:45:02.326	837.905	37.574	OK
11-12-2024	08:45:02.495	838.074	7.499	7.499	27.498	937	0	1.0901	OK	11-12-2024	08:45:02.495	838.074	37.574	OK
11-12-2024	08:45:02.747	838.326	7.500	7.500	27.503	938	0	1.0897	OK	11-12-2024	08:45:02.747	838.326	37.574	OK
11-12-2024	08:45:02.927	838.506	7.499	7.499	27.499	938	0	1.0900	OK	11-12-2024	08:45:02.927	838.506	37.573	OK
11-12-2024	08:45:03.027	838.606	7.499	7.499	27.496	938	0	1.0902	OK	11-12-2024	08:45:03.027	838.606	37.573	OK
11-12-2024	08:45:03.128	838.707	7.499	7.499	27.495	938	0	1.0903	OK	11-12-2024	08:45:03.128	838.707	37.574	OK
11-12-2024	08:45:03.228	838.807	7.499	7.499	27.496	938	0	1.0902	OK	11-12-2024	08:45:03.228	838.807	37.574	OK
11-12-2024	08:45:03.329	838.908	7.498	7.498	27.492	937	0	1.0905	OK	11-12-2024	08:45:03.329	838.908	37.573	OK
11-12-2024	08:45:03.700	839.279	7.500	7.500	27.502	938	0	1.0898	OK	11-12-2024	08:45:03.700	839.279	37.573	OK
11-12-2024	08:45:03.828	839.407	7.499	7.499	27.497	938	0	1.0901	OK	11-12-2024	08:45:03.828	839.407	37.572	OK
11-12-2024	08:45:03.928	839.507	7.499	7.499	27.495	938	0	1.0903	OK	11-12-2024	08:45:03.928	839.507	37.571	OK
11-12-2024	08:45:04.030	839.609	7.499	7.499	27.497	938	0	1.0901	OK	11-12-2024	08:45:04.030	839.609	37.571	OK
11-12-2024	08:45:04.131	839.710	7.498	7.498	27.491	938	0	1.0906	OK	11-12-2024	08:45:04.131	839.710	37.571	OK
11-12-2024	08:45:04.332	839.911	7.500	7.500	27.502	937	0	1.0898	OK	11-12-2024	08:45:04.332	839.911	37.570	OK
11-12-2024	08:45:04.504	840.082	7.499	7.499	27.496	938	0	1.0902	OK	11-12-2024	08:45:04.504	840.082	37.570	OK
11-12-2024	08:45:04.777	840.356	7.500	7.500	27.499	938	0	1.0900	OK	11-12-2024	08:45:04.777	840.356	37.568	OK
11-12-2024	08:45:04.934	840.513	7.500	7.500	27.504	938	0	1.0897	OK	11-12-2024	08:45:04.934	840.513	37.569	OK
11-12-2024	08:45:05.032	840.611	7.500	7.500	27.502	938	0	1.0898	OK	11-12-2024	08:45:05.032	840.611	37.569	OK
11-12-2024	08:45:05.132	840.711	7.500	7.500	27.500	938	0	1.0899	OK	11-12-2024	08:45:05.132	840.711	37.570	OK
11-12-2024	08:45:05.232	840.811	7.500	7.500	27.499	938	0	1.0900	OK	11-12-2024	08:45:05.232	840.811	37.570	OK
11-12-2024	08:45:05.333	840.912	7.499	7.499	27.498	938	0	1.0901	OK	11-12-2024	08:45:05.333	840.912	37.571	OK
11-12-2024	08:45:05.502	841.081	7.499	7.499	27.497	938	0	1.0901	OK	11-12-2024	08:45:05.502	841.081	37.571	OK
11-12-2024	08:45:05.760	841.339	7.499	7.499	27.497	938	0	1.0901	OK	11-12-2024	08:45:05.760	841.339	37.570	OK
11-12-2024	08:45:05.937	841.516	7.500	7.500	27.500	938	0	1.0899	OK	11-12-2024	08:45:05.937	841.516	37.571	OK
11-12-2024	08:45:06.035	841.614	7.500	7.500	27.500	938	0	1.0899	OK	11-12-2024	08:45:06.035	841.614	37.571	OK
11-12-2024	08:45:06.135	841.714	7.499	7.499	27.496	938	0	1.0902	OK	11-12-2024	08:45:06.135	841.714	37.571	OK
11-12-2024	08:45:06.234	841.813	7.499	7.499	27.495	938	0	1.0903	OK	11-12-2024	08:45:06.234	841.813	37.572	OK
11-12-2024	08:45:06.337	841.916	7.499	7.499	27.495	938	0	1.0903	OK	11-12-2024	08:45:06.337	841.916	37.572	OK
11-12-2024	08:45:06.506	842.085	7.499	7.499	27.499	937	0	1.0900	OK	11-12-2024	08:45:06.506	842.085	37.572	OK
11-12-2024	08:45:06.762	842.341	7.500	7.500	27.500	938	0	1.0899	OK	11-12-2024	08:45:06.762	842.341	37.572	OK
11-12-2024	08:45:06.937	842.516	7.500	7.500	27.502	938	0	1.0898	OK	11-12-2024	08:45:06.937	842.516	37.572	OK
11-12-2024	08:45:07.037	842.616	7.500	7.500	27.501	937	0	1.0899	OK	11-12-2024	08:45:07.037	842.616	37.573	OK
11-12-2024	08:45:07.137	842.715	7.499	7.499	27.499	937	0	1.0900	OK	11-12-2024	08:45:07.137	842.715	37.573	OK
11-12-2024	08:45:07.237	842.816	7.499	7.499	27.493	937	0	1.0904	OK	11-12-2024	08:45:07.237	842.816	37.574	OK
11-12-2024	08:45:07.336	842.915	7.499	7.499	27.495	937	0	1.0903	OK	11-12-2024	08:45:07.336	842.915	37.574	OK
11-12-2024	08:45:07.508	843.087	7.499	7.499	27.499	937	0	1.0900	OK	11-12-2024	08:45:07.508	843.087	37.576	OK
11-12-2024	08:45:07.763	843.342	7.500	7.500	27.502	937	0	1.0898	OK	11-12-2024	08:45:07.763	843.342	37.577	OK
11-12-2024	08:45:07.936	843.515	7.500	7.500	27.503	938	0	1.0897	OK	11-12-2024	08:45:07.936	843.515	37.577	OK
11-12-2024	08:45:08.036	843.615	7.499	7.499	27.499	937	0	1.0900	OK	11-12-2024	08:45:08.036	843.615	37.578	OK
11-12-2024	08:45:08.137	843.716	7.499	7.499	27.497	937	0	1.0901	OK	11-12-2024	08:45:08.137	843.716	37.578	OK
11-12-2024	08:45:08.237	843.816	7.499	7.499	27.493	938	0	1.0904	OK	11-12-2024	08:45:08.237	843.816	37.578	OK
11-12-2024	08:45:08.336	843.915	7.499	7.499	27.493	938	0	1.0904	OK	11-12-2024	08:45:08.336	843.915	37.578	OK
11-12-2024	08:45:08.507	844.086	7.499	7.499	27.498	938	0	1.0901	OK	11-12-2024	08:45:08.507	844.086	37.579	OK
11-12-2024	08:45:08.760	844.339	7.500	7.500	27.502	938	0	1.0898	OK	11-12-2024	08:45:08.760	844.339	37.578	OK
11-12-2024	08:45:08.940	844.519	7.500	7.500	27.503	938	0	1.0897	OK	11-12-2024	08:45:08.940	844.519	37.579	OK
11-12-2024	08:45:09.038	844.617	7.499	7.499	27.494	938	0	1.0903	OK	11-12-2024	08:45:09.038	844.617	37.580	OK
11-12-2024	08:45:09.150	844.729	7.499	7.499	27.496	938	0	1.0902	OK	11-12-2024	08:45:09.150	844.729	37.580	OK
11-12-2024	08:45:09.240	844.819	7.499	7.499	27.495	938	0	1.0903	OK	11-12-2024	08:45:09.240	844.819	37.579	OK
11-12-2024	08:45:09.422	845.001	7.499	7.499	27.499	938	0	1.0900	OK	11-12-2024	08:45:09.422	845.001	37.580	OK
11-12-2024	08:45:09.680	845.259	7.500	7.500	27.501	938	0	1.0899	OK	11-12-2024	08:45:09.680	845.259	37.580	OK
11-12-2024	08:45:09.842	845.421	7.500	7.500	27.504	937	0	1.0897	OK	11-12-2024	08:45:09.842	845.421	37.580	OK
11-12-2024	08:45:09.942	845.521	7.499	7.499	27.499	937	0	1.0900	OK	11-12-2024	08:45:09.942	845.521	37.580	OK
11-12-2024	08:45:10.042	845.621	7.499	7.499	27.495	937	0	1.0903	OK	11-12-2024	08:45:10.042	845.621	37.580	OK
11-12-2024	08:45:10.148	845.727	7.499	7.499	27.494	937	0	1.0903	OK	11-12-2024	08:45:10.148	845.727	37.580	OK
11-12-2024	08:45:10.243	845.822	7.499	7.499	27.494	937	0	1.0903	OK	11-12-2024	08:45:10.243	845.822	37.579	OK
11-12-2024	08:45:10.422	846.001	7.499	7.499	27.495	938	0	1.0903	OK	11-12-2024	08:45:10.422	846.001	37.579	OK
11-12-2024	08:45:10.678	846.257	7.500	7.500	27.500	938	0	1.0899	OK	11-12-2024	08:45:10.678	846.257	37.578	OK
11-12-2024	08:45:10.842	846.421	7.499	7.499	27.499	938	0	1.0900	OK	11-12-2024	08:45:10.842	846.421	37.579	OK
11-12-2024	08:45:10.942	846.521	7.500	7.500	27.500	937	0	1.0899	OK	11-12-2024	08:45:10.942	846.521	37.579	OK
11-12-2024	08:45:11.043	846.622	7.499	7.499	27.499	937	0	1.0900	OK	11-12-2024	08:45:11.043	846.622	37.579	OK
11-12-2024	08:45:11.166	846.745	7.499	7.499	27.498	937	0	1.0901	OK	11-12-2024	08:45:11.166	846.745	37.579	OK
11-12-2024	08:45:11.425	847.004	7.499	7.499	27.498	938	0	1.0900	OK	11-12-2024	08:45:11.425	847.004	37.580	OK
11-12-2024	08:45:11.697	847.276	7.500	7.500	27.503	938	0	1.0897	OK	11-12-2024	08:45:11.697	847.276	37.580	OK
11-12-2024	08:45:11.844	847.423	7.500	7.500	27.500	938	0	1.0899	OK	11-12-2024	08:45:11.844	847.423	37.580	OK
11-12-2024	08:45:11.944	847.523	7.499	7.499	27.493	938	0	1.0904	OK	11-12-2024	08:45:11.944	847.523	37.580	OK
11-12-2024	08:45:12.044	847.623	7.498	7.498	27.491	937	0	1.0905	OK	11-12-2024	08:45:12.044	847.623	37.580	OK
11-12-2024	08:45:12.150	847.729	7.499	7.499	27.498	938	0	1.0900	OK	11-12-2024	08:45:12.150	847.729	37.580	OK
11-12-2024	08:45:12.245	847.824	7.499	7.499	27.493	937	0	1.0904	OK	11-12-2024	08:45:12.245	847.824	37.578	OK
11-12-2024	08:45:12.423	848.002	7.499	7.499	27.496	937	0	1.0902	OK	11-12-2024	08:45:12.423	848.002	37.578	OK
11-12-2024	08:45:12.679	848.258	7.500	7.500	27.504	938	0	1.0897	OK	11-12-2024	08:45:12.679	848.258	37.577	OK
11-12-2024	08:45:12.846	848.425	7.499	7.499	27.499	938	0	1.0900	OK	11-12-2024	08:45:12.846	848.425	37.578	OK
11-12-2024	08:45:12.945	848.524	7.499	7.499	27.499	938	0	1.0900	OK	11-12-2024	08:45:12.945	848.524	37.578	OK
11-12-2024	08:45:13.045	848.624	7.499	7.499	27.496	937	0	1.0902	OK	11-12-2024	08:45:13.045	848.624	37.579	OK
11-12-2024	08:45:13.150	848.728	7.499	7.499	27.495	938	0	1.0903	OK	11-12-2024	08:45:13.150	848.728	37.579	OK
11-12-2024	08:45:13.246	848.825	7.498	7.498	27.492	937	0	1.0905	OK	11-12-2024	08:45:13.246	848.825	37.579	OK
11-12-2024	08:45:13.422	849.001	7.499	7.499	27.496	938	0	1.0902	OK	11-12-2024	08:45:13.422	849.001	37.579	OK
11-12-2024	08:45:13.676	849.255	7.500	7.500	27.503	937	0	1.0897	OK	11-12-2024	08:45:13.676	849.255	37.579	OK
11-12-2024	08:45:13.849	849.428	7.500	7.500	27.502	937	0	1.0898	OK	11-12-2024	08:45:13.849	849.428	37.579	OK
11-12-2024	08:45:13.948	849.527	7.499	7.499	27.497	938	0	1.0901	OK	11-12-2024	08:45:13.948	849.527	37.579	OK
11-12-2024	08:45:14.049	849.628	7.499	7.499	27.495	937	0	1.0903	OK	11-12-2024	08:45:14.049	849.628	37.579	OK
11-12-2024	08:45:14.153	849.732	7.499	7.499	27.495	937	0	1.0903	OK	11-12-2024	08:45:14.153	849.732	37.578	OK
11-12-2024	08:45:14.248	849.827	7.499	7.499	27.498	937	0	1.0901	OK	11-12-2024	08:45:14.248	849.827	37.578	OK
11-12-2024	08:45:14.426	850.005	7.499	7.499	27.499	937	0	1.0900	OK	11-12-2024	08:45:14.426	850.005	37.578	OK
11-12-2024	08:45:14.682	850.261	7.499	7.499	27.497	937	0	1.0901	OK	11-12-2024	08:45:14.682	850.261	37.577	OK
11-12-2024	08:45:14.849	850.428	7.499	7.499	27.499	938	0	1.0900	OK	11-12-2024	08:45:14.849	850.428	37.577	OK
11-12-2024	08:45:14.948	850.527	7.499	7.499	27.498	937	0	1.0901	OK	11-12-2024	08:45:14.948	850.527	37.577	OK
11-12-2024	08:45:15.050	850.629	7.499	7.499	27.499	937	0	1.0900	OK	11-12-2024	08:45:15.050	850.629	37.577	OK
11-12-2024	08:45:15.152	850.731	7.499	7.499	27.494	937	0	1.0903	OK	11-12-2024	08:45:15.152	850.731	37.577	OK
11-12-2024	08:45:15.250	850.829	7.499	7.499	27.497	937	0	1.0901	OK	11-12-2024	08:45:15.250	850.829	37.577	OK
11-12-2024	08:45:15.426	851.005	7.499	7.499	27.497	937	0	1.0901	OK	11-12-2024	08:45:15.426	851.005	37.578	OK
11-12-2024	08:45:15.681	851.260	7.500	7.500	27.500	938	0	1.0899	OK	11-12-2024	08:45:15.681	851.260	37.579	OK
11-12-2024	08:45:15.850	851.429	7.500	7.500	27.501	938	0	1.0899	OK	11-12-2024	08:45:15.850	851.429	37.579	OK
11-12-2024	08:45:15.950	851.528	7.499	7.499	27.495	938	0	1.0903	OK	11-12-2024	08:45:15.950	851.528	37.578	OK
11-12-2024	08:45:16.050	851.629	7.498	7.498	27.492	938	0	1.0905	OK	11-12-2024	08:45:16.050	851.629	37.578	OK
11-12-2024	08:45:16.155	851.734	7.499	7.499	27.493	937	0	1.0904	OK	11-12-2024	08:45:16.155	851.734	37.578	OK
11-12-2024	08:45:16.250	851.829	7.499	7.499	27.498	938	0	1.0901	OK	11-12-2024	08:45:16.250	851.829	37.578	OK
11-12-2024	08:45:16.424	852.003	7.499	7.499	27.497	938	0	1.0901	OK	11-12-2024	08:45:16.424	852.003	37.578	OK
11-12-2024	08:45:16.682	852.261	7.499	7.499	27.497	938	0	1.0901	OK	11-12-2024	08:45:16.682	852.261	37.578	OK
11-12-2024	08:45:16.851	852.430	7.500	7.500	27.501	938	0	1.0898	OK	11-12-2024	08:45:16.851	852.430	37.577	OK
11-12-2024	08:45:16.951	852.530	7.499	7.499	27.496	938	0	1.0902	OK	11-12-2024	08:45:16.951	852.530	37.578	OK
11-12-2024	08:45:17.051	852.630	7.498	7.498	27.492	938	0	1.0904	OK	11-12-2024	08:45:17.051	852.630	37.578	OK
11-12-2024	08:45:17.153	852.732	7.499	7.499	27.494	938	0	1.0903	OK	11-12-2024	08:45:17.153	852.732	37.578	OK
11-12-2024	08:45:17.251	852.830	7.499	7.499	27.496	938	0	1.0902	OK	11-12-2024	08:45:17.251	852.830	37.578	OK
11-12-2024	08:45:17.424	853.003	7.500	7.500	27.500	938	0	1.0899	OK	11-12-2024	08:45:17.424	853.003	37.578	OK
11-12-2024	08:45:17.681	853.260	7.499	7.499	27.498	938	0	1.0900	OK	11-12-2024	08:45:17.681	853.260	37.578	OK
11-12-2024	08:45:17.852	853.431	7.499	7.499	27.497	937	0	1.0901	OK	11-12-2024	08:45:17.852	853.431	37.578	OK
11-12-2024	08:45:17.951	853.530	7.500	7.500	27.502	937	0	1.0897	OK	11-12-2024	08:45:17.951	853.530	37.577	OK
11-12-2024	08:45:18.053	853.631	7.500	7.500	27.500	937	0	1.0899	OK	11-12-2024	08:45:18.053	853.631	37.577	OK
11-12-2024	08:45:18.154	853.733	7.499	7.499	27.496	938	0	1.0902	OK	11-12-2024	08:45:18.154	853.733	37.576	OK
11-12-2024	08:45:18.253	853.832	7.499	7.499	27.494	938	0	1.0903	OK	11-12-2024	08:45:18.253	853.832	37.576	OK
11-12-2024	08:45:18.427	854.006	7.499	7.499	27.498	937	0	1.0900	OK	11-12-2024	08:45:18.427	854.006	37.576	OK
11-12-2024	08:45:18.682	854.261	7.500	7.500	27.504	938	0	1.0896	OK	11-12-2024	08:45:18.682	854.261	37.576	OK
11-12-2024	08:45:18.854	854.433	7.501	7.501	27.508	938	0	1.0893	OK	11-12-2024	08:45:18.854	854.433	37.576	OK
11-12-2024	08:45:18.955	854.534	7.499	7.499	27.495	938	0	1.0902	OK	11-12-2024	08:45:18.955	854.534	37.576	OK
11-12-2024	08:45:19.055	854.634	7.499	7.499	27.496	938	0	1.0902	OK	11-12-2024	08:45:19.055	854.634	37.576	OK
11-12-2024	08:45:19.255	854.834	7.499	7.499	27.498	938	0	1.0900	OK	11-12-2024	08:45:19.255	854.834	37.576	OK
11-12-2024	08:45:19.442	855.021	7.500	7.500	27.502	938	0	1.0897	OK	11-12-2024	08:45:19.442	855.021	37.576	OK
11-12-2024	08:45:19.717	855.296	7.500	7.500	27.502	938	0	1.0897	OK	11-12-2024	08:45:19.717	855.296	37.576	OK
11-12-2024	08:45:19.859	855.438	7.500	7.500	27.500	938	0	1.0898	OK	11-12-2024	08:45:19.859	855.438	37.576	OK
11-12-2024	08:45:19.959	855.538	7.500	7.500	27.500	938	0	1.0898	OK	11-12-2024	08:45:19.959	855.538	37.576	OK
11-12-2024	08:45:20.060	855.639	7.499	7.499	27.495	938	0	1.0902	OK	11-12-2024	08:45:20.060	855.639	37.576	OK
11-12-2024	08:45:20.158	855.737	7.499	7.499	27.498	937	0	1.0900	OK	11-12-2024	08:45:20.158	855.737	37.576	OK
11-12-2024	08:45:20.259	855.838	7.500	7.500	27.499	938	0	1.0899	OK	11-12-2024	08:45:20.259	855.838	37.576	OK
11-12-2024	08:45:20.431	856.010	7.500	7.500	27.502	938	0	1.0897	OK	11-12-2024	08:45:20.431	856.010	37.576	OK
11-12-2024	08:45:20.693	856.272	7.500	7.500	27.501	938	0	1.0898	OK	11-12-2024	08:45:20.693	856.272	37.576	OK
11-12-2024	08:45:20.859	856.438	7.500	7.500	27.503	937	0	1.0897	OK	11-12-2024	08:45:20.859	856.438	37.576	OK
11-12-2024	08:45:20.959	856.538	7.500	7.500	27.499	937	0	1.0900	OK	11-12-2024	08:45:20.959	856.538	37.576	OK
11-12-2024	08:45:21.060	856.639	7.499	7.499	27.495	937	0	1.0902	OK	11-12-2024	08:45:21.060	856.639	37.576	OK
11-12-2024	08:45:21.161	856.740	7.498	7.498	27.490	937	0	1.0906	OK	11-12-2024	08:45:21.161	856.740	37.576	OK
11-12-2024	08:45:21.260	856.839	7.499	7.499	27.493	938	0	1.0904	OK	11-12-2024	08:45:21.260	856.839	37.576	OK
11-12-2024	08:45:21.429	857.008	7.500	7.500	27.500	937	0	1.0899	OK	11-12-2024	08:45:21.429	857.008	37.577	OK
11-12-2024	08:45:21.682	857.261	7.500	7.500	27.502	937	0	1.0897	OK	11-12-2024	08:45:21.682	857.261	37.577	OK
11-12-2024	08:45:21.860	857.439	7.500	7.500	27.499	938	0	1.0900	OK	11-12-2024	08:45:21.860	857.439	37.576	OK
11-12-2024	08:45:21.960	857.539	7.499	7.499	27.496	937	0	1.0902	OK	11-12-2024	08:45:21.960	857.539	37.575	OK
11-12-2024	08:45:22.060	857.639	7.499	7.499	27.498	938	0	1.0900	OK	11-12-2024	08:45:22.060	857.639	37.575	OK
11-12-2024	08:45:22.161	857.740	7.499	7.499	27.493	937	0	1.0904	OK	11-12-2024	08:45:22.161	857.740	37.575	OK
11-12-2024	08:45:22.261	857.840	7.499	7.499	27.495	937	0	1.0902	OK	11-12-2024	08:45:22.261	857.840	37.575	OK
11-12-2024	08:45:22.447	858.026	7.499	7.499	27.497	938	0	1.0901	OK	11-12-2024	08:45:22.447	858.026	37.576	OK
11-12-2024	08:45:22.704	858.283	7.500	7.500	27.500	938	0	1.0899	OK	11-12-2024	08:45:22.704	858.283	37.575	OK
11-12-2024	08:45:22.862	858.441	7.500	7.500	27.503	938	0	1.0897	OK	11-12-2024	08:45:22.862	858.441	37.575	OK
11-12-2024	08:45:22.962	858.541	7.500	7.500	27.501	937	0	1.0898	OK	11-12-2024	08:45:22.962	858.541	37.575	OK
11-12-2024	08:45:23.062	858.641	7.499	7.499	27.497	937	0	1.0901	OK	11-12-2024	08:45:23.062	858.641	37.575	OK
11-12-2024	08:45:23.164	858.743	7.499	7.499	27.492	937	0	1.0904	OK	11-12-2024	08:45:23.164	858.743	37.575	OK
11-12-2024	08:45:23.263	858.842	7.499	7.499	27.494	938	0	1.0903	OK	11-12-2024	08:45:23.263	858.842	37.574	OK
11-12-2024	08:45:23.434	859.013	7.499	7.499	27.498	937	0	1.0900	OK	11-12-2024	08:45:23.434	859.013	37.573	OK
11-12-2024	08:45:23.690	859.269	7.500	7.500	27.502	938	0	1.0897	OK	11-12-2024	08:45:23.690	859.269	37.573	OK
11-12-2024	08:45:23.862	859.441	7.500	7.500	27.503	938	0	1.0897	OK	11-12-2024	08:45:23.862	859.441	37.572	OK
11-12-2024	08:45:23.963	859.541	7.499	7.499	27.492	938	0	1.0904	OK	11-12-2024	08:45:23.963	859.541	37.572	OK
11-12-2024	08:45:24.063	859.642	7.499	7.499	27.496	938	0	1.0902	OK	11-12-2024	08:45:24.063	859.642	37.571	OK
11-12-2024	08:45:24.163	859.742	7.499	7.499	27.492	938	0	1.0904	OK	11-12-2024	08:45:24.163	859.742	37.571	OK
11-12-2024	08:45:24.263	859.842	7.499	7.499	27.494	938	0	1.0903	OK	11-12-2024	08:45:24.263	859.842	37.570	OK
11-12-2024	08:45:24.433	860.012	7.499	7.499	27.496	938	0	1.0902	OK	11-12-2024	08:45:24.433	860.012	37.569	OK
11-12-2024	08:45:24.688	860.267	7.500	7.500	27.502	938	0	1.0897	OK	11-12-2024	08:45:24.688	860.267	37.569	OK
11-12-2024	08:45:24.863	860.442	7.500	7.500	27.498	938	0	1.0900	OK	11-12-2024	08:45:24.863	860.442	37.568	OK
11-12-2024	08:45:24.963	860.542	7.499	7.499	27.496	938	0	1.0902	OK	11-12-2024	08:45:24.963	860.542	37.568	OK
11-12-2024	08:45:25.063	860.642	7.498	7.498	27.491	938	0	1.0905	OK	11-12-2024	08:45:25.063	860.642	37.569	OK
11-12-2024	08:45:25.164	860.743	7.498	7.498	27.489	938	0	1.0906	OK	11-12-2024	08:45:25.164	860.743	37.569	OK
11-12-2024	08:45:25.263	860.842	7.498	7.498	27.489	938	0	1.0906	OK	11-12-2024	08:45:25.263	860.842	37.570	OK
11-12-2024	08:45:25.434	861.013	7.499	7.499	27.494	938	0	1.0903	OK	11-12-2024	08:45:25.434	861.013	37.571	OK
11-12-2024	08:45:25.687	861.266	7.499	7.499	27.497	938	0	1.0900	OK	11-12-2024	08:45:25.687	861.266	37.571	OK
11-12-2024	08:45:25.866	861.445	7.499	7.499	27.496	938	0	1.0901	OK	11-12-2024	08:45:25.866	861.445	37.570	OK
11-12-2024	08:45:25.965	861.544	7.500	7.500	27.502	938	0	1.0897	OK	11-12-2024	08:45:25.965	861.544	37.570	OK
11-12-2024	08:45:26.065	861.644	7.499	7.499	27.494	937	0	1.0903	OK	11-12-2024	08:45:26.065	861.644	37.571	OK
11-12-2024	08:45:26.165	861.744	7.499	7.499	27.494	937	0	1.0903	OK	11-12-2024	08:45:26.165	861.744	37.571	OK
11-12-2024	08:45:26.266	861.844	7.499	7.499	27.492	937	0	1.0904	OK	11-12-2024	08:45:26.266	861.844	37.571	OK
11-12-2024	08:45:26.435	862.014	7.499	7.499	27.493	937	0	1.0903	OK	11-12-2024	08:45:26.435	862.014	37.571	OK
11-12-2024	08:45:26.689	862.268	7.500	7.500	27.499	938	0	1.0900	OK	11-12-2024	08:45:26.689	862.268	37.571	OK
11-12-2024	08:45:26.866	862.445	7.500	7.500	27.499	938	0	1.0900	OK	11-12-2024	08:45:26.866	862.445	37.572	OK
11-12-2024	08:45:26.967	862.546	7.500	7.500	27.499	938	0	1.0900	OK	11-12-2024	08:45:26.967	862.546	37.572	OK
11-12-2024	08:45:27.068	862.647	7.499	7.499	27.494	937	0	1.0903	OK	11-12-2024	08:45:27.068	862.647	37.572	OK
11-12-2024	08:45:27.267	862.846	7.499	7.499	27.498	938	0	1.0900	OK	11-12-2024	08:45:27.267	862.846	37.573	OK
11-12-2024	08:45:27.439	863.018	7.499	7.499	27.497	938	0	1.0901	OK	11-12-2024	08:45:27.439	863.018	37.576	OK
11-12-2024	08:45:27.692	863.271	7.500	7.500	27.503	937	0	1.0897	OK	11-12-2024	08:45:27.692	863.271	37.577	OK
11-12-2024	08:45:27.867	863.446	7.499	7.499	27.496	938	0	1.0902	OK	11-12-2024	08:45:27.867	863.446	37.577	OK
11-12-2024	08:45:27.968	863.547	7.500	7.500	27.504	937	0	1.0896	OK	11-12-2024	08:45:27.968	863.547	37.577	OK
11-12-2024	08:45:28.068	863.647	7.499	7.499	27.496	937	0	1.0902	OK	11-12-2024	08:45:28.068	863.647	37.576	OK
11-12-2024	08:45:28.168	863.747	7.500	7.500	27.501	937	0	1.0898	OK	11-12-2024	08:45:28.168	863.747	37.576	OK
11-12-2024	08:45:28.268	863.847	7.499	7.499	27.494	937	0	1.0903	OK	11-12-2024	08:45:28.268	863.847	37.576	OK
11-12-2024	08:45:28.439	864.018	7.500	7.500	27.502	938	0	1.0897	OK	11-12-2024	08:45:28.439	864.018	37.576	OK
11-12-2024	08:45:28.695	864.274	7.500	7.500	27.505	938	0	1.0895	OK	11-12-2024	08:45:28.695	864.274	37.576	OK
11-12-2024	08:45:28.869	864.448	7.500	7.500	27.504	938	0	1.0896	OK	11-12-2024	08:45:28.869	864.448	37.577	OK
11-12-2024	08:45:28.969	864.548	7.500	7.500	27.500	937	0	1.0899	OK	11-12-2024	08:45:28.969	864.548	37.577	OK
11-12-2024	08:45:29.070	864.648	7.499	7.499	27.499	938	0	1.0900	OK	11-12-2024	08:45:29.070	864.648	37.578	OK
11-12-2024	08:45:29.168	864.747	7.498	7.498	27.492	937	0	1.0904	OK	11-12-2024	08:45:29.168	864.747	37.578	OK
11-12-2024	08:45:29.271	864.850	7.498	7.498	27.492	937	0	1.0904	OK	11-12-2024	08:45:29.271	864.850	37.578	OK
11-12-2024	08:45:29.470	865.049	7.500	7.500	27.502	938	0	1.0897	OK	11-12-2024	08:45:29.470	865.049	37.579	OK
11-12-2024	08:45:29.730	865.309	7.500	7.500	27.501	938	0	1.0898	OK	11-12-2024	08:45:29.730	865.309	37.579	OK
11-12-2024	08:45:29.871	865.450	7.499	7.499	27.499	938	0	1.0900	OK	11-12-2024	08:45:29.871	865.450	37.579	OK
11-12-2024	08:45:29.971	865.550	7.499	7.499	27.499	938	0	1.0900	OK	11-12-2024	08:45:29.971	865.550	37.579	OK
11-12-2024	08:45:30.072	865.651	7.500	7.500	27.500	937	0	1.0899	OK	11-12-2024	08:45:30.072	865.651	37.579	OK
11-12-2024	08:45:30.172	865.751	7.499	7.499	27.496	938	0	1.0902	OK	11-12-2024	08:45:30.172	865.751	37.579	OK
11-12-2024	08:45:30.272	865.851	7.499	7.499	27.496	938	0	1.0902	OK	11-12-2024	08:45:30.272	865.851	37.579	OK
11-12-2024	08:45:30.440	866.019	7.499	7.499	27.498	938	0	1.0900	OK	11-12-2024	08:45:30.440	866.019	37.578	OK
11-12-2024	08:45:30.713	866.292	7.500	7.500	27.502	938	0	1.0897	OK	11-12-2024	08:45:30.713	866.292	37.576	OK
11-12-2024	08:45:30.874	866.453	7.500	7.500	27.502	938	0	1.0897	OK	11-12-2024	08:45:30.874	866.453	37.576	OK
11-12-2024	08:45:30.974	866.552	7.499	7.499	27.497	938	0	1.0901	OK	11-12-2024	08:45:30.974	866.552	37.575	OK
11-12-2024	08:45:31.074	866.653	7.499	7.499	27.496	938	0	1.0902	OK	11-12-2024	08:45:31.074	866.653	37.575	OK
11-12-2024	08:45:31.174	866.753	7.500	7.500	27.499	938	0	1.0900	OK	11-12-2024	08:45:31.174	866.753	37.576	OK
11-12-2024	08:45:31.274	866.853	7.499	7.499	27.493	938	0	1.0904	OK	11-12-2024	08:45:31.274	866.853	37.576	OK
11-12-2024	08:45:31.443	867.022	7.500	7.500	27.499	937	0	1.0900	OK	11-12-2024	08:45:31.443	867.022	37.576	OK
11-12-2024	08:45:31.699	867.278	7.500	7.500	27.500	938	0	1.0899	OK	11-12-2024	08:45:31.699	867.278	37.576	OK
11-12-2024	08:45:31.876	867.455	7.499	7.499	27.498	938	0	1.0900	OK	11-12-2024	08:45:31.876	867.455	37.576	OK
11-12-2024	08:45:31.976	867.555	7.499	7.499	27.497	938	0	1.0900	OK	11-12-2024	08:45:31.976	867.555	37.575	OK
11-12-2024	08:45:32.075	867.654	7.499	7.499	27.494	938	0	1.0903	OK	11-12-2024	08:45:32.075	867.654	37.575	OK
11-12-2024	08:45:32.177	867.756	7.498	7.498	27.490	938	0	1.0905	OK	11-12-2024	08:45:32.177	867.756	37.575	OK
11-12-2024	08:45:32.430	868.009	7.500	7.500	27.500	938	0	1.0898	OK	11-12-2024	08:45:32.430	868.009	37.574	OK
11-12-2024	08:45:32.705	868.284	7.500	7.500	27.501	938	0	1.0898	OK	11-12-2024	08:45:32.705	868.284	37.573	OK
11-12-2024	08:45:32.876	868.455	7.500	7.500	27.501	937	0	1.0898	OK	11-12-2024	08:45:32.876	868.455	37.574	OK
11-12-2024	08:45:32.976	868.555	7.499	7.499	27.498	938	0	1.0900	OK	11-12-2024	08:45:32.976	868.555	37.575	OK
11-12-2024	08:45:33.077	868.656	7.499	7.499	27.497	938	0	1.0901	OK	11-12-2024	08:45:33.077	868.656	37.575	OK
11-12-2024	08:45:33.176	868.755	7.499	7.499	27.494	937	0	1.0903	OK	11-12-2024	08:45:33.176	868.755	37.574	OK
11-12-2024	08:45:33.276	868.855	7.499	7.499	27.496	937	0	1.0902	OK	11-12-2024	08:45:33.276	868.855	37.574	OK
11-12-2024	08:45:33.447	869.025	7.500	7.500	27.499	937	0	1.0900	OK	11-12-2024	08:45:33.447	869.025	37.574	OK
11-12-2024	08:45:33.717	869.296	7.500	7.500	27.504	938	0	1.0896	OK	11-12-2024	08:45:33.717	869.296	37.575	OK
11-12-2024	08:45:33.877	869.456	7.499	7.499	27.496	937	0	1.0902	OK	11-12-2024	08:45:33.877	869.456	37.575	OK
11-12-2024	08:45:33.976	869.555	7.498	7.498	27.492	938	0	1.0904	OK	11-12-2024	08:45:33.976	869.555	37.576	OK
11-12-2024	08:45:34.077	869.656	7.498	7.498	27.490	937	0	1.0906	OK	11-12-2024	08:45:34.077	869.656	37.576	OK
11-12-2024	08:45:34.177	869.756	7.499	7.499	27.493	937	0	1.0904	OK	11-12-2024	08:45:34.177	869.756	37.575	OK
11-12-2024	08:45:34.277	869.855	7.499	7.499	27.493	938	0	1.0904	OK	11-12-2024	08:45:34.277	869.855	37.575	OK
11-12-2024	08:45:34.446	870.025	7.499	7.499	27.499	938	0	1.0900	OK	11-12-2024	08:45:34.446	870.025	37.577	OK
11-12-2024	08:45:34.702	870.281	7.500	7.500	27.503	938	0	1.0897	OK	11-12-2024	08:45:34.702	870.281	37.577	OK
11-12-2024	08:45:34.876	870.455	7.500	7.500	27.499	938	0	1.0899	OK	11-12-2024	08:45:34.876	870.455	37.578	OK
11-12-2024	08:45:34.976	870.555	7.499	7.499	27.495	938	0	1.0902	OK	11-12-2024	08:45:34.976	870.555	37.579	OK
11-12-2024	08:45:35.075	870.654	7.499	7.499	27.495	938	0	1.0902	OK	11-12-2024	08:45:35.075	870.654	37.579	OK
11-12-2024	08:45:35.176	870.755	7.499	7.499	27.493	938	0	1.0903	OK	11-12-2024	08:45:35.176	870.755	37.579	OK
11-12-2024	08:45:35.277	870.856	7.499	7.499	27.496	938	0	1.0901	OK	11-12-2024	08:45:35.277	870.856	37.579	OK
11-12-2024	08:45:35.562	871.141	7.500	7.500	27.499	938	0	1.0899	OK	11-12-2024	08:45:35.562	871.141	37.579	OK
11-12-2024	08:45:35.733	871.312	7.500	7.500	27.502	938	0	1.0897	OK	11-12-2024	08:45:35.733	871.312	37.579	OK
11-12-2024	08:45:35.879	871.458	7.500	7.500	27.502	937	0	1.0897	OK	11-12-2024	08:45:35.879	871.458	37.580	OK
11-12-2024	08:45:35.979	871.558	7.499	7.499	27.497	937	0	1.0901	OK	11-12-2024	08:45:35.979	871.558	37.578	OK
11-12-2024	08:45:36.079	871.658	7.498	7.498	27.491	937	0	1.0905	OK	11-12-2024	08:45:36.079	871.658	37.578	OK
11-12-2024	08:45:36.179	871.758	7.499	7.499	27.496	937	0	1.0902	OK	11-12-2024	08:45:36.179	871.758	37.578	OK
11-12-2024	08:45:36.280	871.858	7.499	7.499	27.493	937	0	1.0904	OK	11-12-2024	08:45:36.280	871.858	37.578	OK
11-12-2024	08:45:36.449	872.028	7.499	7.499	27.497	938	0	1.0901	OK	11-12-2024	08:45:36.449	872.028	37.579	OK
11-12-2024	08:45:36.704	872.283	7.500	7.500	27.500	938	0	1.0899	OK	11-12-2024	08:45:36.704	872.283	37.580	OK
11-12-2024	08:45:36.879	872.458	7.500	7.500	27.501	938	0	1.0898	OK	11-12-2024	08:45:36.879	872.458	37.580	OK
11-12-2024	08:45:36.979	872.558	7.499	7.499	27.498	938	0	1.0900	OK	11-12-2024	08:45:36.979	872.558	37.580	OK
11-12-2024	08:45:37.080	872.659	7.499	7.499	27.497	937	0	1.0900	OK	11-12-2024	08:45:37.080	872.659	37.580	OK
11-12-2024	08:45:37.179	872.757	7.499	7.499	27.496	938	0	1.0901	OK	11-12-2024	08:45:37.179	872.757	37.580	OK
11-12-2024	08:45:37.279	872.858	7.499	7.499	27.498	937	0	1.0900	OK	11-12-2024	08:45:37.279	872.858	37.580	OK
11-12-2024	08:45:37.448	873.027	7.499	7.499	27.498	937	0	1.0900	OK	11-12-2024	08:45:37.448	873.027	37.580	OK
11-12-2024	08:45:37.704	873.283	7.500	7.500	27.503	938	0	1.0896	OK	11-12-2024	08:45:37.704	873.283	37.579	OK
11-12-2024	08:45:37.879	873.458	7.500	7.500	27.503	937	0	1.0897	OK	11-12-2024	08:45:37.879	873.458	37.579	OK
11-12-2024	08:45:37.979	873.558	7.500	7.500	27.500	937	0	1.0899	OK	11-12-2024	08:45:37.979	873.558	37.579	OK
11-12-2024	08:45:38.079	873.658	7.499	7.499	27.497	937	0	1.0901	OK	11-12-2024	08:45:38.079	873.658	37.579	OK
11-12-2024	08:45:38.179	873.758	7.499	7.499	27.496	938	0	1.0902	OK	11-12-2024	08:45:38.179	873.758	37.579	OK
11-12-2024	08:45:38.280	873.859	7.499	7.499	27.497	937	0	1.0901	OK	11-12-2024	08:45:38.280	873.859	37.578	OK
11-12-2024	08:45:38.450	874.029	7.499	7.499	27.498	937	0	1.0900	OK	11-12-2024	08:45:38.450	874.029	37.577	OK
11-12-2024	08:45:38.723	874.302	7.500	7.500	27.504	938	0	1.0896	OK	11-12-2024	08:45:38.723	874.302	37.576	OK
11-12-2024	08:45:38.881	874.460	7.500	7.500	27.505	937	0	1.0895	OK	11-12-2024	08:45:38.881	874.460	37.577	OK
11-12-2024	08:45:38.981	874.560	7.499	7.499	27.498	938	0	1.0900	OK	11-12-2024	08:45:38.981	874.560	37.577	OK
11-12-2024	08:45:39.081	874.660	7.499	7.499	27.497	938	0	1.0900	OK	11-12-2024	08:45:39.081	874.660	37.576	OK
11-12-2024	08:45:39.181	874.760	7.498	7.498	27.491	937	0	1.0905	OK	11-12-2024	08:45:39.181	874.760	37.576	OK
11-12-2024	08:45:39.281	874.860	7.499	7.499	27.494	938	0	1.0903	OK	11-12-2024	08:45:39.281	874.860	37.577	OK
11-12-2024	08:45:39.450	875.029	7.500	7.500	27.500	938	0	1.0898	OK	11-12-2024	08:45:39.450	875.029	37.577	OK
11-12-2024	08:45:39.702	875.281	7.500	7.500	27.502	938	0	1.0897	OK	11-12-2024	08:45:39.702	875.281	37.575	OK
11-12-2024	08:45:39.880	875.459	7.500	7.500	27.502	938	0	1.0897	OK	11-12-2024	08:45:39.880	875.459	37.574	OK
11-12-2024	08:45:39.981	875.560	7.500	7.500	27.499	938	0	1.0900	OK	11-12-2024	08:45:39.981	875.560	37.574	OK
11-12-2024	08:45:40.081	875.660	7.499	7.499	27.498	937	0	1.0900	OK	11-12-2024	08:45:40.081	875.660	37.573	OK
11-12-2024	08:45:40.181	875.760	7.499	7.499	27.495	938	0	1.0902	OK	11-12-2024	08:45:40.181	875.760	37.573	OK
11-12-2024	08:45:40.281	875.860	7.499	7.499	27.495	938	0	1.0902	OK	11-12-2024	08:45:40.281	875.860	37.574	OK
11-12-2024	08:45:40.449	876.028	7.499	7.499	27.492	938	0	1.0904	OK	11-12-2024	08:45:40.449	876.028	37.575	OK
11-12-2024	08:45:40.702	876.281	7.499	7.499	27.498	938	0	1.0900	OK	11-12-2024	08:45:40.702	876.281	37.575	OK
11-12-2024	08:45:40.882	876.461	7.500	7.500	27.500	938	0	1.0898	OK	11-12-2024	08:45:40.882	876.461	37.575	OK
11-12-2024	08:45:40.982	876.561	7.499	7.499	27.494	938	0	1.0903	OK	11-12-2024	08:45:40.982	876.561	37.575	OK
11-12-2024	08:45:41.082	876.661	7.499	7.499	27.493	938	0	1.0903	OK	11-12-2024	08:45:41.082	876.661	37.575	OK
11-12-2024	08:45:41.183	876.762	7.500	7.500	27.501	938	0	1.0898	OK	11-12-2024	08:45:41.183	876.762	37.575	OK
11-12-2024	08:45:41.282	876.861	7.499	7.499	27.493	938	0	1.0903	OK	11-12-2024	08:45:41.282	876.861	37.576	OK
11-12-2024	08:45:41.450	877.029	7.499	7.499	27.492	938	0	1.0904	OK	11-12-2024	08:45:41.450	877.029	37.576	OK
11-12-2024	08:45:41.705	877.284	7.500	7.500	27.502	938	0	1.0897	OK	11-12-2024	08:45:41.705	877.284	37.576	OK
11-12-2024	08:45:41.883	877.462	7.499	7.499	27.498	938	0	1.0900	OK	11-12-2024	08:45:41.883	877.462	37.577	OK
11-12-2024	08:45:41.983	877.562	7.499	7.499	27.495	938	0	1.0902	OK	11-12-2024	08:45:41.983	877.562	37.577	OK
11-12-2024	08:45:42.083	877.662	7.499	7.499	27.496	938	0	1.0902	OK	11-12-2024	08:45:42.083	877.662	37.576	OK
11-12-2024	08:45:42.183	877.762	7.498	7.498	27.492	938	0	1.0904	OK	11-12-2024	08:45:42.183	877.762	37.576	OK
11-12-2024	08:45:42.282	877.861	7.499	7.499	27.493	938	0	1.0904	OK	11-12-2024	08:45:42.282	877.861	37.577	OK
11-12-2024	08:45:42.452	878.031	7.499	7.499	27.495	938	0	1.0902	OK	11-12-2024	08:45:42.452	878.031	37.577	OK
11-12-2024	08:45:42.708	878.287	7.499	7.499	27.499	938	0	1.0900	OK	11-12-2024	08:45:42.708	878.287	37.577	OK
11-12-2024	08:45:42.884	878.463	7.499	7.499	27.497	938	0	1.0901	OK	11-12-2024	08:45:42.884	878.463	37.577	OK
11-12-2024	08:45:42.984	878.563	7.499	7.499	27.497	938	0	1.0900	OK	11-12-2024	08:45:42.984	878.563	37.577	OK
11-12-2024	08:45:43.084	878.663	7.499	7.499	27.497	938	0	1.0900	OK	11-12-2024	08:45:43.084	878.663	37.578	OK
11-12-2024	08:45:43.183	878.762	7.499	7.499	27.493	938	0	1.0903	OK	11-12-2024	08:45:43.183	878.762	37.578	OK
11-12-2024	08:45:43.286	878.865	7.499	7.499	27.493	938	0	1.0903	OK	11-12-2024	08:45:43.286	878.865	37.579	OK
11-12-2024	08:45:43.473	879.052	7.499	7.499	27.496	938	0	1.0901	OK	11-12-2024	08:45:43.473	879.052	37.579	OK
11-12-2024	08:45:43.730	879.309	7.500	7.500	27.500	938	0	1.0898	OK	11-12-2024	08:45:43.730	879.309	37.578	OK
11-12-2024	08:45:43.886	879.465	7.499	7.499	27.498	938	0	1.0900	OK	11-12-2024	08:45:43.886	879.465	37.578	OK
11-12-2024	08:45:43.986	879.565	7.499	7.499	27.497	938	0	1.0901	OK	11-12-2024	08:45:43.986	879.565	37.578	OK
11-12-2024	08:45:44.086	879.665	7.499	7.499	27.495	938	0	1.0902	OK	11-12-2024	08:45:44.086	879.665	37.578	OK
11-12-2024	08:45:44.186	879.765	7.499	7.499	27.496	938	0	1.0902	OK	11-12-2024	08:45:44.186	879.765	37.578	OK
11-12-2024	08:45:44.286	879.865	7.498	7.498	27.491	938	0	1.0905	OK	11-12-2024	08:45:44.286	879.865	37.578	OK
11-12-2024	08:45:44.474	880.053	7.499	7.499	27.496	938	0	1.0902	OK	11-12-2024	08:45:44.474	880.053	37.578	OK
11-12-2024	08:45:44.731	880.310	7.500	7.500	27.500	938	0	1.0899	OK	11-12-2024	08:45:44.731	880.310	37.577	OK
11-12-2024	08:45:44.887	880.466	7.500	7.500	27.501	938	0	1.0898	OK	11-12-2024	08:45:44.887	880.466	37.577	OK
11-12-2024	08:45:44.986	880.565	7.499	7.499	27.495	938	0	1.0902	OK	11-12-2024	08:45:44.986	880.565	37.577	OK
11-12-2024	08:45:45.087	880.666	7.500	7.500	27.499	937	0	1.0899	OK	11-12-2024	08:45:45.087	880.666	37.577	OK
11-12-2024	08:45:45.187	880.766	7.499	7.499	27.496	938	0	1.0901	OK	11-12-2024	08:45:45.187	880.766	37.577	OK
11-12-2024	08:45:45.287	880.866	7.499	7.499	27.494	938	0	1.0903	OK	11-12-2024	08:45:45.287	880.866	37.576	OK
11-12-2024	08:45:45.458	881.037	7.499	7.499	27.494	938	0	1.0903	OK	11-12-2024	08:45:45.458	881.037	37.576	OK
11-12-2024	08:45:45.732	881.311	7.500	7.500	27.499	938	0	1.0899	OK	11-12-2024	08:45:45.732	881.311	37.577	OK
11-12-2024	08:45:45.887	881.466	7.499	7.499	27.497	938	0	1.0900	OK	11-12-2024	08:45:45.887	881.466	37.577	OK
11-12-2024	08:45:45.986	881.565	7.500	7.500	27.499	938	0	1.0899	OK	11-12-2024	08:45:45.986	881.565	37.577	OK
11-12-2024	08:45:46.087	881.666	7.499	7.499	27.496	938	0	1.0901	OK	11-12-2024	08:45:46.087	881.666	37.577	OK
11-12-2024	08:45:46.189	881.768	7.499	7.499	27.495	938	0	1.0902	OK	11-12-2024	08:45:46.189	881.768	37.577	OK
11-12-2024	08:45:46.289	881.868	7.499	7.499	27.493	938	0	1.0903	OK	11-12-2024	08:45:46.289	881.868	37.577	OK
11-12-2024	08:45:46.461	882.040	7.500	7.500	27.500	937	0	1.0898	OK	11-12-2024	08:45:46.461	882.040	37.577	OK
11-12-2024	08:45:46.734	882.313	7.500	7.500	27.502	938	0	1.0897	OK	11-12-2024	08:45:46.734	882.313	37.577	OK
11-12-2024	08:45:46.887	882.466	7.499	7.499	27.497	938	0	1.0900	OK	11-12-2024	08:45:46.887	882.466	37.577	OK
11-12-2024	08:45:46.987	882.566	7.500	7.500	27.500	938	0	1.0898	OK	11-12-2024	08:45:46.987	882.566	37.577	OK
11-12-2024	08:45:47.087	882.666	7.499	7.499	27.497	938	0	1.0900	OK	11-12-2024	08:45:47.087	882.666	37.577	OK
11-12-2024	08:45:47.187	882.766	7.499	7.499	27.495	938	0	1.0902	OK	11-12-2024	08:45:47.187	882.766	37.577	OK
11-12-2024	08:45:47.287	882.866	7.499	7.499	27.494	938	0	1.0903	OK	11-12-2024	08:45:47.287	882.866	37.577	OK
11-12-2024	08:45:47.476	883.055	7.500	7.500	27.501	938	0	1.0898	OK	11-12-2024	08:45:47.476	883.055	37.578	OK
11-12-2024	08:45:47.730	883.309	7.500	7.500	27.502	938	0	1.0897	OK	11-12-2024	08:45:47.730	883.309	37.577	OK
11-12-2024	08:45:47.887	883.466	7.499	7.499	27.498	937	0	1.0900	OK	11-12-2024	08:45:47.887	883.466	37.577	OK
11-12-2024	08:45:47.988	883.566	7.499	7.499	27.496	937	0	1.0901	OK	11-12-2024	08:45:47.988	883.566	37.578	OK
11-12-2024	08:45:48.087	883.666	7.499	7.499	27.493	938	0	1.0903	OK	11-12-2024	08:45:48.087	883.666	37.578	OK
11-12-2024	08:45:48.187	883.766	7.499	7.499	27.497	938	0	1.0900	OK	11-12-2024	08:45:48.187	883.766	37.577	OK
11-12-2024	08:45:48.287	883.866	7.499	7.499	27.494	938	0	1.0903	OK	11-12-2024	08:45:48.287	883.866	37.577	OK
11-12-2024	08:45:48.459	884.038	7.499	7.499	27.495	938	0	1.0902	OK	11-12-2024	08:45:48.459	884.038	37.577	OK
11-12-2024	08:45:48.713	884.292	7.499	7.499	27.498	938	0	1.0900	OK	11-12-2024	08:45:48.713	884.292	37.577	OK
11-12-2024	08:45:48.888	884.467	7.500	7.500	27.501	938	0	1.0898	OK	11-12-2024	08:45:48.888	884.467	37.577	OK
11-12-2024	08:45:48.989	884.568	7.499	7.499	27.496	938	0	1.0901	OK	11-12-2024	08:45:48.989	884.568	37.578	OK
11-12-2024	08:45:49.189	884.768	7.499	7.499	27.497	938	0	1.0900	OK	11-12-2024	08:45:49.189	884.768	37.577	OK
11-12-2024	08:45:49.290	884.869	7.499	7.499	27.493	938	0	1.0903	OK	11-12-2024	08:45:49.290	884.869	37.577	OK
11-12-2024	08:45:49.645	885.224	7.500	7.500	27.500	938	0	1.0898	OK	11-12-2024	08:45:49.645	885.224	37.577	OK
11-12-2024	08:45:49.790	885.369	7.500	7.500	27.499	938	0	1.0899	OK	11-12-2024	08:45:49.790	885.369	37.576	OK
11-12-2024	08:45:49.896	885.475	7.499	7.499	27.495	938	0	1.0902	OK	11-12-2024	08:45:49.896	885.475	37.576	OK
11-12-2024	08:45:49.992	885.571	7.498	7.498	27.491	938	0	1.0905	OK	11-12-2024	08:45:49.992	885.571	37.577	OK
11-12-2024	08:45:50.092	885.671	7.499	7.499	27.496	938	0	1.0901	OK	11-12-2024	08:45:50.092	885.671	37.577	OK
11-12-2024	08:45:50.192	885.771	7.499	7.499	27.496	937	0	1.0901	OK	11-12-2024	08:45:50.192	885.771	37.576	OK
11-12-2024	08:45:50.293	885.872	7.499	7.499	27.495	937	0	1.0902	OK	11-12-2024	08:45:50.293	885.872	37.576	OK
11-12-2024	08:45:50.465	886.044	7.499	7.499	27.496	938	0	1.0901	OK	11-12-2024	08:45:50.465	886.044	37.576	OK
11-12-2024	08:45:50.719	886.298	7.500	7.500	27.504	938	0	1.0896	OK	11-12-2024	08:45:50.719	886.298	37.577	OK
11-12-2024	08:45:50.896	886.475	7.500	7.500	27.501	938	0	1.0898	OK	11-12-2024	08:45:50.896	886.475	37.577	OK
11-12-2024	08:45:50.997	886.576	7.500	7.500	27.499	937	0	1.0899	OK	11-12-2024	08:45:50.997	886.576	37.577	OK
11-12-2024	08:45:51.097	886.675	7.500	7.500	27.499	937	0	1.0899	OK	11-12-2024	08:45:51.097	886.675	37.577	OK
11-12-2024	08:45:51.197	886.776	7.498	7.498	27.491	938	0	1.0905	OK	11-12-2024	08:45:51.197	886.776	37.577	OK
11-12-2024	08:45:51.297	886.876	7.499	7.499	27.496	937	0	1.0901	OK	11-12-2024	08:45:51.297	886.876	37.577	OK
11-12-2024	08:45:51.469	887.048	7.500	7.500	27.499	937	0	1.0899	OK	11-12-2024	08:45:51.469	887.048	37.577	OK
11-12-2024	08:45:51.725	887.303	7.500	7.500	27.499	937	0	1.0899	OK	11-12-2024	08:45:51.725	887.303	37.577	OK
11-12-2024	08:45:51.899	887.478	7.500	7.500	27.503	937	0	1.0896	OK	11-12-2024	08:45:51.899	887.478	37.577	OK
11-12-2024	08:45:52.000	887.579	7.499	7.499	27.496	937	0	1.0901	OK	11-12-2024	08:45:52.000	887.579	37.578	OK
11-12-2024	08:45:52.200	887.779	7.500	7.500	27.500	938	0	1.0898	OK	11-12-2024	08:45:52.200	887.779	37.578	OK
11-12-2024	08:45:52.300	887.879	7.499	7.499	27.497	937	0	1.0900	OK	11-12-2024	08:45:52.300	887.879	37.578	OK
11-12-2024	08:45:52.468	888.047	7.500	7.500	27.501	937	0	1.0898	OK	11-12-2024	08:45:52.468	888.047	37.579	OK
11-12-2024	08:45:52.738	888.317	7.500	7.500	27.503	937	0	1.0896	OK	11-12-2024	08:45:52.738	888.317	37.579	OK
11-12-2024	08:45:52.901	888.480	7.501	7.501	27.507	937	0	1.0894	OK	11-12-2024	08:45:52.901	888.480	37.578	OK
11-12-2024	08:45:53.002	888.581	7.500	7.500	27.500	937	0	1.0898	OK	11-12-2024	08:45:53.002	888.581	37.578	OK
11-12-2024	08:45:53.103	888.682	7.499	7.499	27.498	938	0	1.0900	OK	11-12-2024	08:45:53.103	888.682	37.578	OK
11-12-2024	08:45:53.203	888.782	7.499	7.499	27.498	937	0	1.0900	OK	11-12-2024	08:45:53.203	888.782	37.578	OK
11-12-2024	08:45:53.441	889.020	7.500	7.500	27.503	937	0	1.0896	OK	11-12-2024	08:45:53.441	889.020	37.578	OK
11-12-2024	08:45:53.694	889.273	7.501	7.501	27.508	937	0	1.0893	OK	11-12-2024	08:45:53.694	889.273	37.577	OK
11-12-2024	08:45:53.804	889.383	7.500	7.500	27.500	938	0	1.0898	OK	11-12-2024	08:45:53.804	889.383	37.577	OK
11-12-2024	08:45:53.905	889.484	7.499	7.499	27.498	938	0	1.0900	OK	11-12-2024	08:45:53.905	889.484	37.577	OK
11-12-2024	08:45:54.004	889.583	7.499	7.499	27.496	937	0	1.0901	OK	11-12-2024	08:45:54.004	889.583	37.577	OK
11-12-2024	08:45:54.104	889.683	7.499	7.499	27.495	937	0	1.0902	OK	11-12-2024	08:45:54.104	889.683	37.577	OK
11-12-2024	08:45:54.205	889.784	7.499	7.499	27.496	937	0	1.0901	OK	11-12-2024	08:45:54.205	889.784	37.577	OK
11-12-2024	08:45:54.305	889.884	7.499	7.499	27.494	937	0	1.0903	OK	11-12-2024	08:45:54.305	889.884	37.577	OK
11-12-2024	08:45:54.476	890.054	7.500	7.500	27.501	937	0	1.0898	OK	11-12-2024	08:45:54.476	890.054	37.577	OK
11-12-2024	08:45:54.733	890.312	7.500	7.500	27.505	937	0	1.0895	OK	11-12-2024	08:45:54.733	890.312	37.576	OK
11-12-2024	08:45:54.905	890.484	7.500	7.500	27.502	937	0	1.0897	OK	11-12-2024	08:45:54.905	890.484	37.576	OK
11-12-2024	08:45:55.006	890.585	7.500	7.500	27.500	937	0	1.0898	OK	11-12-2024	08:45:55.006	890.585	37.576	OK
11-12-2024	08:45:55.106	890.685	7.500	7.500	27.504	937	0	1.0896	OK	11-12-2024	08:45:55.106	890.685	37.575	OK
11-12-2024	08:45:55.205	890.784	7.499	7.499	27.493	938	0	1.0903	OK	11-12-2024	08:45:55.205	890.784	37.575	OK
11-12-2024	08:45:55.306	890.885	7.500	7.500	27.498	937	0	1.0900	OK	11-12-2024	08:45:55.306	890.885	37.574	OK
11-12-2024	08:45:55.478	891.057	7.500	7.500	27.499	938	0	1.0899	OK	11-12-2024	08:45:55.478	891.057	37.572	OK
11-12-2024	08:45:55.748	891.327	7.500	7.500	27.504	938	0	1.0896	OK	11-12-2024	08:45:55.748	891.327	37.572	OK
11-12-2024	08:45:55.906	891.485	7.500	7.500	27.500	937	0	1.0898	OK	11-12-2024	08:45:55.906	891.485	37.573	OK
11-12-2024	08:45:56.006	891.585	7.499	7.499	27.495	938	0	1.0902	OK	11-12-2024	08:45:56.006	891.585	37.573	OK
11-12-2024	08:45:56.106	891.685	7.499	7.499	27.493	937	0	1.0903	OK	11-12-2024	08:45:56.106	891.685	37.573	OK
11-12-2024	08:45:56.208	891.787	7.499	7.499	27.493	937	0	1.0903	OK	11-12-2024	08:45:56.208	891.787	37.573	OK
11-12-2024	08:45:56.306	891.885	7.499	7.499	27.492	937	0	1.0904	OK	11-12-2024	08:45:56.306	891.885	37.573	OK
11-12-2024	08:45:56.480	892.059	7.500	7.500	27.500	937	0	1.0898	OK	11-12-2024	08:45:56.480	892.059	37.573	OK
11-12-2024	08:45:56.749	892.328	7.499	7.499	27.496	938	0	1.0901	OK	11-12-2024	08:45:56.749	892.328	37.573	OK
11-12-2024	08:45:56.907	892.485	7.499	7.499	27.496	938	0	1.0901	OK	11-12-2024	08:45:56.907	892.485	37.574	OK
11-12-2024	08:45:57.006	892.585	7.500	7.500	27.502	938	0	1.0897	OK	11-12-2024	08:45:57.006	892.585	37.574	OK
11-12-2024	08:45:57.107	892.686	7.499	7.499	27.496	937	0	1.0901	OK	11-12-2024	08:45:57.107	892.686	37.573	OK
11-12-2024	08:45:57.206	892.785	7.499	7.499	27.492	937	0	1.0904	OK	11-12-2024	08:45:57.206	892.785	37.573	OK
11-12-2024	08:45:57.307	892.886	7.498	7.498	27.489	937	0	1.0906	OK	11-12-2024	08:45:57.307	892.886	37.573	OK
11-12-2024	08:45:57.476	893.055	7.500	7.500	27.501	938	0	1.0898	OK	11-12-2024	08:45:57.476	893.055	37.573	OK
11-12-2024	08:45:57.730	893.309	7.500	7.500	27.498	938	0	1.0900	OK	11-12-2024	08:45:57.730	893.309	37.573	OK
11-12-2024	08:45:57.907	893.486	7.499	7.499	27.493	938	0	1.0903	OK	11-12-2024	08:45:57.907	893.486	37.573	OK
11-12-2024	08:45:58.006	893.585	7.499	7.499	27.495	937	0	1.0902	OK	11-12-2024	08:45:58.006	893.585	37.573	OK
11-12-2024	08:45:58.107	893.686	7.499	7.499	27.496	937	0	1.0901	OK	11-12-2024	08:45:58.107	893.686	37.574	OK
11-12-2024	08:45:58.207	893.786	7.498	7.498	27.491	937	0	1.0905	OK	11-12-2024	08:45:58.207	893.786	37.574	OK
11-12-2024	08:45:58.307	893.886	7.499	7.499	27.493	937	0	1.0903	OK	11-12-2024	08:45:58.307	893.886	37.573	OK
11-12-2024	08:45:58.478	894.057	7.499	7.499	27.497	938	0	1.0900	OK	11-12-2024	08:45:58.478	894.057	37.574	OK
11-12-2024	08:45:58.731	894.310	7.499	7.499	27.496	938	0	1.0901	OK	11-12-2024	08:45:58.731	894.310	37.575	OK
11-12-2024	08:45:58.907	894.486	7.500	7.500	27.503	938	0	1.0896	OK	11-12-2024	08:45:58.907	894.486	37.574	OK
11-12-2024	08:45:59.006	894.585	7.499	7.499	27.497	938	0	1.0900	OK	11-12-2024	08:45:59.006	894.585	37.574	OK
11-12-2024	08:45:59.107	894.686	7.499	7.499	27.496	938	0	1.0901	OK	11-12-2024	08:45:59.107	894.686	37.573	OK
11-12-2024	08:45:59.208	894.787	7.499	7.499	27.494	938	0	1.0903	OK	11-12-2024	08:45:59.208	894.787	37.573	OK
11-12-2024	08:45:59.309	894.888	7.499	7.499	27.495	937	0	1.0902	OK	11-12-2024	08:45:59.309	894.888	37.572	OK
11-12-2024	08:45:59.480	895.059	7.499	7.499	27.497	938	0	1.0900	OK	11-12-2024	08:45:59.480	895.059	37.572	OK
11-12-2024	08:45:59.754	895.333	7.500	7.500	27.501	937	0	1.0898	OK	11-12-2024	08:45:59.754	895.333	37.572	OK
11-12-2024	08:45:59.911	895.490	7.500	7.500	27.498	937	0	1.0900	OK	11-12-2024	08:45:59.911	895.490	37.573	OK
11-12-2024	08:46:00.011	895.590	7.499	7.499	27.496	937	0	1.0901	OK	11-12-2024	08:46:00.011	895.590	37.573	OK
11-12-2024	08:46:00.111	895.690	7.499	7.499	27.496	937	0	1.0901	OK	11-12-2024	08:46:00.111	895.690	37.572	OK
11-12-2024	08:46:00.212	895.791	7.499	7.499	27.494	937	0	1.0902	OK	11-12-2024	08:46:00.212	895.791	37.572	OK
11-12-2024	08:46:00.312	895.891	7.499	7.499	27.493	937	0	1.0903	OK	11-12-2024	08:46:00.312	895.891	37.572	OK
11-12-2024	08:46:00.485	896.064	7.500	7.500	27.502	937	0	1.0896	OK	11-12-2024	08:46:00.485	896.064	37.572	OK
11-12-2024	08:46:00.740	896.319	7.500	7.500	27.501	937	0	1.0897	OK	11-12-2024	08:46:00.740	896.319	37.573	OK
11-12-2024	08:46:00.912	896.491	7.500	7.500	27.501	937	0	1.0897	OK	11-12-2024	08:46:00.912	896.491	37.573	OK
11-12-2024	08:46:01.012	896.591	7.501	7.501	27.505	937	0	1.0894	OK	11-12-2024	08:46:01.012	896.591	37.573	OK
11-12-2024	08:46:01.112	896.691	7.499	7.499	27.497	937	0	1.0900	OK	11-12-2024	08:46:01.112	896.691	37.573	OK
11-12-2024	08:46:01.212	896.791	7.499	7.499	27.497	937	0	1.0900	OK	11-12-2024	08:46:01.212	896.791	37.573	OK
11-12-2024	08:46:01.311	896.890	7.499	7.499	27.493	937	0	1.0903	OK	11-12-2024	08:46:01.311	896.890	37.572	OK
11-12-2024	08:46:01.481	897.060	7.500	7.500	27.498	937	0	1.0900	OK	11-12-2024	08:46:01.481	897.060	37.572	OK
11-12-2024	08:46:01.736	897.315	7.500	7.500	27.503	937	0	1.0896	OK	11-12-2024	08:46:01.736	897.315	37.572	OK
11-12-2024	08:46:01.912	897.491	7.500	7.500	27.502	937	0	1.0897	OK	11-12-2024	08:46:01.912	897.491	37.572	OK
11-12-2024	08:46:02.012	897.591	7.500	7.500	27.499	937	0	1.0899	OK	11-12-2024	08:46:02.012	897.591	37.573	OK
11-12-2024	08:46:02.112	897.691	7.499	7.499	27.496	937	0	1.0901	OK	11-12-2024	08:46:02.112	897.691	37.573	OK
11-12-2024	08:46:02.212	897.791	7.500	7.500	27.497	937	0	1.0900	OK	11-12-2024	08:46:02.212	897.791	37.572	OK
11-12-2024	08:46:02.312	897.891	7.499	7.499	27.493	937	0	1.0903	OK	11-12-2024	08:46:02.312	897.891	37.572	OK
11-12-2024	08:46:02.499	898.078	7.499	7.499	27.496	937	0	1.0901	OK	11-12-2024	08:46:02.499	898.078	37.573	OK
11-12-2024	08:46:02.769	898.348	7.501	7.501	27.506	937	0	1.0894	OK	11-12-2024	08:46:02.769	898.348	37.573	OK
11-12-2024	08:46:02.913	898.492	7.500	7.500	27.501	937	0	1.0897	OK	11-12-2024	08:46:02.913	898.492	37.573	OK
11-12-2024	08:46:03.013	898.592	7.499	7.499	27.497	937	0	1.0900	OK	11-12-2024	08:46:03.013	898.592	37.573	OK
11-12-2024	08:46:03.113	898.692	7.499	7.499	27.497	937	0	1.0900	OK	11-12-2024	08:46:03.113	898.692	37.573	OK
11-12-2024	08:46:03.214	898.793	7.499	7.499	27.493	937	0	1.0903	OK	11-12-2024	08:46:03.214	898.793	37.573	OK
11-12-2024	08:46:03.314	898.893	7.500	7.500	27.498	937	0	1.0899	OK	11-12-2024	08:46:03.314	898.893	37.573	OK
11-12-2024	08:46:03.485	899.064	7.500	7.500	27.499	937	0	1.0899	OK	11-12-2024	08:46:03.485	899.064	37.573	OK
11-12-2024	08:46:03.773	899.352	7.500	7.500	27.503	937	0	1.0896	OK	11-12-2024	08:46:03.773	899.352	37.574	OK
11-12-2024	08:46:03.914	899.493	7.500	7.500	27.501	937	0	1.0897	OK	11-12-2024	08:46:03.914	899.493	37.574	OK
11-12-2024	08:46:04.015	899.594	7.500	7.500	27.498	937	0	1.0899	OK	11-12-2024	08:46:04.015	899.594	37.573	OK
11-12-2024	08:46:04.116	899.695	7.499	7.499	27.494	937	0	1.0902	OK	11-12-2024	08:46:04.116	899.695	37.573	OK
11-12-2024	08:46:04.216	899.795	7.499	7.499	27.495	937	0	1.0901	OK	11-12-2024	08:46:04.216	899.795	37.574	OK
11-12-2024	08:46:04.316	899.895	7.499	7.499	27.494	937	0	1.0903	OK	11-12-2024	08:46:04.316	899.895	37.574	OK
11-12-2024	08:46:04.486	900.065	7.500	7.500	27.500	937	0	1.0898	OK	11-12-2024	08:46:04.486	900.065	37.573	OK
11-12-2024	08:46:04.740	900.318	7.501	7.501	27.505	937	0	1.0895	OK	11-12-2024	08:46:04.740	900.318	37.573	OK
11-12-2024	08:46:04.915	900.494	7.500	7.500	27.501	937	0	1.0898	OK	11-12-2024	08:46:04.915	900.494	37.575	OK
11-12-2024	08:46:05.017	900.596	7.500	7.500	27.501	937	0	1.0898	OK	11-12-2024	08:46:05.017	900.596	37.574	OK
11-12-2024	08:46:05.218	900.797	7.500	7.500	27.500	937	0	1.0898	OK	11-12-2024	08:46:05.218	900.797	37.574	OK
11-12-2024	08:46:05.318	900.897	7.500	7.500	27.499	937	0	1.0899	OK	11-12-2024	08:46:05.318	900.897	37.574	OK
11-12-2024	08:46:05.486	901.065	7.501	7.501	27.505	938	0	1.0894	OK	11-12-2024	08:46:05.486	901.065	37.575	OK
11-12-2024	08:46:05.742	901.321	7.501	7.501	27.505	938	0	1.0894	OK	11-12-2024	08:46:05.742	901.321	37.576	OK
11-12-2024	08:46:05.919	901.498	7.500	7.500	27.503	937	0	1.0896	OK	11-12-2024	08:46:05.919	901.498	37.577	OK
11-12-2024	08:46:06.020	901.599	7.500	7.500	27.500	937	0	1.0898	OK	11-12-2024	08:46:06.020	901.599	37.577	OK
11-12-2024	08:46:06.122	901.701	7.500	7.500	27.501	937	0	1.0897	OK	11-12-2024	08:46:06.122	901.701	37.577	OK
11-12-2024	08:46:06.221	901.800	7.499	7.499	27.496	937	0	1.0901	OK	11-12-2024	08:46:06.221	901.800	37.577	OK
11-12-2024	08:46:06.322	901.901	7.499	7.499	27.498	937	0	1.0900	OK	11-12-2024	08:46:06.322	901.901	37.577	OK
11-12-2024	08:46:06.493	902.072	7.500	7.500	27.502	938	0	1.0897	OK	11-12-2024	08:46:06.493	902.072	37.577	OK
11-12-2024	08:46:06.757	902.336	7.500	7.500	27.502	937	0	1.0897	OK	11-12-2024	08:46:06.757	902.336	37.577	OK
11-12-2024	08:46:06.922	902.501	7.500	7.500	27.503	938	0	1.0896	OK	11-12-2024	08:46:06.922	902.501	37.577	OK
11-12-2024	08:46:07.022	902.601	7.499	7.499	27.498	938	0	1.0900	OK	11-12-2024	08:46:07.022	902.601	37.577	OK
11-12-2024	08:46:07.122	902.701	7.499	7.499	27.497	938	0	1.0900	OK	11-12-2024	08:46:07.122	902.701	37.577	OK
11-12-2024	08:46:07.222	902.801	7.500	7.500	27.500	937	0	1.0898	OK	11-12-2024	08:46:07.222	902.801	37.577	OK
11-12-2024	08:46:07.322	902.901	7.499	7.499	27.495	937	0	1.0901	OK	11-12-2024	08:46:07.322	902.901	37.577	OK
11-12-2024	08:46:07.494	903.073	7.500	7.500	27.502	937	0	1.0896	OK	11-12-2024	08:46:07.494	903.073	37.577	OK
11-12-2024	08:46:07.756	903.335	7.501	7.501	27.506	937	0	1.0894	OK	11-12-2024	08:46:07.756	903.335	37.576	OK
11-12-2024	08:46:07.923	903.502	7.501	7.501	27.505	937	0	1.0894	OK	11-12-2024	08:46:07.923	903.502	37.576	OK
11-12-2024	08:46:08.025	903.604	7.501	7.501	27.505	937	0	1.0894	OK	11-12-2024	08:46:08.025	903.604	37.576	OK
11-12-2024	08:46:08.125	903.704	7.500	7.500	27.502	937	0	1.0896	OK	11-12-2024	08:46:08.125	903.704	37.576	OK
11-12-2024	08:46:08.225	903.804	7.500	7.500	27.499	937	0	1.0899	OK	11-12-2024	08:46:08.225	903.804	37.576	OK
11-12-2024	08:46:08.325	903.904	7.500	7.500	27.500	937	0	1.0898	OK	11-12-2024	08:46:08.325	903.904	37.576	OK
11-12-2024	08:46:08.494	904.073	7.499	7.499	27.497	937	0	1.0900	OK	11-12-2024	08:46:08.494	904.073	37.576	OK
11-12-2024	08:46:08.756	904.335	7.500	7.500	27.503	937	0	1.0896	OK	11-12-2024	08:46:08.756	904.335	37.575	OK
11-12-2024	08:46:08.926	904.505	7.501	7.501	27.507	937	0	1.0893	OK	11-12-2024	08:46:08.926	904.505	37.575	OK
11-12-2024	08:46:09.026	904.605	7.500	7.500	27.502	937	0	1.0896	OK	11-12-2024	08:46:09.026	904.605	37.576	OK
11-12-2024	08:46:09.126	904.705	7.500	7.500	27.500	937	0	1.0898	OK	11-12-2024	08:46:09.126	904.705	37.576	OK
11-12-2024	08:46:09.229	904.808	7.500	7.500	27.498	937	0	1.0899	OK	11-12-2024	08:46:09.229	904.808	37.577	OK
11-12-2024	08:46:09.327	904.906	7.499	7.499	27.496	938	0	1.0901	OK	11-12-2024	08:46:09.327	904.906	37.577	OK
11-12-2024	08:46:09.500	905.079	7.500	7.500	27.502	937	0	1.0897	OK	11-12-2024	08:46:09.500	905.079	37.577	OK
11-12-2024	08:46:09.774	905.353	7.500	7.500	27.504	938	0	1.0896	OK	11-12-2024	08:46:09.774	905.353	37.577	OK
11-12-2024	08:46:09.927	905.506	7.500	7.500	27.501	937	0	1.0898	OK	11-12-2024	08:46:09.927	905.506	37.578	OK
11-12-2024	08:46:10.028	905.607	7.500	7.500	27.501	937	0	1.0898	OK	11-12-2024	08:46:10.028	905.607	37.578	OK
11-12-2024	08:46:10.129	905.708	7.499	7.499	27.498	937	0	1.0900	OK	11-12-2024	08:46:10.129	905.708	37.578	OK
11-12-2024	08:46:10.229	905.808	7.499	7.499	27.494	937	0	1.0903	OK	11-12-2024	08:46:10.229	905.808	37.578	OK
11-12-2024	08:46:10.329	905.908	7.499	7.499	27.496	937	0	1.0901	OK	11-12-2024	08:46:10.329	905.908	37.580	OK
11-12-2024	08:46:10.502	906.081	7.499	7.499	27.496	937	0	1.0901	OK	11-12-2024	08:46:10.502	906.081	37.580	OK
11-12-2024	08:46:10.758	906.337	7.500	7.500	27.502	937	0	1.0897	OK	11-12-2024	08:46:10.758	906.337	37.580	OK
11-12-2024	08:46:10.930	906.508	7.500	7.500	27.503	938	0	1.0896	OK	11-12-2024	08:46:10.930	906.508	37.581	OK
11-12-2024	08:46:11.031	906.610	7.499	7.499	27.495	937	0	1.0902	OK	11-12-2024	08:46:11.031	906.610	37.581	OK
11-12-2024	08:46:11.132	906.711	7.500	7.500	27.500	937	0	1.0898	OK	11-12-2024	08:46:11.132	906.711	37.583	OK
11-12-2024	08:46:11.332	906.911	7.500	7.500	27.500	937	0	1.0898	OK	11-12-2024	08:46:11.332	906.911	37.583	OK
11-12-2024	08:46:11.501	907.080	7.500	7.500	27.501	937	0	1.0897	OK	11-12-2024	08:46:11.501	907.080	37.583	OK
11-12-2024	08:46:11.755	907.334	7.500	7.500	27.504	937	0	1.0895	OK	11-12-2024	08:46:11.755	907.334	37.583	OK
11-12-2024	08:46:11.936	907.515	7.500	7.500	27.503	937	0	1.0896	OK	11-12-2024	08:46:11.936	907.515	37.584	OK
11-12-2024	08:46:12.133	907.712	7.500	7.500	27.505	937	0	1.0894	OK	11-12-2024	08:46:12.133	907.712	37.585	OK
11-12-2024	08:46:12.233	907.811	7.499	7.499	27.497	937	0	1.0900	OK	11-12-2024	08:46:12.233	907.811	37.585	OK
11-12-2024	08:46:12.334	907.913	7.499	7.499	27.494	937	0	1.0902	OK	11-12-2024	08:46:12.334	907.913	37.585	OK
11-12-2024	08:46:12.506	908.085	7.500	7.500	27.501	937	0	1.0897	OK	11-12-2024	08:46:12.506	908.085	37.584	OK
11-12-2024	08:46:12.782	908.361	7.500	7.500	27.503	937	0	1.0896	OK	11-12-2024	08:46:12.782	908.361	37.584	OK
11-12-2024	08:46:12.936	908.515	7.500	7.500	27.503	937	0	1.0896	OK	11-12-2024	08:46:12.936	908.515	37.583	OK
11-12-2024	08:46:13.035	908.614	7.499	7.499	27.498	937	0	1.0899	OK	11-12-2024	08:46:13.035	908.614	37.583	OK
11-12-2024	08:46:13.135	908.714	7.500	7.500	27.499	937	0	1.0899	OK	11-12-2024	08:46:13.135	908.714	37.583	OK
11-12-2024	08:46:13.236	908.815	7.499	7.499	27.498	937	0	1.0899	OK	11-12-2024	08:46:13.236	908.815	37.583	OK
11-12-2024	08:46:13.336	908.915	7.499	7.499	27.497	937	0	1.0900	OK	11-12-2024	08:46:13.336	908.915	37.584	OK
11-12-2024	08:46:13.507	909.085	7.499	7.499	27.495	937	0	1.0901	OK	11-12-2024	08:46:13.507	909.085	37.582	OK
11-12-2024	08:46:13.778	909.357	7.501	7.501	27.506	937	0	1.0894	OK	11-12-2024	08:46:13.778	909.357	37.581	OK
11-12-2024	08:46:13.937	909.516	7.500	7.500	27.501	938	0	1.0897	OK	11-12-2024	08:46:13.937	909.516	37.582	OK
11-12-2024	08:46:14.037	909.616	7.500	7.500	27.499	938	0	1.0899	OK	11-12-2024	08:46:14.037	909.616	37.582	OK
11-12-2024	08:46:14.138	909.717	7.499	7.499	27.498	938	0	1.0899	OK	11-12-2024	08:46:14.138	909.717	37.582	OK
11-12-2024	08:46:14.238	909.816	7.499	7.499	27.494	937	0	1.0902	OK	11-12-2024	08:46:14.238	909.816	37.582	OK
11-12-2024	08:46:14.338	909.917	7.499	7.499	27.492	938	0	1.0903	OK	11-12-2024	08:46:14.338	909.917	37.581	OK
11-12-2024	08:46:14.509	910.088	7.500	7.500	27.501	938	0	1.0897	OK	11-12-2024	08:46:14.509	910.088	37.581	OK
11-12-2024	08:46:14.766	910.345	7.501	7.501	27.505	937	0	1.0894	OK	11-12-2024	08:46:14.766	910.345	37.581	OK
11-12-2024	08:46:14.939	910.518	7.500	7.500	27.501	938	0	1.0897	OK	11-12-2024	08:46:14.939	910.518	37.582	OK
11-12-2024	08:46:15.039	910.618	7.499	7.499	27.496	938	0	1.0901	OK	11-12-2024	08:46:15.039	910.618	37.582	OK
11-12-2024	08:46:15.139	910.718	7.500	7.500	27.499	938	0	1.0899	OK	11-12-2024	08:46:15.139	910.718	37.581	OK
11-12-2024	08:46:15.239	910.818	7.499	7.499	27.493	938	0	1.0903	OK	11-12-2024	08:46:15.239	910.818	37.581	OK
11-12-2024	08:46:15.340	910.919	7.499	7.499	27.492	937	0	1.0903	OK	11-12-2024	08:46:15.340	910.919	37.580	OK
11-12-2024	08:46:15.513	911.092	7.499	7.499	27.497	937	0	1.0900	OK	11-12-2024	08:46:15.513	911.092	37.580	OK
11-12-2024	08:46:15.773	911.352	7.500	7.500	27.503	938	0	1.0896	OK	11-12-2024	08:46:15.773	911.352	37.580	OK
11-12-2024	08:46:15.941	911.520	7.500	7.500	27.503	937	0	1.0896	OK	11-12-2024	08:46:15.941	911.520	37.579	OK
11-12-2024	08:46:16.040	911.619	7.499	7.499	27.497	938	0	1.0900	OK	11-12-2024	08:46:16.040	911.619	37.579	OK
11-12-2024	08:46:16.141	911.720	7.499	7.499	27.497	938	0	1.0900	OK	11-12-2024	08:46:16.141	911.720	37.580	OK
11-12-2024	08:46:16.241	911.820	7.500	7.500	27.499	938	0	1.0899	OK	11-12-2024	08:46:16.241	911.820	37.580	OK
11-12-2024	08:46:16.341	911.920	7.499	7.499	27.494	938	0	1.0902	OK	11-12-2024	08:46:16.341	911.920	37.580	OK
11-12-2024	08:46:16.510	912.089	7.500	7.500	27.500	938	0	1.0898	OK	11-12-2024	08:46:16.510	912.089	37.580	OK
11-12-2024	08:46:16.765	912.344	7.500	7.500	27.503	938	0	1.0896	OK	11-12-2024	08:46:16.765	912.344	37.578	OK
11-12-2024	08:46:16.942	912.521	7.500	7.500	27.504	938	0	1.0895	OK	11-12-2024	08:46:16.942	912.521	37.578	OK
11-12-2024	08:46:17.042	912.621	7.499	7.499	27.496	938	0	1.0901	OK	11-12-2024	08:46:17.042	912.621	37.578	OK
11-12-2024	08:46:17.142	912.721	7.499	7.499	27.495	938	0	1.0901	OK	11-12-2024	08:46:17.142	912.721	37.578	OK
11-12-2024	08:46:17.242	912.821	7.499	7.499	27.497	938	0	1.0900	OK	11-12-2024	08:46:17.242	912.821	37.578	OK
11-12-2024	08:46:17.342	912.921	7.499	7.499	27.496	938	0	1.0901	OK	11-12-2024	08:46:17.342	912.921	37.577	OK
11-12-2024	08:46:17.513	913.092	7.500	7.500	27.502	937	0	1.0896	OK	11-12-2024	08:46:17.513	913.092	37.577	OK
11-12-2024	08:46:17.783	913.362	7.500	7.500	27.503	938	0	1.0896	OK	11-12-2024	08:46:17.783	913.362	37.577	OK
11-12-2024	08:46:17.941	913.520	7.500	7.500	27.500	938	0	1.0898	OK	11-12-2024	08:46:17.941	913.520	37.577	OK
11-12-2024	08:46:18.041	913.620	7.499	7.499	27.497	938	0	1.0900	OK	11-12-2024	08:46:18.041	913.620	37.578	OK
11-12-2024	08:46:18.142	913.721	7.500	7.500	27.498	937	0	1.0899	OK	11-12-2024	08:46:18.142	913.721	37.578	OK
11-12-2024	08:46:18.242	913.821	7.500	7.500	27.499	938	0	1.0899	OK	11-12-2024	08:46:18.242	913.821	37.577	OK
11-12-2024	08:46:18.340	913.919	7.499	7.499	27.497	937	0	1.0900	OK	11-12-2024	08:46:18.340	913.919	37.577	OK
11-12-2024	08:46:18.510	914.089	7.499	7.499	27.497	938	0	1.0900	OK	11-12-2024	08:46:18.510	914.089	37.576	OK
11-12-2024	08:46:18.783	914.362	7.500	7.500	27.503	938	0	1.0896	OK	11-12-2024	08:46:18.783	914.362	37.576	OK
11-12-2024	08:46:18.942	914.521	7.500	7.500	27.498	938	0	1.0899	OK	11-12-2024	08:46:18.942	914.521	37.576	OK
11-12-2024	08:46:19.043	914.622	7.500	7.500	27.498	938	0	1.0899	OK	11-12-2024	08:46:19.043	914.622	37.576	OK
11-12-2024	08:46:19.142	914.721	7.499	7.499	27.493	938	0	1.0903	OK	11-12-2024	08:46:19.142	914.721	37.576	OK
11-12-2024	08:46:19.243	914.822	7.499	7.499	27.494	938	0	1.0902	OK	11-12-2024	08:46:19.243	914.822	37.576	OK
11-12-2024	08:46:19.343	914.922	7.499	7.499	27.496	938	0	1.0901	OK	11-12-2024	08:46:19.343	914.922	37.576	OK
11-12-2024	08:46:19.531	915.110	7.500	7.500	27.499	938	0	1.0899	OK	11-12-2024	08:46:19.531	915.110	37.576	OK
11-12-2024	08:46:19.783	915.362	7.500	7.500	27.500	938	0	1.0898	OK	11-12-2024	08:46:19.783	915.362	37.577	OK
11-12-2024	08:46:19.943	915.522	7.500	7.500	27.499	938	0	1.0899	OK	11-12-2024	08:46:19.943	915.522	37.577	OK
11-12-2024	08:46:20.044	915.623	7.499	7.499	27.493	938	0	1.0903	OK	11-12-2024	08:46:20.044	915.623	37.577	OK
11-12-2024	08:46:20.144	915.723	7.499	7.499	27.493	938	0	1.0903	OK	11-12-2024	08:46:20.144	915.723	37.577	OK
11-12-2024	08:46:20.245	915.824	7.499	7.499	27.492	938	0	1.0903	OK	11-12-2024	08:46:20.245	915.824	37.575	OK
11-12-2024	08:46:20.345	915.924	7.499	7.499	27.491	938	0	1.0904	OK	11-12-2024	08:46:20.345	915.924	37.575	OK
11-12-2024	08:46:20.515	916.094	7.500	7.500	27.499	938	0	1.0899	OK	11-12-2024	08:46:20.515	916.094	37.576	OK
11-12-2024	08:46:20.771	916.350	7.500	7.500	27.498	938	0	1.0899	OK	11-12-2024	08:46:20.771	916.350	37.576	OK
11-12-2024	08:46:20.945	916.523	7.500	7.500	27.501	938	0	1.0897	OK	11-12-2024	08:46:20.945	916.523	37.575	OK
11-12-2024	08:46:21.046	916.625	7.499	7.499	27.494	938	0	1.0902	OK	11-12-2024	08:46:21.046	916.625	37.575	OK
11-12-2024	08:46:21.247	916.826	7.500	7.500	27.501	938	0	1.0897	OK	11-12-2024	08:46:21.247	916.826	37.576	OK
11-12-2024	08:46:21.347	916.926	7.500	7.500	27.499	938	0	1.0899	OK	11-12-2024	08:46:21.347	916.926	37.576	OK
11-12-2024	08:46:21.521	917.100	7.500	7.500	27.501	938	0	1.0897	OK	11-12-2024	08:46:21.521	917.100	37.574	OK
11-12-2024	08:46:21.781	917.360	7.500	7.500	27.502	938	0	1.0896	OK	11-12-2024	08:46:21.781	917.360	37.575	OK
11-12-2024	08:46:21.948	917.527	7.500	7.500	27.501	938	0	1.0897	OK	11-12-2024	08:46:21.948	917.527	37.575	OK
11-12-2024	08:46:22.048	917.627	7.500	7.500	27.498	938	0	1.0899	OK	11-12-2024	08:46:22.048	917.627	37.575	OK
11-12-2024	08:46:22.149	917.728	7.499	7.499	27.494	938	0	1.0902	OK	11-12-2024	08:46:22.149	917.728	37.575	OK
11-12-2024	08:46:22.250	917.829	7.499	7.499	27.496	938	0	1.0901	OK	11-12-2024	08:46:22.250	917.829	37.576	OK
11-12-2024	08:46:22.449	918.028	7.500	7.500	27.499	938	0	1.0899	OK	11-12-2024	08:46:22.449	918.028	37.576	OK
11-12-2024	08:46:22.704	918.283	7.500	7.500	27.503	938	0	1.0896	OK	11-12-2024	08:46:22.704	918.283	37.576	OK
11-12-2024	08:46:22.850	918.428	7.500	7.500	27.502	938	0	1.0896	OK	11-12-2024	08:46:22.850	918.428	37.575	OK
11-12-2024	08:46:22.949	918.528	7.500	7.500	27.502	938	0	1.0896	OK	11-12-2024	08:46:22.949	918.528	37.575	OK
11-12-2024	08:46:23.050	918.629	7.499	7.499	27.496	938	0	1.0901	OK	11-12-2024	08:46:23.050	918.629	37.575	OK
11-12-2024	08:46:23.152	918.731	7.500	7.500	27.498	938	0	1.0899	OK	11-12-2024	08:46:23.152	918.731	37.575	OK
11-12-2024	08:46:23.251	918.830	7.500	7.500	27.498	938	0	1.0899	OK	11-12-2024	08:46:23.251	918.830	37.575	OK
11-12-2024	08:46:23.452	919.031	7.500	7.500	27.502	938	0	1.0896	OK	11-12-2024	08:46:23.452	919.031	37.575	OK
11-12-2024	08:46:23.708	919.287	7.500	7.500	27.502	938	0	1.0896	OK	11-12-2024	08:46:23.708	919.287	37.575	OK
11-12-2024	08:46:23.852	919.431	7.500	7.500	27.500	938	0	1.0898	OK	11-12-2024	08:46:23.852	919.431	37.575	OK
11-12-2024	08:46:23.953	919.532	7.499	7.499	27.497	938	0	1.0900	OK	11-12-2024	08:46:23.953	919.532	37.575	OK
11-12-2024	08:46:24.151	919.730	7.500	7.500	27.501	938	0	1.0897	OK	11-12-2024	08:46:24.151	919.730	37.575	OK
11-12-2024	08:46:24.251	919.830	7.500	7.500	27.502	938	0	1.0896	OK	11-12-2024	08:46:24.251	919.830	37.575	OK
11-12-2024	08:46:24.353	919.932	7.499	7.499	27.493	938	0	1.0903	OK	11-12-2024	08:46:24.353	919.932	37.575	OK
11-12-2024	08:46:24.539	920.118	7.500	7.500	27.499	938	0	1.0899	OK	11-12-2024	08:46:24.539	920.118	37.574	OK
11-12-2024	08:46:24.802	920.381	7.500	7.500	27.504	938	0	1.0895	OK	11-12-2024	08:46:24.802	920.381	37.575	OK
11-12-2024	08:46:24.951	920.530	7.500	7.500	27.500	938	0	1.0898	OK	11-12-2024	08:46:24.951	920.530	37.575	OK
11-12-2024	08:46:25.154	920.733	7.501	7.501	27.505	938	0	1.0894	OK	11-12-2024	08:46:25.154	920.733	37.575	OK
11-12-2024	08:46:25.256	920.835	7.500	7.500	27.499	938	0	1.0899	OK	11-12-2024	08:46:25.256	920.835	37.574	OK
11-12-2024	08:46:25.440	921.019	7.499	7.499	27.496	938	0	1.0901	OK	11-12-2024	08:46:25.440	921.019	37.574	OK
11-12-2024	08:46:25.714	921.293	7.500	7.500	27.501	938	0	1.0897	OK	11-12-2024	08:46:25.714	921.293	37.574	OK
11-12-2024	08:46:25.858	921.437	7.500	7.500	27.501	938	0	1.0897	OK	11-12-2024	08:46:25.858	921.437	37.574	OK
11-12-2024	08:46:25.958	921.537	7.499	7.499	27.495	938	0	1.0901	OK	11-12-2024	08:46:25.958	921.537	37.574	OK
11-12-2024	08:46:26.057	921.636	7.499	7.499	27.497	938	0	1.0900	OK	11-12-2024	08:46:26.057	921.636	37.575	OK
11-12-2024	08:46:26.157	921.736	7.500	7.500	27.502	938	0	1.0896	OK	11-12-2024	08:46:26.157	921.736	37.575	OK
11-12-2024	08:46:26.259	921.838	7.499	7.499	27.493	937	0	1.0903	OK	11-12-2024	08:46:26.259	921.838	37.575	OK
11-12-2024	08:46:26.443	922.022	7.500	7.500	27.500	938	0	1.0898	OK	11-12-2024	08:46:26.443	922.022	37.574	OK
11-12-2024	08:46:26.716	922.295	7.500	7.500	27.501	938	0	1.0897	OK	11-12-2024	08:46:26.716	922.295	37.575	OK
11-12-2024	08:46:26.859	922.438	7.500	7.500	27.499	938	0	1.0899	OK	11-12-2024	08:46:26.859	922.438	37.575	OK
11-12-2024	08:46:26.959	922.538	7.500	7.500	27.498	938	0	1.0899	OK	11-12-2024	08:46:26.959	922.538	37.576	OK
11-12-2024	08:46:27.061	922.640	7.499	7.499	27.494	938	0	1.0902	OK	11-12-2024	08:46:27.061	922.640	37.576	OK
11-12-2024	08:46:27.161	922.740	7.499	7.499	27.497	938	0	1.0900	OK	11-12-2024	08:46:27.161	922.740	37.576	OK
11-12-2024	08:46:27.262	922.841	7.500	7.500	27.498	938	0	1.0899	OK	11-12-2024	08:46:27.262	922.841	37.576	OK
11-12-2024	08:46:27.439	923.018	7.500	7.500	27.500	938	0	1.0898	OK	11-12-2024	08:46:27.439	923.018	37.576	OK
11-12-2024	08:46:27.712	923.291	7.500	7.500	27.501	938	0	1.0897	OK	11-12-2024	08:46:27.712	923.291	37.576	OK
11-12-2024	08:46:27.862	923.441	7.500	7.500	27.500	938	0	1.0898	OK	11-12-2024	08:46:27.862	923.441	37.576	OK
11-12-2024	08:46:27.960	923.539	7.500	7.500	27.498	938	0	1.0899	OK	11-12-2024	08:46:27.960	923.539	37.576	OK
11-12-2024	08:46:28.062	923.641	7.499	7.499	27.495	938	0	1.0901	OK	11-12-2024	08:46:28.062	923.641	37.576	OK
11-12-2024	08:46:28.161	923.740	7.500	7.500	27.499	938	0	1.0899	OK	11-12-2024	08:46:28.161	923.740	37.576	OK
11-12-2024	08:46:28.261	923.840	7.499	7.499	27.493	938	0	1.0903	OK	11-12-2024	08:46:28.261	923.840	37.576	OK
11-12-2024	08:46:28.440	924.019	7.499	7.499	27.497	938	0	1.0900	OK	11-12-2024	08:46:28.440	924.019	37.576	OK
11-12-2024	08:46:28.695	924.274	7.500	7.500	27.500	938	0	1.0898	OK	11-12-2024	08:46:28.695	924.274	37.577	OK
11-12-2024	08:46:28.862	924.441	7.500	7.500	27.501	938	0	1.0897	OK	11-12-2024	08:46:28.862	924.441	37.577	OK
11-12-2024	08:46:28.963	924.542	7.499	7.499	27.495	938	0	1.0901	OK	11-12-2024	08:46:28.963	924.542	37.576	OK
11-12-2024	08:46:29.062	924.641	7.499	7.499	27.497	938	0	1.0900	OK	11-12-2024	08:46:29.062	924.641	37.576	OK
11-12-2024	08:46:29.163	924.742	7.499	7.499	27.493	938	0	1.0903	OK	11-12-2024	08:46:29.163	924.742	37.576	OK
11-12-2024	08:46:29.262	924.841	7.499	7.499	27.492	938	0	1.0903	OK	11-12-2024	08:46:29.262	924.841	37.576	OK
11-12-2024	08:46:29.441	925.020	7.499	7.499	27.495	938	0	1.0901	OK	11-12-2024	08:46:29.441	925.020	37.575	OK
11-12-2024	08:46:29.695	925.274	7.500	7.500	27.503	938	0	1.0896	OK	11-12-2024	08:46:29.695	925.274	37.575	OK
11-12-2024	08:46:29.863	925.442	7.500	7.500	27.501	938	0	1.0897	OK	11-12-2024	08:46:29.863	925.442	37.576	OK
11-12-2024	08:46:29.964	925.543	7.500	7.500	27.499	938	0	1.0899	OK	11-12-2024	08:46:29.964	925.543	37.575	OK
11-12-2024	08:46:30.065	925.644	7.500	7.500	27.498	938	0	1.0899	OK	11-12-2024	08:46:30.065	925.644	37.575	OK
11-12-2024	08:46:30.264	925.843	7.500	7.500	27.498	938	0	1.0899	OK	11-12-2024	08:46:30.264	925.843	37.575	OK
11-12-2024	08:46:30.441	926.020	7.500	7.500	27.502	937	0	1.0896	OK	11-12-2024	08:46:30.441	926.020	37.574	OK
11-12-2024	08:46:30.694	926.273	7.501	7.501	27.506	938	0	1.0894	OK	11-12-2024	08:46:30.694	926.273	37.575	OK
11-12-2024	08:46:30.864	926.443	7.500	7.500	27.504	938	0	1.0895	OK	11-12-2024	08:46:30.864	926.443	37.574	OK
11-12-2024	08:46:30.964	926.543	7.499	7.499	27.497	937	0	1.0900	OK	11-12-2024	08:46:30.964	926.543	37.574	OK
11-12-2024	08:46:31.064	926.643	7.500	7.500	27.503	938	0	1.0896	OK	11-12-2024	08:46:31.064	926.643	37.574	OK
11-12-2024	08:46:31.164	926.743	7.500	7.500	27.498	938	0	1.0899	OK	11-12-2024	08:46:31.164	926.743	37.573	OK
11-12-2024	08:46:31.264	926.843	7.500	7.500	27.499	938	0	1.0899	OK	11-12-2024	08:46:31.264	926.843	37.573	OK
11-12-2024	08:46:31.442	927.021	7.500	7.500	27.499	938	0	1.0899	OK	11-12-2024	08:46:31.442	927.021	37.573	OK
11-12-2024	08:46:31.698	927.277	7.500	7.500	27.503	938	0	1.0896	OK	11-12-2024	08:46:31.698	927.277	37.574	OK
11-12-2024	08:46:31.863	927.442	7.500	7.500	27.503	938	0	1.0896	OK	11-12-2024	08:46:31.863	927.442	37.574	OK
11-12-2024	08:46:32.064	927.643	7.500	7.500	27.503	938	0	1.0896	OK	11-12-2024	08:46:32.064	927.643	37.573	OK
11-12-2024	08:46:32.165	927.744	7.500	7.500	27.501	938	0	1.0897	OK	11-12-2024	08:46:32.165	927.744	37.572	OK
11-12-2024	08:46:32.265	927.844	7.500	7.500	27.500	938	0	1.0898	OK	11-12-2024	08:46:32.265	927.844	37.572	OK
11-12-2024	08:46:32.443	928.022	7.501	7.501	27.504	938	0	1.0895	OK	11-12-2024	08:46:32.443	928.022	37.573	OK
11-12-2024	08:46:32.697	928.276	7.501	7.501	27.504	938	0	1.0895	OK	11-12-2024	08:46:32.697	928.276	37.573	OK
11-12-2024	08:46:32.868	928.447	7.501	7.501	27.506	938	0	1.0894	OK	11-12-2024	08:46:32.868	928.447	37.573	OK
11-12-2024	08:46:32.968	928.547	7.500	7.500	27.499	938	0	1.0899	OK	11-12-2024	08:46:32.968	928.547	37.573	OK
11-12-2024	08:46:33.068	928.646	7.499	7.499	27.496	938	0	1.0901	OK	11-12-2024	08:46:33.068	928.646	37.573	OK
11-12-2024	08:46:33.169	928.748	7.499	7.499	27.497	937	0	1.0900	OK	11-12-2024	08:46:33.169	928.748	37.573	OK
11-12-2024	08:46:33.269	928.848	7.499	7.499	27.495	937	0	1.0901	OK	11-12-2024	08:46:33.269	928.848	37.573	OK
11-12-2024	08:46:33.441	929.020	7.500	7.500	27.499	938	0	1.0899	OK	11-12-2024	08:46:33.441	929.020	37.573	OK
11-12-2024	08:46:33.699	929.278	7.501	7.501	27.505	938	0	1.0894	OK	11-12-2024	08:46:33.699	929.278	37.573	OK
11-12-2024	08:46:33.871	929.450	7.501	7.501	27.505	938	0	1.0894	OK	11-12-2024	08:46:33.871	929.450	37.573	OK
11-12-2024	08:46:33.971	929.550	7.500	7.500	27.500	937	0	1.0898	OK	11-12-2024	08:46:33.971	929.550	37.573	OK
11-12-2024	08:46:34.070	929.649	7.499	7.499	27.496	938	0	1.0901	OK	11-12-2024	08:46:34.070	929.649	37.573	OK
11-12-2024	08:46:34.171	929.750	7.500	7.500	27.500	937	0	1.0898	OK	11-12-2024	08:46:34.171	929.750	37.573	OK
11-12-2024	08:46:34.441	930.020	7.500	7.500	27.504	937	0	1.0895	OK	11-12-2024	08:46:34.441	930.020	37.574	OK
11-12-2024	08:46:34.698	930.277	7.501	7.501	27.505	938	0	1.0894	OK	11-12-2024	08:46:34.698	930.277	37.575	OK
11-12-2024	08:46:34.872	930.451	7.501	7.501	27.506	938	0	1.0894	OK	11-12-2024	08:46:34.872	930.451	37.574	OK
11-12-2024	08:46:34.972	930.551	7.500	7.500	27.504	938	0	1.0895	OK	11-12-2024	08:46:34.972	930.551	37.574	OK
11-12-2024	08:46:35.072	930.651	7.500	7.500	27.500	937	0	1.0898	OK	11-12-2024	08:46:35.072	930.651	37.574	OK
11-12-2024	08:46:35.185	930.764	7.499	7.499	27.496	938	0	1.0901	OK	11-12-2024	08:46:35.185	930.764	37.574	OK
11-12-2024	08:46:35.275	930.854	7.500	7.500	27.500	937	0	1.0898	OK	11-12-2024	08:46:35.275	930.854	37.575	OK
11-12-2024	08:46:35.445	931.024	7.500	7.500	27.502	938	0	1.0896	OK	11-12-2024	08:46:35.445	931.024	37.575	OK
11-12-2024	08:46:35.701	931.280	7.501	7.501	27.507	937	0	1.0893	OK	11-12-2024	08:46:35.701	931.280	37.575	OK
11-12-2024	08:46:35.874	931.453	7.501	7.501	27.506	938	0	1.0893	OK	11-12-2024	08:46:35.874	931.453	37.574	OK
11-12-2024	08:46:35.976	931.555	7.501	7.501	27.504	937	0	1.0895	OK	11-12-2024	08:46:35.976	931.555	37.574	OK
11-12-2024	08:46:36.076	931.655	7.500	7.500	27.499	937	0	1.0898	OK	11-12-2024	08:46:36.076	931.655	37.574	OK
11-12-2024	08:46:36.185	931.764	7.500	7.500	27.502	937	0	1.0896	OK	11-12-2024	08:46:36.185	931.764	37.574	OK
11-12-2024	08:46:36.276	931.855	7.500	7.500	27.500	937	0	1.0897	OK	11-12-2024	08:46:36.276	931.855	37.574	OK
11-12-2024	08:46:36.446	932.025	7.500	7.500	27.499	937	0	1.0898	OK	11-12-2024	08:46:36.446	932.025	37.574	OK
11-12-2024	08:46:36.704	932.283	7.501	7.501	27.510	937	0	1.0890	OK	11-12-2024	08:46:36.704	932.283	37.575	OK
11-12-2024	08:46:36.877	932.456	7.500	7.500	27.500	937	0	1.0897	OK	11-12-2024	08:46:36.877	932.456	37.575	OK
11-12-2024	08:46:36.977	932.556	7.500	7.500	27.501	937	0	1.0897	OK	11-12-2024	08:46:36.977	932.556	37.575	OK
11-12-2024	08:46:37.077	932.656	7.500	7.500	27.498	937	0	1.0899	OK	11-12-2024	08:46:37.077	932.656	37.576	OK
11-12-2024	08:46:37.185	932.764	7.500	7.500	27.499	937	0	1.0898	OK	11-12-2024	08:46:37.185	932.764	37.576	OK
11-12-2024	08:46:37.278	932.857	7.499	7.499	27.492	937	0	1.0903	OK	11-12-2024	08:46:37.278	932.857	37.576	OK
11-12-2024	08:46:37.453	933.032	7.500	7.500	27.502	937	0	1.0896	OK	11-12-2024	08:46:37.453	933.032	37.576	OK
11-12-2024	08:46:37.712	933.291	7.500	7.500	27.501	937	0	1.0897	OK	11-12-2024	08:46:37.712	933.291	37.575	OK
11-12-2024	08:46:37.878	933.457	7.500	7.500	27.504	937	0	1.0895	OK	11-12-2024	08:46:37.878	933.457	37.575	OK
11-12-2024	08:46:37.979	933.558	7.500	7.500	27.501	937	0	1.0897	OK	11-12-2024	08:46:37.979	933.558	37.575	OK
11-12-2024	08:46:38.079	933.658	7.499	7.499	27.495	937	0	1.0901	OK	11-12-2024	08:46:38.079	933.658	37.575	OK
11-12-2024	08:46:38.187	933.766	7.499	7.499	27.495	937	0	1.0901	OK	11-12-2024	08:46:38.187	933.766	37.575	OK
11-12-2024	08:46:38.278	933.857	7.499	7.499	27.494	938	0	1.0902	OK	11-12-2024	08:46:38.278	933.857	37.575	OK
11-12-2024	08:46:38.453	934.032	7.500	7.500	27.498	937	0	1.0899	OK	11-12-2024	08:46:38.453	934.032	37.576	OK
11-12-2024	08:46:38.709	934.288	7.500	7.500	27.501	938	0	1.0897	OK	11-12-2024	08:46:38.709	934.288	37.577	OK
11-12-2024	08:46:38.879	934.458	7.500	7.500	27.502	938	0	1.0896	OK	11-12-2024	08:46:38.879	934.458	37.577	OK
11-12-2024	08:46:38.980	934.559	7.500	7.500	27.502	937	0	1.0896	OK	11-12-2024	08:46:38.980	934.559	37.577	OK
11-12-2024	08:46:39.080	934.659	7.500	7.500	27.497	937	0	1.0899	OK	11-12-2024	08:46:39.080	934.659	37.577	OK
11-12-2024	08:46:39.183	934.761	7.500	7.500	27.498	937	0	1.0899	OK	11-12-2024	08:46:39.183	934.761	37.577	OK
11-12-2024	08:46:39.280	934.859	7.500	7.500	27.498	937	0	1.0899	OK	11-12-2024	08:46:39.280	934.859	37.577	OK
11-12-2024	08:46:39.451	935.030	7.500	7.500	27.497	937	0	1.0899	OK	11-12-2024	08:46:39.451	935.030	37.577	OK
11-12-2024	08:46:39.724	935.303	7.500	7.500	27.501	938	0	1.0897	OK	11-12-2024	08:46:39.724	935.303	37.577	OK
11-12-2024	08:46:39.880	935.459	7.501	7.501	27.505	937	0	1.0894	OK	11-12-2024	08:46:39.880	935.459	37.577	OK
11-12-2024	08:46:39.979	935.558	7.500	7.500	27.499	937	0	1.0898	OK	11-12-2024	08:46:39.979	935.558	37.577	OK
11-12-2024	08:46:40.080	935.659	7.500	7.500	27.499	937	0	1.0898	OK	11-12-2024	08:46:40.080	935.659	37.577	OK
11-12-2024	08:46:40.190	935.769	7.499	7.499	27.496	937	0	1.0900	OK	11-12-2024	08:46:40.190	935.769	37.577	OK
11-12-2024	08:46:40.280	935.859	7.499	7.499	27.493	937	0	1.0902	OK	11-12-2024	08:46:40.280	935.859	37.577	OK
11-12-2024	08:46:40.465	936.044	7.499	7.499	27.495	937	0	1.0901	OK	11-12-2024	08:46:40.465	936.044	37.578	OK
11-12-2024	08:46:40.721	936.300	7.500	7.500	27.503	937	0	1.0895	OK	11-12-2024	08:46:40.721	936.300	37.578	OK
11-12-2024	08:46:40.879	936.458	7.500	7.500	27.502	937	0	1.0896	OK	11-12-2024	08:46:40.879	936.458	37.578	OK
11-12-2024	08:46:40.979	936.558	7.500	7.500	27.500	937	0	1.0897	OK	11-12-2024	08:46:40.979	936.558	37.578	OK
11-12-2024	08:46:41.081	936.659	7.500	7.500	27.500	937	0	1.0897	OK	11-12-2024	08:46:41.081	936.659	37.578	OK
11-12-2024	08:46:41.189	936.768	7.500	7.500	27.499	937	0	1.0898	OK	11-12-2024	08:46:41.189	936.768	37.578	OK
11-12-2024	08:46:41.440	937.019	7.500	7.500	27.502	937	0	1.0896	OK	11-12-2024	08:46:41.440	937.019	37.578	OK
11-12-2024	08:46:41.700	937.279	7.501	7.501	27.508	937	0	1.0892	OK	11-12-2024	08:46:41.700	937.279	37.579	OK
11-12-2024	08:46:41.882	937.461	7.501	7.501	27.506	937	0	1.0893	OK	11-12-2024	08:46:41.882	937.461	37.580	OK
11-12-2024	08:46:41.983	937.562	7.500	7.500	27.503	937	0	1.0895	OK	11-12-2024	08:46:41.983	937.562	37.580	OK
11-12-2024	08:46:42.083	937.662	7.500	7.500	27.498	937	0	1.0899	OK	11-12-2024	08:46:42.083	937.662	37.580	OK
11-12-2024	08:46:42.192	937.771	7.500	7.500	27.501	937	0	1.0897	OK	11-12-2024	08:46:42.192	937.771	37.580	OK
11-12-2024	08:46:42.281	937.860	7.500	7.500	27.499	937	0	1.0898	OK	11-12-2024	08:46:42.281	937.860	37.580	OK
11-12-2024	08:46:42.453	938.032	7.501	7.501	27.506	937	0	1.0893	OK	11-12-2024	08:46:42.453	938.032	37.580	OK
11-12-2024	08:46:42.745	938.324	7.501	7.501	27.505	937	0	1.0894	OK	11-12-2024	08:46:42.745	938.324	37.580	OK
11-12-2024	08:46:42.883	938.462	7.500	7.500	27.500	938	0	1.0897	OK	11-12-2024	08:46:42.883	938.462	37.580	OK
11-12-2024	08:46:42.982	938.561	7.500	7.500	27.503	937	0	1.0895	OK	11-12-2024	08:46:42.982	938.561	37.581	OK
11-12-2024	08:46:43.082	938.661	7.499	7.499	27.496	937	0	1.0900	OK	11-12-2024	08:46:43.082	938.661	37.581	OK
11-12-2024	08:46:43.190	938.769	7.499	7.499	27.495	937	0	1.0901	OK	11-12-2024	08:46:43.190	938.769	37.581	OK
11-12-2024	08:46:43.281	938.860	7.499	7.499	27.493	937	0	1.0902	OK	11-12-2024	08:46:43.281	938.860	37.581	OK
11-12-2024	08:46:43.452	939.031	7.500	7.500	27.498	937	0	1.0899	OK	11-12-2024	08:46:43.452	939.031	37.580	OK
11-12-2024	08:46:43.722	939.301	7.500	7.500	27.503	937	0	1.0895	OK	11-12-2024	08:46:43.722	939.301	37.581	OK
11-12-2024	08:46:43.883	939.462	7.500	7.500	27.501	937	0	1.0897	OK	11-12-2024	08:46:43.883	939.462	37.581	OK
11-12-2024	08:46:43.983	939.562	7.500	7.500	27.498	937	0	1.0899	OK	11-12-2024	08:46:43.983	939.562	37.581	OK
11-12-2024	08:46:44.083	939.662	7.500	7.500	27.498	937	0	1.0899	OK	11-12-2024	08:46:44.083	939.662	37.581	OK
11-12-2024	08:46:44.190	939.768	7.499	7.499	27.495	937	0	1.0901	OK	11-12-2024	08:46:44.190	939.768	37.581	OK
11-12-2024	08:46:44.283	939.862	7.499	7.499	27.497	937	0	1.0899	OK	11-12-2024	08:46:44.283	939.862	37.581	OK
11-12-2024	08:46:44.457	940.036	7.500	7.500	27.498	937	0	1.0899	OK	11-12-2024	08:46:44.457	940.036	37.580	OK
11-12-2024	08:46:44.712	940.291	7.500	7.500	27.499	937	0	1.0898	OK	11-12-2024	08:46:44.712	940.291	37.580	OK
11-12-2024	08:46:44.882	940.461	7.500	7.500	27.499	937	0	1.0898	OK	11-12-2024	08:46:44.882	940.461	37.579	OK
11-12-2024	08:46:44.983	940.562	7.499	7.499	27.496	937	0	1.0900	OK	11-12-2024	08:46:44.983	940.562	37.579	OK
11-12-2024	08:46:45.082	940.661	7.500	7.500	27.498	937	0	1.0899	OK	11-12-2024	08:46:45.082	940.661	37.579	OK
11-12-2024	08:46:45.192	940.771	7.499	7.499	27.497	937	0	1.0899	OK	11-12-2024	08:46:45.192	940.771	37.579	OK
11-12-2024	08:46:45.283	940.862	7.499	7.499	27.492	937	0	1.0903	OK	11-12-2024	08:46:45.283	940.862	37.579	OK
11-12-2024	08:46:45.451	941.030	7.500	7.500	27.498	937	0	1.0899	OK	11-12-2024	08:46:45.451	941.030	37.579	OK
11-12-2024	08:46:45.708	941.287	7.500	7.500	27.503	937	0	1.0895	OK	11-12-2024	08:46:45.708	941.287	37.579	OK
11-12-2024	08:46:45.882	941.461	7.500	7.500	27.504	937	0	1.0895	OK	11-12-2024	08:46:45.882	941.461	37.580	OK
11-12-2024	08:46:45.982	941.561	7.499	7.499	27.496	937	0	1.0900	OK	11-12-2024	08:46:45.982	941.561	37.580	OK
11-12-2024	08:46:46.083	941.662	7.499	7.499	27.494	937	0	1.0901	OK	11-12-2024	08:46:46.083	941.662	37.580	OK
11-12-2024	08:46:46.191	941.770	7.499	7.499	27.494	937	0	1.0901	OK	11-12-2024	08:46:46.191	941.770	37.579	OK
11-12-2024	08:46:46.283	941.862	7.499	7.499	27.496	937	0	1.0900	OK	11-12-2024	08:46:46.283	941.862	37.579	OK
11-12-2024	08:46:46.451	942.030	7.500	7.500	27.499	938	0	1.0898	OK	11-12-2024	08:46:46.451	942.030	37.579	OK
11-12-2024	08:46:46.706	942.285	7.499	7.499	27.496	937	0	1.0900	OK	11-12-2024	08:46:46.706	942.285	37.579	OK
11-12-2024	08:46:46.883	942.462	7.500	7.500	27.501	937	0	1.0897	OK	11-12-2024	08:46:46.883	942.462	37.579	OK
11-12-2024	08:46:46.984	942.563	7.499	7.499	27.494	937	0	1.0901	OK	11-12-2024	08:46:46.984	942.563	37.578	OK
11-12-2024	08:46:47.083	942.662	7.499	7.499	27.496	937	0	1.0900	OK	11-12-2024	08:46:47.083	942.662	37.578	OK
11-12-2024	08:46:47.189	942.768	7.499	7.499	27.492	937	0	1.0903	OK	11-12-2024	08:46:47.189	942.768	37.579	OK
11-12-2024	08:46:47.285	942.864	7.499	7.499	27.493	937	0	1.0902	OK	11-12-2024	08:46:47.285	942.864	37.579	OK
11-12-2024	08:46:47.455	943.034	7.500	7.500	27.497	937	0	1.0899	OK	11-12-2024	08:46:47.455	943.034	37.578	OK
11-12-2024	08:46:47.728	943.307	7.500	7.500	27.503	937	0	1.0895	OK	11-12-2024	08:46:47.728	943.307	37.578	OK
11-12-2024	08:46:47.884	943.463	7.501	7.501	27.504	937	0	1.0895	OK	11-12-2024	08:46:47.884	943.463	37.578	OK
11-12-2024	08:46:47.985	943.563	7.499	7.499	27.494	937	0	1.0901	OK	11-12-2024	08:46:47.985	943.563	37.579	OK
11-12-2024	08:46:48.086	943.665	7.499	7.499	27.496	937	0	1.0900	OK	11-12-2024	08:46:48.086	943.665	37.579	OK
11-12-2024	08:46:48.193	943.772	7.499	7.499	27.493	937	0	1.0902	OK	11-12-2024	08:46:48.193	943.772	37.579	OK
11-12-2024	08:46:48.286	943.865	7.499	7.499	27.495	937	0	1.0900	OK	11-12-2024	08:46:48.286	943.865	37.579	OK
11-12-2024	08:46:48.456	944.035	7.499	7.499	27.495	937	0	1.0900	OK	11-12-2024	08:46:48.456	944.035	37.578	OK
11-12-2024	08:46:48.710	944.289	7.500	7.500	27.503	937	0	1.0895	OK	11-12-2024	08:46:48.710	944.289	37.577	OK
11-12-2024	08:46:48.885	944.464	7.500	7.500	27.502	937	0	1.0895	OK	11-12-2024	08:46:48.885	944.464	37.576	OK
11-12-2024	08:46:48.986	944.565	7.500	7.500	27.497	937	0	1.0899	OK	11-12-2024	08:46:48.986	944.565	37.577	OK
11-12-2024	08:46:49.086	944.665	7.500	7.500	27.500	937	0	1.0897	OK	11-12-2024	08:46:49.086	944.665	37.577	OK
11-12-2024	08:46:49.193	944.772	7.500	7.500	27.496	937	0	1.0900	OK	11-12-2024	08:46:49.193	944.772	37.576	OK
11-12-2024	08:46:49.285	944.864	7.500	7.500	27.498	937	0	1.0898	OK	11-12-2024	08:46:49.285	944.864	37.576	OK
11-12-2024	08:46:49.456	945.035	7.500	7.500	27.496	937	0	1.0900	OK	11-12-2024	08:46:49.456	945.035	37.575	OK
11-12-2024	08:46:49.729	945.308	7.501	7.501	27.504	938	0	1.0894	OK	11-12-2024	08:46:49.729	945.308	37.576	OK
11-12-2024	08:46:49.888	945.467	7.500	7.500	27.502	937	0	1.0895	OK	11-12-2024	08:46:49.888	945.467	37.575	OK
11-12-2024	08:46:49.988	945.567	7.500	7.500	27.503	937	0	1.0895	OK	11-12-2024	08:46:49.988	945.567	37.575	OK
11-12-2024	08:46:50.088	945.667	7.500	7.500	27.500	937	0	1.0897	OK	11-12-2024	08:46:50.088	945.667	37.574	OK
11-12-2024	08:46:50.192	945.771	7.499	7.499	27.494	937	0	1.0901	OK	11-12-2024	08:46:50.192	945.771	37.574	OK
11-12-2024	08:46:50.289	945.868	7.500	7.500	27.497	937	0	1.0899	OK	11-12-2024	08:46:50.289	945.868	37.574	OK
11-12-2024	08:46:50.459	946.038	7.500	7.500	27.499	937	0	1.0898	OK	11-12-2024	08:46:50.459	946.038	37.574	OK
11-12-2024	08:46:50.715	946.294	7.501	7.501	27.507	938	0	1.0893	OK	11-12-2024	08:46:50.715	946.294	37.573	OK
11-12-2024	08:46:50.888	946.467	7.501	7.501	27.505	938	0	1.0894	OK	11-12-2024	08:46:50.888	946.467	37.573	OK
11-12-2024	08:46:50.989	946.568	7.500	7.500	27.498	937	0	1.0898	OK	11-12-2024	08:46:50.989	946.568	37.573	OK
11-12-2024	08:46:51.089	946.668	7.500	7.500	27.502	937	0	1.0895	OK	11-12-2024	08:46:51.089	946.668	37.574	OK
11-12-2024	08:46:51.193	946.772	7.500	7.500	27.502	937	0	1.0895	OK	11-12-2024	08:46:51.193	946.772	37.574	OK
11-12-2024	08:46:51.442	947.021	7.501	7.501	27.505	938	0	1.0893	OK	11-12-2024	08:46:51.442	947.021	37.573	OK
11-12-2024	08:46:51.700	947.279	7.500	7.500	27.500	937	0	1.0897	OK	11-12-2024	08:46:51.700	947.279	37.573	OK
11-12-2024	08:46:51.789	947.368	7.500	7.500	27.498	937	0	1.0898	OK	11-12-2024	08:46:51.789	947.368	37.573	OK
11-12-2024	08:46:51.889	947.468	7.500	7.500	27.497	937	0	1.0899	OK	11-12-2024	08:46:51.889	947.468	37.574	OK
11-12-2024	08:46:51.989	947.568	7.500	7.500	27.497	937	0	1.0899	OK	11-12-2024	08:46:51.989	947.568	37.574	OK
11-12-2024	08:46:52.089	947.668	7.499	7.499	27.493	937	0	1.0902	OK	11-12-2024	08:46:52.089	947.668	37.573	OK
11-12-2024	08:46:52.290	947.869	7.500	7.500	27.499	937	0	1.0898	OK	11-12-2024	08:46:52.290	947.869	37.573	OK
11-12-2024	08:46:52.462	948.041	7.500	7.500	27.500	937	0	1.0897	OK	11-12-2024	08:46:52.462	948.041	37.573	OK
11-12-2024	08:46:52.720	948.299	7.501	7.501	27.509	937	0	1.0891	OK	11-12-2024	08:46:52.720	948.299	37.574	OK
11-12-2024	08:46:52.891	948.470	7.501	7.501	27.504	937	0	1.0894	OK	11-12-2024	08:46:52.891	948.470	37.573	OK
11-12-2024	08:46:52.991	948.570	7.500	7.500	27.501	937	0	1.0897	OK	11-12-2024	08:46:52.991	948.570	37.573	OK
11-12-2024	08:46:53.093	948.672	7.500	7.500	27.502	937	0	1.0896	OK	11-12-2024	08:46:53.093	948.672	37.574	OK
11-12-2024	08:46:53.196	948.775	7.500	7.500	27.501	937	0	1.0897	OK	11-12-2024	08:46:53.196	948.775	37.574	OK
11-12-2024	08:46:53.294	948.873	7.500	7.500	27.500	937	0	1.0897	OK	11-12-2024	08:46:53.294	948.873	37.574	OK
11-12-2024	08:46:53.465	949.043	7.500	7.500	27.503	937	0	1.0895	OK	11-12-2024	08:46:53.465	949.043	37.574	OK
11-12-2024	08:46:53.723	949.302	7.501	7.501	27.505	937	0	1.0894	OK	11-12-2024	08:46:53.723	949.302	37.574	OK
11-12-2024	08:46:53.898	949.477	7.501	7.501	27.504	937	0	1.0895	OK	11-12-2024	08:46:53.898	949.477	37.574	OK
11-12-2024	08:46:53.998	949.577	7.499	7.499	27.495	937	0	1.0901	OK	11-12-2024	08:46:53.998	949.577	37.574	OK
11-12-2024	08:46:54.098	949.677	7.499	7.499	27.493	937	0	1.0902	OK	11-12-2024	08:46:54.098	949.677	37.575	OK
11-12-2024	08:46:54.200	949.778	7.500	7.500	27.499	937	0	1.0898	OK	11-12-2024	08:46:54.200	949.778	37.575	OK
11-12-2024	08:46:54.298	949.877	7.500	7.500	27.498	937	0	1.0899	OK	11-12-2024	08:46:54.298	949.877	37.575	OK
11-12-2024	08:46:54.468	950.047	7.500	7.500	27.500	937	0	1.0897	OK	11-12-2024	08:46:54.468	950.047	37.575	OK
11-12-2024	08:46:54.727	950.306	7.500	7.500	27.500	937	0	1.0897	OK	11-12-2024	08:46:54.727	950.306	37.576	OK
11-12-2024	08:46:54.901	950.480	7.500	7.500	27.502	937	0	1.0896	OK	11-12-2024	08:46:54.901	950.480	37.576	OK
11-12-2024	08:46:55.000	950.579	7.500	7.500	27.500	937	0	1.0897	OK	11-12-2024	08:46:55.000	950.579	37.576	OK
11-12-2024	08:46:55.099	950.678	7.500	7.500	27.500	937	0	1.0897	OK	11-12-2024	08:46:55.099	950.678	37.575	OK
11-12-2024	08:46:55.200	950.779	7.500	7.500	27.498	937	0	1.0899	OK	11-12-2024	08:46:55.200	950.779	37.575	OK
11-12-2024	08:46:55.302	950.881	7.499	7.499	27.496	937	0	1.0900	OK	11-12-2024	08:46:55.302	950.881	37.576	OK
11-12-2024	08:46:55.475	951.054	7.500	7.500	27.499	937	0	1.0898	OK	11-12-2024	08:46:55.475	951.054	37.576	OK
11-12-2024	08:46:55.732	951.310	7.500	7.500	27.500	938	0	1.0897	OK	11-12-2024	08:46:55.732	951.310	37.576	OK
11-12-2024	08:46:55.901	951.480	7.501	7.501	27.504	937	0	1.0895	OK	11-12-2024	08:46:55.901	951.480	37.576	OK
11-12-2024	08:46:56.000	951.579	7.500	7.500	27.498	937	0	1.0899	OK	11-12-2024	08:46:56.000	951.579	37.576	OK
11-12-2024	08:46:56.101	951.680	7.499	7.499	27.493	937	0	1.0902	OK	11-12-2024	08:46:56.101	951.680	37.576	OK
11-12-2024	08:46:56.201	951.780	7.500	7.500	27.497	937	0	1.0899	OK	11-12-2024	08:46:56.201	951.780	37.576	OK
11-12-2024	08:46:56.302	951.881	7.499	7.499	27.493	938	0	1.0902	OK	11-12-2024	08:46:56.302	951.881	37.576	OK
11-12-2024	08:46:56.474	952.053	7.500	7.500	27.496	938	0	1.0900	OK	11-12-2024	08:46:56.474	952.053	37.576	OK
11-12-2024	08:46:56.747	952.326	7.500	7.500	27.503	938	0	1.0895	OK	11-12-2024	08:46:56.747	952.326	37.577	OK
11-12-2024	08:46:56.905	952.484	7.500	7.500	27.502	938	0	1.0895	OK	11-12-2024	08:46:56.905	952.484	37.577	OK
11-12-2024	08:46:57.005	952.584	7.500	7.500	27.499	938	0	1.0898	OK	11-12-2024	08:46:57.005	952.584	37.577	OK
11-12-2024	08:46:57.105	952.684	7.500	7.500	27.498	938	0	1.0898	OK	11-12-2024	08:46:57.105	952.684	37.577	OK
11-12-2024	08:46:57.204	952.783	7.500	7.500	27.499	937	0	1.0898	OK	11-12-2024	08:46:57.204	952.783	37.577	OK
11-12-2024	08:46:57.306	952.885	7.499	7.499	27.495	938	0	1.0900	OK	11-12-2024	08:46:57.306	952.885	37.576	OK
11-12-2024	08:46:57.479	953.058	7.499	7.499	27.495	938	0	1.0900	OK	11-12-2024	08:46:57.479	953.058	37.576	OK
11-12-2024	08:46:57.754	953.333	7.500	7.500	27.500	938	0	1.0897	OK	11-12-2024	08:46:57.754	953.333	37.576	OK
11-12-2024	08:46:57.905	953.484	7.499	7.499	27.496	938	0	1.0900	OK	11-12-2024	08:46:57.905	953.484	37.577	OK
11-12-2024	08:46:58.005	953.584	7.499	7.499	27.495	938	0	1.0900	OK	11-12-2024	08:46:58.005	953.584	37.577	OK
11-12-2024	08:46:58.106	953.685	7.499	7.499	27.493	937	0	1.0902	OK	11-12-2024	08:46:58.106	953.685	37.577	OK
11-12-2024	08:46:58.206	953.785	7.499	7.499	27.493	938	0	1.0902	OK	11-12-2024	08:46:58.206	953.785	37.577	OK
11-12-2024	08:46:58.305	953.884	7.499	7.499	27.492	937	0	1.0902	OK	11-12-2024	08:46:58.305	953.884	37.577	OK
11-12-2024	08:46:58.476	954.055	7.500	7.500	27.498	938	0	1.0898	OK	11-12-2024	08:46:58.476	954.055	37.577	OK
11-12-2024	08:46:58.745	954.324	7.500	7.500	27.501	938	0	1.0896	OK	11-12-2024	08:46:58.745	954.324	37.577	OK
11-12-2024	08:46:58.906	954.485	7.500	7.500	27.503	938	0	1.0895	OK	11-12-2024	08:46:58.906	954.485	37.577	OK
11-12-2024	08:46:59.006	954.585	7.500	7.500	27.499	937	0	1.0898	OK	11-12-2024	08:46:59.006	954.585	37.577	OK
11-12-2024	08:46:59.107	954.686	7.500	7.500	27.500	937	0	1.0897	OK	11-12-2024	08:46:59.107	954.686	37.577	OK
11-12-2024	08:46:59.207	954.786	7.500	7.500	27.496	937	0	1.0900	OK	11-12-2024	08:46:59.207	954.786	37.576	OK
11-12-2024	08:46:59.308	954.887	7.499	7.499	27.495	937	0	1.0900	OK	11-12-2024	08:46:59.308	954.887	37.576	OK
11-12-2024	08:46:59.479	955.058	7.500	7.500	27.498	937	0	1.0898	OK	11-12-2024	08:46:59.479	955.058	37.576	OK
11-12-2024	08:46:59.735	955.314	7.501	7.501	27.505	937	0	1.0893	OK	11-12-2024	08:46:59.735	955.314	37.576	OK
11-12-2024	08:46:59.908	955.487	7.501	7.501	27.503	938	0	1.0895	OK	11-12-2024	08:46:59.908	955.487	37.576	OK
11-12-2024	08:47:00.009	955.588	7.500	7.500	27.502	937	0	1.0895	OK	11-12-2024	08:47:00.009	955.588	37.575	OK
11-12-2024	08:47:00.110	955.689	7.500	7.500	27.498	937	0	1.0898	OK	11-12-2024	08:47:00.110	955.689	37.575	OK
11-12-2024	08:47:00.209	955.788	7.500	7.500	27.497	937	0	1.0899	OK	11-12-2024	08:47:00.209	955.788	37.575	OK
11-12-2024	08:47:00.311	955.890	7.500	7.500	27.496	937	0	1.0900	OK	11-12-2024	08:47:00.311	955.890	37.575	OK
11-12-2024	08:47:00.480	956.059	7.500	7.500	27.500	937	0	1.0897	OK	11-12-2024	08:47:00.480	956.059	37.576	OK
11-12-2024	08:47:00.736	956.315	7.500	7.500	27.500	937	0	1.0897	OK	11-12-2024	08:47:00.736	956.315	37.575	OK
11-12-2024	08:47:00.912	956.491	7.500	7.500	27.499	937	0	1.0898	OK	11-12-2024	08:47:00.912	956.491	37.575	OK
11-12-2024	08:47:01.011	956.590	7.500	7.500	27.498	937	0	1.0898	OK	11-12-2024	08:47:01.011	956.590	37.573	OK
11-12-2024	08:47:01.113	956.691	7.499	7.499	27.494	937	0	1.0901	OK	11-12-2024	08:47:01.113	956.691	37.573	OK
11-12-2024	08:47:01.214	956.792	7.500	7.500	27.496	937	0	1.0900	OK	11-12-2024	08:47:01.214	956.792	37.574	OK
11-12-2024	08:47:01.443	957.022	7.500	7.500	27.499	937	0	1.0898	OK	11-12-2024	08:47:01.443	957.022	37.573	OK
11-12-2024	08:47:01.710	957.289	7.501	7.501	27.507	938	0	1.0892	OK	11-12-2024	08:47:01.710	957.289	37.573	OK
11-12-2024	08:47:01.815	957.394	7.500	7.500	27.498	937	0	1.0898	OK	11-12-2024	08:47:01.815	957.394	37.573	OK
11-12-2024	08:47:01.914	957.493	7.500	7.500	27.497	937	0	1.0899	OK	11-12-2024	08:47:01.914	957.493	37.573	OK
11-12-2024	08:47:02.014	957.593	7.500	7.500	27.501	937	0	1.0896	OK	11-12-2024	08:47:02.014	957.593	37.573	OK
11-12-2024	08:47:02.115	957.694	7.500	7.500	27.498	937	0	1.0898	OK	11-12-2024	08:47:02.115	957.694	37.573	OK
11-12-2024	08:47:02.214	957.793	7.500	7.500	27.499	937	0	1.0898	OK	11-12-2024	08:47:02.214	957.793	37.573	OK
11-12-2024	08:47:02.314	957.893	7.500	7.500	27.497	937	0	1.0899	OK	11-12-2024	08:47:02.314	957.893	37.573	OK
11-12-2024	08:47:02.487	958.066	7.500	7.500	27.499	937	0	1.0898	OK	11-12-2024	08:47:02.487	958.066	37.574	OK
11-12-2024	08:47:02.744	958.323	7.500	7.500	27.501	937	0	1.0896	OK	11-12-2024	08:47:02.744	958.323	37.574	OK
11-12-2024	08:47:02.917	958.496	7.501	7.501	27.503	937	0	1.0895	OK	11-12-2024	08:47:02.917	958.496	37.574	OK
11-12-2024	08:47:03.017	958.596	7.500	7.500	27.502	937	0	1.0895	OK	11-12-2024	08:47:03.017	958.596	37.575	OK
11-12-2024	08:47:03.116	958.695	7.499	7.499	27.494	937	0	1.0901	OK	11-12-2024	08:47:03.116	958.695	37.575	OK
11-12-2024	08:47:03.220	958.799	7.499	7.499	27.495	937	0	1.0900	OK	11-12-2024	08:47:03.220	958.799	37.576	OK
11-12-2024	08:47:03.320	958.899	7.499	7.499	27.493	937	0	1.0901	OK	11-12-2024	08:47:03.320	958.899	37.576	OK
11-12-2024	08:47:03.505	959.084	7.500	7.500	27.501	937	0	1.0896	OK	11-12-2024	08:47:03.505	959.084	37.577	OK
11-12-2024	08:47:03.760	959.339	7.501	7.501	27.503	937	0	1.0894	OK	11-12-2024	08:47:03.760	959.339	37.576	OK
11-12-2024	08:47:03.919	959.498	7.500	7.500	27.501	937	0	1.0896	OK	11-12-2024	08:47:03.919	959.498	37.577	OK
11-12-2024	08:47:04.020	959.599	7.500	7.500	27.501	937	0	1.0896	OK	11-12-2024	08:47:04.020	959.599	37.577	OK
11-12-2024	08:47:04.121	959.699	7.500	7.500	27.499	937	0	1.0897	OK	11-12-2024	08:47:04.121	959.699	37.577	OK
11-12-2024	08:47:04.220	959.799	7.499	7.499	27.494	937	0	1.0901	OK	11-12-2024	08:47:04.220	959.799	37.578	OK
11-12-2024	08:47:04.319	959.898	7.499	7.499	27.493	937	0	1.0902	OK	11-12-2024	08:47:04.319	959.898	37.578	OK
11-12-2024	08:47:04.493	960.072	7.500	7.500	27.498	937	0	1.0898	OK	11-12-2024	08:47:04.493	960.072	37.577	OK
11-12-2024	08:47:04.747	960.326	7.501	7.501	27.506	938	0	1.0893	OK	11-12-2024	08:47:04.747	960.326	37.578	OK
11-12-2024	08:47:04.921	960.500	7.501	7.501	27.507	937	0	1.0892	OK	11-12-2024	08:47:04.921	960.500	37.578	OK
11-12-2024	08:47:05.021	960.600	7.500	7.500	27.500	937	0	1.0897	OK	11-12-2024	08:47:05.021	960.600	37.577	OK
11-12-2024	08:47:05.121	960.700	7.499	7.499	27.496	937	0	1.0900	OK	11-12-2024	08:47:05.121	960.700	37.577	OK
11-12-2024	08:47:05.221	960.800	7.500	7.500	27.497	937	0	1.0899	OK	11-12-2024	08:47:05.221	960.800	37.578	OK
11-12-2024	08:47:05.322	960.901	7.499	7.499	27.496	937	0	1.0900	OK	11-12-2024	08:47:05.322	960.901	37.578	OK
11-12-2024	08:47:05.494	961.073	7.500	7.500	27.497	937	0	1.0899	OK	11-12-2024	08:47:05.494	961.073	37.577	OK
11-12-2024	08:47:05.755	961.334	7.501	7.501	27.504	937	0	1.0894	OK	11-12-2024	08:47:05.755	961.334	37.577	OK
11-12-2024	08:47:05.922	961.501	7.501	7.501	27.503	937	0	1.0895	OK	11-12-2024	08:47:05.922	961.501	37.576	OK
11-12-2024	08:47:06.022	961.601	7.500	7.500	27.496	937	0	1.0900	OK	11-12-2024	08:47:06.022	961.601	37.576	OK
11-12-2024	08:47:06.122	961.701	7.500	7.500	27.499	937	0	1.0898	OK	11-12-2024	08:47:06.122	961.701	37.576	OK
11-12-2024	08:47:06.222	961.801	7.499	7.499	27.490	937	0	1.0904	OK	11-12-2024	08:47:06.222	961.801	37.575	OK
11-12-2024	08:47:06.321	961.900	7.500	7.500	27.498	937	0	1.0898	OK	11-12-2024	08:47:06.321	961.900	37.575	OK
11-12-2024	08:47:06.490	962.069	7.499	7.499	27.493	937	0	1.0902	OK	11-12-2024	08:47:06.490	962.069	37.573	OK
11-12-2024	08:47:06.746	962.325	7.501	7.501	27.505	938	0	1.0893	OK	11-12-2024	08:47:06.746	962.325	37.573	OK
11-12-2024	08:47:06.922	962.501	7.501	7.501	27.503	937	0	1.0895	OK	11-12-2024	08:47:06.922	962.501	37.573	OK
11-12-2024	08:47:07.022	962.601	7.500	7.500	27.496	937	0	1.0900	OK	11-12-2024	08:47:07.022	962.601	37.573	OK
11-12-2024	08:47:07.122	962.701	7.500	7.500	27.499	937	0	1.0898	OK	11-12-2024	08:47:07.122	962.701	37.573	OK
11-12-2024	08:47:07.222	962.801	7.500	7.500	27.496	937	0	1.0900	OK	11-12-2024	08:47:07.222	962.801	37.573	OK
11-12-2024	08:47:07.320	962.899	7.499	7.499	27.495	937	0	1.0900	OK	11-12-2024	08:47:07.320	962.899	37.573	OK
11-12-2024	08:47:07.494	963.072	7.500	7.500	27.500	937	0	1.0897	OK	11-12-2024	08:47:07.494	963.072	37.572	OK
11-12-2024	08:47:07.750	963.329	7.501	7.501	27.506	937	0	1.0893	OK	11-12-2024	08:47:07.750	963.329	37.572	OK
11-12-2024	08:47:07.922	963.501	7.501	7.501	27.504	937	0	1.0894	OK	11-12-2024	08:47:07.922	963.501	37.571	OK
11-12-2024	08:47:08.022	963.600	7.500	7.500	27.498	937	0	1.0898	OK	11-12-2024	08:47:08.022	963.600	37.571	OK
11-12-2024	08:47:08.122	963.701	7.500	7.500	27.498	937	0	1.0898	OK	11-12-2024	08:47:08.122	963.701	37.571	OK
11-12-2024	08:47:08.222	963.801	7.500	7.500	27.498	937	0	1.0898	OK	11-12-2024	08:47:08.222	963.801	37.571	OK
11-12-2024	08:47:08.322	963.901	7.500	7.500	27.497	937	0	1.0899	OK	11-12-2024	08:47:08.322	963.901	37.571	OK
11-12-2024	08:47:08.491	964.070	7.500	7.500	27.502	938	0	1.0895	OK	11-12-2024	08:47:08.491	964.070	37.570	OK
11-12-2024	08:47:08.746	964.325	7.501	7.501	27.503	937	0	1.0895	OK	11-12-2024	08:47:08.746	964.325	37.571	OK
11-12-2024	08:47:08.923	964.502	7.500	7.500	27.501	937	0	1.0896	OK	11-12-2024	08:47:08.923	964.502	37.571	OK
11-12-2024	08:47:09.024	964.603	7.500	7.500	27.498	937	0	1.0898	OK	11-12-2024	08:47:09.024	964.603	37.571	OK
11-12-2024	08:47:09.125	964.704	7.500	7.500	27.498	937	0	1.0898	OK	11-12-2024	08:47:09.125	964.704	37.572	OK
11-12-2024	08:47:09.225	964.804	7.500	7.500	27.499	938	0	1.0898	OK	11-12-2024	08:47:09.225	964.804	37.572	OK
11-12-2024	08:47:09.326	964.905	7.499	7.499	27.495	937	0	1.0900	OK	11-12-2024	08:47:09.326	964.905	37.572	OK
11-12-2024	08:47:09.499	965.078	7.500	7.500	27.496	937	0	1.0900	OK	11-12-2024	08:47:09.499	965.078	37.571	OK
11-12-2024	08:47:09.752	965.331	7.500	7.500	27.499	938	0	1.0898	OK	11-12-2024	08:47:09.752	965.331	37.572	OK
11-12-2024	08:47:09.925	965.504	7.500	7.500	27.498	937	0	1.0898	OK	11-12-2024	08:47:09.925	965.504	37.572	OK
11-12-2024	08:47:10.027	965.606	7.500	7.500	27.500	938	0	1.0897	OK	11-12-2024	08:47:10.027	965.606	37.572	OK
11-12-2024	08:47:10.129	965.708	7.500	7.500	27.499	937	0	1.0898	OK	11-12-2024	08:47:10.129	965.708	37.573	OK
11-12-2024	08:47:10.231	965.810	7.500	7.500	27.498	937	0	1.0898	OK	11-12-2024	08:47:10.231	965.810	37.573	OK
11-12-2024	08:47:10.443	966.022	7.500	7.500	27.501	938	0	1.0896	OK	11-12-2024	08:47:10.443	966.022	37.572	OK
11-12-2024	08:47:10.701	966.280	7.500	7.500	27.501	938	0	1.0896	OK	11-12-2024	08:47:10.701	966.280	37.572	OK
11-12-2024	08:47:10.825	966.404	7.500	7.500	27.500	938	0	1.0896	OK	11-12-2024	08:47:10.825	966.404	37.572	OK
11-12-2024	08:47:10.926	966.505	7.500	7.500	27.501	937	0	1.0896	OK	11-12-2024	08:47:10.926	966.505	37.571	OK
11-12-2024	08:47:11.026	966.605	7.500	7.500	27.501	937	0	1.0896	OK	11-12-2024	08:47:11.026	966.605	37.571	OK
11-12-2024	08:47:11.128	966.707	7.500	7.500	27.496	937	0	1.0899	OK	11-12-2024	08:47:11.128	966.707	37.572	OK
11-12-2024	08:47:11.228	966.807	7.500	7.500	27.495	937	0	1.0900	OK	11-12-2024	08:47:11.228	966.807	37.572	OK
11-12-2024	08:47:11.327	966.906	7.500	7.500	27.498	937	0	1.0898	OK	11-12-2024	08:47:11.327	966.906	37.573	OK
11-12-2024	08:47:11.497	967.076	7.500	7.500	27.499	937	0	1.0898	OK	11-12-2024	08:47:11.497	967.076	37.572	OK
11-12-2024	08:47:11.766	967.345	7.500	7.500	27.500	937	0	1.0897	OK	11-12-2024	08:47:11.766	967.345	37.572	OK
11-12-2024	08:47:11.928	967.507	7.500	7.500	27.499	937	0	1.0898	OK	11-12-2024	08:47:11.928	967.507	37.572	OK
11-12-2024	08:47:12.029	967.608	7.500	7.500	27.497	938	0	1.0899	OK	11-12-2024	08:47:12.029	967.608	37.572	OK
11-12-2024	08:47:12.129	967.708	7.500	7.500	27.497	937	0	1.0899	OK	11-12-2024	08:47:12.129	967.708	37.573	OK
11-12-2024	08:47:12.231	967.810	7.499	7.499	27.494	937	0	1.0901	OK	11-12-2024	08:47:12.231	967.810	37.573	OK
11-12-2024	08:47:12.329	967.908	7.499	7.499	27.493	937	0	1.0901	OK	11-12-2024	08:47:12.329	967.908	37.573	OK
11-12-2024	08:47:12.497	968.076	7.500	7.500	27.499	937	0	1.0897	OK	11-12-2024	08:47:12.497	968.076	37.573	OK
11-12-2024	08:47:12.770	968.349	7.501	7.501	27.504	937	0	1.0894	OK	11-12-2024	08:47:12.770	968.349	37.575	OK
11-12-2024	08:47:12.929	968.508	7.501	7.501	27.502	937	0	1.0895	OK	11-12-2024	08:47:12.929	968.508	37.574	OK
11-12-2024	08:47:13.027	968.606	7.500	7.500	27.500	938	0	1.0896	OK	11-12-2024	08:47:13.027	968.606	37.574	OK
11-12-2024	08:47:13.129	968.707	7.499	7.499	27.495	937	0	1.0900	OK	11-12-2024	08:47:13.129	968.707	37.574	OK
11-12-2024	08:47:13.229	968.808	7.499	7.499	27.493	937	0	1.0901	OK	11-12-2024	08:47:13.229	968.808	37.574	OK
11-12-2024	08:47:13.329	968.908	7.499	7.499	27.489	937	0	1.0904	OK	11-12-2024	08:47:13.329	968.908	37.575	OK
11-12-2024	08:47:13.499	969.078	7.500	7.500	27.501	937	0	1.0896	OK	11-12-2024	08:47:13.499	969.078	37.575	OK
11-12-2024	08:47:13.769	969.348	7.500	7.500	27.500	937	0	1.0896	OK	11-12-2024	08:47:13.769	969.348	37.575	OK
11-12-2024	08:47:13.930	969.509	7.500	7.500	27.499	937	0	1.0897	OK	11-12-2024	08:47:13.930	969.509	37.575	OK
11-12-2024	08:47:14.029	969.608	7.500	7.500	27.499	937	0	1.0897	OK	11-12-2024	08:47:14.029	969.608	37.575	OK
11-12-2024	08:47:14.128	969.707	7.499	7.499	27.494	937	0	1.0900	OK	11-12-2024	08:47:14.128	969.707	37.575	OK
11-12-2024	08:47:14.229	969.808	7.500	7.500	27.496	937	0	1.0899	OK	11-12-2024	08:47:14.229	969.808	37.575	OK
11-12-2024	08:47:14.329	969.908	7.500	7.500	27.496	937	0	1.0900	OK	11-12-2024	08:47:14.329	969.908	37.575	OK
11-12-2024	08:47:14.516	970.095	7.501	7.501	27.503	937	0	1.0895	OK	11-12-2024	08:47:14.516	970.095	37.575	OK
11-12-2024	08:47:14.771	970.350	7.500	7.500	27.502	937	0	1.0895	OK	11-12-2024	08:47:14.771	970.350	37.575	OK
11-12-2024	08:47:14.930	970.509	7.500	7.500	27.501	937	0	1.0896	OK	11-12-2024	08:47:14.930	970.509	37.575	OK
11-12-2024	08:47:15.029	970.608	7.500	7.500	27.499	937	0	1.0898	OK	11-12-2024	08:47:15.029	970.608	37.575	OK
11-12-2024	08:47:15.128	970.707	7.500	7.500	27.500	937	0	1.0897	OK	11-12-2024	08:47:15.128	970.707	37.575	OK
11-12-2024	08:47:15.230	970.809	7.499	7.499	27.493	937	0	1.0902	OK	11-12-2024	08:47:15.230	970.809	37.574	OK
11-12-2024	08:47:15.329	970.908	7.500	7.500	27.498	937	0	1.0898	OK	11-12-2024	08:47:15.329	970.908	37.574	OK
11-12-2024	08:47:15.497	971.075	7.500	7.500	27.501	937	0	1.0896	OK	11-12-2024	08:47:15.497	971.075	37.573	OK
11-12-2024	08:47:15.750	971.329	7.501	7.501	27.503	937	0	1.0894	OK	11-12-2024	08:47:15.750	971.329	37.574	OK
11-12-2024	08:47:15.929	971.508	7.501	7.501	27.505	937	0	1.0893	OK	11-12-2024	08:47:15.929	971.508	37.574	OK
11-12-2024	08:47:16.029	971.608	7.500	7.500	27.498	937	0	1.0898	OK	11-12-2024	08:47:16.029	971.608	37.574	OK
11-12-2024	08:47:16.130	971.708	7.500	7.500	27.498	937	0	1.0898	OK	11-12-2024	08:47:16.130	971.708	37.574	OK
11-12-2024	08:47:16.230	971.809	7.499	7.499	27.495	937	0	1.0900	OK	11-12-2024	08:47:16.230	971.809	37.575	OK
11-12-2024	08:47:16.331	971.910	7.499	7.499	27.495	937	0	1.0900	OK	11-12-2024	08:47:16.331	971.910	37.575	OK
11-12-2024	08:47:16.500	972.079	7.500	7.500	27.500	937	0	1.0896	OK	11-12-2024	08:47:16.500	972.079	37.574	OK
11-12-2024	08:47:16.754	972.333	7.500	7.500	27.497	938	0	1.0898	OK	11-12-2024	08:47:16.754	972.333	37.573	OK
11-12-2024	08:47:16.930	972.509	7.500	7.500	27.501	937	0	1.0896	OK	11-12-2024	08:47:16.930	972.509	37.574	OK
11-12-2024	08:47:17.031	972.610	7.500	7.500	27.498	937	0	1.0898	OK	11-12-2024	08:47:17.031	972.610	37.574	OK
11-12-2024	08:47:17.132	972.711	7.499	7.499	27.495	937	0	1.0900	OK	11-12-2024	08:47:17.132	972.711	37.574	OK
11-12-2024	08:47:17.231	972.810	7.500	7.500	27.499	937	0	1.0897	OK	11-12-2024	08:47:17.231	972.810	37.576	OK
11-12-2024	08:47:17.331	972.910	7.499	7.499	27.492	937	0	1.0902	OK	11-12-2024	08:47:17.331	972.910	37.576	OK
11-12-2024	08:47:17.502	973.081	7.500	7.500	27.497	937	0	1.0899	OK	11-12-2024	08:47:17.502	973.081	37.576	OK
11-12-2024	08:47:17.759	973.338	7.500	7.500	27.501	937	0	1.0896	OK	11-12-2024	08:47:17.759	973.338	37.575	OK
11-12-2024	08:47:17.932	973.511	7.501	7.501	27.506	937	0	1.0893	OK	11-12-2024	08:47:17.932	973.511	37.575	OK
11-12-2024	08:47:18.031	973.610	7.500	7.500	27.496	937	0	1.0900	OK	11-12-2024	08:47:18.031	973.610	37.576	OK
11-12-2024	08:47:18.133	973.712	7.500	7.500	27.498	937	0	1.0898	OK	11-12-2024	08:47:18.133	973.712	37.576	OK
11-12-2024	08:47:18.233	973.812	7.500	7.500	27.496	937	0	1.0900	OK	11-12-2024	08:47:18.233	973.812	37.576	OK
11-12-2024	08:47:18.332	973.911	7.499	7.499	27.494	937	0	1.0901	OK	11-12-2024	08:47:18.332	973.911	37.576	OK
11-12-2024	08:47:18.501	974.080	7.500	7.500	27.499	937	0	1.0897	OK	11-12-2024	08:47:18.501	974.080	37.577	OK
11-12-2024	08:47:18.755	974.334	7.501	7.501	27.505	937	0	1.0893	OK	11-12-2024	08:47:18.755	974.334	37.577	OK
11-12-2024	08:47:18.933	974.512	7.500	7.500	27.502	937	0	1.0895	OK	11-12-2024	08:47:18.933	974.512	37.577	OK
11-12-2024	08:47:19.033	974.612	7.500	7.500	27.499	937	0	1.0897	OK	11-12-2024	08:47:19.033	974.612	37.577	OK
11-12-2024	08:47:19.133	974.712	7.500	7.500	27.500	937	0	1.0896	OK	11-12-2024	08:47:19.133	974.712	37.577	OK
11-12-2024	08:47:19.234	974.812	7.499	7.499	27.492	937	0	1.0902	OK	11-12-2024	08:47:19.234	974.812	37.577	OK
11-12-2024	08:47:19.334	974.912	7.500	7.500	27.498	937	0	1.0898	OK	11-12-2024	08:47:19.334	974.912	37.577	OK
11-12-2024	08:47:19.501	975.080	7.500	7.500	27.496	937	0	1.0899	OK	11-12-2024	08:47:19.501	975.080	37.577	OK
11-12-2024	08:47:19.759	975.338	7.500	7.500	27.502	937	0	1.0895	OK	11-12-2024	08:47:19.759	975.338	37.577	OK
11-12-2024	08:47:19.933	975.512	7.500	7.500	27.502	937	0	1.0895	OK	11-12-2024	08:47:19.933	975.512	37.577	OK
11-12-2024	08:47:20.033	975.612	7.500	7.500	27.498	937	0	1.0898	OK	11-12-2024	08:47:20.033	975.612	37.578	OK
11-12-2024	08:47:20.134	975.713	7.500	7.500	27.501	937	0	1.0896	OK	11-12-2024	08:47:20.134	975.713	37.578	OK
11-12-2024	08:47:20.235	975.814	7.499	7.499	27.492	937	0	1.0902	OK	11-12-2024	08:47:20.235	975.814	37.579	OK
11-12-2024	08:47:20.334	975.913	7.499	7.499	27.493	937	0	1.0901	OK	11-12-2024	08:47:20.334	975.913	37.579	OK
11-12-2024	08:47:20.502	976.081	7.500	7.500	27.498	937	0	1.0898	OK	11-12-2024	08:47:20.502	976.081	37.579	OK
11-12-2024	08:47:20.758	976.337	7.501	7.501	27.504	937	0	1.0894	OK	11-12-2024	08:47:20.758	976.337	37.580	OK
11-12-2024	08:47:20.935	976.514	7.500	7.500	27.501	938	0	1.0896	OK	11-12-2024	08:47:20.935	976.514	37.580	OK
11-12-2024	08:47:21.035	976.614	7.500	7.500	27.496	937	0	1.0899	OK	11-12-2024	08:47:21.035	976.614	37.580	OK
11-12-2024	08:47:21.134	976.713	7.500	7.500	27.499	937	0	1.0897	OK	11-12-2024	08:47:21.134	976.713	37.580	OK
11-12-2024	08:47:21.235	976.814	7.500	7.500	27.500	937	0	1.0896	OK	11-12-2024	08:47:21.235	976.814	37.580	OK
11-12-2024	08:47:21.334	976.913	7.500	7.500	27.497	937	0	1.0898	OK	11-12-2024	08:47:21.334	976.913	37.580	OK
11-12-2024	08:47:21.522	977.101	7.500	7.500	27.497	937	0	1.0898	OK	11-12-2024	08:47:21.522	977.101	37.580	OK
11-12-2024	08:47:21.796	977.375	7.500	7.500	27.502	937	0	1.0895	OK	11-12-2024	08:47:21.796	977.375	37.580	OK
11-12-2024	08:47:21.936	977.515	7.501	7.501	27.504	937	0	1.0894	OK	11-12-2024	08:47:21.936	977.515	37.581	OK
11-12-2024	08:47:22.036	977.615	7.500	7.500	27.497	937	0	1.0898	OK	11-12-2024	08:47:22.036	977.615	37.581	OK
11-12-2024	08:47:22.134	977.713	7.500	7.500	27.497	937	0	1.0898	OK	11-12-2024	08:47:22.134	977.713	37.581	OK
11-12-2024	08:47:22.235	977.814	7.499	7.499	27.493	937	0	1.0901	OK	11-12-2024	08:47:22.235	977.814	37.581	OK
11-12-2024	08:47:22.336	977.915	7.499	7.499	27.495	937	0	1.0900	OK	11-12-2024	08:47:22.336	977.915	37.581	OK
11-12-2024	08:47:22.507	978.086	7.500	7.500	27.501	937	0	1.0896	OK	11-12-2024	08:47:22.507	978.086	37.581	OK
11-12-2024	08:47:22.779	978.358	7.501	7.501	27.505	937	0	1.0893	OK	11-12-2024	08:47:22.779	978.358	37.581	OK
11-12-2024	08:47:22.935	978.514	7.500	7.500	27.500	937	0	1.0896	OK	11-12-2024	08:47:22.935	978.514	37.581	OK
11-12-2024	08:47:23.035	978.614	7.500	7.500	27.496	937	0	1.0899	OK	11-12-2024	08:47:23.035	978.614	37.581	OK
11-12-2024	08:47:23.139	978.718	7.499	7.499	27.493	937	0	1.0901	OK	11-12-2024	08:47:23.139	978.718	37.582	OK
11-12-2024	08:47:23.239	978.818	7.500	7.500	27.497	937	0	1.0898	OK	11-12-2024	08:47:23.239	978.818	37.582	OK
11-12-2024	08:47:23.336	978.915	7.499	7.499	27.495	937	0	1.0900	OK	11-12-2024	08:47:23.336	978.915	37.582	OK
11-12-2024	08:47:23.506	979.085	7.500	7.500	27.497	937	0	1.0898	OK	11-12-2024	08:47:23.506	979.085	37.581	OK
11-12-2024	08:47:23.761	979.340	7.500	7.500	27.501	937	0	1.0896	OK	11-12-2024	08:47:23.761	979.340	37.581	OK
11-12-2024	08:47:23.937	979.516	7.500	7.500	27.500	937	0	1.0896	OK	11-12-2024	08:47:23.937	979.516	37.581	OK
11-12-2024	08:47:24.039	979.618	7.500	7.500	27.499	937	0	1.0897	OK	11-12-2024	08:47:24.039	979.618	37.581	OK
11-12-2024	08:47:24.139	979.718	7.499	7.499	27.494	937	0	1.0900	OK	11-12-2024	08:47:24.139	979.718	37.581	OK
11-12-2024	08:47:24.240	979.819	7.500	7.500	27.497	937	0	1.0898	OK	11-12-2024	08:47:24.240	979.819	37.581	OK
11-12-2024	08:47:24.342	979.921	7.500	7.500	27.496	937	0	1.0899	OK	11-12-2024	08:47:24.342	979.921	37.581	OK
11-12-2024	08:47:24.513	980.092	7.500	7.500	27.498	937	0	1.0897	OK	11-12-2024	08:47:24.513	980.092	37.582	OK
11-12-2024	08:47:24.788	980.367	7.501	7.501	27.503	937	0	1.0894	OK	11-12-2024	08:47:24.788	980.367	37.582	OK
11-12-2024	08:47:24.942	980.521	7.500	7.500	27.499	938	0	1.0897	OK	11-12-2024	08:47:24.942	980.521	37.581	OK
11-12-2024	08:47:25.043	980.622	7.500	7.500	27.496	937	0	1.0899	OK	11-12-2024	08:47:25.043	980.622	37.581	OK
11-12-2024	08:47:25.144	980.723	7.500	7.500	27.497	937	0	1.0898	OK	11-12-2024	08:47:25.144	980.723	37.580	OK
11-12-2024	08:47:25.345	980.924	7.501	7.501	27.503	937	0	1.0894	OK	11-12-2024	08:47:25.345	980.924	37.581	OK
11-12-2024	08:47:25.532	981.111	7.500	7.500	27.496	937	0	1.0899	OK	11-12-2024	08:47:25.532	981.111	37.581	OK
11-12-2024	08:47:25.788	981.367	7.500	7.500	27.501	938	0	1.0896	OK	11-12-2024	08:47:25.788	981.367	37.580	OK
11-12-2024	08:47:25.945	981.524	7.501	7.501	27.504	937	0	1.0894	OK	11-12-2024	08:47:25.945	981.524	37.580	OK
11-12-2024	08:47:26.046	981.625	7.500	7.500	27.498	937	0	1.0898	OK	11-12-2024	08:47:26.046	981.625	37.580	OK
11-12-2024	08:47:26.147	981.726	7.500	7.500	27.501	937	0	1.0896	OK	11-12-2024	08:47:26.147	981.726	37.580	OK
11-12-2024	08:47:26.248	981.827	7.500	7.500	27.499	937	0	1.0897	OK	11-12-2024	08:47:26.248	981.827	37.580	OK
11-12-2024	08:47:26.348	981.927	7.499	7.499	27.492	937	0	1.0902	OK	11-12-2024	08:47:26.348	981.927	37.580	OK
11-12-2024	08:47:26.518	982.097	7.499	7.499	27.496	938	0	1.0900	OK	11-12-2024	08:47:26.518	982.097	37.580	OK
11-12-2024	08:47:26.775	982.354	7.500	7.500	27.501	938	0	1.0896	OK	11-12-2024	08:47:26.775	982.354	37.579	OK
11-12-2024	08:47:26.948	982.527	7.500	7.500	27.498	937	0	1.0898	OK	11-12-2024	08:47:26.948	982.527	37.579	OK
11-12-2024	08:47:27.049	982.628	7.500	7.500	27.499	937	0	1.0898	OK	11-12-2024	08:47:27.049	982.628	37.579	OK
11-12-2024	08:47:27.149	982.728	7.499	7.499	27.495	937	0	1.0900	OK	11-12-2024	08:47:27.149	982.728	37.578	OK
11-12-2024	08:47:27.249	982.828	7.499	7.499	27.493	937	0	1.0902	OK	11-12-2024	08:47:27.249	982.828	37.578	OK
11-12-2024	08:47:27.348	982.927	7.499	7.499	27.494	937	0	1.0901	OK	11-12-2024	08:47:27.348	982.927	37.578	OK
11-12-2024	08:47:27.522	983.101	7.500	7.500	27.500	937	0	1.0896	OK	11-12-2024	08:47:27.522	983.101	37.578	OK
11-12-2024	08:47:27.777	983.356	7.501	7.501	27.506	937	0	1.0892	OK	11-12-2024	08:47:27.777	983.356	37.577	OK
11-12-2024	08:47:27.949	983.528	7.500	7.500	27.499	937	0	1.0897	OK	11-12-2024	08:47:27.949	983.528	37.578	OK
11-12-2024	08:47:28.049	983.628	7.500	7.500	27.497	937	0	1.0898	OK	11-12-2024	08:47:28.049	983.628	37.578	OK
11-12-2024	08:47:28.149	983.728	7.499	7.499	27.493	937	0	1.0901	OK	11-12-2024	08:47:28.149	983.728	37.579	OK
11-12-2024	08:47:28.251	983.830	7.500	7.500	27.497	937	0	1.0898	OK	11-12-2024	08:47:28.251	983.830	37.579	OK
11-12-2024	08:47:28.350	983.929	7.499	7.499	27.494	937	0	1.0900	OK	11-12-2024	08:47:28.350	983.929	37.579	OK
11-12-2024	08:47:28.521	984.100	7.500	7.500	27.500	937	0	1.0896	OK	11-12-2024	08:47:28.521	984.100	37.579	OK
11-12-2024	08:47:28.776	984.355	7.500	7.500	27.502	937	0	1.0895	OK	11-12-2024	08:47:28.776	984.355	37.579	OK
11-12-2024	08:47:28.951	984.530	7.501	7.501	27.505	937	0	1.0893	OK	11-12-2024	08:47:28.951	984.530	37.579	OK
11-12-2024	08:47:29.051	984.630	7.499	7.499	27.493	937	0	1.0901	OK	11-12-2024	08:47:29.051	984.630	37.579	OK
11-12-2024	08:47:29.151	984.730	7.500	7.500	27.500	937	0	1.0896	OK	11-12-2024	08:47:29.151	984.730	37.579	OK
11-12-2024	08:47:29.252	984.831	7.499	7.499	27.492	937	0	1.0902	OK	11-12-2024	08:47:29.252	984.831	37.579	OK
11-12-2024	08:47:29.353	984.932	7.500	7.500	27.496	937	0	1.0899	OK	11-12-2024	08:47:29.353	984.932	37.579	OK
11-12-2024	08:47:29.526	985.104	7.500	7.500	27.498	937	0	1.0898	OK	11-12-2024	08:47:29.526	985.104	37.579	OK
11-12-2024	08:47:29.781	985.360	7.501	7.501	27.507	937	0	1.0892	OK	11-12-2024	08:47:29.781	985.360	37.578	OK
11-12-2024	08:47:29.957	985.536	7.501	7.501	27.503	937	0	1.0894	OK	11-12-2024	08:47:29.957	985.536	37.579	OK
11-12-2024	08:47:30.057	985.636	7.500	7.500	27.499	937	0	1.0897	OK	11-12-2024	08:47:30.057	985.636	37.579	OK
11-12-2024	08:47:30.159	985.738	7.500	7.500	27.496	937	0	1.0899	OK	11-12-2024	08:47:30.159	985.738	37.579	OK
11-12-2024	08:47:30.260	985.839	7.499	7.499	27.495	937	0	1.0900	OK	11-12-2024	08:47:30.260	985.839	37.579	OK
11-12-2024	08:47:30.358	985.937	7.499	7.499	27.490	937	0	1.0903	OK	11-12-2024	08:47:30.358	985.937	37.579	OK
11-12-2024	08:47:30.544	986.123	7.500	7.500	27.498	937	0	1.0898	OK	11-12-2024	08:47:30.544	986.123	37.580	OK
11-12-2024	08:47:30.814	986.392	7.500	7.500	27.499	937	0	1.0897	OK	11-12-2024	08:47:30.814	986.392	37.580	OK
11-12-2024	08:47:30.959	986.538	7.500	7.500	27.500	937	0	1.0896	OK	11-12-2024	08:47:30.959	986.538	37.580	OK
11-12-2024	08:47:31.063	986.642	7.500	7.500	27.498	937	0	1.0898	OK	11-12-2024	08:47:31.063	986.642	37.580	OK
11-12-2024	08:47:31.165	986.744	7.499	7.499	27.495	937	0	1.0900	OK	11-12-2024	08:47:31.165	986.744	37.580	OK
11-12-2024	08:47:31.265	986.844	7.500	7.500	27.497	937	0	1.0898	OK	11-12-2024	08:47:31.265	986.844	37.579	OK
11-12-2024	08:47:31.449	987.027	7.500	7.500	27.498	937	0	1.0898	OK	11-12-2024	08:47:31.449	987.027	37.578	OK
11-12-2024	08:47:31.720	987.298	7.501	7.501	27.503	937	0	1.0894	OK	11-12-2024	08:47:31.720	987.298	37.578	OK
11-12-2024	08:47:31.865	987.444	7.499	7.499	27.495	937	0	1.0900	OK	11-12-2024	08:47:31.865	987.444	37.578	OK
11-12-2024	08:47:31.966	987.545	7.500	7.500	27.497	937	0	1.0898	OK	11-12-2024	08:47:31.966	987.545	37.578	OK
11-12-2024	08:47:32.066	987.645	7.499	7.499	27.495	937	0	1.0900	OK	11-12-2024	08:47:32.066	987.645	37.578	OK
11-12-2024	08:47:32.167	987.746	7.499	7.499	27.490	937	0	1.0903	OK	11-12-2024	08:47:32.167	987.746	37.578	OK
11-12-2024	08:47:32.266	987.845	7.499	7.499	27.492	937	0	1.0902	OK	11-12-2024	08:47:32.266	987.845	37.578	OK
11-12-2024	08:47:32.467	988.046	7.500	7.500	27.498	937	0	1.0898	OK	11-12-2024	08:47:32.467	988.046	37.578	OK
11-12-2024	08:47:32.723	988.302	7.501	7.501	27.504	937	0	1.0894	OK	11-12-2024	08:47:32.723	988.302	37.578	OK
11-12-2024	08:47:32.869	988.448	7.500	7.500	27.497	937	0	1.0898	OK	11-12-2024	08:47:32.869	988.448	37.578	OK
11-12-2024	08:47:32.970	988.549	7.500	7.500	27.499	937	0	1.0897	OK	11-12-2024	08:47:32.970	988.549	37.578	OK
11-12-2024	08:47:33.070	988.649	7.500	7.500	27.498	937	0	1.0898	OK	11-12-2024	08:47:33.070	988.649	37.578	OK
11-12-2024	08:47:33.171	988.750	7.499	7.499	27.492	937	0	1.0902	OK	11-12-2024	08:47:33.171	988.750	37.578	OK
11-12-2024	08:47:33.269	988.848	7.500	7.500	27.496	937	0	1.0899	OK	11-12-2024	08:47:33.269	988.848	37.577	OK
11-12-2024	08:47:33.447	989.026	7.500	7.500	27.498	937	0	1.0898	OK	11-12-2024	08:47:33.447	989.026	37.577	OK
11-12-2024	08:47:33.702	989.281	7.501	7.501	27.503	938	0	1.0894	OK	11-12-2024	08:47:33.702	989.281	37.577	OK
11-12-2024	08:47:33.871	989.450	7.501	7.501	27.503	937	0	1.0894	OK	11-12-2024	08:47:33.871	989.450	37.577	OK
11-12-2024	08:47:33.970	989.549	7.500	7.500	27.497	937	0	1.0898	OK	11-12-2024	08:47:33.970	989.549	37.577	OK
11-12-2024	08:47:34.071	989.650	7.500	7.500	27.495	937	0	1.0899	OK	11-12-2024	08:47:34.071	989.650	37.576	OK
11-12-2024	08:47:34.171	989.750	7.500	7.500	27.497	937	0	1.0898	OK	11-12-2024	08:47:34.171	989.750	37.576	OK
11-12-2024	08:47:34.271	989.850	7.500	7.500	27.495	937	0	1.0899	OK	11-12-2024	08:47:34.271	989.850	37.576	OK
11-12-2024	08:47:34.448	990.027	7.500	7.500	27.498	937	0	1.0897	OK	11-12-2024	08:47:34.448	990.027	37.576	OK
11-12-2024	08:47:34.719	990.298	7.501	7.501	27.503	937	0	1.0894	OK	11-12-2024	08:47:34.719	990.298	37.576	OK
11-12-2024	08:47:34.873	990.452	7.501	7.501	27.505	937	0	1.0893	OK	11-12-2024	08:47:34.873	990.452	37.576	OK
11-12-2024	08:47:34.974	990.553	7.500	7.500	27.499	937	0	1.0897	OK	11-12-2024	08:47:34.974	990.553	37.576	OK
11-12-2024	08:47:35.074	990.653	7.500	7.500	27.501	937	0	1.0896	OK	11-12-2024	08:47:35.074	990.653	37.575	OK
11-12-2024	08:47:35.173	990.752	7.500	7.500	27.498	937	0	1.0898	OK	11-12-2024	08:47:35.173	990.752	37.575	OK
11-12-2024	08:47:35.273	990.852	7.500	7.500	27.499	937	0	1.0897	OK	11-12-2024	08:47:35.273	990.852	37.574	OK
11-12-2024	08:47:35.450	991.029	7.500	7.500	27.499	937	0	1.0897	OK	11-12-2024	08:47:35.450	991.029	37.574	OK
11-12-2024	08:47:35.702	991.281	7.501	7.501	27.507	937	0	1.0891	OK	11-12-2024	08:47:35.702	991.281	37.574	OK
11-12-2024	08:47:35.874	991.452	7.501	7.501	27.504	937	0	1.0893	OK	11-12-2024	08:47:35.874	991.452	37.574	OK
11-12-2024	08:47:35.975	991.553	7.501	7.501	27.503	937	0	1.0894	OK	11-12-2024	08:47:35.975	991.553	37.574	OK
11-12-2024	08:47:36.075	991.654	7.500	7.500	27.498	937	0	1.0897	OK	11-12-2024	08:47:36.075	991.654	37.574	OK
11-12-2024	08:47:36.174	991.753	7.500	7.500	27.498	937	0	1.0897	OK	11-12-2024	08:47:36.174	991.753	37.574	OK
11-12-2024	08:47:36.275	991.854	7.499	7.499	27.493	937	0	1.0901	OK	11-12-2024	08:47:36.275	991.854	37.574	OK
11-12-2024	08:47:36.451	992.030	7.500	7.500	27.501	937	0	1.0895	OK	11-12-2024	08:47:36.451	992.030	37.575	OK
11-12-2024	08:47:36.704	992.283	7.501	7.501	27.506	937	0	1.0892	OK	11-12-2024	08:47:36.704	992.283	37.574	OK
11-12-2024	08:47:36.875	992.454	7.500	7.500	27.501	937	0	1.0895	OK	11-12-2024	08:47:36.875	992.454	37.575	OK
11-12-2024	08:47:36.975	992.554	7.500	7.500	27.500	937	0	1.0896	OK	11-12-2024	08:47:36.975	992.554	37.575	OK
11-12-2024	08:47:37.077	992.655	7.500	7.500	27.498	937	0	1.0897	OK	11-12-2024	08:47:37.077	992.655	37.575	OK
11-12-2024	08:47:37.175	992.754	7.500	7.500	27.500	937	0	1.0896	OK	11-12-2024	08:47:37.175	992.754	37.575	OK
11-12-2024	08:47:37.274	992.853	7.500	7.500	27.497	937	0	1.0898	OK	11-12-2024	08:47:37.274	992.853	37.575	OK
11-12-2024	08:47:37.450	993.029	7.500	7.500	27.500	937	0	1.0896	OK	11-12-2024	08:47:37.450	993.029	37.575	OK
11-12-2024	08:47:37.704	993.283	7.501	7.501	27.506	937	0	1.0892	OK	11-12-2024	08:47:37.704	993.283	37.576	OK
11-12-2024	08:47:37.875	993.454	7.501	7.501	27.502	937	0	1.0895	OK	11-12-2024	08:47:37.875	993.454	37.576	OK
11-12-2024	08:47:37.976	993.555	7.501	7.501	27.502	937	0	1.0895	OK	11-12-2024	08:47:37.976	993.555	37.576	OK
11-12-2024	08:47:38.076	993.655	7.500	7.500	27.498	937	0	1.0897	OK	11-12-2024	08:47:38.076	993.655	37.575	OK
11-12-2024	08:47:38.175	993.754	7.500	7.500	27.497	937	0	1.0898	OK	11-12-2024	08:47:38.175	993.754	37.575	OK
11-12-2024	08:47:38.276	993.855	7.500	7.500	27.495	937	0	1.0899	OK	11-12-2024	08:47:38.276	993.855	37.576	OK
11-12-2024	08:47:38.448	994.027	7.501	7.501	27.503	937	0	1.0894	OK	11-12-2024	08:47:38.448	994.027	37.576	OK
11-12-2024	08:47:38.703	994.282	7.501	7.501	27.503	937	0	1.0894	OK	11-12-2024	08:47:38.703	994.282	37.576	OK
11-12-2024	08:47:38.877	994.456	7.501	7.501	27.504	937	0	1.0893	OK	11-12-2024	08:47:38.877	994.456	37.576	OK
11-12-2024	08:47:38.978	994.557	7.500	7.500	27.501	937	0	1.0895	OK	11-12-2024	08:47:38.978	994.557	37.576	OK
11-12-2024	08:47:39.081	994.660	7.500	7.500	27.501	937	0	1.0895	OK	11-12-2024	08:47:39.081	994.660	37.576	OK
11-12-2024	08:47:39.180	994.759	7.500	7.500	27.495	937	0	1.0899	OK	11-12-2024	08:47:39.180	994.759	37.576	OK
11-12-2024	08:47:39.282	994.861	7.500	7.500	27.497	937	0	1.0898	OK	11-12-2024	08:47:39.282	994.861	37.576	OK
11-12-2024	08:47:39.456	995.035	7.501	7.501	27.502	937	0	1.0895	OK	11-12-2024	08:47:39.456	995.035	37.576	OK
11-12-2024	08:47:39.710	995.289	7.501	7.501	27.507	937	0	1.0891	OK	11-12-2024	08:47:39.710	995.289	37.575	OK
11-12-2024	08:47:39.882	995.461	7.501	7.501	27.504	937	0	1.0893	OK	11-12-2024	08:47:39.882	995.461	37.575	OK
11-12-2024	08:47:39.981	995.560	7.500	7.500	27.501	937	0	1.0895	OK	11-12-2024	08:47:39.981	995.560	37.573	OK
11-12-2024	08:47:40.082	995.661	7.500	7.500	27.499	937	0	1.0897	OK	11-12-2024	08:47:40.082	995.661	37.573	OK
11-12-2024	08:47:40.182	995.761	7.500	7.500	27.499	937	0	1.0897	OK	11-12-2024	08:47:40.182	995.761	37.573	OK
11-12-2024	08:47:40.283	995.862	7.500	7.500	27.498	937	0	1.0897	OK	11-12-2024	08:47:40.283	995.862	37.573	OK
11-12-2024	08:47:40.454	996.033	7.500	7.500	27.498	937	0	1.0897	OK	11-12-2024	08:47:40.454	996.033	37.572	OK
11-12-2024	08:47:40.724	996.303	7.501	7.501	27.505	937	0	1.0892	OK	11-12-2024	08:47:40.724	996.303	37.570	OK
11-12-2024	08:47:40.883	996.462	7.501	7.501	27.501	937	0	1.0895	OK	11-12-2024	08:47:40.883	996.462	37.570	OK
11-12-2024	08:47:40.983	996.562	7.500	7.500	27.499	937	0	1.0897	OK	11-12-2024	08:47:40.983	996.562	37.570	OK
11-12-2024	08:47:41.084	996.663	7.500	7.500	27.496	937	0	1.0899	OK	11-12-2024	08:47:41.084	996.663	37.570	OK
11-12-2024	08:47:41.184	996.763	7.500	7.500	27.499	937	0	1.0897	OK	11-12-2024	08:47:41.184	996.763	37.570	OK
11-12-2024	08:47:41.286	996.864	7.501	7.501	27.502	937	0	1.0895	OK	11-12-2024	08:47:41.286	996.864	37.570	OK
11-12-2024	08:47:41.455	997.034	7.501	7.501	27.501	937	0	1.0895	OK	11-12-2024	08:47:41.455	997.034	37.570	OK
11-12-2024	08:47:41.711	997.290	7.501	7.501	27.504	937	0	1.0893	OK	11-12-2024	08:47:41.711	997.290	37.570	OK
11-12-2024	08:47:41.885	997.464	7.501	7.501	27.503	937	0	1.0894	OK	11-12-2024	08:47:41.885	997.464	37.569	OK
11-12-2024	08:47:41.985	997.564	7.500	7.500	27.498	937	0	1.0897	OK	11-12-2024	08:47:41.985	997.564	37.570	OK
11-12-2024	08:47:42.085	997.664	7.500	7.500	27.494	937	0	1.0900	OK	11-12-2024	08:47:42.085	997.664	37.570	OK
11-12-2024	08:47:42.185	997.764	7.500	7.500	27.497	937	0	1.0898	OK	11-12-2024	08:47:42.185	997.764	37.569	OK
11-12-2024	08:47:42.285	997.864	7.500	7.500	27.496	937	0	1.0899	OK	11-12-2024	08:47:42.285	997.864	37.569	OK
11-12-2024	08:47:42.455	998.034	7.501	7.501	27.501	937	0	1.0895	OK	11-12-2024	08:47:42.455	998.034	37.568	OK
11-12-2024	08:47:42.710	998.289	7.501	7.501	27.506	937	0	1.0892	OK	11-12-2024	08:47:42.710	998.289	37.567	OK
11-12-2024	08:47:42.885	998.464	7.501	7.501	27.504	937	0	1.0893	OK	11-12-2024	08:47:42.885	998.464	37.567	OK
11-12-2024	08:47:42.986	998.565	7.501	7.501	27.501	937	0	1.0895	OK	11-12-2024	08:47:42.986	998.565	37.568	OK
11-12-2024	08:47:43.086	998.665	7.500	7.500	27.500	937	0	1.0896	OK	11-12-2024	08:47:43.086	998.665	37.568	OK
11-12-2024	08:47:43.189	998.768	7.500	7.500	27.500	937	0	1.0896	OK	11-12-2024	08:47:43.189	998.768	37.569	OK
11-12-2024	08:47:43.287	998.866	7.500	7.500	27.496	937	0	1.0899	OK	11-12-2024	08:47:43.287	998.866	37.569	OK
11-12-2024	08:47:43.459	999.038	7.501	7.501	27.504	937	0	1.0893	OK	11-12-2024	08:47:43.459	999.038	37.568	OK
11-12-2024	08:47:43.745	999.324	7.501	7.501	27.505	937	0	1.0892	OK	11-12-2024	08:47:43.745	999.324	37.569	OK
11-12-2024	08:47:43.887	999.466	7.501	7.501	27.501	937	0	1.0895	OK	11-12-2024	08:47:43.887	999.466	37.569	OK
11-12-2024	08:47:43.987	999.566	7.500	7.500	27.498	937	0	1.0897	OK	11-12-2024	08:47:43.987	999.566	37.569	OK
11-12-2024	08:47:44.087	999.666	7.500	7.500	27.500	937	0	1.0896	OK	11-12-2024	08:47:44.087	999.666	37.569	OK
11-12-2024	08:47:44.187	999.766	7.500	7.500	27.500	937	0	1.0896	OK	11-12-2024	08:47:44.187	999.766	37.569	OK
11-12-2024	08:47:44.287	999.866	7.500	7.500	27.496	937	0	1.0899	OK	11-12-2024	08:47:44.287	999.866	37.569	OK
11-12-2024	08:47:44.455	1000.034	7.500	7.500	27.498	937	0	1.0897	OK	11-12-2024	08:47:44.455	1000.034	37.568	OK
11-12-2024	08:47:44.710	1000.289	7.501	7.501	27.502	937	0	1.0895	OK	11-12-2024	08:47:44.710	1000.289	37.568	OK
11-12-2024	08:47:44.888	1000.467	7.501	7.501	27.502	937	0	1.0895	OK	11-12-2024	08:47:44.888	1000.467	37.567	OK
11-12-2024	08:47:44.987	1000.566	7.500	7.500	27.499	937	0	1.0897	OK	11-12-2024	08:47:44.987	1000.566	37.567	OK
11-12-2024	08:47:45.088	1000.667	7.500	7.500	27.497	937	0	1.0898	OK	11-12-2024	08:47:45.088	1000.667	37.567	OK
11-12-2024	08:47:45.187	1000.766	7.500	7.500	27.496	937	0	1.0899	OK	11-12-2024	08:47:45.187	1000.766	37.567	OK
11-12-2024	08:47:45.288	1000.867	7.500	7.500	27.498	937	0	1.0897	OK	11-12-2024	08:47:45.288	1000.867	37.567	OK
11-12-2024	08:47:45.459	1001.038	7.500	7.500	27.498	937	0	1.0897	OK	11-12-2024	08:47:45.459	1001.038	37.568	OK
11-12-2024	08:47:45.728	1001.307	7.502	7.502	27.508	937	0	1.0890	OK	11-12-2024	08:47:45.728	1001.307	37.568	OK
11-12-2024	08:47:45.887	1001.466	7.501	7.501	27.503	937	0	1.0894	OK	11-12-2024	08:47:45.887	1001.466	37.569	OK
11-12-2024	08:47:45.987	1001.566	7.501	7.501	27.502	937	0	1.0895	OK	11-12-2024	08:47:45.987	1001.566	37.568	OK
11-12-2024	08:47:46.086	1001.665	7.501	7.501	27.501	937	0	1.0895	OK	11-12-2024	08:47:46.086	1001.665	37.568	OK
11-12-2024	08:47:46.187	1001.766	7.500	7.500	27.495	937	0	1.0899	OK	11-12-2024	08:47:46.187	1001.766	37.568	OK
11-12-2024	08:47:46.288	1001.867	7.500	7.500	27.495	937	0	1.0899	OK	11-12-2024	08:47:46.288	1001.867	37.568	OK
11-12-2024	08:47:46.459	1002.038	7.501	7.501	27.504	937	0	1.0893	OK	11-12-2024	08:47:46.459	1002.038	37.568	OK
11-12-2024	08:47:46.711	1002.290	7.501	7.501	27.501	937	0	1.0895	OK	11-12-2024	08:47:46.711	1002.290	37.569	OK
11-12-2024	08:47:46.888	1002.467	7.500	7.500	27.500	937	0	1.0896	OK	11-12-2024	08:47:46.888	1002.467	37.570	OK
11-12-2024	08:47:46.988	1002.567	7.500	7.500	27.496	937	0	1.0899	OK	11-12-2024	08:47:46.988	1002.567	37.570	OK
11-12-2024	08:47:47.088	1002.667	7.500	7.500	27.497	937	0	1.0898	OK	11-12-2024	08:47:47.088	1002.667	37.570	OK
11-12-2024	08:47:47.202	1002.781	7.499	7.499	27.494	937	0	1.0900	OK	11-12-2024	08:47:47.202	1002.781	37.571	OK
11-12-2024	08:47:47.289	1002.868	7.499	7.499	27.494	937	0	1.0900	OK	11-12-2024	08:47:47.289	1002.868	37.571	OK
11-12-2024	08:47:47.458	1003.037	7.500	7.500	27.496	937	0	1.0899	OK	11-12-2024	08:47:47.458	1003.037	37.570	OK
11-12-2024	08:47:47.731	1003.309	7.501	7.501	27.503	937	0	1.0894	OK	11-12-2024	08:47:47.731	1003.309	37.571	OK
11-12-2024	08:47:47.890	1003.469	7.500	7.500	27.499	937	0	1.0897	OK	11-12-2024	08:47:47.890	1003.469	37.572	OK
11-12-2024	08:47:47.989	1003.568	7.500	7.500	27.500	937	0	1.0896	OK	11-12-2024	08:47:47.989	1003.568	37.572	OK
11-12-2024	08:47:48.092	1003.671	7.500	7.500	27.496	937	0	1.0899	OK	11-12-2024	08:47:48.092	1003.671	37.573	OK
11-12-2024	08:47:48.201	1003.780	7.500	7.500	27.501	937	0	1.0895	OK	11-12-2024	08:47:48.201	1003.780	37.573	OK
11-12-2024	08:47:48.292	1003.871	7.499	7.499	27.493	937	0	1.0901	OK	11-12-2024	08:47:48.292	1003.871	37.573	OK
11-12-2024	08:47:48.464	1004.043	7.501	7.501	27.503	937	0	1.0894	OK	11-12-2024	08:47:48.464	1004.043	37.574	OK
11-12-2024	08:47:48.718	1004.297	7.501	7.501	27.505	937	0	1.0892	OK	11-12-2024	08:47:48.718	1004.297	37.575	OK
11-12-2024	08:47:48.893	1004.472	7.501	7.501	27.504	937	0	1.0893	OK	11-12-2024	08:47:48.893	1004.472	37.574	OK
11-12-2024	08:47:48.991	1004.570	7.501	7.501	27.502	937	0	1.0895	OK	11-12-2024	08:47:48.991	1004.570	37.574	OK
11-12-2024	08:47:49.092	1004.671	7.500	7.500	27.501	937	0	1.0895	OK	11-12-2024	08:47:49.092	1004.671	37.575	OK
11-12-2024	08:47:49.200	1004.779	7.499	7.499	27.494	937	0	1.0900	OK	11-12-2024	08:47:49.200	1004.779	37.575	OK
11-12-2024	08:47:49.291	1004.870	7.499	7.499	27.493	937	0	1.0901	OK	11-12-2024	08:47:49.291	1004.870	37.575	OK
11-12-2024	08:47:49.462	1005.041	7.500	7.500	27.497	937	0	1.0898	OK	11-12-2024	08:47:49.462	1005.041	37.575	OK
11-12-2024	08:47:49.718	1005.297	7.501	7.501	27.503	937	0	1.0894	OK	11-12-2024	08:47:49.718	1005.297	37.575	OK
11-12-2024	08:47:49.892	1005.471	7.501	7.501	27.501	937	0	1.0895	OK	11-12-2024	08:47:49.892	1005.471	37.575	OK
11-12-2024	08:47:49.993	1005.572	7.500	7.500	27.499	937	0	1.0896	OK	11-12-2024	08:47:49.993	1005.572	37.575	OK
11-12-2024	08:47:50.092	1005.671	7.500	7.500	27.497	937	0	1.0897	OK	11-12-2024	08:47:50.092	1005.671	37.574	OK
11-12-2024	08:47:50.200	1005.779	7.500	7.500	27.495	937	0	1.0899	OK	11-12-2024	08:47:50.200	1005.779	37.574	OK
11-12-2024	08:47:50.292	1005.871	7.499	7.499	27.493	937	0	1.0900	OK	11-12-2024	08:47:50.292	1005.871	37.574	OK
11-12-2024	08:47:50.463	1006.042	7.501	7.501	27.501	937	0	1.0895	OK	11-12-2024	08:47:50.463	1006.042	37.574	OK
11-12-2024	08:47:50.720	1006.299	7.500	7.500	27.500	937	0	1.0895	OK	11-12-2024	08:47:50.720	1006.299	37.574	OK
11-12-2024	08:47:50.893	1006.472	7.500	7.500	27.501	937	0	1.0895	OK	11-12-2024	08:47:50.893	1006.472	37.574	OK
11-12-2024	08:47:50.993	1006.572	7.500	7.500	27.497	937	0	1.0898	OK	11-12-2024	08:47:50.993	1006.572	37.574	OK
11-12-2024	08:47:51.095	1006.674	7.500	7.500	27.496	937	0	1.0899	OK	11-12-2024	08:47:51.095	1006.674	37.573	OK
11-12-2024	08:47:51.202	1006.781	7.500	7.500	27.499	937	0	1.0897	OK	11-12-2024	08:47:51.202	1006.781	37.573	OK
11-12-2024	08:47:51.457	1007.036	7.500	7.500	27.501	937	0	1.0895	OK	11-12-2024	08:47:51.457	1007.036	37.574	OK
11-12-2024	08:47:51.728	1007.307	7.501	7.501	27.505	937	0	1.0892	OK	11-12-2024	08:47:51.728	1007.307	37.574	OK
11-12-2024	08:47:51.896	1007.475	7.500	7.500	27.499	937	0	1.0897	OK	11-12-2024	08:47:51.896	1007.475	37.573	OK
11-12-2024	08:47:51.995	1007.574	7.501	7.501	27.502	937	0	1.0895	OK	11-12-2024	08:47:51.995	1007.574	37.573	OK
11-12-2024	08:47:52.096	1007.675	7.500	7.500	27.500	937	0	1.0896	OK	11-12-2024	08:47:52.096	1007.675	37.574	OK
11-12-2024	08:47:52.200	1007.779	7.500	7.500	27.499	937	0	1.0897	OK	11-12-2024	08:47:52.200	1007.779	37.574	OK
11-12-2024	08:47:52.458	1008.037	7.501	7.501	27.503	937	0	1.0894	OK	11-12-2024	08:47:52.458	1008.037	37.573	OK
11-12-2024	08:47:52.715	1008.294	7.502	7.502	27.509	937	0	1.0890	OK	11-12-2024	08:47:52.715	1008.294	37.574	OK
11-12-2024	08:47:52.898	1008.477	7.501	7.501	27.507	937	0	1.0891	OK	11-12-2024	08:47:52.898	1008.477	37.574	OK
11-12-2024	08:47:52.999	1008.577	7.500	7.500	27.501	937	0	1.0895	OK	11-12-2024	08:47:52.999	1008.577	37.574	OK
11-12-2024	08:47:53.098	1008.677	7.500	7.500	27.500	937	0	1.0896	OK	11-12-2024	08:47:53.098	1008.677	37.574	OK
11-12-2024	08:47:53.200	1008.779	7.500	7.500	27.501	937	0	1.0895	OK	11-12-2024	08:47:53.200	1008.779	37.574	OK
11-12-2024	08:47:53.299	1008.878	7.500	7.500	27.495	937	0	1.0899	OK	11-12-2024	08:47:53.299	1008.878	37.574	OK
11-12-2024	08:47:53.470	1009.049	7.500	7.500	27.500	937	0	1.0896	OK	11-12-2024	08:47:53.470	1009.049	37.574	OK
11-12-2024	08:47:53.723	1009.302	7.501	7.501	27.503	937	0	1.0894	OK	11-12-2024	08:47:53.723	1009.302	37.575	OK
11-12-2024	08:47:53.898	1009.477	7.501	7.501	27.508	937	0	1.0890	OK	11-12-2024	08:47:53.898	1009.477	37.575	OK
11-12-2024	08:47:53.997	1009.576	7.500	7.500	27.498	937	0	1.0897	OK	11-12-2024	08:47:53.997	1009.576	37.575	OK
11-12-2024	08:47:54.098	1009.677	7.499	7.499	27.493	937	0	1.0900	OK	11-12-2024	08:47:54.098	1009.677	37.574	OK
11-12-2024	08:47:54.201	1009.780	7.500	7.500	27.498	937	0	1.0897	OK	11-12-2024	08:47:54.201	1009.780	37.574	OK
11-12-2024	08:47:54.299	1009.877	7.500	7.500	27.499	937	0	1.0896	OK	11-12-2024	08:47:54.299	1009.877	37.574	OK
11-12-2024	08:47:54.469	1010.047	7.500	7.500	27.496	937	0	1.0898	OK	11-12-2024	08:47:54.469	1010.047	37.574	OK
11-12-2024	08:47:54.726	1010.305	7.501	7.501	27.507	937	0	1.0891	OK	11-12-2024	08:47:54.726	1010.305	37.574	OK
11-12-2024	08:47:54.899	1010.478	7.501	7.501	27.507	937	0	1.0891	OK	11-12-2024	08:47:54.899	1010.478	37.574	OK
11-12-2024	08:47:54.998	1010.577	7.501	7.501	27.501	937	0	1.0895	OK	11-12-2024	08:47:54.998	1010.577	37.576	OK
11-12-2024	08:47:55.099	1010.678	7.501	7.501	27.502	937	0	1.0894	OK	11-12-2024	08:47:55.099	1010.678	37.576	OK
11-12-2024	08:47:55.203	1010.782	7.500	7.500	27.499	937	0	1.0896	OK	11-12-2024	08:47:55.203	1010.782	37.576	OK
11-12-2024	08:47:55.459	1011.038	7.501	7.501	27.504	937	0	1.0893	OK	11-12-2024	08:47:55.459	1011.038	37.576	OK
11-12-2024	08:47:55.712	1011.291	7.501	7.501	27.507	937	0	1.0891	OK	11-12-2024	08:47:55.712	1011.291	37.576	OK
11-12-2024	08:47:55.799	1011.378	7.500	7.500	27.499	937	0	1.0896	OK	11-12-2024	08:47:55.799	1011.378	37.576	OK
11-12-2024	08:47:55.899	1011.478	7.500	7.500	27.499	937	0	1.0896	OK	11-12-2024	08:47:55.899	1011.478	37.576	OK
11-12-2024	08:47:55.999	1011.578	7.500	7.500	27.498	937	0	1.0897	OK	11-12-2024	08:47:55.999	1011.578	37.575	OK
11-12-2024	08:47:56.099	1011.678	7.500	7.500	27.495	937	0	1.0899	OK	11-12-2024	08:47:56.099	1011.678	37.575	OK
11-12-2024	08:47:56.200	1011.779	7.500	7.500	27.498	937	0	1.0897	OK	11-12-2024	08:47:56.200	1011.779	37.575	OK
11-12-2024	08:47:56.299	1011.878	7.500	7.500	27.495	937	0	1.0899	OK	11-12-2024	08:47:56.299	1011.878	37.575	OK
11-12-2024	08:47:56.471	1012.050	7.500	7.500	27.500	937	0	1.0896	OK	11-12-2024	08:47:56.471	1012.050	37.575	OK
11-12-2024	08:47:56.727	1012.306	7.501	7.501	27.502	937	0	1.0895	OK	11-12-2024	08:47:56.727	1012.306	37.575	OK
11-12-2024	08:47:56.901	1012.480	7.501	7.501	27.505	937	0	1.0892	OK	11-12-2024	08:47:56.901	1012.480	37.575	OK
11-12-2024	08:47:57.002	1012.581	7.501	7.501	27.502	937	0	1.0895	OK	11-12-2024	08:47:57.002	1012.581	37.576	OK
11-12-2024	08:47:57.101	1012.680	7.500	7.500	27.496	937	0	1.0899	OK	11-12-2024	08:47:57.101	1012.680	37.576	OK
11-12-2024	08:47:57.201	1012.780	7.500	7.500	27.501	937	0	1.0895	OK	11-12-2024	08:47:57.201	1012.780	37.577	OK
11-12-2024	08:47:57.460	1013.039	7.501	7.501	27.504	937	0	1.0893	OK	11-12-2024	08:47:57.460	1013.039	37.577	OK
11-12-2024	08:47:57.728	1013.307	7.501	7.501	27.505	937	0	1.0892	OK	11-12-2024	08:47:57.728	1013.307	37.577	OK
11-12-2024	08:47:57.901	1013.480	7.501	7.501	27.505	937	0	1.0892	OK	11-12-2024	08:47:57.901	1013.480	37.577	OK
11-12-2024	08:47:58.001	1013.580	7.501	7.501	27.502	937	0	1.0895	OK	11-12-2024	08:47:58.001	1013.580	37.577	OK
11-12-2024	08:47:58.100	1013.679	7.500	7.500	27.499	937	0	1.0897	OK	11-12-2024	08:47:58.100	1013.679	37.577	OK
11-12-2024	08:47:58.202	1013.781	7.500	7.500	27.498	937	0	1.0897	OK	11-12-2024	08:47:58.202	1013.781	37.576	OK
11-12-2024	08:47:58.300	1013.879	7.501	7.501	27.503	937	0	1.0894	OK	11-12-2024	08:47:58.300	1013.879	37.576	OK
11-12-2024	08:47:58.472	1014.051	7.501	7.501	27.504	937	0	1.0893	OK	11-12-2024	08:47:58.472	1014.051	37.576	OK
11-12-2024	08:47:58.728	1014.307	7.500	7.500	27.498	937	0	1.0897	OK	11-12-2024	08:47:58.728	1014.307	37.576	OK
11-12-2024	08:47:58.903	1014.482	7.501	7.501	27.504	937	0	1.0893	OK	11-12-2024	08:47:58.903	1014.482	37.576	OK
11-12-2024	08:47:59.002	1014.581	7.500	7.500	27.501	937	0	1.0895	OK	11-12-2024	08:47:59.002	1014.581	37.576	OK
11-12-2024	08:47:59.103	1014.682	7.501	7.501	27.503	937	0	1.0893	OK	11-12-2024	08:47:59.103	1014.682	37.576	OK
11-12-2024	08:47:59.203	1014.782	7.500	7.500	27.500	937	0	1.0895	OK	11-12-2024	08:47:59.203	1014.782	37.576	OK
11-12-2024	08:47:59.304	1014.883	7.500	7.500	27.497	937	0	1.0897	OK	11-12-2024	08:47:59.304	1014.883	37.576	OK
11-12-2024	08:47:59.473	1015.052	7.501	7.501	27.505	937	0	1.0892	OK	11-12-2024	08:47:59.473	1015.052	37.576	OK
11-12-2024	08:47:59.728	1015.307	7.501	7.501	27.505	937	0	1.0892	OK	11-12-2024	08:47:59.728	1015.307	37.577	OK
11-12-2024	08:47:59.904	1015.483	7.501	7.501	27.504	937	0	1.0893	OK	11-12-2024	08:47:59.904	1015.483	37.577	OK
11-12-2024	08:48:00.004	1015.583	7.500	7.500	27.500	937	0	1.0895	OK	11-12-2024	08:48:00.004	1015.583	37.577	OK
11-12-2024	08:48:00.104	1015.683	7.500	7.500	27.499	937	0	1.0897	OK	11-12-2024	08:48:00.104	1015.683	37.577	OK
11-12-2024	08:48:00.204	1015.783	7.500	7.500	27.496	937	0	1.0899	OK	11-12-2024	08:48:00.204	1015.783	37.577	OK
11-12-2024	08:48:00.306	1015.885	7.500	7.500	27.498	937	0	1.0897	OK	11-12-2024	08:48:00.306	1015.885	37.577	OK
11-12-2024	08:48:00.505	1016.084	7.501	7.501	27.502	937	0	1.0895	OK	11-12-2024	08:48:00.505	1016.084	37.577	OK
11-12-2024	08:48:00.778	1016.357	7.501	7.501	27.507	937	0	1.0891	OK	11-12-2024	08:48:00.778	1016.357	37.578	OK
11-12-2024	08:48:00.906	1016.485	7.501	7.501	27.504	937	0	1.0893	OK	11-12-2024	08:48:00.906	1016.485	37.579	OK
11-12-2024	08:48:01.005	1016.584	7.500	7.500	27.499	937	0	1.0897	OK	11-12-2024	08:48:01.005	1016.584	37.578	OK
11-12-2024	08:48:01.105	1016.684	7.500	7.500	27.498	937	0	1.0897	OK	11-12-2024	08:48:01.105	1016.684	37.578	OK
11-12-2024	08:48:01.207	1016.786	7.500	7.500	27.499	937	0	1.0897	OK	11-12-2024	08:48:01.207	1016.786	37.579	OK
11-12-2024	08:48:01.306	1016.885	7.500	7.500	27.497	937	0	1.0898	OK	11-12-2024	08:48:01.306	1016.885	37.579	OK
11-12-2024	08:48:01.475	1017.054	7.500	7.500	27.499	937	0	1.0897	OK	11-12-2024	08:48:01.475	1017.054	37.579	OK
11-12-2024	08:48:01.748	1017.327	7.501	7.501	27.505	937	0	1.0892	OK	11-12-2024	08:48:01.748	1017.327	37.579	OK
11-12-2024	08:48:01.908	1017.487	7.500	7.500	27.500	937	0	1.0896	OK	11-12-2024	08:48:01.908	1017.487	37.578	OK
11-12-2024	08:48:02.007	1017.586	7.500	7.500	27.496	937	0	1.0899	OK	11-12-2024	08:48:02.007	1017.586	37.578	OK
11-12-2024	08:48:02.107	1017.686	7.500	7.500	27.496	937	0	1.0899	OK	11-12-2024	08:48:02.107	1017.686	37.578	OK
11-12-2024	08:48:02.207	1017.786	7.499	7.499	27.494	937	0	1.0900	OK	11-12-2024	08:48:02.207	1017.786	37.577	OK
11-12-2024	08:48:02.307	1017.886	7.499	7.499	27.493	937	0	1.0901	OK	11-12-2024	08:48:02.307	1017.886	37.577	OK
11-12-2024	08:48:02.494	1018.073	7.501	7.501	27.502	937	0	1.0895	OK	11-12-2024	08:48:02.494	1018.073	37.579	OK
11-12-2024	08:48:02.750	1018.329	7.500	7.500	27.500	937	0	1.0896	OK	11-12-2024	08:48:02.750	1018.329	37.579	OK
11-12-2024	08:48:02.909	1018.487	7.501	7.501	27.505	937	0	1.0892	OK	11-12-2024	08:48:02.909	1018.487	37.579	OK
11-12-2024	08:48:03.008	1018.587	7.500	7.500	27.498	937	0	1.0897	OK	11-12-2024	08:48:03.008	1018.587	37.579	OK
11-12-2024	08:48:03.109	1018.688	7.500	7.500	27.495	937	0	1.0899	OK	11-12-2024	08:48:03.109	1018.688	37.578	OK
11-12-2024	08:48:03.210	1018.789	7.500	7.500	27.496	937	0	1.0898	OK	11-12-2024	08:48:03.210	1018.789	37.578	OK
11-12-2024	08:48:03.310	1018.889	7.500	7.500	27.497	937	0	1.0897	OK	11-12-2024	08:48:03.310	1018.889	37.579	OK
11-12-2024	08:48:03.493	1019.072	7.500	7.500	27.500	937	0	1.0895	OK	11-12-2024	08:48:03.493	1019.072	37.578	OK
11-12-2024	08:48:03.750	1019.329	7.501	7.501	27.507	937	0	1.0891	OK	11-12-2024	08:48:03.750	1019.329	37.579	OK
11-12-2024	08:48:03.911	1019.490	7.500	7.500	27.501	937	0	1.0895	OK	11-12-2024	08:48:03.911	1019.490	37.578	OK
11-12-2024	08:48:04.010	1019.589	7.500	7.500	27.498	937	0	1.0897	OK	11-12-2024	08:48:04.010	1019.589	37.578	OK
11-12-2024	08:48:04.110	1019.689	7.501	7.501	27.502	937	0	1.0894	OK	11-12-2024	08:48:04.110	1019.689	37.577	OK
11-12-2024	08:48:04.210	1019.789	7.500	7.500	27.499	937	0	1.0896	OK	11-12-2024	08:48:04.210	1019.789	37.577	OK
11-12-2024	08:48:04.310	1019.889	7.500	7.500	27.498	937	0	1.0897	OK	11-12-2024	08:48:04.310	1019.889	37.577	OK
11-12-2024	08:48:04.480	1020.059	7.501	7.501	27.501	937	0	1.0895	OK	11-12-2024	08:48:04.480	1020.059	37.577	OK
11-12-2024	08:48:04.734	1020.313	7.501	7.501	27.505	937	0	1.0892	OK	11-12-2024	08:48:04.734	1020.313	37.576	OK
11-12-2024	08:48:04.910	1020.489	7.501	7.501	27.505	937	0	1.0892	OK	11-12-2024	08:48:04.910	1020.489	37.575	OK
11-12-2024	08:48:05.009	1020.588	7.501	7.501	27.501	937	0	1.0895	OK	11-12-2024	08:48:05.009	1020.588	37.575	OK
11-12-2024	08:48:05.112	1020.691	7.500	7.500	27.498	937	0	1.0897	OK	11-12-2024	08:48:05.112	1020.691	37.577	OK
11-12-2024	08:48:05.211	1020.790	7.500	7.500	27.500	937	0	1.0895	OK	11-12-2024	08:48:05.211	1020.790	37.577	OK
11-12-2024	08:48:05.312	1020.890	7.500	7.500	27.495	937	0	1.0899	OK	11-12-2024	08:48:05.312	1020.890	37.577	OK
11-12-2024	08:48:05.499	1021.078	7.501	7.501	27.505	937	0	1.0892	OK	11-12-2024	08:48:05.499	1021.078	37.577	OK
11-12-2024	08:48:05.757	1021.336	7.501	7.501	27.503	937	0	1.0893	OK	11-12-2024	08:48:05.757	1021.336	37.576	OK
11-12-2024	08:48:05.911	1021.490	7.501	7.501	27.503	937	0	1.0893	OK	11-12-2024	08:48:05.911	1021.490	37.577	OK
11-12-2024	08:48:06.012	1021.591	7.501	7.501	27.501	937	0	1.0895	OK	11-12-2024	08:48:06.012	1021.591	37.577	OK
11-12-2024	08:48:06.111	1021.690	7.500	7.500	27.496	937	0	1.0898	OK	11-12-2024	08:48:06.111	1021.690	37.576	OK
11-12-2024	08:48:06.211	1021.790	7.500	7.500	27.495	937	0	1.0899	OK	11-12-2024	08:48:06.211	1021.790	37.576	OK
11-12-2024	08:48:06.312	1021.891	7.500	7.500	27.497	937	0	1.0897	OK	11-12-2024	08:48:06.312	1021.891	37.576	OK
11-12-2024	08:48:06.481	1022.060	7.500	7.500	27.499	937	0	1.0896	OK	11-12-2024	08:48:06.481	1022.060	37.576	OK
11-12-2024	08:48:06.739	1022.318	7.501	7.501	27.501	937	0	1.0895	OK	11-12-2024	08:48:06.739	1022.318	37.576	OK
11-12-2024	08:48:06.914	1022.493	7.501	7.501	27.505	937	0	1.0892	OK	11-12-2024	08:48:06.914	1022.493	37.575	OK
11-12-2024	08:48:07.015	1022.594	7.500	7.500	27.500	937	0	1.0895	OK	11-12-2024	08:48:07.015	1022.594	37.575	OK
11-12-2024	08:48:07.215	1022.794	7.501	7.501	27.506	937	0	1.0891	OK	11-12-2024	08:48:07.215	1022.794	37.576	OK
11-12-2024	08:48:07.316	1022.895	7.500	7.500	27.500	937	0	1.0895	OK	11-12-2024	08:48:07.316	1022.895	37.576	OK
11-12-2024	08:48:07.487	1023.066	7.501	7.501	27.505	937	0	1.0892	OK	11-12-2024	08:48:07.487	1023.066	37.577	OK
11-12-2024	08:48:07.743	1023.322	7.501	7.501	27.502	937	0	1.0894	OK	11-12-2024	08:48:07.743	1023.322	37.577	OK
11-12-2024	08:48:07.917	1023.496	7.501	7.501	27.504	937	0	1.0893	OK	11-12-2024	08:48:07.917	1023.496	37.577	OK
11-12-2024	08:48:08.016	1023.595	7.501	7.501	27.505	937	0	1.0892	OK	11-12-2024	08:48:08.016	1023.595	37.577	OK
11-12-2024	08:48:08.118	1023.697	7.500	7.500	27.500	937	0	1.0895	OK	11-12-2024	08:48:08.118	1023.697	37.577	OK
11-12-2024	08:48:08.217	1023.796	7.501	7.501	27.501	937	0	1.0895	OK	11-12-2024	08:48:08.217	1023.796	37.577	OK
11-12-2024	08:48:08.317	1023.896	7.500	7.500	27.498	937	0	1.0897	OK	11-12-2024	08:48:08.317	1023.896	37.577	OK
11-12-2024	08:48:08.491	1024.070	7.502	7.502	27.508	937	0	1.0890	OK	11-12-2024	08:48:08.491	1024.070	37.577	OK
11-12-2024	08:48:08.746	1024.325	7.501	7.501	27.505	937	0	1.0892	OK	11-12-2024	08:48:08.746	1024.325	37.577	OK
11-12-2024	08:48:08.918	1024.497	7.502	7.502	27.508	937	0	1.0890	OK	11-12-2024	08:48:08.918	1024.497	37.578	OK
11-12-2024	08:48:09.017	1024.596	7.501	7.501	27.502	937	0	1.0894	OK	11-12-2024	08:48:09.017	1024.596	37.578	OK
11-12-2024	08:48:09.117	1024.696	7.500	7.500	27.501	937	0	1.0895	OK	11-12-2024	08:48:09.117	1024.696	37.578	OK
11-12-2024	08:48:09.218	1024.797	7.500	7.500	27.498	937	0	1.0897	OK	11-12-2024	08:48:09.218	1024.797	37.578	OK
11-12-2024	08:48:09.318	1024.897	7.500	7.500	27.496	937	0	1.0898	OK	11-12-2024	08:48:09.318	1024.897	37.579	OK
11-12-2024	08:48:09.487	1025.066	7.500	7.500	27.501	937	0	1.0895	OK	11-12-2024	08:48:09.487	1025.066	37.579	OK
11-12-2024	08:48:09.743	1025.322	7.501	7.501	27.506	937	0	1.0891	OK	11-12-2024	08:48:09.743	1025.322	37.580	OK
11-12-2024	08:48:09.919	1025.498	7.501	7.501	27.504	937	0	1.0893	OK	11-12-2024	08:48:09.919	1025.498	37.581	OK
11-12-2024	08:48:10.019	1025.598	7.500	7.500	27.498	937	0	1.0897	OK	11-12-2024	08:48:10.019	1025.598	37.581	OK
11-12-2024	08:48:10.118	1025.697	7.500	7.500	27.499	937	0	1.0896	OK	11-12-2024	08:48:10.118	1025.697	37.581	OK
11-12-2024	08:48:10.220	1025.799	7.500	7.500	27.499	937	0	1.0896	OK	11-12-2024	08:48:10.220	1025.799	37.581	OK
11-12-2024	08:48:10.320	1025.899	7.500	7.500	27.496	937	0	1.0898	OK	11-12-2024	08:48:10.320	1025.899	37.581	OK
11-12-2024	08:48:10.491	1026.070	7.500	7.500	27.498	937	0	1.0897	OK	11-12-2024	08:48:10.491	1026.070	37.581	OK
11-12-2024	08:48:10.746	1026.325	7.501	7.501	27.504	937	0	1.0893	OK	11-12-2024	08:48:10.746	1026.325	37.581	OK
11-12-2024	08:48:10.920	1026.499	7.501	7.501	27.505	937	0	1.0892	OK	11-12-2024	08:48:10.920	1026.499	37.581	OK
11-12-2024	08:48:11.020	1026.599	7.501	7.501	27.504	937	0	1.0893	OK	11-12-2024	08:48:11.020	1026.599	37.581	OK
11-12-2024	08:48:11.122	1026.701	7.500	7.500	27.495	937	0	1.0899	OK	11-12-2024	08:48:11.122	1026.701	37.581	OK
11-12-2024	08:48:11.221	1026.800	7.499	7.499	27.494	937	0	1.0900	OK	11-12-2024	08:48:11.221	1026.800	37.581	OK
11-12-2024	08:48:11.321	1026.900	7.500	7.500	27.497	937	0	1.0897	OK	11-12-2024	08:48:11.321	1026.900	37.581	OK
11-12-2024	08:48:11.493	1027.072	7.500	7.500	27.500	937	0	1.0895	OK	11-12-2024	08:48:11.493	1027.072	37.581	OK
11-12-2024	08:48:11.753	1027.332	7.501	7.501	27.506	937	0	1.0891	OK	11-12-2024	08:48:11.753	1027.332	37.580	OK
11-12-2024	08:48:11.924	1027.503	7.501	7.501	27.505	937	0	1.0892	OK	11-12-2024	08:48:11.924	1027.503	37.580	OK
11-12-2024	08:48:12.025	1027.604	7.500	7.500	27.498	937	0	1.0897	OK	11-12-2024	08:48:12.025	1027.604	37.581	OK
11-12-2024	08:48:12.126	1027.705	7.500	7.500	27.500	937	0	1.0895	OK	11-12-2024	08:48:12.126	1027.705	37.581	OK
11-12-2024	08:48:12.226	1027.805	7.500	7.500	27.498	936	0	1.0897	OK	11-12-2024	08:48:12.226	1027.805	37.580	OK
11-12-2024	08:48:12.326	1027.905	7.500	7.500	27.499	937	0	1.0896	OK	11-12-2024	08:48:12.326	1027.905	37.580	OK
11-12-2024	08:48:12.497	1028.076	7.500	7.500	27.499	937	0	1.0896	OK	11-12-2024	08:48:12.497	1028.076	37.579	OK
11-12-2024	08:48:12.752	1028.331	7.501	7.501	27.508	937	0	1.0890	OK	11-12-2024	08:48:12.752	1028.331	37.579	OK
11-12-2024	08:48:12.927	1028.506	7.501	7.501	27.506	937	0	1.0891	OK	11-12-2024	08:48:12.927	1028.506	37.578	OK
11-12-2024	08:48:13.031	1028.610	7.500	7.500	27.500	937	0	1.0895	OK	11-12-2024	08:48:13.031	1028.610	37.578	OK
11-12-2024	08:48:13.127	1028.706	7.500	7.500	27.497	937	0	1.0897	OK	11-12-2024	08:48:13.127	1028.706	37.578	OK
11-12-2024	08:48:13.226	1028.805	7.501	7.501	27.501	937	0	1.0895	OK	11-12-2024	08:48:13.226	1028.805	37.577	OK
11-12-2024	08:48:13.328	1028.907	7.500	7.500	27.499	937	0	1.0897	OK	11-12-2024	08:48:13.328	1028.907	37.577	OK
11-12-2024	08:48:13.497	1029.076	7.500	7.500	27.496	937	0	1.0899	OK	11-12-2024	08:48:13.497	1029.076	37.577	OK
11-12-2024	08:48:13.753	1029.332	7.500	7.500	27.500	937	0	1.0896	OK	11-12-2024	08:48:13.753	1029.332	37.577	OK
11-12-2024	08:48:13.931	1029.510	7.500	7.500	27.498	937	0	1.0897	OK	11-12-2024	08:48:13.931	1029.510	37.576	OK
11-12-2024	08:48:14.030	1029.609	7.500	7.500	27.497	937	0	1.0898	OK	11-12-2024	08:48:14.030	1029.609	37.576	OK
11-12-2024	08:48:14.129	1029.708	7.500	7.500	27.500	937	0	1.0896	OK	11-12-2024	08:48:14.129	1029.708	37.576	OK
11-12-2024	08:48:14.230	1029.809	7.500	7.500	27.499	937	0	1.0897	OK	11-12-2024	08:48:14.230	1029.809	37.576	OK
11-12-2024	08:48:14.330	1029.909	7.500	7.500	27.497	937	0	1.0897	OK	11-12-2024	08:48:14.330	1029.909	37.576	OK
11-12-2024	08:48:14.500	1030.079	7.500	7.500	27.500	937	0	1.0895	OK	11-12-2024	08:48:14.500	1030.079	37.576	OK
11-12-2024	08:48:14.758	1030.337	7.501	7.501	27.503	937	0	1.0893	OK	11-12-2024	08:48:14.758	1030.337	37.576	OK
11-12-2024	08:48:14.932	1030.511	7.501	7.501	27.504	937	0	1.0893	OK	11-12-2024	08:48:14.932	1030.511	37.576	OK
11-12-2024	08:48:15.032	1030.611	7.500	7.500	27.499	937	0	1.0896	OK	11-12-2024	08:48:15.032	1030.611	37.577	OK
11-12-2024	08:48:15.132	1030.711	7.500	7.500	27.500	937	0	1.0895	OK	11-12-2024	08:48:15.132	1030.711	37.577	OK
11-12-2024	08:48:15.232	1030.811	7.500	7.500	27.499	937	0	1.0896	OK	11-12-2024	08:48:15.232	1030.811	37.576	OK
11-12-2024	08:48:15.459	1031.038	7.500	7.500	27.498	937	0	1.0897	OK	11-12-2024	08:48:15.459	1031.038	37.576	OK
11-12-2024	08:48:15.731	1031.310	7.501	7.501	27.503	937	0	1.0893	OK	11-12-2024	08:48:15.731	1031.310	37.576	OK
11-12-2024	08:48:15.833	1031.412	7.501	7.501	27.501	937	0	1.0895	OK	11-12-2024	08:48:15.833	1031.412	37.576	OK
11-12-2024	08:48:15.933	1031.512	7.501	7.501	27.501	937	0	1.0895	OK	11-12-2024	08:48:15.933	1031.512	37.576	OK
11-12-2024	08:48:16.033	1031.612	7.500	7.500	27.497	937	0	1.0897	OK	11-12-2024	08:48:16.033	1031.612	37.577	OK
11-12-2024	08:48:16.133	1031.712	7.500	7.500	27.496	937	0	1.0898	OK	11-12-2024	08:48:16.133	1031.712	37.577	OK
11-12-2024	08:48:16.235	1031.814	7.500	7.500	27.497	937	0	1.0897	OK	11-12-2024	08:48:16.235	1031.814	37.577	OK
11-12-2024	08:48:16.334	1031.913	7.500	7.500	27.497	937	0	1.0897	OK	11-12-2024	08:48:16.334	1031.913	37.577	OK
11-12-2024	08:48:16.504	1032.082	7.500	7.500	27.499	937	0	1.0896	OK	11-12-2024	08:48:16.504	1032.082	37.576	OK
11-12-2024	08:48:16.759	1032.338	7.501	7.501	27.506	937	0	1.0891	OK	11-12-2024	08:48:16.759	1032.338	37.578	OK
11-12-2024	08:48:16.936	1032.515	7.501	7.501	27.507	937	0	1.0891	OK	11-12-2024	08:48:16.936	1032.515	37.578	OK
11-12-2024	08:48:17.036	1032.615	7.500	7.500	27.497	937	0	1.0897	OK	11-12-2024	08:48:17.036	1032.615	37.577	OK
11-12-2024	08:48:17.137	1032.716	7.501	7.501	27.501	937	0	1.0895	OK	11-12-2024	08:48:17.137	1032.716	37.577	OK
11-12-2024	08:48:17.237	1032.816	7.500	7.500	27.497	937	0	1.0897	OK	11-12-2024	08:48:17.237	1032.816	37.578	OK
11-12-2024	08:48:17.338	1032.917	7.500	7.500	27.499	937	0	1.0896	OK	11-12-2024	08:48:17.338	1032.917	37.578	OK
11-12-2024	08:48:17.523	1033.102	7.500	7.500	27.500	937	0	1.0895	OK	11-12-2024	08:48:17.523	1033.102	37.579	OK
11-12-2024	08:48:17.780	1033.359	7.501	7.501	27.503	937	0	1.0893	OK	11-12-2024	08:48:17.780	1033.359	37.579	OK
11-12-2024	08:48:17.939	1033.517	7.501	7.501	27.505	937	0	1.0891	OK	11-12-2024	08:48:17.939	1033.517	37.579	OK
11-12-2024	08:48:18.038	1033.617	7.501	7.501	27.501	937	0	1.0894	OK	11-12-2024	08:48:18.038	1033.617	37.579	OK
11-12-2024	08:48:18.138	1033.717	7.500	7.500	27.497	937	0	1.0897	OK	11-12-2024	08:48:18.138	1033.717	37.579	OK
11-12-2024	08:48:18.238	1033.817	7.500	7.500	27.498	937	0	1.0896	OK	11-12-2024	08:48:18.238	1033.817	37.578	OK
11-12-2024	08:48:18.338	1033.917	7.500	7.500	27.497	937	0	1.0897	OK	11-12-2024	08:48:18.338	1033.917	37.578	OK
11-12-2024	08:48:18.507	1034.086	7.500	7.500	27.500	937	0	1.0895	OK	11-12-2024	08:48:18.507	1034.086	37.579	OK
11-12-2024	08:48:18.762	1034.341	7.501	7.501	27.506	937	0	1.0891	OK	11-12-2024	08:48:18.762	1034.341	37.579	OK
11-12-2024	08:48:18.938	1034.517	7.501	7.501	27.502	937	0	1.0894	OK	11-12-2024	08:48:18.938	1034.517	37.578	OK
11-12-2024	08:48:19.038	1034.617	7.501	7.501	27.501	937	0	1.0894	OK	11-12-2024	08:48:19.038	1034.617	37.578	OK
11-12-2024	08:48:19.139	1034.718	7.501	7.501	27.501	937	0	1.0894	OK	11-12-2024	08:48:19.139	1034.718	37.579	OK
11-12-2024	08:48:19.239	1034.818	7.500	7.500	27.497	937	0	1.0897	OK	11-12-2024	08:48:19.239	1034.818	37.579	OK
11-12-2024	08:48:19.341	1034.920	7.500	7.500	27.500	937	0	1.0895	OK	11-12-2024	08:48:19.341	1034.920	37.579	OK
11-12-2024	08:48:19.513	1035.092	7.500	7.500	27.497	937	0	1.0897	OK	11-12-2024	08:48:19.513	1035.092	37.579	OK
11-12-2024	08:48:19.768	1035.347	7.501	7.501	27.507	937	0	1.0890	OK	11-12-2024	08:48:19.768	1035.347	37.579	OK
11-12-2024	08:48:19.944	1035.523	7.501	7.501	27.506	937	0	1.0891	OK	11-12-2024	08:48:19.944	1035.523	37.578	OK
11-12-2024	08:48:20.043	1035.622	7.500	7.500	27.500	937	0	1.0895	OK	11-12-2024	08:48:20.043	1035.622	37.578	OK
11-12-2024	08:48:20.144	1035.723	7.500	7.500	27.500	937	0	1.0895	OK	11-12-2024	08:48:20.144	1035.723	37.577	OK
11-12-2024	08:48:20.244	1035.823	7.500	7.500	27.498	937	0	1.0896	OK	11-12-2024	08:48:20.244	1035.823	37.577	OK
11-12-2024	08:48:20.344	1035.923	7.500	7.500	27.499	937	0	1.0896	OK	11-12-2024	08:48:20.344	1035.923	37.578	OK
11-12-2024	08:48:20.514	1036.093	7.501	7.501	27.501	937	0	1.0894	OK	11-12-2024	08:48:20.514	1036.093	37.577	OK
11-12-2024	08:48:20.772	1036.351	7.501	7.501	27.505	937	0	1.0891	OK	11-12-2024	08:48:20.772	1036.351	37.577	OK
11-12-2024	08:48:20.944	1036.523	7.501	7.501	27.506	937	0	1.0891	OK	11-12-2024	08:48:20.944	1036.523	37.577	OK
11-12-2024	08:48:21.044	1036.623	7.500	7.500	27.499	937	0	1.0896	OK	11-12-2024	08:48:21.044	1036.623	37.577	OK
11-12-2024	08:48:21.145	1036.724	7.500	7.500	27.498	937	0	1.0896	OK	11-12-2024	08:48:21.145	1036.724	37.576	OK
11-12-2024	08:48:21.247	1036.825	7.500	7.500	27.499	937	0	1.0896	OK	11-12-2024	08:48:21.247	1036.825	37.576	OK
11-12-2024	08:48:21.460	1037.039	7.501	7.501	27.502	937	0	1.0894	OK	11-12-2024	08:48:21.460	1037.039	37.576	OK
11-12-2024	08:48:21.717	1037.296	7.501	7.501	27.506	937	0	1.0891	OK	11-12-2024	08:48:21.717	1037.296	37.576	OK
11-12-2024	08:48:21.845	1037.424	7.501	7.501	27.506	937	0	1.0891	OK	11-12-2024	08:48:21.845	1037.424	37.576	OK
11-12-2024	08:48:21.946	1037.525	7.500	7.500	27.500	937	0	1.0895	OK	11-12-2024	08:48:21.946	1037.525	37.576	OK
11-12-2024	08:48:22.047	1037.626	7.501	7.501	27.503	937	0	1.0893	OK	11-12-2024	08:48:22.047	1037.626	37.576	OK
11-12-2024	08:48:22.146	1037.725	7.500	7.500	27.494	937	0	1.0899	OK	11-12-2024	08:48:22.146	1037.725	37.576	OK
11-12-2024	08:48:22.247	1037.826	7.500	7.500	27.498	937	0	1.0896	OK	11-12-2024	08:48:22.247	1037.826	37.576	OK
11-12-2024	08:48:22.347	1037.926	7.500	7.500	27.495	937	0	1.0898	OK	11-12-2024	08:48:22.347	1037.926	37.575	OK
11-12-2024	08:48:22.532	1038.111	7.500	7.500	27.498	937	0	1.0896	OK	11-12-2024	08:48:22.532	1038.111	37.574	OK
11-12-2024	08:48:22.787	1038.366	7.502	7.502	27.507	937	0	1.0890	OK	11-12-2024	08:48:22.787	1038.366	37.574	OK
11-12-2024	08:48:22.947	1038.526	7.501	7.501	27.503	937	0	1.0893	OK	11-12-2024	08:48:22.947	1038.526	37.574	OK
11-12-2024	08:48:23.048	1038.627	7.500	7.500	27.498	937	0	1.0896	OK	11-12-2024	08:48:23.048	1038.627	37.574	OK
11-12-2024	08:48:23.150	1038.729	7.500	7.500	27.497	937	0	1.0897	OK	11-12-2024	08:48:23.150	1038.729	37.574	OK
11-12-2024	08:48:23.250	1038.829	7.499	7.499	27.492	937	0	1.0900	OK	11-12-2024	08:48:23.250	1038.829	37.574	OK
11-12-2024	08:48:23.350	1038.929	7.500	7.500	27.495	937	0	1.0898	OK	11-12-2024	08:48:23.350	1038.929	37.574	OK
11-12-2024	08:48:23.520	1039.099	7.501	7.501	27.502	937	0	1.0894	OK	11-12-2024	08:48:23.520	1039.099	37.573	OK
11-12-2024	08:48:23.791	1039.370	7.501	7.501	27.504	937	0	1.0892	OK	11-12-2024	08:48:23.791	1039.370	37.573	OK
11-12-2024	08:48:23.951	1039.530	7.501	7.501	27.503	937	0	1.0893	OK	11-12-2024	08:48:23.951	1039.530	37.572	OK
11-12-2024	08:48:24.051	1039.630	7.500	7.500	27.498	937	0	1.0896	OK	11-12-2024	08:48:24.051	1039.630	37.572	OK
11-12-2024	08:48:24.151	1039.730	7.500	7.500	27.497	937	0	1.0897	OK	11-12-2024	08:48:24.151	1039.730	37.573	OK
11-12-2024	08:48:24.250	1039.829	7.500	7.500	27.498	937	0	1.0896	OK	11-12-2024	08:48:24.250	1039.829	37.573	OK
11-12-2024	08:48:24.351	1039.930	7.500	7.500	27.497	937	0	1.0897	OK	11-12-2024	08:48:24.351	1039.930	37.573	OK
11-12-2024	08:48:24.523	1040.102	7.501	7.501	27.501	937	0	1.0895	OK	11-12-2024	08:48:24.523	1040.102	37.573	OK
11-12-2024	08:48:24.781	1040.360	7.501	7.501	27.504	937	0	1.0893	OK	11-12-2024	08:48:24.781	1040.360	37.574	OK
11-12-2024	08:48:24.951	1040.530	7.501	7.501	27.501	937	0	1.0895	OK	11-12-2024	08:48:24.951	1040.530	37.573	OK
11-12-2024	08:48:25.052	1040.631	7.501	7.501	27.503	937	0	1.0893	OK	11-12-2024	08:48:25.052	1040.631	37.573	OK
11-12-2024	08:48:25.156	1040.734	7.500	7.500	27.496	937	0	1.0898	OK	11-12-2024	08:48:25.156	1040.734	37.573	OK
11-12-2024	08:48:25.255	1040.834	7.500	7.500	27.498	937	0	1.0897	OK	11-12-2024	08:48:25.255	1040.834	37.573	OK
11-12-2024	08:48:25.355	1040.934	7.500	7.500	27.495	937	0	1.0899	OK	11-12-2024	08:48:25.355	1040.934	37.573	OK
11-12-2024	08:48:25.526	1041.105	7.501	7.501	27.501	937	0	1.0894	OK	11-12-2024	08:48:25.526	1041.105	37.573	OK
11-12-2024	08:48:25.784	1041.363	7.501	7.501	27.505	937	0	1.0891	OK	11-12-2024	08:48:25.784	1041.363	37.574	OK
11-12-2024	08:48:25.959	1041.538	7.501	7.501	27.502	937	0	1.0894	OK	11-12-2024	08:48:25.959	1041.538	37.574	OK
11-12-2024	08:48:26.059	1041.638	7.500	7.500	27.497	937	0	1.0897	OK	11-12-2024	08:48:26.059	1041.638	37.574	OK
11-12-2024	08:48:26.159	1041.738	7.500	7.500	27.499	937	0	1.0896	OK	11-12-2024	08:48:26.159	1041.738	37.574	OK
11-12-2024	08:48:26.259	1041.838	7.500	7.500	27.498	937	0	1.0896	OK	11-12-2024	08:48:26.259	1041.838	37.574	OK
11-12-2024	08:48:26.358	1041.937	7.500	7.500	27.495	937	0	1.0898	OK	11-12-2024	08:48:26.358	1041.937	37.574	OK
11-12-2024	08:48:26.528	1042.107	7.501	7.501	27.500	937	0	1.0895	OK	11-12-2024	08:48:26.528	1042.107	37.574	OK
11-12-2024	08:48:26.800	1042.379	7.501	7.501	27.506	937	0	1.0891	OK	11-12-2024	08:48:26.800	1042.379	37.574	OK
11-12-2024	08:48:26.959	1042.538	7.501	7.501	27.503	937	0	1.0893	OK	11-12-2024	08:48:26.959	1042.538	37.575	OK
11-12-2024	08:48:27.059	1042.638	7.501	7.501	27.503	937	0	1.0893	OK	11-12-2024	08:48:27.059	1042.638	37.575	OK
11-12-2024	08:48:27.158	1042.737	7.500	7.500	27.497	937	0	1.0897	OK	11-12-2024	08:48:27.158	1042.737	37.576	OK
11-12-2024	08:48:27.259	1042.838	7.500	7.500	27.495	937	0	1.0898	OK	11-12-2024	08:48:27.259	1042.838	37.576	OK
11-12-2024	08:48:27.359	1042.938	7.499	7.499	27.492	937	0	1.0900	OK	11-12-2024	08:48:27.359	1042.938	37.575	OK
11-12-2024	08:48:27.530	1043.109	7.500	7.500	27.500	937	0	1.0895	OK	11-12-2024	08:48:27.530	1043.109	37.575	OK
11-12-2024	08:48:27.788	1043.366	7.501	7.501	27.502	937	0	1.0894	OK	11-12-2024	08:48:27.788	1043.366	37.576	OK
11-12-2024	08:48:27.958	1043.537	7.501	7.501	27.502	937	0	1.0894	OK	11-12-2024	08:48:27.958	1043.537	37.576	OK
11-12-2024	08:48:28.060	1043.639	7.501	7.501	27.501	937	0	1.0895	OK	11-12-2024	08:48:28.060	1043.639	37.575	OK
11-12-2024	08:48:28.159	1043.738	7.500	7.500	27.496	937	0	1.0898	OK	11-12-2024	08:48:28.159	1043.738	37.575	OK
11-12-2024	08:48:28.259	1043.838	7.500	7.500	27.494	937	0	1.0900	OK	11-12-2024	08:48:28.259	1043.838	37.575	OK
11-12-2024	08:48:28.359	1043.938	7.499	7.499	27.493	937	0	1.0900	OK	11-12-2024	08:48:28.359	1043.938	37.575	OK
11-12-2024	08:48:28.530	1044.109	7.500	7.500	27.499	937	0	1.0896	OK	11-12-2024	08:48:28.530	1044.109	37.575	OK
11-12-2024	08:48:28.788	1044.367	7.501	7.501	27.505	937	0	1.0891	OK	11-12-2024	08:48:28.788	1044.367	37.575	OK
11-12-2024	08:48:28.959	1044.538	7.501	7.501	27.501	937	0	1.0894	OK	11-12-2024	08:48:28.959	1044.538	37.575	OK
11-12-2024	08:48:29.060	1044.639	7.500	7.500	27.499	937	0	1.0896	OK	11-12-2024	08:48:29.060	1044.639	37.575	OK
11-12-2024	08:48:29.260	1044.839	7.500	7.500	27.495	937	0	1.0898	OK	11-12-2024	08:48:29.260	1044.839	37.575	OK
11-12-2024	08:48:29.360	1044.939	7.500	7.500	27.498	937	0	1.0896	OK	11-12-2024	08:48:29.360	1044.939	37.575	OK
11-12-2024	08:48:29.531	1045.110	7.501	7.501	27.503	937	0	1.0893	OK	11-12-2024	08:48:29.531	1045.110	37.575	OK
11-12-2024	08:48:29.790	1045.369	7.501	7.501	27.504	937	0	1.0892	OK	11-12-2024	08:48:29.790	1045.369	37.574	OK
11-12-2024	08:48:29.960	1045.539	7.500	7.500	27.497	937	0	1.0897	OK	11-12-2024	08:48:29.960	1045.539	37.573	OK
11-12-2024	08:48:30.060	1045.639	7.500	7.500	27.499	937	0	1.0896	OK	11-12-2024	08:48:30.060	1045.639	37.574	OK
11-12-2024	08:48:30.160	1045.738	7.500	7.500	27.498	937	0	1.0896	OK	11-12-2024	08:48:30.160	1045.738	37.574	OK
11-12-2024	08:48:30.263	1045.842	7.500	7.500	27.494	937	0	1.0899	OK	11-12-2024	08:48:30.263	1045.842	37.573	OK
11-12-2024	08:48:30.361	1045.940	7.500	7.500	27.493	937	0	1.0900	OK	11-12-2024	08:48:30.361	1045.940	37.573	OK
11-12-2024	08:48:30.532	1046.111	7.500	7.500	27.499	937	0	1.0896	OK	11-12-2024	08:48:30.532	1046.111	37.573	OK
11-12-2024	08:48:30.787	1046.366	7.501	7.501	27.504	937	0	1.0892	OK	11-12-2024	08:48:30.787	1046.366	37.573	OK
11-12-2024	08:48:30.961	1046.540	7.501	7.501	27.506	937	0	1.0891	OK	11-12-2024	08:48:30.961	1046.540	37.573	OK
11-12-2024	08:48:31.062	1046.640	7.500	7.500	27.496	937	0	1.0898	OK	11-12-2024	08:48:31.062	1046.640	37.572	OK
11-12-2024	08:48:31.162	1046.741	7.500	7.500	27.496	937	0	1.0898	OK	11-12-2024	08:48:31.162	1046.741	37.572	OK
11-12-2024	08:48:31.262	1046.841	7.500	7.500	27.497	937	0	1.0897	OK	11-12-2024	08:48:31.262	1046.841	37.573	OK
11-12-2024	08:48:31.361	1046.940	7.500	7.500	27.494	937	0	1.0899	OK	11-12-2024	08:48:31.361	1046.940	37.573	OK
11-12-2024	08:48:31.530	1047.109	7.501	7.501	27.502	937	0	1.0894	OK	11-12-2024	08:48:31.530	1047.109	37.574	OK
11-12-2024	08:48:31.787	1047.366	7.501	7.501	27.504	937	0	1.0892	OK	11-12-2024	08:48:31.787	1047.366	37.573	OK
11-12-2024	08:48:31.962	1047.541	7.501	7.501	27.504	937	0	1.0892	OK	11-12-2024	08:48:31.962	1047.541	37.573	OK
11-12-2024	08:48:32.062	1047.640	7.501	7.501	27.502	937	0	1.0894	OK	11-12-2024	08:48:32.062	1047.640	37.573	OK
11-12-2024	08:48:32.162	1047.741	7.501	7.501	27.501	937	0	1.0894	OK	11-12-2024	08:48:32.162	1047.741	37.573	OK
11-12-2024	08:48:32.263	1047.842	7.500	7.500	27.498	937	0	1.0896	OK	11-12-2024	08:48:32.263	1047.842	37.573	OK
11-12-2024	08:48:32.363	1047.942	7.500	7.500	27.495	937	0	1.0898	OK	11-12-2024	08:48:32.363	1047.942	37.573	OK
11-12-2024	08:48:32.533	1048.112	7.501	7.501	27.501	937	0	1.0894	OK	11-12-2024	08:48:32.533	1048.112	37.572	OK
11-12-2024	08:48:32.788	1048.367	7.501	7.501	27.505	937	0	1.0891	OK	11-12-2024	08:48:32.788	1048.367	37.572	OK
11-12-2024	08:48:32.963	1048.542	7.501	7.501	27.506	937	0	1.0891	OK	11-12-2024	08:48:32.963	1048.542	37.573	OK
11-12-2024	08:48:33.063	1048.642	7.501	7.501	27.504	937	0	1.0892	OK	11-12-2024	08:48:33.063	1048.642	37.573	OK
11-12-2024	08:48:33.164	1048.743	7.501	7.501	27.501	937	0	1.0894	OK	11-12-2024	08:48:33.164	1048.743	37.573	OK
11-12-2024	08:48:33.263	1048.842	7.500	7.500	27.497	937	0	1.0897	OK	11-12-2024	08:48:33.263	1048.842	37.573	OK
11-12-2024	08:48:33.364	1048.943	7.501	7.501	27.501	937	0	1.0894	OK	11-12-2024	08:48:33.364	1048.943	37.573	OK
11-12-2024	08:48:33.535	1049.113	7.501	7.501	27.503	937	0	1.0893	OK	11-12-2024	08:48:33.535	1049.113	37.575	OK
11-12-2024	08:48:33.805	1049.383	7.502	7.502	27.509	937	0	1.0889	OK	11-12-2024	08:48:33.805	1049.383	37.574	OK
11-12-2024	08:48:33.965	1049.544	7.501	7.501	27.502	937	0	1.0894	OK	11-12-2024	08:48:33.965	1049.544	37.574	OK
11-12-2024	08:48:34.064	1049.643	7.501	7.501	27.502	937	0	1.0894	OK	11-12-2024	08:48:34.064	1049.643	37.575	OK
11-12-2024	08:48:34.162	1049.741	7.500	7.500	27.499	937	0	1.0896	OK	11-12-2024	08:48:34.162	1049.741	37.575	OK
11-12-2024	08:48:34.266	1049.845	7.500	7.500	27.498	937	0	1.0896	OK	11-12-2024	08:48:34.266	1049.845	37.575	OK
11-12-2024	08:48:34.366	1049.945	7.500	7.500	27.496	937	0	1.0898	OK	11-12-2024	08:48:34.366	1049.945	37.575	OK
11-12-2024	08:48:34.535	1050.114	7.500	7.500	27.499	937	0	1.0896	OK	11-12-2024	08:48:34.535	1050.114	37.575	OK
11-12-2024	08:48:34.790	1050.369	7.501	7.501	27.505	937	0	1.0891	OK	11-12-2024	08:48:34.790	1050.369	37.574	OK
11-12-2024	08:48:34.967	1050.546	7.501	7.501	27.502	937	0	1.0893	OK	11-12-2024	08:48:34.967	1050.546	37.575	OK
11-12-2024	08:48:35.068	1050.647	7.500	7.500	27.497	937	0	1.0896	OK	11-12-2024	08:48:35.068	1050.647	37.574	OK
11-12-2024	08:48:35.168	1050.746	7.500	7.500	27.496	937	0	1.0897	OK	11-12-2024	08:48:35.168	1050.746	37.574	OK
11-12-2024	08:48:35.270	1050.849	7.501	7.501	27.500	937	0	1.0894	OK	11-12-2024	08:48:35.270	1050.849	37.575	OK
11-12-2024	08:48:35.371	1050.950	7.499	7.499	27.490	937	0	1.0901	OK	11-12-2024	08:48:35.371	1050.950	37.575	OK
11-12-2024	08:48:35.543	1051.122	7.500	7.500	27.497	937	0	1.0896	OK	11-12-2024	08:48:35.543	1051.122	37.575	OK
11-12-2024	08:48:35.798	1051.377	7.500	7.500	27.499	937	0	1.0896	OK	11-12-2024	08:48:35.798	1051.377	37.575	OK
11-12-2024	08:48:35.971	1051.550	7.501	7.501	27.501	937	0	1.0894	OK	11-12-2024	08:48:35.971	1051.550	37.575	OK
11-12-2024	08:48:36.072	1051.651	7.501	7.501	27.500	937	0	1.0895	OK	11-12-2024	08:48:36.072	1051.651	37.575	OK
11-12-2024	08:48:36.172	1051.751	7.500	7.500	27.497	937	0	1.0897	OK	11-12-2024	08:48:36.172	1051.751	37.575	OK
11-12-2024	08:48:36.272	1051.851	7.500	7.500	27.497	937	0	1.0897	OK	11-12-2024	08:48:36.272	1051.851	37.575	OK
11-12-2024	08:48:36.371	1051.950	7.500	7.500	27.495	937	0	1.0898	OK	11-12-2024	08:48:36.371	1051.950	37.575	OK
11-12-2024	08:48:36.541	1052.120	7.500	7.500	27.498	937	0	1.0896	OK	11-12-2024	08:48:36.541	1052.120	37.574	OK
11-12-2024	08:48:36.795	1052.374	7.501	7.501	27.503	937	0	1.0892	OK	11-12-2024	08:48:36.795	1052.374	37.575	OK
11-12-2024	08:48:36.972	1052.551	7.501	7.501	27.500	937	0	1.0894	OK	11-12-2024	08:48:36.972	1052.551	37.575	OK
11-12-2024	08:48:37.072	1052.651	7.500	7.500	27.497	937	0	1.0896	OK	11-12-2024	08:48:37.072	1052.651	37.575	OK
11-12-2024	08:48:37.172	1052.751	7.500	7.500	27.497	937	0	1.0896	OK	11-12-2024	08:48:37.172	1052.751	37.575	OK
11-12-2024	08:48:37.273	1052.852	7.500	7.500	27.495	937	0	1.0898	OK	11-12-2024	08:48:37.273	1052.852	37.575	OK
11-12-2024	08:48:37.373	1052.952	7.500	7.500	27.496	937	0	1.0897	OK	11-12-2024	08:48:37.373	1052.952	37.575	OK
11-12-2024	08:48:37.543	1053.122	7.500	7.500	27.499	937	0	1.0895	OK	11-12-2024	08:48:37.543	1053.122	37.575	OK
11-12-2024	08:48:37.801	1053.380	7.501	7.501	27.504	937	0	1.0892	OK	11-12-2024	08:48:37.801	1053.380	37.576	OK
11-12-2024	08:48:37.973	1053.552	7.501	7.501	27.502	937	0	1.0894	OK	11-12-2024	08:48:37.973	1053.552	37.576	OK
11-12-2024	08:48:38.073	1053.652	7.501	7.501	27.504	937	0	1.0892	OK	11-12-2024	08:48:38.073	1053.652	37.576	OK
11-12-2024	08:48:38.173	1053.752	7.500	7.500	27.500	937	0	1.0895	OK	11-12-2024	08:48:38.173	1053.752	37.576	OK
11-12-2024	08:48:38.273	1053.852	7.500	7.500	27.499	937	0	1.0896	OK	11-12-2024	08:48:38.273	1053.852	37.576	OK
11-12-2024	08:48:38.374	1053.953	7.500	7.500	27.497	937	0	1.0897	OK	11-12-2024	08:48:38.374	1053.953	37.576	OK
11-12-2024	08:48:38.559	1054.138	7.501	7.501	27.501	937	0	1.0894	OK	11-12-2024	08:48:38.559	1054.138	37.576	OK
11-12-2024	08:48:38.816	1054.395	7.501	7.501	27.502	937	0	1.0893	OK	11-12-2024	08:48:38.816	1054.395	37.574	OK
11-12-2024	08:48:38.975	1054.554	7.501	7.501	27.502	937	0	1.0893	OK	11-12-2024	08:48:38.975	1054.554	37.575	OK
11-12-2024	08:48:39.074	1054.653	7.500	7.500	27.495	937	0	1.0898	OK	11-12-2024	08:48:39.074	1054.653	37.575	OK
11-12-2024	08:48:39.176	1054.755	7.501	7.501	27.501	937	0	1.0894	OK	11-12-2024	08:48:39.176	1054.755	37.575	OK
11-12-2024	08:48:39.277	1054.856	7.500	7.500	27.493	937	0	1.0899	OK	11-12-2024	08:48:39.277	1054.856	37.575	OK
11-12-2024	08:48:39.376	1054.955	7.500	7.500	27.497	937	0	1.0896	OK	11-12-2024	08:48:39.376	1054.955	37.576	OK
11-12-2024	08:48:39.547	1055.126	7.500	7.500	27.497	937	0	1.0896	OK	11-12-2024	08:48:39.547	1055.126	37.576	OK
11-12-2024	08:48:39.803	1055.382	7.501	7.501	27.504	937	0	1.0892	OK	11-12-2024	08:48:39.803	1055.382	37.577	OK
11-12-2024	08:48:39.977	1055.556	7.501	7.501	27.506	937	0	1.0891	OK	11-12-2024	08:48:39.977	1055.556	37.576	OK
11-12-2024	08:48:40.077	1055.656	7.501	7.501	27.502	937	0	1.0894	OK	11-12-2024	08:48:40.077	1055.656	37.576	OK
11-12-2024	08:48:40.176	1055.755	7.501	7.501	27.501	937	0	1.0894	OK	11-12-2024	08:48:40.176	1055.755	37.577	OK
11-12-2024	08:48:40.279	1055.858	7.500	7.500	27.498	937	0	1.0896	OK	11-12-2024	08:48:40.279	1055.858	37.577	OK
11-12-2024	08:48:40.379	1055.958	7.500	7.500	27.498	937	0	1.0896	OK	11-12-2024	08:48:40.379	1055.958	37.576	OK
11-12-2024	08:48:40.551	1056.130	7.501	7.501	27.503	937	0	1.0893	OK	11-12-2024	08:48:40.551	1056.130	37.576	OK
11-12-2024	08:48:40.807	1056.386	7.501	7.501	27.504	937	0	1.0892	OK	11-12-2024	08:48:40.807	1056.386	37.576	OK
11-12-2024	08:48:40.980	1056.559	7.501	7.501	27.501	937	0	1.0894	OK	11-12-2024	08:48:40.980	1056.559	37.575	OK
11-12-2024	08:48:41.079	1056.658	7.500	7.500	27.499	937	0	1.0895	OK	11-12-2024	08:48:41.079	1056.658	37.575	OK
11-12-2024	08:48:41.179	1056.758	7.501	7.501	27.502	937	0	1.0893	OK	11-12-2024	08:48:41.179	1056.758	37.576	OK
11-12-2024	08:48:41.280	1056.859	7.500	7.500	27.497	937	0	1.0896	OK	11-12-2024	08:48:41.280	1056.859	37.576	OK
11-12-2024	08:48:41.380	1056.959	7.500	7.500	27.493	937	0	1.0899	OK	11-12-2024	08:48:41.380	1056.959	37.576	OK
11-12-2024	08:48:41.549	1057.128	7.501	7.501	27.505	937	0	1.0891	OK	11-12-2024	08:48:41.549	1057.128	37.576	OK
11-12-2024	08:48:41.804	1057.383	7.501	7.501	27.501	937	0	1.0894	OK	11-12-2024	08:48:41.804	1057.383	37.576	OK
11-12-2024	08:48:41.980	1057.559	7.501	7.501	27.503	937	0	1.0893	OK	11-12-2024	08:48:41.980	1057.559	37.576	OK
11-12-2024	08:48:42.079	1057.658	7.500	7.500	27.499	937	0	1.0896	OK	11-12-2024	08:48:42.079	1057.658	37.576	OK
11-12-2024	08:48:42.180	1057.759	7.500	7.500	27.495	937	0	1.0898	OK	11-12-2024	08:48:42.180	1057.759	37.576	OK
11-12-2024	08:48:42.282	1057.861	7.499	7.499	27.493	937	0	1.0900	OK	11-12-2024	08:48:42.282	1057.861	37.576	OK
11-12-2024	08:48:42.380	1057.959	7.500	7.500	27.494	937	0	1.0899	OK	11-12-2024	08:48:42.380	1057.959	37.576	OK
11-12-2024	08:48:42.550	1058.129	7.501	7.501	27.501	937	0	1.0894	OK	11-12-2024	08:48:42.550	1058.129	37.576	OK
11-12-2024	08:48:42.804	1058.383	7.501	7.501	27.502	937	0	1.0893	OK	11-12-2024	08:48:42.804	1058.383	37.576	OK
11-12-2024	08:48:42.980	1058.559	7.501	7.501	27.500	937	0	1.0894	OK	11-12-2024	08:48:42.980	1058.559	37.575	OK
11-12-2024	08:48:43.080	1058.659	7.501	7.501	27.500	937	0	1.0894	OK	11-12-2024	08:48:43.080	1058.659	37.575	OK
11-12-2024	08:48:43.181	1058.760	7.500	7.500	27.496	937	0	1.0897	OK	11-12-2024	08:48:43.181	1058.760	37.575	OK
11-12-2024	08:48:43.283	1058.862	7.499	7.499	27.492	937	0	1.0900	OK	11-12-2024	08:48:43.283	1058.862	37.575	OK
11-12-2024	08:48:43.382	1058.961	7.500	7.500	27.497	937	0	1.0896	OK	11-12-2024	08:48:43.382	1058.961	37.575	OK
11-12-2024	08:48:43.553	1059.132	7.500	7.500	27.498	937	0	1.0896	OK	11-12-2024	08:48:43.553	1059.132	37.575	OK
11-12-2024	08:48:43.809	1059.388	7.501	7.501	27.501	937	0	1.0894	OK	11-12-2024	08:48:43.809	1059.388	37.575	OK
11-12-2024	08:48:43.984	1059.563	7.501	7.501	27.501	937	0	1.0894	OK	11-12-2024	08:48:43.984	1059.563	37.575	OK
11-12-2024	08:48:44.084	1059.663	7.500	7.500	27.498	937	0	1.0896	OK	11-12-2024	08:48:44.084	1059.663	37.575	OK
11-12-2024	08:48:44.184	1059.763	7.500	7.500	27.496	937	0	1.0898	OK	11-12-2024	08:48:44.184	1059.763	37.575	OK
11-12-2024	08:48:44.285	1059.864	7.500	7.500	27.495	937	0	1.0898	OK	11-12-2024	08:48:44.285	1059.864	37.575	OK
11-12-2024	08:48:44.469	1060.048	7.501	7.501	27.503	937	0	1.0893	OK	11-12-2024	08:48:44.469	1060.048	37.575	OK
11-12-2024	08:48:44.723	1060.302	7.502	7.502	27.508	937	0	1.0888	OK	11-12-2024	08:48:44.723	1060.302	37.575	OK
11-12-2024	08:48:44.887	1060.466	7.501	7.501	27.501	937	0	1.0893	OK	11-12-2024	08:48:44.887	1060.466	37.576	OK
11-12-2024	08:48:44.987	1060.566	7.501	7.501	27.499	937	0	1.0895	OK	11-12-2024	08:48:44.987	1060.566	37.576	OK
11-12-2024	08:48:45.087	1060.666	7.501	7.501	27.500	937	0	1.0894	OK	11-12-2024	08:48:45.087	1060.666	37.576	OK
11-12-2024	08:48:45.187	1060.766	7.500	7.500	27.498	937	0	1.0895	OK	11-12-2024	08:48:45.187	1060.766	37.576	OK
11-12-2024	08:48:45.287	1060.866	7.500	7.500	27.497	937	0	1.0896	OK	11-12-2024	08:48:45.287	1060.866	37.576	OK
11-12-2024	08:48:45.472	1061.051	7.501	7.501	27.499	937	0	1.0895	OK	11-12-2024	08:48:45.472	1061.051	37.577	OK
11-12-2024	08:48:45.741	1061.320	7.501	7.501	27.504	937	0	1.0892	OK	11-12-2024	08:48:45.741	1061.320	37.576	OK
11-12-2024	08:48:45.888	1061.467	7.502	7.502	27.509	937	0	1.0888	OK	11-12-2024	08:48:45.888	1061.467	37.576	OK
11-12-2024	08:48:45.989	1061.568	7.501	7.501	27.500	937	0	1.0894	OK	11-12-2024	08:48:45.989	1061.568	37.576	OK
11-12-2024	08:48:46.088	1061.667	7.501	7.501	27.503	937	0	1.0892	OK	11-12-2024	08:48:46.088	1061.667	37.575	OK
11-12-2024	08:48:46.189	1061.768	7.500	7.500	27.499	937	0	1.0895	OK	11-12-2024	08:48:46.189	1061.768	37.575	OK
11-12-2024	08:48:46.290	1061.869	7.500	7.500	27.494	937	0	1.0899	OK	11-12-2024	08:48:46.290	1061.869	37.575	OK
11-12-2024	08:48:46.468	1062.047	7.501	7.501	27.501	937	0	1.0894	OK	11-12-2024	08:48:46.468	1062.047	37.574	OK
11-12-2024	08:48:46.724	1062.303	7.501	7.501	27.506	937	0	1.0890	OK	11-12-2024	08:48:46.724	1062.303	37.574	OK
11-12-2024	08:48:46.891	1062.470	7.501	7.501	27.502	937	0	1.0893	OK	11-12-2024	08:48:46.891	1062.470	37.574	OK
11-12-2024	08:48:46.991	1062.570	7.501	7.501	27.502	937	0	1.0893	OK	11-12-2024	08:48:46.991	1062.570	37.574	OK
11-12-2024	08:48:47.093	1062.672	7.500	7.500	27.493	937	0	1.0899	OK	11-12-2024	08:48:47.093	1062.672	37.573	OK
11-12-2024	08:48:47.192	1062.771	7.499	7.499	27.492	937	0	1.0900	OK	11-12-2024	08:48:47.192	1062.771	37.573	OK
11-12-2024	08:48:47.292	1062.871	7.501	7.501	27.500	937	0	1.0894	OK	11-12-2024	08:48:47.292	1062.871	37.573	OK
11-12-2024	08:48:47.470	1063.049	7.500	7.500	27.496	937	0	1.0897	OK	11-12-2024	08:48:47.470	1063.049	37.571	OK
11-12-2024	08:48:47.741	1063.320	7.501	7.501	27.502	937	0	1.0893	OK	11-12-2024	08:48:47.741	1063.320	37.571	OK
11-12-2024	08:48:47.893	1063.472	7.501	7.501	27.501	937	0	1.0894	OK	11-12-2024	08:48:47.893	1063.472	37.572	OK
11-12-2024	08:48:47.993	1063.572	7.500	7.500	27.496	937	0	1.0897	OK	11-12-2024	08:48:47.993	1063.572	37.572	OK
11-12-2024	08:48:48.094	1063.672	7.500	7.500	27.496	937	0	1.0897	OK	11-12-2024	08:48:48.094	1063.672	37.571	OK
11-12-2024	08:48:48.193	1063.772	7.499	7.499	27.491	937	0	1.0901	OK	11-12-2024	08:48:48.193	1063.772	37.571	OK
11-12-2024	08:48:48.293	1063.872	7.500	7.500	27.495	937	0	1.0898	OK	11-12-2024	08:48:48.293	1063.872	37.572	OK
11-12-2024	08:48:48.471	1064.050	7.501	7.501	27.503	937	0	1.0892	OK	11-12-2024	08:48:48.471	1064.050	37.571	OK
11-12-2024	08:48:48.727	1064.306	7.501	7.501	27.501	937	0	1.0894	OK	11-12-2024	08:48:48.727	1064.306	37.570	OK
11-12-2024	08:48:48.895	1064.474	7.502	7.502	27.508	937	0	1.0889	OK	11-12-2024	08:48:48.895	1064.474	37.570	OK
11-12-2024	08:48:48.995	1064.574	7.500	7.500	27.498	937	0	1.0896	OK	11-12-2024	08:48:48.995	1064.574	37.570	OK
11-12-2024	08:48:49.095	1064.674	7.501	7.501	27.499	937	0	1.0895	OK	11-12-2024	08:48:49.095	1064.674	37.570	OK
11-12-2024	08:48:49.195	1064.774	7.501	7.501	27.499	937	0	1.0895	OK	11-12-2024	08:48:49.195	1064.774	37.570	OK
11-12-2024	08:48:49.295	1064.874	7.500	7.500	27.494	937	0	1.0899	OK	11-12-2024	08:48:49.295	1064.874	37.570	OK
11-12-2024	08:48:49.469	1065.048	7.501	7.501	27.500	937	0	1.0894	OK	11-12-2024	08:48:49.469	1065.048	37.570	OK
11-12-2024	08:48:49.727	1065.306	7.501	7.501	27.500	937	0	1.0894	OK	11-12-2024	08:48:49.727	1065.306	37.570	OK
11-12-2024	08:48:49.898	1065.477	7.501	7.501	27.504	937	0	1.0892	OK	11-12-2024	08:48:49.898	1065.477	37.571	OK
11-12-2024	08:48:49.995	1065.574	7.501	7.501	27.501	937	0	1.0894	OK	11-12-2024	08:48:49.995	1065.574	37.571	OK
11-12-2024	08:48:50.096	1065.675	7.500	7.500	27.498	937	0	1.0896	OK	11-12-2024	08:48:50.096	1065.675	37.572	OK
11-12-2024	08:48:50.197	1065.776	7.500	7.500	27.493	937	0	1.0899	OK	11-12-2024	08:48:50.197	1065.776	37.572	OK
11-12-2024	08:48:50.296	1065.875	7.500	7.500	27.495	937	0	1.0898	OK	11-12-2024	08:48:50.296	1065.875	37.572	OK
11-12-2024	08:48:50.470	1066.049	7.500	7.500	27.498	937	0	1.0896	OK	11-12-2024	08:48:50.470	1066.049	37.572	OK
11-12-2024	08:48:50.729	1066.308	7.501	7.501	27.503	937	0	1.0892	OK	11-12-2024	08:48:50.729	1066.308	37.573	OK
11-12-2024	08:48:50.898	1066.477	7.501	7.501	27.501	937	0	1.0894	OK	11-12-2024	08:48:50.898	1066.477	37.572	OK
11-12-2024	08:48:50.998	1066.577	7.500	7.500	27.498	937	0	1.0896	OK	11-12-2024	08:48:50.998	1066.577	37.572	OK
11-12-2024	08:48:51.099	1066.678	7.500	7.500	27.495	937	0	1.0898	OK	11-12-2024	08:48:51.099	1066.678	37.573	OK
11-12-2024	08:48:51.200	1066.779	7.500	7.500	27.498	937	0	1.0896	OK	11-12-2024	08:48:51.200	1066.779	37.573	OK
11-12-2024	08:48:51.298	1066.877	7.501	7.501	27.501	937	0	1.0894	OK	11-12-2024	08:48:51.298	1066.877	37.573	OK
11-12-2024	08:48:51.472	1067.051	7.501	7.501	27.502	937	0	1.0893	OK	11-12-2024	08:48:51.472	1067.051	37.573	OK
11-12-2024	08:48:51.730	1067.309	7.501	7.501	27.505	937	0	1.0891	OK	11-12-2024	08:48:51.730	1067.309	37.572	OK
11-12-2024	08:48:51.900	1067.479	7.502	7.502	27.506	937	0	1.0890	OK	11-12-2024	08:48:51.900	1067.479	37.572	OK
11-12-2024	08:48:52.000	1067.579	7.501	7.501	27.505	937	0	1.0891	OK	11-12-2024	08:48:52.000	1067.579	37.573	OK
11-12-2024	08:48:52.100	1067.679	7.501	7.501	27.502	937	0	1.0893	OK	11-12-2024	08:48:52.100	1067.679	37.573	OK
11-12-2024	08:48:52.201	1067.780	7.500	7.500	27.498	937	0	1.0896	OK	11-12-2024	08:48:52.201	1067.780	37.572	OK
11-12-2024	08:48:52.301	1067.880	7.501	7.501	27.501	937	0	1.0894	OK	11-12-2024	08:48:52.301	1067.880	37.572	OK
11-12-2024	08:48:52.472	1068.051	7.501	7.501	27.503	937	0	1.0892	OK	11-12-2024	08:48:52.472	1068.051	37.572	OK
11-12-2024	08:48:52.728	1068.307	7.502	7.502	27.508	937	0	1.0889	OK	11-12-2024	08:48:52.728	1068.307	37.573	OK
11-12-2024	08:48:52.902	1068.481	7.501	7.501	27.505	937	0	1.0891	OK	11-12-2024	08:48:52.902	1068.481	37.573	OK
11-12-2024	08:48:53.002	1068.581	7.502	7.502	27.506	937	0	1.0890	OK	11-12-2024	08:48:53.002	1068.581	37.572	OK
11-12-2024	08:48:53.103	1068.682	7.501	7.501	27.502	937	0	1.0893	OK	11-12-2024	08:48:53.103	1068.682	37.572	OK
11-12-2024	08:48:53.203	1068.782	7.501	7.501	27.502	936	0	1.0893	OK	11-12-2024	08:48:53.203	1068.782	37.572	OK
11-12-2024	08:48:53.303	1068.882	7.500	7.500	27.497	936	0	1.0896	OK	11-12-2024	08:48:53.303	1068.882	37.572	OK
11-12-2024	08:48:53.474	1069.053	7.502	7.502	27.508	936	0	1.0889	OK	11-12-2024	08:48:53.474	1069.053	37.572	OK
11-12-2024	08:48:53.730	1069.309	7.502	7.502	27.506	936	0	1.0890	OK	11-12-2024	08:48:53.730	1069.309	37.573	OK
11-12-2024	08:48:53.903	1069.482	7.501	7.501	27.503	936	0	1.0892	OK	11-12-2024	08:48:53.903	1069.482	37.573	OK
11-12-2024	08:48:54.002	1069.581	7.501	7.501	27.499	936	0	1.0895	OK	11-12-2024	08:48:54.002	1069.581	37.574	OK
11-12-2024	08:48:54.102	1069.681	7.500	7.500	27.497	936	0	1.0896	OK	11-12-2024	08:48:54.102	1069.681	37.574	OK
11-12-2024	08:48:54.203	1069.782	7.500	7.500	27.495	936	0	1.0897	OK	11-12-2024	08:48:54.203	1069.782	37.574	OK
11-12-2024	08:48:54.304	1069.883	7.500	7.500	27.496	936	0	1.0897	OK	11-12-2024	08:48:54.304	1069.883	37.574	OK
11-12-2024	08:48:54.473	1070.052	7.501	7.501	27.499	937	0	1.0895	OK	11-12-2024	08:48:54.473	1070.052	37.573	OK
11-12-2024	08:48:54.729	1070.308	7.501	7.501	27.501	937	0	1.0893	OK	11-12-2024	08:48:54.729	1070.308	37.573	OK
11-12-2024	08:48:54.905	1070.484	7.501	7.501	27.501	937	0	1.0893	OK	11-12-2024	08:48:54.905	1070.484	37.572	OK
11-12-2024	08:48:55.005	1070.584	7.501	7.501	27.500	937	0	1.0894	OK	11-12-2024	08:48:55.005	1070.584	37.573	OK
11-12-2024	08:48:55.106	1070.685	7.500	7.500	27.496	937	0	1.0897	OK	11-12-2024	08:48:55.106	1070.685	37.573	OK
11-12-2024	08:48:55.204	1070.783	7.500	7.500	27.498	937	0	1.0895	OK	11-12-2024	08:48:55.204	1070.783	37.573	OK
11-12-2024	08:48:55.305	1070.884	7.500	7.500	27.496	936	0	1.0897	OK	11-12-2024	08:48:55.305	1070.884	37.573	OK
11-12-2024	08:48:55.473	1071.052	7.501	7.501	27.503	937	0	1.0892	OK	11-12-2024	08:48:55.473	1071.052	37.573	OK
11-12-2024	08:48:55.729	1071.308	7.501	7.501	27.504	937	0	1.0891	OK	11-12-2024	08:48:55.729	1071.308	37.574	OK
11-12-2024	08:48:55.905	1071.483	7.501	7.501	27.499	937	0	1.0895	OK	11-12-2024	08:48:55.905	1071.483	37.573	OK
11-12-2024	08:48:56.005	1071.584	7.501	7.501	27.504	937	0	1.0892	OK	11-12-2024	08:48:56.005	1071.584	37.573	OK
11-12-2024	08:48:56.104	1071.683	7.501	7.501	27.502	937	0	1.0893	OK	11-12-2024	08:48:56.104	1071.683	37.573	OK
11-12-2024	08:48:56.204	1071.783	7.500	7.500	27.496	937	0	1.0897	OK	11-12-2024	08:48:56.204	1071.783	37.572	OK
11-12-2024	08:48:56.303	1071.882	7.500	7.500	27.498	937	0	1.0896	OK	11-12-2024	08:48:56.303	1071.882	37.572	OK
11-12-2024	08:48:56.478	1072.057	7.501	7.501	27.500	937	0	1.0894	OK	11-12-2024	08:48:56.478	1072.057	37.573	OK
11-12-2024	08:48:56.745	1072.324	7.501	7.501	27.504	937	0	1.0892	OK	11-12-2024	08:48:56.745	1072.324	37.573	OK
11-12-2024	08:48:56.907	1072.486	7.501	7.501	27.505	937	0	1.0891	OK	11-12-2024	08:48:56.907	1072.486	37.573	OK
11-12-2024	08:48:57.007	1072.586	7.501	7.501	27.499	937	0	1.0895	OK	11-12-2024	08:48:57.007	1072.586	37.572	OK
11-12-2024	08:48:57.107	1072.686	7.500	7.500	27.496	937	0	1.0897	OK	11-12-2024	08:48:57.107	1072.686	37.572	OK
11-12-2024	08:48:57.218	1072.797	7.501	7.501	27.500	937	0	1.0894	OK	11-12-2024	08:48:57.218	1072.797	37.571	OK
11-12-2024	08:48:57.470	1073.049	7.501	7.501	27.504	937	0	1.0892	OK	11-12-2024	08:48:57.470	1073.049	37.571	OK
11-12-2024	08:48:57.727	1073.306	7.501	7.501	27.505	937	0	1.0891	OK	11-12-2024	08:48:57.727	1073.306	37.572	OK
11-12-2024	08:48:57.907	1073.486	7.501	7.501	27.503	937	0	1.0892	OK	11-12-2024	08:48:57.907	1073.486	37.572	OK
11-12-2024	08:48:58.007	1073.586	7.500	7.500	27.498	937	0	1.0895	OK	11-12-2024	08:48:58.007	1073.586	37.572	OK
11-12-2024	08:48:58.108	1073.686	7.501	7.501	27.503	937	0	1.0892	OK	11-12-2024	08:48:58.108	1073.686	37.572	OK
11-12-2024	08:48:58.217	1073.796	7.501	7.501	27.502	937	0	1.0892	OK	11-12-2024	08:48:58.217	1073.796	37.573	OK
11-12-2024	08:48:58.307	1073.886	7.500	7.500	27.498	937	0	1.0895	OK	11-12-2024	08:48:58.307	1073.886	37.573	OK
11-12-2024	08:48:58.476	1074.055	7.501	7.501	27.500	937	0	1.0894	OK	11-12-2024	08:48:58.476	1074.055	37.574	OK
11-12-2024	08:48:58.749	1074.328	7.501	7.501	27.503	937	0	1.0892	OK	11-12-2024	08:48:58.749	1074.328	37.573	OK
11-12-2024	08:48:58.908	1074.487	7.501	7.501	27.502	937	0	1.0892	OK	11-12-2024	08:48:58.908	1074.487	37.573	OK
11-12-2024	08:48:59.008	1074.587	7.501	7.501	27.500	937	0	1.0894	OK	11-12-2024	08:48:59.008	1074.587	37.573	OK
11-12-2024	08:48:59.110	1074.688	7.501	7.501	27.499	937	0	1.0895	OK	11-12-2024	08:48:59.110	1074.688	37.573	OK
11-12-2024	08:48:59.218	1074.797	7.500	7.500	27.495	936	0	1.0898	OK	11-12-2024	08:48:59.218	1074.797	37.574	OK
11-12-2024	08:48:59.310	1074.889	7.500	7.500	27.499	936	0	1.0895	OK	11-12-2024	08:48:59.310	1074.889	37.574	OK
11-12-2024	08:48:59.483	1075.062	7.500	7.500	27.497	937	0	1.0896	OK	11-12-2024	08:48:59.483	1075.062	37.574	OK
11-12-2024	08:48:59.740	1075.319	7.501	7.501	27.505	937	0	1.0891	OK	11-12-2024	08:48:59.740	1075.319	37.573	OK
11-12-2024	08:48:59.912	1075.491	7.502	7.502	27.506	937	0	1.0890	OK	11-12-2024	08:48:59.912	1075.491	37.573	OK
11-12-2024	08:49:00.012	1075.591	7.501	7.501	27.505	937	0	1.0890	OK	11-12-2024	08:49:00.012	1075.591	37.573	OK
11-12-2024	08:49:00.111	1075.690	7.501	7.501	27.504	937	0	1.0891	OK	11-12-2024	08:49:00.111	1075.690	37.572	OK
11-12-2024	08:49:00.219	1075.798	7.500	7.500	27.498	936	0	1.0895	OK	11-12-2024	08:49:00.219	1075.798	37.573	OK
11-12-2024	08:49:00.311	1075.890	7.500	7.500	27.497	937	0	1.0896	OK	11-12-2024	08:49:00.311	1075.890	37.573	OK
11-12-2024	08:49:00.483	1076.062	7.501	7.501	27.500	937	0	1.0894	OK	11-12-2024	08:49:00.483	1076.062	37.574	OK
11-12-2024	08:49:00.753	1076.332	7.502	7.502	27.510	937	0	1.0887	OK	11-12-2024	08:49:00.753	1076.332	37.574	OK
11-12-2024	08:49:00.912	1076.491	7.502	7.502	27.506	937	0	1.0890	OK	11-12-2024	08:49:00.912	1076.491	37.574	OK
11-12-2024	08:49:01.012	1076.591	7.501	7.501	27.501	937	0	1.0894	OK	11-12-2024	08:49:01.012	1076.591	37.574	OK
11-12-2024	08:49:01.112	1076.691	7.501	7.501	27.505	937	0	1.0891	OK	11-12-2024	08:49:01.112	1076.691	37.574	OK
11-12-2024	08:49:01.220	1076.799	7.500	7.500	27.497	937	0	1.0896	OK	11-12-2024	08:49:01.220	1076.799	37.574	OK
11-12-2024	08:49:01.312	1076.891	7.500	7.500	27.497	937	0	1.0896	OK	11-12-2024	08:49:01.312	1076.891	37.573	OK
11-12-2024	08:49:01.484	1077.062	7.500	7.500	27.498	937	0	1.0896	OK	11-12-2024	08:49:01.484	1077.062	37.573	OK
11-12-2024	08:49:01.754	1077.333	7.501	7.501	27.503	937	0	1.0892	OK	11-12-2024	08:49:01.754	1077.333	37.572	OK
11-12-2024	08:49:01.913	1077.491	7.501	7.501	27.504	937	0	1.0892	OK	11-12-2024	08:49:01.913	1077.491	37.573	OK
11-12-2024	08:49:02.012	1077.591	7.502	7.502	27.507	937	0	1.0890	OK	11-12-2024	08:49:02.012	1077.591	37.573	OK
11-12-2024	08:49:02.115	1077.694	7.501	7.501	27.502	936	0	1.0893	OK	11-12-2024	08:49:02.115	1077.694	37.574	OK
11-12-2024	08:49:02.221	1077.800	7.501	7.501	27.502	936	0	1.0893	OK	11-12-2024	08:49:02.221	1077.800	37.574	OK
11-12-2024	08:49:02.315	1077.894	7.500	7.500	27.499	937	0	1.0895	OK	11-12-2024	08:49:02.315	1077.894	37.574	OK
11-12-2024	08:49:02.486	1078.065	7.501	7.501	27.500	937	0	1.0894	OK	11-12-2024	08:49:02.486	1078.065	37.574	OK
11-12-2024	08:49:02.744	1078.323	7.501	7.501	27.504	937	0	1.0892	OK	11-12-2024	08:49:02.744	1078.323	37.575	OK
11-12-2024	08:49:02.915	1078.494	7.501	7.501	27.505	937	0	1.0891	OK	11-12-2024	08:49:02.915	1078.494	37.576	OK
11-12-2024	08:49:03.015	1078.594	7.500	7.500	27.499	937	0	1.0895	OK	11-12-2024	08:49:03.015	1078.594	37.576	OK
11-12-2024	08:49:03.115	1078.694	7.500	7.500	27.498	937	0	1.0896	OK	11-12-2024	08:49:03.115	1078.694	37.577	OK
11-12-2024	08:49:03.221	1078.800	7.501	7.501	27.500	937	0	1.0894	OK	11-12-2024	08:49:03.221	1078.800	37.577	OK
11-12-2024	08:49:03.315	1078.894	7.500	7.500	27.496	936	0	1.0897	OK	11-12-2024	08:49:03.315	1078.894	37.578	OK
11-12-2024	08:49:03.485	1079.064	7.500	7.500	27.498	936	0	1.0896	OK	11-12-2024	08:49:03.485	1079.064	37.578	OK
11-12-2024	08:49:03.744	1079.323	7.501	7.501	27.505	937	0	1.0891	OK	11-12-2024	08:49:03.744	1079.323	37.577	OK
11-12-2024	08:49:03.915	1079.494	7.501	7.501	27.504	937	0	1.0892	OK	11-12-2024	08:49:03.915	1079.494	37.577	OK
11-12-2024	08:49:04.015	1079.594	7.501	7.501	27.501	936	0	1.0894	OK	11-12-2024	08:49:04.015	1079.594	37.577	OK
11-12-2024	08:49:04.114	1079.693	7.500	7.500	27.498	937	0	1.0895	OK	11-12-2024	08:49:04.114	1079.693	37.578	OK
11-12-2024	08:49:04.221	1079.800	7.501	7.501	27.502	937	0	1.0892	OK	11-12-2024	08:49:04.221	1079.800	37.578	OK
11-12-2024	08:49:04.314	1079.893	7.500	7.500	27.497	936	0	1.0896	OK	11-12-2024	08:49:04.314	1079.893	37.579	OK
11-12-2024	08:49:04.487	1080.066	7.501	7.501	27.504	936	0	1.0891	OK	11-12-2024	08:49:04.487	1080.066	37.578	OK
11-12-2024	08:49:04.742	1080.321	7.501	7.501	27.503	937	0	1.0892	OK	11-12-2024	08:49:04.742	1080.321	37.578	OK
11-12-2024	08:49:04.913	1080.492	7.501	7.501	27.504	937	0	1.0891	OK	11-12-2024	08:49:04.913	1080.492	37.578	OK
11-12-2024	08:49:05.014	1080.593	7.501	7.501	27.505	937	0	1.0890	OK	11-12-2024	08:49:05.014	1080.593	37.578	OK
11-12-2024	08:49:05.115	1080.694	7.501	7.501	27.499	936	0	1.0895	OK	11-12-2024	08:49:05.115	1080.694	37.579	OK
11-12-2024	08:49:05.224	1080.802	7.501	7.501	27.504	936	0	1.0891	OK	11-12-2024	08:49:05.224	1080.802	37.579	OK
11-12-2024	08:49:05.315	1080.894	7.501	7.501	27.499	936	0	1.0895	OK	11-12-2024	08:49:05.315	1080.894	37.578	OK
11-12-2024	08:49:05.483	1081.062	7.501	7.501	27.503	936	0	1.0892	OK	11-12-2024	08:49:05.483	1081.062	37.578	OK
11-12-2024	08:49:05.739	1081.318	7.501	7.501	27.505	937	0	1.0890	OK	11-12-2024	08:49:05.739	1081.318	37.578	OK
11-12-2024	08:49:05.916	1081.495	7.502	7.502	27.509	937	0	1.0888	OK	11-12-2024	08:49:05.916	1081.495	37.579	OK
11-12-2024	08:49:06.017	1081.596	7.501	7.501	27.504	937	0	1.0891	OK	11-12-2024	08:49:06.017	1081.596	37.579	OK
11-12-2024	08:49:06.116	1081.695	7.500	7.500	27.496	937	0	1.0897	OK	11-12-2024	08:49:06.116	1081.695	37.579	OK
11-12-2024	08:49:06.225	1081.804	7.501	7.501	27.501	937	0	1.0893	OK	11-12-2024	08:49:06.225	1081.804	37.579	OK
11-12-2024	08:49:06.317	1081.896	7.500	7.500	27.495	937	0	1.0897	OK	11-12-2024	08:49:06.317	1081.896	37.578	OK
11-12-2024	08:49:06.487	1082.066	7.501	7.501	27.501	937	0	1.0893	OK	11-12-2024	08:49:06.487	1082.066	37.578	OK
11-12-2024	08:49:06.760	1082.339	7.502	7.502	27.507	937	0	1.0889	OK	11-12-2024	08:49:06.760	1082.339	37.577	OK
11-12-2024	08:49:06.918	1082.497	7.502	7.502	27.506	937	0	1.0890	OK	11-12-2024	08:49:06.918	1082.497	37.578	OK
11-12-2024	08:49:07.017	1082.596	7.501	7.501	27.504	937	0	1.0891	OK	11-12-2024	08:49:07.017	1082.596	37.578	OK
11-12-2024	08:49:07.118	1082.697	7.501	7.501	27.503	937	0	1.0892	OK	11-12-2024	08:49:07.118	1082.697	37.578	OK
11-12-2024	08:49:07.229	1082.808	7.501	7.501	27.502	937	0	1.0893	OK	11-12-2024	08:49:07.229	1082.808	37.578	OK
11-12-2024	08:49:07.318	1082.897	7.501	7.501	27.501	936	0	1.0894	OK	11-12-2024	08:49:07.318	1082.897	37.577	OK
11-12-2024	08:49:07.485	1083.064	7.501	7.501	27.502	936	0	1.0893	OK	11-12-2024	08:49:07.485	1083.064	37.577	OK
11-12-2024	08:49:07.741	1083.320	7.501	7.501	27.505	937	0	1.0891	OK	11-12-2024	08:49:07.741	1083.320	37.578	OK
11-12-2024	08:49:07.921	1083.500	7.502	7.502	27.508	937	0	1.0889	OK	11-12-2024	08:49:07.921	1083.500	37.578	OK
11-12-2024	08:49:08.020	1083.599	7.500	7.500	27.499	937	0	1.0895	OK	11-12-2024	08:49:08.020	1083.599	37.578	OK
11-12-2024	08:49:08.121	1083.700	7.501	7.501	27.499	937	0	1.0895	OK	11-12-2024	08:49:08.121	1083.700	37.578	OK
11-12-2024	08:49:08.225	1083.804	7.501	7.501	27.500	937	0	1.0894	OK	11-12-2024	08:49:08.225	1083.804	37.579	OK
11-12-2024	08:49:08.321	1083.900	7.500	7.500	27.495	937	0	1.0897	OK	11-12-2024	08:49:08.321	1083.900	37.579	OK
11-12-2024	08:49:08.493	1084.072	7.501	7.501	27.503	937	0	1.0892	OK	11-12-2024	08:49:08.493	1084.072	37.578	OK
11-12-2024	08:49:08.751	1084.330	7.502	7.502	27.507	937	0	1.0889	OK	11-12-2024	08:49:08.751	1084.330	37.579	OK
11-12-2024	08:49:08.921	1084.499	7.501	7.501	27.504	937	0	1.0891	OK	11-12-2024	08:49:08.921	1084.499	37.579	OK
11-12-2024	08:49:09.020	1084.599	7.501	7.501	27.501	937	0	1.0893	OK	11-12-2024	08:49:09.020	1084.599	37.579	OK
11-12-2024	08:49:09.121	1084.700	7.501	7.501	27.499	937	0	1.0895	OK	11-12-2024	08:49:09.121	1084.700	37.579	OK
11-12-2024	08:49:09.225	1084.804	7.500	7.500	27.497	937	0	1.0896	OK	11-12-2024	08:49:09.225	1084.804	37.578	OK
11-12-2024	08:49:09.320	1084.899	7.501	7.501	27.499	937	0	1.0895	OK	11-12-2024	08:49:09.320	1084.899	37.578	OK
11-12-2024	08:49:09.491	1085.070	7.501	7.501	27.500	937	0	1.0894	OK	11-12-2024	08:49:09.491	1085.070	37.578	OK
11-12-2024	08:49:09.747	1085.326	7.502	7.502	27.509	937	0	1.0888	OK	11-12-2024	08:49:09.747	1085.326	37.578	OK
11-12-2024	08:49:09.921	1085.500	7.501	7.501	27.504	937	0	1.0891	OK	11-12-2024	08:49:09.921	1085.500	37.577	OK
11-12-2024	08:49:10.020	1085.599	7.501	7.501	27.501	937	0	1.0893	OK	11-12-2024	08:49:10.020	1085.599	37.578	OK
11-12-2024	08:49:10.122	1085.701	7.500	7.500	27.496	937	0	1.0897	OK	11-12-2024	08:49:10.122	1085.701	37.578	OK
11-12-2024	08:49:10.321	1085.900	7.501	7.501	27.502	937	0	1.0892	OK	11-12-2024	08:49:10.321	1085.900	37.578	OK
11-12-2024	08:49:10.491	1086.070	7.501	7.501	27.499	937	0	1.0895	OK	11-12-2024	08:49:10.491	1086.070	37.579	OK
11-12-2024	08:49:10.747	1086.326	7.502	7.502	27.507	937	0	1.0889	OK	11-12-2024	08:49:10.747	1086.326	37.579	OK
11-12-2024	08:49:10.924	1086.503	7.501	7.501	27.500	937	0	1.0894	OK	11-12-2024	08:49:10.924	1086.503	37.579	OK
11-12-2024	08:49:11.024	1086.603	7.501	7.501	27.499	937	0	1.0895	OK	11-12-2024	08:49:11.024	1086.603	37.579	OK
11-12-2024	08:49:11.125	1086.704	7.500	7.500	27.497	937	0	1.0896	OK	11-12-2024	08:49:11.125	1086.704	37.579	OK
11-12-2024	08:49:11.225	1086.804	7.500	7.500	27.494	937	0	1.0898	OK	11-12-2024	08:49:11.225	1086.804	37.580	OK
11-12-2024	08:49:11.324	1086.903	7.500	7.500	27.496	937	0	1.0897	OK	11-12-2024	08:49:11.324	1086.903	37.580	OK
11-12-2024	08:49:11.494	1087.073	7.501	7.501	27.503	936	0	1.0892	OK	11-12-2024	08:49:11.494	1087.073	37.580	OK
11-12-2024	08:49:11.750	1087.329	7.501	7.501	27.505	937	0	1.0890	OK	11-12-2024	08:49:11.750	1087.329	37.581	OK
11-12-2024	08:49:11.925	1087.504	7.502	7.502	27.507	936	0	1.0889	OK	11-12-2024	08:49:11.925	1087.504	37.581	OK
11-12-2024	08:49:12.025	1087.604	7.501	7.501	27.501	936	0	1.0893	OK	11-12-2024	08:49:12.025	1087.604	37.581	OK
11-12-2024	08:49:12.125	1087.704	7.501	7.501	27.502	936	0	1.0892	OK	11-12-2024	08:49:12.125	1087.704	37.581	OK
11-12-2024	08:49:12.226	1087.805	7.500	7.500	27.499	936	0	1.0895	OK	11-12-2024	08:49:12.226	1087.805	37.582	OK
11-12-2024	08:49:12.326	1087.905	7.500	7.500	27.500	937	0	1.0894	OK	11-12-2024	08:49:12.326	1087.905	37.582	OK
11-12-2024	08:49:12.497	1088.076	7.501	7.501	27.501	936	0	1.0894	OK	11-12-2024	08:49:12.497	1088.076	37.582	OK
11-12-2024	08:49:12.755	1088.334	7.501	7.501	27.503	937	0	1.0892	OK	11-12-2024	08:49:12.755	1088.334	37.582	OK
11-12-2024	08:49:12.926	1088.505	7.501	7.501	27.504	937	0	1.0892	OK	11-12-2024	08:49:12.926	1088.505	37.582	OK
11-12-2024	08:49:13.026	1088.605	7.501	7.501	27.504	937	0	1.0892	OK	11-12-2024	08:49:13.026	1088.605	37.583	OK
11-12-2024	08:49:13.126	1088.705	7.501	7.501	27.501	936	0	1.0894	OK	11-12-2024	08:49:13.126	1088.705	37.583	OK
11-12-2024	08:49:13.226	1088.805	7.500	7.500	27.499	936	0	1.0895	OK	11-12-2024	08:49:13.226	1088.805	37.582	OK
11-12-2024	08:49:13.326	1088.905	7.500	7.500	27.495	937	0	1.0897	OK	11-12-2024	08:49:13.326	1088.905	37.582	OK
11-12-2024	08:49:13.498	1089.077	7.500	7.500	27.499	937	0	1.0895	OK	11-12-2024	08:49:13.498	1089.077	37.582	OK
11-12-2024	08:49:13.755	1089.334	7.501	7.501	27.503	937	0	1.0892	OK	11-12-2024	08:49:13.755	1089.334	37.582	OK
11-12-2024	08:49:13.927	1089.506	7.501	7.501	27.506	937	0	1.0890	OK	11-12-2024	08:49:13.927	1089.506	37.583	OK
11-12-2024	08:49:14.025	1089.604	7.501	7.501	27.501	937	0	1.0893	OK	11-12-2024	08:49:14.025	1089.604	37.583	OK
11-12-2024	08:49:14.127	1089.706	7.501	7.501	27.501	937	0	1.0893	OK	11-12-2024	08:49:14.127	1089.706	37.583	OK
11-12-2024	08:49:14.227	1089.806	7.500	7.500	27.498	937	0	1.0895	OK	11-12-2024	08:49:14.227	1089.806	37.582	OK
11-12-2024	08:49:14.327	1089.906	7.500	7.500	27.497	937	0	1.0896	OK	11-12-2024	08:49:14.327	1089.906	37.582	OK
11-12-2024	08:49:14.497	1090.075	7.501	7.501	27.501	937	0	1.0893	OK	11-12-2024	08:49:14.497	1090.075	37.581	OK
11-12-2024	08:49:14.767	1090.346	7.501	7.501	27.505	937	0	1.0890	OK	11-12-2024	08:49:14.767	1090.346	37.581	OK
11-12-2024	08:49:14.926	1090.505	7.501	7.501	27.502	937	0	1.0892	OK	11-12-2024	08:49:14.926	1090.505	37.580	OK
11-12-2024	08:49:15.025	1090.604	7.500	7.500	27.496	937	0	1.0897	OK	11-12-2024	08:49:15.025	1090.604	37.579	OK
11-12-2024	08:49:15.127	1090.706	7.500	7.500	27.496	937	0	1.0897	OK	11-12-2024	08:49:15.127	1090.706	37.579	OK
11-12-2024	08:49:15.228	1090.807	7.500	7.500	27.494	937	0	1.0898	OK	11-12-2024	08:49:15.228	1090.807	37.579	OK
11-12-2024	08:49:15.327	1090.906	7.500	7.500	27.495	937	0	1.0897	OK	11-12-2024	08:49:15.327	1090.906	37.579	OK
11-12-2024	08:49:15.498	1091.077	7.500	7.500	27.498	937	0	1.0895	OK	11-12-2024	08:49:15.498	1091.077	37.579	OK
11-12-2024	08:49:15.753	1091.332	7.501	7.501	27.502	937	0	1.0892	OK	11-12-2024	08:49:15.753	1091.332	37.579	OK
11-12-2024	08:49:15.928	1091.507	7.501	7.501	27.500	937	0	1.0894	OK	11-12-2024	08:49:15.928	1091.507	37.579	OK
11-12-2024	08:49:16.027	1091.606	7.500	7.500	27.497	937	0	1.0896	OK	11-12-2024	08:49:16.027	1091.606	37.579	OK
11-12-2024	08:49:16.127	1091.706	7.500	7.500	27.496	937	0	1.0897	OK	11-12-2024	08:49:16.127	1091.706	37.579	OK
11-12-2024	08:49:16.227	1091.806	7.500	7.500	27.496	937	0	1.0897	OK	11-12-2024	08:49:16.227	1091.806	37.579	OK
11-12-2024	08:49:16.327	1091.906	7.500	7.500	27.498	937	0	1.0895	OK	11-12-2024	08:49:16.327	1091.906	37.578	OK
11-12-2024	08:49:16.498	1092.077	7.501	7.501	27.501	937	0	1.0893	OK	11-12-2024	08:49:16.498	1092.077	37.578	OK
11-12-2024	08:49:16.769	1092.348	7.502	7.502	27.506	937	0	1.0890	OK	11-12-2024	08:49:16.769	1092.348	37.577	OK
11-12-2024	08:49:16.928	1092.507	7.502	7.502	27.508	937	0	1.0888	OK	11-12-2024	08:49:16.928	1092.507	37.576	OK
11-12-2024	08:49:17.028	1092.607	7.501	7.501	27.500	937	0	1.0894	OK	11-12-2024	08:49:17.028	1092.607	37.576	OK
11-12-2024	08:49:17.128	1092.707	7.501	7.501	27.501	937	0	1.0893	OK	11-12-2024	08:49:17.128	1092.707	37.575	OK
11-12-2024	08:49:17.229	1092.808	7.501	7.501	27.499	937	0	1.0895	OK	11-12-2024	08:49:17.229	1092.808	37.575	OK
11-12-2024	08:49:17.328	1092.907	7.501	7.501	27.501	937	0	1.0893	OK	11-12-2024	08:49:17.328	1092.907	37.575	OK
11-12-2024	08:49:17.498	1093.077	7.500	7.500	27.497	937	0	1.0896	OK	11-12-2024	08:49:17.498	1093.077	37.575	OK
11-12-2024	08:49:17.767	1093.346	7.501	7.501	27.501	937	0	1.0893	OK	11-12-2024	08:49:17.767	1093.346	37.575	OK
11-12-2024	08:49:17.928	1093.507	7.501	7.501	27.504	937	0	1.0891	OK	11-12-2024	08:49:17.928	1093.507	37.576	OK
11-12-2024	08:49:18.029	1093.608	7.502	7.502	27.507	937	0	1.0889	OK	11-12-2024	08:49:18.029	1093.608	37.576	OK
11-12-2024	08:49:18.128	1093.707	7.501	7.501	27.503	937	0	1.0892	OK	11-12-2024	08:49:18.128	1093.707	37.576	OK
11-12-2024	08:49:18.229	1093.807	7.500	7.500	27.497	937	0	1.0896	OK	11-12-2024	08:49:18.229	1093.807	37.576	OK
11-12-2024	08:49:18.330	1093.909	7.500	7.500	27.498	936	0	1.0895	OK	11-12-2024	08:49:18.330	1093.909	37.576	OK
11-12-2024	08:49:18.530	1094.109	7.501	7.501	27.501	937	0	1.0893	OK	11-12-2024	08:49:18.530	1094.109	37.577	OK
11-12-2024	08:49:18.800	1094.379	7.503	7.503	27.514	937	0	1.0884	OK	11-12-2024	08:49:18.800	1094.379	37.577	OK
11-12-2024	08:49:18.930	1094.509	7.502	7.502	27.507	936	0	1.0889	OK	11-12-2024	08:49:18.930	1094.509	37.577	OK
11-12-2024	08:49:19.030	1094.609	7.501	7.501	27.504	937	0	1.0891	OK	11-12-2024	08:49:19.030	1094.609	37.577	OK
11-12-2024	08:49:19.130	1094.709	7.501	7.501	27.501	936	0	1.0893	OK	11-12-2024	08:49:19.130	1094.709	37.577	OK
11-12-2024	08:49:19.231	1094.810	7.501	7.501	27.504	936	0	1.0891	OK	11-12-2024	08:49:19.231	1094.810	37.577	OK
11-12-2024	08:49:19.329	1094.908	7.501	7.501	27.499	936	0	1.0895	OK	11-12-2024	08:49:19.329	1094.908	37.577	OK
11-12-2024	08:49:19.499	1095.078	7.501	7.501	27.501	937	0	1.0893	OK	11-12-2024	08:49:19.499	1095.078	37.577	OK
11-12-2024	08:49:19.758	1095.337	7.502	7.502	27.509	937	0	1.0888	OK	11-12-2024	08:49:19.758	1095.337	37.578	OK
11-12-2024	08:49:19.930	1095.509	7.502	7.502	27.506	937	0	1.0890	OK	11-12-2024	08:49:19.930	1095.509	37.579	OK
11-12-2024	08:49:20.030	1095.609	7.502	7.502	27.507	937	0	1.0889	OK	11-12-2024	08:49:20.030	1095.609	37.579	OK
11-12-2024	08:49:20.130	1095.709	7.500	7.500	27.499	937	0	1.0895	OK	11-12-2024	08:49:20.130	1095.709	37.580	OK
11-12-2024	08:49:20.230	1095.809	7.500	7.500	27.499	937	0	1.0895	OK	11-12-2024	08:49:20.230	1095.809	37.580	OK
11-12-2024	08:49:20.331	1095.910	7.500	7.500	27.497	937	0	1.0896	OK	11-12-2024	08:49:20.331	1095.910	37.580	OK
11-12-2024	08:49:20.531	1096.110	7.501	7.501	27.501	937	0	1.0893	OK	11-12-2024	08:49:20.531	1096.110	37.581	OK
11-12-2024	08:49:20.785	1096.364	7.502	7.502	27.507	937	0	1.0889	OK	11-12-2024	08:49:20.785	1096.364	37.581	OK
11-12-2024	08:49:20.932	1096.510	7.501	7.501	27.504	937	0	1.0891	OK	11-12-2024	08:49:20.932	1096.510	37.581	OK
11-12-2024	08:49:21.031	1096.610	7.501	7.501	27.502	937	0	1.0892	OK	11-12-2024	08:49:21.031	1096.610	37.581	OK
11-12-2024	08:49:21.132	1096.710	7.501	7.501	27.500	936	0	1.0894	OK	11-12-2024	08:49:21.132	1096.710	37.581	OK
11-12-2024	08:49:21.232	1096.811	7.501	7.501	27.500	937	0	1.0894	OK	11-12-2024	08:49:21.232	1096.811	37.581	OK
11-12-2024	08:49:21.331	1096.910	7.500	7.500	27.496	937	0	1.0897	OK	11-12-2024	08:49:21.331	1096.910	37.581	OK
11-12-2024	08:49:21.502	1097.081	7.501	7.501	27.502	937	0	1.0892	OK	11-12-2024	08:49:21.502	1097.081	37.581	OK
11-12-2024	08:49:21.757	1097.335	7.501	7.501	27.503	937	0	1.0892	OK	11-12-2024	08:49:21.757	1097.335	37.580	OK
11-12-2024	08:49:21.933	1097.511	7.501	7.501	27.503	937	0	1.0892	OK	11-12-2024	08:49:21.933	1097.511	37.580	OK
11-12-2024	08:49:22.032	1097.611	7.500	7.500	27.497	937	0	1.0896	OK	11-12-2024	08:49:22.032	1097.611	37.580	OK
11-12-2024	08:49:22.132	1097.711	7.501	7.501	27.500	937	0	1.0894	OK	11-12-2024	08:49:22.132	1097.711	37.580	OK
11-12-2024	08:49:22.233	1097.812	7.500	7.500	27.495	937	0	1.0897	OK	11-12-2024	08:49:22.233	1097.812	37.580	OK
11-12-2024	08:49:22.333	1097.912	7.500	7.500	27.499	937	0	1.0895	OK	11-12-2024	08:49:22.333	1097.912	37.580	OK
11-12-2024	08:49:22.504	1098.083	7.501	7.501	27.502	937	0	1.0892	OK	11-12-2024	08:49:22.504	1098.083	37.580	OK
11-12-2024	08:49:22.774	1098.353	7.501	7.501	27.503	937	0	1.0892	OK	11-12-2024	08:49:22.774	1098.353	37.579	OK
11-12-2024	08:49:22.936	1098.515	7.501	7.501	27.503	937	0	1.0892	OK	11-12-2024	08:49:22.936	1098.515	37.579	OK
11-12-2024	08:49:23.036	1098.615	7.501	7.501	27.499	937	0	1.0895	OK	11-12-2024	08:49:23.036	1098.615	37.579	OK
11-12-2024	08:49:23.136	1098.715	7.500	7.500	27.494	937	0	1.0898	OK	11-12-2024	08:49:23.136	1098.715	37.579	OK
11-12-2024	08:49:23.236	1098.815	7.500	7.500	27.497	937	0	1.0896	OK	11-12-2024	08:49:23.236	1098.815	37.579	OK
11-12-2024	08:49:23.337	1098.915	7.500	7.500	27.494	937	0	1.0898	OK	11-12-2024	08:49:23.337	1098.915	37.579	OK
11-12-2024	08:49:23.507	1099.086	7.501	7.501	27.504	937	0	1.0891	OK	11-12-2024	08:49:23.507	1099.086	37.578	OK
11-12-2024	08:49:23.764	1099.342	7.501	7.501	27.502	937	0	1.0892	OK	11-12-2024	08:49:23.764	1099.342	37.577	OK
11-12-2024	08:49:23.938	1099.517	7.501	7.501	27.501	937	0	1.0893	OK	11-12-2024	08:49:23.938	1099.517	37.577	OK
11-12-2024	08:49:24.038	1099.617	7.500	7.500	27.498	937	0	1.0895	OK	11-12-2024	08:49:24.038	1099.617	37.577	OK
11-12-2024	08:49:24.138	1099.717	7.501	7.501	27.501	937	0	1.0893	OK	11-12-2024	08:49:24.138	1099.717	37.577	OK
11-12-2024	08:49:24.237	1099.816	7.500	7.500	27.497	937	0	1.0896	OK	11-12-2024	08:49:24.237	1099.816	37.577	OK
11-12-2024	08:49:24.337	1099.916	7.500	7.500	27.497	937	0	1.0896	OK	11-12-2024	08:49:24.337	1099.916	37.577	OK
11-12-2024	08:49:24.505	1100.084	7.501	7.501	27.503	937	0	1.0892	OK	11-12-2024	08:49:24.505	1100.084	37.577	OK
11-12-2024	08:49:24.775	1100.354	7.501	7.501	27.504	937	0	1.0891	OK	11-12-2024	08:49:24.775	1100.354	37.576	OK
11-12-2024	08:49:24.938	1100.517	7.502	7.502	27.506	937	0	1.0890	OK	11-12-2024	08:49:24.938	1100.517	37.576	OK
11-12-2024	08:49:25.038	1100.617	7.500	7.500	27.498	937	0	1.0895	OK	11-12-2024	08:49:25.038	1100.617	37.576	OK
11-12-2024	08:49:25.138	1100.717	7.500	7.500	27.492	937	0	1.0899	OK	11-12-2024	08:49:25.138	1100.717	37.576	OK
11-12-2024	08:49:25.237	1100.816	7.500	7.500	27.496	937	0	1.0897	OK	11-12-2024	08:49:25.237	1100.816	37.577	OK
11-12-2024	08:49:25.338	1100.917	7.500	7.500	27.496	937	0	1.0897	OK	11-12-2024	08:49:25.338	1100.917	37.577	OK
11-12-2024	08:49:25.509	1101.088	7.500	7.500	27.495	937	0	1.0897	OK	11-12-2024	08:49:25.509	1101.088	37.577	OK
11-12-2024	08:49:25.785	1101.364	7.501	7.501	27.505	937	0	1.0890	OK	11-12-2024	08:49:25.785	1101.364	37.577	OK
11-12-2024	08:49:25.940	1101.519	7.501	7.501	27.502	937	0	1.0892	OK	11-12-2024	08:49:25.940	1101.519	37.577	OK
11-12-2024	08:49:26.040	1101.619	7.501	7.501	27.499	937	0	1.0894	OK	11-12-2024	08:49:26.040	1101.619	37.577	OK
11-12-2024	08:49:26.140	1101.719	7.500	7.500	27.497	937	0	1.0896	OK	11-12-2024	08:49:26.140	1101.719	37.577	OK
11-12-2024	08:49:26.242	1101.821	7.500	7.500	27.496	937	0	1.0896	OK	11-12-2024	08:49:26.242	1101.821	37.576	OK
11-12-2024	08:49:26.343	1101.921	7.500	7.500	27.496	937	0	1.0896	OK	11-12-2024	08:49:26.343	1101.921	37.576	OK
11-12-2024	08:49:26.513	1102.092	7.501	7.501	27.501	937	0	1.0893	OK	11-12-2024	08:49:26.513	1102.092	37.575	OK
11-12-2024	08:49:26.770	1102.349	7.501	7.501	27.503	937	0	1.0891	OK	11-12-2024	08:49:26.770	1102.349	37.575	OK
11-12-2024	08:49:26.946	1102.525	7.501	7.501	27.499	937	0	1.0894	OK	11-12-2024	08:49:26.946	1102.525	37.575	OK
11-12-2024	08:49:27.046	1102.625	7.501	7.501	27.502	937	0	1.0892	OK	11-12-2024	08:49:27.046	1102.625	37.575	OK
11-12-2024	08:49:27.146	1102.725	7.501	7.501	27.499	937	0	1.0894	OK	11-12-2024	08:49:27.146	1102.725	37.575	OK
11-12-2024	08:49:27.246	1102.825	7.500	7.500	27.493	937	0	1.0898	OK	11-12-2024	08:49:27.246	1102.825	37.575	OK
11-12-2024	08:49:27.345	1102.924	7.500	7.500	27.494	937	0	1.0898	OK	11-12-2024	08:49:27.345	1102.924	37.575	OK
11-12-2024	08:49:27.516	1103.095	7.501	7.501	27.501	937	0	1.0893	OK	11-12-2024	08:49:27.516	1103.095	37.575	OK
11-12-2024	08:49:27.785	1103.364	7.502	7.502	27.505	937	0	1.0890	OK	11-12-2024	08:49:27.785	1103.364	37.575	OK
11-12-2024	08:49:27.945	1103.524	7.502	7.502	27.505	937	0	1.0890	OK	11-12-2024	08:49:27.945	1103.524	37.575	OK
11-12-2024	08:49:28.046	1103.625	7.501	7.501	27.498	937	0	1.0895	OK	11-12-2024	08:49:28.046	1103.625	37.575	OK
11-12-2024	08:49:28.147	1103.726	7.501	7.501	27.500	937	0	1.0893	OK	11-12-2024	08:49:28.147	1103.726	37.575	OK
11-12-2024	08:49:28.248	1103.827	7.501	7.501	27.498	937	0	1.0895	OK	11-12-2024	08:49:28.248	1103.827	37.575	OK
11-12-2024	08:49:28.348	1103.926	7.500	7.500	27.496	937	0	1.0896	OK	11-12-2024	08:49:28.348	1103.926	37.575	OK
11-12-2024	08:49:28.516	1104.095	7.500	7.500	27.497	937	0	1.0896	OK	11-12-2024	08:49:28.516	1104.095	37.574	OK
11-12-2024	08:49:28.787	1104.366	7.501	7.501	27.500	937	0	1.0893	OK	11-12-2024	08:49:28.787	1104.366	37.574	OK
11-12-2024	08:49:28.948	1104.527	7.501	7.501	27.501	937	0	1.0893	OK	11-12-2024	08:49:28.948	1104.527	37.575	OK
11-12-2024	08:49:29.047	1104.626	7.501	7.501	27.499	937	0	1.0894	OK	11-12-2024	08:49:29.047	1104.626	37.574	OK
11-12-2024	08:49:29.148	1104.727	7.501	7.501	27.500	937	0	1.0893	OK	11-12-2024	08:49:29.148	1104.727	37.574	OK
11-12-2024	08:49:29.248	1104.827	7.500	7.500	27.496	937	0	1.0896	OK	11-12-2024	08:49:29.248	1104.827	37.575	OK
11-12-2024	08:49:29.348	1104.927	7.500	7.500	27.496	937	0	1.0896	OK	11-12-2024	08:49:29.348	1104.927	37.575	OK
11-12-2024	08:49:29.534	1105.113	7.501	7.501	27.500	937	0	1.0893	OK	11-12-2024	08:49:29.534	1105.113	37.576	OK
11-12-2024	08:49:29.786	1105.365	7.502	7.502	27.507	937	0	1.0889	OK	11-12-2024	08:49:29.786	1105.365	37.577	OK
11-12-2024	08:49:29.948	1105.527	7.501	7.501	27.504	937	0	1.0891	OK	11-12-2024	08:49:29.948	1105.527	37.576	OK
11-12-2024	08:49:30.046	1105.625	7.500	7.500	27.496	937	0	1.0896	OK	11-12-2024	08:49:30.046	1105.625	37.576	OK
11-12-2024	08:49:30.148	1105.727	7.501	7.501	27.498	937	0	1.0895	OK	11-12-2024	08:49:30.148	1105.727	37.576	OK
11-12-2024	08:49:30.248	1105.827	7.500	7.500	27.494	937	0	1.0898	OK	11-12-2024	08:49:30.248	1105.827	37.577	OK
11-12-2024	08:49:30.348	1105.927	7.500	7.500	27.495	937	0	1.0897	OK	11-12-2024	08:49:30.348	1105.927	37.577	OK
11-12-2024	08:49:30.519	1106.098	7.501	7.501	27.498	937	0	1.0894	OK	11-12-2024	08:49:30.519	1106.098	37.577	OK
11-12-2024	08:49:30.774	1106.353	7.501	7.501	27.504	937	0	1.0890	OK	11-12-2024	08:49:30.774	1106.353	37.577	OK
11-12-2024	08:49:30.948	1106.527	7.501	7.501	27.501	937	0	1.0892	OK	11-12-2024	08:49:30.948	1106.527	37.576	OK
11-12-2024	08:49:31.047	1106.626	7.501	7.501	27.501	937	0	1.0892	OK	11-12-2024	08:49:31.047	1106.626	37.576	OK
11-12-2024	08:49:31.147	1106.725	7.500	7.500	27.497	937	0	1.0895	OK	11-12-2024	08:49:31.147	1106.725	37.577	OK
11-12-2024	08:49:31.247	1106.826	7.501	7.501	27.498	937	0	1.0894	OK	11-12-2024	08:49:31.247	1106.826	37.577	OK
11-12-2024	08:49:31.347	1106.926	7.500	7.500	27.493	937	0	1.0898	OK	11-12-2024	08:49:31.347	1106.926	37.578	OK
11-12-2024	08:49:31.519	1107.098	7.500	7.500	27.495	937	0	1.0897	OK	11-12-2024	08:49:31.519	1107.098	37.578	OK
11-12-2024	08:49:31.773	1107.352	7.501	7.501	27.503	937	0	1.0891	OK	11-12-2024	08:49:31.773	1107.352	37.579	OK
11-12-2024	08:49:31.949	1107.528	7.501	7.501	27.501	937	0	1.0893	OK	11-12-2024	08:49:31.949	1107.528	37.578	OK
11-12-2024	08:49:32.048	1107.627	7.501	7.501	27.500	937	0	1.0893	OK	11-12-2024	08:49:32.048	1107.627	37.578	OK
11-12-2024	08:49:32.149	1107.728	7.501	7.501	27.500	937	0	1.0893	OK	11-12-2024	08:49:32.149	1107.728	37.578	OK
11-12-2024	08:49:32.250	1107.829	7.500	7.500	27.498	937	0	1.0895	OK	11-12-2024	08:49:32.250	1107.829	37.578	OK
11-12-2024	08:49:32.350	1107.929	7.500	7.500	27.496	937	0	1.0896	OK	11-12-2024	08:49:32.350	1107.929	37.579	OK
11-12-2024	08:49:32.522	1108.101	7.501	7.501	27.503	937	0	1.0891	OK	11-12-2024	08:49:32.522	1108.101	37.578	OK
11-12-2024	08:49:32.782	1108.361	7.502	7.502	27.507	937	0	1.0889	OK	11-12-2024	08:49:32.782	1108.361	37.580	OK
11-12-2024	08:49:32.950	1108.529	7.501	7.501	27.505	937	0	1.0890	OK	11-12-2024	08:49:32.950	1108.529	37.580	OK
11-12-2024	08:49:33.050	1108.629	7.501	7.501	27.499	937	0	1.0894	OK	11-12-2024	08:49:33.050	1108.629	37.580	OK
11-12-2024	08:49:33.151	1108.730	7.501	7.501	27.500	937	0	1.0893	OK	11-12-2024	08:49:33.151	1108.730	37.581	OK
11-12-2024	08:49:33.251	1108.830	7.500	7.500	27.496	937	0	1.0896	OK	11-12-2024	08:49:33.251	1108.830	37.581	OK
11-12-2024	08:49:33.351	1108.929	7.500	7.500	27.496	937	0	1.0896	OK	11-12-2024	08:49:33.351	1108.929	37.581	OK
11-12-2024	08:49:33.521	1109.100	7.500	7.500	27.494	937	0	1.0898	OK	11-12-2024	08:49:33.521	1109.100	37.580	OK
11-12-2024	08:49:33.777	1109.356	7.502	7.502	27.507	937	0	1.0889	OK	11-12-2024	08:49:33.777	1109.356	37.581	OK
11-12-2024	08:49:33.952	1109.531	7.501	7.501	27.504	937	0	1.0891	OK	11-12-2024	08:49:33.952	1109.531	37.581	OK
11-12-2024	08:49:34.052	1109.631	7.501	7.501	27.505	937	0	1.0890	OK	11-12-2024	08:49:34.052	1109.631	37.581	OK
11-12-2024	08:49:34.152	1109.731	7.500	7.500	27.498	937	0	1.0895	OK	11-12-2024	08:49:34.152	1109.731	37.581	OK
11-12-2024	08:49:34.252	1109.831	7.500	7.500	27.495	937	0	1.0897	OK	11-12-2024	08:49:34.252	1109.831	37.581	OK
11-12-2024	08:49:34.354	1109.933	7.500	7.500	27.498	937	0	1.0895	OK	11-12-2024	08:49:34.354	1109.933	37.580	OK
11-12-2024	08:49:34.524	1110.103	7.501	7.501	27.501	937	0	1.0893	OK	11-12-2024	08:49:34.524	1110.103	37.580	OK
11-12-2024	08:49:34.780	1110.359	7.501	7.501	27.505	937	0	1.0890	OK	11-12-2024	08:49:34.780	1110.359	37.579	OK
11-12-2024	08:49:34.955	1110.534	7.501	7.501	27.504	937	0	1.0891	OK	11-12-2024	08:49:34.955	1110.534	37.579	OK
11-12-2024	08:49:35.055	1110.634	7.501	7.501	27.501	937	0	1.0893	OK	11-12-2024	08:49:35.055	1110.634	37.579	OK
11-12-2024	08:49:35.155	1110.734	7.501	7.501	27.500	937	0	1.0893	OK	11-12-2024	08:49:35.155	1110.734	37.579	OK
11-12-2024	08:49:35.256	1110.835	7.501	7.501	27.501	937	0	1.0893	OK	11-12-2024	08:49:35.256	1110.835	37.579	OK
11-12-2024	08:49:35.358	1110.937	7.500	7.500	27.497	937	0	1.0896	OK	11-12-2024	08:49:35.358	1110.937	37.578	OK
11-12-2024	08:49:35.528	1111.107	7.501	7.501	27.499	937	0	1.0894	OK	11-12-2024	08:49:35.528	1111.107	37.578	OK
11-12-2024	08:49:35.804	1111.383	7.502	7.502	27.506	937	0	1.0889	OK	11-12-2024	08:49:35.804	1111.383	37.578	OK
11-12-2024	08:49:35.958	1111.537	7.502	7.502	27.506	937	0	1.0889	OK	11-12-2024	08:49:35.958	1111.537	37.576	OK
11-12-2024	08:49:36.058	1111.637	7.502	7.502	27.505	937	0	1.0889	OK	11-12-2024	08:49:36.058	1111.637	37.576	OK
11-12-2024	08:49:36.156	1111.735	7.501	7.501	27.499	937	0	1.0894	OK	11-12-2024	08:49:36.156	1111.735	37.576	OK
11-12-2024	08:49:36.257	1111.836	7.500	7.500	27.496	937	0	1.0896	OK	11-12-2024	08:49:36.257	1111.836	37.576	OK
11-12-2024	08:49:36.359	1111.938	7.500	7.500	27.497	937	0	1.0895	OK	11-12-2024	08:49:36.359	1111.938	37.576	OK
11-12-2024	08:49:36.529	1112.108	7.500	7.500	27.497	937	0	1.0895	OK	11-12-2024	08:49:36.529	1112.108	37.575	OK
11-12-2024	08:49:36.785	1112.364	7.502	7.502	27.507	937	0	1.0888	OK	11-12-2024	08:49:36.785	1112.364	37.575	OK
11-12-2024	08:49:36.958	1112.537	7.502	7.502	27.506	937	0	1.0889	OK	11-12-2024	08:49:36.958	1112.537	37.575	OK
11-12-2024	08:49:37.059	1112.638	7.501	7.501	27.503	937	0	1.0891	OK	11-12-2024	08:49:37.059	1112.638	37.575	OK
11-12-2024	08:49:37.159	1112.738	7.501	7.501	27.502	937	0	1.0892	OK	11-12-2024	08:49:37.159	1112.738	37.574	OK
11-12-2024	08:49:37.259	1112.838	7.501	7.501	27.498	937	0	1.0894	OK	11-12-2024	08:49:37.259	1112.838	37.574	OK
11-12-2024	08:49:37.359	1112.938	7.501	7.501	27.499	937	0	1.0894	OK	11-12-2024	08:49:37.359	1112.938	37.574	OK
11-12-2024	08:49:37.529	1113.108	7.501	7.501	27.498	937	0	1.0894	OK	11-12-2024	08:49:37.529	1113.108	37.574	OK
11-12-2024	08:49:37.786	1113.365	7.502	7.502	27.505	937	0	1.0890	OK	11-12-2024	08:49:37.786	1113.365	37.574	OK
11-12-2024	08:49:37.960	1113.539	7.502	7.502	27.505	937	0	1.0890	OK	11-12-2024	08:49:37.960	1113.539	37.574	OK
11-12-2024	08:49:38.060	1113.639	7.501	7.501	27.501	937	0	1.0893	OK	11-12-2024	08:49:38.060	1113.639	37.574	OK
11-12-2024	08:49:38.160	1113.739	7.501	7.501	27.499	937	0	1.0894	OK	11-12-2024	08:49:38.160	1113.739	37.575	OK
11-12-2024	08:49:38.260	1113.838	7.501	7.501	27.502	936	0	1.0892	OK	11-12-2024	08:49:38.260	1113.838	37.575	OK
11-12-2024	08:49:38.360	1113.939	7.501	7.501	27.498	936	0	1.0895	OK	11-12-2024	08:49:38.360	1113.939	37.574	OK
11-12-2024	08:49:38.532	1114.111	7.501	7.501	27.502	937	0	1.0892	OK	11-12-2024	08:49:38.532	1114.111	37.574	OK
11-12-2024	08:49:38.803	1114.382	7.502	7.502	27.505	937	0	1.0890	OK	11-12-2024	08:49:38.803	1114.382	37.575	OK
11-12-2024	08:49:38.961	1114.540	7.501	7.501	27.504	937	0	1.0891	OK	11-12-2024	08:49:38.961	1114.540	37.575	OK
11-12-2024	08:49:39.061	1114.640	7.501	7.501	27.501	936	0	1.0893	OK	11-12-2024	08:49:39.061	1114.640	37.575	OK
11-12-2024	08:49:39.161	1114.740	7.501	7.501	27.503	936	0	1.0891	OK	11-12-2024	08:49:39.161	1114.740	37.575	OK
11-12-2024	08:49:39.262	1114.841	7.501	7.501	27.501	936	0	1.0893	OK	11-12-2024	08:49:39.262	1114.841	37.576	OK
11-12-2024	08:49:39.362	1114.941	7.501	7.501	27.498	936	0	1.0895	OK	11-12-2024	08:49:39.362	1114.941	37.576	OK
11-12-2024	08:49:39.547	1115.126	7.501	7.501	27.502	937	0	1.0892	OK	11-12-2024	08:49:39.547	1115.126	37.576	OK
11-12-2024	08:49:39.797	1115.376	7.501	7.501	27.502	937	0	1.0892	OK	11-12-2024	08:49:39.797	1115.376	37.576	OK
11-12-2024	08:49:39.962	1115.541	7.502	7.502	27.505	937	0	1.0890	OK	11-12-2024	08:49:39.962	1115.541	37.576	OK
11-12-2024	08:49:40.162	1115.741	7.502	7.502	27.508	937	0	1.0888	OK	11-12-2024	08:49:40.162	1115.741	37.576	OK
11-12-2024	08:49:40.262	1115.841	7.500	7.500	27.497	937	0	1.0896	OK	11-12-2024	08:49:40.262	1115.841	37.576	OK
11-12-2024	08:49:40.363	1115.942	7.501	7.501	27.501	937	0	1.0893	OK	11-12-2024	08:49:40.363	1115.942	37.576	OK
11-12-2024	08:49:40.534	1116.113	7.502	7.502	27.508	937	0	1.0888	OK	11-12-2024	08:49:40.534	1116.113	37.577	OK
11-12-2024	08:49:40.806	1116.385	7.502	7.502	27.506	937	0	1.0889	OK	11-12-2024	08:49:40.806	1116.385	37.577	OK
11-12-2024	08:49:40.963	1116.542	7.501	7.501	27.504	937	0	1.0891	OK	11-12-2024	08:49:40.963	1116.542	37.577	OK
11-12-2024	08:49:41.063	1116.642	7.501	7.501	27.499	937	0	1.0894	OK	11-12-2024	08:49:41.063	1116.642	37.577	OK
11-12-2024	08:49:41.162	1116.741	7.500	7.500	27.496	937	0	1.0896	OK	11-12-2024	08:49:41.162	1116.741	37.577	OK
11-12-2024	08:49:41.263	1116.842	7.501	7.501	27.499	937	0	1.0894	OK	11-12-2024	08:49:41.263	1116.842	37.577	OK
11-12-2024	08:49:41.363	1116.942	7.501	7.501	27.501	937	0	1.0893	OK	11-12-2024	08:49:41.363	1116.942	37.577	OK
11-12-2024	08:49:41.534	1117.113	7.501	7.501	27.500	937	0	1.0893	OK	11-12-2024	08:49:41.534	1117.113	37.577	OK
11-12-2024	08:49:41.793	1117.372	7.502	7.502	27.508	937	0	1.0887	OK	11-12-2024	08:49:41.793	1117.372	37.577	OK
11-12-2024	08:49:41.966	1117.545	7.501	7.501	27.503	937	0	1.0891	OK	11-12-2024	08:49:41.966	1117.545	37.577	OK
11-12-2024	08:49:42.066	1117.645	7.501	7.501	27.501	937	0	1.0892	OK	11-12-2024	08:49:42.066	1117.645	37.576	OK
11-12-2024	08:49:42.167	1117.745	7.501	7.501	27.501	937	0	1.0892	OK	11-12-2024	08:49:42.167	1117.745	37.576	OK
11-12-2024	08:49:42.266	1117.845	7.501	7.501	27.499	937	0	1.0894	OK	11-12-2024	08:49:42.266	1117.845	37.576	OK
11-12-2024	08:49:42.367	1117.946	7.501	7.501	27.501	937	0	1.0892	OK	11-12-2024	08:49:42.367	1117.946	37.576	OK
11-12-2024	08:49:42.535	1118.114	7.501	7.501	27.498	937	0	1.0894	OK	11-12-2024	08:49:42.535	1118.114	37.575	OK
11-12-2024	08:49:42.822	1118.401	7.502	7.502	27.506	937	0	1.0889	OK	11-12-2024	08:49:42.822	1118.401	37.575	OK
11-12-2024	08:49:42.968	1118.547	7.502	7.502	27.505	937	0	1.0890	OK	11-12-2024	08:49:42.968	1118.547	37.575	OK
11-12-2024	08:49:43.068	1118.647	7.501	7.501	27.503	937	0	1.0891	OK	11-12-2024	08:49:43.068	1118.647	37.575	OK
11-12-2024	08:49:43.168	1118.746	7.501	7.501	27.499	937	0	1.0894	OK	11-12-2024	08:49:43.168	1118.746	37.575	OK
11-12-2024	08:49:43.267	1118.846	7.501	7.501	27.499	937	0	1.0894	OK	11-12-2024	08:49:43.267	1118.846	37.574	OK
11-12-2024	08:49:43.368	1118.947	7.501	7.501	27.500	937	0	1.0893	OK	11-12-2024	08:49:43.368	1118.947	37.574	OK
11-12-2024	08:49:43.537	1119.116	7.501	7.501	27.503	937	0	1.0891	OK	11-12-2024	08:49:43.537	1119.116	37.573	OK
11-12-2024	08:49:43.794	1119.373	7.502	7.502	27.508	937	0	1.0887	OK	11-12-2024	08:49:43.794	1119.373	37.573	OK
11-12-2024	08:49:43.967	1119.546	7.502	7.502	27.507	937	0	1.0888	OK	11-12-2024	08:49:43.967	1119.546	37.573	OK
11-12-2024	08:49:44.068	1119.646	7.501	7.501	27.502	937	0	1.0892	OK	11-12-2024	08:49:44.068	1119.646	37.572	OK
11-12-2024	08:49:44.168	1119.747	7.501	7.501	27.499	937	0	1.0894	OK	11-12-2024	08:49:44.168	1119.747	37.572	OK
11-12-2024	08:49:44.267	1119.846	7.501	7.501	27.501	937	0	1.0892	OK	11-12-2024	08:49:44.267	1119.846	37.573	OK
11-12-2024	08:49:44.368	1119.947	7.501	7.501	27.500	937	0	1.0893	OK	11-12-2024	08:49:44.368	1119.947	37.573	OK
11-12-2024	08:49:44.536	1120.115	7.502	7.502	27.506	937	0	1.0889	OK	11-12-2024	08:49:44.536	1120.115	37.573	OK
11-12-2024	08:49:44.794	1120.373	7.502	7.502	27.508	937	0	1.0887	OK	11-12-2024	08:49:44.794	1120.373	37.573	OK
11-12-2024	08:49:44.968	1120.547	7.502	7.502	27.504	937	0	1.0890	OK	11-12-2024	08:49:44.968	1120.547	37.572	OK
11-12-2024	08:49:45.068	1120.647	7.501	7.501	27.503	937	0	1.0891	OK	11-12-2024	08:49:45.068	1120.647	37.573	OK
11-12-2024	08:49:45.167	1120.746	7.501	7.501	27.501	937	0	1.0892	OK	11-12-2024	08:49:45.167	1120.746	37.573	OK
11-12-2024	08:49:45.267	1120.846	7.501	7.501	27.500	937	0	1.0893	OK	11-12-2024	08:49:45.267	1120.846	37.573	OK
11-12-2024	08:49:45.367	1120.946	7.501	7.501	27.500	937	0	1.0893	OK	11-12-2024	08:49:45.367	1120.946	37.573	OK
11-12-2024	08:49:45.537	1121.116	7.501	7.501	27.501	937	0	1.0892	OK	11-12-2024	08:49:45.537	1121.116	37.573	OK
11-12-2024	08:49:45.807	1121.386	7.501	7.501	27.502	937	0	1.0892	OK	11-12-2024	08:49:45.807	1121.386	37.574	OK
11-12-2024	08:49:45.968	1121.547	7.502	7.502	27.505	937	0	1.0889	OK	11-12-2024	08:49:45.968	1121.547	37.574	OK
11-12-2024	08:49:46.067	1121.646	7.501	7.501	27.500	937	0	1.0893	OK	11-12-2024	08:49:46.067	1121.646	37.574	OK
11-12-2024	08:49:46.167	1121.746	7.501	7.501	27.498	937	0	1.0894	OK	11-12-2024	08:49:46.167	1121.746	37.574	OK
11-12-2024	08:49:46.268	1121.847	7.500	7.500	27.495	937	0	1.0896	OK	11-12-2024	08:49:46.268	1121.847	37.575	OK
11-12-2024	08:49:46.370	1121.949	7.501	7.501	27.498	937	0	1.0894	OK	11-12-2024	08:49:46.370	1121.949	37.575	OK
11-12-2024	08:49:46.727	1122.306	7.502	7.502	27.507	937	0	1.0888	OK	11-12-2024	08:49:46.727	1122.306	37.576	OK
11-12-2024	08:49:46.872	1122.450	7.501	7.501	27.504	937	0	1.0890	OK	11-12-2024	08:49:46.872	1122.450	37.576	OK
11-12-2024	08:49:46.972	1122.551	7.501	7.501	27.501	937	0	1.0892	OK	11-12-2024	08:49:46.972	1122.551	37.576	OK
11-12-2024	08:49:47.071	1122.650	7.501	7.501	27.499	937	0	1.0894	OK	11-12-2024	08:49:47.071	1122.650	37.576	OK
11-12-2024	08:49:47.172	1122.751	7.501	7.501	27.500	937	0	1.0893	OK	11-12-2024	08:49:47.172	1122.751	37.577	OK
11-12-2024	08:49:47.273	1122.852	7.501	7.501	27.500	937	0	1.0893	OK	11-12-2024	08:49:47.273	1122.852	37.577	OK
11-12-2024	08:49:47.481	1123.060	7.501	7.501	27.503	937	0	1.0891	OK	11-12-2024	08:49:47.481	1123.060	37.577	OK
11-12-2024	08:49:47.753	1123.332	7.501	7.501	27.504	937	0	1.0890	OK	11-12-2024	08:49:47.753	1123.332	37.576	OK
11-12-2024	08:49:47.874	1123.453	7.501	7.501	27.502	937	0	1.0892	OK	11-12-2024	08:49:47.874	1123.453	37.576	OK
11-12-2024	08:49:47.976	1123.555	7.501	7.501	27.504	937	0	1.0890	OK	11-12-2024	08:49:47.976	1123.555	37.576	OK
11-12-2024	08:49:48.076	1123.655	7.500	7.500	27.497	937	0	1.0895	OK	11-12-2024	08:49:48.076	1123.655	37.576	OK
11-12-2024	08:49:48.176	1123.755	7.501	7.501	27.501	937	0	1.0892	OK	11-12-2024	08:49:48.176	1123.755	37.578	OK
11-12-2024	08:49:48.277	1123.856	7.501	7.501	27.498	937	0	1.0894	OK	11-12-2024	08:49:48.277	1123.856	37.578	OK
11-12-2024	08:49:48.379	1123.958	7.501	7.501	27.499	937	0	1.0894	OK	11-12-2024	08:49:48.379	1123.958	37.577	OK
11-12-2024	08:49:48.551	1124.130	7.501	7.501	27.498	937	0	1.0894	OK	11-12-2024	08:49:48.551	1124.130	37.578	OK
11-12-2024	08:49:48.807	1124.386	7.501	7.501	27.503	937	0	1.0891	OK	11-12-2024	08:49:48.807	1124.386	37.577	OK
11-12-2024	08:49:48.980	1124.559	7.502	7.502	27.505	937	0	1.0889	OK	11-12-2024	08:49:48.980	1124.559	37.577	OK
11-12-2024	08:49:49.079	1124.658	7.501	7.501	27.500	937	0	1.0893	OK	11-12-2024	08:49:49.079	1124.658	37.577	OK
11-12-2024	08:49:49.179	1124.758	7.501	7.501	27.499	937	0	1.0894	OK	11-12-2024	08:49:49.179	1124.758	37.576	OK
11-12-2024	08:49:49.279	1124.858	7.500	7.500	27.496	937	0	1.0896	OK	11-12-2024	08:49:49.279	1124.858	37.576	OK
11-12-2024	08:49:49.381	1124.960	7.500	7.500	27.495	937	0	1.0896	OK	11-12-2024	08:49:49.381	1124.960	37.576	OK
11-12-2024	08:49:49.567	1125.146	7.501	7.501	27.500	937	0	1.0893	OK	11-12-2024	08:49:49.567	1125.146	37.577	OK
11-12-2024	08:49:49.822	1125.401	7.502	7.502	27.507	937	0	1.0888	OK	11-12-2024	08:49:49.822	1125.401	37.576	OK
11-12-2024	08:49:49.981	1125.560	7.501	7.501	27.503	937	0	1.0891	OK	11-12-2024	08:49:49.981	1125.560	37.575	OK
11-12-2024	08:49:50.080	1125.659	7.501	7.501	27.502	937	0	1.0892	OK	11-12-2024	08:49:50.080	1125.659	37.575	OK
11-12-2024	08:49:50.181	1125.760	7.501	7.501	27.501	937	0	1.0892	OK	11-12-2024	08:49:50.181	1125.760	37.574	OK
11-12-2024	08:49:50.281	1125.860	7.501	7.501	27.501	937	0	1.0892	OK	11-12-2024	08:49:50.281	1125.860	37.574	OK
11-12-2024	08:49:50.381	1125.960	7.500	7.500	27.494	937	0	1.0897	OK	11-12-2024	08:49:50.381	1125.960	37.573	OK
11-12-2024	08:49:50.552	1126.131	7.501	7.501	27.503	937	0	1.0891	OK	11-12-2024	08:49:50.552	1126.131	37.573	OK
11-12-2024	08:49:50.806	1126.385	7.501	7.501	27.501	937	0	1.0892	OK	11-12-2024	08:49:50.806	1126.385	37.574	OK
11-12-2024	08:49:50.982	1126.561	7.502	7.502	27.509	937	0	1.0887	OK	11-12-2024	08:49:50.982	1126.561	37.574	OK
11-12-2024	08:49:51.080	1126.659	7.501	7.501	27.503	937	0	1.0891	OK	11-12-2024	08:49:51.080	1126.659	37.574	OK
11-12-2024	08:49:51.181	1126.760	7.501	7.501	27.504	937	0	1.0890	OK	11-12-2024	08:49:51.181	1126.760	37.575	OK
11-12-2024	08:49:51.282	1126.861	7.501	7.501	27.503	937	0	1.0891	OK	11-12-2024	08:49:51.282	1126.861	37.575	OK
11-12-2024	08:49:51.382	1126.961	7.501	7.501	27.501	936	0	1.0892	OK	11-12-2024	08:49:51.382	1126.961	37.573	OK
11-12-2024	08:49:51.552	1127.131	7.501	7.501	27.502	937	0	1.0892	OK	11-12-2024	08:49:51.552	1127.131	37.573	OK
11-12-2024	08:49:51.808	1127.387	7.502	7.502	27.504	937	0	1.0890	OK	11-12-2024	08:49:51.808	1127.387	37.573	OK
11-12-2024	08:49:51.983	1127.562	7.502	7.502	27.507	937	0	1.0888	OK	11-12-2024	08:49:51.983	1127.562	37.574	OK
11-12-2024	08:49:52.082	1127.661	7.501	7.501	27.501	937	0	1.0892	OK	11-12-2024	08:49:52.082	1127.661	37.574	OK
11-12-2024	08:49:52.183	1127.761	7.502	7.502	27.505	937	0	1.0889	OK	11-12-2024	08:49:52.183	1127.761	37.574	OK
11-12-2024	08:49:52.282	1127.861	7.501	7.501	27.503	937	0	1.0891	OK	11-12-2024	08:49:52.282	1127.861	37.574	OK
11-12-2024	08:49:52.383	1127.962	7.500	7.500	27.496	937	0	1.0896	OK	11-12-2024	08:49:52.383	1127.962	37.574	OK
11-12-2024	08:49:52.552	1128.131	7.501	7.501	27.501	937	0	1.0892	OK	11-12-2024	08:49:52.552	1128.131	37.574	OK
11-12-2024	08:49:52.824	1128.403	7.502	7.502	27.509	937	0	1.0887	OK	11-12-2024	08:49:52.824	1128.403	37.574	OK
11-12-2024	08:49:52.982	1128.561	7.501	7.501	27.504	937	0	1.0890	OK	11-12-2024	08:49:52.982	1128.561	37.575	OK
11-12-2024	08:49:53.084	1128.663	7.501	7.501	27.502	937	0	1.0892	OK	11-12-2024	08:49:53.084	1128.663	37.575	OK
11-12-2024	08:49:53.183	1128.762	7.501	7.501	27.500	937	0	1.0893	OK	11-12-2024	08:49:53.183	1128.762	37.575	OK
11-12-2024	08:49:53.286	1128.865	7.500	7.500	27.497	937	0	1.0895	OK	11-12-2024	08:49:53.286	1128.865	37.575	OK
11-12-2024	08:49:53.385	1128.964	7.500	7.500	27.495	937	0	1.0896	OK	11-12-2024	08:49:53.385	1128.964	37.576	OK
11-12-2024	08:49:53.554	1129.133	7.501	7.501	27.498	937	0	1.0894	OK	11-12-2024	08:49:53.554	1129.133	37.576	OK
11-12-2024	08:49:53.813	1129.392	7.501	7.501	27.503	937	0	1.0891	OK	11-12-2024	08:49:53.813	1129.392	37.575	OK
11-12-2024	08:49:53.985	1129.564	7.502	7.502	27.507	937	0	1.0888	OK	11-12-2024	08:49:53.985	1129.564	37.575	OK
11-12-2024	08:49:54.085	1129.664	7.501	7.501	27.502	937	0	1.0892	OK	11-12-2024	08:49:54.085	1129.664	37.575	OK
11-12-2024	08:49:54.185	1129.764	7.501	7.501	27.501	937	0	1.0892	OK	11-12-2024	08:49:54.185	1129.764	37.576	OK
11-12-2024	08:49:54.285	1129.864	7.501	7.501	27.499	937	0	1.0894	OK	11-12-2024	08:49:54.285	1129.864	37.576	OK
11-12-2024	08:49:54.386	1129.965	7.500	7.500	27.495	937	0	1.0896	OK	11-12-2024	08:49:54.386	1129.965	37.575	OK
11-12-2024	08:49:54.573	1130.152	7.501	7.501	27.500	937	0	1.0893	OK	11-12-2024	08:49:54.573	1130.152	37.575	OK
11-12-2024	08:49:54.861	1130.440	7.501	7.501	27.503	937	0	1.0891	OK	11-12-2024	08:49:54.861	1130.440	37.575	OK
11-12-2024	08:49:54.987	1130.566	7.502	7.502	27.505	937	0	1.0889	OK	11-12-2024	08:49:54.987	1130.566	37.574	OK
11-12-2024	08:49:55.087	1130.666	7.501	7.501	27.502	937	0	1.0892	OK	11-12-2024	08:49:55.087	1130.666	37.574	OK
11-12-2024	08:49:55.187	1130.766	7.501	7.501	27.498	937	0	1.0894	OK	11-12-2024	08:49:55.187	1130.766	37.574	OK
11-12-2024	08:49:55.286	1130.865	7.501	7.501	27.500	937	0	1.0893	OK	11-12-2024	08:49:55.286	1130.865	37.573	OK
11-12-2024	08:49:55.387	1130.966	7.501	7.501	27.500	937	0	1.0893	OK	11-12-2024	08:49:55.387	1130.966	37.573	OK
11-12-2024	08:49:55.555	1131.134	7.502	7.502	27.505	937	0	1.0889	OK	11-12-2024	08:49:55.555	1131.134	37.572	OK
11-12-2024	08:49:55.810	1131.388	7.502	7.502	27.507	937	0	1.0888	OK	11-12-2024	08:49:55.810	1131.388	37.571	OK
11-12-2024	08:49:55.987	1131.566	7.502	7.502	27.504	937	0	1.0890	OK	11-12-2024	08:49:55.987	1131.566	37.571	OK
11-12-2024	08:49:56.086	1131.665	7.501	7.501	27.503	937	0	1.0891	OK	11-12-2024	08:49:56.086	1131.665	37.572	OK
11-12-2024	08:49:56.187	1131.766	7.501	7.501	27.500	937	0	1.0893	OK	11-12-2024	08:49:56.187	1131.766	37.572	OK
11-12-2024	08:49:56.287	1131.866	7.501	7.501	27.497	936	0	1.0895	OK	11-12-2024	08:49:56.287	1131.866	37.571	OK
11-12-2024	08:49:56.389	1131.968	7.501	7.501	27.499	936	0	1.0894	OK	11-12-2024	08:49:56.389	1131.968	37.571	OK
11-12-2024	08:49:56.746	1132.325	7.502	7.502	27.506	937	0	1.0889	OK	11-12-2024	08:49:56.746	1132.325	37.570	OK
11-12-2024	08:49:56.889	1132.468	7.501	7.501	27.502	937	0	1.0891	OK	11-12-2024	08:49:56.889	1132.468	37.570	OK
11-12-2024	08:49:56.990	1132.569	7.501	7.501	27.501	937	0	1.0892	OK	11-12-2024	08:49:56.990	1132.569	37.570	OK
11-12-2024	08:49:57.089	1132.668	7.501	7.501	27.502	937	0	1.0891	OK	11-12-2024	08:49:57.089	1132.668	37.571	OK
11-12-2024	08:49:57.189	1132.768	7.501	7.501	27.500	937	0	1.0892	OK	11-12-2024	08:49:57.189	1132.768	37.571	OK
11-12-2024	08:49:57.290	1132.869	7.500	7.500	27.495	937	0	1.0896	OK	11-12-2024	08:49:57.290	1132.869	37.571	OK
11-12-2024	08:49:57.392	1132.970	7.500	7.500	27.493	937	0	1.0897	OK	11-12-2024	08:49:57.392	1132.970	37.571	OK
11-12-2024	08:49:57.561	1133.140	7.501	7.501	27.498	937	0	1.0894	OK	11-12-2024	08:49:57.561	1133.140	37.571	OK
11-12-2024	08:49:57.815	1133.394	7.502	7.502	27.503	937	0	1.0890	OK	11-12-2024	08:49:57.815	1133.394	37.571	OK
11-12-2024	08:49:57.991	1133.570	7.502	7.502	27.504	937	0	1.0890	OK	11-12-2024	08:49:57.991	1133.570	37.572	OK
11-12-2024	08:49:58.090	1133.669	7.501	7.501	27.501	937	0	1.0892	OK	11-12-2024	08:49:58.090	1133.669	37.572	OK
11-12-2024	08:49:58.192	1133.771	7.500	7.500	27.492	937	0	1.0898	OK	11-12-2024	08:49:58.192	1133.771	37.572	OK
11-12-2024	08:49:58.293	1133.872	7.500	7.500	27.496	937	0	1.0896	OK	11-12-2024	08:49:58.293	1133.872	37.573	OK
11-12-2024	08:49:58.392	1133.971	7.500	7.500	27.496	937	0	1.0896	OK	11-12-2024	08:49:58.392	1133.971	37.573	OK
11-12-2024	08:49:58.563	1134.141	7.501	7.501	27.499	937	0	1.0894	OK	11-12-2024	08:49:58.563	1134.141	37.574	OK
11-12-2024	08:49:58.834	1134.413	7.502	7.502	27.505	937	0	1.0889	OK	11-12-2024	08:49:58.834	1134.413	37.574	OK
11-12-2024	08:49:58.995	1134.574	7.501	7.501	27.501	937	0	1.0892	OK	11-12-2024	08:49:58.995	1134.574	37.575	OK
11-12-2024	08:49:59.093	1134.672	7.500	7.500	27.497	937	0	1.0895	OK	11-12-2024	08:49:59.093	1134.672	37.576	OK
11-12-2024	08:49:59.195	1134.774	7.501	7.501	27.498	937	0	1.0894	OK	11-12-2024	08:49:59.195	1134.774	37.576	OK
11-12-2024	08:49:59.297	1134.876	7.500	7.500	27.497	937	0	1.0895	OK	11-12-2024	08:49:59.297	1134.876	37.574	OK
11-12-2024	08:49:59.482	1135.061	7.501	7.501	27.499	937	0	1.0894	OK	11-12-2024	08:49:59.482	1135.061	37.575	OK
11-12-2024	08:49:59.751	1135.330	7.502	7.502	27.506	937	0	1.0889	OK	11-12-2024	08:49:59.751	1135.330	37.575	OK
11-12-2024	08:49:59.899	1135.478	7.501	7.501	27.504	937	0	1.0890	OK	11-12-2024	08:49:59.899	1135.478	37.575	OK
11-12-2024	08:50:00.000	1135.579	7.501	7.501	27.503	937	0	1.0891	OK	11-12-2024	08:50:00.000	1135.579	37.575	OK
11-12-2024	08:50:00.099	1135.678	7.501	7.501	27.501	937	0	1.0892	OK	11-12-2024	08:50:00.099	1135.678	37.576	OK
11-12-2024	08:50:00.200	1135.779	7.500	7.500	27.495	937	0	1.0896	OK	11-12-2024	08:50:00.200	1135.779	37.576	OK
11-12-2024	08:50:00.300	1135.879	7.501	7.501	27.499	937	0	1.0894	OK	11-12-2024	08:50:00.300	1135.879	37.576	OK
11-12-2024	08:50:00.480	1136.059	7.500	7.500	27.496	937	0	1.0896	OK	11-12-2024	08:50:00.480	1136.059	37.576	OK
11-12-2024	08:50:00.753	1136.331	7.502	7.502	27.510	937	0	1.0886	OK	11-12-2024	08:50:00.753	1136.331	37.576	OK
11-12-2024	08:50:00.900	1136.479	7.501	7.501	27.503	936	0	1.0891	OK	11-12-2024	08:50:00.900	1136.479	37.575	OK
11-12-2024	08:50:01.000	1136.579	7.502	7.502	27.506	936	0	1.0889	OK	11-12-2024	08:50:01.000	1136.579	37.575	OK
11-12-2024	08:50:01.100	1136.679	7.501	7.501	27.498	936	0	1.0894	OK	11-12-2024	08:50:01.100	1136.679	37.575	OK
11-12-2024	08:50:01.201	1136.780	7.501	7.501	27.499	936	0	1.0894	OK	11-12-2024	08:50:01.201	1136.780	37.575	OK
11-12-2024	08:50:01.302	1136.881	7.501	7.501	27.500	936	0	1.0893	OK	11-12-2024	08:50:01.302	1136.881	37.576	OK
11-12-2024	08:50:01.482	1137.061	7.501	7.501	27.501	937	0	1.0892	OK	11-12-2024	08:50:01.482	1137.061	37.576	OK
11-12-2024	08:50:01.752	1137.331	7.501	7.501	27.504	937	0	1.0890	OK	11-12-2024	08:50:01.752	1137.331	37.576	OK
11-12-2024	08:50:01.902	1137.481	7.501	7.501	27.500	937	0	1.0893	OK	11-12-2024	08:50:01.902	1137.481	37.576	OK
11-12-2024	08:50:02.001	1137.580	7.501	7.501	27.502	937	0	1.0892	OK	11-12-2024	08:50:02.001	1137.580	37.576	OK
11-12-2024	08:50:02.102	1137.681	7.501	7.501	27.499	937	0	1.0894	OK	11-12-2024	08:50:02.102	1137.681	37.576	OK
11-12-2024	08:50:02.202	1137.781	7.501	7.501	27.501	936	0	1.0892	OK	11-12-2024	08:50:02.202	1137.781	37.576	OK
11-12-2024	08:50:02.303	1137.882	7.500	7.500	27.496	936	0	1.0896	OK	11-12-2024	08:50:02.303	1137.882	37.577	OK
11-12-2024	08:50:02.482	1138.061	7.501	7.501	27.500	937	0	1.0893	OK	11-12-2024	08:50:02.482	1138.061	37.577	OK
11-12-2024	08:50:02.737	1138.316	7.502	7.502	27.507	937	0	1.0888	OK	11-12-2024	08:50:02.737	1138.316	37.577	OK
11-12-2024	08:50:02.903	1138.482	7.501	7.501	27.504	937	0	1.0890	OK	11-12-2024	08:50:02.903	1138.482	37.577	OK
11-12-2024	08:50:03.004	1138.583	7.502	7.502	27.506	937	0	1.0888	OK	11-12-2024	08:50:03.004	1138.583	37.577	OK
11-12-2024	08:50:03.103	1138.682	7.501	7.501	27.498	937	0	1.0894	OK	11-12-2024	08:50:03.103	1138.682	37.577	OK
11-12-2024	08:50:03.203	1138.782	7.501	7.501	27.498	937	0	1.0894	OK	11-12-2024	08:50:03.203	1138.782	37.577	OK
11-12-2024	08:50:03.304	1138.883	7.500	7.500	27.495	937	0	1.0896	OK	11-12-2024	08:50:03.304	1138.883	37.576	OK
11-12-2024	08:50:03.481	1139.060	7.501	7.501	27.497	937	0	1.0895	OK	11-12-2024	08:50:03.481	1139.060	37.576	OK
11-12-2024	08:50:03.751	1139.330	7.501	7.501	27.503	937	0	1.0890	OK	11-12-2024	08:50:03.751	1139.330	37.577	OK
11-12-2024	08:50:03.904	1139.483	7.502	7.502	27.505	937	0	1.0889	OK	11-12-2024	08:50:03.904	1139.483	37.577	OK
11-12-2024	08:50:04.003	1139.582	7.501	7.501	27.502	937	0	1.0891	OK	11-12-2024	08:50:04.003	1139.582	37.576	OK
11-12-2024	08:50:04.104	1139.683	7.501	7.501	27.497	937	0	1.0895	OK	11-12-2024	08:50:04.104	1139.683	37.576	OK
11-12-2024	08:50:04.205	1139.784	7.502	7.502	27.504	937	0	1.0890	OK	11-12-2024	08:50:04.205	1139.784	37.577	OK
11-12-2024	08:50:04.480	1140.059	7.501	7.501	27.502	937	0	1.0891	OK	11-12-2024	08:50:04.480	1140.059	37.576	OK
11-12-2024	08:50:04.734	1140.312	7.502	7.502	27.508	937	0	1.0887	OK	11-12-2024	08:50:04.734	1140.312	37.575	OK
11-12-2024	08:50:04.906	1140.485	7.502	7.502	27.507	937	0	1.0888	OK	11-12-2024	08:50:04.906	1140.485	37.575	OK
11-12-2024	08:50:05.005	1140.583	7.502	7.502	27.505	937	0	1.0889	OK	11-12-2024	08:50:05.005	1140.583	37.575	OK
11-12-2024	08:50:05.107	1140.686	7.501	7.501	27.501	937	0	1.0892	OK	11-12-2024	08:50:05.107	1140.686	37.575	OK
11-12-2024	08:50:05.207	1140.786	7.500	7.500	27.496	937	0	1.0896	OK	11-12-2024	08:50:05.207	1140.786	37.575	OK
11-12-2024	08:50:05.308	1140.887	7.500	7.500	27.495	937	0	1.0896	OK	11-12-2024	08:50:05.308	1140.887	37.575	OK
11-12-2024	08:50:05.480	1141.059	7.500	7.500	27.497	937	0	1.0895	OK	11-12-2024	08:50:05.480	1141.059	37.575	OK
11-12-2024	08:50:05.738	1141.317	7.502	7.502	27.505	937	0	1.0889	OK	11-12-2024	08:50:05.738	1141.317	37.576	OK
11-12-2024	08:50:05.907	1141.486	7.501	7.501	27.502	937	0	1.0892	OK	11-12-2024	08:50:05.907	1141.486	37.576	OK
11-12-2024	08:50:06.010	1141.589	7.501	7.501	27.500	937	0	1.0892	OK	11-12-2024	08:50:06.010	1141.589	37.576	OK
11-12-2024	08:50:06.110	1141.689	7.501	7.501	27.498	937	0	1.0894	OK	11-12-2024	08:50:06.110	1141.689	37.576	OK
11-12-2024	08:50:06.210	1141.789	7.501	7.501	27.497	937	0	1.0895	OK	11-12-2024	08:50:06.210	1141.789	37.576	OK
11-12-2024	08:50:06.310	1141.889	7.501	7.501	27.499	937	0	1.0893	OK	11-12-2024	08:50:06.310	1141.889	37.576	OK
11-12-2024	08:50:06.486	1142.064	7.501	7.501	27.503	937	0	1.0890	OK	11-12-2024	08:50:06.486	1142.064	37.578	OK
11-12-2024	08:50:06.743	1142.322	7.502	7.502	27.508	937	0	1.0887	OK	11-12-2024	08:50:06.743	1142.322	37.578	OK
11-12-2024	08:50:06.912	1142.491	7.502	7.502	27.510	937	0	1.0886	OK	11-12-2024	08:50:06.912	1142.491	37.578	OK
11-12-2024	08:50:07.011	1142.590	7.501	7.501	27.501	937	0	1.0892	OK	11-12-2024	08:50:07.011	1142.590	37.578	OK
11-12-2024	08:50:07.111	1142.690	7.501	7.501	27.502	937	0	1.0891	OK	11-12-2024	08:50:07.111	1142.690	37.578	OK
11-12-2024	08:50:07.213	1142.792	7.501	7.501	27.499	937	0	1.0893	OK	11-12-2024	08:50:07.213	1142.792	37.577	OK
11-12-2024	08:50:07.314	1142.893	7.501	7.501	27.498	937	0	1.0894	OK	11-12-2024	08:50:07.314	1142.893	37.577	OK
11-12-2024	08:50:07.485	1143.064	7.502	7.502	27.507	937	0	1.0888	OK	11-12-2024	08:50:07.485	1143.064	37.577	OK
11-12-2024	08:50:07.742	1143.321	7.502	7.502	27.507	937	0	1.0888	OK	11-12-2024	08:50:07.742	1143.321	37.577	OK
11-12-2024	08:50:07.915	1143.494	7.502	7.502	27.509	937	0	1.0886	OK	11-12-2024	08:50:07.915	1143.494	37.577	OK
11-12-2024	08:50:08.017	1143.596	7.502	7.502	27.504	937	0	1.0890	OK	11-12-2024	08:50:08.017	1143.596	37.577	OK
11-12-2024	08:50:08.118	1143.697	7.501	7.501	27.500	937	0	1.0892	OK	11-12-2024	08:50:08.118	1143.697	37.577	OK
11-12-2024	08:50:08.231	1143.810	7.501	7.501	27.502	937	0	1.0891	OK	11-12-2024	08:50:08.231	1143.810	37.578	OK
11-12-2024	08:50:08.324	1143.903	7.501	7.501	27.501	937	0	1.0891	OK	11-12-2024	08:50:08.324	1143.903	37.578	OK
11-12-2024	08:50:08.498	1144.077	7.501	7.501	27.501	937	0	1.0891	OK	11-12-2024	08:50:08.498	1144.077	37.577	OK
11-12-2024	08:50:08.756	1144.335	7.502	7.502	27.509	937	0	1.0886	OK	11-12-2024	08:50:08.756	1144.335	37.577	OK
11-12-2024	08:50:08.924	1144.503	7.502	7.502	27.505	937	0	1.0888	OK	11-12-2024	08:50:08.924	1144.503	37.576	OK
11-12-2024	08:50:09.023	1144.602	7.501	7.501	27.502	937	0	1.0891	OK	11-12-2024	08:50:09.023	1144.602	37.575	OK
11-12-2024	08:50:09.123	1144.702	7.501	7.501	27.499	937	0	1.0893	OK	11-12-2024	08:50:09.123	1144.702	37.575	OK
11-12-2024	08:50:09.232	1144.811	7.501	7.501	27.499	937	0	1.0893	OK	11-12-2024	08:50:09.232	1144.811	37.575	OK
11-12-2024	08:50:09.325	1144.904	7.500	7.500	27.495	937	0	1.0896	OK	11-12-2024	08:50:09.325	1144.904	37.575	OK
11-12-2024	08:50:09.494	1145.073	7.501	7.501	27.499	937	0	1.0893	OK	11-12-2024	08:50:09.494	1145.073	37.576	OK
11-12-2024	08:50:09.749	1145.328	7.502	7.502	27.508	937	0	1.0887	OK	11-12-2024	08:50:09.749	1145.328	37.576	OK
11-12-2024	08:50:09.927	1145.506	7.502	7.502	27.505	937	0	1.0889	OK	11-12-2024	08:50:09.927	1145.506	37.575	OK
11-12-2024	08:50:10.030	1145.609	7.501	7.501	27.501	937	0	1.0892	OK	11-12-2024	08:50:10.030	1145.609	37.575	OK
11-12-2024	08:50:10.129	1145.708	7.501	7.501	27.498	937	0	1.0894	OK	11-12-2024	08:50:10.129	1145.708	37.575	OK
11-12-2024	08:50:10.235	1145.814	7.501	7.501	27.499	937	0	1.0894	OK	11-12-2024	08:50:10.235	1145.814	37.576	OK
11-12-2024	08:50:10.327	1145.906	7.500	7.500	27.492	937	0	1.0898	OK	11-12-2024	08:50:10.327	1145.906	37.576	OK
11-12-2024	08:50:10.514	1146.093	7.501	7.501	27.504	937	0	1.0890	OK	11-12-2024	08:50:10.514	1146.093	37.577	OK
11-12-2024	08:50:10.769	1146.348	7.502	7.502	27.506	937	0	1.0889	OK	11-12-2024	08:50:10.769	1146.348	37.576	OK
11-12-2024	08:50:10.929	1146.508	7.501	7.501	27.504	937	0	1.0890	OK	11-12-2024	08:50:10.929	1146.508	37.577	OK
11-12-2024	08:50:11.030	1146.609	7.501	7.501	27.501	937	0	1.0892	OK	11-12-2024	08:50:11.030	1146.609	37.576	OK
11-12-2024	08:50:11.129	1146.708	7.501	7.501	27.497	937	0	1.0895	OK	11-12-2024	08:50:11.129	1146.708	37.576	OK
11-12-2024	08:50:11.231	1146.810	7.501	7.501	27.499	937	0	1.0893	OK	11-12-2024	08:50:11.231	1146.810	37.577	OK
11-12-2024	08:50:11.331	1146.909	7.501	7.501	27.497	937	0	1.0895	OK	11-12-2024	08:50:11.331	1146.909	37.577	OK
11-12-2024	08:50:11.501	1147.080	7.501	7.501	27.502	936	0	1.0891	OK	11-12-2024	08:50:11.501	1147.080	37.576	OK
11-12-2024	08:50:11.755	1147.334	7.502	7.502	27.506	936	0	1.0888	OK	11-12-2024	08:50:11.755	1147.334	37.575	OK
11-12-2024	08:50:11.930	1147.509	7.501	7.501	27.503	936	0	1.0890	OK	11-12-2024	08:50:11.930	1147.509	37.574	OK
11-12-2024	08:50:12.031	1147.610	7.501	7.501	27.501	937	0	1.0892	OK	11-12-2024	08:50:12.031	1147.610	37.573	OK
11-12-2024	08:50:12.130	1147.709	7.500	7.500	27.494	937	0	1.0897	OK	11-12-2024	08:50:12.130	1147.709	37.573	OK
11-12-2024	08:50:12.236	1147.815	7.501	7.501	27.500	936	0	1.0892	OK	11-12-2024	08:50:12.236	1147.815	37.574	OK
11-12-2024	08:50:12.332	1147.911	7.500	7.500	27.496	937	0	1.0895	OK	11-12-2024	08:50:12.332	1147.911	37.574	OK
11-12-2024	08:50:12.504	1148.083	7.501	7.501	27.500	937	0	1.0892	OK	11-12-2024	08:50:12.504	1148.083	37.574	OK
11-12-2024	08:50:12.761	1148.340	7.502	7.502	27.507	937	0	1.0888	OK	11-12-2024	08:50:12.761	1148.340	37.572	OK
11-12-2024	08:50:12.933	1148.512	7.502	7.502	27.504	937	0	1.0890	OK	11-12-2024	08:50:12.933	1148.512	37.573	OK
11-12-2024	08:50:13.034	1148.613	7.501	7.501	27.503	937	0	1.0890	OK	11-12-2024	08:50:13.034	1148.613	37.573	OK
11-12-2024	08:50:13.133	1148.712	7.501	7.501	27.497	937	0	1.0895	OK	11-12-2024	08:50:13.133	1148.712	37.574	OK
11-12-2024	08:50:13.236	1148.815	7.501	7.501	27.501	937	0	1.0892	OK	11-12-2024	08:50:13.236	1148.815	37.574	OK
11-12-2024	08:50:13.333	1148.912	7.501	7.501	27.499	937	0	1.0893	OK	11-12-2024	08:50:13.333	1148.912	37.573	OK
11-12-2024	08:50:13.520	1149.099	7.501	7.501	27.499	937	0	1.0893	OK	11-12-2024	08:50:13.520	1149.099	37.572	OK
11-12-2024	08:50:13.774	1149.353	7.502	7.502	27.507	937	0	1.0888	OK	11-12-2024	08:50:13.774	1149.353	37.572	OK
11-12-2024	08:50:13.932	1149.511	7.502	7.502	27.504	937	0	1.0890	OK	11-12-2024	08:50:13.932	1149.511	37.572	OK
11-12-2024	08:50:14.032	1149.611	7.501	7.501	27.501	937	0	1.0892	OK	11-12-2024	08:50:14.032	1149.611	37.572	OK
11-12-2024	08:50:14.134	1149.713	7.501	7.501	27.497	937	0	1.0895	OK	11-12-2024	08:50:14.134	1149.713	37.572	OK
11-12-2024	08:50:14.236	1149.815	7.501	7.501	27.499	937	0	1.0893	OK	11-12-2024	08:50:14.236	1149.815	37.572	OK
11-12-2024	08:50:14.335	1149.914	7.501	7.501	27.498	936	0	1.0894	OK	11-12-2024	08:50:14.335	1149.914	37.573	OK
11-12-2024	08:50:14.503	1150.082	7.501	7.501	27.500	937	0	1.0892	OK	11-12-2024	08:50:14.503	1150.082	37.572	OK
11-12-2024	08:50:14.760	1150.339	7.502	7.502	27.506	937	0	1.0888	OK	11-12-2024	08:50:14.760	1150.339	37.573	OK
11-12-2024	08:50:14.937	1150.516	7.502	7.502	27.507	937	0	1.0888	OK	11-12-2024	08:50:14.937	1150.516	37.574	OK
11-12-2024	08:50:15.039	1150.618	7.501	7.501	27.503	937	0	1.0890	OK	11-12-2024	08:50:15.039	1150.618	37.574	OK
11-12-2024	08:50:15.140	1150.719	7.501	7.501	27.501	936	0	1.0892	OK	11-12-2024	08:50:15.140	1150.719	37.574	OK
11-12-2024	08:50:15.340	1150.919	7.502	7.502	27.504	937	0	1.0890	OK	11-12-2024	08:50:15.340	1150.919	37.576	OK
11-12-2024	08:50:15.510	1151.089	7.502	7.502	27.506	937	0	1.0888	OK	11-12-2024	08:50:15.510	1151.089	37.576	OK
11-12-2024	08:50:15.768	1151.347	7.502	7.502	27.509	937	0	1.0886	OK	11-12-2024	08:50:15.768	1151.347	37.577	OK
11-12-2024	08:50:15.942	1151.521	7.503	7.503	27.511	937	0	1.0885	OK	11-12-2024	08:50:15.942	1151.521	37.577	OK
11-12-2024	08:50:16.042	1151.621	7.502	7.502	27.505	937	0	1.0889	OK	11-12-2024	08:50:16.042	1151.621	37.577	OK
11-12-2024	08:50:16.143	1151.722	7.501	7.501	27.502	937	0	1.0891	OK	11-12-2024	08:50:16.143	1151.722	37.576	OK
11-12-2024	08:50:16.242	1151.821	7.501	7.501	27.503	937	0	1.0890	OK	11-12-2024	08:50:16.242	1151.821	37.576	OK
11-12-2024	08:50:16.341	1151.920	7.501	7.501	27.499	937	0	1.0893	OK	11-12-2024	08:50:16.341	1151.920	37.575	OK
11-12-2024	08:50:16.512	1152.091	7.501	7.501	27.503	937	0	1.0890	OK	11-12-2024	08:50:16.512	1152.091	37.575	OK
11-12-2024	08:50:16.783	1152.362	7.503	7.503	27.512	937	0	1.0884	OK	11-12-2024	08:50:16.783	1152.362	37.576	OK
11-12-2024	08:50:16.944	1152.523	7.502	7.502	27.508	937	0	1.0887	OK	11-12-2024	08:50:16.944	1152.523	37.577	OK
11-12-2024	08:50:17.043	1152.622	7.502	7.502	27.504	937	0	1.0890	OK	11-12-2024	08:50:17.043	1152.622	37.577	OK
11-12-2024	08:50:17.144	1152.723	7.501	7.501	27.500	937	0	1.0892	OK	11-12-2024	08:50:17.144	1152.723	37.577	OK
11-12-2024	08:50:17.245	1152.823	7.501	7.501	27.502	936	0	1.0891	OK	11-12-2024	08:50:17.245	1152.823	37.577	OK
11-12-2024	08:50:17.343	1152.922	7.501	7.501	27.501	936	0	1.0892	OK	11-12-2024	08:50:17.343	1152.922	37.577	OK
11-12-2024	08:50:17.513	1153.092	7.501	7.501	27.503	937	0	1.0890	OK	11-12-2024	08:50:17.513	1153.092	37.577	OK
11-12-2024	08:50:17.785	1153.364	7.502	7.502	27.508	936	0	1.0887	OK	11-12-2024	08:50:17.785	1153.364	37.577	OK
11-12-2024	08:50:17.943	1153.522	7.502	7.502	27.505	936	0	1.0889	OK	11-12-2024	08:50:17.943	1153.522	37.577	OK
11-12-2024	08:50:18.043	1153.622	7.501	7.501	27.503	936	0	1.0890	OK	11-12-2024	08:50:18.043	1153.622	37.577	OK
11-12-2024	08:50:18.144	1153.723	7.501	7.501	27.499	936	0	1.0893	OK	11-12-2024	08:50:18.144	1153.723	37.577	OK
11-12-2024	08:50:18.344	1153.923	7.502	7.502	27.509	936	0	1.0886	OK	11-12-2024	08:50:18.344	1153.923	37.577	OK
11-12-2024	08:50:18.514	1154.093	7.502	7.502	27.506	936	0	1.0888	OK	11-12-2024	08:50:18.514	1154.093	37.577	OK
11-12-2024	08:50:18.772	1154.351	7.502	7.502	27.509	936	0	1.0886	OK	11-12-2024	08:50:18.772	1154.351	37.576	OK
11-12-2024	08:50:18.944	1154.523	7.503	7.503	27.511	936	0	1.0885	OK	11-12-2024	08:50:18.944	1154.523	37.576	OK
11-12-2024	08:50:19.044	1154.623	7.502	7.502	27.505	936	0	1.0889	OK	11-12-2024	08:50:19.044	1154.623	37.576	OK
11-12-2024	08:50:19.145	1154.724	7.501	7.501	27.503	936	0	1.0890	OK	11-12-2024	08:50:19.145	1154.724	37.575	OK
11-12-2024	08:50:19.245	1154.824	7.501	7.501	27.499	936	0	1.0894	OK	11-12-2024	08:50:19.245	1154.824	37.575	OK
11-12-2024	08:50:19.344	1154.923	7.501	7.501	27.500	936	0	1.0893	OK	11-12-2024	08:50:19.344	1154.923	37.575	OK
11-12-2024	08:50:19.516	1155.095	7.501	7.501	27.504	936	0	1.0890	OK	11-12-2024	08:50:19.516	1155.095	37.575	OK
11-12-2024	08:50:19.776	1155.355	7.502	7.502	27.507	936	0	1.0888	OK	11-12-2024	08:50:19.776	1155.355	37.575	OK
11-12-2024	08:50:19.945	1155.524	7.502	7.502	27.508	936	0	1.0887	OK	11-12-2024	08:50:19.945	1155.524	37.575	OK
11-12-2024	08:50:20.045	1155.624	7.502	7.502	27.506	936	0	1.0889	OK	11-12-2024	08:50:20.045	1155.624	37.575	OK
11-12-2024	08:50:20.145	1155.724	7.501	7.501	27.501	936	0	1.0892	OK	11-12-2024	08:50:20.145	1155.724	37.575	OK
11-12-2024	08:50:20.248	1155.827	7.501	7.501	27.500	936	0	1.0892	OK	11-12-2024	08:50:20.248	1155.827	37.575	OK
11-12-2024	08:50:20.347	1155.926	7.501	7.501	27.498	936	0	1.0893	OK	11-12-2024	08:50:20.347	1155.926	37.575	OK
11-12-2024	08:50:20.530	1156.109	7.502	7.502	27.504	936	0	1.0889	OK	11-12-2024	08:50:20.530	1156.109	37.575	OK
11-12-2024	08:50:20.786	1156.365	7.502	7.502	27.509	936	0	1.0886	OK	11-12-2024	08:50:20.786	1156.365	37.575	OK
11-12-2024	08:50:20.947	1156.526	7.502	7.502	27.506	936	0	1.0888	OK	11-12-2024	08:50:20.947	1156.526	37.575	OK
11-12-2024	08:50:21.047	1156.626	7.502	7.502	27.503	936	0	1.0890	OK	11-12-2024	08:50:21.047	1156.626	37.575	OK
11-12-2024	08:50:21.147	1156.726	7.501	7.501	27.500	936	0	1.0892	OK	11-12-2024	08:50:21.147	1156.726	37.575	OK
11-12-2024	08:50:21.248	1156.827	7.501	7.501	27.499	936	0	1.0893	OK	11-12-2024	08:50:21.248	1156.827	37.575	OK
11-12-2024	08:50:21.348	1156.927	7.501	7.501	27.499	936	0	1.0893	OK	11-12-2024	08:50:21.348	1156.927	37.575	OK
11-12-2024	08:50:21.519	1157.098	7.501	7.501	27.500	936	0	1.0892	OK	11-12-2024	08:50:21.519	1157.098	37.575	OK
11-12-2024	08:50:21.778	1157.357	7.502	7.502	27.506	936	0	1.0888	OK	11-12-2024	08:50:21.778	1157.357	37.575	OK
11-12-2024	08:50:21.949	1157.528	7.501	7.501	27.501	936	0	1.0891	OK	11-12-2024	08:50:21.949	1157.528	37.575	OK
11-12-2024	08:50:22.050	1157.629	7.501	7.501	27.501	936	0	1.0891	OK	11-12-2024	08:50:22.050	1157.629	37.574	OK
11-12-2024	08:50:22.153	1157.732	7.501	7.501	27.502	936	0	1.0891	OK	11-12-2024	08:50:22.153	1157.732	37.574	OK
11-12-2024	08:50:22.254	1157.832	7.501	7.501	27.500	936	0	1.0892	OK	11-12-2024	08:50:22.254	1157.832	37.574	OK
11-12-2024	08:50:22.351	1157.930	7.501	7.501	27.499	936	0	1.0893	OK	11-12-2024	08:50:22.351	1157.930	37.574	OK
11-12-2024	08:50:22.524	1158.103	7.501	7.501	27.502	936	0	1.0891	OK	11-12-2024	08:50:22.524	1158.103	37.576	OK
11-12-2024	08:50:22.778	1158.357	7.501	7.501	27.502	936	0	1.0891	OK	11-12-2024	08:50:22.778	1158.357	37.575	OK
11-12-2024	08:50:22.952	1158.531	7.502	7.502	27.507	937	0	1.0888	OK	11-12-2024	08:50:22.952	1158.531	37.575	OK
11-12-2024	08:50:23.053	1158.631	7.501	7.501	27.500	936	0	1.0892	OK	11-12-2024	08:50:23.053	1158.631	37.575	OK
11-12-2024	08:50:23.152	1158.731	7.501	7.501	27.502	937	0	1.0891	OK	11-12-2024	08:50:23.152	1158.731	37.575	OK
11-12-2024	08:50:23.252	1158.831	7.501	7.501	27.500	937	0	1.0892	OK	11-12-2024	08:50:23.252	1158.831	37.575	OK
11-12-2024	08:50:23.488	1159.067	7.501	7.501	27.503	937	0	1.0890	OK	11-12-2024	08:50:23.488	1159.067	37.573	OK
11-12-2024	08:50:23.741	1159.320	7.502	7.502	27.507	937	0	1.0888	OK	11-12-2024	08:50:23.741	1159.320	37.572	OK
11-12-2024	08:50:23.852	1159.431	7.502	7.502	27.504	937	0	1.0890	OK	11-12-2024	08:50:23.852	1159.431	37.572	OK
11-12-2024	08:50:23.953	1159.532	7.501	7.501	27.502	937	0	1.0891	OK	11-12-2024	08:50:23.953	1159.532	37.572	OK
11-12-2024	08:50:24.052	1159.631	7.502	7.502	27.503	937	0	1.0890	OK	11-12-2024	08:50:24.052	1159.631	37.572	OK
11-12-2024	08:50:24.151	1159.730	7.501	7.501	27.501	937	0	1.0892	OK	11-12-2024	08:50:24.151	1159.730	37.572	OK
11-12-2024	08:50:24.252	1159.831	7.501	7.501	27.498	937	0	1.0894	OK	11-12-2024	08:50:24.252	1159.831	37.571	OK
11-12-2024	08:50:24.351	1159.930	7.501	7.501	27.499	937	0	1.0893	OK	11-12-2024	08:50:24.351	1159.930	37.571	OK
11-12-2024	08:50:24.520	1160.099	7.502	7.502	27.504	937	0	1.0890	OK	11-12-2024	08:50:24.520	1160.099	37.571	OK
11-12-2024	08:50:24.776	1160.355	7.502	7.502	27.509	937	0	1.0886	OK	11-12-2024	08:50:24.776	1160.355	37.570	OK
11-12-2024	08:50:24.952	1160.531	7.502	7.502	27.508	936	0	1.0887	OK	11-12-2024	08:50:24.952	1160.531	37.570	OK
11-12-2024	08:50:25.051	1160.630	7.501	7.501	27.501	937	0	1.0892	OK	11-12-2024	08:50:25.051	1160.630	37.571	OK
11-12-2024	08:50:25.152	1160.731	7.501	7.501	27.502	937	0	1.0891	OK	11-12-2024	08:50:25.152	1160.731	37.571	OK
11-12-2024	08:50:25.252	1160.831	7.501	7.501	27.500	937	0	1.0892	OK	11-12-2024	08:50:25.252	1160.831	37.571	OK
11-12-2024	08:50:25.352	1160.931	7.501	7.501	27.502	936	0	1.0891	OK	11-12-2024	08:50:25.352	1160.931	37.571	OK
11-12-2024	08:50:25.523	1161.102	7.502	7.502	27.505	937	0	1.0889	OK	11-12-2024	08:50:25.523	1161.102	37.570	OK
11-12-2024	08:50:25.776	1161.355	7.502	7.502	27.507	937	0	1.0888	OK	11-12-2024	08:50:25.776	1161.355	37.570	OK
11-12-2024	08:50:25.953	1161.532	7.502	7.502	27.509	937	0	1.0886	OK	11-12-2024	08:50:25.953	1161.532	37.571	OK
11-12-2024	08:50:26.052	1161.631	7.501	7.501	27.501	937	0	1.0892	OK	11-12-2024	08:50:26.052	1161.631	37.570	OK
11-12-2024	08:50:26.154	1161.733	7.501	7.501	27.501	937	0	1.0892	OK	11-12-2024	08:50:26.154	1161.733	37.570	OK
11-12-2024	08:50:26.255	1161.834	7.501	7.501	27.497	936	0	1.0895	OK	11-12-2024	08:50:26.255	1161.834	37.570	OK
11-12-2024	08:50:26.355	1161.934	7.501	7.501	27.497	936	0	1.0894	OK	11-12-2024	08:50:26.355	1161.934	37.570	OK
11-12-2024	08:50:26.526	1162.105	7.502	7.502	27.507	937	0	1.0887	OK	11-12-2024	08:50:26.526	1162.105	37.570	OK
11-12-2024	08:50:26.782	1162.361	7.502	7.502	27.505	937	0	1.0888	OK	11-12-2024	08:50:26.782	1162.361	37.572	OK
11-12-2024	08:50:26.956	1162.535	7.502	7.502	27.506	937	0	1.0888	OK	11-12-2024	08:50:26.956	1162.535	37.572	OK
11-12-2024	08:50:27.056	1162.635	7.501	7.501	27.498	937	0	1.0893	OK	11-12-2024	08:50:27.056	1162.635	37.572	OK
11-12-2024	08:50:27.156	1162.735	7.501	7.501	27.499	937	0	1.0893	OK	11-12-2024	08:50:27.156	1162.735	37.572	OK
11-12-2024	08:50:27.255	1162.834	7.501	7.501	27.498	937	0	1.0893	OK	11-12-2024	08:50:27.255	1162.834	37.572	OK
11-12-2024	08:50:27.357	1162.936	7.501	7.501	27.502	937	0	1.0891	OK	11-12-2024	08:50:27.357	1162.936	37.572	OK
11-12-2024	08:50:27.528	1163.107	7.501	7.501	27.502	936	0	1.0891	OK	11-12-2024	08:50:27.528	1163.107	37.573	OK
11-12-2024	08:50:27.781	1163.359	7.502	7.502	27.504	936	0	1.0889	OK	11-12-2024	08:50:27.781	1163.359	37.574	OK
11-12-2024	08:50:27.957	1163.536	7.502	7.502	27.506	937	0	1.0888	OK	11-12-2024	08:50:27.957	1163.536	37.574	OK
11-12-2024	08:50:28.058	1163.637	7.502	7.502	27.503	936	0	1.0890	OK	11-12-2024	08:50:28.058	1163.637	37.574	OK
11-12-2024	08:50:28.157	1163.736	7.502	7.502	27.503	936	0	1.0890	OK	11-12-2024	08:50:28.157	1163.736	37.574	OK
11-12-2024	08:50:28.259	1163.838	7.501	7.501	27.500	936	0	1.0892	OK	11-12-2024	08:50:28.259	1163.838	37.574	OK
11-12-2024	08:50:28.357	1163.936	7.501	7.501	27.502	937	0	1.0891	OK	11-12-2024	08:50:28.357	1163.936	37.574	OK
11-12-2024	08:50:28.526	1164.104	7.502	7.502	27.505	937	0	1.0888	OK	11-12-2024	08:50:28.526	1164.104	37.575	OK
11-12-2024	08:50:28.784	1164.363	7.502	7.502	27.509	937	0	1.0886	OK	11-12-2024	08:50:28.784	1164.363	37.575	OK
11-12-2024	08:50:28.959	1164.538	7.502	7.502	27.507	937	0	1.0887	OK	11-12-2024	08:50:28.959	1164.538	37.576	OK
11-12-2024	08:50:29.059	1164.638	7.501	7.501	27.500	937	0	1.0892	OK	11-12-2024	08:50:29.059	1164.638	37.576	OK
11-12-2024	08:50:29.160	1164.739	7.501	7.501	27.496	937	0	1.0895	OK	11-12-2024	08:50:29.160	1164.739	37.576	OK
11-12-2024	08:50:29.260	1164.839	7.501	7.501	27.500	936	0	1.0892	OK	11-12-2024	08:50:29.260	1164.839	37.576	OK
11-12-2024	08:50:29.487	1165.066	7.502	7.502	27.506	937	0	1.0888	OK	11-12-2024	08:50:29.487	1165.066	37.577	OK
11-12-2024	08:50:29.742	1165.321	7.502	7.502	27.505	937	0	1.0888	OK	11-12-2024	08:50:29.742	1165.321	37.577	OK
11-12-2024	08:50:29.861	1165.440	7.502	7.502	27.504	937	0	1.0889	OK	11-12-2024	08:50:29.861	1165.440	37.577	OK
11-12-2024	08:50:29.962	1165.541	7.501	7.501	27.499	936	0	1.0893	OK	11-12-2024	08:50:29.962	1165.541	37.578	OK
11-12-2024	08:50:30.062	1165.641	7.501	7.501	27.497	936	0	1.0894	OK	11-12-2024	08:50:30.062	1165.641	37.578	OK
11-12-2024	08:50:30.162	1165.741	7.501	7.501	27.500	936	0	1.0892	OK	11-12-2024	08:50:30.162	1165.741	37.578	OK
11-12-2024	08:50:30.261	1165.840	7.501	7.501	27.498	936	0	1.0893	OK	11-12-2024	08:50:30.261	1165.840	37.578	OK
11-12-2024	08:50:30.362	1165.941	7.500	7.500	27.496	936	0	1.0895	OK	11-12-2024	08:50:30.362	1165.941	37.579	OK
11-12-2024	08:50:30.533	1166.112	7.501	7.501	27.500	937	0	1.0892	OK	11-12-2024	08:50:30.533	1166.112	37.579	OK
11-12-2024	08:50:30.790	1166.369	7.501	7.501	27.503	937	0	1.0890	OK	11-12-2024	08:50:30.790	1166.369	37.579	OK
11-12-2024	08:50:30.967	1166.546	7.502	7.502	27.505	937	0	1.0888	OK	11-12-2024	08:50:30.967	1166.546	37.579	OK
11-12-2024	08:50:31.062	1166.641	7.501	7.501	27.503	937	0	1.0890	OK	11-12-2024	08:50:31.062	1166.641	37.579	OK
11-12-2024	08:50:31.162	1166.741	7.501	7.501	27.501	936	0	1.0891	OK	11-12-2024	08:50:31.162	1166.741	37.581	OK
11-12-2024	08:50:31.262	1166.841	7.501	7.501	27.501	937	0	1.0891	OK	11-12-2024	08:50:31.262	1166.841	37.581	OK
11-12-2024	08:50:31.361	1166.940	7.502	7.502	27.505	937	0	1.0888	OK	11-12-2024	08:50:31.361	1166.940	37.580	OK
11-12-2024	08:50:31.535	1167.114	7.501	7.501	27.501	936	0	1.0891	OK	11-12-2024	08:50:31.535	1167.114	37.580	OK
11-12-2024	08:50:31.790	1167.369	7.502	7.502	27.504	937	0	1.0889	OK	11-12-2024	08:50:31.790	1167.369	37.580	OK
11-12-2024	08:50:31.963	1167.542	7.502	7.502	27.509	937	0	1.0886	OK	11-12-2024	08:50:31.963	1167.542	37.580	OK
11-12-2024	08:50:32.063	1167.642	7.501	7.501	27.502	936	0	1.0891	OK	11-12-2024	08:50:32.063	1167.642	37.580	OK
11-12-2024	08:50:32.163	1167.742	7.501	7.501	27.500	936	0	1.0892	OK	11-12-2024	08:50:32.163	1167.742	37.580	OK
11-12-2024	08:50:32.263	1167.842	7.501	7.501	27.498	937	0	1.0893	OK	11-12-2024	08:50:32.263	1167.842	37.580	OK
11-12-2024	08:50:32.365	1167.944	7.502	7.502	27.504	936	0	1.0889	OK	11-12-2024	08:50:32.365	1167.944	37.579	OK
11-12-2024	08:50:32.536	1168.115	7.501	7.501	27.501	937	0	1.0891	OK	11-12-2024	08:50:32.536	1168.115	37.579	OK
11-12-2024	08:50:32.791	1168.370	7.502	7.502	27.508	937	0	1.0886	OK	11-12-2024	08:50:32.791	1168.370	37.579	OK
11-12-2024	08:50:32.964	1168.543	7.502	7.502	27.509	937	0	1.0886	OK	11-12-2024	08:50:32.964	1168.543	37.578	OK
11-12-2024	08:50:33.064	1168.643	7.501	7.501	27.500	936	0	1.0892	OK	11-12-2024	08:50:33.064	1168.643	37.578	OK
11-12-2024	08:50:33.165	1168.744	7.500	7.500	27.496	937	0	1.0895	OK	11-12-2024	08:50:33.165	1168.744	37.578	OK
11-12-2024	08:50:33.265	1168.844	7.501	7.501	27.498	936	0	1.0893	OK	11-12-2024	08:50:33.265	1168.844	37.578	OK
11-12-2024	08:50:33.365	1168.944	7.501	7.501	27.497	936	0	1.0894	OK	11-12-2024	08:50:33.365	1168.944	37.578	OK
11-12-2024	08:50:33.720	1169.299	7.503	7.503	27.511	937	0	1.0884	OK	11-12-2024	08:50:33.720	1169.299	37.578	OK
11-12-2024	08:50:33.865	1169.444	7.502	7.502	27.504	936	0	1.0889	OK	11-12-2024	08:50:33.865	1169.444	37.578	OK
11-12-2024	08:50:33.966	1169.545	7.501	7.501	27.499	936	0	1.0893	OK	11-12-2024	08:50:33.966	1169.545	37.577	OK
11-12-2024	08:50:34.066	1169.645	7.502	7.502	27.506	937	0	1.0888	OK	11-12-2024	08:50:34.066	1169.645	37.577	OK
11-12-2024	08:50:34.166	1169.745	7.501	7.501	27.499	936	0	1.0893	OK	11-12-2024	08:50:34.166	1169.745	37.577	OK
11-12-2024	08:50:34.267	1169.846	7.501	7.501	27.496	936	0	1.0895	OK	11-12-2024	08:50:34.267	1169.846	37.577	OK
11-12-2024	08:50:34.366	1169.945	7.500	7.500	27.492	936	0	1.0897	OK	11-12-2024	08:50:34.366	1169.945	37.575	OK
11-12-2024	08:50:34.538	1170.117	7.501	7.501	27.502	936	0	1.0891	OK	11-12-2024	08:50:34.538	1170.117	37.575	OK
11-12-2024	08:50:34.799	1170.378	7.502	7.502	27.503	936	0	1.0890	OK	11-12-2024	08:50:34.799	1170.378	37.575	OK
11-12-2024	08:50:34.966	1170.545	7.502	7.502	27.506	936	0	1.0888	OK	11-12-2024	08:50:34.966	1170.545	37.574	OK
11-12-2024	08:50:35.066	1170.645	7.501	7.501	27.501	936	0	1.0891	OK	11-12-2024	08:50:35.066	1170.645	37.574	OK
11-12-2024	08:50:35.167	1170.746	7.501	7.501	27.499	937	0	1.0893	OK	11-12-2024	08:50:35.167	1170.746	37.574	OK
11-12-2024	08:50:35.267	1170.846	7.501	7.501	27.502	937	0	1.0891	OK	11-12-2024	08:50:35.267	1170.846	37.574	OK
11-12-2024	08:50:35.367	1170.946	7.501	7.501	27.498	936	0	1.0893	OK	11-12-2024	08:50:35.367	1170.946	37.573	OK
11-12-2024	08:50:35.538	1171.117	7.502	7.502	27.503	936	0	1.0890	OK	11-12-2024	08:50:35.538	1171.117	37.573	OK
11-12-2024	08:50:35.810	1171.389	7.502	7.502	27.507	937	0	1.0887	OK	11-12-2024	08:50:35.810	1171.389	37.573	OK
11-12-2024	08:50:35.967	1171.546	7.502	7.502	27.504	937	0	1.0889	OK	11-12-2024	08:50:35.967	1171.546	37.573	OK
11-12-2024	08:50:36.067	1171.646	7.502	7.502	27.504	937	0	1.0889	OK	11-12-2024	08:50:36.067	1171.646	37.573	OK
11-12-2024	08:50:36.167	1171.746	7.501	7.501	27.500	936	0	1.0892	OK	11-12-2024	08:50:36.167	1171.746	37.573	OK
11-12-2024	08:50:36.367	1171.946	7.502	7.502	27.503	937	0	1.0890	OK	11-12-2024	08:50:36.367	1171.946	37.572	OK
11-12-2024	08:50:36.537	1172.116	7.502	7.502	27.506	937	0	1.0888	OK	11-12-2024	08:50:36.537	1172.116	37.572	OK
11-12-2024	08:50:36.793	1172.372	7.502	7.502	27.507	937	0	1.0887	OK	11-12-2024	08:50:36.793	1172.372	37.571	OK
11-12-2024	08:50:36.970	1172.549	7.503	7.503	27.510	936	0	1.0885	OK	11-12-2024	08:50:36.970	1172.549	37.571	OK
11-12-2024	08:50:37.069	1172.648	7.501	7.501	27.502	936	0	1.0891	OK	11-12-2024	08:50:37.069	1172.648	37.572	OK
11-12-2024	08:50:37.169	1172.748	7.501	7.501	27.499	936	0	1.0893	OK	11-12-2024	08:50:37.169	1172.748	37.572	OK
11-12-2024	08:50:37.270	1172.849	7.501	7.501	27.496	936	0	1.0895	OK	11-12-2024	08:50:37.270	1172.849	37.573	OK
11-12-2024	08:50:37.370	1172.949	7.501	7.501	27.496	936	0	1.0895	OK	11-12-2024	08:50:37.370	1172.949	37.573	OK
11-12-2024	08:50:37.540	1173.119	7.502	7.502	27.507	937	0	1.0887	OK	11-12-2024	08:50:37.540	1173.119	37.572	OK
11-12-2024	08:50:37.795	1173.374	7.502	7.502	27.507	937	0	1.0887	OK	11-12-2024	08:50:37.795	1173.374	37.572	OK
11-12-2024	08:50:37.973	1173.552	7.502	7.502	27.505	937	0	1.0888	OK	11-12-2024	08:50:37.973	1173.552	37.572	OK
11-12-2024	08:50:38.074	1173.653	7.502	7.502	27.507	937	0	1.0887	OK	11-12-2024	08:50:38.074	1173.653	37.573	OK
11-12-2024	08:50:38.175	1173.754	7.502	7.502	27.503	937	0	1.0890	OK	11-12-2024	08:50:38.175	1173.754	37.573	OK
11-12-2024	08:50:38.375	1173.954	7.502	7.502	27.506	937	0	1.0888	OK	11-12-2024	08:50:38.375	1173.954	37.573	OK
11-12-2024	08:50:38.551	1174.130	7.502	7.502	27.505	937	0	1.0888	OK	11-12-2024	08:50:38.551	1174.130	37.573	OK
11-12-2024	08:50:38.811	1174.389	7.502	7.502	27.508	937	0	1.0886	OK	11-12-2024	08:50:38.811	1174.389	37.575	OK
11-12-2024	08:50:38.977	1174.556	7.503	7.503	27.511	936	0	1.0884	OK	11-12-2024	08:50:38.977	1174.556	37.575	OK
11-12-2024	08:50:39.077	1174.656	7.502	7.502	27.507	937	0	1.0887	OK	11-12-2024	08:50:39.077	1174.656	37.576	OK
11-12-2024	08:50:39.177	1174.756	7.502	7.502	27.504	937	0	1.0889	OK	11-12-2024	08:50:39.177	1174.756	37.576	OK
11-12-2024	08:50:39.280	1174.859	7.502	7.502	27.504	937	0	1.0889	OK	11-12-2024	08:50:39.280	1174.859	37.577	OK
11-12-2024	08:50:39.377	1174.956	7.501	7.501	27.501	937	0	1.0891	OK	11-12-2024	08:50:39.377	1174.956	37.577	OK
11-12-2024	08:50:39.548	1175.127	7.501	7.501	27.503	937	0	1.0890	OK	11-12-2024	08:50:39.548	1175.127	37.577	OK
11-12-2024	08:50:39.821	1175.400	7.502	7.502	27.505	937	0	1.0889	OK	11-12-2024	08:50:39.821	1175.400	37.578	OK
11-12-2024	08:50:39.982	1175.561	7.501	7.501	27.503	937	0	1.0890	OK	11-12-2024	08:50:39.982	1175.561	37.578	OK
11-12-2024	08:50:40.081	1175.660	7.502	7.502	27.504	937	0	1.0890	OK	11-12-2024	08:50:40.081	1175.660	37.578	OK
11-12-2024	08:50:40.182	1175.761	7.501	7.501	27.498	936	0	1.0894	OK	11-12-2024	08:50:40.182	1175.761	37.578	OK
11-12-2024	08:50:40.281	1175.860	7.501	7.501	27.500	936	0	1.0892	OK	11-12-2024	08:50:40.281	1175.860	37.577	OK
11-12-2024	08:50:40.382	1175.961	7.500	7.500	27.496	936	0	1.0895	OK	11-12-2024	08:50:40.382	1175.961	37.577	OK
11-12-2024	08:50:40.553	1176.132	7.501	7.501	27.502	936	0	1.0891	OK	11-12-2024	08:50:40.553	1176.132	37.577	OK
11-12-2024	08:50:40.825	1176.404	7.502	7.502	27.504	937	0	1.0889	OK	11-12-2024	08:50:40.825	1176.404	37.577	OK
11-12-2024	08:50:40.985	1176.564	7.502	7.502	27.506	936	0	1.0888	OK	11-12-2024	08:50:40.985	1176.564	37.577	OK
11-12-2024	08:50:41.084	1176.663	7.502	7.502	27.505	936	0	1.0888	OK	11-12-2024	08:50:41.084	1176.663	37.578	OK
11-12-2024	08:50:41.185	1176.764	7.501	7.501	27.498	937	0	1.0893	OK	11-12-2024	08:50:41.185	1176.764	37.578	OK
11-12-2024	08:50:41.286	1176.865	7.501	7.501	27.502	937	0	1.0891	OK	11-12-2024	08:50:41.286	1176.865	37.578	OK
11-12-2024	08:50:41.385	1176.964	7.500	7.500	27.496	936	0	1.0895	OK	11-12-2024	08:50:41.385	1176.964	37.578	OK
11-12-2024	08:50:41.554	1177.133	7.502	7.502	27.504	937	0	1.0889	OK	11-12-2024	08:50:41.554	1177.133	37.578	OK
11-12-2024	08:50:41.810	1177.389	7.502	7.502	27.505	937	0	1.0888	OK	11-12-2024	08:50:41.810	1177.389	37.578	OK
11-12-2024	08:50:41.987	1177.566	7.502	7.502	27.504	937	0	1.0889	OK	11-12-2024	08:50:41.987	1177.566	37.578	OK
11-12-2024	08:50:42.089	1177.668	7.501	7.501	27.502	936	0	1.0891	OK	11-12-2024	08:50:42.089	1177.668	37.579	OK
11-12-2024	08:50:42.289	1177.868	7.502	7.502	27.505	937	0	1.0888	OK	11-12-2024	08:50:42.289	1177.868	37.578	OK
11-12-2024	08:50:42.389	1177.968	7.502	7.502	27.503	936	0	1.0890	OK	11-12-2024	08:50:42.389	1177.968	37.578	OK
11-12-2024	08:50:42.562	1178.141	7.502	7.502	27.504	937	0	1.0889	OK	11-12-2024	08:50:42.562	1178.141	37.578	OK
11-12-2024	08:50:42.819	1178.398	7.502	7.502	27.506	937	0	1.0888	OK	11-12-2024	08:50:42.819	1178.398	37.578	OK
11-12-2024	08:50:42.989	1178.568	7.502	7.502	27.506	937	0	1.0888	OK	11-12-2024	08:50:42.989	1178.568	37.578	OK
11-12-2024	08:50:43.089	1178.668	7.502	7.502	27.504	937	0	1.0889	OK	11-12-2024	08:50:43.089	1178.668	37.578	OK
11-12-2024	08:50:43.189	1178.768	7.501	7.501	27.501	937	0	1.0891	OK	11-12-2024	08:50:43.189	1178.768	37.578	OK
11-12-2024	08:50:43.291	1178.869	7.501	7.501	27.500	937	0	1.0892	OK	11-12-2024	08:50:43.291	1178.869	37.578	OK
11-12-2024	08:50:43.391	1178.970	7.501	7.501	27.497	937	0	1.0894	OK	11-12-2024	08:50:43.391	1178.970	37.578	OK
11-12-2024	08:50:43.561	1179.139	7.501	7.501	27.500	937	0	1.0892	OK	11-12-2024	08:50:43.561	1179.139	37.577	OK
11-12-2024	08:50:43.818	1179.397	7.501	7.501	27.501	937	0	1.0891	OK	11-12-2024	08:50:43.818	1179.397	37.577	OK
11-12-2024	08:50:43.992	1179.571	7.502	7.502	27.503	937	0	1.0890	OK	11-12-2024	08:50:43.992	1179.571	37.578	OK
11-12-2024	08:50:44.091	1179.670	7.502	7.502	27.503	937	0	1.0890	OK	11-12-2024	08:50:44.091	1179.670	37.577	OK
11-12-2024	08:50:44.191	1179.770	7.501	7.501	27.501	937	0	1.0891	OK	11-12-2024	08:50:44.191	1179.770	37.577	OK
11-12-2024	08:50:44.290	1179.869	7.501	7.501	27.498	937	0	1.0893	OK	11-12-2024	08:50:44.290	1179.869	37.577	OK
11-12-2024	08:50:44.492	1180.071	7.502	7.502	27.504	937	0	1.0889	OK	11-12-2024	08:50:44.492	1180.071	37.577	OK
11-12-2024	08:50:44.751	1180.330	7.502	7.502	27.503	937	0	1.0890	OK	11-12-2024	08:50:44.751	1180.330	37.577	OK
11-12-2024	08:50:44.893	1180.472	7.501	7.501	27.501	937	0	1.0891	OK	11-12-2024	08:50:44.893	1180.472	37.577	OK
11-12-2024	08:50:44.993	1180.572	7.501	7.501	27.501	937	0	1.0891	OK	11-12-2024	08:50:44.993	1180.572	37.577	OK
11-12-2024	08:50:45.092	1180.671	7.501	7.501	27.501	936	0	1.0891	OK	11-12-2024	08:50:45.092	1180.671	37.578	OK
11-12-2024	08:50:45.193	1180.772	7.501	7.501	27.500	936	0	1.0892	OK	11-12-2024	08:50:45.193	1180.772	37.578	OK
11-12-2024	08:50:45.294	1180.873	7.501	7.501	27.498	937	0	1.0893	OK	11-12-2024	08:50:45.294	1180.873	37.577	OK
11-12-2024	08:50:45.392	1180.971	7.501	7.501	27.498	937	0	1.0893	OK	11-12-2024	08:50:45.392	1180.971	37.577	OK
11-12-2024	08:50:45.564	1181.143	7.502	7.502	27.503	936	0	1.0890	OK	11-12-2024	08:50:45.564	1181.143	37.578	OK
11-12-2024	08:50:45.821	1181.400	7.502	7.502	27.505	937	0	1.0888	OK	11-12-2024	08:50:45.821	1181.400	37.578	OK
11-12-2024	08:50:45.994	1181.572	7.502	7.502	27.508	937	0	1.0886	OK	11-12-2024	08:50:45.994	1181.572	37.578	OK
11-12-2024	08:50:46.093	1181.672	7.502	7.502	27.504	937	0	1.0889	OK	11-12-2024	08:50:46.093	1181.672	37.578	OK
11-12-2024	08:50:46.192	1181.771	7.502	7.502	27.503	937	0	1.0889	OK	11-12-2024	08:50:46.192	1181.771	37.578	OK
11-12-2024	08:50:46.292	1181.871	7.501	7.501	27.501	937	0	1.0891	OK	11-12-2024	08:50:46.292	1181.871	37.578	OK
11-12-2024	08:50:46.394	1181.973	7.501	7.501	27.500	937	0	1.0891	OK	11-12-2024	08:50:46.394	1181.973	37.578	OK
11-12-2024	08:50:46.564	1182.143	7.502	7.502	27.505	937	0	1.0888	OK	11-12-2024	08:50:46.564	1182.143	37.578	OK
11-12-2024	08:50:46.822	1182.401	7.502	7.502	27.504	937	0	1.0889	OK	11-12-2024	08:50:46.822	1182.401	37.578	OK
11-12-2024	08:50:46.993	1182.572	7.502	7.502	27.509	937	0	1.0886	OK	11-12-2024	08:50:46.993	1182.572	37.579	OK
11-12-2024	08:50:47.094	1182.673	7.502	7.502	27.506	937	0	1.0888	OK	11-12-2024	08:50:47.094	1182.673	37.579	OK
11-12-2024	08:50:47.194	1182.773	7.501	7.501	27.502	937	0	1.0891	OK	11-12-2024	08:50:47.194	1182.773	37.579	OK
11-12-2024	08:50:47.294	1182.873	7.501	7.501	27.502	937	0	1.0891	OK	11-12-2024	08:50:47.294	1182.873	37.579	OK
11-12-2024	08:50:47.395	1182.974	7.501	7.501	27.501	937	0	1.0891	OK	11-12-2024	08:50:47.395	1182.974	37.579	OK
11-12-2024	08:50:47.569	1183.148	7.501	7.501	27.502	937	0	1.0891	OK	11-12-2024	08:50:47.569	1183.148	37.580	OK
11-12-2024	08:50:47.826	1183.404	7.502	7.502	27.509	937	0	1.0886	OK	11-12-2024	08:50:47.826	1183.404	37.578	OK
11-12-2024	08:50:47.997	1183.576	7.502	7.502	27.504	937	0	1.0889	OK	11-12-2024	08:50:47.997	1183.576	37.577	OK
11-12-2024	08:50:48.098	1183.677	7.502	7.502	27.505	937	0	1.0888	OK	11-12-2024	08:50:48.098	1183.677	37.577	OK
11-12-2024	08:50:48.198	1183.777	7.501	7.501	27.499	937	0	1.0893	OK	11-12-2024	08:50:48.198	1183.777	37.576	OK
11-12-2024	08:50:48.298	1183.877	7.501	7.501	27.499	936	0	1.0893	OK	11-12-2024	08:50:48.298	1183.877	37.576	OK
11-12-2024	08:50:48.398	1183.977	7.501	7.501	27.498	937	0	1.0893	OK	11-12-2024	08:50:48.398	1183.977	37.577	OK
11-12-2024	08:50:48.568	1184.147	7.501	7.501	27.501	936	0	1.0891	OK	11-12-2024	08:50:48.568	1184.147	37.577	OK
11-12-2024	08:50:48.827	1184.406	7.502	7.502	27.507	937	0	1.0887	OK	11-12-2024	08:50:48.827	1184.406	37.577	OK
11-12-2024	08:50:48.997	1184.576	7.502	7.502	27.505	937	0	1.0888	OK	11-12-2024	08:50:48.997	1184.576	37.576	OK
11-12-2024	08:50:49.098	1184.677	7.502	7.502	27.503	936	0	1.0890	OK	11-12-2024	08:50:49.098	1184.677	37.576	OK
11-12-2024	08:50:49.199	1184.778	7.501	7.501	27.497	937	0	1.0894	OK	11-12-2024	08:50:49.199	1184.778	37.576	OK
11-12-2024	08:50:49.298	1184.877	7.500	7.500	27.494	936	0	1.0896	OK	11-12-2024	08:50:49.298	1184.877	37.576	OK
11-12-2024	08:50:49.400	1184.979	7.501	7.501	27.497	936	0	1.0894	OK	11-12-2024	08:50:49.400	1184.979	37.575	OK
11-12-2024	08:50:49.585	1185.164	7.501	7.501	27.501	936	0	1.0891	OK	11-12-2024	08:50:49.585	1185.164	37.576	OK
11-12-2024	08:50:49.839	1185.418	7.502	7.502	27.506	937	0	1.0888	OK	11-12-2024	08:50:49.839	1185.418	37.575	OK
11-12-2024	08:50:49.999	1185.578	7.502	7.502	27.508	937	0	1.0886	OK	11-12-2024	08:50:49.999	1185.578	37.575	OK
11-12-2024	08:50:50.099	1185.678	7.502	7.502	27.503	937	0	1.0890	OK	11-12-2024	08:50:50.099	1185.678	37.575	OK
11-12-2024	08:50:50.199	1185.778	7.501	7.501	27.502	937	0	1.0891	OK	11-12-2024	08:50:50.199	1185.778	37.575	OK
11-12-2024	08:50:50.298	1185.877	7.501	7.501	27.498	937	0	1.0893	OK	11-12-2024	08:50:50.298	1185.877	37.575	OK
11-12-2024	08:50:50.401	1185.980	7.501	7.501	27.501	937	0	1.0891	OK	11-12-2024	08:50:50.401	1185.980	37.575	OK
11-12-2024	08:50:50.572	1186.151	7.502	7.502	27.503	937	0	1.0890	OK	11-12-2024	08:50:50.572	1186.151	37.575	OK
11-12-2024	08:50:50.826	1186.405	7.502	7.502	27.508	937	0	1.0886	OK	11-12-2024	08:50:50.826	1186.405	37.575	OK
11-12-2024	08:50:51.001	1186.580	7.502	7.502	27.505	937	0	1.0888	OK	11-12-2024	08:50:51.001	1186.580	37.575	OK
11-12-2024	08:50:51.100	1186.679	7.502	7.502	27.503	937	0	1.0890	OK	11-12-2024	08:50:51.100	1186.679	37.575	OK
11-12-2024	08:50:51.200	1186.779	7.501	7.501	27.500	937	0	1.0892	OK	11-12-2024	08:50:51.200	1186.779	37.576	OK
11-12-2024	08:50:51.302	1186.881	7.501	7.501	27.498	936	0	1.0893	OK	11-12-2024	08:50:51.302	1186.881	37.576	OK
11-12-2024	08:50:51.400	1186.979	7.501	7.501	27.500	937	0	1.0892	OK	11-12-2024	08:50:51.400	1186.979	37.575	OK
11-12-2024	08:50:51.572	1187.151	7.502	7.502	27.503	937	0	1.0890	OK	11-12-2024	08:50:51.572	1187.151	37.575	OK
11-12-2024	08:50:51.844	1187.423	7.502	7.502	27.505	937	0	1.0888	OK	11-12-2024	08:50:51.844	1187.423	37.573	OK
11-12-2024	08:50:52.001	1187.580	7.503	7.503	27.512	936	0	1.0884	OK	11-12-2024	08:50:52.001	1187.580	37.573	OK
11-12-2024	08:50:52.102	1187.681	7.502	7.502	27.503	937	0	1.0890	OK	11-12-2024	08:50:52.102	1187.681	37.573	OK
11-12-2024	08:50:52.202	1187.781	7.501	7.501	27.500	936	0	1.0892	OK	11-12-2024	08:50:52.202	1187.781	37.574	OK
11-12-2024	08:50:52.302	1187.881	7.501	7.501	27.501	936	0	1.0891	OK	11-12-2024	08:50:52.302	1187.881	37.574	OK
11-12-2024	08:50:52.402	1187.981	7.501	7.501	27.498	936	0	1.0893	OK	11-12-2024	08:50:52.402	1187.981	37.575	OK
11-12-2024	08:50:52.572	1188.150	7.501	7.501	27.502	936	0	1.0891	OK	11-12-2024	08:50:52.572	1188.150	37.575	OK
11-12-2024	08:50:52.826	1188.405	7.502	7.502	27.508	937	0	1.0886	OK	11-12-2024	08:50:52.826	1188.405	37.576	OK
11-12-2024	08:50:53.002	1188.581	7.502	7.502	27.507	937	0	1.0887	OK	11-12-2024	08:50:53.002	1188.581	37.576	OK
11-12-2024	08:50:53.101	1188.680	7.502	7.502	27.505	937	0	1.0888	OK	11-12-2024	08:50:53.101	1188.680	37.576	OK
11-12-2024	08:50:53.202	1188.781	7.502	7.502	27.503	937	0	1.0889	OK	11-12-2024	08:50:53.202	1188.781	37.575	OK
11-12-2024	08:50:53.302	1188.881	7.502	7.502	27.503	936	0	1.0889	OK	11-12-2024	08:50:53.302	1188.881	37.575	OK
11-12-2024	08:50:53.402	1188.981	7.501	7.501	27.498	936	0	1.0893	OK	11-12-2024	08:50:53.402	1188.981	37.575	OK
11-12-2024	08:50:53.589	1189.168	7.502	7.502	27.505	937	0	1.0888	OK	11-12-2024	08:50:53.589	1189.168	37.575	OK
11-12-2024	08:50:53.844	1189.423	7.502	7.502	27.508	937	0	1.0885	OK	11-12-2024	08:50:53.844	1189.423	37.575	OK
11-12-2024	08:50:54.003	1189.582	7.502	7.502	27.506	936	0	1.0887	OK	11-12-2024	08:50:54.003	1189.582	37.575	OK
11-12-2024	08:50:54.103	1189.682	7.502	7.502	27.505	936	0	1.0888	OK	11-12-2024	08:50:54.103	1189.682	37.575	OK
11-12-2024	08:50:54.203	1189.782	7.502	7.502	27.503	936	0	1.0889	OK	11-12-2024	08:50:54.203	1189.782	37.575	OK
11-12-2024	08:50:54.303	1189.882	7.501	7.501	27.495	936	0	1.0894	OK	11-12-2024	08:50:54.303	1189.882	37.576	OK
11-12-2024	08:50:54.403	1189.982	7.501	7.501	27.498	936	0	1.0892	OK	11-12-2024	08:50:54.403	1189.982	37.576	OK
11-12-2024	08:50:54.574	1190.153	7.502	7.502	27.502	937	0	1.0890	OK	11-12-2024	08:50:54.574	1190.153	37.575	OK
11-12-2024	08:50:54.832	1190.411	7.502	7.502	27.505	937	0	1.0888	OK	11-12-2024	08:50:54.832	1190.411	37.575	OK
11-12-2024	08:50:55.003	1190.582	7.502	7.502	27.506	937	0	1.0888	OK	11-12-2024	08:50:55.003	1190.582	37.575	OK
11-12-2024	08:50:55.103	1190.682	7.502	7.502	27.504	936	0	1.0889	OK	11-12-2024	08:50:55.103	1190.682	37.575	OK
11-12-2024	08:50:55.203	1190.782	7.501	7.501	27.499	936	0	1.0893	OK	11-12-2024	08:50:55.203	1190.782	37.575	OK
11-12-2024	08:50:55.304	1190.883	7.501	7.501	27.499	937	0	1.0893	OK	11-12-2024	08:50:55.304	1190.883	37.575	OK
11-12-2024	08:50:55.405	1190.984	7.501	7.501	27.498	937	0	1.0893	OK	11-12-2024	08:50:55.405	1190.984	37.575	OK
11-12-2024	08:50:55.763	1191.342	7.502	7.502	27.506	937	0	1.0887	OK	11-12-2024	08:50:55.763	1191.342	37.575	OK
11-12-2024	08:50:55.905	1191.484	7.502	7.502	27.505	937	0	1.0888	OK	11-12-2024	08:50:55.905	1191.484	37.575	OK
11-12-2024	08:50:56.005	1191.584	7.502	7.502	27.503	936	0	1.0889	OK	11-12-2024	08:50:56.005	1191.584	37.575	OK
11-12-2024	08:50:56.104	1191.683	7.502	7.502	27.503	937	0	1.0889	OK	11-12-2024	08:50:56.104	1191.683	37.575	OK
11-12-2024	08:50:56.205	1191.784	7.501	7.501	27.497	937	0	1.0893	OK	11-12-2024	08:50:56.205	1191.784	37.575	OK
11-12-2024	08:50:56.405	1191.984	7.502	7.502	27.505	936	0	1.0888	OK	11-12-2024	08:50:56.405	1191.984	37.575	OK
11-12-2024	08:50:56.575	1192.154	7.502	7.502	27.506	936	0	1.0887	OK	11-12-2024	08:50:56.575	1192.154	37.575	OK
11-12-2024	08:50:56.833	1192.412	7.502	7.502	27.503	936	0	1.0889	OK	11-12-2024	08:50:56.833	1192.412	37.574	OK
11-12-2024	08:50:57.005	1192.584	7.502	7.502	27.506	937	0	1.0887	OK	11-12-2024	08:50:57.005	1192.584	37.574	OK
11-12-2024	08:50:57.104	1192.683	7.502	7.502	27.504	936	0	1.0889	OK	11-12-2024	08:50:57.104	1192.683	37.573	OK
11-12-2024	08:50:57.206	1192.785	7.502	7.502	27.503	936	0	1.0889	OK	11-12-2024	08:50:57.206	1192.785	37.573	OK
11-12-2024	08:50:57.306	1192.885	7.501	7.501	27.497	937	0	1.0893	OK	11-12-2024	08:50:57.306	1192.885	37.574	OK
11-12-2024	08:50:57.407	1192.986	7.501	7.501	27.498	936	0	1.0893	OK	11-12-2024	08:50:57.407	1192.986	37.574	OK
11-12-2024	08:50:57.577	1193.156	7.502	7.502	27.503	936	0	1.0889	OK	11-12-2024	08:50:57.577	1193.156	37.573	OK
11-12-2024	08:50:57.832	1193.410	7.502	7.502	27.505	937	0	1.0888	OK	11-12-2024	08:50:57.832	1193.410	37.574	OK
11-12-2024	08:50:58.007	1193.585	7.502	7.502	27.503	937	0	1.0889	OK	11-12-2024	08:50:58.007	1193.585	37.574	OK
11-12-2024	08:50:58.108	1193.687	7.502	7.502	27.502	937	0	1.0890	OK	11-12-2024	08:50:58.108	1193.687	37.575	OK
11-12-2024	08:50:58.209	1193.788	7.501	7.501	27.500	937	0	1.0891	OK	11-12-2024	08:50:58.209	1193.788	37.575	OK
11-12-2024	08:50:58.310	1193.889	7.501	7.501	27.501	936	0	1.0891	OK	11-12-2024	08:50:58.310	1193.889	37.576	OK
11-12-2024	08:50:58.410	1193.989	7.502	7.502	27.503	936	0	1.0889	OK	11-12-2024	08:50:58.410	1193.989	37.576	OK
11-12-2024	08:50:58.580	1194.159	7.502	7.502	27.507	936	0	1.0887	OK	11-12-2024	08:50:58.580	1194.159	37.576	OK
11-12-2024	08:50:58.835	1194.414	7.502	7.502	27.506	936	0	1.0887	OK	11-12-2024	08:50:58.835	1194.414	37.576	OK
11-12-2024	08:50:59.010	1194.589	7.502	7.502	27.506	937	0	1.0887	OK	11-12-2024	08:50:59.010	1194.589	37.575	OK
11-12-2024	08:50:59.110	1194.689	7.502	7.502	27.502	936	0	1.0890	OK	11-12-2024	08:50:59.110	1194.689	37.575	OK
11-12-2024	08:50:59.210	1194.789	7.501	7.501	27.499	936	0	1.0892	OK	11-12-2024	08:50:59.210	1194.789	37.575	OK
11-12-2024	08:50:59.311	1194.890	7.502	7.502	27.502	936	0	1.0890	OK	11-12-2024	08:50:59.311	1194.890	37.575	OK
11-12-2024	08:50:59.411	1194.990	7.501	7.501	27.500	936	0	1.0891	OK	11-12-2024	08:50:59.411	1194.990	37.575	OK
11-12-2024	08:50:59.581	1195.160	7.502	7.502	27.505	936	0	1.0888	OK	11-12-2024	08:50:59.581	1195.160	37.576	OK
11-12-2024	08:50:59.838	1195.417	7.502	7.502	27.507	937	0	1.0887	OK	11-12-2024	08:50:59.838	1195.417	37.576	OK
11-12-2024	08:51:00.012	1195.591	7.502	7.502	27.505	937	0	1.0888	OK	11-12-2024	08:51:00.012	1195.591	37.576	OK
11-12-2024	08:51:00.111	1195.690	7.501	7.501	27.501	937	0	1.0891	OK	11-12-2024	08:51:00.111	1195.690	37.577	OK
11-12-2024	08:51:00.212	1195.791	7.501	7.501	27.502	937	0	1.0890	OK	11-12-2024	08:51:00.212	1195.791	37.577	OK
11-12-2024	08:51:00.313	1195.892	7.501	7.501	27.497	936	0	1.0893	OK	11-12-2024	08:51:00.313	1195.892	37.578	OK
11-12-2024	08:51:00.412	1195.991	7.501	7.501	27.501	936	0	1.0891	OK	11-12-2024	08:51:00.412	1195.991	37.578	OK
11-12-2024	08:51:00.582	1196.161	7.501	7.501	27.502	936	0	1.0890	OK	11-12-2024	08:51:00.582	1196.161	37.577	OK
11-12-2024	08:51:00.837	1196.416	7.503	7.503	27.511	937	0	1.0884	OK	11-12-2024	08:51:00.837	1196.416	37.577	OK
11-12-2024	08:51:01.013	1196.592	7.502	7.502	27.507	937	0	1.0887	OK	11-12-2024	08:51:01.013	1196.592	37.576	OK
11-12-2024	08:51:01.112	1196.691	7.501	7.501	27.502	937	0	1.0890	OK	11-12-2024	08:51:01.112	1196.691	37.577	OK
11-12-2024	08:51:01.213	1196.792	7.502	7.502	27.504	937	0	1.0889	OK	11-12-2024	08:51:01.213	1196.792	37.577	OK
11-12-2024	08:51:01.313	1196.892	7.501	7.501	27.499	936	0	1.0892	OK	11-12-2024	08:51:01.313	1196.892	37.577	OK
11-12-2024	08:51:01.412	1196.991	7.501	7.501	27.500	937	0	1.0891	OK	11-12-2024	08:51:01.412	1196.991	37.576	OK
11-12-2024	08:51:01.585	1197.164	7.502	7.502	27.504	937	0	1.0889	OK	11-12-2024	08:51:01.585	1197.164	37.575	OK
11-12-2024	08:51:01.855	1197.434	7.502	7.502	27.508	937	0	1.0886	OK	11-12-2024	08:51:01.855	1197.434	37.575	OK
11-12-2024	08:51:02.013	1197.592	7.503	7.503	27.509	937	0	1.0885	OK	11-12-2024	08:51:02.013	1197.592	37.576	OK
11-12-2024	08:51:02.114	1197.693	7.502	7.502	27.504	936	0	1.0889	OK	11-12-2024	08:51:02.114	1197.693	37.576	OK
11-12-2024	08:51:02.213	1197.792	7.502	7.502	27.503	936	0	1.0889	OK	11-12-2024	08:51:02.213	1197.792	37.576	OK
11-12-2024	08:51:02.313	1197.892	7.501	7.501	27.499	936	0	1.0892	OK	11-12-2024	08:51:02.313	1197.892	37.576	OK
11-12-2024	08:51:02.414	1197.993	7.501	7.501	27.502	937	0	1.0890	OK	11-12-2024	08:51:02.414	1197.993	37.577	OK
11-12-2024	08:51:02.584	1198.163	7.502	7.502	27.507	937	0	1.0887	OK	11-12-2024	08:51:02.584	1198.163	37.577	OK
11-12-2024	08:51:02.856	1198.435	7.503	7.503	27.509	937	0	1.0885	OK	11-12-2024	08:51:02.856	1198.435	37.576	OK
11-12-2024	08:51:03.016	1198.595	7.502	7.502	27.508	937	0	1.0886	OK	11-12-2024	08:51:03.016	1198.595	37.577	OK
11-12-2024	08:51:03.116	1198.695	7.502	7.502	27.508	937	0	1.0886	OK	11-12-2024	08:51:03.116	1198.695	37.577	OK
11-12-2024	08:51:03.216	1198.795	7.501	7.501	27.502	937	0	1.0890	OK	11-12-2024	08:51:03.216	1198.795	37.577	OK
11-12-2024	08:51:03.318	1198.897	7.501	7.501	27.502	937	0	1.0890	OK	11-12-2024	08:51:03.318	1198.897	37.577	OK
11-12-2024	08:51:03.500	1199.079	7.502	7.502	27.505	937	0	1.0888	OK	11-12-2024	08:51:03.500	1199.079	37.577	OK
11-12-2024	08:51:03.754	1199.333	7.502	7.502	27.507	937	0	1.0887	OK	11-12-2024	08:51:03.754	1199.333	37.578	OK
11-12-2024	08:51:03.919	1199.498	7.502	7.502	27.507	937	0	1.0887	OK	11-12-2024	08:51:03.919	1199.498	37.578	OK
11-12-2024	08:51:04.019	1199.598	7.502	7.502	27.505	936	0	1.0888	OK	11-12-2024	08:51:04.019	1199.598	37.578	OK
11-12-2024	08:51:04.119	1199.698	7.502	7.502	27.504	937	0	1.0889	OK	11-12-2024	08:51:04.119	1199.698	37.578	OK
11-12-2024	08:51:04.219	1199.798	7.502	7.502	27.504	936	0	1.0889	OK	11-12-2024	08:51:04.219	1199.798	37.578	OK
11-12-2024	08:51:04.319	1199.898	7.501	7.501	27.499	937	0	1.0892	OK	11-12-2024	08:51:04.319	1199.898	37.578	OK
11-12-2024	08:51:04.500	1200.079	7.502	7.502	27.507	937	0	1.0887	OK	11-12-2024	08:51:04.500	1200.079	37.577	OK
11-12-2024	08:51:04.756	1200.335	7.502	7.502	27.507	937	0	1.0887	OK	11-12-2024	08:51:04.756	1200.335	37.577	OK
11-12-2024	08:51:04.920	1200.499	7.502	7.502	27.507	937	0	1.0886	OK	11-12-2024	08:51:04.920	1200.499	37.578	OK
11-12-2024	08:51:05.017	1200.596	7.502	7.502	27.502	936	0	1.0890	OK	11-12-2024	08:51:05.017	1200.596	37.577	OK
11-12-2024	08:51:05.119	1200.698	7.502	7.502	27.502	936	0	1.0890	OK	11-12-2024	08:51:05.119	1200.698	37.577	OK
11-12-2024	08:51:05.220	1200.799	7.502	7.502	27.502	937	0	1.0890	OK	11-12-2024	08:51:05.220	1200.799	37.577	OK
11-12-2024	08:51:05.499	1201.078	7.503	7.503	27.511	937	0	1.0883	OK	11-12-2024	08:51:05.499	1201.078	37.578	OK
11-12-2024	08:51:05.772	1201.351	7.504	7.504	27.516	937	0	1.0880	OK	11-12-2024	08:51:05.772	1201.351	37.579	OK
11-12-2024	08:51:05.920	1201.499	7.502	7.502	27.509	937	0	1.0885	OK	11-12-2024	08:51:05.920	1201.499	37.577	OK
11-12-2024	08:51:06.021	1201.600	7.501	7.501	27.502	937	0	1.0890	OK	11-12-2024	08:51:06.021	1201.600	37.578	OK
11-12-2024	08:51:06.121	1201.700	7.502	7.502	27.503	936	0	1.0889	OK	11-12-2024	08:51:06.121	1201.700	37.578	OK
11-12-2024	08:51:06.220	1201.798	7.502	7.502	27.503	936	0	1.0889	OK	11-12-2024	08:51:06.220	1201.798	37.577	OK
11-12-2024	08:51:06.321	1201.900	7.502	7.502	27.506	936	0	1.0887	OK	11-12-2024	08:51:06.321	1201.900	37.577	OK
11-12-2024	08:51:06.501	1202.080	7.502	7.502	27.505	936	0	1.0888	OK	11-12-2024	08:51:06.501	1202.080	37.576	OK
11-12-2024	08:51:06.772	1202.351	7.503	7.503	27.510	937	0	1.0885	OK	11-12-2024	08:51:06.772	1202.351	37.577	OK
11-12-2024	08:51:06.922	1202.501	7.502	7.502	27.507	937	0	1.0887	OK	11-12-2024	08:51:06.922	1202.501	37.577	OK
11-12-2024	08:51:07.022	1202.601	7.502	7.502	27.502	937	0	1.0890	OK	11-12-2024	08:51:07.022	1202.601	37.576	OK
11-12-2024	08:51:07.122	1202.701	7.502	7.502	27.504	937	0	1.0889	OK	11-12-2024	08:51:07.122	1202.701	37.576	OK
11-12-2024	08:51:07.223	1202.801	7.501	7.501	27.497	936	0	1.0893	OK	11-12-2024	08:51:07.223	1202.801	37.578	OK
11-12-2024	08:51:07.324	1202.903	7.501	7.501	27.498	937	0	1.0893	OK	11-12-2024	08:51:07.324	1202.903	37.578	OK
11-12-2024	08:51:07.501	1203.080	7.501	7.501	27.502	937	0	1.0890	OK	11-12-2024	08:51:07.501	1203.080	37.577	OK
11-12-2024	08:51:07.757	1203.336	7.502	7.502	27.506	937	0	1.0887	OK	11-12-2024	08:51:07.757	1203.336	37.577	OK
11-12-2024	08:51:07.926	1203.505	7.502	7.502	27.507	937	0	1.0887	OK	11-12-2024	08:51:07.926	1203.505	37.577	OK
11-12-2024	08:51:08.026	1203.605	7.502	7.502	27.503	936	0	1.0889	OK	11-12-2024	08:51:08.026	1203.605	37.577	OK
11-12-2024	08:51:08.127	1203.706	7.502	7.502	27.503	937	0	1.0889	OK	11-12-2024	08:51:08.127	1203.706	37.577	OK
11-12-2024	08:51:08.228	1203.807	7.501	7.501	27.498	936	0	1.0893	OK	11-12-2024	08:51:08.228	1203.807	37.577	OK
11-12-2024	08:51:08.504	1204.083	7.502	7.502	27.504	937	0	1.0889	OK	11-12-2024	08:51:08.504	1204.083	37.577	OK
11-12-2024	08:51:08.760	1204.339	7.503	7.503	27.510	937	0	1.0885	OK	11-12-2024	08:51:08.760	1204.339	37.575	OK
11-12-2024	08:51:08.928	1204.507	7.502	7.502	27.504	937	0	1.0889	OK	11-12-2024	08:51:08.928	1204.507	37.575	OK
11-12-2024	08:51:09.029	1204.608	7.502	7.502	27.503	937	0	1.0889	OK	11-12-2024	08:51:09.029	1204.608	37.576	OK
11-12-2024	08:51:09.130	1204.709	7.502	7.502	27.505	937	0	1.0888	OK	11-12-2024	08:51:09.130	1204.709	37.576	OK
11-12-2024	08:51:09.230	1204.809	7.502	7.502	27.502	937	0	1.0890	OK	11-12-2024	08:51:09.230	1204.809	37.576	OK
11-12-2024	08:51:09.330	1204.909	7.502	7.502	27.502	937	0	1.0890	OK	11-12-2024	08:51:09.330	1204.909	37.576	OK
11-12-2024	08:51:09.503	1205.082	7.501	7.501	27.498	937	0	1.0893	OK	11-12-2024	08:51:09.503	1205.082	37.577	OK
11-12-2024	08:51:09.761	1205.340	7.502	7.502	27.506	937	0	1.0887	OK	11-12-2024	08:51:09.761	1205.340	37.577	OK
11-12-2024	08:51:09.930	1205.509	7.503	7.503	27.511	937	0	1.0884	OK	11-12-2024	08:51:09.930	1205.509	37.577	OK
11-12-2024	08:51:10.030	1205.609	7.501	7.501	27.500	936	0	1.0891	OK	11-12-2024	08:51:10.030	1205.609	37.577	OK
11-12-2024	08:51:10.130	1205.709	7.502	7.502	27.507	937	0	1.0887	OK	11-12-2024	08:51:10.130	1205.709	37.578	OK
11-12-2024	08:51:10.230	1205.809	7.501	7.501	27.502	937	0	1.0890	OK	11-12-2024	08:51:10.230	1205.809	37.578	OK
11-12-2024	08:51:10.330	1205.909	7.501	7.501	27.496	937	0	1.0894	OK	11-12-2024	08:51:10.330	1205.909	37.579	OK
11-12-2024	08:51:10.501	1206.080	7.501	7.501	27.502	937	0	1.0890	OK	11-12-2024	08:51:10.501	1206.080	37.578	OK
11-12-2024	08:51:10.757	1206.336	7.502	7.502	27.506	937	0	1.0887	OK	11-12-2024	08:51:10.757	1206.336	37.580	OK
11-12-2024	08:51:10.930	1206.509	7.502	7.502	27.507	937	0	1.0887	OK	11-12-2024	08:51:10.930	1206.509	37.580	OK
11-12-2024	08:51:11.030	1206.609	7.502	7.502	27.507	937	0	1.0886	OK	11-12-2024	08:51:11.030	1206.609	37.580	OK
11-12-2024	08:51:11.130	1206.709	7.501	7.501	27.499	937	0	1.0892	OK	11-12-2024	08:51:11.130	1206.709	37.581	OK
11-12-2024	08:51:11.230	1206.808	7.501	7.501	27.499	937	0	1.0892	OK	11-12-2024	08:51:11.230	1206.808	37.581	OK
11-12-2024	08:51:11.330	1206.909	7.501	7.501	27.497	937	0	1.0893	OK	11-12-2024	08:51:11.330	1206.909	37.580	OK
11-12-2024	08:51:11.504	1207.083	7.502	7.502	27.504	937	0	1.0888	OK	11-12-2024	08:51:11.504	1207.083	37.580	OK
11-12-2024	08:51:11.758	1207.337	7.503	7.503	27.512	937	0	1.0883	OK	11-12-2024	08:51:11.758	1207.337	37.581	OK
11-12-2024	08:51:11.931	1207.509	7.502	7.502	27.506	937	0	1.0887	OK	11-12-2024	08:51:11.931	1207.509	37.582	OK
11-12-2024	08:51:12.031	1207.610	7.502	7.502	27.504	937	0	1.0889	OK	11-12-2024	08:51:12.031	1207.610	37.582	OK
11-12-2024	08:51:12.132	1207.711	7.501	7.501	27.500	937	0	1.0891	OK	11-12-2024	08:51:12.132	1207.711	37.582	OK
11-12-2024	08:51:12.232	1207.811	7.501	7.501	27.500	937	0	1.0891	OK	11-12-2024	08:51:12.232	1207.811	37.582	OK
11-12-2024	08:51:12.331	1207.910	7.501	7.501	27.499	937	0	1.0892	OK	11-12-2024	08:51:12.331	1207.910	37.581	OK
11-12-2024	08:51:12.502	1208.080	7.501	7.501	27.498	937	0	1.0893	OK	11-12-2024	08:51:12.502	1208.080	37.581	OK
11-12-2024	08:51:12.771	1208.350	7.502	7.502	27.509	937	0	1.0885	OK	11-12-2024	08:51:12.771	1208.350	37.581	OK
11-12-2024	08:51:12.932	1208.511	7.502	7.502	27.507	937	0	1.0887	OK	11-12-2024	08:51:12.932	1208.511	37.581	OK
11-12-2024	08:51:13.032	1208.611	7.502	7.502	27.502	937	0	1.0890	OK	11-12-2024	08:51:13.032	1208.611	37.581	OK
11-12-2024	08:51:13.133	1208.712	7.501	7.501	27.501	937	0	1.0890	OK	11-12-2024	08:51:13.133	1208.712	37.581	OK
11-12-2024	08:51:13.234	1208.812	7.501	7.501	27.500	937	0	1.0891	OK	11-12-2024	08:51:13.234	1208.812	37.581	OK
11-12-2024	08:51:13.333	1208.912	7.502	7.502	27.502	937	0	1.0890	OK	11-12-2024	08:51:13.333	1208.912	37.581	OK
11-12-2024	08:51:13.504	1209.083	7.502	7.502	27.504	937	0	1.0888	OK	11-12-2024	08:51:13.504	1209.083	37.580	OK
11-12-2024	08:51:13.763	1209.342	7.502	7.502	27.506	937	0	1.0887	OK	11-12-2024	08:51:13.763	1209.342	37.581	OK
11-12-2024	08:51:13.936	1209.515	7.502	7.502	27.506	937	0	1.0887	OK	11-12-2024	08:51:13.936	1209.515	37.580	OK
11-12-2024	08:51:14.035	1209.614	7.502	7.502	27.502	937	0	1.0890	OK	11-12-2024	08:51:14.035	1209.614	37.580	OK
11-12-2024	08:51:14.137	1209.716	7.502	7.502	27.502	937	0	1.0890	OK	11-12-2024	08:51:14.137	1209.716	37.580	OK
11-12-2024	08:51:14.237	1209.816	7.501	7.501	27.500	937	0	1.0891	OK	11-12-2024	08:51:14.237	1209.816	37.580	OK
11-12-2024	08:51:14.337	1209.916	7.501	7.501	27.498	937	0	1.0892	OK	11-12-2024	08:51:14.337	1209.916	37.579	OK
11-12-2024	08:51:14.537	1210.116	7.502	7.502	27.506	937	0	1.0887	OK	11-12-2024	08:51:14.537	1210.116	37.580	OK
11-12-2024	08:51:14.796	1210.375	7.502	7.502	27.507	937	0	1.0886	OK	11-12-2024	08:51:14.796	1210.375	37.579	OK
11-12-2024	08:51:14.937	1210.516	7.501	7.501	27.501	937	0	1.0890	OK	11-12-2024	08:51:14.937	1210.516	37.579	OK
11-12-2024	08:51:15.036	1210.615	7.502	7.502	27.503	937	0	1.0889	OK	11-12-2024	08:51:15.036	1210.615	37.579	OK
11-12-2024	08:51:15.137	1210.716	7.501	7.501	27.501	937	0	1.0890	OK	11-12-2024	08:51:15.137	1210.716	37.578	OK
11-12-2024	08:51:15.237	1210.816	7.501	7.501	27.498	937	0	1.0892	OK	11-12-2024	08:51:15.237	1210.816	37.578	OK
11-12-2024	08:51:15.337	1210.916	7.501	7.501	27.497	937	0	1.0893	OK	11-12-2024	08:51:15.337	1210.916	37.578	OK
11-12-2024	08:51:15.537	1211.116	7.502	7.502	27.507	937	0	1.0886	OK	11-12-2024	08:51:15.537	1211.116	37.578	OK
11-12-2024	08:51:15.791	1211.370	7.503	7.503	27.511	937	0	1.0883	OK	11-12-2024	08:51:15.791	1211.370	37.577	OK
11-12-2024	08:51:15.936	1211.515	7.502	7.502	27.505	937	0	1.0888	OK	11-12-2024	08:51:15.936	1211.515	37.577	OK
11-12-2024	08:51:16.037	1211.616	7.502	7.502	27.503	937	0	1.0889	OK	11-12-2024	08:51:16.037	1211.616	37.577	OK
11-12-2024	08:51:16.137	1211.716	7.501	7.501	27.501	937	0	1.0890	OK	11-12-2024	08:51:16.137	1211.716	37.577	OK
11-12-2024	08:51:16.238	1211.817	7.501	7.501	27.499	937	0	1.0892	OK	11-12-2024	08:51:16.238	1211.817	37.577	OK
11-12-2024	08:51:16.505	1212.084	7.502	7.502	27.507	937	0	1.0886	OK	11-12-2024	08:51:16.505	1212.084	37.576	OK
11-12-2024	08:51:16.775	1212.354	7.502	7.502	27.508	937	0	1.0885	OK	11-12-2024	08:51:16.775	1212.354	37.575	OK
11-12-2024	08:51:16.937	1212.516	7.502	7.502	27.504	937	0	1.0888	OK	11-12-2024	08:51:16.937	1212.516	37.575	OK
11-12-2024	08:51:17.038	1212.617	7.502	7.502	27.502	937	0	1.0890	OK	11-12-2024	08:51:17.038	1212.617	37.575	OK
11-12-2024	08:51:17.252	1212.831	7.502	7.502	27.508	937	0	1.0885	OK	11-12-2024	08:51:17.252	1212.831	37.574	OK
11-12-2024	08:51:17.339	1212.918	7.502	7.502	27.503	937	0	1.0889	OK	11-12-2024	08:51:17.339	1212.918	37.574	OK
11-12-2024	08:51:17.508	1213.087	7.502	7.502	27.507	937	0	1.0886	OK	11-12-2024	08:51:17.508	1213.087	37.574	OK
11-12-2024	08:51:17.778	1213.357	7.503	7.503	27.510	937	0	1.0884	OK	11-12-2024	08:51:17.778	1213.357	37.575	OK
11-12-2024	08:51:17.940	1213.519	7.503	7.503	27.509	937	0	1.0885	OK	11-12-2024	08:51:17.940	1213.519	37.575	OK
11-12-2024	08:51:18.038	1213.617	7.502	7.502	27.502	937	0	1.0890	OK	11-12-2024	08:51:18.038	1213.617	37.577	OK
11-12-2024	08:51:18.140	1213.719	7.501	7.501	27.497	936	0	1.0893	OK	11-12-2024	08:51:18.140	1213.719	37.577	OK
11-12-2024	08:51:18.250	1213.829	7.501	7.501	27.499	937	0	1.0892	OK	11-12-2024	08:51:18.250	1213.829	37.577	OK
11-12-2024	08:51:18.340	1213.919	7.501	7.501	27.499	937	0	1.0892	OK	11-12-2024	08:51:18.340	1213.919	37.577	OK
11-12-2024	08:51:18.510	1214.089	7.501	7.501	27.501	937	0	1.0891	OK	11-12-2024	08:51:18.510	1214.089	37.578	OK
11-12-2024	08:51:18.765	1214.344	7.502	7.502	27.505	937	0	1.0888	OK	11-12-2024	08:51:18.765	1214.344	37.579	OK
11-12-2024	08:51:18.940	1214.518	7.502	7.502	27.508	937	0	1.0886	OK	11-12-2024	08:51:18.940	1214.518	37.579	OK
11-12-2024	08:51:19.039	1214.618	7.501	7.501	27.498	936	0	1.0893	OK	11-12-2024	08:51:19.039	1214.618	37.579	OK
11-12-2024	08:51:19.140	1214.719	7.501	7.501	27.500	937	0	1.0891	OK	11-12-2024	08:51:19.140	1214.719	37.579	OK
11-12-2024	08:51:19.250	1214.829	7.502	7.502	27.503	937	0	1.0889	OK	11-12-2024	08:51:19.250	1214.829	37.579	OK
11-12-2024	08:51:19.339	1214.918	7.501	7.501	27.500	937	0	1.0891	OK	11-12-2024	08:51:19.339	1214.918	37.579	OK
11-12-2024	08:51:19.512	1215.091	7.502	7.502	27.502	936	0	1.0890	OK	11-12-2024	08:51:19.512	1215.091	37.578	OK
11-12-2024	08:51:19.766	1215.345	7.502	7.502	27.507	937	0	1.0886	OK	11-12-2024	08:51:19.766	1215.345	37.579	OK
11-12-2024	08:51:19.940	1215.519	7.502	7.502	27.504	937	0	1.0888	OK	11-12-2024	08:51:19.940	1215.519	37.579	OK
11-12-2024	08:51:20.041	1215.620	7.502	7.502	27.505	937	0	1.0888	OK	11-12-2024	08:51:20.041	1215.620	37.580	OK
11-12-2024	08:51:20.142	1215.721	7.501	7.501	27.500	937	0	1.0891	OK	11-12-2024	08:51:20.142	1215.721	37.580	OK
11-12-2024	08:51:20.250	1215.829	7.501	7.501	27.501	937	0	1.0890	OK	11-12-2024	08:51:20.250	1215.829	37.579	OK
11-12-2024	08:51:20.342	1215.921	7.502	7.502	27.505	937	0	1.0888	OK	11-12-2024	08:51:20.342	1215.921	37.579	OK
11-12-2024	08:51:20.511	1216.090	7.502	7.502	27.504	937	0	1.0888	OK	11-12-2024	08:51:20.511	1216.090	37.579	OK
11-12-2024	08:51:20.782	1216.361	7.502	7.502	27.507	937	0	1.0886	OK	11-12-2024	08:51:20.782	1216.361	37.579	OK
11-12-2024	08:51:20.942	1216.521	7.503	7.503	27.509	937	0	1.0885	OK	11-12-2024	08:51:20.942	1216.521	37.580	OK
11-12-2024	08:51:21.041	1216.620	7.501	7.501	27.500	937	0	1.0891	OK	11-12-2024	08:51:21.041	1216.620	37.580	OK
11-12-2024	08:51:21.142	1216.721	7.502	7.502	27.506	937	0	1.0887	OK	11-12-2024	08:51:21.142	1216.721	37.580	OK
11-12-2024	08:51:21.250	1216.829	7.502	7.502	27.503	936	0	1.0889	OK	11-12-2024	08:51:21.250	1216.829	37.579	OK
11-12-2024	08:51:21.343	1216.922	7.502	7.502	27.502	937	0	1.0890	OK	11-12-2024	08:51:21.343	1216.922	37.579	OK
11-12-2024	08:51:21.515	1217.094	7.502	7.502	27.508	936	0	1.0885	OK	11-12-2024	08:51:21.515	1217.094	37.579	OK
11-12-2024	08:51:21.786	1217.365	7.503	7.503	27.509	936	0	1.0885	OK	11-12-2024	08:51:21.786	1217.365	37.579	OK
11-12-2024	08:51:21.943	1217.522	7.502	7.502	27.507	936	0	1.0886	OK	11-12-2024	08:51:21.943	1217.522	37.578	OK
11-12-2024	08:51:22.043	1217.622	7.502	7.502	27.504	936	0	1.0888	OK	11-12-2024	08:51:22.043	1217.622	37.578	OK
11-12-2024	08:51:22.143	1217.722	7.502	7.502	27.502	936	0	1.0890	OK	11-12-2024	08:51:22.143	1217.722	37.578	OK
11-12-2024	08:51:22.250	1217.829	7.502	7.502	27.504	936	0	1.0888	OK	11-12-2024	08:51:22.250	1217.829	37.578	OK
11-12-2024	08:51:22.342	1217.921	7.502	7.502	27.502	936	0	1.0890	OK	11-12-2024	08:51:22.342	1217.921	37.578	OK
11-12-2024	08:51:22.513	1218.092	7.502	7.502	27.503	936	0	1.0889	OK	11-12-2024	08:51:22.513	1218.092	37.579	OK
11-12-2024	08:51:22.768	1218.347	7.503	7.503	27.509	936	0	1.0885	OK	11-12-2024	08:51:22.768	1218.347	37.580	OK
11-12-2024	08:51:22.944	1218.523	7.503	7.503	27.510	936	0	1.0884	OK	11-12-2024	08:51:22.944	1218.523	37.580	OK
11-12-2024	08:51:23.044	1218.623	7.501	7.501	27.499	936	0	1.0892	OK	11-12-2024	08:51:23.044	1218.623	37.580	OK
11-12-2024	08:51:23.143	1218.722	7.502	7.502	27.504	936	0	1.0888	OK	11-12-2024	08:51:23.143	1218.722	37.580	OK
11-12-2024	08:51:23.252	1218.831	7.502	7.502	27.502	936	0	1.0890	OK	11-12-2024	08:51:23.252	1218.831	37.579	OK
11-12-2024	08:51:23.344	1218.923	7.501	7.501	27.499	936	0	1.0892	OK	11-12-2024	08:51:23.344	1218.923	37.579	OK
11-12-2024	08:51:23.512	1219.091	7.502	7.502	27.504	936	0	1.0888	OK	11-12-2024	08:51:23.512	1219.091	37.579	OK
11-12-2024	08:51:23.786	1219.365	7.503	7.503	27.511	936	0	1.0883	OK	11-12-2024	08:51:23.786	1219.365	37.579	OK
11-12-2024	08:51:23.943	1219.522	7.502	7.502	27.507	936	0	1.0886	OK	11-12-2024	08:51:23.943	1219.522	37.581	OK
11-12-2024	08:51:24.042	1219.621	7.502	7.502	27.504	936	0	1.0888	OK	11-12-2024	08:51:24.042	1219.621	37.580	OK
11-12-2024	08:51:24.144	1219.723	7.501	7.501	27.500	936	0	1.0891	OK	11-12-2024	08:51:24.144	1219.723	37.580	OK
11-12-2024	08:51:24.257	1219.835	7.501	7.501	27.501	936	0	1.0890	OK	11-12-2024	08:51:24.257	1219.835	37.580	OK
11-12-2024	08:51:24.343	1219.922	7.501	7.501	27.498	936	0	1.0892	OK	11-12-2024	08:51:24.343	1219.922	37.580	OK
11-12-2024	08:51:24.514	1220.093	7.502	7.502	27.502	936	0	1.0890	OK	11-12-2024	08:51:24.514	1220.093	37.580	OK
11-12-2024	08:51:24.770	1220.349	7.503	7.503	27.511	936	0	1.0883	OK	11-12-2024	08:51:24.770	1220.349	37.580	OK
11-12-2024	08:51:24.944	1220.523	7.503	7.503	27.511	936	0	1.0883	OK	11-12-2024	08:51:24.944	1220.523	37.580	OK
11-12-2024	08:51:25.045	1220.624	7.502	7.502	27.505	936	0	1.0888	OK	11-12-2024	08:51:25.045	1220.624	37.580	OK
11-12-2024	08:51:25.145	1220.724	7.502	7.502	27.503	936	0	1.0889	OK	11-12-2024	08:51:25.145	1220.724	37.580	OK
11-12-2024	08:51:25.251	1220.830	7.501	7.501	27.500	936	0	1.0891	OK	11-12-2024	08:51:25.251	1220.830	37.579	OK
11-12-2024	08:51:25.345	1220.924	7.502	7.502	27.502	936	0	1.0890	OK	11-12-2024	08:51:25.345	1220.924	37.579	OK
11-12-2024	08:51:25.516	1221.095	7.501	7.501	27.501	936	0	1.0890	OK	11-12-2024	08:51:25.516	1221.095	37.579	OK
11-12-2024	08:51:25.784	1221.363	7.503	7.503	27.511	936	0	1.0883	OK	11-12-2024	08:51:25.784	1221.363	37.578	OK
11-12-2024	08:51:25.946	1221.525	7.503	7.503	27.510	936	0	1.0884	OK	11-12-2024	08:51:25.946	1221.525	37.578	OK
11-12-2024	08:51:26.045	1221.624	7.502	7.502	27.503	936	0	1.0889	OK	11-12-2024	08:51:26.045	1221.624	37.578	OK
11-12-2024	08:51:26.146	1221.725	7.501	7.501	27.499	936	0	1.0892	OK	11-12-2024	08:51:26.146	1221.725	37.577	OK
11-12-2024	08:51:26.254	1221.833	7.501	7.501	27.500	936	0	1.0891	OK	11-12-2024	08:51:26.254	1221.833	37.577	OK
11-12-2024	08:51:26.506	1222.085	7.502	7.502	27.505	936	0	1.0888	OK	11-12-2024	08:51:26.506	1222.085	37.579	OK
11-12-2024	08:51:26.781	1222.360	7.503	7.503	27.512	936	0	1.0883	OK	11-12-2024	08:51:26.781	1222.360	37.579	OK
11-12-2024	08:51:26.946	1222.524	7.502	7.502	27.505	937	0	1.0888	OK	11-12-2024	08:51:26.946	1222.524	37.579	OK
11-12-2024	08:51:27.046	1222.625	7.501	7.501	27.501	936	0	1.0890	OK	11-12-2024	08:51:27.046	1222.625	37.579	OK
11-12-2024	08:51:27.148	1222.727	7.501	7.501	27.500	936	0	1.0891	OK	11-12-2024	08:51:27.148	1222.727	37.578	OK
11-12-2024	08:51:27.254	1222.833	7.501	7.501	27.498	937	0	1.0892	OK	11-12-2024	08:51:27.254	1222.833	37.578	OK
11-12-2024	08:51:27.349	1222.928	7.501	7.501	27.496	937	0	1.0894	OK	11-12-2024	08:51:27.349	1222.928	37.579	OK
11-12-2024	08:51:27.522	1223.101	7.501	7.501	27.500	936	0	1.0891	OK	11-12-2024	08:51:27.522	1223.101	37.578	OK
11-12-2024	08:51:27.781	1223.359	7.502	7.502	27.507	937	0	1.0886	OK	11-12-2024	08:51:27.781	1223.359	37.578	OK
11-12-2024	08:51:27.951	1223.530	7.502	7.502	27.506	937	0	1.0887	OK	11-12-2024	08:51:27.951	1223.530	37.577	OK
11-12-2024	08:51:28.053	1223.632	7.502	7.502	27.504	937	0	1.0888	OK	11-12-2024	08:51:28.053	1223.632	37.577	OK
11-12-2024	08:51:28.153	1223.732	7.502	7.502	27.502	936	0	1.0890	OK	11-12-2024	08:51:28.153	1223.732	37.577	OK
11-12-2024	08:51:28.255	1223.834	7.501	7.501	27.501	937	0	1.0890	OK	11-12-2024	08:51:28.255	1223.834	37.577	OK
11-12-2024	08:51:28.354	1223.932	7.501	7.501	27.501	937	0	1.0890	OK	11-12-2024	08:51:28.354	1223.932	37.577	OK
11-12-2024	08:51:28.524	1224.103	7.502	7.502	27.502	937	0	1.0890	OK	11-12-2024	08:51:28.524	1224.103	37.578	OK
11-12-2024	08:51:28.780	1224.359	7.502	7.502	27.508	937	0	1.0885	OK	11-12-2024	08:51:28.780	1224.359	37.578	OK
11-12-2024	08:51:28.954	1224.533	7.502	7.502	27.505	937	0	1.0888	OK	11-12-2024	08:51:28.954	1224.533	37.578	OK
11-12-2024	08:51:29.054	1224.632	7.502	7.502	27.502	937	0	1.0890	OK	11-12-2024	08:51:29.054	1224.632	37.578	OK
11-12-2024	08:51:29.154	1224.733	7.501	7.501	27.499	937	0	1.0892	OK	11-12-2024	08:51:29.154	1224.733	37.579	OK
11-12-2024	08:51:29.256	1224.835	7.501	7.501	27.501	936	0	1.0890	OK	11-12-2024	08:51:29.256	1224.835	37.579	OK
11-12-2024	08:51:29.354	1224.933	7.502	7.502	27.502	936	0	1.0890	OK	11-12-2024	08:51:29.354	1224.933	37.580	OK
11-12-2024	08:51:29.524	1225.103	7.501	7.501	27.499	937	0	1.0892	OK	11-12-2024	08:51:29.524	1225.103	37.578	OK
11-12-2024	08:51:29.778	1225.357	7.502	7.502	27.508	937	0	1.0885	OK	11-12-2024	08:51:29.778	1225.357	37.579	OK
11-12-2024	08:51:29.953	1225.532	7.502	7.502	27.507	937	0	1.0886	OK	11-12-2024	08:51:29.953	1225.532	37.578	OK
11-12-2024	08:51:30.054	1225.633	7.502	7.502	27.507	936	0	1.0886	OK	11-12-2024	08:51:30.054	1225.633	37.578	OK
11-12-2024	08:51:30.154	1225.733	7.502	7.502	27.502	936	0	1.0890	OK	11-12-2024	08:51:30.154	1225.733	37.578	OK
11-12-2024	08:51:30.258	1225.837	7.501	7.501	27.499	936	0	1.0892	OK	11-12-2024	08:51:30.258	1225.837	37.578	OK
11-12-2024	08:51:30.355	1225.934	7.501	7.501	27.500	937	0	1.0890	OK	11-12-2024	08:51:30.355	1225.934	37.578	OK
11-12-2024	08:51:30.525	1226.103	7.502	7.502	27.503	937	0	1.0888	OK	11-12-2024	08:51:30.525	1226.103	37.578	OK
11-12-2024	08:51:30.799	1226.378	7.502	7.502	27.507	937	0	1.0886	OK	11-12-2024	08:51:30.799	1226.378	37.579	OK
11-12-2024	08:51:30.956	1226.535	7.502	7.502	27.502	937	0	1.0889	OK	11-12-2024	08:51:30.956	1226.535	37.579	OK
11-12-2024	08:51:31.054	1226.633	7.501	7.501	27.497	937	0	1.0893	OK	11-12-2024	08:51:31.054	1226.633	37.579	OK
11-12-2024	08:51:31.156	1226.735	7.501	7.501	27.498	937	0	1.0892	OK	11-12-2024	08:51:31.156	1226.735	37.579	OK
11-12-2024	08:51:31.257	1226.836	7.501	7.501	27.499	937	0	1.0891	OK	11-12-2024	08:51:31.257	1226.836	37.579	OK
11-12-2024	08:51:31.355	1226.934	7.501	7.501	27.500	937	0	1.0891	OK	11-12-2024	08:51:31.355	1226.934	37.579	OK
11-12-2024	08:51:31.528	1227.107	7.502	7.502	27.502	937	0	1.0890	OK	11-12-2024	08:51:31.528	1227.107	37.579	OK
11-12-2024	08:51:31.780	1227.359	7.501	7.501	27.500	937	0	1.0891	OK	11-12-2024	08:51:31.780	1227.359	37.578	OK
11-12-2024	08:51:31.956	1227.535	7.502	7.502	27.505	937	0	1.0888	OK	11-12-2024	08:51:31.956	1227.535	37.577	OK
11-12-2024	08:51:32.057	1227.636	7.501	7.501	27.501	937	0	1.0890	OK	11-12-2024	08:51:32.057	1227.636	37.577	OK
11-12-2024	08:51:32.157	1227.736	7.502	7.502	27.502	937	0	1.0890	OK	11-12-2024	08:51:32.157	1227.736	37.577	OK
11-12-2024	08:51:32.257	1227.836	7.501	7.501	27.500	937	0	1.0891	OK	11-12-2024	08:51:32.257	1227.836	37.577	OK
11-12-2024	08:51:32.357	1227.936	7.502	7.502	27.502	937	0	1.0889	OK	11-12-2024	08:51:32.357	1227.936	37.576	OK
11-12-2024	08:51:32.528	1228.107	7.502	7.502	27.504	937	0	1.0888	OK	11-12-2024	08:51:32.528	1228.107	37.576	OK
11-12-2024	08:51:32.783	1228.362	7.503	7.503	27.508	937	0	1.0885	OK	11-12-2024	08:51:32.783	1228.362	37.575	OK
11-12-2024	08:51:32.958	1228.537	7.503	7.503	27.510	937	0	1.0884	OK	11-12-2024	08:51:32.958	1228.537	37.575	OK
11-12-2024	08:51:33.057	1228.636	7.502	7.502	27.504	937	0	1.0888	OK	11-12-2024	08:51:33.057	1228.636	37.575	OK
11-12-2024	08:51:33.158	1228.737	7.501	7.501	27.500	937	0	1.0890	OK	11-12-2024	08:51:33.158	1228.737	37.575	OK
11-12-2024	08:51:33.259	1228.838	7.502	7.502	27.503	937	0	1.0888	OK	11-12-2024	08:51:33.259	1228.838	37.576	OK
11-12-2024	08:51:33.357	1228.936	7.501	7.501	27.500	937	0	1.0890	OK	11-12-2024	08:51:33.357	1228.936	37.576	OK
11-12-2024	08:51:33.532	1229.111	7.502	7.502	27.503	936	0	1.0888	OK	11-12-2024	08:51:33.532	1229.111	37.575	OK
11-12-2024	08:51:33.789	1229.368	7.502	7.502	27.506	937	0	1.0886	OK	11-12-2024	08:51:33.789	1229.368	37.574	OK
11-12-2024	08:51:33.959	1229.538	7.502	7.502	27.503	937	0	1.0888	OK	11-12-2024	08:51:33.959	1229.538	37.574	OK
11-12-2024	08:51:34.057	1229.636	7.502	7.502	27.503	937	0	1.0888	OK	11-12-2024	08:51:34.057	1229.636	37.573	OK
11-12-2024	08:51:34.159	1229.738	7.501	7.501	27.498	936	0	1.0892	OK	11-12-2024	08:51:34.159	1229.738	37.573	OK
11-12-2024	08:51:34.259	1229.838	7.501	7.501	27.499	937	0	1.0891	OK	11-12-2024	08:51:34.259	1229.838	37.573	OK
11-12-2024	08:51:34.359	1229.938	7.501	7.501	27.497	937	0	1.0893	OK	11-12-2024	08:51:34.359	1229.938	37.573	OK
11-12-2024	08:51:34.527	1230.106	7.502	7.502	27.502	937	0	1.0889	OK	11-12-2024	08:51:34.527	1230.106	37.573	OK
11-12-2024	08:51:34.782	1230.361	7.502	7.502	27.506	937	0	1.0886	OK	11-12-2024	08:51:34.782	1230.361	37.573	OK
11-12-2024	08:51:34.959	1230.538	7.502	7.502	27.507	937	0	1.0886	OK	11-12-2024	08:51:34.959	1230.538	37.573	OK
11-12-2024	08:51:35.059	1230.638	7.502	7.502	27.503	937	0	1.0888	OK	11-12-2024	08:51:35.059	1230.638	37.573	OK
11-12-2024	08:51:35.159	1230.738	7.502	7.502	27.502	937	0	1.0889	OK	11-12-2024	08:51:35.159	1230.738	37.573	OK
11-12-2024	08:51:35.259	1230.838	7.502	7.502	27.504	937	0	1.0888	OK	11-12-2024	08:51:35.259	1230.838	37.573	OK
11-12-2024	08:51:35.359	1230.938	7.501	7.501	27.498	937	0	1.0892	OK	11-12-2024	08:51:35.359	1230.938	37.573	OK
11-12-2024	08:51:35.529	1231.108	7.502	7.502	27.505	937	0	1.0887	OK	11-12-2024	08:51:35.529	1231.108	37.574	OK
11-12-2024	08:51:35.782	1231.361	7.503	7.503	27.508	937	0	1.0885	OK	11-12-2024	08:51:35.782	1231.361	37.575	OK
11-12-2024	08:51:35.959	1231.538	7.502	7.502	27.506	937	0	1.0886	OK	11-12-2024	08:51:35.959	1231.538	37.575	OK
11-12-2024	08:51:36.058	1231.637	7.502	7.502	27.503	937	0	1.0888	OK	11-12-2024	08:51:36.058	1231.637	37.574	OK
11-12-2024	08:51:36.159	1231.737	7.501	7.501	27.500	937	0	1.0890	OK	11-12-2024	08:51:36.159	1231.737	37.574	OK
11-12-2024	08:51:36.258	1231.837	7.501	7.501	27.500	937	0	1.0890	OK	11-12-2024	08:51:36.258	1231.837	37.573	OK
11-12-2024	08:51:36.358	1231.937	7.501	7.501	27.497	937	0	1.0893	OK	11-12-2024	08:51:36.358	1231.937	37.573	OK
11-12-2024	08:51:36.528	1232.107	7.502	7.502	27.503	936	0	1.0888	OK	11-12-2024	08:51:36.528	1232.107	37.574	OK
11-12-2024	08:51:36.785	1232.364	7.503	7.503	27.509	937	0	1.0884	OK	11-12-2024	08:51:36.785	1232.364	37.574	OK
11-12-2024	08:51:36.958	1232.537	7.502	7.502	27.505	936	0	1.0887	OK	11-12-2024	08:51:36.958	1232.537	37.574	OK
11-12-2024	08:51:37.059	1232.638	7.502	7.502	27.505	936	0	1.0887	OK	11-12-2024	08:51:37.059	1232.638	37.575	OK
11-12-2024	08:51:37.160	1232.739	7.501	7.501	27.499	937	0	1.0891	OK	11-12-2024	08:51:37.160	1232.739	37.575	OK
11-12-2024	08:51:37.259	1232.838	7.502	7.502	27.501	936	0	1.0890	OK	11-12-2024	08:51:37.259	1232.838	37.575	OK
11-12-2024	08:51:37.360	1232.938	7.501	7.501	27.498	937	0	1.0892	OK	11-12-2024	08:51:37.360	1232.938	37.575	OK
11-12-2024	08:51:37.531	1233.110	7.501	7.501	27.500	937	0	1.0890	OK	11-12-2024	08:51:37.531	1233.110	37.575	OK
11-12-2024	08:51:37.802	1233.381	7.503	7.503	27.508	937	0	1.0885	OK	11-12-2024	08:51:37.802	1233.381	37.575	OK
11-12-2024	08:51:37.960	1233.539	7.503	7.503	27.509	937	0	1.0884	OK	11-12-2024	08:51:37.960	1233.539	37.575	OK
11-12-2024	08:51:38.058	1233.637	7.501	7.501	27.499	937	0	1.0891	OK	11-12-2024	08:51:38.058	1233.637	37.575	OK
11-12-2024	08:51:38.160	1233.739	7.501	7.501	27.500	937	0	1.0890	OK	11-12-2024	08:51:38.160	1233.739	37.575	OK
11-12-2024	08:51:38.259	1233.838	7.501	7.501	27.500	936	0	1.0890	OK	11-12-2024	08:51:38.259	1233.838	37.576	OK
11-12-2024	08:51:38.358	1233.937	7.502	7.502	27.503	937	0	1.0888	OK	11-12-2024	08:51:38.358	1233.937	37.576	OK
11-12-2024	08:51:38.530	1234.109	7.502	7.502	27.506	937	0	1.0886	OK	11-12-2024	08:51:38.530	1234.109	37.576	OK
11-12-2024	08:51:38.784	1234.363	7.503	7.503	27.508	937	0	1.0885	OK	11-12-2024	08:51:38.784	1234.363	37.576	OK
11-12-2024	08:51:38.962	1234.541	7.502	7.502	27.507	937	0	1.0886	OK	11-12-2024	08:51:38.962	1234.541	37.575	OK
11-12-2024	08:51:39.062	1234.641	7.502	7.502	27.503	936	0	1.0888	OK	11-12-2024	08:51:39.062	1234.641	37.575	OK
11-12-2024	08:51:39.163	1234.742	7.502	7.502	27.502	937	0	1.0889	OK	11-12-2024	08:51:39.163	1234.742	37.575	OK
11-12-2024	08:51:39.262	1234.841	7.502	7.502	27.504	937	0	1.0888	OK	11-12-2024	08:51:39.262	1234.841	37.576	OK
11-12-2024	08:51:39.362	1234.941	7.502	7.502	27.501	937	0	1.0890	OK	11-12-2024	08:51:39.362	1234.941	37.576	OK
11-12-2024	08:51:39.536	1235.115	7.502	7.502	27.504	937	0	1.0888	OK	11-12-2024	08:51:39.536	1235.115	37.577	OK
11-12-2024	08:51:39.806	1235.385	7.502	7.502	27.507	937	0	1.0886	OK	11-12-2024	08:51:39.806	1235.385	37.576	OK
11-12-2024	08:51:39.964	1235.543	7.502	7.502	27.501	936	0	1.0890	OK	11-12-2024	08:51:39.964	1235.543	37.576	OK
11-12-2024	08:51:40.064	1235.643	7.501	7.501	27.498	936	0	1.0892	OK	11-12-2024	08:51:40.064	1235.643	37.576	OK
11-12-2024	08:51:40.165	1235.744	7.502	7.502	27.503	936	0	1.0888	OK	11-12-2024	08:51:40.165	1235.744	37.576	OK
11-12-2024	08:51:40.266	1235.845	7.501	7.501	27.500	936	0	1.0890	OK	11-12-2024	08:51:40.266	1235.845	37.575	OK
11-12-2024	08:51:40.365	1235.944	7.501	7.501	27.498	937	0	1.0892	OK	11-12-2024	08:51:40.365	1235.944	37.575	OK
11-12-2024	08:51:40.536	1236.115	7.502	7.502	27.506	936	0	1.0886	OK	11-12-2024	08:51:40.536	1236.115	37.575	OK
11-12-2024	08:51:40.807	1236.386	7.503	7.503	27.508	937	0	1.0885	OK	11-12-2024	08:51:40.807	1236.386	37.576	OK
11-12-2024	08:51:40.966	1236.545	7.501	7.501	27.498	937	0	1.0892	OK	11-12-2024	08:51:40.966	1236.545	37.575	OK
11-12-2024	08:51:41.066	1236.645	7.501	7.501	27.500	937	0	1.0890	OK	11-12-2024	08:51:41.066	1236.645	37.575	OK
11-12-2024	08:51:41.168	1236.747	7.502	7.502	27.501	936	0	1.0890	OK	11-12-2024	08:51:41.168	1236.747	37.576	OK
11-12-2024	08:51:41.273	1236.852	7.502	7.502	27.503	937	0	1.0888	OK	11-12-2024	08:51:41.273	1236.852	37.576	OK
11-12-2024	08:51:41.368	1236.947	7.501	7.501	27.500	937	0	1.0890	OK	11-12-2024	08:51:41.368	1236.947	37.575	OK
11-12-2024	08:51:41.538	1237.117	7.502	7.502	27.505	937	0	1.0887	OK	11-12-2024	08:51:41.538	1237.117	37.575	OK
11-12-2024	08:51:41.811	1237.390	7.503	7.503	27.508	937	0	1.0885	OK	11-12-2024	08:51:41.811	1237.390	37.576	OK
11-12-2024	08:51:41.969	1237.548	7.502	7.502	27.505	937	0	1.0887	OK	11-12-2024	08:51:41.969	1237.548	37.576	OK
11-12-2024	08:51:42.069	1237.648	7.502	7.502	27.501	936	0	1.0890	OK	11-12-2024	08:51:42.069	1237.648	37.576	OK
11-12-2024	08:51:42.168	1237.747	7.502	7.502	27.504	936	0	1.0888	OK	11-12-2024	08:51:42.168	1237.747	37.575	OK
11-12-2024	08:51:42.268	1237.847	7.502	7.502	27.502	936	0	1.0889	OK	11-12-2024	08:51:42.268	1237.847	37.575	OK
11-12-2024	08:51:42.369	1237.948	7.501	7.501	27.498	937	0	1.0892	OK	11-12-2024	08:51:42.369	1237.948	37.575	OK
11-12-2024	08:51:42.539	1238.118	7.502	7.502	27.503	936	0	1.0888	OK	11-12-2024	08:51:42.539	1238.118	37.575	OK
11-12-2024	08:51:42.797	1238.376	7.503	7.503	27.511	937	0	1.0883	OK	11-12-2024	08:51:42.797	1238.376	37.575	OK
11-12-2024	08:51:42.970	1238.549	7.502	7.502	27.504	937	0	1.0888	OK	11-12-2024	08:51:42.970	1238.549	37.575	OK
11-12-2024	08:51:43.075	1238.654	7.502	7.502	27.506	936	0	1.0886	OK	11-12-2024	08:51:43.075	1238.654	37.575	OK
11-12-2024	08:51:43.175	1238.754	7.501	7.501	27.498	937	0	1.0892	OK	11-12-2024	08:51:43.175	1238.754	37.574	OK
11-12-2024	08:51:43.275	1238.854	7.502	7.502	27.504	937	0	1.0888	OK	11-12-2024	08:51:43.275	1238.854	37.574	OK
11-12-2024	08:51:43.374	1238.953	7.502	7.502	27.505	937	0	1.0887	OK	11-12-2024	08:51:43.374	1238.953	37.574	OK
11-12-2024	08:51:43.547	1239.125	7.502	7.502	27.502	937	0	1.0889	OK	11-12-2024	08:51:43.547	1239.125	37.575	OK
11-12-2024	08:51:43.805	1239.384	7.503	7.503	27.510	937	0	1.0884	OK	11-12-2024	08:51:43.805	1239.384	37.574	OK
11-12-2024	08:51:43.975	1239.554	7.503	7.503	27.509	936	0	1.0884	OK	11-12-2024	08:51:43.975	1239.554	37.574	OK
11-12-2024	08:51:44.075	1239.654	7.502	7.502	27.506	937	0	1.0886	OK	11-12-2024	08:51:44.075	1239.654	37.574	OK
11-12-2024	08:51:44.177	1239.756	7.501	7.501	27.499	936	0	1.0891	OK	11-12-2024	08:51:44.177	1239.756	37.573	OK
11-12-2024	08:51:44.276	1239.855	7.501	7.501	27.498	937	0	1.0892	OK	11-12-2024	08:51:44.276	1239.855	37.573	OK
11-12-2024	08:51:44.377	1239.956	7.501	7.501	27.499	936	0	1.0891	OK	11-12-2024	08:51:44.377	1239.956	37.573	OK
11-12-2024	08:51:44.748	1240.327	7.503	7.503	27.512	936	0	1.0882	OK	11-12-2024	08:51:44.748	1240.327	37.573	OK
11-12-2024	08:51:44.878	1240.457	7.502	7.502	27.504	937	0	1.0888	OK	11-12-2024	08:51:44.878	1240.457	37.573	OK
11-12-2024	08:51:44.977	1240.556	7.501	7.501	27.499	937	0	1.0891	OK	11-12-2024	08:51:44.977	1240.556	37.572	OK
11-12-2024	08:51:45.078	1240.657	7.501	7.501	27.496	937	0	1.0893	OK	11-12-2024	08:51:45.078	1240.657	37.572	OK
11-12-2024	08:51:45.179	1240.758	7.501	7.501	27.496	937	0	1.0893	OK	11-12-2024	08:51:45.179	1240.758	37.572	OK
11-12-2024	08:51:45.279	1240.858	7.501	7.501	27.497	936	0	1.0893	OK	11-12-2024	08:51:45.279	1240.858	37.572	OK
11-12-2024	08:51:45.378	1240.957	7.501	7.501	27.496	937	0	1.0893	OK	11-12-2024	08:51:45.378	1240.957	37.572	OK
11-12-2024	08:51:45.550	1241.128	7.501	7.501	27.497	937	0	1.0893	OK	11-12-2024	08:51:45.550	1241.128	37.572	OK
11-12-2024	08:51:45.805	1241.384	7.502	7.502	27.502	937	0	1.0889	OK	11-12-2024	08:51:45.805	1241.384	37.571	OK
11-12-2024	08:51:45.980	1241.559	7.502	7.502	27.505	937	0	1.0887	OK	11-12-2024	08:51:45.980	1241.559	37.571	OK
11-12-2024	08:51:46.080	1241.659	7.502	7.502	27.504	937	0	1.0888	OK	11-12-2024	08:51:46.080	1241.659	37.571	OK
11-12-2024	08:51:46.181	1241.760	7.502	7.502	27.503	937	0	1.0888	OK	11-12-2024	08:51:46.181	1241.760	37.572	OK
11-12-2024	08:51:46.281	1241.860	7.501	7.501	27.498	937	0	1.0892	OK	11-12-2024	08:51:46.281	1241.860	37.572	OK
11-12-2024	08:51:46.381	1241.960	7.501	7.501	27.498	937	0	1.0892	OK	11-12-2024	08:51:46.381	1241.960	37.573	OK
11-12-2024	08:51:46.551	1242.130	7.502	7.502	27.501	937	0	1.0890	OK	11-12-2024	08:51:46.551	1242.130	37.572	OK
11-12-2024	08:51:46.824	1242.403	7.502	7.502	27.504	937	0	1.0887	OK	11-12-2024	08:51:46.824	1242.403	37.572	OK
11-12-2024	08:51:46.980	1242.559	7.503	7.503	27.507	937	0	1.0885	OK	11-12-2024	08:51:46.980	1242.559	37.573	OK
11-12-2024	08:51:47.082	1242.661	7.502	7.502	27.506	937	0	1.0886	OK	11-12-2024	08:51:47.082	1242.661	37.573	OK
11-12-2024	08:51:47.182	1242.761	7.501	7.501	27.498	937	0	1.0891	OK	11-12-2024	08:51:47.182	1242.761	37.574	OK
11-12-2024	08:51:47.282	1242.861	7.502	7.502	27.505	937	0	1.0887	OK	11-12-2024	08:51:47.282	1242.861	37.574	OK
11-12-2024	08:51:47.381	1242.960	7.501	7.501	27.498	937	0	1.0891	OK	11-12-2024	08:51:47.381	1242.960	37.574	OK
11-12-2024	08:51:47.554	1243.132	7.502	7.502	27.503	937	0	1.0888	OK	11-12-2024	08:51:47.554	1243.132	37.574	OK
11-12-2024	08:51:47.810	1243.389	7.502	7.502	27.505	937	0	1.0887	OK	11-12-2024	08:51:47.810	1243.389	37.574	OK
11-12-2024	08:51:47.982	1243.561	7.502	7.502	27.506	937	0	1.0886	OK	11-12-2024	08:51:47.982	1243.561	37.573	OK
11-12-2024	08:51:48.080	1243.659	7.502	7.502	27.504	937	0	1.0888	OK	11-12-2024	08:51:48.080	1243.659	37.573	OK
11-12-2024	08:51:48.181	1243.760	7.502	7.502	27.506	937	0	1.0886	OK	11-12-2024	08:51:48.181	1243.760	37.573	OK
11-12-2024	08:51:48.281	1243.860	7.502	7.502	27.504	936	0	1.0888	OK	11-12-2024	08:51:48.281	1243.860	37.573	OK
11-12-2024	08:51:48.382	1243.961	7.501	7.501	27.494	936	0	1.0895	OK	11-12-2024	08:51:48.382	1243.961	37.573	OK
11-12-2024	08:51:48.552	1244.131	7.502	7.502	27.503	936	0	1.0888	OK	11-12-2024	08:51:48.552	1244.131	37.573	OK
11-12-2024	08:51:48.809	1244.388	7.502	7.502	27.506	937	0	1.0886	OK	11-12-2024	08:51:48.809	1244.388	37.574	OK
11-12-2024	08:51:48.982	1244.561	7.502	7.502	27.503	937	0	1.0888	OK	11-12-2024	08:51:48.982	1244.561	37.574	OK
11-12-2024	08:51:49.082	1244.661	7.502	7.502	27.504	937	0	1.0887	OK	11-12-2024	08:51:49.082	1244.661	37.574	OK
11-12-2024	08:51:49.182	1244.761	7.502	7.502	27.500	937	0	1.0890	OK	11-12-2024	08:51:49.182	1244.761	37.574	OK
11-12-2024	08:51:49.282	1244.861	7.501	7.501	27.499	937	0	1.0891	OK	11-12-2024	08:51:49.282	1244.861	37.573	OK
11-12-2024	08:51:49.385	1244.964	7.501	7.501	27.499	937	0	1.0891	OK	11-12-2024	08:51:49.385	1244.964	37.573	OK
11-12-2024	08:51:49.554	1245.133	7.502	7.502	27.503	937	0	1.0888	OK	11-12-2024	08:51:49.554	1245.133	37.573	OK
11-12-2024	08:51:49.811	1245.390	7.502	7.502	27.505	937	0	1.0887	OK	11-12-2024	08:51:49.811	1245.390	37.574	OK
11-12-2024	08:51:49.981	1245.560	7.502	7.502	27.507	937	0	1.0886	OK	11-12-2024	08:51:49.981	1245.560	37.574	OK
11-12-2024	08:51:50.082	1245.661	7.502	7.502	27.501	937	0	1.0890	OK	11-12-2024	08:51:50.082	1245.661	37.575	OK
11-12-2024	08:51:50.183	1245.762	7.502	7.502	27.501	937	0	1.0890	OK	11-12-2024	08:51:50.183	1245.762	37.575	OK
11-12-2024	08:51:50.282	1245.861	7.501	7.501	27.500	937	0	1.0890	OK	11-12-2024	08:51:50.282	1245.861	37.574	OK
11-12-2024	08:51:50.382	1245.961	7.501	7.501	27.497	936	0	1.0893	OK	11-12-2024	08:51:50.382	1245.961	37.574	OK
11-12-2024	08:51:50.554	1246.133	7.502	7.502	27.502	937	0	1.0889	OK	11-12-2024	08:51:50.554	1246.133	37.574	OK
11-12-2024	08:51:50.824	1246.403	7.502	7.502	27.507	937	0	1.0886	OK	11-12-2024	08:51:50.824	1246.403	37.575	OK
11-12-2024	08:51:50.982	1246.561	7.502	7.502	27.506	937	0	1.0886	OK	11-12-2024	08:51:50.982	1246.561	37.575	OK
11-12-2024	08:51:51.082	1246.661	7.501	7.501	27.500	936	0	1.0890	OK	11-12-2024	08:51:51.082	1246.661	37.575	OK
11-12-2024	08:51:51.183	1246.762	7.501	7.501	27.497	936	0	1.0893	OK	11-12-2024	08:51:51.183	1246.762	37.575	OK
11-12-2024	08:51:51.284	1246.863	7.502	7.502	27.503	936	0	1.0888	OK	11-12-2024	08:51:51.284	1246.863	37.576	OK
11-12-2024	08:51:51.386	1246.965	7.502	7.502	27.501	936	0	1.0890	OK	11-12-2024	08:51:51.386	1246.965	37.576	OK
11-12-2024	08:51:51.553	1247.132	7.502	7.502	27.505	937	0	1.0887	OK	11-12-2024	08:51:51.553	1247.132	37.576	OK
11-12-2024	08:51:51.823	1247.402	7.502	7.502	27.506	937	0	1.0886	OK	11-12-2024	08:51:51.823	1247.402	37.578	OK
11-12-2024	08:51:51.987	1247.566	7.502	7.502	27.502	937	0	1.0889	OK	11-12-2024	08:51:51.987	1247.566	37.578	OK
11-12-2024	08:51:52.087	1247.666	7.502	7.502	27.504	936	0	1.0887	OK	11-12-2024	08:51:52.087	1247.666	37.578	OK
11-12-2024	08:51:52.186	1247.765	7.502	7.502	27.501	937	0	1.0889	OK	11-12-2024	08:51:52.186	1247.765	37.578	OK
11-12-2024	08:51:52.287	1247.866	7.502	7.502	27.502	937	0	1.0889	OK	11-12-2024	08:51:52.287	1247.866	37.578	OK
11-12-2024	08:51:52.388	1247.966	7.501	7.501	27.500	936	0	1.0890	OK	11-12-2024	08:51:52.388	1247.966	37.578	OK
11-12-2024	08:51:52.571	1248.150	7.502	7.502	27.505	937	0	1.0887	OK	11-12-2024	08:51:52.571	1248.150	37.578	OK
11-12-2024	08:51:52.826	1248.405	7.502	7.502	27.507	937	0	1.0886	OK	11-12-2024	08:51:52.826	1248.405	37.578	OK
11-12-2024	08:51:52.993	1248.572	7.503	7.503	27.508	937	0	1.0885	OK	11-12-2024	08:51:52.993	1248.572	37.578	OK
11-12-2024	08:51:53.092	1248.671	7.502	7.502	27.504	937	0	1.0888	OK	11-12-2024	08:51:53.092	1248.671	37.579	OK
11-12-2024	08:51:53.193	1248.772	7.501	7.501	27.499	937	0	1.0891	OK	11-12-2024	08:51:53.193	1248.772	37.579	OK
11-12-2024	08:51:53.293	1248.872	7.502	7.502	27.506	937	0	1.0886	OK	11-12-2024	08:51:53.293	1248.872	37.578	OK
11-12-2024	08:51:53.393	1248.972	7.501	7.501	27.497	936	0	1.0893	OK	11-12-2024	08:51:53.393	1248.972	37.578	OK
11-12-2024	08:51:53.559	1249.138	7.502	7.502	27.504	937	0	1.0888	OK	11-12-2024	08:51:53.559	1249.138	37.578	OK
11-12-2024	08:51:53.831	1249.410	7.502	7.502	27.506	936	0	1.0886	OK	11-12-2024	08:51:53.831	1249.410	37.577	OK
11-12-2024	08:51:53.998	1249.577	7.502	7.502	27.504	937	0	1.0887	OK	11-12-2024	08:51:53.998	1249.577	37.577	OK
11-12-2024	08:51:54.098	1249.677	7.502	7.502	27.503	937	0	1.0888	OK	11-12-2024	08:51:54.098	1249.677	37.577	OK
11-12-2024	08:51:54.198	1249.777	7.502	7.502	27.502	937	0	1.0889	OK	11-12-2024	08:51:54.198	1249.777	37.577	OK
11-12-2024	08:51:54.299	1249.878	7.502	7.502	27.500	937	0	1.0890	OK	11-12-2024	08:51:54.299	1249.878	37.576	OK
11-12-2024	08:51:54.398	1249.977	7.502	7.502	27.501	936	0	1.0889	OK	11-12-2024	08:51:54.398	1249.977	37.576	OK
11-12-2024	08:51:54.570	1250.148	7.502	7.502	27.502	937	0	1.0889	OK	11-12-2024	08:51:54.570	1250.148	37.576	OK
11-12-2024	08:51:54.827	1250.406	7.503	7.503	27.507	937	0	1.0885	OK	11-12-2024	08:51:54.827	1250.406	37.575	OK
11-12-2024	08:51:54.998	1250.577	7.503	7.503	27.509	937	0	1.0884	OK	11-12-2024	08:51:54.998	1250.577	37.575	OK
11-12-2024	08:51:55.099	1250.678	7.501	7.501	27.499	937	0	1.0891	OK	11-12-2024	08:51:55.099	1250.678	37.574	OK
11-12-2024	08:51:55.199	1250.778	7.503	7.503	27.507	937	0	1.0885	OK	11-12-2024	08:51:55.199	1250.778	37.574	OK
11-12-2024	08:51:55.300	1250.879	7.502	7.502	27.501	936	0	1.0889	OK	11-12-2024	08:51:55.300	1250.879	37.573	OK
11-12-2024	08:51:55.399	1250.978	7.502	7.502	27.501	936	0	1.0889	OK	11-12-2024	08:51:55.399	1250.978	37.573	OK
11-12-2024	08:51:55.569	1251.148	7.502	7.502	27.502	937	0	1.0889	OK	11-12-2024	08:51:55.569	1251.148	37.573	OK
11-12-2024	08:51:55.824	1251.403	7.502	7.502	27.503	937	0	1.0887	OK	11-12-2024	08:51:55.824	1251.403	37.574	OK
11-12-2024	08:51:56.001	1251.580	7.503	7.503	27.508	937	0	1.0884	OK	11-12-2024	08:51:56.001	1251.580	37.574	OK
11-12-2024	08:51:56.100	1251.679	7.503	7.503	27.506	937	0	1.0885	OK	11-12-2024	08:51:56.100	1251.679	37.575	OK
11-12-2024	08:51:56.201	1251.780	7.502	7.502	27.503	937	0	1.0887	OK	11-12-2024	08:51:56.201	1251.780	37.575	OK
11-12-2024	08:51:56.302	1251.881	7.502	7.502	27.503	936	0	1.0887	OK	11-12-2024	08:51:56.302	1251.881	37.574	OK
11-12-2024	08:51:56.403	1251.982	7.502	7.502	27.502	936	0	1.0888	OK	11-12-2024	08:51:56.403	1251.982	37.574	OK
11-12-2024	08:51:56.760	1252.339	7.503	7.503	27.506	937	0	1.0885	OK	11-12-2024	08:51:56.760	1252.339	37.575	OK
11-12-2024	08:51:56.904	1252.482	7.503	7.503	27.509	937	0	1.0883	OK	11-12-2024	08:51:56.904	1252.482	37.575	OK
11-12-2024	08:51:57.004	1252.583	7.503	7.503	27.507	936	0	1.0885	OK	11-12-2024	08:51:57.004	1252.583	37.575	OK
11-12-2024	08:51:57.103	1252.682	7.502	7.502	27.503	936	0	1.0887	OK	11-12-2024	08:51:57.103	1252.682	37.575	OK
11-12-2024	08:51:57.203	1252.782	7.502	7.502	27.502	937	0	1.0888	OK	11-12-2024	08:51:57.203	1252.782	37.575	OK
11-12-2024	08:51:57.304	1252.883	7.501	7.501	27.498	936	0	1.0891	OK	11-12-2024	08:51:57.304	1252.883	37.575	OK
11-12-2024	08:51:57.403	1252.981	7.502	7.502	27.500	936	0	1.0889	OK	11-12-2024	08:51:57.403	1252.981	37.575	OK
11-12-2024	08:51:57.573	1253.152	7.502	7.502	27.505	936	0	1.0886	OK	11-12-2024	08:51:57.573	1253.152	37.576	OK
11-12-2024	08:51:57.830	1253.409	7.502	7.502	27.505	937	0	1.0887	OK	11-12-2024	08:51:57.830	1253.409	37.576	OK
11-12-2024	08:51:58.004	1253.583	7.503	7.503	27.508	937	0	1.0884	OK	11-12-2024	08:51:58.004	1253.583	37.576	OK
11-12-2024	08:51:58.105	1253.683	7.502	7.502	27.503	936	0	1.0888	OK	11-12-2024	08:51:58.105	1253.683	37.576	OK
11-12-2024	08:51:58.205	1253.784	7.502	7.502	27.501	936	0	1.0889	OK	11-12-2024	08:51:58.205	1253.784	37.577	OK
11-12-2024	08:51:58.305	1253.884	7.501	7.501	27.496	936	0	1.0893	OK	11-12-2024	08:51:58.305	1253.884	37.577	OK
11-12-2024	08:51:58.406	1253.985	7.501	7.501	27.494	936	0	1.0894	OK	11-12-2024	08:51:58.406	1253.985	37.577	OK
11-12-2024	08:51:58.574	1254.153	7.502	7.502	27.503	936	0	1.0888	OK	11-12-2024	08:51:58.574	1254.153	37.578	OK
11-12-2024	08:51:58.831	1254.410	7.502	7.502	27.504	937	0	1.0887	OK	11-12-2024	08:51:58.831	1254.410	37.578	OK
11-12-2024	08:51:59.007	1254.586	7.502	7.502	27.503	936	0	1.0888	OK	11-12-2024	08:51:59.007	1254.586	37.577	OK
11-12-2024	08:51:59.107	1254.686	7.501	7.501	27.499	936	0	1.0891	OK	11-12-2024	08:51:59.107	1254.686	37.577	OK
11-12-2024	08:51:59.208	1254.787	7.502	7.502	27.502	936	0	1.0889	OK	11-12-2024	08:51:59.208	1254.787	37.576	OK
11-12-2024	08:51:59.308	1254.887	7.501	7.501	27.496	936	0	1.0893	OK	11-12-2024	08:51:59.308	1254.887	37.576	OK
11-12-2024	08:51:59.409	1254.988	7.501	7.501	27.498	936	0	1.0891	OK	11-12-2024	08:51:59.409	1254.988	37.576	OK
11-12-2024	08:51:59.578	1255.157	7.502	7.502	27.502	936	0	1.0889	OK	11-12-2024	08:51:59.578	1255.157	37.576	OK
11-12-2024	08:51:59.833	1255.412	7.502	7.502	27.505	936	0	1.0887	OK	11-12-2024	08:51:59.833	1255.412	37.575	OK
11-12-2024	08:52:00.009	1255.588	7.503	7.503	27.507	936	0	1.0885	OK	11-12-2024	08:52:00.009	1255.588	37.575	OK
11-12-2024	08:52:00.112	1255.691	7.502	7.502	27.505	936	0	1.0887	OK	11-12-2024	08:52:00.112	1255.691	37.575	OK
11-12-2024	08:52:00.211	1255.790	7.501	7.501	27.498	936	0	1.0891	OK	11-12-2024	08:52:00.211	1255.790	37.575	OK
11-12-2024	08:52:00.312	1255.891	7.502	7.502	27.500	936	0	1.0890	OK	11-12-2024	08:52:00.312	1255.891	37.575	OK
11-12-2024	08:52:00.412	1255.991	7.501	7.501	27.498	936	0	1.0891	OK	11-12-2024	08:52:00.412	1255.991	37.575	OK
11-12-2024	08:52:00.585	1256.164	7.502	7.502	27.501	937	0	1.0889	OK	11-12-2024	08:52:00.585	1256.164	37.574	OK
11-12-2024	08:52:00.856	1256.435	7.503	7.503	27.510	936	0	1.0883	OK	11-12-2024	08:52:00.856	1256.435	37.573	OK
11-12-2024	08:52:01.013	1256.592	7.503	7.503	27.508	936	0	1.0884	OK	11-12-2024	08:52:01.013	1256.592	37.573	OK
11-12-2024	08:52:01.114	1256.693	7.502	7.502	27.501	936	0	1.0889	OK	11-12-2024	08:52:01.114	1256.693	37.573	OK
11-12-2024	08:52:01.214	1256.792	7.502	7.502	27.499	936	0	1.0890	OK	11-12-2024	08:52:01.214	1256.792	37.573	OK
11-12-2024	08:52:01.316	1256.895	7.502	7.502	27.499	936	0	1.0890	OK	11-12-2024	08:52:01.316	1256.895	37.573	OK
11-12-2024	08:52:01.416	1256.995	7.502	7.502	27.502	936	0	1.0888	OK	11-12-2024	08:52:01.416	1256.995	37.572	OK
11-12-2024	08:52:01.585	1257.164	7.502	7.502	27.500	937	0	1.0889	OK	11-12-2024	08:52:01.585	1257.164	37.572	OK
11-12-2024	08:52:01.841	1257.420	7.503	7.503	27.510	936	0	1.0883	OK	11-12-2024	08:52:01.841	1257.420	37.572	OK
11-12-2024	08:52:02.017	1257.596	7.503	7.503	27.506	936	0	1.0885	OK	11-12-2024	08:52:02.017	1257.596	37.572	OK
11-12-2024	08:52:02.116	1257.695	7.502	7.502	27.503	936	0	1.0887	OK	11-12-2024	08:52:02.116	1257.695	37.572	OK
11-12-2024	08:52:02.218	1257.797	7.502	7.502	27.499	936	0	1.0890	OK	11-12-2024	08:52:02.218	1257.797	37.573	OK
11-12-2024	08:52:02.319	1257.898	7.502	7.502	27.502	936	0	1.0888	OK	11-12-2024	08:52:02.319	1257.898	37.573	OK
11-12-2024	08:52:02.417	1257.996	7.501	7.501	27.496	936	0	1.0892	OK	11-12-2024	08:52:02.417	1257.996	37.573	OK
11-12-2024	08:52:02.588	1258.166	7.502	7.502	27.501	936	0	1.0889	OK	11-12-2024	08:52:02.588	1258.166	37.573	OK
11-12-2024	08:52:02.845	1258.424	7.502	7.502	27.505	937	0	1.0887	OK	11-12-2024	08:52:02.845	1258.424	37.573	OK
11-12-2024	08:52:03.019	1258.598	7.502	7.502	27.505	936	0	1.0887	OK	11-12-2024	08:52:03.019	1258.598	37.573	OK
11-12-2024	08:52:03.119	1258.698	7.502	7.502	27.501	937	0	1.0889	OK	11-12-2024	08:52:03.119	1258.698	37.573	OK
11-12-2024	08:52:03.218	1258.797	7.502	7.502	27.504	936	0	1.0887	OK	11-12-2024	08:52:03.218	1258.797	37.573	OK
11-12-2024	08:52:03.318	1258.897	7.502	7.502	27.502	936	0	1.0889	OK	11-12-2024	08:52:03.318	1258.897	37.573	OK
11-12-2024	08:52:03.419	1258.998	7.502	7.502	27.500	936	0	1.0890	OK	11-12-2024	08:52:03.419	1258.998	37.573	OK
11-12-2024	08:52:03.589	1259.168	7.502	7.502	27.503	936	0	1.0888	OK	11-12-2024	08:52:03.589	1259.168	37.573	OK
11-12-2024	08:52:03.860	1259.439	7.503	7.503	27.508	937	0	1.0884	OK	11-12-2024	08:52:03.860	1259.439	37.573	OK
11-12-2024	08:52:04.021	1259.600	7.503	7.503	27.508	936	0	1.0884	OK	11-12-2024	08:52:04.021	1259.600	37.575	OK
11-12-2024	08:52:04.118	1259.697	7.503	7.503	27.506	936	0	1.0885	OK	11-12-2024	08:52:04.118	1259.697	37.575	OK
11-12-2024	08:52:04.219	1259.798	7.502	7.502	27.502	937	0	1.0888	OK	11-12-2024	08:52:04.219	1259.798	37.575	OK
11-12-2024	08:52:04.321	1259.900	7.503	7.503	27.507	937	0	1.0885	OK	11-12-2024	08:52:04.321	1259.900	37.575	OK
11-12-2024	08:52:04.420	1259.999	7.502	7.502	27.503	936	0	1.0887	OK	11-12-2024	08:52:04.420	1259.999	37.575	OK
11-12-2024	08:52:04.591	1260.170	7.502	7.502	27.504	936	0	1.0887	OK	11-12-2024	08:52:04.591	1260.170	37.575	OK
11-12-2024	08:52:04.865	1260.444	7.503	7.503	27.510	937	0	1.0883	OK	11-12-2024	08:52:04.865	1260.444	37.576	OK
11-12-2024	08:52:05.021	1260.600	7.503	7.503	27.507	937	0	1.0885	OK	11-12-2024	08:52:05.021	1260.600	37.576	OK
11-12-2024	08:52:05.121	1260.700	7.502	7.502	27.506	936	0	1.0885	OK	11-12-2024	08:52:05.121	1260.700	37.576	OK
11-12-2024	08:52:05.221	1260.800	7.501	7.501	27.497	936	0	1.0892	OK	11-12-2024	08:52:05.221	1260.800	37.575	OK
11-12-2024	08:52:05.319	1260.898	7.501	7.501	27.499	936	0	1.0890	OK	11-12-2024	08:52:05.319	1260.898	37.575	OK
11-12-2024	08:52:05.420	1260.998	7.501	7.501	27.496	936	0	1.0892	OK	11-12-2024	08:52:05.420	1260.998	37.575	OK
11-12-2024	08:52:05.590	1261.169	7.502	7.502	27.504	936	0	1.0887	OK	11-12-2024	08:52:05.590	1261.169	37.575	OK
11-12-2024	08:52:05.845	1261.424	7.503	7.503	27.509	936	0	1.0883	OK	11-12-2024	08:52:05.845	1261.424	37.575	OK
11-12-2024	08:52:06.023	1261.602	7.503	7.503	27.508	936	0	1.0885	OK	11-12-2024	08:52:06.023	1261.602	37.576	OK
11-12-2024	08:52:06.123	1261.702	7.502	7.502	27.503	936	0	1.0888	OK	11-12-2024	08:52:06.123	1261.702	37.576	OK
11-12-2024	08:52:06.222	1261.801	7.501	7.501	27.499	936	0	1.0891	OK	11-12-2024	08:52:06.222	1261.801	37.576	OK
11-12-2024	08:52:06.323	1261.902	7.502	7.502	27.503	936	0	1.0888	OK	11-12-2024	08:52:06.323	1261.902	37.576	OK
11-12-2024	08:52:06.425	1262.004	7.501	7.501	27.497	936	0	1.0893	OK	11-12-2024	08:52:06.425	1262.004	37.576	OK
11-12-2024	08:52:06.613	1262.192	7.502	7.502	27.501	936	0	1.0890	OK	11-12-2024	08:52:06.613	1262.192	37.576	OK
11-12-2024	08:52:06.867	1262.446	7.502	7.502	27.503	936	0	1.0888	OK	11-12-2024	08:52:06.867	1262.446	37.577	OK
11-12-2024	08:52:07.022	1262.601	7.502	7.502	27.505	936	0	1.0887	OK	11-12-2024	08:52:07.022	1262.601	37.577	OK
11-12-2024	08:52:07.123	1262.702	7.502	7.502	27.502	937	0	1.0889	OK	11-12-2024	08:52:07.123	1262.702	37.577	OK
11-12-2024	08:52:07.224	1262.802	7.502	7.502	27.501	936	0	1.0889	OK	11-12-2024	08:52:07.224	1262.802	37.577	OK
11-12-2024	08:52:07.324	1262.903	7.501	7.501	27.497	936	0	1.0892	OK	11-12-2024	08:52:07.324	1262.903	37.577	OK
11-12-2024	08:52:07.423	1263.002	7.502	7.502	27.500	936	0	1.0890	OK	11-12-2024	08:52:07.423	1263.002	37.577	OK
11-12-2024	08:52:07.593	1263.172	7.502	7.502	27.503	936	0	1.0888	OK	11-12-2024	08:52:07.593	1263.172	37.576	OK
11-12-2024	08:52:07.848	1263.427	7.503	7.503	27.509	937	0	1.0884	OK	11-12-2024	08:52:07.848	1263.427	37.577	OK
11-12-2024	08:52:08.024	1263.603	7.503	7.503	27.507	936	0	1.0885	OK	11-12-2024	08:52:08.024	1263.603	37.577	OK
11-12-2024	08:52:08.124	1263.703	7.502	7.502	27.506	936	0	1.0885	OK	11-12-2024	08:52:08.124	1263.703	37.576	OK
11-12-2024	08:52:08.224	1263.803	7.502	7.502	27.503	936	0	1.0887	OK	11-12-2024	08:52:08.224	1263.803	37.576	OK
11-12-2024	08:52:08.324	1263.903	7.501	7.501	27.498	936	0	1.0891	OK	11-12-2024	08:52:08.324	1263.903	37.576	OK
11-12-2024	08:52:08.424	1264.003	7.502	7.502	27.501	936	0	1.0889	OK	11-12-2024	08:52:08.424	1264.003	37.576	OK
11-12-2024	08:52:08.594	1264.173	7.502	7.502	27.500	936	0	1.0889	OK	11-12-2024	08:52:08.594	1264.173	37.577	OK
11-12-2024	08:52:08.852	1264.430	7.502	7.502	27.505	937	0	1.0886	OK	11-12-2024	08:52:08.852	1264.430	37.577	OK
11-12-2024	08:52:09.030	1264.609	7.502	7.502	27.503	937	0	1.0888	OK	11-12-2024	08:52:09.030	1264.609	37.578	OK
11-12-2024	08:52:09.130	1264.709	7.501	7.501	27.500	937	0	1.0890	OK	11-12-2024	08:52:09.130	1264.709	37.578	OK
11-12-2024	08:52:09.231	1264.810	7.501	7.501	27.499	937	0	1.0891	OK	11-12-2024	08:52:09.231	1264.810	37.578	OK
11-12-2024	08:52:09.432	1265.011	7.502	7.502	27.500	936	0	1.0890	OK	11-12-2024	08:52:09.432	1265.011	37.577	OK
11-12-2024	08:52:09.619	1265.198	7.503	7.503	27.507	937	0	1.0885	OK	11-12-2024	08:52:09.619	1265.198	37.576	OK
11-12-2024	08:52:09.876	1265.454	7.503	7.503	27.509	936	0	1.0884	OK	11-12-2024	08:52:09.876	1265.454	37.574	OK
11-12-2024	08:52:10.032	1265.611	7.502	7.502	27.505	936	0	1.0886	OK	11-12-2024	08:52:10.032	1265.611	37.574	OK
11-12-2024	08:52:10.131	1265.710	7.503	7.503	27.506	936	0	1.0885	OK	11-12-2024	08:52:10.131	1265.710	37.574	OK
11-12-2024	08:52:10.232	1265.811	7.502	7.502	27.501	936	0	1.0889	OK	11-12-2024	08:52:10.232	1265.811	37.574	OK
11-12-2024	08:52:10.331	1265.910	7.501	7.501	27.497	936	0	1.0892	OK	11-12-2024	08:52:10.331	1265.910	37.574	OK
11-12-2024	08:52:10.431	1266.010	7.501	7.501	27.498	936	0	1.0891	OK	11-12-2024	08:52:10.431	1266.010	37.574	OK
11-12-2024	08:52:10.600	1266.179	7.502	7.502	27.500	936	0	1.0889	OK	11-12-2024	08:52:10.600	1266.179	37.575	OK
11-12-2024	08:52:10.858	1266.437	7.503	7.503	27.510	936	0	1.0883	OK	11-12-2024	08:52:10.858	1266.437	37.575	OK
11-12-2024	08:52:11.032	1266.611	7.503	7.503	27.507	936	0	1.0885	OK	11-12-2024	08:52:11.032	1266.611	37.573	OK
11-12-2024	08:52:11.131	1266.710	7.503	7.503	27.507	936	0	1.0885	OK	11-12-2024	08:52:11.131	1266.710	37.573	OK
11-12-2024	08:52:11.232	1266.811	7.503	7.503	27.506	936	0	1.0885	OK	11-12-2024	08:52:11.232	1266.811	37.573	OK
11-12-2024	08:52:11.332	1266.911	7.502	7.502	27.499	936	0	1.0890	OK	11-12-2024	08:52:11.332	1266.911	37.573	OK
11-12-2024	08:52:11.432	1267.011	7.501	7.501	27.495	936	0	1.0893	OK	11-12-2024	08:52:11.432	1267.011	37.573	OK
11-12-2024	08:52:11.602	1267.181	7.502	7.502	27.504	936	0	1.0887	OK	11-12-2024	08:52:11.602	1267.181	37.574	OK
11-12-2024	08:52:11.854	1267.432	7.503	7.503	27.512	936	0	1.0881	OK	11-12-2024	08:52:11.854	1267.432	37.573	OK
11-12-2024	08:52:12.032	1267.611	7.503	7.503	27.510	936	0	1.0883	OK	11-12-2024	08:52:12.032	1267.611	37.573	OK
11-12-2024	08:52:12.132	1267.711	7.502	7.502	27.501	936	0	1.0889	OK	11-12-2024	08:52:12.132	1267.711	37.572	OK
11-12-2024	08:52:12.233	1267.812	7.502	7.502	27.503	936	0	1.0888	OK	11-12-2024	08:52:12.233	1267.812	37.572	OK
11-12-2024	08:52:12.334	1267.913	7.502	7.502	27.506	936	0	1.0886	OK	11-12-2024	08:52:12.334	1267.913	37.573	OK
11-12-2024	08:52:12.433	1268.011	7.501	7.501	27.498	936	0	1.0891	OK	11-12-2024	08:52:12.433	1268.011	37.573	OK
11-12-2024	08:52:12.603	1268.182	7.502	7.502	27.506	936	0	1.0886	OK	11-12-2024	08:52:12.603	1268.182	37.573	OK
11-12-2024	08:52:12.857	1268.436	7.503	7.503	27.507	937	0	1.0885	OK	11-12-2024	08:52:12.857	1268.436	37.573	OK
11-12-2024	08:52:13.033	1268.611	7.503	7.503	27.506	936	0	1.0885	OK	11-12-2024	08:52:13.033	1268.611	37.574	OK
11-12-2024	08:52:13.135	1268.714	7.502	7.502	27.504	936	0	1.0887	OK	11-12-2024	08:52:13.135	1268.714	37.574	OK
11-12-2024	08:52:13.234	1268.813	7.502	7.502	27.499	936	0	1.0890	OK	11-12-2024	08:52:13.234	1268.813	37.574	OK
11-12-2024	08:52:13.335	1268.914	7.502	7.502	27.502	936	0	1.0888	OK	11-12-2024	08:52:13.335	1268.914	37.574	OK
11-12-2024	08:52:13.435	1269.014	7.502	7.502	27.500	936	0	1.0889	OK	11-12-2024	08:52:13.435	1269.014	37.574	OK
11-12-2024	08:52:13.603	1269.182	7.502	7.502	27.502	936	0	1.0888	OK	11-12-2024	08:52:13.603	1269.182	37.573	OK
11-12-2024	08:52:13.859	1269.438	7.503	7.503	27.506	937	0	1.0885	OK	11-12-2024	08:52:13.859	1269.438	37.572	OK
11-12-2024	08:52:14.035	1269.614	7.502	7.502	27.505	936	0	1.0886	OK	11-12-2024	08:52:14.035	1269.614	37.572	OK
11-12-2024	08:52:14.138	1269.717	7.502	7.502	27.501	936	0	1.0889	OK	11-12-2024	08:52:14.138	1269.717	37.573	OK
11-12-2024	08:52:14.236	1269.815	7.502	7.502	27.499	936	0	1.0890	OK	11-12-2024	08:52:14.236	1269.815	37.573	OK
11-12-2024	08:52:14.338	1269.917	7.501	7.501	27.497	936	0	1.0892	OK	11-12-2024	08:52:14.338	1269.917	37.573	OK
11-12-2024	08:52:14.520	1270.099	7.502	7.502	27.501	936	0	1.0889	OK	11-12-2024	08:52:14.520	1270.099	37.574	OK
11-12-2024	08:52:14.807	1270.386	7.503	7.503	27.509	936	0	1.0883	OK	11-12-2024	08:52:14.807	1270.386	37.574	OK
11-12-2024	08:52:14.938	1270.516	7.503	7.503	27.507	936	0	1.0885	OK	11-12-2024	08:52:14.938	1270.516	37.574	OK
11-12-2024	08:52:15.038	1270.617	7.502	7.502	27.504	936	0	1.0887	OK	11-12-2024	08:52:15.038	1270.617	37.574	OK
11-12-2024	08:52:15.139	1270.718	7.501	7.501	27.497	936	0	1.0892	OK	11-12-2024	08:52:15.139	1270.718	37.574	OK
11-12-2024	08:52:15.237	1270.816	7.501	7.501	27.497	936	0	1.0892	OK	11-12-2024	08:52:15.237	1270.816	37.575	OK
11-12-2024	08:52:15.338	1270.917	7.502	7.502	27.500	936	0	1.0889	OK	11-12-2024	08:52:15.338	1270.917	37.575	OK
11-12-2024	08:52:15.522	1271.101	7.502	7.502	27.504	936	0	1.0887	OK	11-12-2024	08:52:15.522	1271.101	37.575	OK
11-12-2024	08:52:15.773	1271.352	7.502	7.502	27.506	936	0	1.0885	OK	11-12-2024	08:52:15.773	1271.352	37.576	OK
11-12-2024	08:52:15.940	1271.519	7.502	7.502	27.501	936	0	1.0889	OK	11-12-2024	08:52:15.940	1271.519	37.576	OK
11-12-2024	08:52:16.039	1271.618	7.502	7.502	27.504	936	0	1.0887	OK	11-12-2024	08:52:16.039	1271.618	37.575	OK
11-12-2024	08:52:16.140	1271.719	7.502	7.502	27.504	936	0	1.0887	OK	11-12-2024	08:52:16.140	1271.719	37.575	OK
11-12-2024	08:52:16.240	1271.819	7.502	7.502	27.502	936	0	1.0889	OK	11-12-2024	08:52:16.240	1271.819	37.575	OK
11-12-2024	08:52:16.340	1271.919	7.501	7.501	27.497	936	0	1.0892	OK	11-12-2024	08:52:16.340	1271.919	37.575	OK
11-12-2024	08:52:16.522	1272.101	7.502	7.502	27.501	936	0	1.0889	OK	11-12-2024	08:52:16.522	1272.101	37.575	OK
11-12-2024	08:52:16.780	1272.359	7.502	7.502	27.505	936	0	1.0887	OK	11-12-2024	08:52:16.780	1272.359	37.578	OK
11-12-2024	08:52:16.942	1272.521	7.502	7.502	27.503	936	0	1.0888	OK	11-12-2024	08:52:16.942	1272.521	37.578	OK
11-12-2024	08:52:17.042	1272.621	7.502	7.502	27.500	936	0	1.0889	OK	11-12-2024	08:52:17.042	1272.621	37.578	OK
11-12-2024	08:52:17.142	1272.721	7.501	7.501	27.498	937	0	1.0891	OK	11-12-2024	08:52:17.142	1272.721	37.578	OK
11-12-2024	08:52:17.242	1272.821	7.501	7.501	27.493	937	0	1.0894	OK	11-12-2024	08:52:17.242	1272.821	37.578	OK
11-12-2024	08:52:17.343	1272.922	7.500	7.500	27.491	936	0	1.0896	OK	11-12-2024	08:52:17.343	1272.922	37.578	OK
11-12-2024	08:52:17.521	1273.100	7.502	7.502	27.502	937	0	1.0888	OK	11-12-2024	08:52:17.521	1273.100	37.578	OK
11-12-2024	08:52:17.775	1273.354	7.502	7.502	27.506	937	0	1.0885	OK	11-12-2024	08:52:17.775	1273.354	37.578	OK
11-12-2024	08:52:17.943	1273.522	7.502	7.502	27.505	937	0	1.0886	OK	11-12-2024	08:52:17.943	1273.522	37.578	OK
11-12-2024	08:52:18.045	1273.624	7.502	7.502	27.502	936	0	1.0888	OK	11-12-2024	08:52:18.045	1273.624	37.579	OK
11-12-2024	08:52:18.244	1273.823	7.503	7.503	27.507	937	0	1.0885	OK	11-12-2024	08:52:18.244	1273.823	37.579	OK
11-12-2024	08:52:18.345	1273.924	7.502	7.502	27.503	936	0	1.0887	OK	11-12-2024	08:52:18.345	1273.924	37.579	OK
11-12-2024	08:52:18.521	1274.100	7.503	7.503	27.507	937	0	1.0885	OK	11-12-2024	08:52:18.521	1274.100	37.578	OK
11-12-2024	08:52:18.777	1274.356	7.503	7.503	27.512	937	0	1.0881	OK	11-12-2024	08:52:18.777	1274.356	37.577	OK
11-12-2024	08:52:18.946	1274.525	7.502	7.502	27.506	936	0	1.0885	OK	11-12-2024	08:52:18.946	1274.525	37.577	OK
11-12-2024	08:52:19.046	1274.625	7.502	7.502	27.501	936	0	1.0889	OK	11-12-2024	08:52:19.046	1274.625	37.577	OK
11-12-2024	08:52:19.148	1274.727	7.502	7.502	27.502	936	0	1.0888	OK	11-12-2024	08:52:19.148	1274.727	37.577	OK
11-12-2024	08:52:19.248	1274.827	7.502	7.502	27.503	936	0	1.0887	OK	11-12-2024	08:52:19.248	1274.827	37.578	OK
11-12-2024	08:52:19.347	1274.926	7.502	7.502	27.502	936	0	1.0888	OK	11-12-2024	08:52:19.347	1274.926	37.578	OK
11-12-2024	08:52:19.522	1275.101	7.502	7.502	27.505	937	0	1.0886	OK	11-12-2024	08:52:19.522	1275.101	37.578	OK
11-12-2024	08:52:19.777	1275.356	7.503	7.503	27.507	937	0	1.0885	OK	11-12-2024	08:52:19.777	1275.356	37.578	OK
11-12-2024	08:52:19.949	1275.528	7.503	7.503	27.508	937	0	1.0884	OK	11-12-2024	08:52:19.949	1275.528	37.578	OK
11-12-2024	08:52:20.049	1275.628	7.502	7.502	27.505	936	0	1.0886	OK	11-12-2024	08:52:20.049	1275.628	37.577	OK
11-12-2024	08:52:20.150	1275.729	7.502	7.502	27.503	936	0	1.0887	OK	11-12-2024	08:52:20.150	1275.729	37.577	OK
11-12-2024	08:52:20.250	1275.829	7.503	7.503	27.507	937	0	1.0885	OK	11-12-2024	08:52:20.250	1275.829	37.578	OK
11-12-2024	08:52:20.350	1275.929	7.502	7.502	27.504	936	0	1.0887	OK	11-12-2024	08:52:20.350	1275.929	37.578	OK
11-12-2024	08:52:20.523	1276.102	7.502	7.502	27.502	936	0	1.0888	OK	11-12-2024	08:52:20.523	1276.102	37.577	OK
11-12-2024	08:52:20.776	1276.355	7.503	7.503	27.509	937	0	1.0883	OK	11-12-2024	08:52:20.776	1276.355	37.578	OK
11-12-2024	08:52:20.949	1276.528	7.503	7.503	27.508	937	0	1.0884	OK	11-12-2024	08:52:20.949	1276.528	37.578	OK
11-12-2024	08:52:21.050	1276.629	7.502	7.502	27.506	936	0	1.0885	OK	11-12-2024	08:52:21.050	1276.629	37.577	OK
11-12-2024	08:52:21.152	1276.730	7.502	7.502	27.500	937	0	1.0889	OK	11-12-2024	08:52:21.152	1276.730	37.577	OK
11-12-2024	08:52:21.252	1276.831	7.502	7.502	27.502	936	0	1.0888	OK	11-12-2024	08:52:21.252	1276.831	37.577	OK
11-12-2024	08:52:21.353	1276.932	7.502	7.502	27.503	936	0	1.0887	OK	11-12-2024	08:52:21.353	1276.932	37.577	OK
11-12-2024	08:52:21.534	1277.113	7.502	7.502	27.503	937	0	1.0887	OK	11-12-2024	08:52:21.534	1277.113	37.577	OK
11-12-2024	08:52:21.791	1277.369	7.503	7.503	27.508	936	0	1.0884	OK	11-12-2024	08:52:21.791	1277.369	37.575	OK
11-12-2024	08:52:21.953	1277.532	7.502	7.502	27.504	937	0	1.0887	OK	11-12-2024	08:52:21.953	1277.532	37.576	OK
11-12-2024	08:52:22.053	1277.632	7.502	7.502	27.503	937	0	1.0887	OK	11-12-2024	08:52:22.053	1277.632	37.576	OK
11-12-2024	08:52:22.154	1277.732	7.502	7.502	27.503	936	0	1.0887	OK	11-12-2024	08:52:22.154	1277.732	37.576	OK
11-12-2024	08:52:22.253	1277.832	7.501	7.501	27.495	936	0	1.0893	OK	11-12-2024	08:52:22.253	1277.832	37.576	OK
11-12-2024	08:52:22.354	1277.932	7.501	7.501	27.497	937	0	1.0892	OK	11-12-2024	08:52:22.354	1277.932	37.576	OK
11-12-2024	08:52:22.524	1278.103	7.502	7.502	27.503	936	0	1.0887	OK	11-12-2024	08:52:22.524	1278.103	37.576	OK
11-12-2024	08:52:22.777	1278.356	7.503	7.503	27.507	936	0	1.0885	OK	11-12-2024	08:52:22.777	1278.356	37.575	OK
11-12-2024	08:52:22.955	1278.534	7.503	7.503	27.508	937	0	1.0884	OK	11-12-2024	08:52:22.955	1278.534	37.575	OK
11-12-2024	08:52:23.055	1278.634	7.502	7.502	27.503	936	0	1.0887	OK	11-12-2024	08:52:23.055	1278.634	37.575	OK
11-12-2024	08:52:23.155	1278.734	7.502	7.502	27.504	936	0	1.0887	OK	11-12-2024	08:52:23.155	1278.734	37.576	OK
11-12-2024	08:52:23.254	1278.833	7.502	7.502	27.501	936	0	1.0889	OK	11-12-2024	08:52:23.254	1278.833	37.576	OK
11-12-2024	08:52:23.355	1278.934	7.502	7.502	27.502	936	0	1.0888	OK	11-12-2024	08:52:23.355	1278.934	37.576	OK
11-12-2024	08:52:23.525	1279.104	7.502	7.502	27.501	936	0	1.0889	OK	11-12-2024	08:52:23.525	1279.104	37.575	OK
11-12-2024	08:52:23.780	1279.359	7.502	7.502	27.503	936	0	1.0887	OK	11-12-2024	08:52:23.780	1279.359	37.575	OK
11-12-2024	08:52:23.956	1279.535	7.502	7.502	27.505	937	0	1.0886	OK	11-12-2024	08:52:23.956	1279.535	37.575	OK
11-12-2024	08:52:24.057	1279.636	7.502	7.502	27.501	936	0	1.0889	OK	11-12-2024	08:52:24.057	1279.636	37.575	OK
11-12-2024	08:52:24.157	1279.736	7.501	7.501	27.498	936	0	1.0890	OK	11-12-2024	08:52:24.157	1279.736	37.575	OK
11-12-2024	08:52:24.269	1279.848	7.502	7.502	27.502	936	0	1.0888	OK	11-12-2024	08:52:24.269	1279.848	37.575	OK
11-12-2024	08:52:24.522	1280.101	7.502	7.502	27.502	936	0	1.0888	OK	11-12-2024	08:52:24.522	1280.101	37.574	OK
11-12-2024	08:52:24.773	1280.352	7.503	7.503	27.509	937	0	1.0883	OK	11-12-2024	08:52:24.773	1280.352	37.573	OK
11-12-2024	08:52:24.955	1280.534	7.503	7.503	27.506	936	0	1.0885	OK	11-12-2024	08:52:24.955	1280.534	37.574	OK
11-12-2024	08:52:25.058	1280.637	7.502	7.502	27.505	936	0	1.0886	OK	11-12-2024	08:52:25.058	1280.637	37.574	OK
11-12-2024	08:52:25.159	1280.738	7.502	7.502	27.502	936	0	1.0889	OK	11-12-2024	08:52:25.159	1280.738	37.574	OK
11-12-2024	08:52:25.267	1280.846	7.502	7.502	27.502	936	0	1.0889	OK	11-12-2024	08:52:25.267	1280.846	37.574	OK
11-12-2024	08:52:25.360	1280.939	7.502	7.502	27.501	936	0	1.0889	OK	11-12-2024	08:52:25.360	1280.939	37.575	OK
11-12-2024	08:52:25.530	1281.109	7.502	7.502	27.502	936	0	1.0889	OK	11-12-2024	08:52:25.530	1281.109	37.574	OK
11-12-2024	08:52:25.785	1281.364	7.503	7.503	27.508	936	0	1.0884	OK	11-12-2024	08:52:25.785	1281.364	37.575	OK
11-12-2024	08:52:25.961	1281.540	7.502	7.502	27.506	936	0	1.0886	OK	11-12-2024	08:52:25.961	1281.540	37.575	OK
11-12-2024	08:52:26.062	1281.641	7.502	7.502	27.503	937	0	1.0888	OK	11-12-2024	08:52:26.062	1281.641	37.575	OK
11-12-2024	08:52:26.161	1281.740	7.501	7.501	27.499	936	0	1.0891	OK	11-12-2024	08:52:26.161	1281.740	37.576	OK
11-12-2024	08:52:26.270	1281.849	7.502	7.502	27.502	936	0	1.0888	OK	11-12-2024	08:52:26.270	1281.849	37.576	OK
11-12-2024	08:52:26.522	1282.101	7.503	7.503	27.511	936	0	1.0882	OK	11-12-2024	08:52:26.522	1282.101	37.575	OK
11-12-2024	08:52:26.776	1282.355	7.503	7.503	27.511	936	0	1.0882	OK	11-12-2024	08:52:26.776	1282.355	37.576	OK
11-12-2024	08:52:26.964	1282.543	7.503	7.503	27.508	937	0	1.0884	OK	11-12-2024	08:52:26.964	1282.543	37.577	OK
11-12-2024	08:52:27.064	1282.643	7.502	7.502	27.506	937	0	1.0885	OK	11-12-2024	08:52:27.064	1282.643	37.577	OK
11-12-2024	08:52:27.164	1282.743	7.502	7.502	27.503	936	0	1.0887	OK	11-12-2024	08:52:27.164	1282.743	37.576	OK
11-12-2024	08:52:27.272	1282.851	7.502	7.502	27.502	936	0	1.0888	OK	11-12-2024	08:52:27.272	1282.851	37.576	OK
11-12-2024	08:52:27.368	1282.947	7.501	7.501	27.496	936	0	1.0892	OK	11-12-2024	08:52:27.368	1282.947	37.577	OK
11-12-2024	08:52:27.537	1283.116	7.502	7.502	27.506	936	0	1.0885	OK	11-12-2024	08:52:27.537	1283.116	37.577	OK
11-12-2024	08:52:27.791	1283.370	7.503	7.503	27.507	936	0	1.0885	OK	11-12-2024	08:52:27.791	1283.370	37.577	OK
11-12-2024	08:52:27.968	1283.547	7.503	7.503	27.508	937	0	1.0884	OK	11-12-2024	08:52:27.968	1283.547	37.577	OK
11-12-2024	08:52:28.068	1283.647	7.503	7.503	27.508	936	0	1.0884	OK	11-12-2024	08:52:28.068	1283.647	37.577	OK
11-12-2024	08:52:28.168	1283.747	7.502	7.502	27.501	936	0	1.0889	OK	11-12-2024	08:52:28.168	1283.747	37.577	OK
11-12-2024	08:52:28.270	1283.848	7.502	7.502	27.503	936	0	1.0887	OK	11-12-2024	08:52:28.270	1283.848	37.577	OK
11-12-2024	08:52:28.369	1283.948	7.502	7.502	27.503	936	0	1.0887	OK	11-12-2024	08:52:28.369	1283.948	37.577	OK
11-12-2024	08:52:28.539	1284.118	7.502	7.502	27.503	936	0	1.0887	OK	11-12-2024	08:52:28.539	1284.118	37.577	OK
11-12-2024	08:52:28.799	1284.378	7.503	7.503	27.508	936	0	1.0884	OK	11-12-2024	08:52:28.799	1284.378	37.577	OK
11-12-2024	08:52:28.969	1284.548	7.502	7.502	27.505	936	0	1.0886	OK	11-12-2024	08:52:28.969	1284.548	37.578	OK
11-12-2024	08:52:29.072	1284.651	7.502	7.502	27.505	936	0	1.0886	OK	11-12-2024	08:52:29.072	1284.651	37.578	OK
11-12-2024	08:52:29.271	1284.850	7.503	7.503	27.509	936	0	1.0883	OK	11-12-2024	08:52:29.271	1284.850	37.578	OK
11-12-2024	08:52:29.371	1284.950	7.502	7.502	27.504	936	0	1.0887	OK	11-12-2024	08:52:29.371	1284.950	37.577	OK
11-12-2024	08:52:29.542	1285.121	7.503	7.503	27.507	936	0	1.0885	OK	11-12-2024	08:52:29.542	1285.121	37.577	OK
11-12-2024	08:52:29.801	1285.380	7.503	7.503	27.509	936	0	1.0883	OK	11-12-2024	08:52:29.801	1285.380	37.577	OK
11-12-2024	08:52:29.972	1285.551	7.503	7.503	27.509	936	0	1.0883	OK	11-12-2024	08:52:29.972	1285.551	37.577	OK
11-12-2024	08:52:30.074	1285.653	7.503	7.503	27.508	936	0	1.0884	OK	11-12-2024	08:52:30.074	1285.653	37.577	OK
11-12-2024	08:52:30.174	1285.753	7.502	7.502	27.504	936	0	1.0887	OK	11-12-2024	08:52:30.174	1285.753	37.578	OK
11-12-2024	08:52:30.275	1285.854	7.502	7.502	27.505	936	0	1.0886	OK	11-12-2024	08:52:30.275	1285.854	37.578	OK
11-12-2024	08:52:30.374	1285.953	7.502	7.502	27.500	936	0	1.0889	OK	11-12-2024	08:52:30.374	1285.953	37.577	OK
11-12-2024	08:52:30.546	1286.125	7.502	7.502	27.505	936	0	1.0886	OK	11-12-2024	08:52:30.546	1286.125	37.577	OK
11-12-2024	08:52:30.802	1286.381	7.503	7.503	27.510	936	0	1.0883	OK	11-12-2024	08:52:30.802	1286.381	37.578	OK
11-12-2024	08:52:30.974	1286.553	7.503	7.503	27.510	936	0	1.0883	OK	11-12-2024	08:52:30.974	1286.553	37.578	OK
11-12-2024	08:52:31.073	1286.652	7.502	7.502	27.504	936	0	1.0887	OK	11-12-2024	08:52:31.073	1286.652	37.578	OK
11-12-2024	08:52:31.175	1286.754	7.502	7.502	27.501	936	0	1.0889	OK	11-12-2024	08:52:31.175	1286.754	37.578	OK
11-12-2024	08:52:31.275	1286.854	7.502	7.502	27.503	936	0	1.0887	OK	11-12-2024	08:52:31.275	1286.854	37.578	OK
11-12-2024	08:52:31.376	1286.955	7.502	7.502	27.504	936	0	1.0887	OK	11-12-2024	08:52:31.376	1286.955	37.578	OK
11-12-2024	08:52:31.563	1287.142	7.501	7.501	27.499	936	0	1.0890	OK	11-12-2024	08:52:31.563	1287.142	37.578	OK
11-12-2024	08:52:31.816	1287.395	7.502	7.502	27.504	936	0	1.0887	OK	11-12-2024	08:52:31.816	1287.395	37.579	OK
11-12-2024	08:52:31.975	1287.554	7.502	7.502	27.506	936	0	1.0885	OK	11-12-2024	08:52:31.975	1287.554	37.579	OK
11-12-2024	08:52:32.074	1287.653	7.502	7.502	27.501	937	0	1.0889	OK	11-12-2024	08:52:32.074	1287.653	37.578	OK
11-12-2024	08:52:32.175	1287.754	7.502	7.502	27.502	936	0	1.0888	OK	11-12-2024	08:52:32.175	1287.754	37.578	OK
11-12-2024	08:52:32.277	1287.856	7.501	7.501	27.498	936	0	1.0891	OK	11-12-2024	08:52:32.277	1287.856	37.578	OK
11-12-2024	08:52:32.377	1287.956	7.502	7.502	27.504	936	0	1.0887	OK	11-12-2024	08:52:32.377	1287.956	37.578	OK
11-12-2024	08:52:32.548	1288.127	7.503	7.503	27.507	936	0	1.0885	OK	11-12-2024	08:52:32.548	1288.127	37.576	OK
11-12-2024	08:52:32.807	1288.386	7.503	7.503	27.509	936	0	1.0883	OK	11-12-2024	08:52:32.807	1288.386	37.578	OK
11-12-2024	08:52:32.980	1288.559	7.503	7.503	27.510	936	0	1.0883	OK	11-12-2024	08:52:32.980	1288.559	37.578	OK
11-12-2024	08:52:33.081	1288.660	7.502	7.502	27.504	936	0	1.0887	OK	11-12-2024	08:52:33.081	1288.660	37.577	OK
11-12-2024	08:52:33.180	1288.759	7.502	7.502	27.500	936	0	1.0889	OK	11-12-2024	08:52:33.180	1288.759	37.577	OK
11-12-2024	08:52:33.281	1288.860	7.502	7.502	27.501	936	0	1.0889	OK	11-12-2024	08:52:33.281	1288.860	37.576	OK
11-12-2024	08:52:33.380	1288.959	7.501	7.501	27.497	936	0	1.0892	OK	11-12-2024	08:52:33.380	1288.959	37.576	OK
11-12-2024	08:52:33.554	1289.133	7.502	7.502	27.504	936	0	1.0887	OK	11-12-2024	08:52:33.554	1289.133	37.576	OK
11-12-2024	08:52:33.811	1289.390	7.503	7.503	27.509	936	0	1.0883	OK	11-12-2024	08:52:33.811	1289.390	37.576	OK
11-12-2024	08:52:33.982	1289.561	7.503	7.503	27.513	936	0	1.0881	OK	11-12-2024	08:52:33.982	1289.561	37.576	OK
11-12-2024	08:52:34.081	1289.660	7.502	7.502	27.505	936	0	1.0886	OK	11-12-2024	08:52:34.081	1289.660	37.576	OK
11-12-2024	08:52:34.182	1289.760	7.502	7.502	27.502	936	0	1.0888	OK	11-12-2024	08:52:34.182	1289.760	37.576	OK
11-12-2024	08:52:34.282	1289.861	7.502	7.502	27.501	936	0	1.0889	OK	11-12-2024	08:52:34.282	1289.861	37.577	OK
11-12-2024	08:52:34.382	1289.961	7.502	7.502	27.500	936	0	1.0889	OK	11-12-2024	08:52:34.382	1289.961	37.577	OK
11-12-2024	08:52:34.549	1290.128	7.502	7.502	27.505	936	0	1.0886	OK	11-12-2024	08:52:34.549	1290.128	37.577	OK
11-12-2024	08:52:34.810	1290.389	7.503	7.503	27.511	936	0	1.0882	OK	11-12-2024	08:52:34.810	1290.389	37.578	OK
11-12-2024	08:52:34.983	1290.561	7.503	7.503	27.507	936	0	1.0885	OK	11-12-2024	08:52:34.983	1290.561	37.579	OK
11-12-2024	08:52:35.083	1290.662	7.502	7.502	27.505	936	0	1.0886	OK	11-12-2024	08:52:35.083	1290.662	37.579	OK
11-12-2024	08:52:35.182	1290.761	7.502	7.502	27.501	936	0	1.0889	OK	11-12-2024	08:52:35.182	1290.761	37.579	OK
11-12-2024	08:52:35.283	1290.862	7.502	7.502	27.504	936	0	1.0887	OK	11-12-2024	08:52:35.283	1290.862	37.580	OK
11-12-2024	08:52:35.384	1290.963	7.502	7.502	27.501	936	0	1.0889	OK	11-12-2024	08:52:35.384	1290.963	37.580	OK
11-12-2024	08:52:35.557	1291.136	7.502	7.502	27.505	936	0	1.0886	OK	11-12-2024	08:52:35.557	1291.136	37.580	OK
11-12-2024	08:52:35.813	1291.392	7.503	7.503	27.508	936	0	1.0884	OK	11-12-2024	08:52:35.813	1291.392	37.582	OK
11-12-2024	08:52:35.984	1291.563	7.502	7.502	27.503	936	0	1.0887	OK	11-12-2024	08:52:35.984	1291.563	37.582	OK
11-12-2024	08:52:36.085	1291.664	7.503	7.503	27.507	936	0	1.0885	OK	11-12-2024	08:52:36.085	1291.664	37.580	OK
11-12-2024	08:52:36.284	1291.863	7.503	7.503	27.509	936	0	1.0883	OK	11-12-2024	08:52:36.284	1291.863	37.582	OK
11-12-2024	08:52:36.385	1291.964	7.503	7.503	27.507	936	0	1.0885	OK	11-12-2024	08:52:36.385	1291.964	37.582	OK
11-12-2024	08:52:36.556	1292.135	7.502	7.502	27.504	936	0	1.0887	OK	11-12-2024	08:52:36.556	1292.135	37.582	OK
11-12-2024	08:52:36.812	1292.391	7.503	7.503	27.508	937	0	1.0884	OK	11-12-2024	08:52:36.812	1292.391	37.582	OK
11-12-2024	08:52:36.985	1292.564	7.502	7.502	27.505	936	0	1.0886	OK	11-12-2024	08:52:36.985	1292.564	37.582	OK
11-12-2024	08:52:37.085	1292.664	7.502	7.502	27.503	936	0	1.0887	OK	11-12-2024	08:52:37.085	1292.664	37.582	OK
11-12-2024	08:52:37.186	1292.765	7.502	7.502	27.503	936	0	1.0887	OK	11-12-2024	08:52:37.186	1292.765	37.582	OK
11-12-2024	08:52:37.285	1292.864	7.501	7.501	27.499	936	0	1.0890	OK	11-12-2024	08:52:37.285	1292.864	37.583	OK
11-12-2024	08:52:37.386	1292.965	7.501	7.501	27.498	936	0	1.0891	OK	11-12-2024	08:52:37.386	1292.965	37.583	OK
11-12-2024	08:52:37.571	1293.150	7.503	7.503	27.511	936	0	1.0882	OK	11-12-2024	08:52:37.571	1293.150	37.581	OK
11-12-2024	08:52:37.828	1293.407	7.503	7.503	27.510	936	0	1.0883	OK	11-12-2024	08:52:37.828	1293.407	37.582	OK
11-12-2024	08:52:37.986	1293.565	7.502	7.502	27.505	936	0	1.0886	OK	11-12-2024	08:52:37.986	1293.565	37.581	OK
11-12-2024	08:52:38.085	1293.664	7.502	7.502	27.506	936	0	1.0885	OK	11-12-2024	08:52:38.085	1293.664	37.581	OK
11-12-2024	08:52:38.186	1293.765	7.502	7.502	27.505	936	0	1.0886	OK	11-12-2024	08:52:38.186	1293.765	37.581	OK
11-12-2024	08:52:38.286	1293.865	7.502	7.502	27.503	936	0	1.0887	OK	11-12-2024	08:52:38.286	1293.865	37.581	OK
11-12-2024	08:52:38.387	1293.966	7.502	7.502	27.502	936	0	1.0888	OK	11-12-2024	08:52:38.387	1293.966	37.581	OK
11-12-2024	08:52:38.558	1294.136	7.502	7.502	27.505	936	0	1.0886	OK	11-12-2024	08:52:38.558	1294.136	37.580	OK
11-12-2024	08:52:38.815	1294.394	7.503	7.503	27.510	936	0	1.0883	OK	11-12-2024	08:52:38.815	1294.394	37.580	OK
11-12-2024	08:52:38.987	1294.566	7.503	7.503	27.507	936	0	1.0885	OK	11-12-2024	08:52:38.987	1294.566	37.580	OK
11-12-2024	08:52:39.088	1294.667	7.503	7.503	27.507	936	0	1.0885	OK	11-12-2024	08:52:39.088	1294.667	37.579	OK
11-12-2024	08:52:39.187	1294.766	7.502	7.502	27.501	936	0	1.0889	OK	11-12-2024	08:52:39.187	1294.766	37.579	OK
11-12-2024	08:52:39.288	1294.867	7.503	7.503	27.507	936	0	1.0885	OK	11-12-2024	08:52:39.288	1294.867	37.580	OK
11-12-2024	08:52:39.389	1294.968	7.502	7.502	27.500	936	0	1.0889	OK	11-12-2024	08:52:39.389	1294.968	37.580	OK
11-12-2024	08:52:39.560	1295.139	7.502	7.502	27.506	936	0	1.0885	OK	11-12-2024	08:52:39.560	1295.139	37.580	OK
11-12-2024	08:52:39.830	1295.409	7.503	7.503	27.507	937	0	1.0885	OK	11-12-2024	08:52:39.830	1295.409	37.580	OK
11-12-2024	08:52:39.989	1295.568	7.503	7.503	27.507	936	0	1.0885	OK	11-12-2024	08:52:39.989	1295.568	37.579	OK
11-12-2024	08:52:40.088	1295.667	7.502	7.502	27.504	936	0	1.0887	OK	11-12-2024	08:52:40.088	1295.667	37.579	OK
11-12-2024	08:52:40.188	1295.767	7.502	7.502	27.502	936	0	1.0888	OK	11-12-2024	08:52:40.188	1295.767	37.580	OK
11-12-2024	08:52:40.288	1295.867	7.502	7.502	27.502	936	0	1.0888	OK	11-12-2024	08:52:40.288	1295.867	37.580	OK
11-12-2024	08:52:40.389	1295.968	7.502	7.502	27.499	936	0	1.0890	OK	11-12-2024	08:52:40.389	1295.968	37.579	OK
11-12-2024	08:52:40.560	1296.139	7.502	7.502	27.499	936	0	1.0890	OK	11-12-2024	08:52:40.560	1296.139	37.577	OK
11-12-2024	08:52:40.831	1296.410	7.503	7.503	27.508	936	0	1.0883	OK	11-12-2024	08:52:40.831	1296.410	37.577	OK
11-12-2024	08:52:40.989	1296.568	7.503	7.503	27.508	936	0	1.0883	OK	11-12-2024	08:52:40.989	1296.568	37.577	OK
11-12-2024	08:52:41.089	1296.668	7.502	7.502	27.501	936	0	1.0888	OK	11-12-2024	08:52:41.089	1296.668	37.577	OK
11-12-2024	08:52:41.190	1296.769	7.502	7.502	27.502	936	0	1.0888	OK	11-12-2024	08:52:41.190	1296.769	37.576	OK
11-12-2024	08:52:41.290	1296.869	7.503	7.503	27.507	936	0	1.0884	OK	11-12-2024	08:52:41.290	1296.869	37.576	OK
11-12-2024	08:52:41.389	1296.968	7.502	7.502	27.499	936	0	1.0890	OK	11-12-2024	08:52:41.389	1296.968	37.575	OK
11-12-2024	08:52:41.562	1297.141	7.502	7.502	27.505	936	0	1.0886	OK	11-12-2024	08:52:41.562	1297.141	37.575	OK
11-12-2024	08:52:41.815	1297.394	7.503	7.503	27.509	936	0	1.0883	OK	11-12-2024	08:52:41.815	1297.394	37.575	OK
11-12-2024	08:52:41.989	1297.568	7.503	7.503	27.508	936	0	1.0883	OK	11-12-2024	08:52:41.989	1297.568	37.574	OK
11-12-2024	08:52:42.090	1297.669	7.502	7.502	27.505	936	0	1.0886	OK	11-12-2024	08:52:42.090	1297.669	37.574	OK
11-12-2024	08:52:42.191	1297.770	7.502	7.502	27.503	936	0	1.0887	OK	11-12-2024	08:52:42.191	1297.770	37.574	OK
11-12-2024	08:52:42.290	1297.869	7.502	7.502	27.502	936	0	1.0888	OK	11-12-2024	08:52:42.290	1297.869	37.574	OK
11-12-2024	08:52:42.393	1297.972	7.502	7.502	27.501	936	0	1.0888	OK	11-12-2024	08:52:42.393	1297.972	37.575	OK
11-12-2024	08:52:42.564	1298.143	7.503	7.503	27.505	936	0	1.0886	OK	11-12-2024	08:52:42.564	1298.143	37.573	OK
11-12-2024	08:52:42.834	1298.413	7.503	7.503	27.507	936	0	1.0884	OK	11-12-2024	08:52:42.834	1298.413	37.574	OK
11-12-2024	08:52:42.992	1298.571	7.502	7.502	27.505	936	0	1.0886	OK	11-12-2024	08:52:42.992	1298.571	37.574	OK
11-12-2024	08:52:43.091	1298.670	7.502	7.502	27.504	936	0	1.0886	OK	11-12-2024	08:52:43.091	1298.670	37.574	OK
11-12-2024	08:52:43.194	1298.772	7.503	7.503	27.506	936	0	1.0885	OK	11-12-2024	08:52:43.194	1298.772	37.574	OK
11-12-2024	08:52:43.294	1298.872	7.502	7.502	27.500	936	0	1.0889	OK	11-12-2024	08:52:43.294	1298.872	37.574	OK
11-12-2024	08:52:43.396	1298.974	7.502	7.502	27.499	936	0	1.0890	OK	11-12-2024	08:52:43.396	1298.974	37.573	OK
11-12-2024	08:52:43.566	1299.145	7.503	7.503	27.506	936	0	1.0885	OK	11-12-2024	08:52:43.566	1299.145	37.573	OK
11-12-2024	08:52:43.826	1299.405	7.503	7.503	27.509	936	0	1.0883	OK	11-12-2024	08:52:43.826	1299.405	37.574	OK
11-12-2024	08:52:43.996	1299.575	7.503	7.503	27.508	936	0	1.0883	OK	11-12-2024	08:52:43.996	1299.575	37.575	OK
11-12-2024	08:52:44.096	1299.675	7.503	7.503	27.506	936	0	1.0885	OK	11-12-2024	08:52:44.096	1299.675	37.575	OK
11-12-2024	08:52:44.196	1299.775	7.502	7.502	27.503	936	0	1.0887	OK	11-12-2024	08:52:44.196	1299.775	37.575	OK
11-12-2024	08:52:44.297	1299.876	7.502	7.502	27.501	936	0	1.0888	OK	11-12-2024	08:52:44.297	1299.876	37.575	OK
11-12-2024	08:52:44.396	1299.975	7.502	7.502	27.502	936	0	1.0888	OK	11-12-2024	08:52:44.396	1299.975	37.576	OK
11-12-2024	08:52:44.568	1300.147	7.502	7.502	27.505	936	0	1.0886	OK	11-12-2024	08:52:44.568	1300.147	37.575	OK
11-12-2024	08:52:44.827	1300.406	7.503	7.503	27.507	936	0	1.0884	OK	11-12-2024	08:52:44.827	1300.406	37.575	OK
11-12-2024	08:52:44.998	1300.577	7.503	7.503	27.510	936	0	1.0882	OK	11-12-2024	08:52:44.998	1300.577	37.574	OK
11-12-2024	08:52:45.098	1300.677	7.503	7.503	27.507	936	0	1.0884	OK	11-12-2024	08:52:45.098	1300.677	37.574	OK
11-12-2024	08:52:45.199	1300.778	7.502	7.502	27.503	936	0	1.0887	OK	11-12-2024	08:52:45.199	1300.778	37.575	OK
11-12-2024	08:52:45.399	1300.978	7.503	7.503	27.506	936	0	1.0885	OK	11-12-2024	08:52:45.399	1300.978	37.573	OK
11-12-2024	08:52:45.570	1301.149	7.503	7.503	27.510	936	0	1.0882	OK	11-12-2024	08:52:45.570	1301.149	37.573	OK
11-12-2024	08:52:45.827	1301.406	7.503	7.503	27.510	936	0	1.0882	OK	11-12-2024	08:52:45.827	1301.406	37.573	OK
11-12-2024	08:52:45.999	1301.578	7.503	7.503	27.508	936	0	1.0883	OK	11-12-2024	08:52:45.999	1301.578	37.572	OK
11-12-2024	08:52:46.099	1301.678	7.503	7.503	27.505	936	0	1.0886	OK	11-12-2024	08:52:46.099	1301.678	37.572	OK
11-12-2024	08:52:46.200	1301.779	7.502	7.502	27.503	936	0	1.0887	OK	11-12-2024	08:52:46.200	1301.779	37.572	OK
11-12-2024	08:52:46.300	1301.879	7.502	7.502	27.502	936	0	1.0888	OK	11-12-2024	08:52:46.300	1301.879	37.572	OK
11-12-2024	08:52:46.401	1301.980	7.501	7.501	27.497	936	0	1.0891	OK	11-12-2024	08:52:46.401	1301.980	37.571	OK
11-12-2024	08:52:46.756	1302.335	7.504	7.504	27.513	936	0	1.0880	OK	11-12-2024	08:52:46.756	1302.335	37.571	OK
11-12-2024	08:52:46.899	1302.478	7.503	7.503	27.507	936	0	1.0884	OK	11-12-2024	08:52:46.899	1302.478	37.571	OK
11-12-2024	08:52:47.001	1302.580	7.503	7.503	27.507	936	0	1.0884	OK	11-12-2024	08:52:47.001	1302.580	37.570	OK
11-12-2024	08:52:47.103	1302.682	7.503	7.503	27.508	936	0	1.0883	OK	11-12-2024	08:52:47.103	1302.682	37.570	OK
11-12-2024	08:52:47.203	1302.782	7.502	7.502	27.503	936	0	1.0887	OK	11-12-2024	08:52:47.203	1302.782	37.569	OK
11-12-2024	08:52:47.303	1302.882	7.502	7.502	27.503	936	0	1.0887	OK	11-12-2024	08:52:47.303	1302.882	37.569	OK
11-12-2024	08:52:47.403	1302.982	7.502	7.502	27.501	936	0	1.0888	OK	11-12-2024	08:52:47.403	1302.982	37.568	OK
11-12-2024	08:52:47.573	1303.152	7.502	7.502	27.504	936	0	1.0886	OK	11-12-2024	08:52:47.573	1303.152	37.568	OK
11-12-2024	08:52:47.828	1303.407	7.503	7.503	27.509	936	0	1.0883	OK	11-12-2024	08:52:47.828	1303.407	37.568	OK
11-12-2024	08:52:48.004	1303.583	7.504	7.504	27.514	936	0	1.0879	OK	11-12-2024	08:52:48.004	1303.583	37.568	OK
11-12-2024	08:52:48.103	1303.682	7.503	7.503	27.507	936	0	1.0884	OK	11-12-2024	08:52:48.103	1303.682	37.568	OK
11-12-2024	08:52:48.203	1303.782	7.502	7.502	27.502	936	0	1.0888	OK	11-12-2024	08:52:48.203	1303.782	37.568	OK
11-12-2024	08:52:48.303	1303.882	7.502	7.502	27.503	936	0	1.0887	OK	11-12-2024	08:52:48.303	1303.882	37.570	OK
11-12-2024	08:52:48.404	1303.983	7.502	7.502	27.501	936	0	1.0888	OK	11-12-2024	08:52:48.404	1303.983	37.570	OK
11-12-2024	08:52:48.590	1304.169	7.503	7.503	27.506	936	0	1.0884	OK	11-12-2024	08:52:48.590	1304.169	37.569	OK
11-12-2024	08:52:48.878	1304.457	7.503	7.503	27.506	937	0	1.0884	OK	11-12-2024	08:52:48.878	1304.457	37.570	OK
11-12-2024	08:52:49.003	1304.582	7.503	7.503	27.508	937	0	1.0883	OK	11-12-2024	08:52:49.003	1304.582	37.570	OK
11-12-2024	08:52:49.104	1304.683	7.503	7.503	27.506	936	0	1.0884	OK	11-12-2024	08:52:49.104	1304.683	37.570	OK
11-12-2024	08:52:49.205	1304.784	7.502	7.502	27.501	936	0	1.0888	OK	11-12-2024	08:52:49.205	1304.784	37.570	OK
11-12-2024	08:52:49.306	1304.884	7.502	7.502	27.501	936	0	1.0888	OK	11-12-2024	08:52:49.306	1304.884	37.570	OK
11-12-2024	08:52:49.409	1304.987	7.502	7.502	27.501	936	0	1.0888	OK	11-12-2024	08:52:49.409	1304.987	37.570	OK
11-12-2024	08:52:49.580	1305.159	7.503	7.503	27.504	936	0	1.0886	OK	11-12-2024	08:52:49.580	1305.159	37.570	OK
11-12-2024	08:52:49.853	1305.432	7.503	7.503	27.507	936	0	1.0884	OK	11-12-2024	08:52:49.853	1305.432	37.572	OK
11-12-2024	08:52:50.006	1305.585	7.502	7.502	27.504	937	0	1.0886	OK	11-12-2024	08:52:50.006	1305.585	37.572	OK
11-12-2024	08:52:50.107	1305.685	7.502	7.502	27.503	937	0	1.0886	OK	11-12-2024	08:52:50.107	1305.685	37.573	OK
11-12-2024	08:52:50.207	1305.786	7.502	7.502	27.498	936	0	1.0890	OK	11-12-2024	08:52:50.207	1305.786	37.573	OK
11-12-2024	08:52:50.311	1305.890	7.501	7.501	27.497	936	0	1.0891	OK	11-12-2024	08:52:50.311	1305.890	37.573	OK
11-12-2024	08:52:50.407	1305.986	7.501	7.501	27.497	936	0	1.0891	OK	11-12-2024	08:52:50.407	1305.986	37.573	OK
11-12-2024	08:52:50.578	1306.157	7.502	7.502	27.503	936	0	1.0887	OK	11-12-2024	08:52:50.578	1306.157	37.572	OK
11-12-2024	08:52:50.836	1306.415	7.503	7.503	27.508	936	0	1.0883	OK	11-12-2024	08:52:50.836	1306.415	37.573	OK
11-12-2024	08:52:51.007	1306.586	7.503	7.503	27.507	936	0	1.0884	OK	11-12-2024	08:52:51.007	1306.586	37.574	OK
11-12-2024	08:52:51.107	1306.686	7.502	7.502	27.502	936	0	1.0888	OK	11-12-2024	08:52:51.107	1306.686	37.573	OK
11-12-2024	08:52:51.207	1306.786	7.502	7.502	27.501	936	0	1.0888	OK	11-12-2024	08:52:51.207	1306.786	37.573	OK
11-12-2024	08:52:51.307	1306.886	7.503	7.503	27.505	936	0	1.0886	OK	11-12-2024	08:52:51.307	1306.886	37.572	OK
11-12-2024	08:52:51.407	1306.986	7.502	7.502	27.502	936	0	1.0888	OK	11-12-2024	08:52:51.407	1306.986	37.572	OK
11-12-2024	08:52:51.580	1307.159	7.503	7.503	27.506	936	0	1.0884	OK	11-12-2024	08:52:51.580	1307.159	37.572	OK
11-12-2024	08:52:51.834	1307.413	7.503	7.503	27.510	936	0	1.0882	OK	11-12-2024	08:52:51.834	1307.413	37.572	OK
11-12-2024	08:52:52.008	1307.587	7.503	7.503	27.509	936	0	1.0882	OK	11-12-2024	08:52:52.008	1307.587	37.572	OK
11-12-2024	08:52:52.109	1307.688	7.502	7.502	27.504	936	0	1.0886	OK	11-12-2024	08:52:52.109	1307.688	37.572	OK
11-12-2024	08:52:52.208	1307.787	7.502	7.502	27.501	936	0	1.0888	OK	11-12-2024	08:52:52.208	1307.787	37.572	OK
11-12-2024	08:52:52.309	1307.888	7.502	7.502	27.500	936	0	1.0888	OK	11-12-2024	08:52:52.309	1307.888	37.572	OK
11-12-2024	08:52:52.408	1307.987	7.502	7.502	27.504	936	0	1.0886	OK	11-12-2024	08:52:52.408	1307.987	37.572	OK
11-12-2024	08:52:52.577	1308.156	7.503	7.503	27.507	936	0	1.0884	OK	11-12-2024	08:52:52.577	1308.156	37.573	OK
11-12-2024	08:52:52.847	1308.426	7.503	7.503	27.511	937	0	1.0881	OK	11-12-2024	08:52:52.847	1308.426	37.572	OK
11-12-2024	08:52:53.009	1308.588	7.503	7.503	27.510	936	0	1.0882	OK	11-12-2024	08:52:53.009	1308.588	37.571	OK
11-12-2024	08:52:53.109	1308.688	7.502	7.502	27.502	936	0	1.0887	OK	11-12-2024	08:52:53.109	1308.688	37.570	OK
11-12-2024	08:52:53.210	1308.789	7.502	7.502	27.503	936	0	1.0886	OK	11-12-2024	08:52:53.210	1308.789	37.570	OK
11-12-2024	08:52:53.308	1308.887	7.502	7.502	27.502	936	0	1.0887	OK	11-12-2024	08:52:53.308	1308.887	37.570	OK
11-12-2024	08:52:53.408	1308.987	7.502	7.502	27.502	936	0	1.0887	OK	11-12-2024	08:52:53.408	1308.987	37.570	OK
11-12-2024	08:52:53.595	1309.174	7.502	7.502	27.503	936	0	1.0887	OK	11-12-2024	08:52:53.595	1309.174	37.571	OK
11-12-2024	08:52:53.855	1309.434	7.503	7.503	27.507	936	0	1.0884	OK	11-12-2024	08:52:53.855	1309.434	37.571	OK
11-12-2024	08:52:54.010	1309.589	7.503	7.503	27.507	936	0	1.0884	OK	11-12-2024	08:52:54.010	1309.589	37.570	OK
11-12-2024	08:52:54.109	1309.688	7.503	7.503	27.505	936	0	1.0886	OK	11-12-2024	08:52:54.109	1309.688	37.569	OK
11-12-2024	08:52:54.211	1309.790	7.502	7.502	27.504	936	0	1.0886	OK	11-12-2024	08:52:54.211	1309.790	37.569	OK
11-12-2024	08:52:54.411	1309.990	7.503	7.503	27.508	936	0	1.0883	OK	11-12-2024	08:52:54.411	1309.990	37.568	OK
11-12-2024	08:52:54.582	1310.161	7.502	7.502	27.503	936	0	1.0887	OK	11-12-2024	08:52:54.582	1310.161	37.569	OK
11-12-2024	08:52:54.841	1310.420	7.504	7.504	27.513	936	0	1.0879	OK	11-12-2024	08:52:54.841	1310.420	37.570	OK
11-12-2024	08:52:55.012	1310.591	7.503	7.503	27.510	936	0	1.0882	OK	11-12-2024	08:52:55.012	1310.591	37.569	OK
11-12-2024	08:52:55.113	1310.692	7.502	7.502	27.502	936	0	1.0887	OK	11-12-2024	08:52:55.113	1310.692	37.569	OK
11-12-2024	08:52:55.212	1310.791	7.502	7.502	27.502	936	0	1.0887	OK	11-12-2024	08:52:55.212	1310.791	37.569	OK
11-12-2024	08:52:55.313	1310.892	7.502	7.502	27.501	936	0	1.0888	OK	11-12-2024	08:52:55.313	1310.892	37.569	OK
11-12-2024	08:52:55.414	1310.993	7.502	7.502	27.501	936	0	1.0888	OK	11-12-2024	08:52:55.414	1310.993	37.569	OK
11-12-2024	08:52:55.586	1311.165	7.502	7.502	27.502	936	0	1.0887	OK	11-12-2024	08:52:55.586	1311.165	37.568	OK
11-12-2024	08:52:55.845	1311.424	7.503	7.503	27.506	936	0	1.0884	OK	11-12-2024	08:52:55.845	1311.424	37.568	OK
11-12-2024	08:52:56.013	1311.592	7.503	7.503	27.508	936	0	1.0883	OK	11-12-2024	08:52:56.013	1311.592	37.569	OK
11-12-2024	08:52:56.114	1311.693	7.502	7.502	27.501	936	0	1.0888	OK	11-12-2024	08:52:56.114	1311.693	37.569	OK
11-12-2024	08:52:56.314	1311.893	7.502	7.502	27.503	936	0	1.0886	OK	11-12-2024	08:52:56.314	1311.893	37.569	OK
11-12-2024	08:52:56.414	1311.993	7.502	7.502	27.503	936	0	1.0886	OK	11-12-2024	08:52:56.414	1311.993	37.571	OK
11-12-2024	08:52:56.586	1312.165	7.503	7.503	27.507	936	0	1.0884	OK	11-12-2024	08:52:56.586	1312.165	37.572	OK
11-12-2024	08:52:56.846	1312.425	7.504	7.504	27.514	936	0	1.0879	OK	11-12-2024	08:52:56.846	1312.425	37.571	OK
11-12-2024	08:52:57.017	1312.596	7.503	7.503	27.509	936	0	1.0883	OK	11-12-2024	08:52:57.017	1312.596	37.571	OK
11-12-2024	08:52:57.117	1312.696	7.502	7.502	27.504	936	0	1.0886	OK	11-12-2024	08:52:57.117	1312.696	37.571	OK
11-12-2024	08:52:57.218	1312.797	7.502	7.502	27.502	936	0	1.0888	OK	11-12-2024	08:52:57.218	1312.797	37.572	OK
11-12-2024	08:52:57.319	1312.898	7.502	7.502	27.503	936	0	1.0887	OK	11-12-2024	08:52:57.319	1312.898	37.572	OK
11-12-2024	08:52:57.419	1312.998	7.502	7.502	27.503	936	0	1.0887	OK	11-12-2024	08:52:57.419	1312.998	37.572	OK
11-12-2024	08:52:57.589	1313.168	7.503	7.503	27.507	936	0	1.0884	OK	11-12-2024	08:52:57.589	1313.168	37.574	OK
11-12-2024	08:52:57.850	1313.429	7.503	7.503	27.509	936	0	1.0883	OK	11-12-2024	08:52:57.850	1313.429	37.574	OK
11-12-2024	08:52:58.018	1313.597	7.503	7.503	27.507	936	0	1.0884	OK	11-12-2024	08:52:58.018	1313.597	37.574	OK
11-12-2024	08:52:58.117	1313.696	7.502	7.502	27.503	936	0	1.0887	OK	11-12-2024	08:52:58.117	1313.696	37.574	OK
11-12-2024	08:52:58.219	1313.798	7.501	7.501	27.497	936	0	1.0891	OK	11-12-2024	08:52:58.219	1313.798	37.575	OK
11-12-2024	08:52:58.320	1313.899	7.502	7.502	27.502	936	0	1.0888	OK	11-12-2024	08:52:58.320	1313.899	37.575	OK
11-12-2024	08:52:58.420	1313.999	7.502	7.502	27.499	936	0	1.0890	OK	11-12-2024	08:52:58.420	1313.999	37.575	OK
11-12-2024	08:52:58.589	1314.168	7.502	7.502	27.502	936	0	1.0888	OK	11-12-2024	08:52:58.589	1314.168	37.575	OK
11-12-2024	08:52:58.861	1314.440	7.503	7.503	27.509	936	0	1.0882	OK	11-12-2024	08:52:58.861	1314.440	37.576	OK
11-12-2024	08:52:59.021	1314.600	7.503	7.503	27.508	936	0	1.0883	OK	11-12-2024	08:52:59.021	1314.600	37.575	OK
11-12-2024	08:52:59.121	1314.700	7.503	7.503	27.509	936	0	1.0882	OK	11-12-2024	08:52:59.121	1314.700	37.575	OK
11-12-2024	08:52:59.221	1314.800	7.502	7.502	27.502	936	0	1.0887	OK	11-12-2024	08:52:59.221	1314.800	37.576	OK
11-12-2024	08:52:59.320	1314.899	7.502	7.502	27.503	936	0	1.0886	OK	11-12-2024	08:52:59.320	1314.899	37.576	OK
11-12-2024	08:52:59.420	1314.999	7.502	7.502	27.500	936	0	1.0888	OK	11-12-2024	08:52:59.420	1314.999	37.577	OK
11-12-2024	08:52:59.589	1315.168	7.502	7.502	27.502	936	0	1.0887	OK	11-12-2024	08:52:59.589	1315.168	37.577	OK
11-12-2024	08:52:59.844	1315.423	7.503	7.503	27.509	936	0	1.0882	OK	11-12-2024	08:52:59.844	1315.423	37.577	OK
11-12-2024	08:53:00.020	1315.599	7.503	7.503	27.506	936	0	1.0884	OK	11-12-2024	08:53:00.020	1315.599	37.576	OK
11-12-2024	08:53:00.120	1315.699	7.502	7.502	27.499	936	0	1.0889	OK	11-12-2024	08:53:00.120	1315.699	37.576	OK
11-12-2024	08:53:00.221	1315.800	7.502	7.502	27.503	936	0	1.0886	OK	11-12-2024	08:53:00.221	1315.800	37.578	OK
11-12-2024	08:53:00.322	1315.901	7.502	7.502	27.501	936	0	1.0888	OK	11-12-2024	08:53:00.322	1315.901	37.578	OK
11-12-2024	08:53:00.422	1316.001	7.502	7.502	27.498	936	0	1.0890	OK	11-12-2024	08:53:00.422	1316.001	37.578	OK
11-12-2024	08:53:00.595	1316.174	7.502	7.502	27.504	936	0	1.0886	OK	11-12-2024	08:53:00.595	1316.174	37.577	OK
11-12-2024	08:53:00.864	1316.443	7.503	7.503	27.511	936	0	1.0881	OK	11-12-2024	08:53:00.864	1316.443	37.578	OK
11-12-2024	08:53:01.022	1316.601	7.503	7.503	27.505	936	0	1.0885	OK	11-12-2024	08:53:01.022	1316.601	37.578	OK
11-12-2024	08:53:01.124	1316.703	7.502	7.502	27.502	936	0	1.0887	OK	11-12-2024	08:53:01.124	1316.703	37.578	OK
11-12-2024	08:53:01.226	1316.805	7.502	7.502	27.500	936	0	1.0888	OK	11-12-2024	08:53:01.226	1316.805	37.578	OK
11-12-2024	08:53:01.326	1316.905	7.502	7.502	27.500	936	0	1.0888	OK	11-12-2024	08:53:01.326	1316.905	37.578	OK
11-12-2024	08:53:01.427	1317.006	7.502	7.502	27.503	936	0	1.0886	OK	11-12-2024	08:53:01.427	1317.006	37.578	OK
11-12-2024	08:53:01.599	1317.178	7.502	7.502	27.503	936	0	1.0886	OK	11-12-2024	08:53:01.599	1317.178	37.578	OK
11-12-2024	08:53:01.869	1317.448	7.503	7.503	27.507	936	0	1.0884	OK	11-12-2024	08:53:01.869	1317.448	37.577	OK
11-12-2024	08:53:02.030	1317.609	7.503	7.503	27.509	936	0	1.0882	OK	11-12-2024	08:53:02.030	1317.609	37.577	OK
11-12-2024	08:53:02.130	1317.709	7.502	7.502	27.502	936	0	1.0887	OK	11-12-2024	08:53:02.130	1317.709	37.577	OK
11-12-2024	08:53:02.229	1317.808	7.502	7.502	27.504	936	0	1.0886	OK	11-12-2024	08:53:02.229	1317.808	37.577	OK
11-12-2024	08:53:02.330	1317.909	7.502	7.502	27.503	936	0	1.0886	OK	11-12-2024	08:53:02.330	1317.909	37.577	OK
11-12-2024	08:53:02.432	1318.011	7.502	7.502	27.499	936	0	1.0889	OK	11-12-2024	08:53:02.432	1318.011	37.575	OK
11-12-2024	08:53:02.602	1318.181	7.503	7.503	27.505	936	0	1.0885	OK	11-12-2024	08:53:02.602	1318.181	37.575	OK
11-12-2024	08:53:02.861	1318.440	7.503	7.503	27.507	936	0	1.0884	OK	11-12-2024	08:53:02.861	1318.440	37.574	OK
11-12-2024	08:53:03.034	1318.613	7.503	7.503	27.510	936	0	1.0882	OK	11-12-2024	08:53:03.034	1318.613	37.574	OK
11-12-2024	08:53:03.134	1318.713	7.502	7.502	27.501	936	0	1.0888	OK	11-12-2024	08:53:03.134	1318.713	37.574	OK
11-12-2024	08:53:03.235	1318.814	7.502	7.502	27.499	936	0	1.0889	OK	11-12-2024	08:53:03.235	1318.814	37.575	OK
11-12-2024	08:53:03.435	1319.014	7.503	7.503	27.511	936	0	1.0881	OK	11-12-2024	08:53:03.435	1319.014	37.573	OK
11-12-2024	08:53:03.606	1319.185	7.503	7.503	27.505	936	0	1.0885	OK	11-12-2024	08:53:03.606	1319.185	37.573	OK
11-12-2024	08:53:03.863	1319.442	7.503	7.503	27.511	936	0	1.0881	OK	11-12-2024	08:53:03.863	1319.442	37.574	OK
11-12-2024	08:53:04.035	1319.614	7.503	7.503	27.506	936	0	1.0884	OK	11-12-2024	08:53:04.035	1319.614	37.573	OK
11-12-2024	08:53:04.136	1319.715	7.503	7.503	27.508	936	0	1.0883	OK	11-12-2024	08:53:04.136	1319.715	37.573	OK
11-12-2024	08:53:04.235	1319.814	7.502	7.502	27.502	936	0	1.0887	OK	11-12-2024	08:53:04.235	1319.814	37.573	OK
11-12-2024	08:53:04.335	1319.914	7.502	7.502	27.504	936	0	1.0886	OK	11-12-2024	08:53:04.335	1319.914	37.574	OK
11-12-2024	08:53:04.437	1320.016	7.502	7.502	27.499	936	0	1.0889	OK	11-12-2024	08:53:04.437	1320.016	37.574	OK
11-12-2024	08:53:04.607	1320.186	7.503	7.503	27.506	936	0	1.0884	OK	11-12-2024	08:53:04.607	1320.186	37.573	OK
11-12-2024	08:53:04.866	1320.445	7.503	7.503	27.509	936	0	1.0883	OK	11-12-2024	08:53:04.866	1320.445	37.573	OK
11-12-2024	08:53:05.038	1320.617	7.503	7.503	27.508	936	0	1.0883	OK	11-12-2024	08:53:05.038	1320.617	37.573	OK
11-12-2024	08:53:05.137	1320.716	7.503	7.503	27.506	936	0	1.0885	OK	11-12-2024	08:53:05.137	1320.716	37.574	OK
11-12-2024	08:53:05.239	1320.818	7.502	7.502	27.503	936	0	1.0887	OK	11-12-2024	08:53:05.239	1320.818	37.574	OK
11-12-2024	08:53:05.440	1321.019	7.503	7.503	27.506	936	0	1.0885	OK	11-12-2024	08:53:05.440	1321.019	37.575	OK
11-12-2024	08:53:05.608	1321.187	7.503	7.503	27.506	936	0	1.0885	OK	11-12-2024	08:53:05.608	1321.187	37.575	OK
11-12-2024	08:53:05.861	1321.440	7.503	7.503	27.510	936	0	1.0882	OK	11-12-2024	08:53:05.861	1321.440	37.576	OK
11-12-2024	08:53:06.041	1321.620	7.503	7.503	27.508	936	0	1.0883	OK	11-12-2024	08:53:06.041	1321.620	37.576	OK
11-12-2024	08:53:06.141	1321.720	7.503	7.503	27.505	936	0	1.0885	OK	11-12-2024	08:53:06.141	1321.720	37.575	OK
11-12-2024	08:53:06.242	1321.821	7.503	7.503	27.505	936	0	1.0885	OK	11-12-2024	08:53:06.242	1321.821	37.575	OK
11-12-2024	08:53:06.342	1321.921	7.502	7.502	27.501	936	0	1.0888	OK	11-12-2024	08:53:06.342	1321.921	37.576	OK
11-12-2024	08:53:06.441	1322.020	7.502	7.502	27.501	936	0	1.0888	OK	11-12-2024	08:53:06.441	1322.020	37.576	OK
11-12-2024	08:53:06.613	1322.192	7.503	7.503	27.505	936	0	1.0885	OK	11-12-2024	08:53:06.613	1322.192	37.575	OK
11-12-2024	08:53:06.891	1322.470	7.503	7.503	27.509	936	0	1.0883	OK	11-12-2024	08:53:06.891	1322.470	37.575	OK
11-12-2024	08:53:07.041	1322.620	7.503	7.503	27.508	936	0	1.0883	OK	11-12-2024	08:53:07.041	1322.620	37.575	OK
11-12-2024	08:53:07.142	1322.721	7.503	7.503	27.506	936	0	1.0885	OK	11-12-2024	08:53:07.142	1322.721	37.576	OK
11-12-2024	08:53:07.241	1322.820	7.502	7.502	27.500	936	0	1.0889	OK	11-12-2024	08:53:07.241	1322.820	37.576	OK
11-12-2024	08:53:07.341	1322.920	7.502	7.502	27.504	936	0	1.0886	OK	11-12-2024	08:53:07.341	1322.920	37.575	OK
11-12-2024	08:53:07.440	1323.019	7.501	7.501	27.495	936	0	1.0892	OK	11-12-2024	08:53:07.440	1323.019	37.575	OK
11-12-2024	08:53:07.609	1323.188	7.502	7.502	27.505	936	0	1.0886	OK	11-12-2024	08:53:07.609	1323.188	37.574	OK
11-12-2024	08:53:07.863	1323.442	7.503	7.503	27.508	936	0	1.0883	OK	11-12-2024	08:53:07.863	1323.442	37.575	OK
11-12-2024	08:53:08.041	1323.620	7.503	7.503	27.511	936	0	1.0881	OK	11-12-2024	08:53:08.041	1323.620	37.575	OK
11-12-2024	08:53:08.141	1323.720	7.503	7.503	27.507	936	0	1.0884	OK	11-12-2024	08:53:08.141	1323.720	37.574	OK
11-12-2024	08:53:08.241	1323.820	7.502	7.502	27.503	936	0	1.0887	OK	11-12-2024	08:53:08.241	1323.820	37.574	OK
11-12-2024	08:53:08.341	1323.920	7.502	7.502	27.505	936	0	1.0886	OK	11-12-2024	08:53:08.341	1323.920	37.574	OK
11-12-2024	08:53:08.442	1324.021	7.502	7.502	27.505	936	0	1.0886	OK	11-12-2024	08:53:08.442	1324.021	37.574	OK
11-12-2024	08:53:08.611	1324.190	7.503	7.503	27.508	936	0	1.0883	OK	11-12-2024	08:53:08.611	1324.190	37.574	OK
11-12-2024	08:53:08.867	1324.446	7.503	7.503	27.507	936	0	1.0884	OK	11-12-2024	08:53:08.867	1324.446	37.574	OK
11-12-2024	08:53:09.041	1324.620	7.503	7.503	27.508	936	0	1.0883	OK	11-12-2024	08:53:09.041	1324.620	37.573	OK
11-12-2024	08:53:09.140	1324.719	7.503	7.503	27.508	936	0	1.0883	OK	11-12-2024	08:53:09.140	1324.719	37.574	OK
11-12-2024	08:53:09.241	1324.820	7.502	7.502	27.504	936	0	1.0886	OK	11-12-2024	08:53:09.241	1324.820	37.574	OK
11-12-2024	08:53:09.341	1324.920	7.502	7.502	27.499	936	0	1.0890	OK	11-12-2024	08:53:09.341	1324.920	37.574	OK
11-12-2024	08:53:09.440	1325.019	7.502	7.502	27.501	936	0	1.0888	OK	11-12-2024	08:53:09.440	1325.019	37.574	OK
11-12-2024	08:53:09.630	1325.209	7.503	7.503	27.509	936	0	1.0883	OK	11-12-2024	08:53:09.630	1325.209	37.574	OK
11-12-2024	08:53:09.884	1325.463	7.503	7.503	27.509	936	0	1.0882	OK	11-12-2024	08:53:09.884	1325.463	37.575	OK
11-12-2024	08:53:10.041	1325.620	7.503	7.503	27.506	936	0	1.0884	OK	11-12-2024	08:53:10.041	1325.620	37.574	OK
11-12-2024	08:53:10.141	1325.720	7.502	7.502	27.501	936	0	1.0888	OK	11-12-2024	08:53:10.141	1325.720	37.574	OK
11-12-2024	08:53:10.242	1325.820	7.502	7.502	27.499	936	0	1.0889	OK	11-12-2024	08:53:10.242	1325.820	37.574	OK
11-12-2024	08:53:10.340	1325.919	7.502	7.502	27.498	936	0	1.0890	OK	11-12-2024	08:53:10.340	1325.919	37.573	OK
11-12-2024	08:53:10.441	1326.020	7.502	7.502	27.499	936	0	1.0889	OK	11-12-2024	08:53:10.441	1326.020	37.573	OK
11-12-2024	08:53:10.611	1326.190	7.502	7.502	27.503	936	0	1.0886	OK	11-12-2024	08:53:10.611	1326.190	37.574	OK
11-12-2024	08:53:10.868	1326.447	7.503	7.503	27.508	936	0	1.0883	OK	11-12-2024	08:53:10.868	1326.447	37.574	OK
11-12-2024	08:53:11.041	1326.620	7.503	7.503	27.506	936	0	1.0884	OK	11-12-2024	08:53:11.041	1326.620	37.574	OK
11-12-2024	08:53:11.142	1326.720	7.502	7.502	27.503	936	0	1.0886	OK	11-12-2024	08:53:11.142	1326.720	37.574	OK
11-12-2024	08:53:11.241	1326.820	7.502	7.502	27.500	936	0	1.0888	OK	11-12-2024	08:53:11.241	1326.820	37.574	OK
11-12-2024	08:53:11.341	1326.920	7.502	7.502	27.499	936	0	1.0889	OK	11-12-2024	08:53:11.341	1326.920	37.575	OK
11-12-2024	08:53:11.442	1327.021	7.502	7.502	27.498	936	0	1.0890	OK	11-12-2024	08:53:11.442	1327.021	37.575	OK
11-12-2024	08:53:11.610	1327.189	7.502	7.502	27.501	936	0	1.0888	OK	11-12-2024	08:53:11.610	1327.189	37.575	OK
11-12-2024	08:53:11.867	1327.446	7.503	7.503	27.509	936	0	1.0882	OK	11-12-2024	08:53:11.867	1327.446	37.575	OK
11-12-2024	08:53:12.043	1327.622	7.502	7.502	27.503	936	0	1.0886	OK	11-12-2024	08:53:12.043	1327.622	37.574	OK
11-12-2024	08:53:12.142	1327.721	7.502	7.502	27.503	936	0	1.0886	OK	11-12-2024	08:53:12.142	1327.721	37.574	OK
11-12-2024	08:53:12.242	1327.821	7.502	7.502	27.503	936	0	1.0886	OK	11-12-2024	08:53:12.242	1327.821	37.574	OK
11-12-2024	08:53:12.342	1327.921	7.502	7.502	27.502	936	0	1.0887	OK	11-12-2024	08:53:12.342	1327.921	37.574	OK
11-12-2024	08:53:12.442	1328.021	7.502	7.502	27.498	936	0	1.0890	OK	11-12-2024	08:53:12.442	1328.021	37.574	OK
11-12-2024	08:53:12.611	1328.190	7.502	7.502	27.503	936	0	1.0886	OK	11-12-2024	08:53:12.611	1328.190	37.574	OK
11-12-2024	08:53:12.884	1328.463	7.503	7.503	27.507	936	0	1.0884	OK	11-12-2024	08:53:12.884	1328.463	37.575	OK
11-12-2024	08:53:13.043	1328.622	7.503	7.503	27.504	936	0	1.0885	OK	11-12-2024	08:53:13.043	1328.622	37.574	OK
11-12-2024	08:53:13.142	1328.721	7.502	7.502	27.502	936	0	1.0887	OK	11-12-2024	08:53:13.142	1328.721	37.574	OK
11-12-2024	08:53:13.242	1328.821	7.502	7.502	27.498	936	0	1.0889	OK	11-12-2024	08:53:13.242	1328.821	37.575	OK
11-12-2024	08:53:13.341	1328.920	7.502	7.502	27.500	936	0	1.0888	OK	11-12-2024	08:53:13.341	1328.920	37.575	OK
11-12-2024	08:53:13.442	1329.021	7.502	7.502	27.498	936	0	1.0889	OK	11-12-2024	08:53:13.442	1329.021	37.575	OK
11-12-2024	08:53:13.612	1329.191	7.502	7.502	27.501	936	0	1.0887	OK	11-12-2024	08:53:13.612	1329.191	37.575	OK
11-12-2024	08:53:13.867	1329.446	7.503	7.503	27.505	936	0	1.0885	OK	11-12-2024	08:53:13.867	1329.446	37.575	OK
11-12-2024	08:53:14.043	1329.622	7.503	7.503	27.507	936	0	1.0884	OK	11-12-2024	08:53:14.043	1329.622	37.575	OK
11-12-2024	08:53:14.143	1329.722	7.502	7.502	27.504	936	0	1.0886	OK	11-12-2024	08:53:14.143	1329.722	37.575	OK
11-12-2024	08:53:14.243	1329.822	7.502	7.502	27.501	936	0	1.0888	OK	11-12-2024	08:53:14.243	1329.822	37.575	OK
11-12-2024	08:53:14.343	1329.922	7.502	7.502	27.501	936	0	1.0888	OK	11-12-2024	08:53:14.343	1329.922	37.575	OK
11-12-2024	08:53:14.444	1330.023	7.502	7.502	27.499	936	0	1.0889	OK	11-12-2024	08:53:14.444	1330.023	37.575	OK
11-12-2024	08:53:14.618	1330.197	7.502	7.502	27.503	936	0	1.0886	OK	11-12-2024	08:53:14.618	1330.197	37.575	OK
11-12-2024	08:53:14.871	1330.450	7.503	7.503	27.505	936	0	1.0885	OK	11-12-2024	08:53:14.871	1330.450	37.574	OK
11-12-2024	08:53:15.045	1330.624	7.502	7.502	27.503	936	0	1.0886	OK	11-12-2024	08:53:15.045	1330.624	37.574	OK
11-12-2024	08:53:15.146	1330.725	7.503	7.503	27.506	936	0	1.0884	OK	11-12-2024	08:53:15.146	1330.725	37.574	OK
11-12-2024	08:53:15.345	1330.924	7.503	7.503	27.508	936	0	1.0883	OK	11-12-2024	08:53:15.345	1330.924	37.576	OK
11-12-2024	08:53:15.446	1331.025	7.503	7.503	27.506	936	0	1.0884	OK	11-12-2024	08:53:15.446	1331.025	37.575	OK
11-12-2024	08:53:15.617	1331.196	7.503	7.503	27.510	936	0	1.0881	OK	11-12-2024	08:53:15.617	1331.196	37.575	OK
11-12-2024	08:53:15.873	1331.452	7.503	7.503	27.510	936	0	1.0881	OK	11-12-2024	08:53:15.873	1331.452	37.575	OK
11-12-2024	08:53:16.046	1331.625	7.503	7.503	27.510	936	0	1.0882	OK	11-12-2024	08:53:16.046	1331.625	37.575	OK
11-12-2024	08:53:16.145	1331.724	7.503	7.503	27.507	936	0	1.0884	OK	11-12-2024	08:53:16.145	1331.724	37.575	OK
11-12-2024	08:53:16.246	1331.825	7.503	7.503	27.507	936	0	1.0884	OK	11-12-2024	08:53:16.246	1331.825	37.576	OK
11-12-2024	08:53:16.346	1331.925	7.502	7.502	27.500	936	0	1.0888	OK	11-12-2024	08:53:16.346	1331.925	37.576	OK
11-12-2024	08:53:16.446	1332.025	7.503	7.503	27.506	936	0	1.0884	OK	11-12-2024	08:53:16.446	1332.025	37.576	OK
11-12-2024	08:53:16.617	1332.196	7.503	7.503	27.507	936	0	1.0884	OK	11-12-2024	08:53:16.617	1332.196	37.576	OK
11-12-2024	08:53:16.876	1332.455	7.504	7.504	27.513	936	0	1.0879	OK	11-12-2024	08:53:16.876	1332.455	37.577	OK
11-12-2024	08:53:17.047	1332.625	7.503	7.503	27.511	936	0	1.0881	OK	11-12-2024	08:53:17.047	1332.625	37.577	OK
11-12-2024	08:53:17.146	1332.725	7.503	7.503	27.508	936	0	1.0883	OK	11-12-2024	08:53:17.146	1332.725	37.577	OK
11-12-2024	08:53:17.246	1332.825	7.503	7.503	27.507	936	0	1.0884	OK	11-12-2024	08:53:17.246	1332.825	37.576	OK
11-12-2024	08:53:17.346	1332.925	7.502	7.502	27.504	936	0	1.0886	OK	11-12-2024	08:53:17.346	1332.925	37.576	OK
11-12-2024	08:53:17.446	1333.025	7.502	7.502	27.503	936	0	1.0886	OK	11-12-2024	08:53:17.446	1333.025	37.577	OK
11-12-2024	08:53:17.614	1333.193	7.503	7.503	27.506	936	0	1.0884	OK	11-12-2024	08:53:17.614	1333.193	37.577	OK
11-12-2024	08:53:17.872	1333.450	7.503	7.503	27.509	936	0	1.0882	OK	11-12-2024	08:53:17.872	1333.450	37.577	OK
11-12-2024	08:53:18.046	1333.625	7.503	7.503	27.511	936	0	1.0880	OK	11-12-2024	08:53:18.046	1333.625	37.578	OK
11-12-2024	08:53:18.146	1333.725	7.503	7.503	27.509	936	0	1.0882	OK	11-12-2024	08:53:18.146	1333.725	37.578	OK
11-12-2024	08:53:18.246	1333.825	7.503	7.503	27.505	936	0	1.0885	OK	11-12-2024	08:53:18.246	1333.825	37.578	OK
11-12-2024	08:53:18.346	1333.925	7.503	7.503	27.506	936	0	1.0884	OK	11-12-2024	08:53:18.346	1333.925	37.578	OK
11-12-2024	08:53:18.446	1334.025	7.502	7.502	27.501	936	0	1.0887	OK	11-12-2024	08:53:18.446	1334.025	37.578	OK
11-12-2024	08:53:18.615	1334.194	7.502	7.502	27.500	936	0	1.0888	OK	11-12-2024	08:53:18.615	1334.194	37.578	OK
11-12-2024	08:53:18.872	1334.451	7.503	7.503	27.510	936	0	1.0881	OK	11-12-2024	08:53:18.872	1334.451	37.578	OK
11-12-2024	08:53:19.045	1334.624	7.503	7.503	27.510	936	0	1.0882	OK	11-12-2024	08:53:19.045	1334.624	37.579	OK
11-12-2024	08:53:19.146	1334.725	7.503	7.503	27.505	936	0	1.0885	OK	11-12-2024	08:53:19.146	1334.725	37.579	OK
11-12-2024	08:53:19.246	1334.825	7.502	7.502	27.501	936	0	1.0888	OK	11-12-2024	08:53:19.246	1334.825	37.579	OK
11-12-2024	08:53:19.348	1334.927	7.502	7.502	27.504	936	0	1.0886	OK	11-12-2024	08:53:19.348	1334.927	37.578	OK
11-12-2024	08:53:19.445	1335.023	7.502	7.502	27.501	936	0	1.0888	OK	11-12-2024	08:53:19.445	1335.023	37.578	OK
11-12-2024	08:53:19.618	1335.197	7.502	7.502	27.503	936	0	1.0886	OK	11-12-2024	08:53:19.618	1335.197	37.578	OK
11-12-2024	08:53:19.874	1335.453	7.503	7.503	27.509	936	0	1.0882	OK	11-12-2024	08:53:19.874	1335.453	37.576	OK
11-12-2024	08:53:20.048	1335.627	7.503	7.503	27.506	936	0	1.0884	OK	11-12-2024	08:53:20.048	1335.627	37.576	OK
11-12-2024	08:53:20.149	1335.728	7.502	7.502	27.500	936	0	1.0888	OK	11-12-2024	08:53:20.149	1335.728	37.575	OK
11-12-2024	08:53:20.249	1335.828	7.502	7.502	27.502	936	0	1.0887	OK	11-12-2024	08:53:20.249	1335.828	37.575	OK
11-12-2024	08:53:20.349	1335.928	7.502	7.502	27.501	936	0	1.0888	OK	11-12-2024	08:53:20.349	1335.928	37.574	OK
11-12-2024	08:53:20.449	1336.028	7.502	7.502	27.501	936	0	1.0888	OK	11-12-2024	08:53:20.449	1336.028	37.574	OK
11-12-2024	08:53:20.635	1336.214	7.502	7.502	27.503	936	0	1.0886	OK	11-12-2024	08:53:20.635	1336.214	37.576	OK
11-12-2024	08:53:20.890	1336.469	7.503	7.503	27.507	936	0	1.0884	OK	11-12-2024	08:53:20.890	1336.469	37.574	OK
11-12-2024	08:53:21.049	1336.628	7.503	7.503	27.506	936	0	1.0884	OK	11-12-2024	08:53:21.049	1336.628	37.574	OK
11-12-2024	08:53:21.150	1336.729	7.502	7.502	27.501	936	0	1.0887	OK	11-12-2024	08:53:21.150	1336.729	37.574	OK
11-12-2024	08:53:21.250	1336.829	7.502	7.502	27.500	936	0	1.0888	OK	11-12-2024	08:53:21.250	1336.829	37.574	OK
11-12-2024	08:53:21.350	1336.928	7.502	7.502	27.500	936	0	1.0888	OK	11-12-2024	08:53:21.350	1336.928	37.573	OK
11-12-2024	08:53:21.450	1337.029	7.502	7.502	27.499	936	0	1.0889	OK	11-12-2024	08:53:21.450	1337.029	37.573	OK
11-12-2024	08:53:21.619	1337.198	7.503	7.503	27.508	936	0	1.0883	OK	11-12-2024	08:53:21.619	1337.198	37.573	OK
11-12-2024	08:53:21.879	1337.458	7.503	7.503	27.507	936	0	1.0883	OK	11-12-2024	08:53:21.879	1337.458	37.572	OK
11-12-2024	08:53:22.052	1337.631	7.503	7.503	27.507	936	0	1.0883	OK	11-12-2024	08:53:22.052	1337.631	37.571	OK
11-12-2024	08:53:22.151	1337.730	7.503	7.503	27.505	936	0	1.0885	OK	11-12-2024	08:53:22.151	1337.730	37.571	OK
11-12-2024	08:53:22.253	1337.832	7.503	7.503	27.504	936	0	1.0885	OK	11-12-2024	08:53:22.253	1337.832	37.571	OK
11-12-2024	08:53:22.353	1337.932	7.502	7.502	27.502	936	0	1.0887	OK	11-12-2024	08:53:22.353	1337.932	37.570	OK
11-12-2024	08:53:22.554	1338.133	7.503	7.503	27.504	936	0	1.0885	OK	11-12-2024	08:53:22.554	1338.133	37.570	OK
11-12-2024	08:53:22.809	1338.388	7.503	7.503	27.507	936	0	1.0883	OK	11-12-2024	08:53:22.809	1338.388	37.570	OK
11-12-2024	08:53:22.954	1338.533	7.503	7.503	27.506	936	0	1.0884	OK	11-12-2024	08:53:22.954	1338.533	37.570	OK
11-12-2024	08:53:23.054	1338.633	7.503	7.503	27.505	936	0	1.0885	OK	11-12-2024	08:53:23.054	1338.633	37.570	OK
11-12-2024	08:53:23.153	1338.732	7.502	7.502	27.503	936	0	1.0886	OK	11-12-2024	08:53:23.153	1338.732	37.571	OK
11-12-2024	08:53:23.254	1338.833	7.502	7.502	27.501	936	0	1.0888	OK	11-12-2024	08:53:23.254	1338.833	37.571	OK
11-12-2024	08:53:23.354	1338.933	7.502	7.502	27.501	936	0	1.0888	OK	11-12-2024	08:53:23.354	1338.933	37.570	OK
11-12-2024	08:53:23.454	1339.033	7.502	7.502	27.497	936	0	1.0891	OK	11-12-2024	08:53:23.454	1339.033	37.570	OK
11-12-2024	08:53:23.640	1339.219	7.503	7.503	27.507	936	0	1.0884	OK	11-12-2024	08:53:23.640	1339.219	37.570	OK
11-12-2024	08:53:23.896	1339.475	7.503	7.503	27.508	936	0	1.0883	OK	11-12-2024	08:53:23.896	1339.475	37.570	OK
11-12-2024	08:53:24.054	1339.633	7.504	7.504	27.511	936	0	1.0881	OK	11-12-2024	08:53:24.054	1339.633	37.569	OK
11-12-2024	08:53:24.154	1339.733	7.503	7.503	27.508	936	0	1.0883	OK	11-12-2024	08:53:24.154	1339.733	37.570	OK
11-12-2024	08:53:24.254	1339.833	7.503	7.503	27.505	936	0	1.0885	OK	11-12-2024	08:53:24.254	1339.833	37.570	OK
11-12-2024	08:53:24.354	1339.933	7.503	7.503	27.505	936	0	1.0885	OK	11-12-2024	08:53:24.354	1339.933	37.570	OK
11-12-2024	08:53:24.555	1340.134	7.503	7.503	27.507	936	0	1.0883	OK	11-12-2024	08:53:24.555	1340.134	37.570	OK
11-12-2024	08:53:24.810	1340.389	7.504	7.504	27.512	936	0	1.0880	OK	11-12-2024	08:53:24.810	1340.389	37.570	OK
11-12-2024	08:53:24.955	1340.534	7.503	7.503	27.507	936	0	1.0883	OK	11-12-2024	08:53:24.955	1340.534	37.570	OK
11-12-2024	08:53:25.056	1340.635	7.503	7.503	27.504	936	0	1.0885	OK	11-12-2024	08:53:25.056	1340.635	37.570	OK
11-12-2024	08:53:25.156	1340.735	7.502	7.502	27.501	936	0	1.0887	OK	11-12-2024	08:53:25.156	1340.735	37.570	OK
11-12-2024	08:53:25.257	1340.836	7.502	7.502	27.501	936	0	1.0887	OK	11-12-2024	08:53:25.257	1340.836	37.570	OK
11-12-2024	08:53:25.357	1340.936	7.503	7.503	27.506	936	0	1.0884	OK	11-12-2024	08:53:25.357	1340.936	37.569	OK
11-12-2024	08:53:25.457	1341.036	7.502	7.502	27.501	936	0	1.0887	OK	11-12-2024	08:53:25.457	1341.036	37.569	OK
11-12-2024	08:53:25.629	1341.208	7.503	7.503	27.504	936	0	1.0885	OK	11-12-2024	08:53:25.629	1341.208	37.569	OK
11-12-2024	08:53:25.883	1341.462	7.503	7.503	27.510	936	0	1.0881	OK	11-12-2024	08:53:25.883	1341.462	37.569	OK
11-12-2024	08:53:26.058	1341.637	7.503	7.503	27.504	936	0	1.0885	OK	11-12-2024	08:53:26.058	1341.637	37.569	OK
11-12-2024	08:53:26.158	1341.737	7.502	7.502	27.502	936	0	1.0887	OK	11-12-2024	08:53:26.158	1341.737	37.570	OK
11-12-2024	08:53:26.258	1341.837	7.502	7.502	27.500	936	0	1.0888	OK	11-12-2024	08:53:26.258	1341.837	37.570	OK
11-12-2024	08:53:26.358	1341.937	7.502	7.502	27.499	936	0	1.0889	OK	11-12-2024	08:53:26.358	1341.937	37.569	OK
11-12-2024	08:53:26.459	1342.038	7.502	7.502	27.501	936	0	1.0888	OK	11-12-2024	08:53:26.459	1342.038	37.569	OK
11-12-2024	08:53:26.633	1342.211	7.502	7.502	27.502	936	0	1.0887	OK	11-12-2024	08:53:26.633	1342.211	37.570	OK
11-12-2024	08:53:26.889	1342.468	7.503	7.503	27.505	936	0	1.0885	OK	11-12-2024	08:53:26.889	1342.468	37.570	OK
11-12-2024	08:53:27.060	1342.639	7.503	7.503	27.506	936	0	1.0884	OK	11-12-2024	08:53:27.060	1342.639	37.569	OK
11-12-2024	08:53:27.161	1342.740	7.503	7.503	27.504	936	0	1.0885	OK	11-12-2024	08:53:27.161	1342.740	37.569	OK
11-12-2024	08:53:27.261	1342.840	7.502	7.502	27.499	936	0	1.0889	OK	11-12-2024	08:53:27.261	1342.840	37.569	OK
11-12-2024	08:53:27.361	1342.940	7.502	7.502	27.501	936	0	1.0887	OK	11-12-2024	08:53:27.361	1342.940	37.569	OK
11-12-2024	08:53:27.462	1343.041	7.502	7.502	27.502	936	0	1.0887	OK	11-12-2024	08:53:27.462	1343.041	37.569	OK
11-12-2024	08:53:27.821	1343.400	7.504	7.504	27.511	936	0	1.0880	OK	11-12-2024	08:53:27.821	1343.400	37.568	OK
11-12-2024	08:53:27.964	1343.543	7.503	7.503	27.505	936	0	1.0885	OK	11-12-2024	08:53:27.964	1343.543	37.568	OK
11-12-2024	08:53:28.064	1343.643	7.503	7.503	27.503	936	0	1.0886	OK	11-12-2024	08:53:28.064	1343.643	37.568	OK
11-12-2024	08:53:28.164	1343.743	7.502	7.502	27.502	936	0	1.0887	OK	11-12-2024	08:53:28.164	1343.743	37.568	OK
11-12-2024	08:53:28.264	1343.843	7.502	7.502	27.503	936	0	1.0886	OK	11-12-2024	08:53:28.264	1343.843	37.569	OK
11-12-2024	08:53:28.364	1343.943	7.502	7.502	27.499	936	0	1.0889	OK	11-12-2024	08:53:28.364	1343.943	37.569	OK
11-12-2024	08:53:28.464	1344.043	7.502	7.502	27.498	936	0	1.0889	OK	11-12-2024	08:53:28.464	1344.043	37.568	OK
11-12-2024	08:53:28.634	1344.213	7.502	7.502	27.503	936	0	1.0886	OK	11-12-2024	08:53:28.634	1344.213	37.569	OK
11-12-2024	08:53:28.889	1344.468	7.503	7.503	27.510	936	0	1.0881	OK	11-12-2024	08:53:28.889	1344.468	37.570	OK
11-12-2024	08:53:29.064	1344.643	7.503	7.503	27.510	936	0	1.0881	OK	11-12-2024	08:53:29.064	1344.643	37.570	OK
11-12-2024	08:53:29.164	1344.743	7.502	7.502	27.502	936	0	1.0887	OK	11-12-2024	08:53:29.164	1344.743	37.570	OK
11-12-2024	08:53:29.264	1344.843	7.502	7.502	27.502	936	0	1.0887	OK	11-12-2024	08:53:29.264	1344.843	37.569	OK
11-12-2024	08:53:29.365	1344.944	7.502	7.502	27.501	936	0	1.0887	OK	11-12-2024	08:53:29.365	1344.944	37.569	OK
11-12-2024	08:53:29.464	1345.043	7.502	7.502	27.499	936	0	1.0889	OK	11-12-2024	08:53:29.464	1345.043	37.570	OK
11-12-2024	08:53:29.636	1345.215	7.503	7.503	27.507	936	0	1.0883	OK	11-12-2024	08:53:29.636	1345.215	37.570	OK
11-12-2024	08:53:29.891	1345.470	7.503	7.503	27.505	936	0	1.0885	OK	11-12-2024	08:53:29.891	1345.470	37.570	OK
11-12-2024	08:53:30.065	1345.644	7.503	7.503	27.507	936	0	1.0883	OK	11-12-2024	08:53:30.065	1345.644	37.570	OK
11-12-2024	08:53:30.164	1345.743	7.502	7.502	27.503	936	0	1.0886	OK	11-12-2024	08:53:30.164	1345.743	37.570	OK
11-12-2024	08:53:30.264	1345.843	7.502	7.502	27.500	936	0	1.0888	OK	11-12-2024	08:53:30.264	1345.843	37.570	OK
11-12-2024	08:53:30.365	1345.944	7.502	7.502	27.499	936	0	1.0889	OK	11-12-2024	08:53:30.365	1345.944	37.570	OK
11-12-2024	08:53:30.465	1346.044	7.502	7.502	27.502	936	0	1.0887	OK	11-12-2024	08:53:30.465	1346.044	37.572	OK
11-12-2024	08:53:30.637	1346.216	7.502	7.502	27.502	936	0	1.0887	OK	11-12-2024	08:53:30.637	1346.216	37.572	OK
11-12-2024	08:53:30.896	1346.475	7.502	7.502	27.502	936	0	1.0887	OK	11-12-2024	08:53:30.896	1346.475	37.573	OK
11-12-2024	08:53:31.065	1346.644	7.503	7.503	27.507	936	0	1.0883	OK	11-12-2024	08:53:31.065	1346.644	37.573	OK
11-12-2024	08:53:31.165	1346.744	7.502	7.502	27.503	936	0	1.0886	OK	11-12-2024	08:53:31.165	1346.744	37.573	OK
11-12-2024	08:53:31.265	1346.844	7.503	7.503	27.504	936	0	1.0885	OK	11-12-2024	08:53:31.265	1346.844	37.574	OK
11-12-2024	08:53:31.366	1346.944	7.502	7.502	27.501	936	0	1.0887	OK	11-12-2024	08:53:31.366	1346.944	37.574	OK
11-12-2024	08:53:31.465	1347.044	7.501	7.501	27.496	936	0	1.0891	OK	11-12-2024	08:53:31.465	1347.044	37.574	OK
11-12-2024	08:53:31.634	1347.212	7.502	7.502	27.502	936	0	1.0887	OK	11-12-2024	08:53:31.634	1347.212	37.576	OK
11-12-2024	08:53:31.890	1347.469	7.503	7.503	27.509	936	0	1.0882	OK	11-12-2024	08:53:31.890	1347.469	37.577	OK
11-12-2024	08:53:32.066	1347.645	7.503	7.503	27.506	936	0	1.0884	OK	11-12-2024	08:53:32.066	1347.645	37.576	OK
11-12-2024	08:53:32.166	1347.745	7.503	7.503	27.505	936	0	1.0885	OK	11-12-2024	08:53:32.166	1347.745	37.576	OK
11-12-2024	08:53:32.266	1347.844	7.502	7.502	27.503	936	0	1.0886	OK	11-12-2024	08:53:32.266	1347.844	37.578	OK
11-12-2024	08:53:32.371	1347.950	7.502	7.502	27.503	936	0	1.0886	OK	11-12-2024	08:53:32.371	1347.950	37.578	OK
11-12-2024	08:53:32.467	1348.046	7.501	7.501	27.497	936	0	1.0890	OK	11-12-2024	08:53:32.467	1348.046	37.578	OK
11-12-2024	08:53:32.637	1348.216	7.502	7.502	27.503	936	0	1.0886	OK	11-12-2024	08:53:32.637	1348.216	37.578	OK
11-12-2024	08:53:32.893	1348.472	7.503	7.503	27.509	937	0	1.0882	OK	11-12-2024	08:53:32.893	1348.472	37.578	OK
11-12-2024	08:53:33.067	1348.646	7.503	7.503	27.509	936	0	1.0882	OK	11-12-2024	08:53:33.067	1348.646	37.578	OK
11-12-2024	08:53:33.167	1348.746	7.503	7.503	27.507	936	0	1.0883	OK	11-12-2024	08:53:33.167	1348.746	37.578	OK
11-12-2024	08:53:33.267	1348.846	7.502	7.502	27.503	936	0	1.0886	OK	11-12-2024	08:53:33.267	1348.846	37.580	OK
11-12-2024	08:53:33.368	1348.947	7.502	7.502	27.502	936	0	1.0887	OK	11-12-2024	08:53:33.368	1348.947	37.580	OK
11-12-2024	08:53:33.553	1349.132	7.503	7.503	27.505	937	0	1.0885	OK	11-12-2024	08:53:33.553	1349.132	37.580	OK
11-12-2024	08:53:33.809	1349.388	7.503	7.503	27.506	937	0	1.0884	OK	11-12-2024	08:53:33.809	1349.388	37.581	OK
11-12-2024	08:53:33.969	1349.548	7.503	7.503	27.507	937	0	1.0883	OK	11-12-2024	08:53:33.969	1349.548	37.580	OK
11-12-2024	08:53:34.070	1349.649	7.502	7.502	27.504	937	0	1.0885	OK	11-12-2024	08:53:34.070	1349.649	37.580	OK
11-12-2024	08:53:34.170	1349.749	7.502	7.502	27.499	936	0	1.0889	OK	11-12-2024	08:53:34.170	1349.749	37.580	OK
11-12-2024	08:53:34.270	1349.849	7.502	7.502	27.502	936	0	1.0887	OK	11-12-2024	08:53:34.270	1349.849	37.579	OK
11-12-2024	08:53:34.371	1349.950	7.502	7.502	27.499	936	0	1.0889	OK	11-12-2024	08:53:34.371	1349.950	37.579	OK
11-12-2024	08:53:34.552	1350.130	7.502	7.502	27.499	936	0	1.0889	OK	11-12-2024	08:53:34.552	1350.130	37.578	OK
11-12-2024	08:53:34.808	1350.387	7.503	7.503	27.511	936	0	1.0880	OK	11-12-2024	08:53:34.808	1350.387	37.578	OK
11-12-2024	08:53:34.970	1350.549	7.503	7.503	27.505	936	0	1.0885	OK	11-12-2024	08:53:34.970	1350.549	37.576	OK
11-12-2024	08:53:35.071	1350.650	7.502	7.502	27.502	936	0	1.0887	OK	11-12-2024	08:53:35.071	1350.650	37.575	OK
11-12-2024	08:53:35.173	1350.752	7.502	7.502	27.500	936	0	1.0888	OK	11-12-2024	08:53:35.173	1350.752	37.575	OK
11-12-2024	08:53:35.273	1350.852	7.502	7.502	27.499	936	0	1.0889	OK	11-12-2024	08:53:35.273	1350.852	37.575	OK
11-12-2024	08:53:35.373	1350.952	7.502	7.502	27.502	936	0	1.0887	OK	11-12-2024	08:53:35.373	1350.952	37.575	OK
11-12-2024	08:53:35.573	1351.152	7.503	7.503	27.507	936	0	1.0883	OK	11-12-2024	08:53:35.573	1351.152	37.575	OK
11-12-2024	08:53:35.829	1351.408	7.503	7.503	27.508	937	0	1.0883	OK	11-12-2024	08:53:35.829	1351.408	37.575	OK
11-12-2024	08:53:35.973	1351.552	7.503	7.503	27.507	936	0	1.0883	OK	11-12-2024	08:53:35.973	1351.552	37.575	OK
11-12-2024	08:53:36.073	1351.652	7.503	7.503	27.507	936	0	1.0883	OK	11-12-2024	08:53:36.073	1351.652	37.575	OK
11-12-2024	08:53:36.173	1351.752	7.503	7.503	27.504	936	0	1.0885	OK	11-12-2024	08:53:36.173	1351.752	37.575	OK
11-12-2024	08:53:36.274	1351.853	7.502	7.502	27.500	936	0	1.0888	OK	11-12-2024	08:53:36.274	1351.853	37.575	OK
11-12-2024	08:53:36.374	1351.953	7.502	7.502	27.503	936	0	1.0886	OK	11-12-2024	08:53:36.374	1351.953	37.575	OK
11-12-2024	08:53:36.554	1352.133	7.503	7.503	27.510	936	0	1.0881	OK	11-12-2024	08:53:36.554	1352.133	37.575	OK
11-12-2024	08:53:36.810	1352.389	7.503	7.503	27.508	936	0	1.0883	OK	11-12-2024	08:53:36.810	1352.389	37.573	OK
11-12-2024	08:53:36.977	1352.556	7.504	7.504	27.513	936	0	1.0879	OK	11-12-2024	08:53:36.977	1352.556	37.572	OK
11-12-2024	08:53:37.078	1352.657	7.503	7.503	27.505	936	0	1.0885	OK	11-12-2024	08:53:37.078	1352.657	37.572	OK
11-12-2024	08:53:37.178	1352.757	7.502	7.502	27.501	936	0	1.0887	OK	11-12-2024	08:53:37.178	1352.757	37.572	OK
11-12-2024	08:53:37.280	1352.859	7.502	7.502	27.502	936	0	1.0887	OK	11-12-2024	08:53:37.280	1352.859	37.572	OK
11-12-2024	08:53:37.380	1352.959	7.502	7.502	27.500	936	0	1.0888	OK	11-12-2024	08:53:37.380	1352.959	37.572	OK
11-12-2024	08:53:37.580	1353.159	7.503	7.503	27.506	936	0	1.0884	OK	11-12-2024	08:53:37.580	1353.159	37.573	OK
11-12-2024	08:53:37.836	1353.414	7.504	7.504	27.511	936	0	1.0880	OK	11-12-2024	08:53:37.836	1353.414	37.573	OK
11-12-2024	08:53:37.981	1353.560	7.503	7.503	27.504	936	0	1.0885	OK	11-12-2024	08:53:37.981	1353.560	37.573	OK
11-12-2024	08:53:38.081	1353.660	7.502	7.502	27.503	936	0	1.0886	OK	11-12-2024	08:53:38.081	1353.660	37.573	OK
11-12-2024	08:53:38.181	1353.760	7.502	7.502	27.502	936	0	1.0887	OK	11-12-2024	08:53:38.181	1353.760	37.573	OK
11-12-2024	08:53:38.281	1353.860	7.502	7.502	27.501	936	0	1.0887	OK	11-12-2024	08:53:38.281	1353.860	37.573	OK
11-12-2024	08:53:38.382	1353.961	7.503	7.503	27.504	936	0	1.0885	OK	11-12-2024	08:53:38.382	1353.961	37.572	OK
11-12-2024	08:53:38.555	1354.134	7.503	7.503	27.504	936	0	1.0885	OK	11-12-2024	08:53:38.555	1354.134	37.572	OK
11-12-2024	08:53:38.812	1354.391	7.503	7.503	27.504	936	0	1.0885	OK	11-12-2024	08:53:38.812	1354.391	37.571	OK
11-12-2024	08:53:38.981	1354.560	7.503	7.503	27.507	936	0	1.0883	OK	11-12-2024	08:53:38.981	1354.560	37.569	OK
11-12-2024	08:53:39.082	1354.661	7.502	7.502	27.503	936	0	1.0886	OK	11-12-2024	08:53:39.082	1354.661	37.569	OK
11-12-2024	08:53:39.183	1354.762	7.502	7.502	27.503	936	0	1.0886	OK	11-12-2024	08:53:39.183	1354.762	37.570	OK
11-12-2024	08:53:39.283	1354.862	7.502	7.502	27.500	936	0	1.0888	OK	11-12-2024	08:53:39.283	1354.862	37.570	OK
11-12-2024	08:53:39.383	1354.962	7.502	7.502	27.500	937	0	1.0888	OK	11-12-2024	08:53:39.383	1354.962	37.568	OK
11-12-2024	08:53:39.553	1355.132	7.502	7.502	27.500	937	0	1.0888	OK	11-12-2024	08:53:39.553	1355.132	37.569	OK
11-12-2024	08:53:39.809	1355.388	7.503	7.503	27.509	937	0	1.0882	OK	11-12-2024	08:53:39.809	1355.388	37.567	OK
11-12-2024	08:53:39.983	1355.562	7.503	7.503	27.506	936	0	1.0884	OK	11-12-2024	08:53:39.983	1355.562	37.568	OK
11-12-2024	08:53:40.082	1355.661	7.502	7.502	27.501	936	0	1.0887	OK	11-12-2024	08:53:40.082	1355.661	37.568	OK
11-12-2024	08:53:40.184	1355.763	7.502	7.502	27.500	936	0	1.0888	OK	11-12-2024	08:53:40.184	1355.763	37.567	OK
11-12-2024	08:53:40.283	1355.862	7.502	7.502	27.498	936	0	1.0889	OK	11-12-2024	08:53:40.283	1355.862	37.567	OK
11-12-2024	08:53:40.384	1355.963	7.502	7.502	27.499	936	0	1.0889	OK	11-12-2024	08:53:40.384	1355.963	37.567	OK
11-12-2024	08:53:40.555	1356.134	7.503	7.503	27.504	936	0	1.0885	OK	11-12-2024	08:53:40.555	1356.134	37.567	OK
11-12-2024	08:53:40.810	1356.389	7.503	7.503	27.507	937	0	1.0883	OK	11-12-2024	08:53:40.810	1356.389	37.566	OK
11-12-2024	08:53:40.983	1356.562	7.503	7.503	27.504	937	0	1.0885	OK	11-12-2024	08:53:40.983	1356.562	37.566	OK
11-12-2024	08:53:41.083	1356.662	7.503	7.503	27.504	936	0	1.0885	OK	11-12-2024	08:53:41.083	1356.662	37.566	OK
11-12-2024	08:53:41.183	1356.762	7.502	7.502	27.502	936	0	1.0887	OK	11-12-2024	08:53:41.183	1356.762	37.565	OK
11-12-2024	08:53:41.283	1356.862	7.502	7.502	27.500	936	0	1.0888	OK	11-12-2024	08:53:41.283	1356.862	37.565	OK
11-12-2024	08:53:41.382	1356.961	7.501	7.501	27.495	936	0	1.0891	OK	11-12-2024	08:53:41.382	1356.961	37.566	OK
11-12-2024	08:53:41.552	1357.131	7.502	7.502	27.502	936	0	1.0886	OK	11-12-2024	08:53:41.552	1357.131	37.566	OK
11-12-2024	08:53:41.810	1357.389	7.503	7.503	27.503	937	0	1.0885	OK	11-12-2024	08:53:41.810	1357.389	37.567	OK
11-12-2024	08:53:41.983	1357.562	7.503	7.503	27.506	936	0	1.0883	OK	11-12-2024	08:53:41.983	1357.562	37.568	OK
11-12-2024	08:53:42.083	1357.662	7.502	7.502	27.500	936	0	1.0888	OK	11-12-2024	08:53:42.083	1357.662	37.568	OK
11-12-2024	08:53:42.183	1357.762	7.503	7.503	27.504	936	0	1.0885	OK	11-12-2024	08:53:42.183	1357.762	37.570	OK
11-12-2024	08:53:42.283	1357.862	7.502	7.502	27.500	936	0	1.0888	OK	11-12-2024	08:53:42.283	1357.862	37.570	OK
11-12-2024	08:53:42.382	1357.961	7.502	7.502	27.497	936	0	1.0890	OK	11-12-2024	08:53:42.382	1357.961	37.570	OK
11-12-2024	08:53:42.553	1358.132	7.502	7.502	27.502	936	0	1.0886	OK	11-12-2024	08:53:42.553	1358.132	37.570	OK
11-12-2024	08:53:42.809	1358.388	7.503	7.503	27.503	936	0	1.0885	OK	11-12-2024	08:53:42.809	1358.388	37.570	OK
11-12-2024	08:53:42.983	1358.562	7.503	7.503	27.508	937	0	1.0882	OK	11-12-2024	08:53:42.983	1358.562	37.571	OK
11-12-2024	08:53:43.084	1358.663	7.503	7.503	27.506	936	0	1.0883	OK	11-12-2024	08:53:43.084	1358.663	37.571	OK
11-12-2024	08:53:43.185	1358.764	7.502	7.502	27.498	936	0	1.0889	OK	11-12-2024	08:53:43.185	1358.764	37.570	OK
11-12-2024	08:53:43.284	1358.863	7.502	7.502	27.501	936	0	1.0887	OK	11-12-2024	08:53:43.284	1358.863	37.570	OK
11-12-2024	08:53:43.387	1358.966	7.502	7.502	27.503	936	0	1.0886	OK	11-12-2024	08:53:43.387	1358.966	37.570	OK
11-12-2024	08:53:43.558	1359.137	7.502	7.502	27.503	936	0	1.0886	OK	11-12-2024	08:53:43.558	1359.137	37.570	OK
11-12-2024	08:53:43.813	1359.392	7.503	7.503	27.509	936	0	1.0882	OK	11-12-2024	08:53:43.813	1359.392	37.570	OK
11-12-2024	08:53:43.987	1359.566	7.504	7.504	27.512	936	0	1.0880	OK	11-12-2024	08:53:43.987	1359.566	37.570	OK
11-12-2024	08:53:44.086	1359.665	7.502	7.502	27.503	936	0	1.0886	OK	11-12-2024	08:53:44.086	1359.665	37.570	OK
11-12-2024	08:53:44.187	1359.766	7.502	7.502	27.503	936	0	1.0886	OK	11-12-2024	08:53:44.187	1359.766	37.570	OK
11-12-2024	08:53:44.300	1359.879	7.502	7.502	27.500	936	0	1.0888	OK	11-12-2024	08:53:44.300	1359.879	37.569	OK
11-12-2024	08:53:44.554	1360.133	7.503	7.503	27.510	937	0	1.0881	OK	11-12-2024	08:53:44.554	1360.133	37.570	OK
11-12-2024	08:53:44.829	1360.408	7.504	7.504	27.513	937	0	1.0879	OK	11-12-2024	08:53:44.829	1360.408	37.571	OK
11-12-2024	08:53:44.988	1360.567	7.503	7.503	27.508	936	0	1.0883	OK	11-12-2024	08:53:44.988	1360.567	37.571	OK
11-12-2024	08:53:45.090	1360.669	7.503	7.503	27.508	936	0	1.0883	OK	11-12-2024	08:53:45.090	1360.669	37.571	OK
11-12-2024	08:53:45.191	1360.769	7.502	7.502	27.503	936	0	1.0886	OK	11-12-2024	08:53:45.191	1360.769	37.571	OK
11-12-2024	08:53:45.299	1360.878	7.502	7.502	27.502	936	0	1.0887	OK	11-12-2024	08:53:45.299	1360.878	37.569	OK
11-12-2024	08:53:45.554	1361.133	7.504	7.504	27.511	936	0	1.0880	OK	11-12-2024	08:53:45.554	1361.133	37.568	OK
11-12-2024	08:53:45.823	1361.402	7.504	7.504	27.513	936	0	1.0879	OK	11-12-2024	08:53:45.823	1361.402	37.567	OK
11-12-2024	08:53:45.991	1361.570	7.504	7.504	27.511	936	0	1.0880	OK	11-12-2024	08:53:45.991	1361.570	37.567	OK
11-12-2024	08:53:46.090	1361.669	7.503	7.503	27.507	936	0	1.0883	OK	11-12-2024	08:53:46.090	1361.669	37.567	OK
11-12-2024	08:53:46.191	1361.770	7.503	7.503	27.506	936	0	1.0884	OK	11-12-2024	08:53:46.191	1361.770	37.567	OK
11-12-2024	08:53:46.301	1361.880	7.503	7.503	27.504	936	0	1.0885	OK	11-12-2024	08:53:46.301	1361.880	37.567	OK
11-12-2024	08:53:46.391	1361.970	7.503	7.503	27.507	936	0	1.0883	OK	11-12-2024	08:53:46.391	1361.970	37.567	OK
11-12-2024	08:53:46.560	1362.139	7.503	7.503	27.509	936	0	1.0882	OK	11-12-2024	08:53:46.560	1362.139	37.569	OK
11-12-2024	08:53:46.815	1362.394	7.503	7.503	27.509	936	0	1.0882	OK	11-12-2024	08:53:46.815	1362.394	37.570	OK
11-12-2024	08:53:46.992	1362.571	7.503	7.503	27.506	937	0	1.0884	OK	11-12-2024	08:53:46.992	1362.571	37.569	OK
11-12-2024	08:53:47.091	1362.670	7.503	7.503	27.509	936	0	1.0882	OK	11-12-2024	08:53:47.091	1362.670	37.570	OK
11-12-2024	08:53:47.192	1362.771	7.503	7.503	27.506	936	0	1.0884	OK	11-12-2024	08:53:47.192	1362.771	37.570	OK
11-12-2024	08:53:47.301	1362.880	7.502	7.502	27.502	937	0	1.0887	OK	11-12-2024	08:53:47.301	1362.880	37.570	OK
11-12-2024	08:53:47.554	1363.133	7.504	7.504	27.512	937	0	1.0880	OK	11-12-2024	08:53:47.554	1363.133	37.570	OK
11-12-2024	08:53:47.808	1363.387	7.504	7.504	27.513	936	0	1.0879	OK	11-12-2024	08:53:47.808	1363.387	37.570	OK
11-12-2024	08:53:47.992	1363.571	7.504	7.504	27.514	937	0	1.0878	OK	11-12-2024	08:53:47.992	1363.571	37.570	OK
11-12-2024	08:53:48.092	1363.671	7.503	7.503	27.506	936	0	1.0884	OK	11-12-2024	08:53:48.092	1363.671	37.570	OK
11-12-2024	08:53:48.195	1363.774	7.503	7.503	27.508	936	0	1.0883	OK	11-12-2024	08:53:48.195	1363.774	37.570	OK
11-12-2024	08:53:48.301	1363.880	7.502	7.502	27.503	937	0	1.0886	OK	11-12-2024	08:53:48.301	1363.880	37.569	OK
11-12-2024	08:53:48.396	1363.975	7.503	7.503	27.504	936	0	1.0885	OK	11-12-2024	08:53:48.396	1363.975	37.569	OK
11-12-2024	08:53:48.566	1364.145	7.504	7.504	27.511	937	0	1.0880	OK	11-12-2024	08:53:48.566	1364.145	37.570	OK
11-12-2024	08:53:48.822	1364.401	7.503	7.503	27.509	937	0	1.0882	OK	11-12-2024	08:53:48.822	1364.401	37.571	OK
11-12-2024	08:53:48.996	1364.575	7.503	7.503	27.509	936	0	1.0882	OK	11-12-2024	08:53:48.996	1364.575	37.572	OK
11-12-2024	08:53:49.095	1364.674	7.503	7.503	27.505	936	0	1.0885	OK	11-12-2024	08:53:49.095	1364.674	37.572	OK
11-12-2024	08:53:49.195	1364.774	7.502	7.502	27.503	937	0	1.0886	OK	11-12-2024	08:53:49.195	1364.774	37.572	OK
11-12-2024	08:53:49.300	1364.879	7.503	7.503	27.504	936	0	1.0885	OK	11-12-2024	08:53:49.300	1364.879	37.572	OK
11-12-2024	08:53:49.396	1364.975	7.503	7.503	27.504	936	0	1.0885	OK	11-12-2024	08:53:49.396	1364.975	37.572	OK
11-12-2024	08:53:49.568	1365.147	7.503	7.503	27.507	937	0	1.0883	OK	11-12-2024	08:53:49.568	1365.147	37.571	OK
11-12-2024	08:53:49.824	1365.403	7.503	7.503	27.510	936	0	1.0881	OK	11-12-2024	08:53:49.824	1365.403	37.570	OK
11-12-2024	08:53:49.996	1365.575	7.503	7.503	27.509	937	0	1.0882	OK	11-12-2024	08:53:49.996	1365.575	37.570	OK
11-12-2024	08:53:50.096	1365.675	7.503	7.503	27.505	936	0	1.0885	OK	11-12-2024	08:53:50.096	1365.675	37.570	OK
11-12-2024	08:53:50.197	1365.775	7.502	7.502	27.500	936	0	1.0888	OK	11-12-2024	08:53:50.197	1365.775	37.570	OK
11-12-2024	08:53:50.301	1365.880	7.502	7.502	27.502	936	0	1.0887	OK	11-12-2024	08:53:50.301	1365.880	37.569	OK
11-12-2024	08:53:50.554	1366.133	7.503	7.503	27.507	936	0	1.0883	OK	11-12-2024	08:53:50.554	1366.133	37.569	OK
11-12-2024	08:53:50.823	1366.402	7.505	7.505	27.517	937	0	1.0876	OK	11-12-2024	08:53:50.823	1366.402	37.570	OK
11-12-2024	08:53:50.996	1366.575	7.504	7.504	27.512	936	0	1.0879	OK	11-12-2024	08:53:50.996	1366.575	37.570	OK
11-12-2024	08:53:51.097	1366.676	7.503	7.503	27.505	936	0	1.0884	OK	11-12-2024	08:53:51.097	1366.676	37.570	OK
11-12-2024	08:53:51.197	1366.776	7.503	7.503	27.503	936	0	1.0885	OK	11-12-2024	08:53:51.197	1366.776	37.570	OK
11-12-2024	08:53:51.302	1366.881	7.503	7.503	27.504	936	0	1.0885	OK	11-12-2024	08:53:51.302	1366.881	37.570	OK
11-12-2024	08:53:51.398	1366.977	7.503	7.503	27.505	936	0	1.0884	OK	11-12-2024	08:53:51.398	1366.977	37.570	OK
11-12-2024	08:53:51.566	1367.145	7.503	7.503	27.507	936	0	1.0883	OK	11-12-2024	08:53:51.566	1367.145	37.570	OK
11-12-2024	08:53:51.822	1367.401	7.504	7.504	27.516	936	0	1.0876	OK	11-12-2024	08:53:51.822	1367.401	37.570	OK
11-12-2024	08:53:52.001	1367.580	7.504	7.504	27.511	936	0	1.0880	OK	11-12-2024	08:53:52.001	1367.580	37.570	OK
11-12-2024	08:53:52.101	1367.680	7.503	7.503	27.505	936	0	1.0884	OK	11-12-2024	08:53:52.101	1367.680	37.570	OK
11-12-2024	08:53:52.201	1367.780	7.503	7.503	27.503	936	0	1.0885	OK	11-12-2024	08:53:52.201	1367.780	37.568	OK
11-12-2024	08:53:52.302	1367.880	7.502	7.502	27.501	936	0	1.0887	OK	11-12-2024	08:53:52.302	1367.880	37.568	OK
11-12-2024	08:53:52.402	1367.981	7.503	7.503	27.505	936	0	1.0884	OK	11-12-2024	08:53:52.402	1367.981	37.570	OK
11-12-2024	08:53:52.572	1368.151	7.503	7.503	27.505	936	0	1.0884	OK	11-12-2024	08:53:52.572	1368.151	37.570	OK
11-12-2024	08:53:52.829	1368.407	7.504	7.504	27.514	936	0	1.0878	OK	11-12-2024	08:53:52.829	1368.407	37.570	OK
11-12-2024	08:53:53.003	1368.582	7.503	7.503	27.508	936	0	1.0882	OK	11-12-2024	08:53:53.003	1368.582	37.571	OK
11-12-2024	08:53:53.102	1368.681	7.502	7.502	27.502	936	0	1.0886	OK	11-12-2024	08:53:53.102	1368.681	37.571	OK
11-12-2024	08:53:53.202	1368.781	7.503	7.503	27.506	936	0	1.0883	OK	11-12-2024	08:53:53.202	1368.781	37.572	OK
11-12-2024	08:53:53.303	1368.882	7.503	7.503	27.503	936	0	1.0885	OK	11-12-2024	08:53:53.303	1368.882	37.572	OK
11-12-2024	08:53:53.405	1368.984	7.503	7.503	27.505	936	0	1.0884	OK	11-12-2024	08:53:53.405	1368.984	37.573	OK
11-12-2024	08:53:53.573	1369.152	7.503	7.503	27.508	936	0	1.0883	OK	11-12-2024	08:53:53.573	1369.152	37.574	OK
11-12-2024	08:53:53.826	1369.405	7.504	7.504	27.512	936	0	1.0880	OK	11-12-2024	08:53:53.826	1369.405	37.575	OK
11-12-2024	08:53:54.011	1369.590	7.503	7.503	27.509	936	0	1.0882	OK	11-12-2024	08:53:54.011	1369.590	37.575	OK
11-12-2024	08:53:54.107	1369.686	7.503	7.503	27.507	936	0	1.0883	OK	11-12-2024	08:53:54.107	1369.686	37.575	OK
11-12-2024	08:53:54.209	1369.787	7.502	7.502	27.501	936	0	1.0887	OK	11-12-2024	08:53:54.209	1369.787	37.575	OK
11-12-2024	08:53:54.309	1369.888	7.503	7.503	27.505	936	0	1.0885	OK	11-12-2024	08:53:54.309	1369.888	37.575	OK
11-12-2024	08:53:54.408	1369.987	7.502	7.502	27.501	936	0	1.0887	OK	11-12-2024	08:53:54.408	1369.987	37.575	OK
11-12-2024	08:53:54.579	1370.158	7.503	7.503	27.506	936	0	1.0883	OK	11-12-2024	08:53:54.579	1370.158	37.575	OK
11-12-2024	08:53:54.835	1370.414	7.503	7.503	27.510	936	0	1.0881	OK	11-12-2024	08:53:54.835	1370.414	37.575	OK
11-12-2024	08:53:55.009	1370.588	7.504	7.504	27.512	936	0	1.0879	OK	11-12-2024	08:53:55.009	1370.588	37.576	OK
11-12-2024	08:53:55.107	1370.686	7.503	7.503	27.504	936	0	1.0885	OK	11-12-2024	08:53:55.107	1370.686	37.576	OK
11-12-2024	08:53:55.210	1370.789	7.502	7.502	27.502	936	0	1.0886	OK	11-12-2024	08:53:55.210	1370.789	37.577	OK
11-12-2024	08:53:55.410	1370.989	7.503	7.503	27.510	936	0	1.0881	OK	11-12-2024	08:53:55.410	1370.989	37.578	OK
11-12-2024	08:53:55.581	1371.160	7.503	7.503	27.510	937	0	1.0881	OK	11-12-2024	08:53:55.581	1371.160	37.576	OK
11-12-2024	08:53:55.835	1371.414	7.504	7.504	27.512	936	0	1.0879	OK	11-12-2024	08:53:55.835	1371.414	37.577	OK
11-12-2024	08:53:56.011	1371.590	7.504	7.504	27.512	936	0	1.0879	OK	11-12-2024	08:53:56.011	1371.590	37.576	OK
11-12-2024	08:53:56.110	1371.689	7.503	7.503	27.506	936	0	1.0883	OK	11-12-2024	08:53:56.110	1371.689	37.576	OK
11-12-2024	08:53:56.209	1371.788	7.503	7.503	27.504	936	0	1.0885	OK	11-12-2024	08:53:56.209	1371.788	37.576	OK
11-12-2024	08:53:56.312	1371.891	7.502	7.502	27.503	936	0	1.0885	OK	11-12-2024	08:53:56.312	1371.891	37.576	OK
11-12-2024	08:53:56.412	1371.991	7.503	7.503	27.505	936	0	1.0884	OK	11-12-2024	08:53:56.412	1371.991	37.577	OK
11-12-2024	08:53:56.583	1372.162	7.503	7.503	27.505	936	0	1.0885	OK	11-12-2024	08:53:56.583	1372.162	37.577	OK
11-12-2024	08:53:56.858	1372.437	7.504	7.504	27.511	936	0	1.0880	OK	11-12-2024	08:53:56.858	1372.437	37.576	OK
11-12-2024	08:53:57.014	1372.593	7.503	7.503	27.508	936	0	1.0883	OK	11-12-2024	08:53:57.014	1372.593	37.576	OK
11-12-2024	08:53:57.114	1372.693	7.503	7.503	27.504	936	0	1.0885	OK	11-12-2024	08:53:57.114	1372.693	37.576	OK
11-12-2024	08:53:57.215	1372.794	7.503	7.503	27.506	936	0	1.0884	OK	11-12-2024	08:53:57.215	1372.794	37.576	OK
11-12-2024	08:53:57.316	1372.895	7.502	7.502	27.502	936	0	1.0887	OK	11-12-2024	08:53:57.316	1372.895	37.576	OK
11-12-2024	08:53:57.415	1372.994	7.502	7.502	27.500	936	0	1.0888	OK	11-12-2024	08:53:57.415	1372.994	37.577	OK
11-12-2024	08:53:57.585	1373.164	7.503	7.503	27.508	936	0	1.0883	OK	11-12-2024	08:53:57.585	1373.164	37.576	OK
11-12-2024	08:53:57.843	1373.422	7.503	7.503	27.507	937	0	1.0883	OK	11-12-2024	08:53:57.843	1373.422	37.576	OK
11-12-2024	08:53:58.018	1373.597	7.503	7.503	27.508	937	0	1.0882	OK	11-12-2024	08:53:58.018	1373.597	37.575	OK
11-12-2024	08:53:58.118	1373.697	7.503	7.503	27.504	937	0	1.0885	OK	11-12-2024	08:53:58.118	1373.697	37.575	OK
11-12-2024	08:53:58.218	1373.797	7.502	7.502	27.503	937	0	1.0885	OK	11-12-2024	08:53:58.218	1373.797	37.575	OK
11-12-2024	08:53:58.320	1373.899	7.502	7.502	27.501	937	0	1.0887	OK	11-12-2024	08:53:58.320	1373.899	37.575	OK
11-12-2024	08:53:58.421	1374.000	7.503	7.503	27.506	936	0	1.0883	OK	11-12-2024	08:53:58.421	1374.000	37.574	OK
11-12-2024	08:53:58.591	1374.170	7.503	7.503	27.504	937	0	1.0885	OK	11-12-2024	08:53:58.591	1374.170	37.574	OK
11-12-2024	08:53:58.862	1374.441	7.503	7.503	27.507	936	0	1.0883	OK	11-12-2024	08:53:58.862	1374.441	37.575	OK
11-12-2024	08:53:59.020	1374.599	7.504	7.504	27.510	937	0	1.0881	OK	11-12-2024	08:53:59.020	1374.599	37.574	OK
11-12-2024	08:53:59.121	1374.700	7.503	7.503	27.504	937	0	1.0885	OK	11-12-2024	08:53:59.121	1374.700	37.574	OK
11-12-2024	08:53:59.221	1374.800	7.502	7.502	27.502	937	0	1.0886	OK	11-12-2024	08:53:59.221	1374.800	37.575	OK
11-12-2024	08:53:59.321	1374.900	7.503	7.503	27.505	937	0	1.0884	OK	11-12-2024	08:53:59.321	1374.900	37.575	OK
11-12-2024	08:53:59.556	1375.135	7.504	7.504	27.513	937	0	1.0879	OK	11-12-2024	08:53:59.556	1375.135	37.575	OK
11-12-2024	08:53:59.811	1375.390	7.503	7.503	27.507	937	0	1.0883	OK	11-12-2024	08:53:59.811	1375.390	37.574	OK
11-12-2024	08:53:59.920	1375.499	7.503	7.503	27.509	936	0	1.0881	OK	11-12-2024	08:53:59.920	1375.499	37.573	OK
11-12-2024	08:54:00.021	1375.600	7.503	7.503	27.507	936	0	1.0883	OK	11-12-2024	08:54:00.021	1375.600	37.572	OK
11-12-2024	08:54:00.120	1375.699	7.502	7.502	27.501	936	0	1.0887	OK	11-12-2024	08:54:00.120	1375.699	37.572	OK
11-12-2024	08:54:00.220	1375.799	7.502	7.502	27.501	936	0	1.0887	OK	11-12-2024	08:54:00.220	1375.799	37.572	OK
11-12-2024	08:54:00.322	1375.901	7.503	7.503	27.505	936	0	1.0884	OK	11-12-2024	08:54:00.322	1375.901	37.573	OK
11-12-2024	08:54:00.421	1376.000	7.502	7.502	27.502	936	0	1.0886	OK	11-12-2024	08:54:00.421	1376.000	37.573	OK
11-12-2024	08:54:00.591	1376.170	7.503	7.503	27.503	936	0	1.0885	OK	11-12-2024	08:54:00.591	1376.170	37.573	OK
11-12-2024	08:54:00.848	1376.427	7.504	7.504	27.512	936	0	1.0879	OK	11-12-2024	08:54:00.848	1376.427	37.573	OK
11-12-2024	08:54:01.023	1376.602	7.503	7.503	27.507	936	0	1.0882	OK	11-12-2024	08:54:01.023	1376.602	37.573	OK
11-12-2024	08:54:01.123	1376.702	7.503	7.503	27.507	936	0	1.0882	OK	11-12-2024	08:54:01.123	1376.702	37.572	OK
11-12-2024	08:54:01.223	1376.802	7.502	7.502	27.499	936	0	1.0888	OK	11-12-2024	08:54:01.223	1376.802	37.572	OK
11-12-2024	08:54:01.322	1376.901	7.502	7.502	27.499	936	0	1.0888	OK	11-12-2024	08:54:01.322	1376.901	37.573	OK
11-12-2024	08:54:01.422	1377.001	7.502	7.502	27.496	936	0	1.0890	OK	11-12-2024	08:54:01.422	1377.001	37.573	OK
11-12-2024	08:54:01.592	1377.171	7.503	7.503	27.504	936	0	1.0884	OK	11-12-2024	08:54:01.592	1377.171	37.572	OK
11-12-2024	08:54:01.848	1377.426	7.503	7.503	27.506	936	0	1.0883	OK	11-12-2024	08:54:01.848	1377.426	37.572	OK
11-12-2024	08:54:02.023	1377.602	7.503	7.503	27.505	936	0	1.0884	OK	11-12-2024	08:54:02.023	1377.602	37.572	OK
11-12-2024	08:54:02.123	1377.702	7.503	7.503	27.505	937	0	1.0884	OK	11-12-2024	08:54:02.123	1377.702	37.572	OK
11-12-2024	08:54:02.224	1377.803	7.503	7.503	27.504	936	0	1.0884	OK	11-12-2024	08:54:02.224	1377.803	37.572	OK
11-12-2024	08:54:02.323	1377.902	7.502	7.502	27.500	936	0	1.0887	OK	11-12-2024	08:54:02.323	1377.902	37.573	OK
11-12-2024	08:54:02.423	1378.002	7.502	7.502	27.502	936	0	1.0886	OK	11-12-2024	08:54:02.423	1378.002	37.573	OK
11-12-2024	08:54:02.593	1378.172	7.503	7.503	27.505	936	0	1.0884	OK	11-12-2024	08:54:02.593	1378.172	37.573	OK
11-12-2024	08:54:02.847	1378.426	7.503	7.503	27.509	936	0	1.0881	OK	11-12-2024	08:54:02.847	1378.426	37.574	OK
11-12-2024	08:54:03.023	1378.602	7.503	7.503	27.508	937	0	1.0882	OK	11-12-2024	08:54:03.023	1378.602	37.575	OK
11-12-2024	08:54:03.124	1378.703	7.503	7.503	27.505	936	0	1.0884	OK	11-12-2024	08:54:03.124	1378.703	37.576	OK
11-12-2024	08:54:03.224	1378.803	7.503	7.503	27.506	937	0	1.0883	OK	11-12-2024	08:54:03.224	1378.803	37.576	OK
11-12-2024	08:54:03.325	1378.904	7.502	7.502	27.502	936	0	1.0886	OK	11-12-2024	08:54:03.325	1378.904	37.576	OK
11-12-2024	08:54:03.426	1379.005	7.502	7.502	27.503	936	0	1.0885	OK	11-12-2024	08:54:03.426	1379.005	37.576	OK
11-12-2024	08:54:03.597	1379.176	7.503	7.503	27.507	936	0	1.0883	OK	11-12-2024	08:54:03.597	1379.176	37.576	OK
11-12-2024	08:54:03.867	1379.446	7.504	7.504	27.511	937	0	1.0880	OK	11-12-2024	08:54:03.867	1379.446	37.576	OK
11-12-2024	08:54:04.026	1379.605	7.503	7.503	27.508	937	0	1.0882	OK	11-12-2024	08:54:04.026	1379.605	37.575	OK
11-12-2024	08:54:04.125	1379.704	7.503	7.503	27.505	937	0	1.0884	OK	11-12-2024	08:54:04.125	1379.704	37.575	OK
11-12-2024	08:54:04.226	1379.805	7.502	7.502	27.502	936	0	1.0886	OK	11-12-2024	08:54:04.226	1379.805	37.575	OK
11-12-2024	08:54:04.326	1379.905	7.502	7.502	27.501	936	0	1.0887	OK	11-12-2024	08:54:04.326	1379.905	37.576	OK
11-12-2024	08:54:04.428	1380.007	7.502	7.502	27.503	936	0	1.0885	OK	11-12-2024	08:54:04.428	1380.007	37.576	OK
11-12-2024	08:54:04.780	1380.359	7.504	7.504	27.510	936	0	1.0880	OK	11-12-2024	08:54:04.780	1380.359	37.576	OK
11-12-2024	08:54:04.929	1380.508	7.503	7.503	27.508	937	0	1.0882	OK	11-12-2024	08:54:04.929	1380.508	37.576	OK
11-12-2024	08:54:05.029	1380.608	7.503	7.503	27.506	937	0	1.0883	OK	11-12-2024	08:54:05.029	1380.608	37.576	OK
11-12-2024	08:54:05.128	1380.707	7.502	7.502	27.500	937	0	1.0887	OK	11-12-2024	08:54:05.128	1380.707	37.576	OK
11-12-2024	08:54:05.228	1380.807	7.502	7.502	27.502	936	0	1.0886	OK	11-12-2024	08:54:05.228	1380.807	37.576	OK
11-12-2024	08:54:05.328	1380.907	7.502	7.502	27.499	936	0	1.0888	OK	11-12-2024	08:54:05.328	1380.907	37.575	OK
11-12-2024	08:54:05.429	1381.008	7.502	7.502	27.500	937	0	1.0887	OK	11-12-2024	08:54:05.429	1381.008	37.575	OK
11-12-2024	08:54:05.597	1381.176	7.503	7.503	27.506	937	0	1.0883	OK	11-12-2024	08:54:05.597	1381.176	37.575	OK
11-12-2024	08:54:05.851	1381.430	7.502	7.502	27.501	937	0	1.0887	OK	11-12-2024	08:54:05.851	1381.430	37.575	OK
11-12-2024	08:54:06.028	1381.607	7.503	7.503	27.509	937	0	1.0881	OK	11-12-2024	08:54:06.028	1381.607	37.573	OK
11-12-2024	08:54:06.129	1381.707	7.503	7.503	27.504	937	0	1.0885	OK	11-12-2024	08:54:06.129	1381.707	37.573	OK
11-12-2024	08:54:06.229	1381.808	7.503	7.503	27.506	936	0	1.0883	OK	11-12-2024	08:54:06.229	1381.808	37.573	OK
11-12-2024	08:54:06.328	1381.907	7.502	7.502	27.502	937	0	1.0886	OK	11-12-2024	08:54:06.328	1381.907	37.573	OK
11-12-2024	08:54:06.429	1382.008	7.502	7.502	27.496	937	0	1.0890	OK	11-12-2024	08:54:06.429	1382.008	37.573	OK
11-12-2024	08:54:06.616	1382.195	7.503	7.503	27.504	937	0	1.0885	OK	11-12-2024	08:54:06.616	1382.195	37.573	OK
11-12-2024	08:54:06.874	1382.452	7.503	7.503	27.506	937	0	1.0883	OK	11-12-2024	08:54:06.874	1382.452	37.572	OK
11-12-2024	08:54:07.029	1382.608	7.503	7.503	27.509	937	0	1.0881	OK	11-12-2024	08:54:07.029	1382.608	37.572	OK
11-12-2024	08:54:07.129	1382.708	7.502	7.502	27.501	937	0	1.0887	OK	11-12-2024	08:54:07.129	1382.708	37.572	OK
11-12-2024	08:54:07.228	1382.807	7.503	7.503	27.504	937	0	1.0885	OK	11-12-2024	08:54:07.228	1382.807	37.572	OK
11-12-2024	08:54:07.329	1382.908	7.503	7.503	27.503	937	0	1.0885	OK	11-12-2024	08:54:07.329	1382.908	37.572	OK
11-12-2024	08:54:07.430	1383.009	7.503	7.503	27.506	936	0	1.0883	OK	11-12-2024	08:54:07.430	1383.009	37.572	OK
11-12-2024	08:54:07.600	1383.179	7.502	7.502	27.501	937	0	1.0887	OK	11-12-2024	08:54:07.600	1383.179	37.573	OK
11-12-2024	08:54:07.857	1383.436	7.503	7.503	27.507	937	0	1.0882	OK	11-12-2024	08:54:07.857	1383.436	37.572	OK
11-12-2024	08:54:08.030	1383.609	7.503	7.503	27.508	937	0	1.0882	OK	11-12-2024	08:54:08.030	1383.609	37.573	OK
11-12-2024	08:54:08.132	1383.711	7.502	7.502	27.501	937	0	1.0886	OK	11-12-2024	08:54:08.132	1383.711	37.573	OK
11-12-2024	08:54:08.230	1383.809	7.502	7.502	27.501	936	0	1.0886	OK	11-12-2024	08:54:08.230	1383.809	37.573	OK
11-12-2024	08:54:08.331	1383.910	7.502	7.502	27.502	936	0	1.0886	OK	11-12-2024	08:54:08.331	1383.910	37.573	OK
11-12-2024	08:54:08.431	1384.010	7.502	7.502	27.501	937	0	1.0886	OK	11-12-2024	08:54:08.431	1384.010	37.573	OK
11-12-2024	08:54:08.600	1384.179	7.503	7.503	27.509	937	0	1.0881	OK	11-12-2024	08:54:08.600	1384.179	37.574	OK
11-12-2024	08:54:08.872	1384.451	7.504	7.504	27.515	937	0	1.0877	OK	11-12-2024	08:54:08.872	1384.451	37.574	OK
11-12-2024	08:54:09.032	1384.611	7.503	7.503	27.508	936	0	1.0882	OK	11-12-2024	08:54:09.032	1384.611	37.573	OK
11-12-2024	08:54:09.131	1384.710	7.503	7.503	27.507	936	0	1.0882	OK	11-12-2024	08:54:09.131	1384.710	37.573	OK
11-12-2024	08:54:09.231	1384.810	7.503	7.503	27.505	936	0	1.0884	OK	11-12-2024	08:54:09.231	1384.810	37.574	OK
11-12-2024	08:54:09.331	1384.910	7.502	7.502	27.501	937	0	1.0886	OK	11-12-2024	08:54:09.331	1384.910	37.574	OK
11-12-2024	08:54:09.432	1385.011	7.503	7.503	27.503	936	0	1.0885	OK	11-12-2024	08:54:09.432	1385.011	37.574	OK
11-12-2024	08:54:09.786	1385.365	7.503	7.503	27.509	937	0	1.0881	OK	11-12-2024	08:54:09.786	1385.365	37.574	OK
11-12-2024	08:54:09.932	1385.511	7.503	7.503	27.506	936	0	1.0883	OK	11-12-2024	08:54:09.932	1385.511	37.574	OK
11-12-2024	08:54:10.032	1385.611	7.503	7.503	27.507	936	0	1.0882	OK	11-12-2024	08:54:10.032	1385.611	37.574	OK
11-12-2024	08:54:10.131	1385.710	7.502	7.502	27.502	936	0	1.0886	OK	11-12-2024	08:54:10.131	1385.710	37.574	OK
11-12-2024	08:54:10.232	1385.811	7.503	7.503	27.509	936	0	1.0881	OK	11-12-2024	08:54:10.232	1385.811	37.574	OK
11-12-2024	08:54:10.332	1385.911	7.503	7.503	27.505	936	0	1.0884	OK	11-12-2024	08:54:10.332	1385.911	37.574	OK
11-12-2024	08:54:10.434	1386.013	7.502	7.502	27.500	936	0	1.0887	OK	11-12-2024	08:54:10.434	1386.013	37.574	OK
11-12-2024	08:54:10.806	1386.385	7.503	7.503	27.506	937	0	1.0883	OK	11-12-2024	08:54:10.806	1386.385	37.574	OK
11-12-2024	08:54:10.934	1386.513	7.503	7.503	27.505	936	0	1.0884	OK	11-12-2024	08:54:10.934	1386.513	37.574	OK
11-12-2024	08:54:11.035	1386.614	7.503	7.503	27.509	936	0	1.0881	OK	11-12-2024	08:54:11.035	1386.614	37.573	OK
11-12-2024	08:54:11.135	1386.714	7.503	7.503	27.506	936	0	1.0883	OK	11-12-2024	08:54:11.135	1386.714	37.573	OK
11-12-2024	08:54:11.235	1386.814	7.502	7.502	27.501	936	0	1.0886	OK	11-12-2024	08:54:11.235	1386.814	37.573	OK
11-12-2024	08:54:11.334	1386.913	7.502	7.502	27.501	936	0	1.0886	OK	11-12-2024	08:54:11.334	1386.913	37.573	OK
11-12-2024	08:54:11.435	1387.014	7.503	7.503	27.503	936	0	1.0885	OK	11-12-2024	08:54:11.435	1387.014	37.572	OK
11-12-2024	08:54:11.793	1387.372	7.504	7.504	27.510	936	0	1.0880	OK	11-12-2024	08:54:11.793	1387.372	37.570	OK
11-12-2024	08:54:11.936	1387.515	7.503	7.503	27.504	936	0	1.0884	OK	11-12-2024	08:54:11.936	1387.515	37.570	OK
11-12-2024	08:54:12.036	1387.615	7.503	7.503	27.503	936	0	1.0885	OK	11-12-2024	08:54:12.036	1387.615	37.570	OK
11-12-2024	08:54:12.135	1387.714	7.503	7.503	27.502	936	0	1.0886	OK	11-12-2024	08:54:12.135	1387.714	37.570	OK
11-12-2024	08:54:12.236	1387.815	7.502	7.502	27.500	936	0	1.0887	OK	11-12-2024	08:54:12.236	1387.815	37.570	OK
11-12-2024	08:54:12.336	1387.915	7.502	7.502	27.501	936	0	1.0886	OK	11-12-2024	08:54:12.336	1387.915	37.570	OK
11-12-2024	08:54:12.438	1388.017	7.502	7.502	27.499	937	0	1.0888	OK	11-12-2024	08:54:12.438	1388.017	37.570	OK
11-12-2024	08:54:12.609	1388.188	7.503	7.503	27.505	937	0	1.0884	OK	11-12-2024	08:54:12.609	1388.188	37.568	OK
11-12-2024	08:54:12.864	1388.443	7.503	7.503	27.508	937	0	1.0882	OK	11-12-2024	08:54:12.864	1388.443	37.568	OK
11-12-2024	08:54:13.039	1388.617	7.503	7.503	27.508	936	0	1.0882	OK	11-12-2024	08:54:13.039	1388.617	37.567	OK
11-12-2024	08:54:13.141	1388.720	7.503	7.503	27.508	936	0	1.0882	OK	11-12-2024	08:54:13.141	1388.720	37.567	OK
11-12-2024	08:54:13.241	1388.820	7.503	7.503	27.506	936	0	1.0883	OK	11-12-2024	08:54:13.241	1388.820	37.568	OK
11-12-2024	08:54:13.341	1388.920	7.502	7.502	27.500	936	0	1.0887	OK	11-12-2024	08:54:13.341	1388.920	37.568	OK
11-12-2024	08:54:13.442	1389.021	7.502	7.502	27.501	936	0	1.0886	OK	11-12-2024	08:54:13.442	1389.021	37.567	OK
11-12-2024	08:54:13.609	1389.188	7.503	7.503	27.503	936	0	1.0885	OK	11-12-2024	08:54:13.609	1389.188	37.568	OK
11-12-2024	08:54:13.882	1389.461	7.503	7.503	27.508	936	0	1.0882	OK	11-12-2024	08:54:13.882	1389.461	37.567	OK
11-12-2024	08:54:14.043	1389.622	7.504	7.504	27.509	937	0	1.0881	OK	11-12-2024	08:54:14.043	1389.622	37.567	OK
11-12-2024	08:54:14.143	1389.722	7.503	7.503	27.502	936	0	1.0886	OK	11-12-2024	08:54:14.143	1389.722	37.567	OK
11-12-2024	08:54:14.244	1389.823	7.503	7.503	27.507	936	0	1.0882	OK	11-12-2024	08:54:14.244	1389.823	37.568	OK
11-12-2024	08:54:14.344	1389.923	7.502	7.502	27.501	936	0	1.0886	OK	11-12-2024	08:54:14.344	1389.923	37.568	OK
11-12-2024	08:54:14.444	1390.023	7.503	7.503	27.502	936	0	1.0886	OK	11-12-2024	08:54:14.444	1390.023	37.569	OK
11-12-2024	08:54:14.615	1390.194	7.503	7.503	27.508	936	0	1.0882	OK	11-12-2024	08:54:14.615	1390.194	37.569	OK
11-12-2024	08:54:14.885	1390.464	7.504	7.504	27.509	937	0	1.0881	OK	11-12-2024	08:54:14.885	1390.464	37.570	OK
11-12-2024	08:54:15.046	1390.625	7.504	7.504	27.510	937	0	1.0880	OK	11-12-2024	08:54:15.046	1390.625	37.570	OK
11-12-2024	08:54:15.145	1390.724	7.504	7.504	27.509	937	0	1.0881	OK	11-12-2024	08:54:15.145	1390.724	37.570	OK
11-12-2024	08:54:15.246	1390.825	7.503	7.503	27.508	937	0	1.0882	OK	11-12-2024	08:54:15.246	1390.825	37.570	OK
11-12-2024	08:54:15.347	1390.926	7.503	7.503	27.507	936	0	1.0882	OK	11-12-2024	08:54:15.347	1390.926	37.570	OK
11-12-2024	08:54:15.447	1391.026	7.503	7.503	27.503	936	0	1.0885	OK	11-12-2024	08:54:15.447	1391.026	37.570	OK
11-12-2024	08:54:15.617	1391.196	7.503	7.503	27.508	936	0	1.0882	OK	11-12-2024	08:54:15.617	1391.196	37.570	OK
11-12-2024	08:54:15.870	1391.449	7.503	7.503	27.507	937	0	1.0882	OK	11-12-2024	08:54:15.870	1391.449	37.571	OK
11-12-2024	08:54:16.047	1391.626	7.503	7.503	27.508	937	0	1.0882	OK	11-12-2024	08:54:16.047	1391.626	37.571	OK
11-12-2024	08:54:16.147	1391.726	7.503	7.503	27.504	937	0	1.0884	OK	11-12-2024	08:54:16.147	1391.726	37.571	OK
11-12-2024	08:54:16.247	1391.826	7.502	7.502	27.501	936	0	1.0886	OK	11-12-2024	08:54:16.247	1391.826	37.572	OK
11-12-2024	08:54:16.348	1391.927	7.503	7.503	27.504	937	0	1.0884	OK	11-12-2024	08:54:16.348	1391.927	37.572	OK
11-12-2024	08:54:16.448	1392.027	7.502	7.502	27.499	936	0	1.0888	OK	11-12-2024	08:54:16.448	1392.027	37.572	OK
11-12-2024	08:54:16.617	1392.196	7.503	7.503	27.503	937	0	1.0885	OK	11-12-2024	08:54:16.617	1392.196	37.572	OK
11-12-2024	08:54:16.887	1392.466	7.504	7.504	27.509	937	0	1.0881	OK	11-12-2024	08:54:16.887	1392.466	37.572	OK
11-12-2024	08:54:17.048	1392.627	7.503	7.503	27.508	936	0	1.0882	OK	11-12-2024	08:54:17.048	1392.627	37.572	OK
11-12-2024	08:54:17.148	1392.727	7.503	7.503	27.508	936	0	1.0882	OK	11-12-2024	08:54:17.148	1392.727	37.573	OK
11-12-2024	08:54:17.248	1392.827	7.502	7.502	27.501	936	0	1.0887	OK	11-12-2024	08:54:17.248	1392.827	37.573	OK
11-12-2024	08:54:17.347	1392.926	7.503	7.503	27.505	936	0	1.0884	OK	11-12-2024	08:54:17.347	1392.926	37.572	OK
11-12-2024	08:54:17.448	1393.027	7.503	7.503	27.503	936	0	1.0885	OK	11-12-2024	08:54:17.448	1393.027	37.572	OK
11-12-2024	08:54:17.619	1393.198	7.503	7.503	27.504	936	0	1.0885	OK	11-12-2024	08:54:17.619	1393.198	37.572	OK
11-12-2024	08:54:17.892	1393.471	7.504	7.504	27.511	936	0	1.0880	OK	11-12-2024	08:54:17.892	1393.471	37.572	OK
11-12-2024	08:54:18.049	1393.628	7.504	7.504	27.509	936	0	1.0881	OK	11-12-2024	08:54:18.049	1393.628	37.572	OK
11-12-2024	08:54:18.147	1393.726	7.503	7.503	27.507	936	0	1.0882	OK	11-12-2024	08:54:18.147	1393.726	37.572	OK
11-12-2024	08:54:18.250	1393.829	7.503	7.503	27.507	936	0	1.0882	OK	11-12-2024	08:54:18.250	1393.829	37.572	OK
11-12-2024	08:54:18.349	1393.928	7.502	7.502	27.502	936	0	1.0886	OK	11-12-2024	08:54:18.349	1393.928	37.573	OK
11-12-2024	08:54:18.449	1394.028	7.502	7.502	27.501	936	0	1.0886	OK	11-12-2024	08:54:18.449	1394.028	37.573	OK
11-12-2024	08:54:18.620	1394.199	7.503	7.503	27.505	937	0	1.0884	OK	11-12-2024	08:54:18.620	1394.199	37.573	OK
11-12-2024	08:54:18.893	1394.472	7.504	7.504	27.510	937	0	1.0880	OK	11-12-2024	08:54:18.893	1394.472	37.573	OK
11-12-2024	08:54:19.050	1394.629	7.504	7.504	27.513	937	0	1.0878	OK	11-12-2024	08:54:19.050	1394.629	37.573	OK
11-12-2024	08:54:19.150	1394.729	7.503	7.503	27.503	936	0	1.0885	OK	11-12-2024	08:54:19.150	1394.729	37.572	OK
11-12-2024	08:54:19.250	1394.829	7.503	7.503	27.506	936	0	1.0883	OK	11-12-2024	08:54:19.250	1394.829	37.572	OK
11-12-2024	08:54:19.350	1394.929	7.503	7.503	27.504	936	0	1.0884	OK	11-12-2024	08:54:19.350	1394.929	37.573	OK
11-12-2024	08:54:19.449	1395.028	7.503	7.503	27.504	936	0	1.0884	OK	11-12-2024	08:54:19.449	1395.028	37.573	OK
11-12-2024	08:54:19.635	1395.214	7.503	7.503	27.505	936	0	1.0884	OK	11-12-2024	08:54:19.635	1395.214	37.573	OK
11-12-2024	08:54:19.889	1395.467	7.503	7.503	27.508	937	0	1.0882	OK	11-12-2024	08:54:19.889	1395.467	37.573	OK
11-12-2024	08:54:20.049	1395.628	7.503	7.503	27.507	937	0	1.0882	OK	11-12-2024	08:54:20.049	1395.628	37.574	OK
11-12-2024	08:54:20.149	1395.728	7.503	7.503	27.504	936	0	1.0884	OK	11-12-2024	08:54:20.149	1395.728	37.573	OK
11-12-2024	08:54:20.250	1395.829	7.503	7.503	27.506	937	0	1.0882	OK	11-12-2024	08:54:20.250	1395.829	37.573	OK
11-12-2024	08:54:20.351	1395.930	7.502	7.502	27.499	936	0	1.0887	OK	11-12-2024	08:54:20.351	1395.930	37.573	OK
11-12-2024	08:54:20.450	1396.029	7.503	7.503	27.503	937	0	1.0884	OK	11-12-2024	08:54:20.450	1396.029	37.573	OK
11-12-2024	08:54:20.620	1396.199	7.503	7.503	27.505	937	0	1.0883	OK	11-12-2024	08:54:20.620	1396.199	37.573	OK
11-12-2024	08:54:20.891	1396.470	7.504	7.504	27.509	937	0	1.0880	OK	11-12-2024	08:54:20.891	1396.470	37.573	OK
11-12-2024	08:54:21.050	1396.629	7.503	7.503	27.504	936	0	1.0884	OK	11-12-2024	08:54:21.050	1396.629	37.573	OK
11-12-2024	08:54:21.149	1396.728	7.503	7.503	27.503	936	0	1.0885	OK	11-12-2024	08:54:21.149	1396.728	37.573	OK
11-12-2024	08:54:21.250	1396.829	7.503	7.503	27.508	936	0	1.0882	OK	11-12-2024	08:54:21.250	1396.829	37.573	OK
11-12-2024	08:54:21.350	1396.929	7.503	7.503	27.503	936	0	1.0885	OK	11-12-2024	08:54:21.350	1396.929	37.573	OK
11-12-2024	08:54:21.450	1397.029	7.502	7.502	27.500	936	0	1.0887	OK	11-12-2024	08:54:21.450	1397.029	37.573	OK
11-12-2024	08:54:21.623	1397.202	7.504	7.504	27.511	936	0	1.0879	OK	11-12-2024	08:54:21.623	1397.202	37.572	OK
11-12-2024	08:54:21.911	1397.490	7.503	7.503	27.508	936	0	1.0882	OK	11-12-2024	08:54:21.911	1397.490	37.573	OK
11-12-2024	08:54:22.051	1397.630	7.504	7.504	27.509	936	0	1.0880	OK	11-12-2024	08:54:22.051	1397.630	37.573	OK
11-12-2024	08:54:22.156	1397.734	7.503	7.503	27.504	936	0	1.0884	OK	11-12-2024	08:54:22.156	1397.734	37.573	OK
11-12-2024	08:54:22.251	1397.830	7.503	7.503	27.507	936	0	1.0882	OK	11-12-2024	08:54:22.251	1397.830	37.573	OK
11-12-2024	08:54:22.352	1397.931	7.502	7.502	27.500	936	0	1.0887	OK	11-12-2024	08:54:22.352	1397.931	37.573	OK
11-12-2024	08:54:22.454	1398.033	7.502	7.502	27.499	936	0	1.0887	OK	11-12-2024	08:54:22.454	1398.033	37.573	OK
11-12-2024	08:54:22.623	1398.202	7.503	7.503	27.504	936	0	1.0884	OK	11-12-2024	08:54:22.623	1398.202	37.573	OK
11-12-2024	08:54:22.880	1398.459	7.504	7.504	27.510	936	0	1.0880	OK	11-12-2024	08:54:22.880	1398.459	37.573	OK
11-12-2024	08:54:23.056	1398.635	7.504	7.504	27.513	936	0	1.0878	OK	11-12-2024	08:54:23.056	1398.635	37.573	OK
11-12-2024	08:54:23.157	1398.736	7.503	7.503	27.505	936	0	1.0884	OK	11-12-2024	08:54:23.157	1398.736	37.574	OK
11-12-2024	08:54:23.258	1398.836	7.502	7.502	27.502	936	0	1.0886	OK	11-12-2024	08:54:23.258	1398.836	37.574	OK
11-12-2024	08:54:23.356	1398.935	7.502	7.502	27.500	936	0	1.0887	OK	11-12-2024	08:54:23.356	1398.935	37.573	OK
11-12-2024	08:54:23.457	1399.036	7.502	7.502	27.500	936	0	1.0887	OK	11-12-2024	08:54:23.457	1399.036	37.573	OK
11-12-2024	08:54:23.627	1399.206	7.502	7.502	27.501	936	0	1.0886	OK	11-12-2024	08:54:23.627	1399.206	37.574	OK
11-12-2024	08:54:23.881	1399.460	7.504	7.504	27.511	937	0	1.0879	OK	11-12-2024	08:54:23.881	1399.460	37.574	OK
11-12-2024	08:54:24.057	1399.636	7.504	7.504	27.509	936	0	1.0880	OK	11-12-2024	08:54:24.057	1399.636	37.574	OK
11-12-2024	08:54:24.158	1399.737	7.503	7.503	27.502	936	0	1.0885	OK	11-12-2024	08:54:24.158	1399.737	37.574	OK
11-12-2024	08:54:24.257	1399.836	7.503	7.503	27.508	936	0	1.0881	OK	11-12-2024	08:54:24.257	1399.836	37.574	OK
11-12-2024	08:54:24.358	1399.937	7.503	7.503	27.504	936	0	1.0884	OK	11-12-2024	08:54:24.358	1399.937	37.574	OK
11-12-2024	08:54:24.459	1400.038	7.503	7.503	27.503	936	0	1.0884	OK	11-12-2024	08:54:24.459	1400.038	37.573	OK
11-12-2024	08:54:24.631	1400.210	7.503	7.503	27.505	936	0	1.0883	OK	11-12-2024	08:54:24.631	1400.210	37.573	OK
11-12-2024	08:54:24.887	1400.466	7.504	7.504	27.509	936	0	1.0880	OK	11-12-2024	08:54:24.887	1400.466	37.573	OK
11-12-2024	08:54:25.059	1400.638	7.503	7.503	27.509	936	0	1.0881	OK	11-12-2024	08:54:25.059	1400.638	37.573	OK
11-12-2024	08:54:25.158	1400.737	7.503	7.503	27.504	936	0	1.0884	OK	11-12-2024	08:54:25.158	1400.737	37.573	OK
11-12-2024	08:54:25.259	1400.838	7.502	7.502	27.501	936	0	1.0886	OK	11-12-2024	08:54:25.259	1400.838	37.573	OK
11-12-2024	08:54:25.359	1400.938	7.502	7.502	27.502	936	0	1.0886	OK	11-12-2024	08:54:25.359	1400.938	37.573	OK
11-12-2024	08:54:25.461	1401.040	7.502	7.502	27.502	936	0	1.0886	OK	11-12-2024	08:54:25.461	1401.040	37.572	OK
11-12-2024	08:54:25.818	1401.397	7.504	7.504	27.513	936	0	1.0878	OK	11-12-2024	08:54:25.818	1401.397	37.572	OK
11-12-2024	08:54:25.962	1401.541	7.503	7.503	27.508	936	0	1.0882	OK	11-12-2024	08:54:25.962	1401.541	37.572	OK
11-12-2024	08:54:26.063	1401.642	7.503	7.503	27.508	936	0	1.0882	OK	11-12-2024	08:54:26.063	1401.642	37.572	OK
11-12-2024	08:54:26.162	1401.741	7.504	7.504	27.509	936	0	1.0881	OK	11-12-2024	08:54:26.162	1401.741	37.572	OK
11-12-2024	08:54:26.262	1401.840	7.503	7.503	27.505	936	0	1.0884	OK	11-12-2024	08:54:26.262	1401.840	37.571	OK
11-12-2024	08:54:26.362	1401.941	7.503	7.503	27.502	936	0	1.0886	OK	11-12-2024	08:54:26.362	1401.941	37.571	OK
11-12-2024	08:54:26.463	1402.042	7.502	7.502	27.499	936	0	1.0888	OK	11-12-2024	08:54:26.463	1402.042	37.571	OK
11-12-2024	08:54:26.633	1402.212	7.503	7.503	27.507	936	0	1.0882	OK	11-12-2024	08:54:26.633	1402.212	37.571	OK
11-12-2024	08:54:26.904	1402.483	7.504	7.504	27.512	936	0	1.0879	OK	11-12-2024	08:54:26.904	1402.483	37.570	OK
11-12-2024	08:54:27.063	1402.641	7.504	7.504	27.509	936	0	1.0881	OK	11-12-2024	08:54:27.063	1402.641	37.571	OK
11-12-2024	08:54:27.163	1402.741	7.503	7.503	27.507	936	0	1.0882	OK	11-12-2024	08:54:27.163	1402.741	37.571	OK
11-12-2024	08:54:27.263	1402.842	7.502	7.502	27.500	936	0	1.0887	OK	11-12-2024	08:54:27.263	1402.842	37.572	OK
11-12-2024	08:54:27.364	1402.943	7.502	7.502	27.500	936	0	1.0887	OK	11-12-2024	08:54:27.364	1402.943	37.572	OK
11-12-2024	08:54:27.464	1403.043	7.502	7.502	27.498	936	0	1.0888	OK	11-12-2024	08:54:27.464	1403.043	37.572	OK
11-12-2024	08:54:27.636	1403.215	7.503	7.503	27.505	936	0	1.0884	OK	11-12-2024	08:54:27.636	1403.215	37.572	OK
11-12-2024	08:54:27.895	1403.474	7.504	7.504	27.510	936	0	1.0880	OK	11-12-2024	08:54:27.895	1403.474	37.573	OK
11-12-2024	08:54:28.064	1403.643	7.503	7.503	27.507	936	0	1.0882	OK	11-12-2024	08:54:28.064	1403.643	37.573	OK
11-12-2024	08:54:28.163	1403.742	7.503	7.503	27.504	936	0	1.0884	OK	11-12-2024	08:54:28.163	1403.742	37.573	OK
11-12-2024	08:54:28.265	1403.844	7.502	7.502	27.501	936	0	1.0886	OK	11-12-2024	08:54:28.265	1403.844	37.573	OK
11-12-2024	08:54:28.367	1403.946	7.503	7.503	27.505	936	0	1.0884	OK	11-12-2024	08:54:28.367	1403.946	37.573	OK
11-12-2024	08:54:28.465	1404.044	7.502	7.502	27.499	936	0	1.0888	OK	11-12-2024	08:54:28.465	1404.044	37.573	OK
11-12-2024	08:54:28.637	1404.216	7.503	7.503	27.507	936	0	1.0882	OK	11-12-2024	08:54:28.637	1404.216	37.573	OK
11-12-2024	08:54:28.911	1404.490	7.504	7.504	27.510	936	0	1.0880	OK	11-12-2024	08:54:28.911	1404.490	37.573	OK
11-12-2024	08:54:29.065	1404.644	7.503	7.503	27.507	936	0	1.0882	OK	11-12-2024	08:54:29.065	1404.644	37.574	OK
11-12-2024	08:54:29.165	1404.744	7.502	7.502	27.501	936	0	1.0886	OK	11-12-2024	08:54:29.165	1404.744	37.574	OK
11-12-2024	08:54:29.265	1404.844	7.503	7.503	27.503	936	0	1.0885	OK	11-12-2024	08:54:29.265	1404.844	37.575	OK
11-12-2024	08:54:29.369	1404.948	7.503	7.503	27.503	936	0	1.0885	OK	11-12-2024	08:54:29.369	1404.948	37.575	OK
11-12-2024	08:54:29.467	1405.046	7.502	7.502	27.497	936	0	1.0889	OK	11-12-2024	08:54:29.467	1405.046	37.575	OK
11-12-2024	08:54:29.637	1405.216	7.503	7.503	27.506	936	0	1.0883	OK	11-12-2024	08:54:29.637	1405.216	37.575	OK
11-12-2024	08:54:29.909	1405.488	7.504	7.504	27.511	936	0	1.0879	OK	11-12-2024	08:54:29.909	1405.488	37.577	OK
11-12-2024	08:54:30.069	1405.648	7.503	7.503	27.507	936	0	1.0882	OK	11-12-2024	08:54:30.069	1405.648	37.577	OK
11-12-2024	08:54:30.170	1405.749	7.503	7.503	27.507	936	0	1.0882	OK	11-12-2024	08:54:30.170	1405.749	37.577	OK
11-12-2024	08:54:30.270	1405.849	7.503	7.503	27.505	936	0	1.0884	OK	11-12-2024	08:54:30.270	1405.849	37.576	OK
11-12-2024	08:54:30.369	1405.948	7.503	7.503	27.507	936	0	1.0882	OK	11-12-2024	08:54:30.369	1405.948	37.576	OK
11-12-2024	08:54:30.470	1406.049	7.503	7.503	27.503	936	0	1.0885	OK	11-12-2024	08:54:30.470	1406.049	37.576	OK
11-12-2024	08:54:30.650	1406.229	7.503	7.503	27.506	936	0	1.0883	OK	11-12-2024	08:54:30.650	1406.229	37.576	OK
11-12-2024	08:54:30.906	1406.485	7.504	7.504	27.510	936	0	1.0880	OK	11-12-2024	08:54:30.906	1406.485	37.575	OK
11-12-2024	08:54:31.070	1406.649	7.503	7.503	27.504	936	0	1.0884	OK	11-12-2024	08:54:31.070	1406.649	37.574	OK
11-12-2024	08:54:31.170	1406.749	7.503	7.503	27.508	936	0	1.0882	OK	11-12-2024	08:54:31.170	1406.749	37.574	OK
11-12-2024	08:54:31.270	1406.849	7.503	7.503	27.504	936	0	1.0884	OK	11-12-2024	08:54:31.270	1406.849	37.575	OK
11-12-2024	08:54:31.370	1406.949	7.503	7.503	27.504	936	0	1.0884	OK	11-12-2024	08:54:31.370	1406.949	37.575	OK
11-12-2024	08:54:31.472	1407.051	7.502	7.502	27.502	936	0	1.0886	OK	11-12-2024	08:54:31.472	1407.051	37.575	OK
11-12-2024	08:54:31.661	1407.240	7.503	7.503	27.504	936	0	1.0884	OK	11-12-2024	08:54:31.661	1407.240	37.575	OK
11-12-2024	08:54:31.920	1407.499	7.503	7.503	27.509	936	0	1.0881	OK	11-12-2024	08:54:31.920	1407.499	37.575	OK
11-12-2024	08:54:32.072	1407.651	7.503	7.503	27.507	936	0	1.0882	OK	11-12-2024	08:54:32.072	1407.651	37.575	OK
11-12-2024	08:54:32.172	1407.751	7.503	7.503	27.504	936	0	1.0884	OK	11-12-2024	08:54:32.172	1407.751	37.575	OK
11-12-2024	08:54:32.274	1407.852	7.502	7.502	27.499	936	0	1.0887	OK	11-12-2024	08:54:32.274	1407.852	37.575	OK
11-12-2024	08:54:32.374	1407.953	7.503	7.503	27.504	936	0	1.0884	OK	11-12-2024	08:54:32.374	1407.953	37.575	OK
11-12-2024	08:54:32.474	1408.053	7.502	7.502	27.499	936	0	1.0887	OK	11-12-2024	08:54:32.474	1408.053	37.575	OK
11-12-2024	08:54:32.644	1408.223	7.503	7.503	27.508	936	0	1.0881	OK	11-12-2024	08:54:32.644	1408.223	37.574	OK
11-12-2024	08:54:32.915	1408.494	7.504	7.504	27.513	936	0	1.0878	OK	11-12-2024	08:54:32.915	1408.494	37.575	OK
11-12-2024	08:54:33.076	1408.655	7.503	7.503	27.508	936	0	1.0881	OK	11-12-2024	08:54:33.076	1408.655	37.575	OK
11-12-2024	08:54:33.177	1408.756	7.503	7.503	27.503	936	0	1.0885	OK	11-12-2024	08:54:33.177	1408.756	37.575	OK
11-12-2024	08:54:33.379	1408.958	7.503	7.503	27.509	937	0	1.0881	OK	11-12-2024	08:54:33.379	1408.958	37.575	OK
11-12-2024	08:54:33.477	1409.056	7.503	7.503	27.506	936	0	1.0883	OK	11-12-2024	08:54:33.477	1409.056	37.575	OK
11-12-2024	08:54:33.646	1409.225	7.504	7.504	27.510	936	0	1.0880	OK	11-12-2024	08:54:33.646	1409.225	37.576	OK
11-12-2024	08:54:33.902	1409.480	7.503	7.503	27.507	937	0	1.0882	OK	11-12-2024	08:54:33.902	1409.480	37.576	OK
11-12-2024	08:54:34.077	1409.656	7.504	7.504	27.510	936	0	1.0880	OK	11-12-2024	08:54:34.077	1409.656	37.576	OK
11-12-2024	08:54:34.177	1409.756	7.503	7.503	27.506	936	0	1.0883	OK	11-12-2024	08:54:34.177	1409.756	37.577	OK
11-12-2024	08:54:34.278	1409.857	7.503	7.503	27.504	936	0	1.0884	OK	11-12-2024	08:54:34.278	1409.857	37.577	OK
11-12-2024	08:54:34.379	1409.958	7.502	7.502	27.501	936	0	1.0886	OK	11-12-2024	08:54:34.379	1409.958	37.577	OK
11-12-2024	08:54:34.479	1410.057	7.502	7.502	27.502	936	0	1.0886	OK	11-12-2024	08:54:34.479	1410.057	37.577	OK
11-12-2024	08:54:34.651	1410.230	7.503	7.503	27.506	936	0	1.0883	OK	11-12-2024	08:54:34.651	1410.230	37.577	OK
11-12-2024	08:54:34.906	1410.485	7.504	7.504	27.512	936	0	1.0879	OK	11-12-2024	08:54:34.906	1410.485	37.576	OK
11-12-2024	08:54:35.078	1410.657	7.504	7.504	27.510	936	0	1.0880	OK	11-12-2024	08:54:35.078	1410.657	37.575	OK
11-12-2024	08:54:35.179	1410.758	7.503	7.503	27.504	936	0	1.0884	OK	11-12-2024	08:54:35.179	1410.758	37.575	OK
11-12-2024	08:54:35.280	1410.859	7.502	7.502	27.501	936	0	1.0886	OK	11-12-2024	08:54:35.280	1410.859	37.575	OK
11-12-2024	08:54:35.380	1410.959	7.503	7.503	27.504	936	0	1.0884	OK	11-12-2024	08:54:35.380	1410.959	37.575	OK
11-12-2024	08:54:35.479	1411.058	7.502	7.502	27.499	936	0	1.0888	OK	11-12-2024	08:54:35.479	1411.058	37.575	OK
11-12-2024	08:54:35.652	1411.231	7.502	7.502	27.501	936	0	1.0886	OK	11-12-2024	08:54:35.652	1411.231	37.575	OK
11-12-2024	08:54:35.927	1411.505	7.503	7.503	27.509	936	0	1.0881	OK	11-12-2024	08:54:35.927	1411.505	37.575	OK
11-12-2024	08:54:36.080	1411.659	7.503	7.503	27.508	936	0	1.0882	OK	11-12-2024	08:54:36.080	1411.659	37.575	OK
11-12-2024	08:54:36.180	1411.759	7.503	7.503	27.505	936	0	1.0884	OK	11-12-2024	08:54:36.180	1411.759	37.573	OK
11-12-2024	08:54:36.279	1411.858	7.502	7.502	27.501	936	0	1.0886	OK	11-12-2024	08:54:36.279	1411.858	37.573	OK
11-12-2024	08:54:36.380	1411.959	7.503	7.503	27.504	936	0	1.0884	OK	11-12-2024	08:54:36.380	1411.959	37.573	OK
11-12-2024	08:54:36.566	1412.145	7.502	7.502	27.497	937	0	1.0889	OK	11-12-2024	08:54:36.566	1412.145	37.573	OK
11-12-2024	08:54:36.839	1412.418	7.504	7.504	27.512	936	0	1.0878	OK	11-12-2024	08:54:36.839	1412.418	37.572	OK
11-12-2024	08:54:36.984	1412.563	7.503	7.503	27.505	936	0	1.0883	OK	11-12-2024	08:54:36.984	1412.563	37.573	OK
11-12-2024	08:54:37.083	1412.662	7.503	7.503	27.505	936	0	1.0883	OK	11-12-2024	08:54:37.083	1412.662	37.573	OK
11-12-2024	08:54:37.183	1412.762	7.502	7.502	27.501	936	0	1.0886	OK	11-12-2024	08:54:37.183	1412.762	37.572	OK
11-12-2024	08:54:37.285	1412.864	7.502	7.502	27.502	936	0	1.0886	OK	11-12-2024	08:54:37.285	1412.864	37.572	OK
11-12-2024	08:54:37.386	1412.965	7.502	7.502	27.496	936	0	1.0890	OK	11-12-2024	08:54:37.386	1412.965	37.572	OK
11-12-2024	08:54:37.567	1413.146	7.503	7.503	27.508	936	0	1.0882	OK	11-12-2024	08:54:37.567	1413.146	37.572	OK
11-12-2024	08:54:37.841	1413.420	7.503	7.503	27.503	937	0	1.0885	OK	11-12-2024	08:54:37.841	1413.420	37.573	OK
11-12-2024	08:54:37.984	1413.563	7.504	7.504	27.511	937	0	1.0879	OK	11-12-2024	08:54:37.984	1413.563	37.573	OK
11-12-2024	08:54:38.085	1413.664	7.502	7.502	27.502	936	0	1.0886	OK	11-12-2024	08:54:38.085	1413.664	37.573	OK
11-12-2024	08:54:38.187	1413.766	7.502	7.502	27.499	936	0	1.0888	OK	11-12-2024	08:54:38.187	1413.766	37.573	OK
11-12-2024	08:54:38.288	1413.867	7.502	7.502	27.497	936	0	1.0889	OK	11-12-2024	08:54:38.288	1413.867	37.573	OK
11-12-2024	08:54:38.389	1413.968	7.502	7.502	27.497	936	0	1.0889	OK	11-12-2024	08:54:38.389	1413.968	37.574	OK
11-12-2024	08:54:38.564	1414.143	7.503	7.503	27.502	936	0	1.0885	OK	11-12-2024	08:54:38.564	1414.143	37.575	OK
11-12-2024	08:54:38.822	1414.401	7.503	7.503	27.504	936	0	1.0884	OK	11-12-2024	08:54:38.822	1414.401	37.575	OK
11-12-2024	08:54:38.988	1414.567	7.504	7.504	27.509	936	0	1.0880	OK	11-12-2024	08:54:38.988	1414.567	37.575	OK
11-12-2024	08:54:39.088	1414.667	7.503	7.503	27.505	936	0	1.0883	OK	11-12-2024	08:54:39.088	1414.667	37.575	OK
11-12-2024	08:54:39.187	1414.766	7.503	7.503	27.503	936	0	1.0884	OK	11-12-2024	08:54:39.187	1414.766	37.574	OK
11-12-2024	08:54:39.288	1414.867	7.503	7.503	27.505	936	0	1.0884	OK	11-12-2024	08:54:39.288	1414.867	37.574	OK
11-12-2024	08:54:39.388	1414.967	7.502	7.502	27.499	936	0	1.0888	OK	11-12-2024	08:54:39.388	1414.967	37.576	OK
11-12-2024	08:54:39.568	1415.147	7.503	7.503	27.504	936	0	1.0884	OK	11-12-2024	08:54:39.568	1415.147	37.576	OK
11-12-2024	08:54:39.824	1415.403	7.503	7.503	27.504	936	0	1.0884	OK	11-12-2024	08:54:39.824	1415.403	37.576	OK
11-12-2024	08:54:39.990	1415.569	7.502	7.502	27.502	937	0	1.0886	OK	11-12-2024	08:54:39.990	1415.569	37.575	OK
11-12-2024	08:54:40.191	1415.770	7.503	7.503	27.506	937	0	1.0883	OK	11-12-2024	08:54:40.191	1415.770	37.574	OK
11-12-2024	08:54:40.291	1415.870	7.503	7.503	27.507	937	0	1.0882	OK	11-12-2024	08:54:40.291	1415.870	37.574	OK
11-12-2024	08:54:40.391	1415.970	7.503	7.503	27.505	936	0	1.0883	OK	11-12-2024	08:54:40.391	1415.970	37.575	OK
11-12-2024	08:54:40.566	1416.145	7.503	7.503	27.505	936	0	1.0883	OK	11-12-2024	08:54:40.566	1416.145	37.575	OK
11-12-2024	08:54:40.825	1416.404	7.503	7.503	27.508	936	0	1.0881	OK	11-12-2024	08:54:40.825	1416.404	37.575	OK
11-12-2024	08:54:40.993	1416.572	7.503	7.503	27.504	936	0	1.0884	OK	11-12-2024	08:54:40.993	1416.572	37.575	OK
11-12-2024	08:54:41.091	1416.670	7.503	7.503	27.508	936	0	1.0881	OK	11-12-2024	08:54:41.091	1416.670	37.573	OK
11-12-2024	08:54:41.194	1416.773	7.503	7.503	27.502	936	0	1.0885	OK	11-12-2024	08:54:41.194	1416.773	37.573	OK
11-12-2024	08:54:41.293	1416.872	7.503	7.503	27.503	936	0	1.0885	OK	11-12-2024	08:54:41.293	1416.872	37.573	OK
11-12-2024	08:54:41.393	1416.972	7.502	7.502	27.502	936	0	1.0886	OK	11-12-2024	08:54:41.393	1416.972	37.573	OK
11-12-2024	08:54:41.567	1417.146	7.503	7.503	27.505	936	0	1.0884	OK	11-12-2024	08:54:41.567	1417.146	37.573	OK
11-12-2024	08:54:41.821	1417.400	7.504	7.504	27.512	936	0	1.0879	OK	11-12-2024	08:54:41.821	1417.400	37.573	OK
11-12-2024	08:54:41.993	1417.572	7.503	7.503	27.506	936	0	1.0883	OK	11-12-2024	08:54:41.993	1417.572	37.573	OK
11-12-2024	08:54:42.094	1417.673	7.503	7.503	27.506	936	0	1.0883	OK	11-12-2024	08:54:42.094	1417.673	37.573	OK
11-12-2024	08:54:42.194	1417.773	7.503	7.503	27.503	936	0	1.0885	OK	11-12-2024	08:54:42.194	1417.773	37.573	OK
11-12-2024	08:54:42.295	1417.874	7.502	7.502	27.496	936	0	1.0890	OK	11-12-2024	08:54:42.295	1417.874	37.573	OK
11-12-2024	08:54:42.394	1417.973	7.502	7.502	27.500	936	0	1.0887	OK	11-12-2024	08:54:42.394	1417.973	37.573	OK
11-12-2024	08:54:42.569	1418.148	7.502	7.502	27.502	936	0	1.0886	OK	11-12-2024	08:54:42.569	1418.148	37.572	OK
11-12-2024	08:54:42.823	1418.402	7.503	7.503	27.506	936	0	1.0883	OK	11-12-2024	08:54:42.823	1418.402	37.571	OK
11-12-2024	08:54:42.997	1418.576	7.502	7.502	27.501	936	0	1.0886	OK	11-12-2024	08:54:42.997	1418.576	37.571	OK
11-12-2024	08:54:43.097	1418.676	7.503	7.503	27.504	936	0	1.0884	OK	11-12-2024	08:54:43.097	1418.676	37.570	OK
11-12-2024	08:54:43.197	1418.776	7.502	7.502	27.497	936	0	1.0889	OK	11-12-2024	08:54:43.197	1418.776	37.570	OK
11-12-2024	08:54:43.298	1418.877	7.502	7.502	27.498	936	0	1.0888	OK	11-12-2024	08:54:43.298	1418.877	37.571	OK
11-12-2024	08:54:43.397	1418.976	7.502	7.502	27.497	936	0	1.0889	OK	11-12-2024	08:54:43.397	1418.976	37.571	OK
11-12-2024	08:54:43.571	1419.150	7.503	7.503	27.504	936	0	1.0884	OK	11-12-2024	08:54:43.571	1419.150	37.572	OK
11-12-2024	08:54:43.824	1419.403	7.503	7.503	27.504	936	0	1.0884	OK	11-12-2024	08:54:43.824	1419.403	37.570	OK
11-12-2024	08:54:43.996	1419.575	7.503	7.503	27.503	936	0	1.0884	OK	11-12-2024	08:54:43.996	1419.575	37.569	OK
11-12-2024	08:54:44.096	1419.675	7.502	7.502	27.501	936	0	1.0886	OK	11-12-2024	08:54:44.096	1419.675	37.571	OK
11-12-2024	08:54:44.199	1419.777	7.503	7.503	27.502	936	0	1.0885	OK	11-12-2024	08:54:44.199	1419.777	37.571	OK
11-12-2024	08:54:44.298	1419.876	7.502	7.502	27.501	936	0	1.0886	OK	11-12-2024	08:54:44.298	1419.876	37.570	OK
11-12-2024	08:54:44.399	1419.978	7.502	7.502	27.499	936	0	1.0887	OK	11-12-2024	08:54:44.399	1419.978	37.570	OK
11-12-2024	08:54:44.587	1420.166	7.503	7.503	27.506	936	0	1.0882	OK	11-12-2024	08:54:44.587	1420.166	37.572	OK
11-12-2024	08:54:44.860	1420.439	7.504	7.504	27.509	936	0	1.0880	OK	11-12-2024	08:54:44.860	1420.439	37.570	OK
11-12-2024	08:54:44.999	1420.578	7.504	7.504	27.508	936	0	1.0881	OK	11-12-2024	08:54:44.999	1420.578	37.570	OK
11-12-2024	08:54:45.098	1420.677	7.503	7.503	27.507	936	0	1.0882	OK	11-12-2024	08:54:45.098	1420.677	37.570	OK
11-12-2024	08:54:45.201	1420.780	7.503	7.503	27.505	936	0	1.0883	OK	11-12-2024	08:54:45.201	1420.780	37.570	OK
11-12-2024	08:54:45.313	1420.891	7.504	7.504	27.509	936	0	1.0880	OK	11-12-2024	08:54:45.313	1420.891	37.570	OK
11-12-2024	08:54:45.403	1420.982	7.503	7.503	27.503	936	0	1.0884	OK	11-12-2024	08:54:45.403	1420.982	37.570	OK
11-12-2024	08:54:45.572	1421.151	7.504	7.504	27.509	936	0	1.0880	OK	11-12-2024	08:54:45.572	1421.151	37.570	OK
11-12-2024	08:54:45.830	1421.409	7.504	7.504	27.511	936	0	1.0879	OK	11-12-2024	08:54:45.830	1421.409	37.570	OK
11-12-2024	08:54:46.003	1421.582	7.504	7.504	27.511	936	0	1.0879	OK	11-12-2024	08:54:46.003	1421.582	37.570	OK
11-12-2024	08:54:46.102	1421.681	7.504	7.504	27.509	936	0	1.0880	OK	11-12-2024	08:54:46.102	1421.681	37.571	OK
11-12-2024	08:54:46.204	1421.783	7.503	7.503	27.506	936	0	1.0882	OK	11-12-2024	08:54:46.204	1421.783	37.571	OK
11-12-2024	08:54:46.310	1421.889	7.503	7.503	27.502	936	0	1.0885	OK	11-12-2024	08:54:46.310	1421.889	37.570	OK
11-12-2024	08:54:46.404	1421.983	7.503	7.503	27.504	936	0	1.0884	OK	11-12-2024	08:54:46.404	1421.983	37.570	OK
11-12-2024	08:54:46.576	1422.155	7.504	7.504	27.511	936	0	1.0879	OK	11-12-2024	08:54:46.576	1422.155	37.569	OK
11-12-2024	08:54:46.833	1422.412	7.505	7.505	27.515	936	0	1.0876	OK	11-12-2024	08:54:46.833	1422.412	37.569	OK
11-12-2024	08:54:47.005	1422.584	7.505	7.505	27.516	936	0	1.0875	OK	11-12-2024	08:54:47.005	1422.584	37.570	OK
11-12-2024	08:54:47.105	1422.684	7.504	7.504	27.510	936	0	1.0880	OK	11-12-2024	08:54:47.105	1422.684	37.571	OK
11-12-2024	08:54:47.205	1422.784	7.503	7.503	27.504	936	0	1.0884	OK	11-12-2024	08:54:47.205	1422.784	37.571	OK
11-12-2024	08:54:47.314	1422.893	7.503	7.503	27.504	936	0	1.0884	OK	11-12-2024	08:54:47.314	1422.893	37.571	OK
11-12-2024	08:54:47.405	1422.984	7.503	7.503	27.505	936	0	1.0883	OK	11-12-2024	08:54:47.405	1422.984	37.571	OK
11-12-2024	08:54:47.576	1423.155	7.504	7.504	27.511	936	0	1.0878	OK	11-12-2024	08:54:47.576	1423.155	37.572	OK
11-12-2024	08:54:47.834	1423.413	7.504	7.504	27.511	936	0	1.0878	OK	11-12-2024	08:54:47.834	1423.413	37.571	OK
11-12-2024	08:54:48.007	1423.586	7.504	7.504	27.513	936	0	1.0877	OK	11-12-2024	08:54:48.007	1423.586	37.571	OK
11-12-2024	08:54:48.107	1423.686	7.503	7.503	27.503	936	0	1.0884	OK	11-12-2024	08:54:48.107	1423.686	37.572	OK
11-12-2024	08:54:48.208	1423.787	7.503	7.503	27.505	936	0	1.0883	OK	11-12-2024	08:54:48.208	1423.787	37.572	OK
11-12-2024	08:54:48.311	1423.890	7.503	7.503	27.504	936	0	1.0883	OK	11-12-2024	08:54:48.311	1423.890	37.574	OK
11-12-2024	08:54:48.409	1423.988	7.503	7.503	27.504	936	0	1.0884	OK	11-12-2024	08:54:48.409	1423.988	37.574	OK
11-12-2024	08:54:48.578	1424.157	7.504	7.504	27.510	936	0	1.0880	OK	11-12-2024	08:54:48.578	1424.157	37.574	OK
11-12-2024	08:54:48.833	1424.412	7.504	7.504	27.512	936	0	1.0878	OK	11-12-2024	08:54:48.833	1424.412	37.574	OK
11-12-2024	08:54:49.010	1424.589	7.504	7.504	27.510	936	0	1.0880	OK	11-12-2024	08:54:49.010	1424.589	37.574	OK
11-12-2024	08:54:49.110	1424.689	7.503	7.503	27.507	936	0	1.0882	OK	11-12-2024	08:54:49.110	1424.689	37.574	OK
11-12-2024	08:54:49.212	1424.791	7.503	7.503	27.508	936	0	1.0881	OK	11-12-2024	08:54:49.212	1424.791	37.574	OK
11-12-2024	08:54:49.312	1424.891	7.503	7.503	27.503	936	0	1.0884	OK	11-12-2024	08:54:49.312	1424.891	37.574	OK
11-12-2024	08:54:49.411	1424.990	7.503	7.503	27.503	936	0	1.0884	OK	11-12-2024	08:54:49.411	1424.990	37.574	OK
11-12-2024	08:54:49.583	1425.162	7.504	7.504	27.509	936	0	1.0880	OK	11-12-2024	08:54:49.583	1425.162	37.576	OK
11-12-2024	08:54:49.842	1425.421	7.504	7.504	27.513	936	0	1.0878	OK	11-12-2024	08:54:49.842	1425.421	37.576	OK
11-12-2024	08:54:50.014	1425.593	7.504	7.504	27.510	936	0	1.0880	OK	11-12-2024	08:54:50.014	1425.593	37.576	OK
11-12-2024	08:54:50.115	1425.694	7.503	7.503	27.508	936	0	1.0881	OK	11-12-2024	08:54:50.115	1425.694	37.576	OK
11-12-2024	08:54:50.216	1425.795	7.503	7.503	27.503	936	0	1.0884	OK	11-12-2024	08:54:50.216	1425.795	37.577	OK
11-12-2024	08:54:50.316	1425.895	7.503	7.503	27.507	936	0	1.0882	OK	11-12-2024	08:54:50.316	1425.895	37.577	OK
11-12-2024	08:54:50.416	1425.995	7.503	7.503	27.504	936	0	1.0883	OK	11-12-2024	08:54:50.416	1425.995	37.576	OK
11-12-2024	08:54:50.589	1426.168	7.504	7.504	27.508	936	0	1.0880	OK	11-12-2024	08:54:50.589	1426.168	37.576	OK
11-12-2024	08:54:50.844	1426.423	7.504	7.504	27.510	936	0	1.0879	OK	11-12-2024	08:54:50.844	1426.423	37.577	OK
11-12-2024	08:54:51.019	1426.598	7.503	7.503	27.508	936	0	1.0880	OK	11-12-2024	08:54:51.019	1426.598	37.577	OK
11-12-2024	08:54:51.118	1426.697	7.503	7.503	27.507	936	0	1.0881	OK	11-12-2024	08:54:51.118	1426.697	37.577	OK
11-12-2024	08:54:51.219	1426.798	7.503	7.503	27.507	936	0	1.0881	OK	11-12-2024	08:54:51.219	1426.798	37.577	OK
11-12-2024	08:54:51.321	1426.900	7.503	7.503	27.504	936	0	1.0883	OK	11-12-2024	08:54:51.321	1426.900	37.577	OK
11-12-2024	08:54:51.420	1426.999	7.502	7.502	27.498	936	0	1.0887	OK	11-12-2024	08:54:51.420	1426.999	37.577	OK
11-12-2024	08:54:51.589	1427.168	7.503	7.503	27.505	936	0	1.0883	OK	11-12-2024	08:54:51.589	1427.168	37.576	OK
11-12-2024	08:54:51.863	1427.442	7.505	7.505	27.516	936	0	1.0875	OK	11-12-2024	08:54:51.863	1427.442	37.578	OK
11-12-2024	08:54:52.020	1427.599	7.504	7.504	27.510	936	0	1.0880	OK	11-12-2024	08:54:52.020	1427.599	37.578	OK
11-12-2024	08:54:52.122	1427.701	7.504	7.504	27.511	936	0	1.0879	OK	11-12-2024	08:54:52.122	1427.701	37.578	OK
11-12-2024	08:54:52.221	1427.800	7.503	7.503	27.504	936	0	1.0884	OK	11-12-2024	08:54:52.221	1427.800	37.579	OK
11-12-2024	08:54:52.321	1427.900	7.502	7.502	27.501	936	0	1.0886	OK	11-12-2024	08:54:52.321	1427.900	37.579	OK
11-12-2024	08:54:52.421	1428.000	7.503	7.503	27.503	936	0	1.0884	OK	11-12-2024	08:54:52.421	1428.000	37.579	OK
11-12-2024	08:54:52.607	1428.186	7.503	7.503	27.508	936	0	1.0881	OK	11-12-2024	08:54:52.607	1428.186	37.579	OK
11-12-2024	08:54:52.861	1428.439	7.504	7.504	27.510	936	0	1.0880	OK	11-12-2024	08:54:52.861	1428.439	37.578	OK
11-12-2024	08:54:53.023	1428.602	7.504	7.504	27.510	936	0	1.0880	OK	11-12-2024	08:54:53.023	1428.602	37.578	OK
11-12-2024	08:54:53.123	1428.702	7.503	7.503	27.506	936	0	1.0882	OK	11-12-2024	08:54:53.123	1428.702	37.578	OK
11-12-2024	08:54:53.225	1428.804	7.503	7.503	27.504	936	0	1.0884	OK	11-12-2024	08:54:53.225	1428.804	37.578	OK
11-12-2024	08:54:53.327	1428.906	7.503	7.503	27.505	936	0	1.0883	OK	11-12-2024	08:54:53.327	1428.906	37.578	OK
11-12-2024	08:54:53.425	1429.004	7.502	7.502	27.501	936	0	1.0886	OK	11-12-2024	08:54:53.425	1429.004	37.577	OK
11-12-2024	08:54:53.595	1429.174	7.503	7.503	27.503	936	0	1.0884	OK	11-12-2024	08:54:53.595	1429.174	37.578	OK
11-12-2024	08:54:53.850	1429.429	7.504	7.504	27.509	936	0	1.0880	OK	11-12-2024	08:54:53.850	1429.429	37.576	OK
11-12-2024	08:54:54.027	1429.606	7.504	7.504	27.512	936	0	1.0878	OK	11-12-2024	08:54:54.027	1429.606	37.576	OK
11-12-2024	08:54:54.127	1429.706	7.503	7.503	27.502	936	0	1.0885	OK	11-12-2024	08:54:54.127	1429.706	37.576	OK
11-12-2024	08:54:54.227	1429.806	7.503	7.503	27.504	936	0	1.0883	OK	11-12-2024	08:54:54.227	1429.806	37.576	OK
11-12-2024	08:54:54.328	1429.907	7.503	7.503	27.503	936	0	1.0884	OK	11-12-2024	08:54:54.328	1429.907	37.576	OK
11-12-2024	08:54:54.428	1430.007	7.503	7.503	27.504	936	0	1.0883	OK	11-12-2024	08:54:54.428	1430.007	37.576	OK
11-12-2024	08:54:54.599	1430.178	7.503	7.503	27.508	936	0	1.0881	OK	11-12-2024	08:54:54.599	1430.178	37.576	OK
11-12-2024	08:54:54.855	1430.434	7.504	7.504	27.509	936	0	1.0880	OK	11-12-2024	08:54:54.855	1430.434	37.576	OK
11-12-2024	08:54:55.028	1430.607	7.504	7.504	27.509	936	0	1.0880	OK	11-12-2024	08:54:55.028	1430.607	37.574	OK
11-12-2024	08:54:55.128	1430.707	7.503	7.503	27.503	936	0	1.0884	OK	11-12-2024	08:54:55.128	1430.707	37.574	OK
11-12-2024	08:54:55.231	1430.810	7.503	7.503	27.506	936	0	1.0882	OK	11-12-2024	08:54:55.231	1430.810	37.573	OK
11-12-2024	08:54:55.332	1430.911	7.503	7.503	27.506	936	0	1.0882	OK	11-12-2024	08:54:55.332	1430.911	37.573	OK
11-12-2024	08:54:55.431	1431.010	7.503	7.503	27.503	936	0	1.0884	OK	11-12-2024	08:54:55.431	1431.010	37.573	OK
11-12-2024	08:54:55.601	1431.180	7.503	7.503	27.501	936	0	1.0885	OK	11-12-2024	08:54:55.601	1431.180	37.573	OK
11-12-2024	08:54:55.858	1431.437	7.504	7.504	27.514	936	0	1.0876	OK	11-12-2024	08:54:55.858	1431.437	37.575	OK
11-12-2024	08:54:56.031	1431.610	7.504	7.504	27.511	936	0	1.0878	OK	11-12-2024	08:54:56.031	1431.610	37.576	OK
11-12-2024	08:54:56.132	1431.711	7.503	7.503	27.507	936	0	1.0881	OK	11-12-2024	08:54:56.132	1431.711	37.576	OK
11-12-2024	08:54:56.233	1431.812	7.503	7.503	27.506	936	0	1.0882	OK	11-12-2024	08:54:56.233	1431.812	37.576	OK
11-12-2024	08:54:56.332	1431.911	7.503	7.503	27.503	936	0	1.0884	OK	11-12-2024	08:54:56.332	1431.911	37.576	OK
11-12-2024	08:54:56.433	1432.012	7.502	7.502	27.500	936	0	1.0886	OK	11-12-2024	08:54:56.433	1432.012	37.576	OK
11-12-2024	08:54:56.602	1432.181	7.503	7.503	27.505	936	0	1.0883	OK	11-12-2024	08:54:56.602	1432.181	37.576	OK
11-12-2024	08:54:56.862	1432.441	7.504	7.504	27.510	936	0	1.0879	OK	11-12-2024	08:54:56.862	1432.441	37.578	OK
11-12-2024	08:54:57.034	1432.613	7.504	7.504	27.511	936	0	1.0878	OK	11-12-2024	08:54:57.034	1432.613	37.578	OK
11-12-2024	08:54:57.134	1432.713	7.503	7.503	27.508	936	0	1.0880	OK	11-12-2024	08:54:57.134	1432.713	37.578	OK
11-12-2024	08:54:57.234	1432.813	7.503	7.503	27.507	936	0	1.0881	OK	11-12-2024	08:54:57.234	1432.813	37.578	OK
11-12-2024	08:54:57.333	1432.912	7.503	7.503	27.507	936	0	1.0881	OK	11-12-2024	08:54:57.333	1432.912	37.578	OK
11-12-2024	08:54:57.434	1433.013	7.503	7.503	27.505	936	0	1.0883	OK	11-12-2024	08:54:57.434	1433.013	37.578	OK
11-12-2024	08:54:57.607	1433.186	7.503	7.503	27.503	936	0	1.0884	OK	11-12-2024	08:54:57.607	1433.186	37.578	OK
11-12-2024	08:54:57.863	1433.441	7.504	7.504	27.514	936	0	1.0877	OK	11-12-2024	08:54:57.863	1433.441	37.577	OK
11-12-2024	08:54:58.037	1433.616	7.504	7.504	27.510	936	0	1.0880	OK	11-12-2024	08:54:58.037	1433.616	37.577	OK
11-12-2024	08:54:58.137	1433.716	7.503	7.503	27.506	936	0	1.0882	OK	11-12-2024	08:54:58.137	1433.716	37.577	OK
11-12-2024	08:54:58.237	1433.816	7.503	7.503	27.507	936	0	1.0882	OK	11-12-2024	08:54:58.237	1433.816	37.577	OK
11-12-2024	08:54:58.337	1433.916	7.503	7.503	27.504	936	0	1.0884	OK	11-12-2024	08:54:58.337	1433.916	37.577	OK
11-12-2024	08:54:58.437	1434.016	7.503	7.503	27.505	936	0	1.0883	OK	11-12-2024	08:54:58.437	1434.016	37.577	OK
11-12-2024	08:54:58.610	1434.189	7.503	7.503	27.507	936	0	1.0881	OK	11-12-2024	08:54:58.610	1434.189	37.577	OK
11-12-2024	08:54:58.865	1434.444	7.503	7.503	27.507	936	0	1.0881	OK	11-12-2024	08:54:58.865	1434.444	37.577	OK
11-12-2024	08:54:59.038	1434.617	7.504	7.504	27.511	936	0	1.0878	OK	11-12-2024	08:54:59.038	1434.617	37.577	OK
11-12-2024	08:54:59.137	1434.716	7.503	7.503	27.508	936	0	1.0880	OK	11-12-2024	08:54:59.137	1434.716	37.577	OK
11-12-2024	08:54:59.239	1434.818	7.503	7.503	27.504	936	0	1.0883	OK	11-12-2024	08:54:59.239	1434.818	37.577	OK
11-12-2024	08:54:59.339	1434.917	7.503	7.503	27.505	936	0	1.0883	OK	11-12-2024	08:54:59.339	1434.917	37.575	OK
11-12-2024	08:54:59.438	1435.017	7.502	7.502	27.500	936	0	1.0886	OK	11-12-2024	08:54:59.438	1435.017	37.575	OK
11-12-2024	08:54:59.607	1435.186	7.503	7.503	27.501	936	0	1.0885	OK	11-12-2024	08:54:59.607	1435.186	37.575	OK
11-12-2024	08:54:59.863	1435.442	7.503	7.503	27.506	936	0	1.0882	OK	11-12-2024	08:54:59.863	1435.442	37.576	OK
11-12-2024	08:55:00.040	1435.619	7.504	7.504	27.511	936	0	1.0878	OK	11-12-2024	08:55:00.040	1435.619	37.576	OK
11-12-2024	08:55:00.139	1435.718	7.503	7.503	27.501	936	0	1.0885	OK	11-12-2024	08:55:00.139	1435.718	37.575	OK
11-12-2024	08:55:00.240	1435.819	7.503	7.503	27.501	936	0	1.0885	OK	11-12-2024	08:55:00.240	1435.819	37.575	OK
11-12-2024	08:55:00.341	1435.920	7.503	7.503	27.505	936	0	1.0883	OK	11-12-2024	08:55:00.341	1435.920	37.575	OK
11-12-2024	08:55:00.441	1436.020	7.503	7.503	27.506	936	0	1.0882	OK	11-12-2024	08:55:00.441	1436.020	37.575	OK
11-12-2024	08:55:00.611	1436.190	7.503	7.503	27.507	936	0	1.0881	OK	11-12-2024	08:55:00.611	1436.190	37.576	OK
11-12-2024	08:55:00.884	1436.463	7.504	7.504	27.511	936	0	1.0878	OK	11-12-2024	08:55:00.884	1436.463	37.576	OK
11-12-2024	08:55:01.042	1436.621	7.504	7.504	27.508	936	0	1.0880	OK	11-12-2024	08:55:01.042	1436.621	37.576	OK
11-12-2024	08:55:01.141	1436.720	7.503	7.503	27.503	936	0	1.0884	OK	11-12-2024	08:55:01.141	1436.720	37.576	OK
11-12-2024	08:55:01.243	1436.822	7.503	7.503	27.503	936	0	1.0884	OK	11-12-2024	08:55:01.243	1436.822	37.576	OK
11-12-2024	08:55:01.344	1436.923	7.503	7.503	27.502	936	0	1.0885	OK	11-12-2024	08:55:01.344	1436.923	37.576	OK
11-12-2024	08:55:01.443	1437.022	7.503	7.503	27.503	936	0	1.0884	OK	11-12-2024	08:55:01.443	1437.022	37.576	OK
11-12-2024	08:55:01.613	1437.192	7.502	7.502	27.500	936	0	1.0886	OK	11-12-2024	08:55:01.613	1437.192	37.576	OK
11-12-2024	08:55:01.884	1437.462	7.504	7.504	27.511	936	0	1.0878	OK	11-12-2024	08:55:01.884	1437.462	37.576	OK
11-12-2024	08:55:02.045	1437.624	7.504	7.504	27.510	936	0	1.0879	OK	11-12-2024	08:55:02.045	1437.624	37.576	OK
11-12-2024	08:55:02.145	1437.724	7.502	7.502	27.500	936	0	1.0886	OK	11-12-2024	08:55:02.145	1437.724	37.575	OK
11-12-2024	08:55:02.243	1437.822	7.503	7.503	27.503	936	0	1.0884	OK	11-12-2024	08:55:02.243	1437.822	37.575	OK
11-12-2024	08:55:02.355	1437.934	7.503	7.503	27.501	936	0	1.0885	OK	11-12-2024	08:55:02.355	1437.934	37.575	OK
11-12-2024	08:55:02.445	1438.023	7.502	7.502	27.499	936	0	1.0887	OK	11-12-2024	08:55:02.445	1438.023	37.575	OK
11-12-2024	08:55:02.615	1438.194	7.503	7.503	27.506	936	0	1.0882	OK	11-12-2024	08:55:02.615	1438.194	37.574	OK
11-12-2024	08:55:02.888	1438.466	7.503	7.503	27.507	936	0	1.0881	OK	11-12-2024	08:55:02.888	1438.466	37.575	OK
11-12-2024	08:55:03.045	1438.624	7.504	7.504	27.509	936	0	1.0880	OK	11-12-2024	08:55:03.045	1438.624	37.572	OK
11-12-2024	08:55:03.145	1438.724	7.503	7.503	27.506	936	0	1.0882	OK	11-12-2024	08:55:03.145	1438.724	37.571	OK
11-12-2024	08:55:03.247	1438.826	7.503	7.503	27.501	936	0	1.0885	OK	11-12-2024	08:55:03.247	1438.826	37.571	OK
11-12-2024	08:55:03.346	1438.925	7.503	7.503	27.503	936	0	1.0884	OK	11-12-2024	08:55:03.346	1438.925	37.570	OK
11-12-2024	08:55:03.447	1439.026	7.503	7.503	27.501	936	0	1.0885	OK	11-12-2024	08:55:03.447	1439.026	37.570	OK
11-12-2024	08:55:03.619	1439.197	7.503	7.503	27.504	936	0	1.0883	OK	11-12-2024	08:55:03.619	1439.197	37.568	OK
11-12-2024	08:55:03.892	1439.471	7.504	7.504	27.510	936	0	1.0879	OK	11-12-2024	08:55:03.892	1439.471	37.566	OK
11-12-2024	08:55:04.047	1439.626	7.503	7.503	27.506	936	0	1.0882	OK	11-12-2024	08:55:04.047	1439.626	37.565	OK
11-12-2024	08:55:04.148	1439.727	7.503	7.503	27.502	936	0	1.0885	OK	11-12-2024	08:55:04.148	1439.727	37.563	OK
11-12-2024	08:55:04.249	1439.827	7.504	7.504	27.507	936	0	1.0881	OK	11-12-2024	08:55:04.249	1439.827	37.563	OK
11-12-2024	08:55:04.348	1439.927	7.503	7.503	27.500	936	0	1.0886	OK	11-12-2024	08:55:04.348	1439.927	37.562	OK
11-12-2024	08:55:04.449	1440.028	7.503	7.503	27.500	936	0	1.0886	OK	11-12-2024	08:55:04.449	1440.028	37.562	OK
11-12-2024	08:55:04.618	1440.197	7.503	7.503	27.506	936	0	1.0882	OK	11-12-2024	08:55:04.618	1440.197	37.560	OK
11-12-2024	08:55:04.888	1440.467	7.504	7.504	27.512	936	0	1.0878	OK	11-12-2024	08:55:04.888	1440.467	37.559	OK
11-12-2024	08:55:05.049	1440.628	7.505	7.505	27.513	936	0	1.0877	OK	11-12-2024	08:55:05.049	1440.628	37.559	OK
11-12-2024	08:55:05.148	1440.727	7.504	7.504	27.509	936	0	1.0880	OK	11-12-2024	08:55:05.148	1440.727	37.557	OK
11-12-2024	08:55:05.250	1440.829	7.504	7.504	27.507	936	0	1.0881	OK	11-12-2024	08:55:05.250	1440.829	37.557	OK
11-12-2024	08:55:05.349	1440.928	7.504	7.504	27.508	936	0	1.0880	OK	11-12-2024	08:55:05.349	1440.928	37.558	OK
11-12-2024	08:55:05.454	1441.033	7.503	7.503	27.503	936	0	1.0884	OK	11-12-2024	08:55:05.454	1441.033	37.558	OK
11-12-2024	08:55:05.623	1441.202	7.503	7.503	27.505	936	0	1.0883	OK	11-12-2024	08:55:05.623	1441.202	37.557	OK
11-12-2024	08:55:05.879	1441.458	7.505	7.505	27.513	936	0	1.0877	OK	11-12-2024	08:55:05.879	1441.458	37.557	OK
11-12-2024	08:55:06.053	1441.632	7.504	7.504	27.511	936	0	1.0878	OK	11-12-2024	08:55:06.053	1441.632	37.556	OK
11-12-2024	08:55:06.154	1441.733	7.504	7.504	27.507	936	0	1.0881	OK	11-12-2024	08:55:06.154	1441.733	37.557	OK
11-12-2024	08:55:06.255	1441.834	7.503	7.503	27.505	936	0	1.0883	OK	11-12-2024	08:55:06.255	1441.834	37.557	OK
11-12-2024	08:55:06.456	1442.035	7.504	7.504	27.510	936	0	1.0879	OK	11-12-2024	08:55:06.456	1442.035	37.559	OK
11-12-2024	08:55:06.627	1442.206	7.504	7.504	27.511	936	0	1.0878	OK	11-12-2024	08:55:06.627	1442.206	37.559	OK
11-12-2024	08:55:06.882	1442.461	7.505	7.505	27.515	936	0	1.0876	OK	11-12-2024	08:55:06.882	1442.461	37.561	OK
11-12-2024	08:55:07.056	1442.635	7.505	7.505	27.517	936	0	1.0874	OK	11-12-2024	08:55:07.056	1442.635	37.562	OK
11-12-2024	08:55:07.157	1442.736	7.504	7.504	27.507	936	0	1.0881	OK	11-12-2024	08:55:07.157	1442.736	37.562	OK
11-12-2024	08:55:07.258	1442.837	7.503	7.503	27.504	936	0	1.0883	OK	11-12-2024	08:55:07.258	1442.837	37.563	OK
11-12-2024	08:55:07.358	1442.937	7.504	7.504	27.510	936	0	1.0879	OK	11-12-2024	08:55:07.358	1442.937	37.563	OK
11-12-2024	08:55:07.458	1443.037	7.504	7.504	27.509	936	0	1.0880	OK	11-12-2024	08:55:07.458	1443.037	37.564	OK
11-12-2024	08:55:07.628	1443.207	7.504	7.504	27.508	936	0	1.0880	OK	11-12-2024	08:55:07.628	1443.207	37.564	OK
11-12-2024	08:55:07.900	1443.479	7.504	7.504	27.510	936	0	1.0879	OK	11-12-2024	08:55:07.900	1443.479	37.566	OK
11-12-2024	08:55:08.059	1443.638	7.504	7.504	27.509	936	0	1.0880	OK	11-12-2024	08:55:08.059	1443.638	37.567	OK
11-12-2024	08:55:08.160	1443.739	7.503	7.503	27.506	936	0	1.0882	OK	11-12-2024	08:55:08.160	1443.739	37.567	OK
11-12-2024	08:55:08.258	1443.837	7.503	7.503	27.503	936	0	1.0884	OK	11-12-2024	08:55:08.258	1443.837	37.568	OK
11-12-2024	08:55:08.361	1443.940	7.503	7.503	27.501	936	0	1.0885	OK	11-12-2024	08:55:08.361	1443.940	37.568	OK
11-12-2024	08:55:08.460	1444.039	7.503	7.503	27.501	936	0	1.0885	OK	11-12-2024	08:55:08.460	1444.039	37.568	OK
11-12-2024	08:55:08.630	1444.209	7.503	7.503	27.505	936	0	1.0883	OK	11-12-2024	08:55:08.630	1444.209	37.568	OK
11-12-2024	08:55:08.886	1444.465	7.504	7.504	27.510	936	0	1.0879	OK	11-12-2024	08:55:08.886	1444.465	37.569	OK
11-12-2024	08:55:09.062	1444.641	7.504	7.504	27.511	936	0	1.0878	OK	11-12-2024	08:55:09.062	1444.641	37.569	OK
11-12-2024	08:55:09.162	1444.741	7.503	7.503	27.503	936	0	1.0884	OK	11-12-2024	08:55:09.162	1444.741	37.569	OK
11-12-2024	08:55:09.263	1444.842	7.503	7.503	27.506	936	0	1.0882	OK	11-12-2024	08:55:09.263	1444.842	37.570	OK
11-12-2024	08:55:09.362	1444.941	7.503	7.503	27.501	936	0	1.0885	OK	11-12-2024	08:55:09.362	1444.941	37.570	OK
11-12-2024	08:55:09.464	1445.043	7.502	7.502	27.500	936	0	1.0886	OK	11-12-2024	08:55:09.464	1445.043	37.570	OK
11-12-2024	08:55:09.634	1445.213	7.503	7.503	27.507	936	0	1.0881	OK	11-12-2024	08:55:09.634	1445.213	37.570	OK
11-12-2024	08:55:09.892	1445.471	7.503	7.503	27.507	937	0	1.0881	OK	11-12-2024	08:55:09.892	1445.471	37.570	OK
11-12-2024	08:55:10.063	1445.642	7.504	7.504	27.509	936	0	1.0880	OK	11-12-2024	08:55:10.063	1445.642	37.570	OK
11-12-2024	08:55:10.163	1445.742	7.503	7.503	27.507	936	0	1.0881	OK	11-12-2024	08:55:10.163	1445.742	37.570	OK
11-12-2024	08:55:10.264	1445.843	7.503	7.503	27.503	936	0	1.0884	OK	11-12-2024	08:55:10.264	1445.843	37.570	OK
11-12-2024	08:55:10.363	1445.942	7.503	7.503	27.502	936	0	1.0885	OK	11-12-2024	08:55:10.363	1445.942	37.570	OK
11-12-2024	08:55:10.463	1446.042	7.502	7.502	27.499	936	0	1.0887	OK	11-12-2024	08:55:10.463	1446.042	37.571	OK
11-12-2024	08:55:10.632	1446.211	7.503	7.503	27.504	936	0	1.0883	OK	11-12-2024	08:55:10.632	1446.211	37.572	OK
11-12-2024	08:55:10.888	1446.466	7.504	7.504	27.510	936	0	1.0879	OK	11-12-2024	08:55:10.888	1446.466	37.572	OK
11-12-2024	08:55:11.063	1446.642	7.504	7.504	27.512	936	0	1.0877	OK	11-12-2024	08:55:11.063	1446.642	37.573	OK
11-12-2024	08:55:11.163	1446.742	7.503	7.503	27.506	936	0	1.0881	OK	11-12-2024	08:55:11.163	1446.742	37.573	OK
11-12-2024	08:55:11.264	1446.843	7.504	7.504	27.507	936	0	1.0881	OK	11-12-2024	08:55:11.264	1446.843	37.572	OK
11-12-2024	08:55:11.363	1446.942	7.504	7.504	27.507	936	0	1.0881	OK	11-12-2024	08:55:11.363	1446.942	37.572	OK
11-12-2024	08:55:11.463	1447.042	7.503	7.503	27.500	936	0	1.0886	OK	11-12-2024	08:55:11.463	1447.042	37.572	OK
11-12-2024	08:55:11.633	1447.212	7.503	7.503	27.504	936	0	1.0883	OK	11-12-2024	08:55:11.633	1447.212	37.572	OK
11-12-2024	08:55:11.892	1447.471	7.504	7.504	27.511	936	0	1.0878	OK	11-12-2024	08:55:11.892	1447.471	37.572	OK
11-12-2024	08:55:12.063	1447.642	7.504	7.504	27.510	936	0	1.0879	OK	11-12-2024	08:55:12.063	1447.642	37.573	OK
11-12-2024	08:55:12.162	1447.741	7.504	7.504	27.507	936	0	1.0881	OK	11-12-2024	08:55:12.162	1447.741	37.573	OK
11-12-2024	08:55:12.265	1447.844	7.503	7.503	27.503	936	0	1.0884	OK	11-12-2024	08:55:12.265	1447.844	37.573	OK
11-12-2024	08:55:12.465	1448.044	7.503	7.503	27.505	936	0	1.0882	OK	11-12-2024	08:55:12.465	1448.044	37.573	OK
11-12-2024	08:55:12.635	1448.214	7.503	7.503	27.506	936	0	1.0881	OK	11-12-2024	08:55:12.635	1448.214	37.573	OK
11-12-2024	08:55:12.906	1448.485	7.504	7.504	27.512	936	0	1.0878	OK	11-12-2024	08:55:12.906	1448.485	37.573	OK
11-12-2024	08:55:13.065	1448.644	7.504	7.504	27.513	936	0	1.0877	OK	11-12-2024	08:55:13.065	1448.644	37.574	OK
11-12-2024	08:55:13.165	1448.744	7.504	7.504	27.508	936	0	1.0880	OK	11-12-2024	08:55:13.165	1448.744	37.574	OK
11-12-2024	08:55:13.266	1448.845	7.503	7.503	27.503	936	0	1.0884	OK	11-12-2024	08:55:13.266	1448.845	37.574	OK
11-12-2024	08:55:13.368	1448.947	7.503	7.503	27.507	936	0	1.0881	OK	11-12-2024	08:55:13.368	1448.947	37.574	OK
11-12-2024	08:55:13.469	1449.048	7.503	7.503	27.503	936	0	1.0884	OK	11-12-2024	08:55:13.469	1449.048	37.574	OK
11-12-2024	08:55:13.639	1449.218	7.503	7.503	27.504	936	0	1.0883	OK	11-12-2024	08:55:13.639	1449.218	37.574	OK
11-12-2024	08:55:13.910	1449.489	7.504	7.504	27.509	936	0	1.0880	OK	11-12-2024	08:55:13.910	1449.489	37.573	OK
11-12-2024	08:55:14.070	1449.649	7.504	7.504	27.509	936	0	1.0880	OK	11-12-2024	08:55:14.070	1449.649	37.573	OK
11-12-2024	08:55:14.169	1449.748	7.504	7.504	27.508	936	0	1.0880	OK	11-12-2024	08:55:14.169	1449.748	37.573	OK
11-12-2024	08:55:14.270	1449.849	7.503	7.503	27.503	936	0	1.0884	OK	11-12-2024	08:55:14.270	1449.849	37.573	OK
11-12-2024	08:55:14.370	1449.949	7.503	7.503	27.504	936	0	1.0883	OK	11-12-2024	08:55:14.370	1449.949	37.573	OK
11-12-2024	08:55:14.471	1450.050	7.503	7.503	27.501	936	0	1.0885	OK	11-12-2024	08:55:14.471	1450.050	37.573	OK
11-12-2024	08:55:14.660	1450.239	7.503	7.503	27.506	936	0	1.0882	OK	11-12-2024	08:55:14.660	1450.239	37.573	OK
11-12-2024	08:55:14.919	1450.497	7.504	7.504	27.510	936	0	1.0879	OK	11-12-2024	08:55:14.919	1450.497	37.574	OK
11-12-2024	08:55:15.070	1450.649	7.503	7.503	27.507	936	0	1.0881	OK	11-12-2024	08:55:15.070	1450.649	37.574	OK
11-12-2024	08:55:15.169	1450.748	7.503	7.503	27.503	936	0	1.0884	OK	11-12-2024	08:55:15.169	1450.748	37.573	OK
11-12-2024	08:55:15.270	1450.849	7.503	7.503	27.504	936	0	1.0883	OK	11-12-2024	08:55:15.270	1450.849	37.573	OK
11-12-2024	08:55:15.471	1451.050	7.504	7.504	27.507	936	0	1.0881	OK	11-12-2024	08:55:15.471	1451.050	37.572	OK
11-12-2024	08:55:15.640	1451.219	7.504	7.504	27.510	936	0	1.0879	OK	11-12-2024	08:55:15.640	1451.219	37.573	OK
11-12-2024	08:55:15.911	1451.490	7.504	7.504	27.508	936	0	1.0880	OK	11-12-2024	08:55:15.911	1451.490	37.573	OK
11-12-2024	08:55:16.072	1451.651	7.504	7.504	27.509	936	0	1.0880	OK	11-12-2024	08:55:16.072	1451.651	37.573	OK
11-12-2024	08:55:16.172	1451.751	7.504	7.504	27.509	936	0	1.0880	OK	11-12-2024	08:55:16.172	1451.751	37.572	OK
11-12-2024	08:55:16.272	1451.851	7.503	7.503	27.507	936	0	1.0881	OK	11-12-2024	08:55:16.272	1451.851	37.572	OK
11-12-2024	08:55:16.372	1451.951	7.503	7.503	27.503	936	0	1.0884	OK	11-12-2024	08:55:16.372	1451.951	37.571	OK
11-12-2024	08:55:16.472	1452.051	7.503	7.503	27.503	936	0	1.0884	OK	11-12-2024	08:55:16.472	1452.051	37.571	OK
11-12-2024	08:55:16.640	1452.219	7.503	7.503	27.502	936	0	1.0885	OK	11-12-2024	08:55:16.640	1452.219	37.571	OK
11-12-2024	08:55:16.896	1452.475	7.504	7.504	27.510	936	0	1.0879	OK	11-12-2024	08:55:16.896	1452.475	37.571	OK
11-12-2024	08:55:17.072	1452.651	7.504	7.504	27.512	936	0	1.0877	OK	11-12-2024	08:55:17.072	1452.651	37.571	OK
11-12-2024	08:55:17.172	1452.751	7.503	7.503	27.503	936	0	1.0884	OK	11-12-2024	08:55:17.172	1452.751	37.570	OK
11-12-2024	08:55:17.273	1452.852	7.503	7.503	27.500	936	0	1.0886	OK	11-12-2024	08:55:17.273	1452.852	37.570	OK
11-12-2024	08:55:17.374	1452.953	7.503	7.503	27.501	936	0	1.0885	OK	11-12-2024	08:55:17.374	1452.953	37.571	OK
11-12-2024	08:55:17.474	1453.053	7.504	7.504	27.507	936	0	1.0881	OK	11-12-2024	08:55:17.474	1453.053	37.571	OK
11-12-2024	08:55:17.643	1453.222	7.503	7.503	27.503	936	0	1.0884	OK	11-12-2024	08:55:17.643	1453.222	37.572	OK
11-12-2024	08:55:17.899	1453.478	7.504	7.504	27.513	936	0	1.0877	OK	11-12-2024	08:55:17.899	1453.478	37.572	OK
11-12-2024	08:55:18.074	1453.653	7.504	7.504	27.510	936	0	1.0879	OK	11-12-2024	08:55:18.074	1453.653	37.573	OK
11-12-2024	08:55:18.175	1453.753	7.503	7.503	27.505	936	0	1.0883	OK	11-12-2024	08:55:18.175	1453.753	37.572	OK
11-12-2024	08:55:18.274	1453.853	7.503	7.503	27.502	936	0	1.0885	OK	11-12-2024	08:55:18.274	1453.853	37.572	OK
11-12-2024	08:55:18.375	1453.954	7.503	7.503	27.504	936	0	1.0883	OK	11-12-2024	08:55:18.375	1453.954	37.573	OK
11-12-2024	08:55:18.475	1454.054	7.503	7.503	27.506	936	0	1.0882	OK	11-12-2024	08:55:18.475	1454.054	37.573	OK
11-12-2024	08:55:18.646	1454.225	7.503	7.503	27.505	936	0	1.0883	OK	11-12-2024	08:55:18.646	1454.225	37.573	OK
11-12-2024	08:55:18.915	1454.494	7.504	7.504	27.510	936	0	1.0879	OK	11-12-2024	08:55:18.915	1454.494	37.573	OK
11-12-2024	08:55:19.075	1454.654	7.505	7.505	27.515	936	0	1.0875	OK	11-12-2024	08:55:19.075	1454.654	37.574	OK
11-12-2024	08:55:19.175	1454.754	7.504	7.504	27.509	936	0	1.0879	OK	11-12-2024	08:55:19.175	1454.754	37.575	OK
11-12-2024	08:55:19.276	1454.855	7.504	7.504	27.509	936	0	1.0879	OK	11-12-2024	08:55:19.276	1454.855	37.575	OK
11-12-2024	08:55:19.375	1454.954	7.503	7.503	27.505	936	0	1.0882	OK	11-12-2024	08:55:19.375	1454.954	37.575	OK
11-12-2024	08:55:19.476	1455.055	7.503	7.503	27.502	936	0	1.0884	OK	11-12-2024	08:55:19.476	1455.055	37.575	OK
11-12-2024	08:55:19.661	1455.240	7.504	7.504	27.509	936	0	1.0879	OK	11-12-2024	08:55:19.661	1455.240	37.576	OK
11-12-2024	08:55:19.918	1455.497	7.504	7.504	27.514	936	0	1.0876	OK	11-12-2024	08:55:19.918	1455.497	37.576	OK
11-12-2024	08:55:20.078	1455.657	7.504	7.504	27.510	936	0	1.0879	OK	11-12-2024	08:55:20.078	1455.657	37.577	OK
11-12-2024	08:55:20.177	1455.756	7.503	7.503	27.505	936	0	1.0882	OK	11-12-2024	08:55:20.177	1455.756	37.577	OK
11-12-2024	08:55:20.278	1455.857	7.503	7.503	27.505	936	0	1.0882	OK	11-12-2024	08:55:20.278	1455.857	37.577	OK
11-12-2024	08:55:20.380	1455.959	7.503	7.503	27.504	936	0	1.0883	OK	11-12-2024	08:55:20.380	1455.959	37.578	OK
11-12-2024	08:55:20.481	1456.060	7.503	7.503	27.503	936	0	1.0884	OK	11-12-2024	08:55:20.481	1456.060	37.578	OK
11-12-2024	08:55:20.651	1456.230	7.504	7.504	27.508	936	0	1.0880	OK	11-12-2024	08:55:20.651	1456.230	37.577	OK
11-12-2024	08:55:20.907	1456.486	7.504	7.504	27.508	936	0	1.0880	OK	11-12-2024	08:55:20.907	1456.486	37.577	OK
11-12-2024	08:55:21.083	1456.662	7.503	7.503	27.504	936	0	1.0883	OK	11-12-2024	08:55:21.083	1456.662	37.577	OK
11-12-2024	08:55:21.183	1456.762	7.503	7.503	27.505	936	0	1.0882	OK	11-12-2024	08:55:21.183	1456.762	37.578	OK
11-12-2024	08:55:21.284	1456.863	7.503	7.503	27.507	936	0	1.0881	OK	11-12-2024	08:55:21.284	1456.863	37.578	OK
11-12-2024	08:55:21.384	1456.963	7.503	7.503	27.502	936	0	1.0884	OK	11-12-2024	08:55:21.384	1456.963	37.579	OK
11-12-2024	08:55:21.573	1457.152	7.504	7.504	27.509	936	0	1.0879	OK	11-12-2024	08:55:21.573	1457.152	37.578	OK
11-12-2024	08:55:21.829	1457.408	7.504	7.504	27.509	936	0	1.0879	OK	11-12-2024	08:55:21.829	1457.408	37.578	OK
11-12-2024	08:55:21.988	1457.567	7.504	7.504	27.508	936	0	1.0880	OK	11-12-2024	08:55:21.988	1457.567	37.579	OK
11-12-2024	08:55:22.087	1457.666	7.504	7.504	27.508	936	0	1.0880	OK	11-12-2024	08:55:22.087	1457.666	37.579	OK
11-12-2024	08:55:22.188	1457.767	7.504	7.504	27.508	936	0	1.0880	OK	11-12-2024	08:55:22.188	1457.767	37.578	OK
11-12-2024	08:55:22.288	1457.867	7.503	7.503	27.506	936	0	1.0881	OK	11-12-2024	08:55:22.288	1457.867	37.578	OK
11-12-2024	08:55:22.388	1457.967	7.502	7.502	27.498	936	0	1.0887	OK	11-12-2024	08:55:22.388	1457.967	37.577	OK
11-12-2024	08:55:22.569	1458.148	7.503	7.503	27.507	936	0	1.0881	OK	11-12-2024	08:55:22.569	1458.148	37.577	OK
11-12-2024	08:55:22.826	1458.405	7.503	7.503	27.503	936	0	1.0884	OK	11-12-2024	08:55:22.826	1458.405	37.577	OK
11-12-2024	08:55:22.988	1458.567	7.503	7.503	27.505	936	0	1.0882	OK	11-12-2024	08:55:22.988	1458.567	37.577	OK
11-12-2024	08:55:23.088	1458.667	7.504	7.504	27.510	936	0	1.0879	OK	11-12-2024	08:55:23.088	1458.667	37.577	OK
11-12-2024	08:55:23.188	1458.767	7.503	7.503	27.503	936	0	1.0884	OK	11-12-2024	08:55:23.188	1458.767	37.578	OK
11-12-2024	08:55:23.289	1458.868	7.502	7.502	27.497	936	0	1.0888	OK	11-12-2024	08:55:23.289	1458.868	37.578	OK
11-12-2024	08:55:23.570	1459.148	7.504	7.504	27.508	936	0	1.0880	OK	11-12-2024	08:55:23.570	1459.148	37.578	OK
11-12-2024	08:55:23.825	1459.404	7.504	7.504	27.511	936	0	1.0878	OK	11-12-2024	08:55:23.825	1459.404	37.577	OK
11-12-2024	08:55:23.991	1459.570	7.503	7.503	27.506	937	0	1.0881	OK	11-12-2024	08:55:23.991	1459.570	37.577	OK
11-12-2024	08:55:24.091	1459.670	7.503	7.503	27.504	936	0	1.0883	OK	11-12-2024	08:55:24.091	1459.670	37.577	OK
11-12-2024	08:55:24.190	1459.769	7.503	7.503	27.503	936	0	1.0884	OK	11-12-2024	08:55:24.190	1459.769	37.577	OK
11-12-2024	08:55:24.294	1459.873	7.503	7.503	27.501	936	0	1.0885	OK	11-12-2024	08:55:24.294	1459.873	37.578	OK
11-12-2024	08:55:24.393	1459.972	7.502	7.502	27.495	936	0	1.0889	OK	11-12-2024	08:55:24.393	1459.972	37.578	OK
11-12-2024	08:55:24.570	1460.149	7.503	7.503	27.505	936	0	1.0882	OK	11-12-2024	08:55:24.570	1460.149	37.577	OK
11-12-2024	08:55:24.827	1460.406	7.503	7.503	27.506	936	0	1.0881	OK	11-12-2024	08:55:24.827	1460.406	37.578	OK
11-12-2024	08:55:24.992	1460.571	7.503	7.503	27.504	936	0	1.0883	OK	11-12-2024	08:55:24.992	1460.571	37.578	OK
11-12-2024	08:55:25.095	1460.673	7.503	7.503	27.505	936	0	1.0882	OK	11-12-2024	08:55:25.095	1460.673	37.578	OK
11-12-2024	08:55:25.195	1460.774	7.503	7.503	27.504	936	0	1.0883	OK	11-12-2024	08:55:25.195	1460.774	37.578	OK
11-12-2024	08:55:25.295	1460.874	7.502	7.502	27.499	936	0	1.0886	OK	11-12-2024	08:55:25.295	1460.874	37.577	OK
11-12-2024	08:55:25.394	1460.973	7.502	7.502	27.498	936	0	1.0887	OK	11-12-2024	08:55:25.394	1460.973	37.577	OK
11-12-2024	08:55:25.570	1461.149	7.504	7.504	27.509	936	0	1.0879	OK	11-12-2024	08:55:25.570	1461.149	37.578	OK
11-12-2024	08:55:25.823	1461.402	7.504	7.504	27.511	936	0	1.0878	OK	11-12-2024	08:55:25.823	1461.402	37.578	OK
11-12-2024	08:55:25.994	1461.573	7.503	7.503	27.504	936	0	1.0883	OK	11-12-2024	08:55:25.994	1461.573	37.578	OK
11-12-2024	08:55:26.098	1461.677	7.503	7.503	27.504	936	0	1.0883	OK	11-12-2024	08:55:26.098	1461.677	37.578	OK
11-12-2024	08:55:26.198	1461.777	7.503	7.503	27.506	936	0	1.0881	OK	11-12-2024	08:55:26.198	1461.777	37.578	OK
11-12-2024	08:55:26.299	1461.877	7.503	7.503	27.501	936	0	1.0885	OK	11-12-2024	08:55:26.299	1461.877	37.577	OK
11-12-2024	08:55:26.397	1461.976	7.503	7.503	27.501	936	0	1.0885	OK	11-12-2024	08:55:26.397	1461.976	37.577	OK
11-12-2024	08:55:26.570	1462.149	7.503	7.503	27.503	936	0	1.0884	OK	11-12-2024	08:55:26.570	1462.149	37.576	OK
11-12-2024	08:55:26.822	1462.401	7.503	7.503	27.505	936	0	1.0882	OK	11-12-2024	08:55:26.822	1462.401	37.577	OK
11-12-2024	08:55:27.000	1462.578	7.503	7.503	27.506	936	0	1.0882	OK	11-12-2024	08:55:27.000	1462.578	37.576	OK
11-12-2024	08:55:27.098	1462.677	7.502	7.502	27.501	936	0	1.0885	OK	11-12-2024	08:55:27.098	1462.677	37.576	OK
11-12-2024	08:55:27.199	1462.778	7.503	7.503	27.504	936	0	1.0883	OK	11-12-2024	08:55:27.199	1462.778	37.576	OK
11-12-2024	08:55:27.299	1462.878	7.503	7.503	27.503	936	0	1.0884	OK	11-12-2024	08:55:27.299	1462.878	37.575	OK
11-12-2024	08:55:27.399	1462.978	7.502	7.502	27.496	936	0	1.0889	OK	11-12-2024	08:55:27.399	1462.978	37.575	OK
11-12-2024	08:55:27.570	1463.149	7.504	7.504	27.510	936	0	1.0879	OK	11-12-2024	08:55:27.570	1463.149	37.573	OK
11-12-2024	08:55:27.826	1463.405	7.504	7.504	27.508	936	0	1.0880	OK	11-12-2024	08:55:27.826	1463.405	37.573	OK
11-12-2024	08:55:28.001	1463.580	7.504	7.504	27.508	936	0	1.0880	OK	11-12-2024	08:55:28.001	1463.580	37.573	OK
11-12-2024	08:55:28.101	1463.680	7.504	7.504	27.507	936	0	1.0881	OK	11-12-2024	08:55:28.101	1463.680	37.572	OK
11-12-2024	08:55:28.203	1463.782	7.503	7.503	27.504	936	0	1.0883	OK	11-12-2024	08:55:28.203	1463.782	37.572	OK
11-12-2024	08:55:28.403	1463.982	7.504	7.504	27.508	936	0	1.0880	OK	11-12-2024	08:55:28.403	1463.982	37.572	OK
11-12-2024	08:55:28.572	1464.151	7.504	7.504	27.510	936	0	1.0879	OK	11-12-2024	08:55:28.572	1464.151	37.572	OK
11-12-2024	08:55:28.831	1464.410	7.504	7.504	27.509	936	0	1.0879	OK	11-12-2024	08:55:28.831	1464.410	37.571	OK
11-12-2024	08:55:29.003	1464.582	7.504	7.504	27.511	936	0	1.0878	OK	11-12-2024	08:55:29.003	1464.582	37.571	OK
11-12-2024	08:55:29.103	1464.682	7.504	7.504	27.508	936	0	1.0880	OK	11-12-2024	08:55:29.103	1464.682	37.572	OK
11-12-2024	08:55:29.205	1464.784	7.504	7.504	27.509	936	0	1.0880	OK	11-12-2024	08:55:29.205	1464.784	37.572	OK
11-12-2024	08:55:29.304	1464.883	7.503	7.503	27.504	936	0	1.0883	OK	11-12-2024	08:55:29.304	1464.883	37.572	OK
11-12-2024	08:55:29.405	1464.984	7.503	7.503	27.501	936	0	1.0885	OK	11-12-2024	08:55:29.405	1464.984	37.572	OK
11-12-2024	08:55:29.574	1465.153	7.504	7.504	27.510	936	0	1.0879	OK	11-12-2024	08:55:29.574	1465.153	37.572	OK
11-12-2024	08:55:29.835	1465.414	7.504	7.504	27.514	936	0	1.0876	OK	11-12-2024	08:55:29.835	1465.414	37.572	OK
11-12-2024	08:55:30.004	1465.583	7.504	7.504	27.513	936	0	1.0877	OK	11-12-2024	08:55:30.004	1465.583	37.573	OK
11-12-2024	08:55:30.104	1465.683	7.503	7.503	27.506	936	0	1.0881	OK	11-12-2024	08:55:30.104	1465.683	37.573	OK
11-12-2024	08:55:30.204	1465.783	7.503	7.503	27.506	936	0	1.0881	OK	11-12-2024	08:55:30.204	1465.783	37.573	OK
11-12-2024	08:55:30.305	1465.884	7.503	7.503	27.504	936	0	1.0883	OK	11-12-2024	08:55:30.305	1465.884	37.572	OK
11-12-2024	08:55:30.409	1465.988	7.503	7.503	27.501	936	0	1.0885	OK	11-12-2024	08:55:30.409	1465.988	37.572	OK
11-12-2024	08:55:30.581	1466.160	7.504	7.504	27.512	936	0	1.0877	OK	11-12-2024	08:55:30.581	1466.160	37.573	OK
11-12-2024	08:55:30.838	1466.417	7.505	7.505	27.516	936	0	1.0875	OK	11-12-2024	08:55:30.838	1466.417	37.574	OK
11-12-2024	08:55:31.009	1466.588	7.504	7.504	27.509	936	0	1.0879	OK	11-12-2024	08:55:31.009	1466.588	37.574	OK
11-12-2024	08:55:31.109	1466.688	7.504	7.504	27.509	936	0	1.0879	OK	11-12-2024	08:55:31.109	1466.688	37.575	OK
11-12-2024	08:55:31.209	1466.788	7.503	7.503	27.504	936	0	1.0883	OK	11-12-2024	08:55:31.209	1466.788	37.575	OK
11-12-2024	08:55:31.310	1466.889	7.503	7.503	27.507	936	0	1.0881	OK	11-12-2024	08:55:31.310	1466.889	37.576	OK
11-12-2024	08:55:31.413	1466.992	7.503	7.503	27.505	936	0	1.0882	OK	11-12-2024	08:55:31.413	1466.992	37.576	OK
11-12-2024	08:55:31.584	1467.163	7.504	7.504	27.509	936	0	1.0879	OK	11-12-2024	08:55:31.584	1467.163	37.575	OK
11-12-2024	08:55:31.857	1467.436	7.504	7.504	27.511	936	0	1.0878	OK	11-12-2024	08:55:31.857	1467.436	37.575	OK
11-12-2024	08:55:32.017	1467.596	7.504	7.504	27.511	936	0	1.0878	OK	11-12-2024	08:55:32.017	1467.596	37.577	OK
11-12-2024	08:55:32.116	1467.695	7.503	7.503	27.507	936	0	1.0881	OK	11-12-2024	08:55:32.116	1467.695	37.576	OK
11-12-2024	08:55:32.217	1467.796	7.503	7.503	27.503	936	0	1.0884	OK	11-12-2024	08:55:32.217	1467.796	37.576	OK
11-12-2024	08:55:32.339	1467.918	7.503	7.503	27.506	936	0	1.0881	OK	11-12-2024	08:55:32.339	1467.918	37.576	OK
11-12-2024	08:55:32.584	1468.163	7.504	7.504	27.509	936	0	1.0879	OK	11-12-2024	08:55:32.584	1468.163	37.576	OK
11-12-2024	08:55:32.839	1468.418	7.504	7.504	27.514	936	0	1.0876	OK	11-12-2024	08:55:32.839	1468.418	37.576	OK
11-12-2024	08:55:33.020	1468.599	7.504	7.504	27.512	936	0	1.0877	OK	11-12-2024	08:55:33.020	1468.599	37.575	OK
11-12-2024	08:55:33.120	1468.699	7.503	7.503	27.507	936	0	1.0881	OK	11-12-2024	08:55:33.120	1468.699	37.575	OK
11-12-2024	08:55:33.221	1468.800	7.504	7.504	27.508	936	0	1.0880	OK	11-12-2024	08:55:33.221	1468.800	37.575	OK
11-12-2024	08:55:33.324	1468.902	7.502	7.502	27.500	936	0	1.0886	OK	11-12-2024	08:55:33.324	1468.902	37.575	OK
11-12-2024	08:55:33.421	1469.000	7.503	7.503	27.505	936	0	1.0882	OK	11-12-2024	08:55:33.421	1469.000	37.576	OK
11-12-2024	08:55:33.590	1469.169	7.503	7.503	27.505	936	0	1.0882	OK	11-12-2024	08:55:33.590	1469.169	37.577	OK
11-12-2024	08:55:33.847	1469.426	7.504	7.504	27.511	936	0	1.0878	OK	11-12-2024	08:55:33.847	1469.426	37.577	OK
11-12-2024	08:55:34.023	1469.602	7.504	7.504	27.513	936	0	1.0877	OK	11-12-2024	08:55:34.023	1469.602	37.576	OK
11-12-2024	08:55:34.124	1469.703	7.503	7.503	27.507	936	0	1.0881	OK	11-12-2024	08:55:34.124	1469.703	37.576	OK
11-12-2024	08:55:34.223	1469.802	7.503	7.503	27.504	936	0	1.0883	OK	11-12-2024	08:55:34.223	1469.802	37.575	OK
11-12-2024	08:55:34.323	1469.902	7.502	7.502	27.497	936	0	1.0888	OK	11-12-2024	08:55:34.323	1469.902	37.575	OK
11-12-2024	08:55:34.571	1470.150	7.504	7.504	27.508	936	0	1.0880	OK	11-12-2024	08:55:34.571	1470.150	37.574	OK
11-12-2024	08:55:34.832	1470.411	7.504	7.504	27.508	936	0	1.0880	OK	11-12-2024	08:55:34.832	1470.411	37.573	OK
11-12-2024	08:55:34.923	1470.502	7.503	7.503	27.506	936	0	1.0882	OK	11-12-2024	08:55:34.923	1470.502	37.573	OK
11-12-2024	08:55:35.023	1470.602	7.503	7.503	27.502	936	0	1.0885	OK	11-12-2024	08:55:35.023	1470.602	37.573	OK
11-12-2024	08:55:35.123	1470.702	7.503	7.503	27.501	936	0	1.0885	OK	11-12-2024	08:55:35.123	1470.702	37.573	OK
11-12-2024	08:55:35.224	1470.803	7.503	7.503	27.503	936	0	1.0884	OK	11-12-2024	08:55:35.224	1470.803	37.572	OK
11-12-2024	08:55:35.324	1470.903	7.502	7.502	27.496	936	0	1.0888	OK	11-12-2024	08:55:35.324	1470.903	37.572	OK
11-12-2024	08:55:35.574	1471.153	7.503	7.503	27.503	936	0	1.0884	OK	11-12-2024	08:55:35.574	1471.153	37.571	OK
11-12-2024	08:55:35.846	1471.425	7.504	7.504	27.507	936	0	1.0881	OK	11-12-2024	08:55:35.846	1471.425	37.569	OK
11-12-2024	08:55:36.025	1471.604	7.504	7.504	27.509	936	0	1.0879	OK	11-12-2024	08:55:36.025	1471.604	37.569	OK
11-12-2024	08:55:36.126	1471.705	7.503	7.503	27.502	936	0	1.0884	OK	11-12-2024	08:55:36.126	1471.705	37.569	OK
11-12-2024	08:55:36.226	1471.805	7.503	7.503	27.503	936	0	1.0884	OK	11-12-2024	08:55:36.226	1471.805	37.570	OK
11-12-2024	08:55:36.326	1471.905	7.503	7.503	27.505	936	0	1.0882	OK	11-12-2024	08:55:36.326	1471.905	37.570	OK
11-12-2024	08:55:36.427	1472.006	7.503	7.503	27.502	936	0	1.0884	OK	11-12-2024	08:55:36.427	1472.006	37.569	OK
